<?xml version="1.0" encoding="UTF-8"?><gpx xmlns="http://www.topografix.com/GPX/1/1" xmlns:xsi="http://www.w3.org/2001/XMLSchema-instance" version="1.1" creator="Polar V650" xsi:schemaLocation="http://www.topografix.com/GPX/1/1 http://www.topografix.com/GPX/1/1/gpx.xsd"><metadata><author><name>Polar</name></author><time>2022-03-18T08:20:41.798Z</time><bounds minlat="43.38643333" minlon="13.165495" maxlat="43.43863" maxlon="13.303375"></bounds></metadata><trk><trkseg><trkpt lat="43.43763833" lon="13.24207167"><ele>140.0</ele><time>2022-03-17T13:51:26.316Z</time></trkpt><trkpt lat="43.43763833" lon="13.24207167"><ele>140.0</ele><time>2022-03-17T13:51:27.292Z</time></trkpt><trkpt lat="43.43764" lon="13.24203167"><ele>156.0</ele><time>2022-03-17T13:51:28.303Z</time></trkpt><trkpt lat="43.43764" lon="13.24203167"><ele>156.0</ele><time>2022-03-17T13:51:29.315Z</time></trkpt><trkpt lat="43.43761833" lon="13.24197667"><ele>160.0</ele><time>2022-03-17T13:51:30.313Z</time></trkpt><trkpt lat="43.437605" lon="13.24194167"><ele>161.0</ele><time>2022-03-17T13:51:31.302Z</time></trkpt><trkpt lat="43.437605" lon="13.24194167"><ele>161.0</ele><time>2022-03-17T13:51:32.311Z</time></trkpt><trkpt lat="43.43758" lon="13.24186167"><ele>163.0</ele><time>2022-03-17T13:51:33.317Z</time></trkpt><trkpt lat="43.43758" lon="13.24186167"><ele>163.0</ele><time>2022-03-17T13:51:34.295Z</time></trkpt><trkpt lat="43.43755333" lon="13.24178667"><ele>163.0</ele><time>2022-03-17T13:51:35.302Z</time></trkpt><trkpt lat="43.43753667" lon="13.241755"><ele>163.0</ele><time>2022-03-17T13:51:36.302Z</time></trkpt><trkpt lat="43.43753667" lon="13.241755"><ele>163.0</ele><time>2022-03-17T13:51:37.298Z</time></trkpt><trkpt lat="43.437505" lon="13.24168667"><ele>162.0</ele><time>2022-03-17T13:51:38.303Z</time></trkpt><trkpt lat="43.43749167" lon="13.24165333"><ele>161.0</ele><time>2022-03-17T13:51:39.301Z</time></trkpt><trkpt lat="43.43749167" lon="13.24165333"><ele>161.0</ele><time>2022-03-17T13:51:40.297Z</time></trkpt><trkpt lat="43.43745667" lon="13.24158333"><ele>160.0</ele><time>2022-03-17T13:51:41.298Z</time></trkpt><trkpt lat="43.43745667" lon="13.24158333"><ele>160.0</ele><time>2022-03-17T13:51:42.297Z</time></trkpt><trkpt lat="43.43742333" lon="13.24151167"><ele>159.0</ele><time>2022-03-17T13:51:43.296Z</time></trkpt><trkpt lat="43.43742333" lon="13.24151167"><ele>159.0</ele><time>2022-03-17T13:51:44.297Z</time></trkpt><trkpt lat="43.43738667" lon="13.24143833"><ele>159.0</ele><time>2022-03-17T13:51:45.303Z</time></trkpt><trkpt lat="43.43738667" lon="13.24143833"><ele>159.0</ele><time>2022-03-17T13:51:46.297Z</time></trkpt><trkpt lat="43.43735167" lon="13.24136833"><ele>159.0</ele><time>2022-03-17T13:51:47.301Z</time></trkpt><trkpt lat="43.43735167" lon="13.24136833"><ele>159.0</ele><time>2022-03-17T13:51:48.296Z</time></trkpt><trkpt lat="43.437315" lon="13.24129333"><ele>160.0</ele><time>2022-03-17T13:51:49.299Z</time></trkpt><trkpt lat="43.43729667" lon="13.24125667"><ele>160.0</ele><time>2022-03-17T13:51:50.300Z</time></trkpt><trkpt lat="43.43729667" lon="13.24125667"><ele>160.0</ele><time>2022-03-17T13:51:51.295Z</time></trkpt><trkpt lat="43.437255" lon="13.24118333"><ele>160.0</ele><time>2022-03-17T13:51:52.299Z</time></trkpt><trkpt lat="43.437255" lon="13.24118333"><ele>160.0</ele><time>2022-03-17T13:51:53.296Z</time></trkpt><trkpt lat="43.43721333" lon="13.24110833"><ele>160.0</ele><time>2022-03-17T13:51:54.302Z</time></trkpt><trkpt lat="43.43721333" lon="13.24110833"><ele>160.0</ele><time>2022-03-17T13:51:55.298Z</time></trkpt><trkpt lat="43.43717167" lon="13.24103833"><ele>160.0</ele><time>2022-03-17T13:51:56.299Z</time></trkpt><trkpt lat="43.43717167" lon="13.24103833"><ele>160.0</ele><time>2022-03-17T13:51:57.296Z</time></trkpt><trkpt lat="43.43713167" lon="13.24096667"><ele>160.0</ele><time>2022-03-17T13:51:58.298Z</time></trkpt><trkpt lat="43.43711167" lon="13.24093"><ele>160.0</ele><time>2022-03-17T13:51:59.300Z</time></trkpt><trkpt lat="43.43711167" lon="13.24093"><ele>160.0</ele><time>2022-03-17T13:52:00.300Z</time></trkpt><trkpt lat="43.43707333" lon="13.24086167"><ele>160.0</ele><time>2022-03-17T13:52:01.292Z</time></trkpt><trkpt lat="43.437055" lon="13.240825"><ele>159.0</ele><time>2022-03-17T13:52:02.302Z</time></trkpt><trkpt lat="43.437055" lon="13.240825"><ele>159.0</ele><time>2022-03-17T13:52:03.297Z</time></trkpt><trkpt lat="43.43701833" lon="13.24075333"><ele>159.0</ele><time>2022-03-17T13:52:04.298Z</time></trkpt><trkpt lat="43.43699833" lon="13.24071667"><ele>158.0</ele><time>2022-03-17T13:52:05.298Z</time></trkpt><trkpt lat="43.43699833" lon="13.24071667"><ele>158.0</ele><time>2022-03-17T13:52:06.295Z</time></trkpt><trkpt lat="43.43695833" lon="13.24064167"><ele>158.0</ele><time>2022-03-17T13:52:07.297Z</time></trkpt><trkpt lat="43.43693667" lon="13.24060167"><ele>157.0</ele><time>2022-03-17T13:52:08.300Z</time></trkpt><trkpt lat="43.43693667" lon="13.24060167"><ele>157.0</ele><time>2022-03-17T13:52:09.296Z</time></trkpt><trkpt lat="43.43689167" lon="13.240515"><ele>156.0</ele><time>2022-03-17T13:52:10.300Z</time></trkpt><trkpt lat="43.43689167" lon="13.240515"><ele>156.0</ele><time>2022-03-17T13:52:11.296Z</time></trkpt><trkpt lat="43.436845" lon="13.24043833"><ele>155.0</ele><time>2022-03-17T13:52:12.288Z</time></trkpt><trkpt lat="43.436845" lon="13.24043833"><ele>155.0</ele><time>2022-03-17T13:52:13.294Z</time></trkpt><trkpt lat="43.43679667" lon="13.24036"><ele>155.0</ele><time>2022-03-17T13:52:14.302Z</time></trkpt><trkpt lat="43.43679667" lon="13.24036"><ele>155.0</ele><time>2022-03-17T13:52:15.297Z</time></trkpt><trkpt lat="43.43675833" lon="13.24028333"><ele>154.0</ele><time>2022-03-17T13:52:16.299Z</time></trkpt><trkpt lat="43.43675833" lon="13.24028333"><ele>154.0</ele><time>2022-03-17T13:52:17.296Z</time></trkpt><trkpt lat="43.436715" lon="13.24020667"><ele>154.0</ele><time>2022-03-17T13:52:18.299Z</time></trkpt><trkpt lat="43.436715" lon="13.24020667"><ele>154.0</ele><time>2022-03-17T13:52:19.294Z</time></trkpt><trkpt lat="43.43667667" lon="13.24013"><ele>153.0</ele><time>2022-03-17T13:52:20.300Z</time></trkpt><trkpt lat="43.43665667" lon="13.240095"><ele>153.0</ele><time>2022-03-17T13:52:21.323Z</time></trkpt><trkpt lat="43.43665667" lon="13.240095"><ele>153.0</ele><time>2022-03-17T13:52:22.311Z</time></trkpt><trkpt lat="43.43662167" lon="13.240025"><ele>153.0</ele><time>2022-03-17T13:52:23.319Z</time></trkpt><trkpt lat="43.436605" lon="13.23998833"><ele>153.0</ele><time>2022-03-17T13:52:24.290Z</time></trkpt><trkpt lat="43.436605" lon="13.23998833"><ele>153.0</ele><time>2022-03-17T13:52:25.301Z</time></trkpt><trkpt lat="43.436565" lon="13.23992167"><ele>154.0</ele><time>2022-03-17T13:52:26.301Z</time></trkpt><trkpt lat="43.436545" lon="13.239885"><ele>154.0</ele><time>2022-03-17T13:52:27.323Z</time></trkpt><trkpt lat="43.436545" lon="13.239885"><ele>154.0</ele><time>2022-03-17T13:52:28.289Z</time></trkpt><trkpt lat="43.436505" lon="13.239815"><ele>154.0</ele><time>2022-03-17T13:52:29.296Z</time></trkpt><trkpt lat="43.436485" lon="13.23978"><ele>153.0</ele><time>2022-03-17T13:52:30.304Z</time></trkpt><trkpt lat="43.43646667" lon="13.23974167"><ele>153.0</ele><time>2022-03-17T13:52:31.300Z</time></trkpt><trkpt lat="43.43646667" lon="13.23974167"><ele>153.0</ele><time>2022-03-17T13:52:32.298Z</time></trkpt><trkpt lat="43.43642667" lon="13.23966833"><ele>152.0</ele><time>2022-03-17T13:52:33.304Z</time></trkpt><trkpt lat="43.43642667" lon="13.23966833"><ele>152.0</ele><time>2022-03-17T13:52:34.296Z</time></trkpt><trkpt lat="43.43638167" lon="13.239595"><ele>152.0</ele><time>2022-03-17T13:52:35.317Z</time></trkpt><trkpt lat="43.43636" lon="13.239555"><ele>152.0</ele><time>2022-03-17T13:52:36.309Z</time></trkpt><trkpt lat="43.43636" lon="13.239555"><ele>152.0</ele><time>2022-03-17T13:52:37.301Z</time></trkpt><trkpt lat="43.43631833" lon="13.239465"><ele>152.0</ele><time>2022-03-17T13:52:38.304Z</time></trkpt><trkpt lat="43.43631833" lon="13.239465"><ele>152.0</ele><time>2022-03-17T13:52:39.296Z</time></trkpt><trkpt lat="43.43627833" lon="13.239375"><ele>152.0</ele><time>2022-03-17T13:52:40.300Z</time></trkpt><trkpt lat="43.43627833" lon="13.239375"><ele>152.0</ele><time>2022-03-17T13:52:41.294Z</time></trkpt><trkpt lat="43.436235" lon="13.23929"><ele>153.0</ele><time>2022-03-17T13:52:42.297Z</time></trkpt><trkpt lat="43.436235" lon="13.23929"><ele>153.0</ele><time>2022-03-17T13:52:43.293Z</time></trkpt><trkpt lat="43.43619167" lon="13.23920833"><ele>153.0</ele><time>2022-03-17T13:52:44.302Z</time></trkpt><trkpt lat="43.43619167" lon="13.23920833"><ele>153.0</ele><time>2022-03-17T13:52:45.296Z</time></trkpt><trkpt lat="43.436145" lon="13.23913333"><ele>154.0</ele><time>2022-03-17T13:52:46.309Z</time></trkpt><trkpt lat="43.436145" lon="13.23913333"><ele>154.0</ele><time>2022-03-17T13:52:47.303Z</time></trkpt><trkpt lat="43.43610333" lon="13.23905167"><ele>154.0</ele><time>2022-03-17T13:52:48.301Z</time></trkpt><trkpt lat="43.43610333" lon="13.23905167"><ele>154.0</ele><time>2022-03-17T13:52:49.295Z</time></trkpt><trkpt lat="43.43606333" lon="13.23897667"><ele>154.0</ele><time>2022-03-17T13:52:50.300Z</time></trkpt><trkpt lat="43.43606333" lon="13.23897667"><ele>154.0</ele><time>2022-03-17T13:52:51.294Z</time></trkpt><trkpt lat="43.43602333" lon="13.23888667"><ele>153.0</ele><time>2022-03-17T13:52:52.300Z</time></trkpt><trkpt lat="43.43602333" lon="13.23888667"><ele>153.0</ele><time>2022-03-17T13:52:53.292Z</time></trkpt><trkpt lat="43.43598333" lon="13.23879833"><ele>153.0</ele><time>2022-03-17T13:52:54.300Z</time></trkpt><trkpt lat="43.43598333" lon="13.23879833"><ele>153.0</ele><time>2022-03-17T13:52:55.295Z</time></trkpt><trkpt lat="43.43593833" lon="13.23872167"><ele>153.0</ele><time>2022-03-17T13:52:56.311Z</time></trkpt><trkpt lat="43.43593833" lon="13.23872167"><ele>153.0</ele><time>2022-03-17T13:52:57.300Z</time></trkpt><trkpt lat="43.435895" lon="13.238635"><ele>153.0</ele><time>2022-03-17T13:52:58.298Z</time></trkpt><trkpt lat="43.435895" lon="13.238635"><ele>153.0</ele><time>2022-03-17T13:52:59.295Z</time></trkpt><trkpt lat="43.43584833" lon="13.23856"><ele>153.0</ele><time>2022-03-17T13:53:00.301Z</time></trkpt><trkpt lat="43.43584833" lon="13.23856"><ele>153.0</ele><time>2022-03-17T13:53:01.295Z</time></trkpt><trkpt lat="43.43581" lon="13.23847167"><ele>153.0</ele><time>2022-03-17T13:53:02.300Z</time></trkpt><trkpt lat="43.43581" lon="13.23847167"><ele>153.0</ele><time>2022-03-17T13:53:03.298Z</time></trkpt><trkpt lat="43.43577" lon="13.23838333"><ele>153.0</ele><time>2022-03-17T13:53:04.299Z</time></trkpt><trkpt lat="43.43574667" lon="13.23833667"><ele>153.0</ele><time>2022-03-17T13:53:05.299Z</time></trkpt><trkpt lat="43.43574667" lon="13.23833667"><ele>153.0</ele><time>2022-03-17T13:53:06.294Z</time></trkpt><trkpt lat="43.43570667" lon="13.23824667"><ele>153.0</ele><time>2022-03-17T13:53:07.299Z</time></trkpt><trkpt lat="43.43570667" lon="13.23824667"><ele>153.0</ele><time>2022-03-17T13:53:08.296Z</time></trkpt><trkpt lat="43.43566167" lon="13.23815667"><ele>152.0</ele><time>2022-03-17T13:53:09.300Z</time></trkpt><trkpt lat="43.43564" lon="13.23811333"><ele>152.0</ele><time>2022-03-17T13:53:10.301Z</time></trkpt><trkpt lat="43.43564" lon="13.23811333"><ele>152.0</ele><time>2022-03-17T13:53:11.295Z</time></trkpt><trkpt lat="43.43559667" lon="13.23802833"><ele>151.0</ele><time>2022-03-17T13:53:12.300Z</time></trkpt><trkpt lat="43.43559667" lon="13.23802833"><ele>151.0</ele><time>2022-03-17T13:53:13.295Z</time></trkpt><trkpt lat="43.435555" lon="13.23794667"><ele>152.0</ele><time>2022-03-17T13:53:14.300Z</time></trkpt><trkpt lat="43.435535" lon="13.23790833"><ele>152.0</ele><time>2022-03-17T13:53:15.299Z</time></trkpt><trkpt lat="43.435535" lon="13.23790833"><ele>152.0</ele><time>2022-03-17T13:53:16.295Z</time></trkpt><trkpt lat="43.43549833" lon="13.23783667"><ele>152.0</ele><time>2022-03-17T13:53:17.300Z</time></trkpt><trkpt lat="43.43549833" lon="13.23783667"><ele>152.0</ele><time>2022-03-17T13:53:18.295Z</time></trkpt><trkpt lat="43.43546167" lon="13.23776667"><ele>152.0</ele><time>2022-03-17T13:53:19.299Z</time></trkpt><trkpt lat="43.43544667" lon="13.23773167"><ele>152.0</ele><time>2022-03-17T13:53:20.299Z</time></trkpt><trkpt lat="43.43542833" lon="13.23769833"><ele>152.0</ele><time>2022-03-17T13:53:21.320Z</time></trkpt><trkpt lat="43.43542833" lon="13.23769833"><ele>152.0</ele><time>2022-03-17T13:53:22.322Z</time></trkpt><trkpt lat="43.43538833" lon="13.23763"><ele>152.0</ele><time>2022-03-17T13:53:23.289Z</time></trkpt><trkpt lat="43.43536667" lon="13.237595"><ele>152.0</ele><time>2022-03-17T13:53:24.299Z</time></trkpt><trkpt lat="43.43536667" lon="13.237595"><ele>152.0</ele><time>2022-03-17T13:53:25.308Z</time></trkpt><trkpt lat="43.43532833" lon="13.23752"><ele>152.0</ele><time>2022-03-17T13:53:26.301Z</time></trkpt><trkpt lat="43.43532833" lon="13.23752"><ele>152.0</ele><time>2022-03-17T13:53:27.295Z</time></trkpt><trkpt lat="43.43529167" lon="13.23744"><ele>152.0</ele><time>2022-03-17T13:53:28.314Z</time></trkpt><trkpt lat="43.43529167" lon="13.23744"><ele>152.0</ele><time>2022-03-17T13:53:29.301Z</time></trkpt><trkpt lat="43.43525833" lon="13.23736"><ele>152.0</ele><time>2022-03-17T13:53:30.298Z</time></trkpt><trkpt lat="43.43525833" lon="13.23736"><ele>152.0</ele><time>2022-03-17T13:53:31.295Z</time></trkpt><trkpt lat="43.43521833" lon="13.23727667"><ele>152.0</ele><time>2022-03-17T13:53:32.292Z</time></trkpt><trkpt lat="43.43521833" lon="13.23727667"><ele>152.0</ele><time>2022-03-17T13:53:33.298Z</time></trkpt><trkpt lat="43.43518" lon="13.23718667"><ele>152.0</ele><time>2022-03-17T13:53:34.301Z</time></trkpt><trkpt lat="43.43518" lon="13.23718667"><ele>152.0</ele><time>2022-03-17T13:53:35.295Z</time></trkpt><trkpt lat="43.43513833" lon="13.23709167"><ele>152.0</ele><time>2022-03-17T13:53:36.298Z</time></trkpt><trkpt lat="43.43513833" lon="13.23709167"><ele>152.0</ele><time>2022-03-17T13:53:37.293Z</time></trkpt><trkpt lat="43.43508833" lon="13.23699333"><ele>152.0</ele><time>2022-03-17T13:53:38.298Z</time></trkpt><trkpt lat="43.43508833" lon="13.23699333"><ele>152.0</ele><time>2022-03-17T13:53:39.295Z</time></trkpt><trkpt lat="43.43503333" lon="13.23689667"><ele>151.0</ele><time>2022-03-17T13:53:40.319Z</time></trkpt><trkpt lat="43.43503333" lon="13.23689667"><ele>151.0</ele><time>2022-03-17T13:53:41.318Z</time></trkpt><trkpt lat="43.43496667" lon="13.23681333"><ele>151.0</ele><time>2022-03-17T13:53:42.299Z</time></trkpt><trkpt lat="43.43496667" lon="13.23681333"><ele>151.0</ele><time>2022-03-17T13:53:43.295Z</time></trkpt><trkpt lat="43.434895" lon="13.23673833"><ele>152.0</ele><time>2022-03-17T13:53:44.302Z</time></trkpt><trkpt lat="43.43486" lon="13.23670667"><ele>152.0</ele><time>2022-03-17T13:53:45.300Z</time></trkpt><trkpt lat="43.43486" lon="13.23670667"><ele>152.0</ele><time>2022-03-17T13:53:46.296Z</time></trkpt><trkpt lat="43.43479" lon="13.23664167"><ele>152.0</ele><time>2022-03-17T13:53:47.298Z</time></trkpt><trkpt lat="43.43479" lon="13.23664167"><ele>152.0</ele><time>2022-03-17T13:53:48.295Z</time></trkpt><trkpt lat="43.43471" lon="13.23658167"><ele>153.0</ele><time>2022-03-17T13:53:49.298Z</time></trkpt><trkpt lat="43.43466667" lon="13.23655"><ele>154.0</ele><time>2022-03-17T13:53:50.301Z</time></trkpt><trkpt lat="43.43466667" lon="13.23655"><ele>154.0</ele><time>2022-03-17T13:53:51.295Z</time></trkpt><trkpt lat="43.434575" lon="13.236495"><ele>155.0</ele><time>2022-03-17T13:53:52.305Z</time></trkpt><trkpt lat="43.434575" lon="13.236495"><ele>155.0</ele><time>2022-03-17T13:53:53.295Z</time></trkpt><trkpt lat="43.434475" lon="13.23643833"><ele>156.0</ele><time>2022-03-17T13:53:54.298Z</time></trkpt><trkpt lat="43.434475" lon="13.23643833"><ele>156.0</ele><time>2022-03-17T13:53:55.295Z</time></trkpt><trkpt lat="43.43436" lon="13.23639667"><ele>158.0</ele><time>2022-03-17T13:53:56.304Z</time></trkpt><trkpt lat="43.43436" lon="13.23639667"><ele>158.0</ele><time>2022-03-17T13:53:57.297Z</time></trkpt><trkpt lat="43.434255" lon="13.23634333"><ele>159.0</ele><time>2022-03-17T13:53:58.308Z</time></trkpt><trkpt lat="43.434255" lon="13.23634333"><ele>159.0</ele><time>2022-03-17T13:53:59.296Z</time></trkpt><trkpt lat="43.43413833" lon="13.23629"><ele>159.0</ele><time>2022-03-17T13:54:00.300Z</time></trkpt><trkpt lat="43.43413833" lon="13.23629"><ele>159.0</ele><time>2022-03-17T13:54:01.293Z</time></trkpt><trkpt lat="43.43390833" lon="13.236195"><ele>171.0</ele><time>2022-03-17T13:54:02.304Z</time></trkpt><trkpt lat="43.43382667" lon="13.23618333"><ele>180.0</ele><time>2022-03-17T13:54:03.317Z</time></trkpt><trkpt lat="43.43382667" lon="13.23618333"><ele>180.0</ele><time>2022-03-17T13:54:04.286Z</time></trkpt><trkpt lat="43.43369167" lon="13.23618333"><ele>186.0</ele><time>2022-03-17T13:54:05.293Z</time></trkpt><trkpt lat="43.43369167" lon="13.23618333"><ele>186.0</ele><time>2022-03-17T13:54:06.313Z</time></trkpt><trkpt lat="43.43357" lon="13.23611167"><ele>187.0</ele><time>2022-03-17T13:54:07.293Z</time></trkpt><trkpt lat="43.43357" lon="13.23611167"><ele>187.0</ele><time>2022-03-17T13:54:08.317Z</time></trkpt><trkpt lat="43.43346333" lon="13.23599333"><ele>187.0</ele><time>2022-03-17T13:54:09.297Z</time></trkpt><trkpt lat="43.43342167" lon="13.23592"><ele>187.0</ele><time>2022-03-17T13:54:10.285Z</time></trkpt><trkpt lat="43.43342167" lon="13.23592"><ele>187.0</ele><time>2022-03-17T13:54:11.318Z</time></trkpt><trkpt lat="43.433365" lon="13.23574167"><ele>187.0</ele><time>2022-03-17T13:54:12.297Z</time></trkpt><trkpt lat="43.433365" lon="13.23574167"><ele>187.0</ele><time>2022-03-17T13:54:13.284Z</time></trkpt><trkpt lat="43.43333167" lon="13.23554833"><ele>187.0</ele><time>2022-03-17T13:54:14.293Z</time></trkpt><trkpt lat="43.43331667" lon="13.23544667"><ele>187.0</ele><time>2022-03-17T13:54:15.300Z</time></trkpt><trkpt lat="43.43331667" lon="13.23544667"><ele>187.0</ele><time>2022-03-17T13:54:16.308Z</time></trkpt><trkpt lat="43.43329" lon="13.23523667"><ele>186.0</ele><time>2022-03-17T13:54:17.316Z</time></trkpt><trkpt lat="43.43328167" lon="13.23513167"><ele>185.0</ele><time>2022-03-17T13:54:18.307Z</time></trkpt><trkpt lat="43.43328167" lon="13.23513167"><ele>185.0</ele><time>2022-03-17T13:54:19.296Z</time></trkpt><trkpt lat="43.43326667" lon="13.23493333"><ele>185.0</ele><time>2022-03-17T13:54:20.316Z</time></trkpt><trkpt lat="43.43326667" lon="13.23493333"><ele>185.0</ele><time>2022-03-17T13:54:21.303Z</time></trkpt><trkpt lat="43.43325333" lon="13.23473"><ele>184.0</ele><time>2022-03-17T13:54:22.301Z</time></trkpt><trkpt lat="43.43325333" lon="13.23473"><ele>184.0</ele><time>2022-03-17T13:54:23.296Z</time></trkpt><trkpt lat="43.43323667" lon="13.23452"><ele>183.0</ele><time>2022-03-17T13:54:24.300Z</time></trkpt><trkpt lat="43.43323667" lon="13.23452"><ele>183.0</ele><time>2022-03-17T13:54:25.290Z</time></trkpt><trkpt lat="43.43321667" lon="13.23431"><ele>183.0</ele><time>2022-03-17T13:54:26.309Z</time></trkpt><trkpt lat="43.43321667" lon="13.23431"><ele>183.0</ele><time>2022-03-17T13:54:27.296Z</time></trkpt><trkpt lat="43.43320167" lon="13.23409833"><ele>182.0</ele><time>2022-03-17T13:54:28.298Z</time></trkpt><trkpt lat="43.43320167" lon="13.23409833"><ele>182.0</ele><time>2022-03-17T13:54:29.293Z</time></trkpt><trkpt lat="43.43318833" lon="13.23388833"><ele>181.0</ele><time>2022-03-17T13:54:30.298Z</time></trkpt><trkpt lat="43.43318833" lon="13.23388833"><ele>181.0</ele><time>2022-03-17T13:54:31.295Z</time></trkpt><trkpt lat="43.433175" lon="13.23367667"><ele>180.0</ele><time>2022-03-17T13:54:32.296Z</time></trkpt><trkpt lat="43.43317167" lon="13.23356667"><ele>179.0</ele><time>2022-03-17T13:54:33.298Z</time></trkpt><trkpt lat="43.43317167" lon="13.23356667"><ele>179.0</ele><time>2022-03-17T13:54:34.295Z</time></trkpt><trkpt lat="43.43316" lon="13.23336167"><ele>178.0</ele><time>2022-03-17T13:54:35.301Z</time></trkpt><trkpt lat="43.43316" lon="13.23336167"><ele>178.0</ele><time>2022-03-17T13:54:36.295Z</time></trkpt><trkpt lat="43.43314833" lon="13.23316833"><ele>177.0</ele><time>2022-03-17T13:54:37.312Z</time></trkpt><trkpt lat="43.43314833" lon="13.23316833"><ele>177.0</ele><time>2022-03-17T13:54:38.298Z</time></trkpt><trkpt lat="43.43314" lon="13.23297667"><ele>176.0</ele><time>2022-03-17T13:54:39.301Z</time></trkpt><trkpt lat="43.43313333" lon="13.23288333"><ele>176.0</ele><time>2022-03-17T13:54:40.296Z</time></trkpt><trkpt lat="43.43313333" lon="13.23288333"><ele>176.0</ele><time>2022-03-17T13:54:41.293Z</time></trkpt><trkpt lat="43.43311167" lon="13.23270833"><ele>175.0</ele><time>2022-03-17T13:54:42.300Z</time></trkpt><trkpt lat="43.433095" lon="13.23262333"><ele>174.0</ele><time>2022-03-17T13:54:43.299Z</time></trkpt><trkpt lat="43.43306667" lon="13.23254"><ele>174.0</ele><time>2022-03-17T13:54:44.300Z</time></trkpt><trkpt lat="43.43306667" lon="13.23254"><ele>174.0</ele><time>2022-03-17T13:54:45.296Z</time></trkpt><trkpt lat="43.43298" lon="13.23240833"><ele>173.0</ele><time>2022-03-17T13:54:46.299Z</time></trkpt><trkpt lat="43.43298" lon="13.23240833"><ele>173.0</ele><time>2022-03-17T13:54:47.294Z</time></trkpt><trkpt lat="43.43287167" lon="13.23229667"><ele>172.0</ele><time>2022-03-17T13:54:48.299Z</time></trkpt><trkpt lat="43.43287167" lon="13.23229667"><ele>172.0</ele><time>2022-03-17T13:54:49.296Z</time></trkpt><trkpt lat="43.43275" lon="13.23221333"><ele>171.0</ele><time>2022-03-17T13:54:50.302Z</time></trkpt><trkpt lat="43.43275" lon="13.23221333"><ele>171.0</ele><time>2022-03-17T13:54:51.293Z</time></trkpt><trkpt lat="43.43262" lon="13.23215"><ele>171.0</ele><time>2022-03-17T13:54:52.303Z</time></trkpt><trkpt lat="43.43262" lon="13.23215"><ele>171.0</ele><time>2022-03-17T13:54:53.299Z</time></trkpt><trkpt lat="43.43249167" lon="13.23209667"><ele>171.0</ele><time>2022-03-17T13:54:54.300Z</time></trkpt><trkpt lat="43.43242667" lon="13.23207667"><ele>172.0</ele><time>2022-03-17T13:54:55.300Z</time></trkpt><trkpt lat="43.43242667" lon="13.23207667"><ele>172.0</ele><time>2022-03-17T13:54:56.296Z</time></trkpt><trkpt lat="43.43230333" lon="13.23203167"><ele>172.0</ele><time>2022-03-17T13:54:57.298Z</time></trkpt><trkpt lat="43.43230333" lon="13.23203167"><ele>172.0</ele><time>2022-03-17T13:54:58.296Z</time></trkpt><trkpt lat="43.43218333" lon="13.23198333"><ele>172.0</ele><time>2022-03-17T13:54:59.301Z</time></trkpt><trkpt lat="43.43218333" lon="13.23198333"><ele>172.0</ele><time>2022-03-17T13:55:00.303Z</time></trkpt><trkpt lat="43.43206833" lon="13.23194167"><ele>173.0</ele><time>2022-03-17T13:55:01.300Z</time></trkpt><trkpt lat="43.43206833" lon="13.23194167"><ele>173.0</ele><time>2022-03-17T13:55:02.297Z</time></trkpt><trkpt lat="43.43195667" lon="13.2319"><ele>173.0</ele><time>2022-03-17T13:55:03.296Z</time></trkpt><trkpt lat="43.43190167" lon="13.23188"><ele>173.0</ele><time>2022-03-17T13:55:04.301Z</time></trkpt><trkpt lat="43.431845" lon="13.23186"><ele>173.0</ele><time>2022-03-17T13:55:05.301Z</time></trkpt><trkpt lat="43.431845" lon="13.23186"><ele>173.0</ele><time>2022-03-17T13:55:06.295Z</time></trkpt><trkpt lat="43.431735" lon="13.23182"><ele>174.0</ele><time>2022-03-17T13:55:07.299Z</time></trkpt><trkpt lat="43.43168167" lon="13.231805"><ele>173.0</ele><time>2022-03-17T13:55:08.297Z</time></trkpt><trkpt lat="43.43168167" lon="13.231805"><ele>173.0</ele><time>2022-03-17T13:55:09.293Z</time></trkpt><trkpt lat="43.43157667" lon="13.23177"><ele>174.0</ele><time>2022-03-17T13:55:10.302Z</time></trkpt><trkpt lat="43.43157667" lon="13.23177"><ele>174.0</ele><time>2022-03-17T13:55:11.295Z</time></trkpt><trkpt lat="43.43147333" lon="13.23172833"><ele>174.0</ele><time>2022-03-17T13:55:12.298Z</time></trkpt><trkpt lat="43.43147333" lon="13.23172833"><ele>174.0</ele><time>2022-03-17T13:55:13.292Z</time></trkpt><trkpt lat="43.43136667" lon="13.23169167"><ele>174.0</ele><time>2022-03-17T13:55:14.297Z</time></trkpt><trkpt lat="43.43136667" lon="13.23169167"><ele>174.0</ele><time>2022-03-17T13:55:15.300Z</time></trkpt><trkpt lat="43.43126167" lon="13.23166167"><ele>174.0</ele><time>2022-03-17T13:55:16.299Z</time></trkpt><trkpt lat="43.43126167" lon="13.23166167"><ele>174.0</ele><time>2022-03-17T13:55:17.293Z</time></trkpt><trkpt lat="43.43115667" lon="13.231635"><ele>174.0</ele><time>2022-03-17T13:55:18.298Z</time></trkpt><trkpt lat="43.43115667" lon="13.231635"><ele>174.0</ele><time>2022-03-17T13:55:19.294Z</time></trkpt><trkpt lat="43.43105333" lon="13.23160833"><ele>174.0</ele><time>2022-03-17T13:55:20.320Z</time></trkpt><trkpt lat="43.43100333" lon="13.23159667"><ele>174.0</ele><time>2022-03-17T13:55:21.300Z</time></trkpt><trkpt lat="43.43100333" lon="13.23159667"><ele>174.0</ele><time>2022-03-17T13:55:22.314Z</time></trkpt><trkpt lat="43.43090167" lon="13.231575"><ele>175.0</ele><time>2022-03-17T13:55:23.322Z</time></trkpt><trkpt lat="43.43085" lon="13.23156"><ele>175.0</ele><time>2022-03-17T13:55:24.289Z</time></trkpt><trkpt lat="43.43079833" lon="13.23154833"><ele>175.0</ele><time>2022-03-17T13:55:25.298Z</time></trkpt><trkpt lat="43.43079833" lon="13.23154833"><ele>175.0</ele><time>2022-03-17T13:55:26.300Z</time></trkpt><trkpt lat="43.43069667" lon="13.23153167"><ele>175.0</ele><time>2022-03-17T13:55:27.299Z</time></trkpt><trkpt lat="43.43069667" lon="13.23153167"><ele>175.0</ele><time>2022-03-17T13:55:28.296Z</time></trkpt><trkpt lat="43.43059833" lon="13.23151"><ele>175.0</ele><time>2022-03-17T13:55:29.295Z</time></trkpt><trkpt lat="43.43059833" lon="13.23151"><ele>175.0</ele><time>2022-03-17T13:55:30.293Z</time></trkpt><trkpt lat="43.43050167" lon="13.23149"><ele>175.0</ele><time>2022-03-17T13:55:31.298Z</time></trkpt><trkpt lat="43.43045333" lon="13.23148333"><ele>175.0</ele><time>2022-03-17T13:55:32.297Z</time></trkpt><trkpt lat="43.43045333" lon="13.23148333"><ele>175.0</ele><time>2022-03-17T13:55:33.296Z</time></trkpt><trkpt lat="43.43035833" lon="13.23147"><ele>175.0</ele><time>2022-03-17T13:55:34.298Z</time></trkpt><trkpt lat="43.43035833" lon="13.23147"><ele>175.0</ele><time>2022-03-17T13:55:35.295Z</time></trkpt><trkpt lat="43.43026667" lon="13.23146"><ele>176.0</ele><time>2022-03-17T13:55:36.298Z</time></trkpt><trkpt lat="43.43026667" lon="13.23146"><ele>176.0</ele><time>2022-03-17T13:55:37.302Z</time></trkpt><trkpt lat="43.43017" lon="13.23145"><ele>176.0</ele><time>2022-03-17T13:55:38.295Z</time></trkpt><trkpt lat="43.43017" lon="13.23145"><ele>176.0</ele><time>2022-03-17T13:55:39.296Z</time></trkpt><trkpt lat="43.43007667" lon="13.23144"><ele>177.0</ele><time>2022-03-17T13:55:40.299Z</time></trkpt><trkpt lat="43.43007667" lon="13.23144"><ele>177.0</ele><time>2022-03-17T13:55:41.295Z</time></trkpt><trkpt lat="43.42998833" lon="13.231435"><ele>177.0</ele><time>2022-03-17T13:55:42.298Z</time></trkpt><trkpt lat="43.42998833" lon="13.231435"><ele>177.0</ele><time>2022-03-17T13:55:43.296Z</time></trkpt><trkpt lat="43.42989833" lon="13.23143167"><ele>177.0</ele><time>2022-03-17T13:55:44.309Z</time></trkpt><trkpt lat="43.42989833" lon="13.23143167"><ele>177.0</ele><time>2022-03-17T13:55:45.298Z</time></trkpt><trkpt lat="43.42980833" lon="13.23142333"><ele>177.0</ele><time>2022-03-17T13:55:46.298Z</time></trkpt><trkpt lat="43.42980833" lon="13.23142333"><ele>177.0</ele><time>2022-03-17T13:55:47.297Z</time></trkpt><trkpt lat="43.42971833" lon="13.23141667"><ele>178.0</ele><time>2022-03-17T13:55:48.298Z</time></trkpt><trkpt lat="43.429675" lon="13.23141333"><ele>178.0</ele><time>2022-03-17T13:55:49.296Z</time></trkpt><trkpt lat="43.42963" lon="13.23141167"><ele>178.0</ele><time>2022-03-17T13:55:50.302Z</time></trkpt><trkpt lat="43.42963" lon="13.23141167"><ele>178.0</ele><time>2022-03-17T13:55:51.317Z</time></trkpt><trkpt lat="43.42954" lon="13.23141167"><ele>178.0</ele><time>2022-03-17T13:55:52.299Z</time></trkpt><trkpt lat="43.42954" lon="13.23141167"><ele>178.0</ele><time>2022-03-17T13:55:53.296Z</time></trkpt><trkpt lat="43.429445" lon="13.23140833"><ele>178.0</ele><time>2022-03-17T13:55:54.298Z</time></trkpt><trkpt lat="43.429445" lon="13.23140833"><ele>178.0</ele><time>2022-03-17T13:55:55.296Z</time></trkpt><trkpt lat="43.429355" lon="13.23141667"><ele>178.0</ele><time>2022-03-17T13:55:56.297Z</time></trkpt><trkpt lat="43.429355" lon="13.23141667"><ele>178.0</ele><time>2022-03-17T13:55:57.293Z</time></trkpt><trkpt lat="43.42926" lon="13.23141833"><ele>179.0</ele><time>2022-03-17T13:55:58.299Z</time></trkpt><trkpt lat="43.42926" lon="13.23141833"><ele>179.0</ele><time>2022-03-17T13:55:59.296Z</time></trkpt><trkpt lat="43.42917" lon="13.23141667"><ele>179.0</ele><time>2022-03-17T13:56:00.299Z</time></trkpt><trkpt lat="43.42917" lon="13.23141667"><ele>179.0</ele><time>2022-03-17T13:56:01.295Z</time></trkpt><trkpt lat="43.42907833" lon="13.23142"><ele>179.0</ele><time>2022-03-17T13:56:02.298Z</time></trkpt><trkpt lat="43.42903167" lon="13.23142"><ele>179.0</ele><time>2022-03-17T13:56:03.320Z</time></trkpt><trkpt lat="43.42903167" lon="13.23142"><ele>179.0</ele><time>2022-03-17T13:56:04.301Z</time></trkpt><trkpt lat="43.42894" lon="13.23142"><ele>179.0</ele><time>2022-03-17T13:56:05.309Z</time></trkpt><trkpt lat="43.42889333" lon="13.23142"><ele>179.0</ele><time>2022-03-17T13:56:06.321Z</time></trkpt><trkpt lat="43.42889333" lon="13.23142"><ele>179.0</ele><time>2022-03-17T13:56:07.320Z</time></trkpt><trkpt lat="43.42880167" lon="13.23142"><ele>180.0</ele><time>2022-03-17T13:56:08.312Z</time></trkpt><trkpt lat="43.42880167" lon="13.23142"><ele>180.0</ele><time>2022-03-17T13:56:09.303Z</time></trkpt><trkpt lat="43.42871167" lon="13.23142167"><ele>179.0</ele><time>2022-03-17T13:56:10.301Z</time></trkpt><trkpt lat="43.42871167" lon="13.23142167"><ele>179.0</ele><time>2022-03-17T13:56:11.297Z</time></trkpt><trkpt lat="43.42862" lon="13.23142667"><ele>179.0</ele><time>2022-03-17T13:56:12.299Z</time></trkpt><trkpt lat="43.42862" lon="13.23142667"><ele>179.0</ele><time>2022-03-17T13:56:13.295Z</time></trkpt><trkpt lat="43.42853" lon="13.231425"><ele>180.0</ele><time>2022-03-17T13:56:14.310Z</time></trkpt><trkpt lat="43.42853" lon="13.231425"><ele>180.0</ele><time>2022-03-17T13:56:15.300Z</time></trkpt><trkpt lat="43.42844167" lon="13.23143"><ele>180.0</ele><time>2022-03-17T13:56:16.299Z</time></trkpt><trkpt lat="43.42844167" lon="13.23143"><ele>180.0</ele><time>2022-03-17T13:56:17.296Z</time></trkpt><trkpt lat="43.42835167" lon="13.231435"><ele>180.0</ele><time>2022-03-17T13:56:18.299Z</time></trkpt><trkpt lat="43.42835167" lon="13.231435"><ele>180.0</ele><time>2022-03-17T13:56:19.293Z</time></trkpt><trkpt lat="43.42826" lon="13.23143833"><ele>180.0</ele><time>2022-03-17T13:56:20.299Z</time></trkpt><trkpt lat="43.42826" lon="13.23143833"><ele>180.0</ele><time>2022-03-17T13:56:21.295Z</time></trkpt><trkpt lat="43.42816833" lon="13.23143833"><ele>180.0</ele><time>2022-03-17T13:56:22.299Z</time></trkpt><trkpt lat="43.42816833" lon="13.23143833"><ele>180.0</ele><time>2022-03-17T13:56:23.296Z</time></trkpt><trkpt lat="43.42808" lon="13.23143333"><ele>180.0</ele><time>2022-03-17T13:56:24.298Z</time></trkpt><trkpt lat="43.428035" lon="13.23143167"><ele>180.0</ele><time>2022-03-17T13:56:25.298Z</time></trkpt><trkpt lat="43.428035" lon="13.23143167"><ele>180.0</ele><time>2022-03-17T13:56:26.298Z</time></trkpt><trkpt lat="43.42794667" lon="13.231435"><ele>180.0</ele><time>2022-03-17T13:56:27.319Z</time></trkpt><trkpt lat="43.42794667" lon="13.231435"><ele>180.0</ele><time>2022-03-17T13:56:28.307Z</time></trkpt><trkpt lat="43.42786" lon="13.23144"><ele>181.0</ele><time>2022-03-17T13:56:29.298Z</time></trkpt><trkpt lat="43.42786" lon="13.23144"><ele>181.0</ele><time>2022-03-17T13:56:30.296Z</time></trkpt><trkpt lat="43.42777167" lon="13.23144667"><ele>181.0</ele><time>2022-03-17T13:56:31.299Z</time></trkpt><trkpt lat="43.42777167" lon="13.23144667"><ele>181.0</ele><time>2022-03-17T13:56:32.294Z</time></trkpt><trkpt lat="43.42768333" lon="13.23144833"><ele>181.0</ele><time>2022-03-17T13:56:33.297Z</time></trkpt><trkpt lat="43.42768333" lon="13.23144833"><ele>181.0</ele><time>2022-03-17T13:56:34.295Z</time></trkpt><trkpt lat="43.42759667" lon="13.23145"><ele>182.0</ele><time>2022-03-17T13:56:35.298Z</time></trkpt><trkpt lat="43.42759667" lon="13.23145"><ele>182.0</ele><time>2022-03-17T13:56:36.293Z</time></trkpt><trkpt lat="43.42751167" lon="13.23145167"><ele>182.0</ele><time>2022-03-17T13:56:37.299Z</time></trkpt><trkpt lat="43.42746833" lon="13.23145"><ele>183.0</ele><time>2022-03-17T13:56:38.299Z</time></trkpt><trkpt lat="43.42746833" lon="13.23145"><ele>183.0</ele><time>2022-03-17T13:56:39.296Z</time></trkpt><trkpt lat="43.42737833" lon="13.23144167"><ele>183.0</ele><time>2022-03-17T13:56:40.299Z</time></trkpt><trkpt lat="43.42737833" lon="13.23144167"><ele>183.0</ele><time>2022-03-17T13:56:41.293Z</time></trkpt><trkpt lat="43.42729333" lon="13.23144"><ele>184.0</ele><time>2022-03-17T13:56:42.301Z</time></trkpt><trkpt lat="43.42729333" lon="13.23144"><ele>184.0</ele><time>2022-03-17T13:56:43.296Z</time></trkpt><trkpt lat="43.427205" lon="13.23144333"><ele>185.0</ele><time>2022-03-17T13:56:44.292Z</time></trkpt><trkpt lat="43.42716167" lon="13.23144833"><ele>185.0</ele><time>2022-03-17T13:56:45.298Z</time></trkpt><trkpt lat="43.42711667" lon="13.23145"><ele>185.0</ele><time>2022-03-17T13:56:46.299Z</time></trkpt><trkpt lat="43.42711667" lon="13.23145"><ele>185.0</ele><time>2022-03-17T13:56:47.300Z</time></trkpt><trkpt lat="43.42703667" lon="13.23145"><ele>186.0</ele><time>2022-03-17T13:56:48.298Z</time></trkpt><trkpt lat="43.42703667" lon="13.23145"><ele>186.0</ele><time>2022-03-17T13:56:49.296Z</time></trkpt><trkpt lat="43.42695667" lon="13.23145"><ele>186.0</ele><time>2022-03-17T13:56:50.300Z</time></trkpt><trkpt lat="43.42691667" lon="13.23145"><ele>187.0</ele><time>2022-03-17T13:56:51.299Z</time></trkpt><trkpt lat="43.42687667" lon="13.23145167"><ele>187.0</ele><time>2022-03-17T13:56:52.296Z</time></trkpt><trkpt lat="43.42687667" lon="13.23145167"><ele>187.0</ele><time>2022-03-17T13:56:53.285Z</time></trkpt><trkpt lat="43.42679333" lon="13.23145167"><ele>187.0</ele><time>2022-03-17T13:56:54.304Z</time></trkpt><trkpt lat="43.426755" lon="13.23145"><ele>188.0</ele><time>2022-03-17T13:56:55.298Z</time></trkpt><trkpt lat="43.42671667" lon="13.23145167"><ele>188.0</ele><time>2022-03-17T13:56:56.297Z</time></trkpt><trkpt lat="43.42671667" lon="13.23145167"><ele>188.0</ele><time>2022-03-17T13:56:57.296Z</time></trkpt><trkpt lat="43.42663833" lon="13.23145667"><ele>188.0</ele><time>2022-03-17T13:56:58.303Z</time></trkpt><trkpt lat="43.42663833" lon="13.23145667"><ele>188.0</ele><time>2022-03-17T13:56:59.296Z</time></trkpt><trkpt lat="43.426565" lon="13.23145"><ele>189.0</ele><time>2022-03-17T13:57:00.315Z</time></trkpt><trkpt lat="43.42652833" lon="13.23144667"><ele>189.0</ele><time>2022-03-17T13:57:01.303Z</time></trkpt><trkpt lat="43.42652833" lon="13.23144667"><ele>189.0</ele><time>2022-03-17T13:57:02.296Z</time></trkpt><trkpt lat="43.426455" lon="13.23144333"><ele>190.0</ele><time>2022-03-17T13:57:03.299Z</time></trkpt><trkpt lat="43.426455" lon="13.23144333"><ele>190.0</ele><time>2022-03-17T13:57:04.295Z</time></trkpt><trkpt lat="43.42638" lon="13.23144"><ele>190.0</ele><time>2022-03-17T13:57:05.300Z</time></trkpt><trkpt lat="43.42638" lon="13.23144"><ele>190.0</ele><time>2022-03-17T13:57:06.295Z</time></trkpt><trkpt lat="43.426305" lon="13.231435"><ele>191.0</ele><time>2022-03-17T13:57:07.299Z</time></trkpt><trkpt lat="43.42626833" lon="13.23143333"><ele>191.0</ele><time>2022-03-17T13:57:08.297Z</time></trkpt><trkpt lat="43.42626833" lon="13.23143333"><ele>191.0</ele><time>2022-03-17T13:57:09.294Z</time></trkpt><trkpt lat="43.42619667" lon="13.23142833"><ele>192.0</ele><time>2022-03-17T13:57:10.299Z</time></trkpt><trkpt lat="43.42619667" lon="13.23142833"><ele>192.0</ele><time>2022-03-17T13:57:11.296Z</time></trkpt><trkpt lat="43.426125" lon="13.23142333"><ele>192.0</ele><time>2022-03-17T13:57:12.298Z</time></trkpt><trkpt lat="43.42609" lon="13.23142167"><ele>192.0</ele><time>2022-03-17T13:57:13.298Z</time></trkpt><trkpt lat="43.426055" lon="13.23142167"><ele>193.0</ele><time>2022-03-17T13:57:14.301Z</time></trkpt><trkpt lat="43.426055" lon="13.23142167"><ele>193.0</ele><time>2022-03-17T13:57:15.295Z</time></trkpt><trkpt lat="43.42598667" lon="13.23141667"><ele>193.0</ele><time>2022-03-17T13:57:16.299Z</time></trkpt><trkpt lat="43.42598667" lon="13.23141667"><ele>193.0</ele><time>2022-03-17T13:57:17.302Z</time></trkpt><trkpt lat="43.42591833" lon="13.23141"><ele>193.0</ele><time>2022-03-17T13:57:18.302Z</time></trkpt><trkpt lat="43.42588333" lon="13.23140833"><ele>194.0</ele><time>2022-03-17T13:57:19.300Z</time></trkpt><trkpt lat="43.42588333" lon="13.23140833"><ele>194.0</ele><time>2022-03-17T13:57:20.296Z</time></trkpt><trkpt lat="43.42581333" lon="13.23140167"><ele>194.0</ele><time>2022-03-17T13:57:21.299Z</time></trkpt><trkpt lat="43.42578" lon="13.2314"><ele>194.0</ele><time>2022-03-17T13:57:22.299Z</time></trkpt><trkpt lat="43.42578" lon="13.2314"><ele>194.0</ele><time>2022-03-17T13:57:23.294Z</time></trkpt><trkpt lat="43.42571167" lon="13.231395"><ele>195.0</ele><time>2022-03-17T13:57:24.299Z</time></trkpt><trkpt lat="43.42571167" lon="13.231395"><ele>195.0</ele><time>2022-03-17T13:57:25.296Z</time></trkpt><trkpt lat="43.42563833" lon="13.23138667"><ele>195.0</ele><time>2022-03-17T13:57:26.300Z</time></trkpt><trkpt lat="43.42563833" lon="13.23138667"><ele>195.0</ele><time>2022-03-17T13:57:27.296Z</time></trkpt><trkpt lat="43.425565" lon="13.23138167"><ele>195.0</ele><time>2022-03-17T13:57:28.296Z</time></trkpt><trkpt lat="43.42553" lon="13.23137833"><ele>196.0</ele><time>2022-03-17T13:57:29.299Z</time></trkpt><trkpt lat="43.42553" lon="13.23137833"><ele>196.0</ele><time>2022-03-17T13:57:30.296Z</time></trkpt><trkpt lat="43.42546167" lon="13.23137167"><ele>196.0</ele><time>2022-03-17T13:57:31.299Z</time></trkpt><trkpt lat="43.42542833" lon="13.23137"><ele>196.0</ele><time>2022-03-17T13:57:32.300Z</time></trkpt><trkpt lat="43.42542833" lon="13.23137"><ele>196.0</ele><time>2022-03-17T13:57:33.296Z</time></trkpt><trkpt lat="43.42536167" lon="13.231365"><ele>196.0</ele><time>2022-03-17T13:57:34.300Z</time></trkpt><trkpt lat="43.42536167" lon="13.231365"><ele>196.0</ele><time>2022-03-17T13:57:35.294Z</time></trkpt><trkpt lat="43.425295" lon="13.23136667"><ele>197.0</ele><time>2022-03-17T13:57:36.297Z</time></trkpt><trkpt lat="43.425295" lon="13.23136667"><ele>197.0</ele><time>2022-03-17T13:57:37.295Z</time></trkpt><trkpt lat="43.42523167" lon="13.23137167"><ele>197.0</ele><time>2022-03-17T13:57:38.297Z</time></trkpt><trkpt lat="43.42523167" lon="13.23137167"><ele>197.0</ele><time>2022-03-17T13:57:39.296Z</time></trkpt><trkpt lat="43.42516833" lon="13.23137"><ele>197.0</ele><time>2022-03-17T13:57:40.299Z</time></trkpt><trkpt lat="43.42516833" lon="13.23137"><ele>197.0</ele><time>2022-03-17T13:57:41.296Z</time></trkpt><trkpt lat="43.425105" lon="13.23136"><ele>197.0</ele><time>2022-03-17T13:57:42.299Z</time></trkpt><trkpt lat="43.425105" lon="13.23136"><ele>197.0</ele><time>2022-03-17T13:57:43.297Z</time></trkpt><trkpt lat="43.42504" lon="13.23135"><ele>198.0</ele><time>2022-03-17T13:57:44.307Z</time></trkpt><trkpt lat="43.42500667" lon="13.23134667"><ele>198.0</ele><time>2022-03-17T13:57:45.300Z</time></trkpt><trkpt lat="43.42497333" lon="13.23134667"><ele>199.0</ele><time>2022-03-17T13:57:46.299Z</time></trkpt><trkpt lat="43.42497333" lon="13.23134667"><ele>199.0</ele><time>2022-03-17T13:57:47.293Z</time></trkpt><trkpt lat="43.42491167" lon="13.231345"><ele>199.0</ele><time>2022-03-17T13:57:48.299Z</time></trkpt><trkpt lat="43.42491167" lon="13.231345"><ele>199.0</ele><time>2022-03-17T13:57:49.297Z</time></trkpt><trkpt lat="43.42485167" lon="13.23134333"><ele>200.0</ele><time>2022-03-17T13:57:50.302Z</time></trkpt><trkpt lat="43.42482333" lon="13.231335"><ele>200.0</ele><time>2022-03-17T13:57:51.299Z</time></trkpt><trkpt lat="43.42479167" lon="13.23132667"><ele>200.0</ele><time>2022-03-17T13:57:52.300Z</time></trkpt><trkpt lat="43.42479167" lon="13.23132667"><ele>200.0</ele><time>2022-03-17T13:57:53.296Z</time></trkpt><trkpt lat="43.42473" lon="13.23132167"><ele>201.0</ele><time>2022-03-17T13:57:54.297Z</time></trkpt><trkpt lat="43.42473" lon="13.23132167"><ele>201.0</ele><time>2022-03-17T13:57:55.297Z</time></trkpt><trkpt lat="43.42466167" lon="13.231315"><ele>201.0</ele><time>2022-03-17T13:57:56.300Z</time></trkpt><trkpt lat="43.42466167" lon="13.231315"><ele>201.0</ele><time>2022-03-17T13:57:57.294Z</time></trkpt><trkpt lat="43.424595" lon="13.23130833"><ele>202.0</ele><time>2022-03-17T13:57:58.298Z</time></trkpt><trkpt lat="43.42456667" lon="13.23130667"><ele>202.0</ele><time>2022-03-17T13:57:59.299Z</time></trkpt><trkpt lat="43.42456667" lon="13.23130667"><ele>202.0</ele><time>2022-03-17T13:58:00.307Z</time></trkpt><trkpt lat="43.42450167" lon="13.23130333"><ele>202.0</ele><time>2022-03-17T13:58:01.298Z</time></trkpt><trkpt lat="43.42447167" lon="13.2313"><ele>202.0</ele><time>2022-03-17T13:58:02.297Z</time></trkpt><trkpt lat="43.42447167" lon="13.2313"><ele>202.0</ele><time>2022-03-17T13:58:03.294Z</time></trkpt><trkpt lat="43.42440667" lon="13.23129667"><ele>202.0</ele><time>2022-03-17T13:58:04.288Z</time></trkpt><trkpt lat="43.42440667" lon="13.23129667"><ele>202.0</ele><time>2022-03-17T13:58:05.319Z</time></trkpt><trkpt lat="43.42434333" lon="13.23128833"><ele>203.0</ele><time>2022-03-17T13:58:06.308Z</time></trkpt><trkpt lat="43.42434333" lon="13.23128833"><ele>203.0</ele><time>2022-03-17T13:58:07.296Z</time></trkpt><trkpt lat="43.42428833" lon="13.23128333"><ele>204.0</ele><time>2022-03-17T13:58:08.300Z</time></trkpt><trkpt lat="43.42428833" lon="13.23128333"><ele>204.0</ele><time>2022-03-17T13:58:09.296Z</time></trkpt><trkpt lat="43.424225" lon="13.231275"><ele>204.0</ele><time>2022-03-17T13:58:10.299Z</time></trkpt><trkpt lat="43.424225" lon="13.231275"><ele>204.0</ele><time>2022-03-17T13:58:11.296Z</time></trkpt><trkpt lat="43.42416333" lon="13.231265"><ele>204.0</ele><time>2022-03-17T13:58:12.299Z</time></trkpt><trkpt lat="43.42413333" lon="13.23126"><ele>204.0</ele><time>2022-03-17T13:58:13.300Z</time></trkpt><trkpt lat="43.42413333" lon="13.23126"><ele>204.0</ele><time>2022-03-17T13:58:14.297Z</time></trkpt><trkpt lat="43.42406833" lon="13.23125167"><ele>204.0</ele><time>2022-03-17T13:58:15.298Z</time></trkpt><trkpt lat="43.42403667" lon="13.23124833"><ele>204.0</ele><time>2022-03-17T13:58:16.299Z</time></trkpt><trkpt lat="43.42403667" lon="13.23124833"><ele>204.0</ele><time>2022-03-17T13:58:17.296Z</time></trkpt><trkpt lat="43.423975" lon="13.23123833"><ele>204.0</ele><time>2022-03-17T13:58:18.299Z</time></trkpt><trkpt lat="43.423975" lon="13.23123833"><ele>204.0</ele><time>2022-03-17T13:58:19.296Z</time></trkpt><trkpt lat="43.423915" lon="13.23123"><ele>205.0</ele><time>2022-03-17T13:58:20.312Z</time></trkpt><trkpt lat="43.423915" lon="13.23123"><ele>205.0</ele><time>2022-03-17T13:58:21.300Z</time></trkpt><trkpt lat="43.42385667" lon="13.23121833"><ele>206.0</ele><time>2022-03-17T13:58:22.296Z</time></trkpt><trkpt lat="43.42385667" lon="13.23121833"><ele>206.0</ele><time>2022-03-17T13:58:23.296Z</time></trkpt><trkpt lat="43.42380167" lon="13.23119833"><ele>206.0</ele><time>2022-03-17T13:58:24.298Z</time></trkpt><trkpt lat="43.42380167" lon="13.23119833"><ele>206.0</ele><time>2022-03-17T13:58:25.294Z</time></trkpt><trkpt lat="43.42374" lon="13.23118667"><ele>206.0</ele><time>2022-03-17T13:58:26.301Z</time></trkpt><trkpt lat="43.42374" lon="13.23118667"><ele>206.0</ele><time>2022-03-17T13:58:27.296Z</time></trkpt><trkpt lat="43.42367833" lon="13.231175"><ele>207.0</ele><time>2022-03-17T13:58:28.300Z</time></trkpt><trkpt lat="43.42367833" lon="13.231175"><ele>207.0</ele><time>2022-03-17T13:58:29.293Z</time></trkpt><trkpt lat="43.42362667" lon="13.23115667"><ele>207.0</ele><time>2022-03-17T13:58:30.300Z</time></trkpt><trkpt lat="43.42362667" lon="13.23115667"><ele>207.0</ele><time>2022-03-17T13:58:31.296Z</time></trkpt><trkpt lat="43.42357167" lon="13.23114833"><ele>208.0</ele><time>2022-03-17T13:58:32.298Z</time></trkpt><trkpt lat="43.42357167" lon="13.23114833"><ele>208.0</ele><time>2022-03-17T13:58:33.296Z</time></trkpt><trkpt lat="43.42351333" lon="13.231135"><ele>208.0</ele><time>2022-03-17T13:58:34.299Z</time></trkpt><trkpt lat="43.42351333" lon="13.231135"><ele>208.0</ele><time>2022-03-17T13:58:35.296Z</time></trkpt><trkpt lat="43.42345833" lon="13.23111667"><ele>208.0</ele><time>2022-03-17T13:58:36.298Z</time></trkpt><trkpt lat="43.42343" lon="13.23110333"><ele>208.0</ele><time>2022-03-17T13:58:37.297Z</time></trkpt><trkpt lat="43.4234" lon="13.23109"><ele>208.0</ele><time>2022-03-17T13:58:38.300Z</time></trkpt><trkpt lat="43.4234" lon="13.23109"><ele>208.0</ele><time>2022-03-17T13:58:39.294Z</time></trkpt><trkpt lat="43.42334167" lon="13.23106167"><ele>208.0</ele><time>2022-03-17T13:58:40.301Z</time></trkpt><trkpt lat="43.42334167" lon="13.23106167"><ele>208.0</ele><time>2022-03-17T13:58:41.296Z</time></trkpt><trkpt lat="43.423285" lon="13.23103333"><ele>208.0</ele><time>2022-03-17T13:58:42.299Z</time></trkpt><trkpt lat="43.423285" lon="13.23103333"><ele>208.0</ele><time>2022-03-17T13:58:43.293Z</time></trkpt><trkpt lat="43.42322833" lon="13.23100667"><ele>208.0</ele><time>2022-03-17T13:58:44.300Z</time></trkpt><trkpt lat="43.42322833" lon="13.23100667"><ele>208.0</ele><time>2022-03-17T13:58:45.296Z</time></trkpt><trkpt lat="43.42317333" lon="13.23097167"><ele>208.0</ele><time>2022-03-17T13:58:46.299Z</time></trkpt><trkpt lat="43.42317333" lon="13.23097167"><ele>208.0</ele><time>2022-03-17T13:58:47.294Z</time></trkpt><trkpt lat="43.42311667" lon="13.23093833"><ele>208.0</ele><time>2022-03-17T13:58:48.298Z</time></trkpt><trkpt lat="43.42311667" lon="13.23093833"><ele>208.0</ele><time>2022-03-17T13:58:49.296Z</time></trkpt><trkpt lat="43.42305833" lon="13.230905"><ele>209.0</ele><time>2022-03-17T13:58:50.300Z</time></trkpt><trkpt lat="43.42305833" lon="13.230905"><ele>209.0</ele><time>2022-03-17T13:58:51.294Z</time></trkpt><trkpt lat="43.42300333" lon="13.23087333"><ele>209.0</ele><time>2022-03-17T13:58:52.300Z</time></trkpt><trkpt lat="43.42300333" lon="13.23087333"><ele>209.0</ele><time>2022-03-17T13:58:53.296Z</time></trkpt><trkpt lat="43.42295167" lon="13.23083667"><ele>210.0</ele><time>2022-03-17T13:58:54.300Z</time></trkpt><trkpt lat="43.42295167" lon="13.23083667"><ele>210.0</ele><time>2022-03-17T13:58:55.287Z</time></trkpt><trkpt lat="43.4229" lon="13.23079667"><ele>210.0</ele><time>2022-03-17T13:58:56.300Z</time></trkpt><trkpt lat="43.4229" lon="13.23079667"><ele>210.0</ele><time>2022-03-17T13:58:57.296Z</time></trkpt><trkpt lat="43.422845" lon="13.23076333"><ele>210.0</ele><time>2022-03-17T13:58:58.299Z</time></trkpt><trkpt lat="43.422845" lon="13.23076333"><ele>210.0</ele><time>2022-03-17T13:58:59.296Z</time></trkpt><trkpt lat="43.42279333" lon="13.23072667"><ele>210.0</ele><time>2022-03-17T13:59:00.300Z</time></trkpt><trkpt lat="43.42279333" lon="13.23072667"><ele>210.0</ele><time>2022-03-17T13:59:01.296Z</time></trkpt><trkpt lat="43.42274167" lon="13.230685"><ele>211.0</ele><time>2022-03-17T13:59:02.300Z</time></trkpt><trkpt lat="43.42274167" lon="13.230685"><ele>211.0</ele><time>2022-03-17T13:59:03.296Z</time></trkpt><trkpt lat="43.42269" lon="13.23064167"><ele>211.0</ele><time>2022-03-17T13:59:04.298Z</time></trkpt><trkpt lat="43.42269" lon="13.23064167"><ele>211.0</ele><time>2022-03-17T13:59:05.296Z</time></trkpt><trkpt lat="43.42263667" lon="13.23060167"><ele>211.0</ele><time>2022-03-17T13:59:06.296Z</time></trkpt><trkpt lat="43.42261167" lon="13.23058167"><ele>212.0</ele><time>2022-03-17T13:59:07.300Z</time></trkpt><trkpt lat="43.42261167" lon="13.23058167"><ele>212.0</ele><time>2022-03-17T13:59:08.294Z</time></trkpt><trkpt lat="43.42256167" lon="13.23054"><ele>212.0</ele><time>2022-03-17T13:59:09.299Z</time></trkpt><trkpt lat="43.42256167" lon="13.23054"><ele>212.0</ele><time>2022-03-17T13:59:10.296Z</time></trkpt><trkpt lat="43.4225" lon="13.2305"><ele>212.0</ele><time>2022-03-17T13:59:11.299Z</time></trkpt><trkpt lat="43.4225" lon="13.2305"><ele>212.0</ele><time>2022-03-17T13:59:12.296Z</time></trkpt><trkpt lat="43.42244667" lon="13.23045167"><ele>213.0</ele><time>2022-03-17T13:59:13.299Z</time></trkpt><trkpt lat="43.42244667" lon="13.23045167"><ele>213.0</ele><time>2022-03-17T13:59:14.299Z</time></trkpt><trkpt lat="43.42239167" lon="13.2304"><ele>214.0</ele><time>2022-03-17T13:59:15.300Z</time></trkpt><trkpt lat="43.422365" lon="13.23037333"><ele>214.0</ele><time>2022-03-17T13:59:16.298Z</time></trkpt><trkpt lat="43.422365" lon="13.23037333"><ele>214.0</ele><time>2022-03-17T13:59:17.297Z</time></trkpt><trkpt lat="43.42230833" lon="13.23032667"><ele>214.0</ele><time>2022-03-17T13:59:18.299Z</time></trkpt><trkpt lat="43.42230833" lon="13.23032667"><ele>214.0</ele><time>2022-03-17T13:59:19.294Z</time></trkpt><trkpt lat="43.42225" lon="13.23028333"><ele>214.0</ele><time>2022-03-17T13:59:20.322Z</time></trkpt><trkpt lat="43.42225" lon="13.23028333"><ele>214.0</ele><time>2022-03-17T13:59:21.309Z</time></trkpt><trkpt lat="43.42219667" lon="13.23023"><ele>214.0</ele><time>2022-03-17T13:59:22.300Z</time></trkpt><trkpt lat="43.42219667" lon="13.23023"><ele>214.0</ele><time>2022-03-17T13:59:23.295Z</time></trkpt><trkpt lat="43.422145" lon="13.23016667"><ele>214.0</ele><time>2022-03-17T13:59:24.299Z</time></trkpt><trkpt lat="43.422145" lon="13.23016667"><ele>214.0</ele><time>2022-03-17T13:59:25.300Z</time></trkpt><trkpt lat="43.422095" lon="13.23010667"><ele>215.0</ele><time>2022-03-17T13:59:26.313Z</time></trkpt><trkpt lat="43.422095" lon="13.23010667"><ele>215.0</ele><time>2022-03-17T13:59:27.300Z</time></trkpt><trkpt lat="43.42204833" lon="13.23004333"><ele>215.0</ele><time>2022-03-17T13:59:28.299Z</time></trkpt><trkpt lat="43.42204833" lon="13.23004333"><ele>215.0</ele><time>2022-03-17T13:59:29.296Z</time></trkpt><trkpt lat="43.42200333" lon="13.22998167"><ele>215.0</ele><time>2022-03-17T13:59:30.298Z</time></trkpt><trkpt lat="43.42198" lon="13.22994667"><ele>215.0</ele><time>2022-03-17T13:59:31.300Z</time></trkpt><trkpt lat="43.42195667" lon="13.229915"><ele>215.0</ele><time>2022-03-17T13:59:32.302Z</time></trkpt><trkpt lat="43.42195667" lon="13.229915"><ele>215.0</ele><time>2022-03-17T13:59:33.294Z</time></trkpt><trkpt lat="43.42191" lon="13.22985"><ele>215.0</ele><time>2022-03-17T13:59:34.299Z</time></trkpt><trkpt lat="43.42188833" lon="13.229815"><ele>215.0</ele><time>2022-03-17T13:59:35.300Z</time></trkpt><trkpt lat="43.42188833" lon="13.229815"><ele>215.0</ele><time>2022-03-17T13:59:36.301Z</time></trkpt><trkpt lat="43.42184333" lon="13.22973167"><ele>216.0</ele><time>2022-03-17T13:59:37.298Z</time></trkpt><trkpt lat="43.42181833" lon="13.229695"><ele>216.0</ele><time>2022-03-17T13:59:38.298Z</time></trkpt><trkpt lat="43.42181833" lon="13.229695"><ele>216.0</ele><time>2022-03-17T13:59:39.297Z</time></trkpt><trkpt lat="43.42177333" lon="13.22963167"><ele>216.0</ele><time>2022-03-17T13:59:40.302Z</time></trkpt><trkpt lat="43.42177333" lon="13.22963167"><ele>216.0</ele><time>2022-03-17T13:59:41.294Z</time></trkpt><trkpt lat="43.42173" lon="13.22955833"><ele>216.0</ele><time>2022-03-17T13:59:42.300Z</time></trkpt><trkpt lat="43.42173" lon="13.22955833"><ele>216.0</ele><time>2022-03-17T13:59:43.297Z</time></trkpt><trkpt lat="43.42168167" lon="13.229485"><ele>216.0</ele><time>2022-03-17T13:59:44.302Z</time></trkpt><trkpt lat="43.42168167" lon="13.229485"><ele>216.0</ele><time>2022-03-17T13:59:45.295Z</time></trkpt><trkpt lat="43.42164" lon="13.22941667"><ele>216.0</ele><time>2022-03-17T13:59:46.295Z</time></trkpt><trkpt lat="43.42162" lon="13.22938333"><ele>216.0</ele><time>2022-03-17T13:59:47.299Z</time></trkpt><trkpt lat="43.42162" lon="13.22938333"><ele>216.0</ele><time>2022-03-17T13:59:48.296Z</time></trkpt><trkpt lat="43.42157833" lon="13.22931"><ele>216.0</ele><time>2022-03-17T13:59:49.296Z</time></trkpt><trkpt lat="43.421555" lon="13.22927167"><ele>217.0</ele><time>2022-03-17T13:59:50.300Z</time></trkpt><trkpt lat="43.421555" lon="13.22927167"><ele>217.0</ele><time>2022-03-17T13:59:51.296Z</time></trkpt><trkpt lat="43.42151333" lon="13.22919"><ele>217.0</ele><time>2022-03-17T13:59:52.311Z</time></trkpt><trkpt lat="43.42151333" lon="13.22919"><ele>217.0</ele><time>2022-03-17T13:59:53.297Z</time></trkpt><trkpt lat="43.42147167" lon="13.22911833"><ele>217.0</ele><time>2022-03-17T13:59:54.299Z</time></trkpt><trkpt lat="43.42145167" lon="13.22908167"><ele>218.0</ele><time>2022-03-17T13:59:55.296Z</time></trkpt><trkpt lat="43.42145167" lon="13.22908167"><ele>218.0</ele><time>2022-03-17T13:59:56.295Z</time></trkpt><trkpt lat="43.421415" lon="13.22900167"><ele>218.0</ele><time>2022-03-17T13:59:57.298Z</time></trkpt><trkpt lat="43.421415" lon="13.22900167"><ele>218.0</ele><time>2022-03-17T13:59:58.294Z</time></trkpt><trkpt lat="43.42137833" lon="13.228925"><ele>218.0</ele><time>2022-03-17T13:59:59.299Z</time></trkpt><trkpt lat="43.42137833" lon="13.228925"><ele>218.0</ele><time>2022-03-17T14:00:00.297Z</time></trkpt><trkpt lat="43.421345" lon="13.22884333"><ele>218.0</ele><time>2022-03-17T14:00:01.298Z</time></trkpt><trkpt lat="43.42132667" lon="13.22880167"><ele>218.0</ele><time>2022-03-17T14:00:02.301Z</time></trkpt><trkpt lat="43.42132667" lon="13.22880167"><ele>218.0</ele><time>2022-03-17T14:00:03.297Z</time></trkpt><trkpt lat="43.42129167" lon="13.22871667"><ele>218.0</ele><time>2022-03-17T14:00:04.301Z</time></trkpt><trkpt lat="43.42129167" lon="13.22871667"><ele>218.0</ele><time>2022-03-17T14:00:05.298Z</time></trkpt><trkpt lat="43.42125833" lon="13.228635"><ele>219.0</ele><time>2022-03-17T14:00:06.299Z</time></trkpt><trkpt lat="43.42125833" lon="13.228635"><ele>219.0</ele><time>2022-03-17T14:00:07.297Z</time></trkpt><trkpt lat="43.42122667" lon="13.22854667"><ele>219.0</ele><time>2022-03-17T14:00:08.302Z</time></trkpt><trkpt lat="43.42122667" lon="13.22854667"><ele>219.0</ele><time>2022-03-17T14:00:09.296Z</time></trkpt><trkpt lat="43.42119833" lon="13.22846167"><ele>219.0</ele><time>2022-03-17T14:00:10.298Z</time></trkpt><trkpt lat="43.42118167" lon="13.22841667"><ele>219.0</ele><time>2022-03-17T14:00:11.300Z</time></trkpt><trkpt lat="43.42118167" lon="13.22841667"><ele>219.0</ele><time>2022-03-17T14:00:12.296Z</time></trkpt><trkpt lat="43.42115167" lon="13.22832667"><ele>219.0</ele><time>2022-03-17T14:00:13.300Z</time></trkpt><trkpt lat="43.42113667" lon="13.22828167"><ele>219.0</ele><time>2022-03-17T14:00:14.300Z</time></trkpt><trkpt lat="43.42113667" lon="13.22828167"><ele>219.0</ele><time>2022-03-17T14:00:15.296Z</time></trkpt><trkpt lat="43.42110667" lon="13.22819667"><ele>219.0</ele><time>2022-03-17T14:00:16.300Z</time></trkpt><trkpt lat="43.42109167" lon="13.22815333"><ele>219.0</ele><time>2022-03-17T14:00:17.299Z</time></trkpt><trkpt lat="43.42107667" lon="13.228115"><ele>219.0</ele><time>2022-03-17T14:00:18.300Z</time></trkpt><trkpt lat="43.42107667" lon="13.228115"><ele>219.0</ele><time>2022-03-17T14:00:19.296Z</time></trkpt><trkpt lat="43.42104667" lon="13.22803"><ele>220.0</ele><time>2022-03-17T14:00:20.300Z</time></trkpt><trkpt lat="43.42104667" lon="13.22803"><ele>220.0</ele><time>2022-03-17T14:00:21.296Z</time></trkpt><trkpt lat="43.42102" lon="13.22794167"><ele>220.0</ele><time>2022-03-17T14:00:22.299Z</time></trkpt><trkpt lat="43.42102" lon="13.22794167"><ele>220.0</ele><time>2022-03-17T14:00:23.296Z</time></trkpt><trkpt lat="43.42099167" lon="13.22786167"><ele>221.0</ele><time>2022-03-17T14:00:24.299Z</time></trkpt><trkpt lat="43.42099167" lon="13.22786167"><ele>221.0</ele><time>2022-03-17T14:00:25.296Z</time></trkpt><trkpt lat="43.42095833" lon="13.227775"><ele>221.0</ele><time>2022-03-17T14:00:26.302Z</time></trkpt><trkpt lat="43.42095833" lon="13.227775"><ele>221.0</ele><time>2022-03-17T14:00:27.299Z</time></trkpt><trkpt lat="43.42092833" lon="13.22768167"><ele>222.0</ele><time>2022-03-17T14:00:28.300Z</time></trkpt><trkpt lat="43.42092833" lon="13.22768167"><ele>222.0</ele><time>2022-03-17T14:00:29.297Z</time></trkpt><trkpt lat="43.42089333" lon="13.22759833"><ele>222.0</ele><time>2022-03-17T14:00:30.299Z</time></trkpt><trkpt lat="43.42087667" lon="13.22755167"><ele>222.0</ele><time>2022-03-17T14:00:31.305Z</time></trkpt><trkpt lat="43.42086" lon="13.22750667"><ele>223.0</ele><time>2022-03-17T14:00:32.302Z</time></trkpt><trkpt lat="43.42085" lon="13.22746167"><ele>223.0</ele><time>2022-03-17T14:00:33.314Z</time></trkpt><trkpt lat="43.42085" lon="13.22746167"><ele>223.0</ele><time>2022-03-17T14:00:34.310Z</time></trkpt><trkpt lat="43.42082" lon="13.227375"><ele>222.0</ele><time>2022-03-17T14:00:35.294Z</time></trkpt><trkpt lat="43.42082" lon="13.227375"><ele>222.0</ele><time>2022-03-17T14:00:36.315Z</time></trkpt><trkpt lat="43.42078" lon="13.22728333"><ele>222.0</ele><time>2022-03-17T14:00:37.294Z</time></trkpt><trkpt lat="43.42075833" lon="13.22724"><ele>223.0</ele><time>2022-03-17T14:00:38.314Z</time></trkpt><trkpt lat="43.42075833" lon="13.22724"><ele>223.0</ele><time>2022-03-17T14:00:39.295Z</time></trkpt><trkpt lat="43.42072167" lon="13.227155"><ele>222.0</ele><time>2022-03-17T14:00:40.315Z</time></trkpt><trkpt lat="43.42070167" lon="13.22711167"><ele>222.0</ele><time>2022-03-17T14:00:41.296Z</time></trkpt><trkpt lat="43.42070167" lon="13.22711167"><ele>222.0</ele><time>2022-03-17T14:00:42.316Z</time></trkpt><trkpt lat="43.420655" lon="13.22702333"><ele>222.0</ele><time>2022-03-17T14:00:43.322Z</time></trkpt><trkpt lat="43.42062833" lon="13.22698"><ele>222.0</ele><time>2022-03-17T14:00:44.291Z</time></trkpt><trkpt lat="43.42062833" lon="13.22698"><ele>222.0</ele><time>2022-03-17T14:00:45.297Z</time></trkpt><trkpt lat="43.42057833" lon="13.22689333"><ele>222.0</ele><time>2022-03-17T14:00:46.305Z</time></trkpt><trkpt lat="43.42057833" lon="13.22689333"><ele>222.0</ele><time>2022-03-17T14:00:47.296Z</time></trkpt><trkpt lat="43.42052667" lon="13.22681"><ele>223.0</ele><time>2022-03-17T14:00:48.298Z</time></trkpt><trkpt lat="43.42052667" lon="13.22681"><ele>223.0</ele><time>2022-03-17T14:00:49.296Z</time></trkpt><trkpt lat="43.42047333" lon="13.226725"><ele>222.0</ele><time>2022-03-17T14:00:50.304Z</time></trkpt><trkpt lat="43.42047333" lon="13.226725"><ele>222.0</ele><time>2022-03-17T14:00:51.319Z</time></trkpt><trkpt lat="43.42041833" lon="13.22664"><ele>222.0</ele><time>2022-03-17T14:00:52.321Z</time></trkpt><trkpt lat="43.42041833" lon="13.22664"><ele>222.0</ele><time>2022-03-17T14:00:53.311Z</time></trkpt><trkpt lat="43.42036" lon="13.226555"><ele>222.0</ele><time>2022-03-17T14:00:54.300Z</time></trkpt><trkpt lat="43.42036" lon="13.226555"><ele>222.0</ele><time>2022-03-17T14:00:55.296Z</time></trkpt><trkpt lat="43.42030333" lon="13.22647333"><ele>222.0</ele><time>2022-03-17T14:00:56.300Z</time></trkpt><trkpt lat="43.42027333" lon="13.22643667"><ele>222.0</ele><time>2022-03-17T14:00:57.288Z</time></trkpt><trkpt lat="43.42027333" lon="13.22643667"><ele>222.0</ele><time>2022-03-17T14:00:58.320Z</time></trkpt><trkpt lat="43.42021333" lon="13.22637167"><ele>222.0</ele><time>2022-03-17T14:00:59.320Z</time></trkpt><trkpt lat="43.42021333" lon="13.22637167"><ele>222.0</ele><time>2022-03-17T14:01:00.293Z</time></trkpt><trkpt lat="43.42015167" lon="13.22630667"><ele>222.0</ele><time>2022-03-17T14:01:01.302Z</time></trkpt><trkpt lat="43.42015167" lon="13.22630667"><ele>222.0</ele><time>2022-03-17T14:01:02.313Z</time></trkpt><trkpt lat="43.42009167" lon="13.226245"><ele>223.0</ele><time>2022-03-17T14:01:03.322Z</time></trkpt><trkpt lat="43.42009167" lon="13.226245"><ele>223.0</ele><time>2022-03-17T14:01:04.291Z</time></trkpt><trkpt lat="43.42003167" lon="13.22618333"><ele>223.0</ele><time>2022-03-17T14:01:05.289Z</time></trkpt><trkpt lat="43.42003167" lon="13.22618333"><ele>223.0</ele><time>2022-03-17T14:01:06.309Z</time></trkpt><trkpt lat="43.41997333" lon="13.22612167"><ele>223.0</ele><time>2022-03-17T14:01:07.323Z</time></trkpt><trkpt lat="43.41997333" lon="13.22612167"><ele>223.0</ele><time>2022-03-17T14:01:08.293Z</time></trkpt><trkpt lat="43.41991833" lon="13.22606333"><ele>224.0</ele><time>2022-03-17T14:01:09.315Z</time></trkpt><trkpt lat="43.41991833" lon="13.22606333"><ele>224.0</ele><time>2022-03-17T14:01:10.307Z</time></trkpt><trkpt lat="43.41986333" lon="13.22600667"><ele>223.0</ele><time>2022-03-17T14:01:11.319Z</time></trkpt><trkpt lat="43.41986333" lon="13.22600667"><ele>223.0</ele><time>2022-03-17T14:01:12.289Z</time></trkpt><trkpt lat="43.41981167" lon="13.225955"><ele>224.0</ele><time>2022-03-17T14:01:13.297Z</time></trkpt><trkpt lat="43.41981167" lon="13.225955"><ele>224.0</ele><time>2022-03-17T14:01:14.305Z</time></trkpt><trkpt lat="43.41976" lon="13.22589667"><ele>224.0</ele><time>2022-03-17T14:01:15.321Z</time></trkpt><trkpt lat="43.41976" lon="13.22589667"><ele>224.0</ele><time>2022-03-17T14:01:16.289Z</time></trkpt><trkpt lat="43.419705" lon="13.22584833"><ele>224.0</ele><time>2022-03-17T14:01:17.298Z</time></trkpt><trkpt lat="43.419705" lon="13.22584833"><ele>224.0</ele><time>2022-03-17T14:01:18.322Z</time></trkpt><trkpt lat="43.41965" lon="13.22580167"><ele>225.0</ele><time>2022-03-17T14:01:19.296Z</time></trkpt><trkpt lat="43.41965" lon="13.22580167"><ele>225.0</ele><time>2022-03-17T14:01:20.317Z</time></trkpt><trkpt lat="43.41959333" lon="13.22575"><ele>225.0</ele><time>2022-03-17T14:01:21.302Z</time></trkpt><trkpt lat="43.41959333" lon="13.22575"><ele>225.0</ele><time>2022-03-17T14:01:22.336Z</time></trkpt><trkpt lat="43.41953667" lon="13.225695"><ele>225.0</ele><time>2022-03-17T14:01:23.313Z</time></trkpt><trkpt lat="43.41951" lon="13.22566667"><ele>225.0</ele><time>2022-03-17T14:01:24.293Z</time></trkpt><trkpt lat="43.41951" lon="13.22566667"><ele>225.0</ele><time>2022-03-17T14:01:25.318Z</time></trkpt><trkpt lat="43.419455" lon="13.22561333"><ele>225.0</ele><time>2022-03-17T14:01:26.312Z</time></trkpt><trkpt lat="43.419455" lon="13.22561333"><ele>225.0</ele><time>2022-03-17T14:01:27.302Z</time></trkpt><trkpt lat="43.41940333" lon="13.22556"><ele>225.0</ele><time>2022-03-17T14:01:28.317Z</time></trkpt><trkpt lat="43.41940333" lon="13.22556"><ele>225.0</ele><time>2022-03-17T14:01:29.317Z</time></trkpt><trkpt lat="43.41935" lon="13.22551333"><ele>225.0</ele><time>2022-03-17T14:01:30.314Z</time></trkpt><trkpt lat="43.41932333" lon="13.22548833"><ele>225.0</ele><time>2022-03-17T14:01:31.291Z</time></trkpt><trkpt lat="43.41929667" lon="13.22546"><ele>225.0</ele><time>2022-03-17T14:01:32.306Z</time></trkpt><trkpt lat="43.41929667" lon="13.22546"><ele>225.0</ele><time>2022-03-17T14:01:33.322Z</time></trkpt><trkpt lat="43.41924333" lon="13.22540167"><ele>225.0</ele><time>2022-03-17T14:01:34.312Z</time></trkpt><trkpt lat="43.41924333" lon="13.22540167"><ele>225.0</ele><time>2022-03-17T14:01:35.308Z</time></trkpt><trkpt lat="43.41919333" lon="13.22534167"><ele>225.0</ele><time>2022-03-17T14:01:36.297Z</time></trkpt><trkpt lat="43.41919333" lon="13.22534167"><ele>225.0</ele><time>2022-03-17T14:01:37.304Z</time></trkpt><trkpt lat="43.41914167" lon="13.225285"><ele>225.0</ele><time>2022-03-17T14:01:38.334Z</time></trkpt><trkpt lat="43.41914167" lon="13.225285"><ele>225.0</ele><time>2022-03-17T14:01:39.313Z</time></trkpt><trkpt lat="43.41909333" lon="13.22522667"><ele>225.0</ele><time>2022-03-17T14:01:40.293Z</time></trkpt><trkpt lat="43.41907167" lon="13.22519333"><ele>225.0</ele><time>2022-03-17T14:01:41.317Z</time></trkpt><trkpt lat="43.41907167" lon="13.22519333"><ele>225.0</ele><time>2022-03-17T14:01:42.303Z</time></trkpt><trkpt lat="43.41902667" lon="13.22512833"><ele>225.0</ele><time>2022-03-17T14:01:43.311Z</time></trkpt><trkpt lat="43.419005" lon="13.22509833"><ele>226.0</ele><time>2022-03-17T14:01:44.302Z</time></trkpt><trkpt lat="43.419005" lon="13.22509833"><ele>226.0</ele><time>2022-03-17T14:01:45.304Z</time></trkpt><trkpt lat="43.41896667" lon="13.225025"><ele>226.0</ele><time>2022-03-17T14:01:46.324Z</time></trkpt><trkpt lat="43.41894833" lon="13.22498833"><ele>226.0</ele><time>2022-03-17T14:01:47.299Z</time></trkpt><trkpt lat="43.41894833" lon="13.22498833"><ele>226.0</ele><time>2022-03-17T14:01:48.308Z</time></trkpt><trkpt lat="43.41891" lon="13.22490167"><ele>226.0</ele><time>2022-03-17T14:01:49.286Z</time></trkpt><trkpt lat="43.41888667" lon="13.22485833"><ele>226.0</ele><time>2022-03-17T14:01:50.294Z</time></trkpt><trkpt lat="43.41888667" lon="13.22485833"><ele>226.0</ele><time>2022-03-17T14:01:51.298Z</time></trkpt><trkpt lat="43.41883667" lon="13.22477333"><ele>226.0</ele><time>2022-03-17T14:01:52.284Z</time></trkpt><trkpt lat="43.41883667" lon="13.22477333"><ele>226.0</ele><time>2022-03-17T14:01:53.294Z</time></trkpt><trkpt lat="43.41878833" lon="13.224675"><ele>226.0</ele><time>2022-03-17T14:01:54.302Z</time></trkpt><trkpt lat="43.41876833" lon="13.22462"><ele>226.0</ele><time>2022-03-17T14:01:55.317Z</time></trkpt><trkpt lat="43.418745" lon="13.224565"><ele>226.0</ele><time>2022-03-17T14:01:56.296Z</time></trkpt><trkpt lat="43.41872" lon="13.22451167"><ele>226.0</ele><time>2022-03-17T14:01:57.319Z</time></trkpt><trkpt lat="43.41872" lon="13.22451167"><ele>226.0</ele><time>2022-03-17T14:01:58.297Z</time></trkpt><trkpt lat="43.41867333" lon="13.2244"><ele>226.0</ele><time>2022-03-17T14:01:59.287Z</time></trkpt><trkpt lat="43.41867333" lon="13.2244"><ele>226.0</ele><time>2022-03-17T14:02:00.302Z</time></trkpt><trkpt lat="43.418625" lon="13.22429"><ele>226.0</ele><time>2022-03-17T14:02:01.307Z</time></trkpt><trkpt lat="43.41860167" lon="13.22423333"><ele>226.0</ele><time>2022-03-17T14:02:02.288Z</time></trkpt><trkpt lat="43.41860167" lon="13.22423333"><ele>226.0</ele><time>2022-03-17T14:02:03.297Z</time></trkpt><trkpt lat="43.41855333" lon="13.22412167"><ele>226.0</ele><time>2022-03-17T14:02:04.300Z</time></trkpt><trkpt lat="43.41855333" lon="13.22412167"><ele>226.0</ele><time>2022-03-17T14:02:05.287Z</time></trkpt><trkpt lat="43.41850667" lon="13.22400667"><ele>226.0</ele><time>2022-03-17T14:02:06.304Z</time></trkpt><trkpt lat="43.41850667" lon="13.22400667"><ele>226.0</ele><time>2022-03-17T14:02:07.301Z</time></trkpt><trkpt lat="43.41845167" lon="13.22390167"><ele>226.0</ele><time>2022-03-17T14:02:08.307Z</time></trkpt><trkpt lat="43.41845167" lon="13.22390167"><ele>226.0</ele><time>2022-03-17T14:02:09.288Z</time></trkpt><trkpt lat="43.41840167" lon="13.223785"><ele>226.0</ele><time>2022-03-17T14:02:10.287Z</time></trkpt><trkpt lat="43.41840167" lon="13.223785"><ele>226.0</ele><time>2022-03-17T14:02:11.298Z</time></trkpt><trkpt lat="43.41835833" lon="13.22367"><ele>226.0</ele><time>2022-03-17T14:02:12.295Z</time></trkpt><trkpt lat="43.41835833" lon="13.22367"><ele>226.0</ele><time>2022-03-17T14:02:13.312Z</time></trkpt><trkpt lat="43.418315" lon="13.22355167"><ele>226.0</ele><time>2022-03-17T14:02:14.286Z</time></trkpt><trkpt lat="43.418315" lon="13.22355167"><ele>226.0</ele><time>2022-03-17T14:02:15.298Z</time></trkpt><trkpt lat="43.41827167" lon="13.22343833"><ele>226.0</ele><time>2022-03-17T14:02:16.318Z</time></trkpt><trkpt lat="43.41827167" lon="13.22343833"><ele>226.0</ele><time>2022-03-17T14:02:17.304Z</time></trkpt><trkpt lat="43.41822833" lon="13.22332667"><ele>226.0</ele><time>2022-03-17T14:02:18.316Z</time></trkpt><trkpt lat="43.41822833" lon="13.22332667"><ele>226.0</ele><time>2022-03-17T14:02:19.311Z</time></trkpt><trkpt lat="43.41818167" lon="13.22321333"><ele>226.0</ele><time>2022-03-17T14:02:20.289Z</time></trkpt><trkpt lat="43.41818167" lon="13.22321333"><ele>226.0</ele><time>2022-03-17T14:02:21.297Z</time></trkpt><trkpt lat="43.418135" lon="13.22310167"><ele>227.0</ele><time>2022-03-17T14:02:22.317Z</time></trkpt><trkpt lat="43.418135" lon="13.22310167"><ele>227.0</ele><time>2022-03-17T14:02:23.297Z</time></trkpt><trkpt lat="43.41808833" lon="13.222995"><ele>227.0</ele><time>2022-03-17T14:02:24.301Z</time></trkpt><trkpt lat="43.41808833" lon="13.222995"><ele>227.0</ele><time>2022-03-17T14:02:25.305Z</time></trkpt><trkpt lat="43.41804833" lon="13.222885"><ele>227.0</ele><time>2022-03-17T14:02:26.289Z</time></trkpt><trkpt lat="43.41804833" lon="13.222885"><ele>227.0</ele><time>2022-03-17T14:02:27.320Z</time></trkpt><trkpt lat="43.418005" lon="13.22277167"><ele>227.0</ele><time>2022-03-17T14:02:28.289Z</time></trkpt><trkpt lat="43.418005" lon="13.22277167"><ele>227.0</ele><time>2022-03-17T14:02:29.294Z</time></trkpt><trkpt lat="43.41795667" lon="13.22264833"><ele>227.0</ele><time>2022-03-17T14:02:30.293Z</time></trkpt><trkpt lat="43.41795667" lon="13.22264833"><ele>227.0</ele><time>2022-03-17T14:02:31.297Z</time></trkpt><trkpt lat="43.41791" lon="13.22252833"><ele>227.0</ele><time>2022-03-17T14:02:32.300Z</time></trkpt><trkpt lat="43.41791" lon="13.22252833"><ele>227.0</ele><time>2022-03-17T14:02:33.295Z</time></trkpt><trkpt lat="43.41786" lon="13.22240833"><ele>227.0</ele><time>2022-03-17T14:02:34.286Z</time></trkpt><trkpt lat="43.41786" lon="13.22240833"><ele>227.0</ele><time>2022-03-17T14:02:35.309Z</time></trkpt><trkpt lat="43.41781333" lon="13.222285"><ele>227.0</ele><time>2022-03-17T14:02:36.287Z</time></trkpt><trkpt lat="43.41781333" lon="13.222285"><ele>227.0</ele><time>2022-03-17T14:02:37.295Z</time></trkpt><trkpt lat="43.417765" lon="13.22216833"><ele>227.0</ele><time>2022-03-17T14:02:38.323Z</time></trkpt><trkpt lat="43.417765" lon="13.22216833"><ele>227.0</ele><time>2022-03-17T14:02:39.318Z</time></trkpt><trkpt lat="43.417715" lon="13.22204833"><ele>227.0</ele><time>2022-03-17T14:02:40.292Z</time></trkpt><trkpt lat="43.417715" lon="13.22204833"><ele>227.0</ele><time>2022-03-17T14:02:41.304Z</time></trkpt><trkpt lat="43.41766667" lon="13.221935"><ele>227.0</ele><time>2022-03-17T14:02:42.309Z</time></trkpt><trkpt lat="43.41766667" lon="13.221935"><ele>227.0</ele><time>2022-03-17T14:02:43.295Z</time></trkpt><trkpt lat="43.41762333" lon="13.221825"><ele>227.0</ele><time>2022-03-17T14:02:44.287Z</time></trkpt><trkpt lat="43.41762333" lon="13.221825"><ele>227.0</ele><time>2022-03-17T14:02:45.296Z</time></trkpt><trkpt lat="43.41758" lon="13.221715"><ele>227.0</ele><time>2022-03-17T14:02:46.316Z</time></trkpt><trkpt lat="43.41758" lon="13.221715"><ele>227.0</ele><time>2022-03-17T14:02:47.309Z</time></trkpt><trkpt lat="43.41753333" lon="13.2216"><ele>227.0</ele><time>2022-03-17T14:02:48.318Z</time></trkpt><trkpt lat="43.41750833" lon="13.22154167"><ele>226.0</ele><time>2022-03-17T14:02:49.284Z</time></trkpt><trkpt lat="43.41750833" lon="13.22154167"><ele>226.0</ele><time>2022-03-17T14:02:50.300Z</time></trkpt><trkpt lat="43.41746" lon="13.22143"><ele>226.0</ele><time>2022-03-17T14:02:51.324Z</time></trkpt><trkpt lat="43.417435" lon="13.22137"><ele>226.0</ele><time>2022-03-17T14:02:52.287Z</time></trkpt><trkpt lat="43.417435" lon="13.22137"><ele>226.0</ele><time>2022-03-17T14:02:53.300Z</time></trkpt><trkpt lat="43.417385" lon="13.22125"><ele>226.0</ele><time>2022-03-17T14:02:54.313Z</time></trkpt><trkpt lat="43.41735833" lon="13.22119"><ele>226.0</ele><time>2022-03-17T14:02:55.291Z</time></trkpt><trkpt lat="43.41733167" lon="13.22113167"><ele>226.0</ele><time>2022-03-17T14:02:56.303Z</time></trkpt><trkpt lat="43.41733167" lon="13.22113167"><ele>226.0</ele><time>2022-03-17T14:02:57.311Z</time></trkpt><trkpt lat="43.41728167" lon="13.22101167"><ele>225.0</ele><time>2022-03-17T14:02:58.294Z</time></trkpt><trkpt lat="43.41728167" lon="13.22101167"><ele>225.0</ele><time>2022-03-17T14:02:59.303Z</time></trkpt><trkpt lat="43.417235" lon="13.22088"><ele>225.0</ele><time>2022-03-17T14:03:00.323Z</time></trkpt><trkpt lat="43.41721333" lon="13.22081667"><ele>225.0</ele><time>2022-03-17T14:03:01.292Z</time></trkpt><trkpt lat="43.417195" lon="13.22076"><ele>225.0</ele><time>2022-03-17T14:03:02.292Z</time></trkpt><trkpt lat="43.417195" lon="13.22076"><ele>225.0</ele><time>2022-03-17T14:03:03.298Z</time></trkpt><trkpt lat="43.41714833" lon="13.22063833"><ele>225.0</ele><time>2022-03-17T14:03:04.316Z</time></trkpt><trkpt lat="43.41714833" lon="13.22063833"><ele>225.0</ele><time>2022-03-17T14:03:05.305Z</time></trkpt><trkpt lat="43.4171" lon="13.22052333"><ele>225.0</ele><time>2022-03-17T14:03:06.316Z</time></trkpt><trkpt lat="43.4171" lon="13.22052333"><ele>225.0</ele><time>2022-03-17T14:03:07.297Z</time></trkpt><trkpt lat="43.41705167" lon="13.220405"><ele>225.0</ele><time>2022-03-17T14:03:08.285Z</time></trkpt><trkpt lat="43.41702667" lon="13.220345"><ele>224.0</ele><time>2022-03-17T14:03:09.294Z</time></trkpt><trkpt lat="43.417005" lon="13.22028833"><ele>225.0</ele><time>2022-03-17T14:03:10.298Z</time></trkpt><trkpt lat="43.417005" lon="13.22028833"><ele>225.0</ele><time>2022-03-17T14:03:11.303Z</time></trkpt><trkpt lat="43.41695333" lon="13.22016333"><ele>225.0</ele><time>2022-03-17T14:03:12.308Z</time></trkpt><trkpt lat="43.41695333" lon="13.22016333"><ele>225.0</ele><time>2022-03-17T14:03:13.315Z</time></trkpt><trkpt lat="43.41690333" lon="13.22003667"><ele>225.0</ele><time>2022-03-17T14:03:14.301Z</time></trkpt><trkpt lat="43.41690333" lon="13.22003667"><ele>225.0</ele><time>2022-03-17T14:03:15.294Z</time></trkpt><trkpt lat="43.416855" lon="13.21991"><ele>225.0</ele><time>2022-03-17T14:03:16.314Z</time></trkpt><trkpt lat="43.416855" lon="13.21991"><ele>225.0</ele><time>2022-03-17T14:03:17.308Z</time></trkpt><trkpt lat="43.416805" lon="13.21979"><ele>225.0</ele><time>2022-03-17T14:03:18.333Z</time></trkpt><trkpt lat="43.41678167" lon="13.21973"><ele>225.0</ele><time>2022-03-17T14:03:19.322Z</time></trkpt><trkpt lat="43.41678167" lon="13.21973"><ele>225.0</ele><time>2022-03-17T14:03:20.296Z</time></trkpt><trkpt lat="43.41673333" lon="13.21961"><ele>225.0</ele><time>2022-03-17T14:03:21.293Z</time></trkpt><trkpt lat="43.41670833" lon="13.21954833"><ele>225.0</ele><time>2022-03-17T14:03:22.317Z</time></trkpt><trkpt lat="43.41670833" lon="13.21954833"><ele>225.0</ele><time>2022-03-17T14:03:23.297Z</time></trkpt><trkpt lat="43.41666" lon="13.21942333"><ele>225.0</ele><time>2022-03-17T14:03:24.316Z</time></trkpt><trkpt lat="43.41663833" lon="13.21936167"><ele>225.0</ele><time>2022-03-17T14:03:25.316Z</time></trkpt><trkpt lat="43.41661667" lon="13.21930167"><ele>225.0</ele><time>2022-03-17T14:03:26.301Z</time></trkpt><trkpt lat="43.41661667" lon="13.21930167"><ele>225.0</ele><time>2022-03-17T14:03:27.309Z</time></trkpt><trkpt lat="43.41657667" lon="13.21918167"><ele>225.0</ele><time>2022-03-17T14:03:28.295Z</time></trkpt><trkpt lat="43.41657667" lon="13.21918167"><ele>225.0</ele><time>2022-03-17T14:03:29.303Z</time></trkpt><trkpt lat="43.416535" lon="13.21905667"><ele>225.0</ele><time>2022-03-17T14:03:30.317Z</time></trkpt><trkpt lat="43.41651667" lon="13.21899"><ele>225.0</ele><time>2022-03-17T14:03:31.315Z</time></trkpt><trkpt lat="43.41650167" lon="13.21892167"><ele>225.0</ele><time>2022-03-17T14:03:32.307Z</time></trkpt><trkpt lat="43.41650167" lon="13.21892167"><ele>225.0</ele><time>2022-03-17T14:03:33.284Z</time></trkpt><trkpt lat="43.41646833" lon="13.21878333"><ele>225.0</ele><time>2022-03-17T14:03:34.288Z</time></trkpt><trkpt lat="43.41645333" lon="13.21871333"><ele>225.0</ele><time>2022-03-17T14:03:35.322Z</time></trkpt><trkpt lat="43.41645333" lon="13.21871333"><ele>225.0</ele><time>2022-03-17T14:03:36.303Z</time></trkpt><trkpt lat="43.41642667" lon="13.21856667"><ele>224.0</ele><time>2022-03-17T14:03:37.318Z</time></trkpt><trkpt lat="43.416415" lon="13.21849"><ele>224.0</ele><time>2022-03-17T14:03:38.299Z</time></trkpt><trkpt lat="43.416415" lon="13.21849"><ele>224.0</ele><time>2022-03-17T14:03:39.316Z</time></trkpt><trkpt lat="43.41639" lon="13.218345"><ele>224.0</ele><time>2022-03-17T14:03:40.307Z</time></trkpt><trkpt lat="43.41638167" lon="13.21827333"><ele>224.0</ele><time>2022-03-17T14:03:41.284Z</time></trkpt><trkpt lat="43.41638167" lon="13.21827333"><ele>224.0</ele><time>2022-03-17T14:03:42.301Z</time></trkpt><trkpt lat="43.41636833" lon="13.218135"><ele>224.0</ele><time>2022-03-17T14:03:43.287Z</time></trkpt><trkpt lat="43.41636167" lon="13.21806333"><ele>223.0</ele><time>2022-03-17T14:03:44.297Z</time></trkpt><trkpt lat="43.41636167" lon="13.21806333"><ele>223.0</ele><time>2022-03-17T14:03:45.304Z</time></trkpt><trkpt lat="43.41635" lon="13.21792167"><ele>224.0</ele><time>2022-03-17T14:03:46.311Z</time></trkpt><trkpt lat="43.41634167" lon="13.21785"><ele>224.0</ele><time>2022-03-17T14:03:47.285Z</time></trkpt><trkpt lat="43.41634167" lon="13.21785"><ele>224.0</ele><time>2022-03-17T14:03:48.297Z</time></trkpt><trkpt lat="43.41632833" lon="13.21771333"><ele>224.0</ele><time>2022-03-17T14:03:49.312Z</time></trkpt><trkpt lat="43.41632167" lon="13.21764333"><ele>223.0</ele><time>2022-03-17T14:03:50.318Z</time></trkpt><trkpt lat="43.41632167" lon="13.21764333"><ele>223.0</ele><time>2022-03-17T14:03:51.300Z</time></trkpt><trkpt lat="43.41631" lon="13.21750333"><ele>223.0</ele><time>2022-03-17T14:03:52.320Z</time></trkpt><trkpt lat="43.41631" lon="13.21750333"><ele>223.0</ele><time>2022-03-17T14:03:53.315Z</time></trkpt><trkpt lat="43.41629667" lon="13.21736667"><ele>223.0</ele><time>2022-03-17T14:03:54.311Z</time></trkpt><trkpt lat="43.41629667" lon="13.21736667"><ele>223.0</ele><time>2022-03-17T14:03:55.296Z</time></trkpt><trkpt lat="43.416285" lon="13.21723333"><ele>223.0</ele><time>2022-03-17T14:03:56.284Z</time></trkpt><trkpt lat="43.416285" lon="13.21723333"><ele>223.0</ele><time>2022-03-17T14:03:57.295Z</time></trkpt><trkpt lat="43.41627333" lon="13.217105"><ele>223.0</ele><time>2022-03-17T14:03:58.285Z</time></trkpt><trkpt lat="43.41626833" lon="13.21704"><ele>223.0</ele><time>2022-03-17T14:03:59.289Z</time></trkpt><trkpt lat="43.41626833" lon="13.21704"><ele>223.0</ele><time>2022-03-17T14:04:00.307Z</time></trkpt><trkpt lat="43.41625333" lon="13.21690333"><ele>223.0</ele><time>2022-03-17T14:04:01.314Z</time></trkpt><trkpt lat="43.41624833" lon="13.216835"><ele>223.0</ele><time>2022-03-17T14:04:02.286Z</time></trkpt><trkpt lat="43.41624833" lon="13.216835"><ele>223.0</ele><time>2022-03-17T14:04:03.323Z</time></trkpt><trkpt lat="43.41623833" lon="13.21669833"><ele>223.0</ele><time>2022-03-17T14:04:04.288Z</time></trkpt><trkpt lat="43.41623833" lon="13.21669833"><ele>223.0</ele><time>2022-03-17T14:04:05.303Z</time></trkpt><trkpt lat="43.41623333" lon="13.21656667"><ele>223.0</ele><time>2022-03-17T14:04:06.316Z</time></trkpt><trkpt lat="43.41623333" lon="13.21656667"><ele>223.0</ele><time>2022-03-17T14:04:07.302Z</time></trkpt><trkpt lat="43.41622333" lon="13.21643167"><ele>223.0</ele><time>2022-03-17T14:04:08.306Z</time></trkpt><trkpt lat="43.41622333" lon="13.21643167"><ele>223.0</ele><time>2022-03-17T14:04:09.295Z</time></trkpt><trkpt lat="43.41621333" lon="13.216285"><ele>223.0</ele><time>2022-03-17T14:04:10.317Z</time></trkpt><trkpt lat="43.41621333" lon="13.216285"><ele>223.0</ele><time>2022-03-17T14:04:11.294Z</time></trkpt><trkpt lat="43.416205" lon="13.21615833"><ele>224.0</ele><time>2022-03-17T14:04:12.321Z</time></trkpt><trkpt lat="43.416205" lon="13.21615833"><ele>224.0</ele><time>2022-03-17T14:04:13.295Z</time></trkpt><trkpt lat="43.41619167" lon="13.21602667"><ele>224.0</ele><time>2022-03-17T14:04:14.319Z</time></trkpt><trkpt lat="43.41619167" lon="13.21602667"><ele>224.0</ele><time>2022-03-17T14:04:15.297Z</time></trkpt><trkpt lat="43.41618333" lon="13.21589"><ele>224.0</ele><time>2022-03-17T14:04:16.293Z</time></trkpt><trkpt lat="43.41618333" lon="13.21589"><ele>224.0</ele><time>2022-03-17T14:04:17.297Z</time></trkpt><trkpt lat="43.41617667" lon="13.21575667"><ele>224.0</ele><time>2022-03-17T14:04:18.330Z</time></trkpt><trkpt lat="43.41617667" lon="13.21575667"><ele>224.0</ele><time>2022-03-17T14:04:19.301Z</time></trkpt><trkpt lat="43.416185" lon="13.21563333"><ele>224.0</ele><time>2022-03-17T14:04:20.313Z</time></trkpt><trkpt lat="43.416185" lon="13.21563333"><ele>224.0</ele><time>2022-03-17T14:04:21.289Z</time></trkpt><trkpt lat="43.41621167" lon="13.21551833"><ele>224.0</ele><time>2022-03-17T14:04:22.299Z</time></trkpt><trkpt lat="43.41623167" lon="13.215465"><ele>224.0</ele><time>2022-03-17T14:04:23.290Z</time></trkpt><trkpt lat="43.41623167" lon="13.215465"><ele>224.0</ele><time>2022-03-17T14:04:24.296Z</time></trkpt><trkpt lat="43.41629333" lon="13.215375"><ele>224.0</ele><time>2022-03-17T14:04:25.287Z</time></trkpt><trkpt lat="43.41633333" lon="13.21533667"><ele>224.0</ele><time>2022-03-17T14:04:26.323Z</time></trkpt><trkpt lat="43.41633333" lon="13.21533667"><ele>224.0</ele><time>2022-03-17T14:04:27.308Z</time></trkpt><trkpt lat="43.416415" lon="13.21526833"><ele>225.0</ele><time>2022-03-17T14:04:28.320Z</time></trkpt><trkpt lat="43.416415" lon="13.21526833"><ele>225.0</ele><time>2022-03-17T14:04:29.303Z</time></trkpt><trkpt lat="43.416505" lon="13.21520167"><ele>224.0</ele><time>2022-03-17T14:04:30.290Z</time></trkpt><trkpt lat="43.41655167" lon="13.21516167"><ele>224.0</ele><time>2022-03-17T14:04:31.287Z</time></trkpt><trkpt lat="43.41655167" lon="13.21516167"><ele>224.0</ele><time>2022-03-17T14:04:32.298Z</time></trkpt><trkpt lat="43.41664667" lon="13.21506833"><ele>224.0</ele><time>2022-03-17T14:04:33.320Z</time></trkpt><trkpt lat="43.41669667" lon="13.21501667"><ele>224.0</ele><time>2022-03-17T14:04:34.320Z</time></trkpt><trkpt lat="43.41669667" lon="13.21501667"><ele>224.0</ele><time>2022-03-17T14:04:35.297Z</time></trkpt><trkpt lat="43.41680167" lon="13.2149"><ele>224.0</ele><time>2022-03-17T14:04:36.307Z</time></trkpt><trkpt lat="43.41680167" lon="13.2149"><ele>224.0</ele><time>2022-03-17T14:04:37.295Z</time></trkpt><trkpt lat="43.41691333" lon="13.21478"><ele>223.0</ele><time>2022-03-17T14:04:38.324Z</time></trkpt><trkpt lat="43.41691333" lon="13.21478"><ele>223.0</ele><time>2022-03-17T14:04:39.301Z</time></trkpt><trkpt lat="43.41703167" lon="13.21465667"><ele>223.0</ele><time>2022-03-17T14:04:40.314Z</time></trkpt><trkpt lat="43.41703167" lon="13.21465667"><ele>223.0</ele><time>2022-03-17T14:04:41.296Z</time></trkpt><trkpt lat="43.417155" lon="13.21454333"><ele>222.0</ele><time>2022-03-17T14:04:42.302Z</time></trkpt><trkpt lat="43.417155" lon="13.21454333"><ele>222.0</ele><time>2022-03-17T14:04:43.302Z</time></trkpt><trkpt lat="43.41729167" lon="13.214455"><ele>222.0</ele><time>2022-03-17T14:04:44.284Z</time></trkpt><trkpt lat="43.41729167" lon="13.214455"><ele>222.0</ele><time>2022-03-17T14:04:45.303Z</time></trkpt><trkpt lat="43.41744667" lon="13.21443333"><ele>221.0</ele><time>2022-03-17T14:04:46.315Z</time></trkpt><trkpt lat="43.41744667" lon="13.21443333"><ele>221.0</ele><time>2022-03-17T14:04:47.303Z</time></trkpt><trkpt lat="43.4176" lon="13.21447333"><ele>221.0</ele><time>2022-03-17T14:04:48.317Z</time></trkpt><trkpt lat="43.4176" lon="13.21447333"><ele>221.0</ele><time>2022-03-17T14:04:49.296Z</time></trkpt><trkpt lat="43.41774333" lon="13.21456833"><ele>221.0</ele><time>2022-03-17T14:04:50.297Z</time></trkpt><trkpt lat="43.41774333" lon="13.21456833"><ele>221.0</ele><time>2022-03-17T14:04:51.318Z</time></trkpt><trkpt lat="43.41787833" lon="13.21471833"><ele>220.0</ele><time>2022-03-17T14:04:52.295Z</time></trkpt><trkpt lat="43.41787833" lon="13.21471833"><ele>220.0</ele><time>2022-03-17T14:04:53.296Z</time></trkpt><trkpt lat="43.418" lon="13.21489833"><ele>219.0</ele><time>2022-03-17T14:04:54.317Z</time></trkpt><trkpt lat="43.418055" lon="13.21499"><ele>219.0</ele><time>2022-03-17T14:04:55.322Z</time></trkpt><trkpt lat="43.418115" lon="13.21507333"><ele>219.0</ele><time>2022-03-17T14:04:56.285Z</time></trkpt><trkpt lat="43.418115" lon="13.21507333"><ele>219.0</ele><time>2022-03-17T14:04:57.297Z</time></trkpt><trkpt lat="43.41824" lon="13.21522333"><ele>218.0</ele><time>2022-03-17T14:04:58.317Z</time></trkpt><trkpt lat="43.41824" lon="13.21522333"><ele>218.0</ele><time>2022-03-17T14:04:59.294Z</time></trkpt><trkpt lat="43.41837" lon="13.215355"><ele>218.0</ele><time>2022-03-17T14:05:00.307Z</time></trkpt><trkpt lat="43.41837" lon="13.215355"><ele>218.0</ele><time>2022-03-17T14:05:01.319Z</time></trkpt><trkpt lat="43.418515" lon="13.21539167"><ele>217.0</ele><time>2022-03-17T14:05:02.303Z</time></trkpt><trkpt lat="43.418515" lon="13.21539167"><ele>217.0</ele><time>2022-03-17T14:05:03.309Z</time></trkpt><trkpt lat="43.41861333" lon="13.21525167"><ele>217.0</ele><time>2022-03-17T14:05:04.318Z</time></trkpt><trkpt lat="43.41862167" lon="13.21515333"><ele>217.0</ele><time>2022-03-17T14:05:05.314Z</time></trkpt><trkpt lat="43.41862167" lon="13.21515333"><ele>217.0</ele><time>2022-03-17T14:05:06.296Z</time></trkpt><trkpt lat="43.41858667" lon="13.21494833"><ele>216.0</ele><time>2022-03-17T14:05:07.314Z</time></trkpt><trkpt lat="43.41855167" lon="13.21486"><ele>216.0</ele><time>2022-03-17T14:05:08.284Z</time></trkpt><trkpt lat="43.41855167" lon="13.21486"><ele>216.0</ele><time>2022-03-17T14:05:09.308Z</time></trkpt><trkpt lat="43.41848667" lon="13.21469"><ele>215.0</ele><time>2022-03-17T14:05:10.290Z</time></trkpt><trkpt lat="43.41848667" lon="13.21469"><ele>215.0</ele><time>2022-03-17T14:05:11.294Z</time></trkpt><trkpt lat="43.418445" lon="13.21452833"><ele>214.0</ele><time>2022-03-17T14:05:12.287Z</time></trkpt><trkpt lat="43.418445" lon="13.21452833"><ele>214.0</ele><time>2022-03-17T14:05:13.294Z</time></trkpt><trkpt lat="43.41839" lon="13.21439"><ele>213.0</ele><time>2022-03-17T14:05:14.335Z</time></trkpt><trkpt lat="43.41839" lon="13.21439"><ele>213.0</ele><time>2022-03-17T14:05:15.288Z</time></trkpt><trkpt lat="43.41829167" lon="13.21432167"><ele>212.0</ele><time>2022-03-17T14:05:16.289Z</time></trkpt><trkpt lat="43.41829167" lon="13.21432167"><ele>212.0</ele><time>2022-03-17T14:05:17.298Z</time></trkpt><trkpt lat="43.41816" lon="13.21430833"><ele>211.0</ele><time>2022-03-17T14:05:18.285Z</time></trkpt><trkpt lat="43.41816" lon="13.21430833"><ele>211.0</ele><time>2022-03-17T14:05:19.303Z</time></trkpt><trkpt lat="43.41803667" lon="13.21429167"><ele>210.0</ele><time>2022-03-17T14:05:20.336Z</time></trkpt><trkpt lat="43.41803667" lon="13.21429167"><ele>210.0</ele><time>2022-03-17T14:05:21.294Z</time></trkpt><trkpt lat="43.41792333" lon="13.21426667"><ele>210.0</ele><time>2022-03-17T14:05:22.321Z</time></trkpt><trkpt lat="43.41792333" lon="13.21426667"><ele>210.0</ele><time>2022-03-17T14:05:23.297Z</time></trkpt><trkpt lat="43.41781667" lon="13.21423167"><ele>209.0</ele><time>2022-03-17T14:05:24.290Z</time></trkpt><trkpt lat="43.417765" lon="13.21421"><ele>209.0</ele><time>2022-03-17T14:05:25.302Z</time></trkpt><trkpt lat="43.41770833" lon="13.21419"><ele>209.0</ele><time>2022-03-17T14:05:26.316Z</time></trkpt><trkpt lat="43.41765167" lon="13.21417167"><ele>208.0</ele><time>2022-03-17T14:05:27.314Z</time></trkpt><trkpt lat="43.41765167" lon="13.21417167"><ele>208.0</ele><time>2022-03-17T14:05:28.321Z</time></trkpt><trkpt lat="43.41753333" lon="13.21413"><ele>208.0</ele><time>2022-03-17T14:05:29.295Z</time></trkpt><trkpt lat="43.41748" lon="13.21411333"><ele>208.0</ele><time>2022-03-17T14:05:30.318Z</time></trkpt><trkpt lat="43.41748" lon="13.21411333"><ele>208.0</ele><time>2022-03-17T14:05:31.296Z</time></trkpt><trkpt lat="43.41736167" lon="13.21408167"><ele>207.0</ele><time>2022-03-17T14:05:32.315Z</time></trkpt><trkpt lat="43.41736167" lon="13.21408167"><ele>207.0</ele><time>2022-03-17T14:05:33.297Z</time></trkpt><trkpt lat="43.417245" lon="13.21405833"><ele>207.0</ele><time>2022-03-17T14:05:34.321Z</time></trkpt><trkpt lat="43.417245" lon="13.21405833"><ele>207.0</ele><time>2022-03-17T14:05:35.309Z</time></trkpt><trkpt lat="43.41712333" lon="13.21404333"><ele>206.0</ele><time>2022-03-17T14:05:36.317Z</time></trkpt><trkpt lat="43.41706167" lon="13.21403667"><ele>206.0</ele><time>2022-03-17T14:05:37.320Z</time></trkpt><trkpt lat="43.41706167" lon="13.21403667"><ele>206.0</ele><time>2022-03-17T14:05:38.296Z</time></trkpt><trkpt lat="43.41694833" lon="13.21402"><ele>206.0</ele><time>2022-03-17T14:05:39.315Z</time></trkpt><trkpt lat="43.41694833" lon="13.21402"><ele>206.0</ele><time>2022-03-17T14:05:40.316Z</time></trkpt><trkpt lat="43.41684" lon="13.21399667"><ele>206.0</ele><time>2022-03-17T14:05:41.317Z</time></trkpt><trkpt lat="43.41679167" lon="13.21397833"><ele>206.0</ele><time>2022-03-17T14:05:42.322Z</time></trkpt><trkpt lat="43.41679167" lon="13.21397833"><ele>206.0</ele><time>2022-03-17T14:05:43.297Z</time></trkpt><trkpt lat="43.41669667" lon="13.21393833"><ele>206.0</ele><time>2022-03-17T14:05:44.336Z</time></trkpt><trkpt lat="43.41669667" lon="13.21393833"><ele>206.0</ele><time>2022-03-17T14:05:45.312Z</time></trkpt><trkpt lat="43.41660167" lon="13.21389"><ele>206.0</ele><time>2022-03-17T14:05:46.311Z</time></trkpt><trkpt lat="43.41660167" lon="13.21389"><ele>206.0</ele><time>2022-03-17T14:05:47.297Z</time></trkpt><trkpt lat="43.41651" lon="13.21383667"><ele>206.0</ele><time>2022-03-17T14:05:48.291Z</time></trkpt><trkpt lat="43.41651" lon="13.21383667"><ele>206.0</ele><time>2022-03-17T14:05:49.309Z</time></trkpt><trkpt lat="43.41642" lon="13.21375"><ele>206.0</ele><time>2022-03-17T14:05:50.323Z</time></trkpt><trkpt lat="43.41642" lon="13.21375"><ele>206.0</ele><time>2022-03-17T14:05:51.307Z</time></trkpt><trkpt lat="43.41634" lon="13.21365667"><ele>205.0</ele><time>2022-03-17T14:05:52.322Z</time></trkpt><trkpt lat="43.41634" lon="13.21365667"><ele>205.0</ele><time>2022-03-17T14:05:53.306Z</time></trkpt><trkpt lat="43.41627333" lon="13.21355"><ele>205.0</ele><time>2022-03-17T14:05:54.290Z</time></trkpt><trkpt lat="43.41624" lon="13.21349167"><ele>205.0</ele><time>2022-03-17T14:05:55.323Z</time></trkpt><trkpt lat="43.41620167" lon="13.213435"><ele>205.0</ele><time>2022-03-17T14:05:56.296Z</time></trkpt><trkpt lat="43.41620167" lon="13.213435"><ele>205.0</ele><time>2022-03-17T14:05:57.296Z</time></trkpt><trkpt lat="43.41613333" lon="13.21333"><ele>205.0</ele><time>2022-03-17T14:05:58.310Z</time></trkpt><trkpt lat="43.41613333" lon="13.21333"><ele>205.0</ele><time>2022-03-17T14:05:59.296Z</time></trkpt><trkpt lat="43.41606667" lon="13.21321667"><ele>205.0</ele><time>2022-03-17T14:06:00.295Z</time></trkpt><trkpt lat="43.41603" lon="13.213155"><ele>204.0</ele><time>2022-03-17T14:06:01.309Z</time></trkpt><trkpt lat="43.41599667" lon="13.21309167"><ele>204.0</ele><time>2022-03-17T14:06:02.288Z</time></trkpt><trkpt lat="43.41599667" lon="13.21309167"><ele>204.0</ele><time>2022-03-17T14:06:03.295Z</time></trkpt><trkpt lat="43.41593333" lon="13.21295167"><ele>203.0</ele><time>2022-03-17T14:06:04.315Z</time></trkpt><trkpt lat="43.415905" lon="13.21287667"><ele>203.0</ele><time>2022-03-17T14:06:05.320Z</time></trkpt><trkpt lat="43.415905" lon="13.21287667"><ele>203.0</ele><time>2022-03-17T14:06:06.308Z</time></trkpt><trkpt lat="43.415865" lon="13.21271333"><ele>203.0</ele><time>2022-03-17T14:06:07.325Z</time></trkpt><trkpt lat="43.41584833" lon="13.21263167"><ele>202.0</ele><time>2022-03-17T14:06:08.297Z</time></trkpt><trkpt lat="43.41584833" lon="13.21263167"><ele>202.0</ele><time>2022-03-17T14:06:09.295Z</time></trkpt><trkpt lat="43.415815" lon="13.21246667"><ele>202.0</ele><time>2022-03-17T14:06:10.295Z</time></trkpt><trkpt lat="43.41580333" lon="13.21238"><ele>201.0</ele><time>2022-03-17T14:06:11.297Z</time></trkpt><trkpt lat="43.41580333" lon="13.21238"><ele>201.0</ele><time>2022-03-17T14:06:12.319Z</time></trkpt><trkpt lat="43.415775" lon="13.21220333"><ele>201.0</ele><time>2022-03-17T14:06:13.290Z</time></trkpt><trkpt lat="43.41575667" lon="13.21211667"><ele>201.0</ele><time>2022-03-17T14:06:14.324Z</time></trkpt><trkpt lat="43.41575667" lon="13.21211667"><ele>201.0</ele><time>2022-03-17T14:06:15.296Z</time></trkpt><trkpt lat="43.415725" lon="13.21194167"><ele>200.0</ele><time>2022-03-17T14:06:16.323Z</time></trkpt><trkpt lat="43.415725" lon="13.21194167"><ele>200.0</ele><time>2022-03-17T14:06:17.315Z</time></trkpt><trkpt lat="43.41569167" lon="13.211765"><ele>200.0</ele><time>2022-03-17T14:06:18.317Z</time></trkpt><trkpt lat="43.41569167" lon="13.211765"><ele>200.0</ele><time>2022-03-17T14:06:19.294Z</time></trkpt><trkpt lat="43.41564833" lon="13.21160167"><ele>199.0</ele><time>2022-03-17T14:06:20.297Z</time></trkpt><trkpt lat="43.41564833" lon="13.21160167"><ele>199.0</ele><time>2022-03-17T14:06:21.288Z</time></trkpt><trkpt lat="43.41556833" lon="13.21146667"><ele>199.0</ele><time>2022-03-17T14:06:22.297Z</time></trkpt><trkpt lat="43.41556833" lon="13.21146667"><ele>199.0</ele><time>2022-03-17T14:06:23.311Z</time></trkpt><trkpt lat="43.41545333" lon="13.21141833"><ele>199.0</ele><time>2022-03-17T14:06:24.311Z</time></trkpt><trkpt lat="43.41545333" lon="13.21141833"><ele>199.0</ele><time>2022-03-17T14:06:25.297Z</time></trkpt><trkpt lat="43.41533833" lon="13.21144333"><ele>200.0</ele><time>2022-03-17T14:06:26.320Z</time></trkpt><trkpt lat="43.41533833" lon="13.21144333"><ele>200.0</ele><time>2022-03-17T14:06:27.309Z</time></trkpt><trkpt lat="43.41523667" lon="13.211485"><ele>200.0</ele><time>2022-03-17T14:06:28.296Z</time></trkpt><trkpt lat="43.41519" lon="13.21151"><ele>200.0</ele><time>2022-03-17T14:06:29.302Z</time></trkpt><trkpt lat="43.41514667" lon="13.21153333"><ele>200.0</ele><time>2022-03-17T14:06:30.296Z</time></trkpt><trkpt lat="43.41514667" lon="13.21153333"><ele>200.0</ele><time>2022-03-17T14:06:31.311Z</time></trkpt><trkpt lat="43.41506667" lon="13.21155833"><ele>200.0</ele><time>2022-03-17T14:06:32.286Z</time></trkpt><trkpt lat="43.41506667" lon="13.21155833"><ele>200.0</ele><time>2022-03-17T14:06:33.296Z</time></trkpt><trkpt lat="43.41498667" lon="13.21157167"><ele>201.0</ele><time>2022-03-17T14:06:34.331Z</time></trkpt><trkpt lat="43.41494667" lon="13.21157167"><ele>201.0</ele><time>2022-03-17T14:06:35.318Z</time></trkpt><trkpt lat="43.41494667" lon="13.21157167"><ele>201.0</ele><time>2022-03-17T14:06:36.289Z</time></trkpt><trkpt lat="43.41487667" lon="13.21156167"><ele>201.0</ele><time>2022-03-17T14:06:37.303Z</time></trkpt><trkpt lat="43.41483833" lon="13.21155333"><ele>201.0</ele><time>2022-03-17T14:06:38.324Z</time></trkpt><trkpt lat="43.41483833" lon="13.21155333"><ele>201.0</ele><time>2022-03-17T14:06:39.296Z</time></trkpt><trkpt lat="43.41476833" lon="13.211515"><ele>201.0</ele><time>2022-03-17T14:06:40.309Z</time></trkpt><trkpt lat="43.41476833" lon="13.211515"><ele>201.0</ele><time>2022-03-17T14:06:41.316Z</time></trkpt><trkpt lat="43.41470333" lon="13.21147167"><ele>201.0</ele><time>2022-03-17T14:06:42.301Z</time></trkpt><trkpt lat="43.41470333" lon="13.21147167"><ele>201.0</ele><time>2022-03-17T14:06:43.307Z</time></trkpt><trkpt lat="43.414635" lon="13.21141833"><ele>201.0</ele><time>2022-03-17T14:06:44.305Z</time></trkpt><trkpt lat="43.414635" lon="13.21141833"><ele>201.0</ele><time>2022-03-17T14:06:45.316Z</time></trkpt><trkpt lat="43.41456333" lon="13.21135667"><ele>201.0</ele><time>2022-03-17T14:06:46.297Z</time></trkpt><trkpt lat="43.41456333" lon="13.21135667"><ele>201.0</ele><time>2022-03-17T14:06:47.315Z</time></trkpt><trkpt lat="43.41449" lon="13.21129667"><ele>201.0</ele><time>2022-03-17T14:06:48.319Z</time></trkpt><trkpt lat="43.414455" lon="13.21126833"><ele>201.0</ele><time>2022-03-17T14:06:49.289Z</time></trkpt><trkpt lat="43.41441833" lon="13.21123833"><ele>201.0</ele><time>2022-03-17T14:06:50.295Z</time></trkpt><trkpt lat="43.41441833" lon="13.21123833"><ele>201.0</ele><time>2022-03-17T14:06:51.307Z</time></trkpt><trkpt lat="43.41433833" lon="13.21117333"><ele>201.0</ele><time>2022-03-17T14:06:52.285Z</time></trkpt><trkpt lat="43.41433833" lon="13.21117333"><ele>201.0</ele><time>2022-03-17T14:06:53.293Z</time></trkpt><trkpt lat="43.41425667" lon="13.211105"><ele>201.0</ele><time>2022-03-17T14:06:54.292Z</time></trkpt><trkpt lat="43.41425667" lon="13.211105"><ele>201.0</ele><time>2022-03-17T14:06:55.309Z</time></trkpt><trkpt lat="43.41417667" lon="13.21103333"><ele>200.0</ele><time>2022-03-17T14:06:56.289Z</time></trkpt><trkpt lat="43.41417667" lon="13.21103333"><ele>200.0</ele><time>2022-03-17T14:06:57.304Z</time></trkpt><trkpt lat="43.41409833" lon="13.21096833"><ele>200.0</ele><time>2022-03-17T14:06:58.317Z</time></trkpt><trkpt lat="43.41405833" lon="13.21093333"><ele>200.0</ele><time>2022-03-17T14:06:59.324Z</time></trkpt><trkpt lat="43.41405833" lon="13.21093333"><ele>200.0</ele><time>2022-03-17T14:07:00.301Z</time></trkpt><trkpt lat="43.41398167" lon="13.21086"><ele>200.0</ele><time>2022-03-17T14:07:01.288Z</time></trkpt><trkpt lat="43.41394833" lon="13.21081333"><ele>200.0</ele><time>2022-03-17T14:07:02.307Z</time></trkpt><trkpt lat="43.41394833" lon="13.21081333"><ele>200.0</ele><time>2022-03-17T14:07:03.319Z</time></trkpt><trkpt lat="43.41390333" lon="13.21070667"><ele>200.0</ele><time>2022-03-17T14:07:04.292Z</time></trkpt><trkpt lat="43.41389333" lon="13.21064833"><ele>200.0</ele><time>2022-03-17T14:07:05.374Z</time></trkpt><trkpt lat="43.41389333" lon="13.21064833"><ele>200.0</ele><time>2022-03-17T14:07:06.290Z</time></trkpt><trkpt lat="43.41389833" lon="13.210525"><ele>200.0</ele><time>2022-03-17T14:07:07.305Z</time></trkpt><trkpt lat="43.41391167" lon="13.210465"><ele>201.0</ele><time>2022-03-17T14:07:08.319Z</time></trkpt><trkpt lat="43.41391167" lon="13.210465"><ele>201.0</ele><time>2022-03-17T14:07:09.286Z</time></trkpt><trkpt lat="43.41394833" lon="13.210335"><ele>201.0</ele><time>2022-03-17T14:07:10.317Z</time></trkpt><trkpt lat="43.41394833" lon="13.210335"><ele>201.0</ele><time>2022-03-17T14:07:11.310Z</time></trkpt><trkpt lat="43.41399167" lon="13.21021333"><ele>201.0</ele><time>2022-03-17T14:07:12.299Z</time></trkpt><trkpt lat="43.41399167" lon="13.21021333"><ele>201.0</ele><time>2022-03-17T14:07:13.305Z</time></trkpt><trkpt lat="43.41403667" lon="13.21009"><ele>201.0</ele><time>2022-03-17T14:07:14.316Z</time></trkpt><trkpt lat="43.41403667" lon="13.21009"><ele>201.0</ele><time>2022-03-17T14:07:15.294Z</time></trkpt><trkpt lat="43.41408" lon="13.209975"><ele>202.0</ele><time>2022-03-17T14:07:16.319Z</time></trkpt><trkpt lat="43.41408" lon="13.209975"><ele>202.0</ele><time>2022-03-17T14:07:17.301Z</time></trkpt><trkpt lat="43.414105" lon="13.209865"><ele>202.0</ele><time>2022-03-17T14:07:18.323Z</time></trkpt><trkpt lat="43.414105" lon="13.209865"><ele>202.0</ele><time>2022-03-17T14:07:19.298Z</time></trkpt><trkpt lat="43.41411667" lon="13.20976"><ele>203.0</ele><time>2022-03-17T14:07:20.293Z</time></trkpt><trkpt lat="43.41411667" lon="13.20976"><ele>203.0</ele><time>2022-03-17T14:07:21.320Z</time></trkpt><trkpt lat="43.414125" lon="13.209665"><ele>203.0</ele><time>2022-03-17T14:07:22.303Z</time></trkpt><trkpt lat="43.414125" lon="13.209665"><ele>203.0</ele><time>2022-03-17T14:07:23.294Z</time></trkpt><trkpt lat="43.41413" lon="13.20958333"><ele>204.0</ele><time>2022-03-17T14:07:24.285Z</time></trkpt><trkpt lat="43.41413" lon="13.20958333"><ele>204.0</ele><time>2022-03-17T14:07:25.295Z</time></trkpt><trkpt lat="43.41413167" lon="13.20950667"><ele>205.0</ele><time>2022-03-17T14:07:26.297Z</time></trkpt><trkpt lat="43.41413167" lon="13.20950667"><ele>205.0</ele><time>2022-03-17T14:07:27.318Z</time></trkpt><trkpt lat="43.41412833" lon="13.209435"><ele>206.0</ele><time>2022-03-17T14:07:28.318Z</time></trkpt><trkpt lat="43.41412833" lon="13.209435"><ele>206.0</ele><time>2022-03-17T14:07:29.294Z</time></trkpt><trkpt lat="43.41412333" lon="13.20937667"><ele>206.0</ele><time>2022-03-17T14:07:30.295Z</time></trkpt><trkpt lat="43.41412333" lon="13.20937667"><ele>206.0</ele><time>2022-03-17T14:07:31.304Z</time></trkpt><trkpt lat="43.41411833" lon="13.20932167"><ele>207.0</ele><time>2022-03-17T14:07:32.285Z</time></trkpt><trkpt lat="43.41411833" lon="13.20932167"><ele>207.0</ele><time>2022-03-17T14:07:33.290Z</time></trkpt><trkpt lat="43.414115" lon="13.20926833"><ele>208.0</ele><time>2022-03-17T14:07:34.306Z</time></trkpt><trkpt lat="43.41411167" lon="13.20924"><ele>208.0</ele><time>2022-03-17T14:07:35.303Z</time></trkpt><trkpt lat="43.41411167" lon="13.20924"><ele>208.0</ele><time>2022-03-17T14:07:36.295Z</time></trkpt><trkpt lat="43.414105" lon="13.2092"><ele>209.0</ele><time>2022-03-17T14:07:37.314Z</time></trkpt><trkpt lat="43.41410167" lon="13.20917167"><ele>209.0</ele><time>2022-03-17T14:07:38.316Z</time></trkpt><trkpt lat="43.41410167" lon="13.20917167"><ele>209.0</ele><time>2022-03-17T14:07:39.308Z</time></trkpt><trkpt lat="43.414085" lon="13.20912333"><ele>209.0</ele><time>2022-03-17T14:07:40.296Z</time></trkpt><trkpt lat="43.41407833" lon="13.20909667"><ele>209.0</ele><time>2022-03-17T14:07:41.305Z</time></trkpt><trkpt lat="43.41407667" lon="13.20906667"><ele>210.0</ele><time>2022-03-17T14:07:42.317Z</time></trkpt><trkpt lat="43.41407667" lon="13.20906667"><ele>210.0</ele><time>2022-03-17T14:07:43.295Z</time></trkpt><trkpt lat="43.41406667" lon="13.20901167"><ele>210.0</ele><time>2022-03-17T14:07:44.309Z</time></trkpt><trkpt lat="43.41406667" lon="13.20901167"><ele>210.0</ele><time>2022-03-17T14:07:45.319Z</time></trkpt><trkpt lat="43.414055" lon="13.20895167"><ele>210.0</ele><time>2022-03-17T14:07:46.294Z</time></trkpt><trkpt lat="43.414055" lon="13.20895167"><ele>210.0</ele><time>2022-03-17T14:07:47.316Z</time></trkpt><trkpt lat="43.41405" lon="13.20889333"><ele>210.0</ele><time>2022-03-17T14:07:48.290Z</time></trkpt><trkpt lat="43.41405" lon="13.20889333"><ele>210.0</ele><time>2022-03-17T14:07:49.303Z</time></trkpt><trkpt lat="43.41405167" lon="13.20883167"><ele>211.0</ele><time>2022-03-17T14:07:50.289Z</time></trkpt><trkpt lat="43.41405167" lon="13.20883167"><ele>211.0</ele><time>2022-03-17T14:07:51.313Z</time></trkpt><trkpt lat="43.41404167" lon="13.20877833"><ele>211.0</ele><time>2022-03-17T14:07:52.288Z</time></trkpt><trkpt lat="43.41404167" lon="13.20877833"><ele>211.0</ele><time>2022-03-17T14:07:53.295Z</time></trkpt><trkpt lat="43.41402833" lon="13.208715"><ele>212.0</ele><time>2022-03-17T14:07:54.320Z</time></trkpt><trkpt lat="43.41402833" lon="13.208715"><ele>212.0</ele><time>2022-03-17T14:07:55.309Z</time></trkpt><trkpt lat="43.41402167" lon="13.20865167"><ele>212.0</ele><time>2022-03-17T14:07:56.289Z</time></trkpt><trkpt lat="43.41402167" lon="13.20865167"><ele>212.0</ele><time>2022-03-17T14:07:57.318Z</time></trkpt><trkpt lat="43.414015" lon="13.20857"><ele>213.0</ele><time>2022-03-17T14:07:58.297Z</time></trkpt><trkpt lat="43.414015" lon="13.20853333"><ele>213.0</ele><time>2022-03-17T14:07:59.321Z</time></trkpt><trkpt lat="43.414015" lon="13.20853333"><ele>213.0</ele><time>2022-03-17T14:08:00.293Z</time></trkpt><trkpt lat="43.41400833" lon="13.20847833"><ele>214.0</ele><time>2022-03-17T14:08:01.287Z</time></trkpt><trkpt lat="43.41400833" lon="13.20847833"><ele>214.0</ele><time>2022-03-17T14:08:02.300Z</time></trkpt><trkpt lat="43.41401" lon="13.20842667"><ele>214.0</ele><time>2022-03-17T14:08:03.316Z</time></trkpt><trkpt lat="43.41401" lon="13.20842667"><ele>214.0</ele><time>2022-03-17T14:08:04.295Z</time></trkpt><trkpt lat="43.41400167" lon="13.20838"><ele>215.0</ele><time>2022-03-17T14:08:05.307Z</time></trkpt><trkpt lat="43.41400167" lon="13.20838"><ele>215.0</ele><time>2022-03-17T14:08:06.295Z</time></trkpt><trkpt lat="43.413995" lon="13.20832667"><ele>216.0</ele><time>2022-03-17T14:08:07.318Z</time></trkpt><trkpt lat="43.41398833" lon="13.20830667"><ele>216.0</ele><time>2022-03-17T14:08:08.295Z</time></trkpt><trkpt lat="43.41398833" lon="13.20830667"><ele>216.0</ele><time>2022-03-17T14:08:09.309Z</time></trkpt><trkpt lat="43.41398167" lon="13.20825333"><ele>217.0</ele><time>2022-03-17T14:08:10.323Z</time></trkpt><trkpt lat="43.41398167" lon="13.20825333"><ele>217.0</ele><time>2022-03-17T14:08:11.302Z</time></trkpt><trkpt lat="43.41397333" lon="13.20818667"><ele>217.0</ele><time>2022-03-17T14:08:12.293Z</time></trkpt><trkpt lat="43.41397333" lon="13.20818667"><ele>217.0</ele><time>2022-03-17T14:08:13.311Z</time></trkpt><trkpt lat="43.41396" lon="13.20812667"><ele>218.0</ele><time>2022-03-17T14:08:14.302Z</time></trkpt><trkpt lat="43.41396" lon="13.20812667"><ele>218.0</ele><time>2022-03-17T14:08:15.306Z</time></trkpt><trkpt lat="43.41395167" lon="13.20806"><ele>218.0</ele><time>2022-03-17T14:08:16.327Z</time></trkpt><trkpt lat="43.41395167" lon="13.20806"><ele>218.0</ele><time>2022-03-17T14:08:17.313Z</time></trkpt><trkpt lat="43.413945" lon="13.20799667"><ele>219.0</ele><time>2022-03-17T14:08:18.287Z</time></trkpt><trkpt lat="43.41394167" lon="13.207965"><ele>219.0</ele><time>2022-03-17T14:08:19.317Z</time></trkpt><trkpt lat="43.41393833" lon="13.207935"><ele>220.0</ele><time>2022-03-17T14:08:20.294Z</time></trkpt><trkpt lat="43.41393833" lon="13.207935"><ele>220.0</ele><time>2022-03-17T14:08:21.299Z</time></trkpt><trkpt lat="43.41393333" lon="13.20787"><ele>220.0</ele><time>2022-03-17T14:08:22.321Z</time></trkpt><trkpt lat="43.41393333" lon="13.20787"><ele>220.0</ele><time>2022-03-17T14:08:23.290Z</time></trkpt><trkpt lat="43.41392833" lon="13.20780667"><ele>221.0</ele><time>2022-03-17T14:08:24.312Z</time></trkpt><trkpt lat="43.41392" lon="13.207775"><ele>221.0</ele><time>2022-03-17T14:08:25.321Z</time></trkpt><trkpt lat="43.41392" lon="13.207775"><ele>221.0</ele><time>2022-03-17T14:08:26.297Z</time></trkpt><trkpt lat="43.41391333" lon="13.20771"><ele>221.0</ele><time>2022-03-17T14:08:27.311Z</time></trkpt><trkpt lat="43.41391333" lon="13.20771"><ele>221.0</ele><time>2022-03-17T14:08:28.316Z</time></trkpt><trkpt lat="43.4139" lon="13.20763"><ele>221.0</ele><time>2022-03-17T14:08:29.302Z</time></trkpt><trkpt lat="43.41389667" lon="13.20759"><ele>220.0</ele><time>2022-03-17T14:08:30.303Z</time></trkpt><trkpt lat="43.41389667" lon="13.20759"><ele>220.0</ele><time>2022-03-17T14:08:31.312Z</time></trkpt><trkpt lat="43.413895" lon="13.20751833"><ele>221.0</ele><time>2022-03-17T14:08:32.285Z</time></trkpt><trkpt lat="43.41389" lon="13.207485"><ele>221.0</ele><time>2022-03-17T14:08:33.308Z</time></trkpt><trkpt lat="43.41389" lon="13.207485"><ele>221.0</ele><time>2022-03-17T14:08:34.314Z</time></trkpt><trkpt lat="43.41388167" lon="13.20742167"><ele>221.0</ele><time>2022-03-17T14:08:35.301Z</time></trkpt><trkpt lat="43.41388167" lon="13.20742167"><ele>221.0</ele><time>2022-03-17T14:08:36.306Z</time></trkpt><trkpt lat="43.41388" lon="13.207355"><ele>222.0</ele><time>2022-03-17T14:08:37.322Z</time></trkpt><trkpt lat="43.41387667" lon="13.20732"><ele>222.0</ele><time>2022-03-17T14:08:38.317Z</time></trkpt><trkpt lat="43.41387667" lon="13.20732"><ele>222.0</ele><time>2022-03-17T14:08:39.298Z</time></trkpt><trkpt lat="43.41387" lon="13.20725167"><ele>222.0</ele><time>2022-03-17T14:08:40.301Z</time></trkpt><trkpt lat="43.41387" lon="13.20725167"><ele>222.0</ele><time>2022-03-17T14:08:41.303Z</time></trkpt><trkpt lat="43.413865" lon="13.20718"><ele>223.0</ele><time>2022-03-17T14:08:42.318Z</time></trkpt><trkpt lat="43.41386333" lon="13.20714333"><ele>223.0</ele><time>2022-03-17T14:08:43.308Z</time></trkpt><trkpt lat="43.41386333" lon="13.20714333"><ele>223.0</ele><time>2022-03-17T14:08:44.317Z</time></trkpt><trkpt lat="43.41385167" lon="13.20707333"><ele>223.0</ele><time>2022-03-17T14:08:45.294Z</time></trkpt><trkpt lat="43.41385167" lon="13.20707333"><ele>223.0</ele><time>2022-03-17T14:08:46.300Z</time></trkpt><trkpt lat="43.41384333" lon="13.20700333"><ele>224.0</ele><time>2022-03-17T14:08:47.313Z</time></trkpt><trkpt lat="43.41384" lon="13.20696833"><ele>224.0</ele><time>2022-03-17T14:08:48.313Z</time></trkpt><trkpt lat="43.41384" lon="13.20696833"><ele>224.0</ele><time>2022-03-17T14:08:49.296Z</time></trkpt><trkpt lat="43.41383167" lon="13.20689833"><ele>224.0</ele><time>2022-03-17T14:08:50.293Z</time></trkpt><trkpt lat="43.41383167" lon="13.20689833"><ele>224.0</ele><time>2022-03-17T14:08:51.316Z</time></trkpt><trkpt lat="43.413825" lon="13.206825"><ele>223.0</ele><time>2022-03-17T14:08:52.317Z</time></trkpt><trkpt lat="43.41382167" lon="13.206795"><ele>224.0</ele><time>2022-03-17T14:08:53.331Z</time></trkpt><trkpt lat="43.41382167" lon="13.206795"><ele>224.0</ele><time>2022-03-17T14:08:54.297Z</time></trkpt><trkpt lat="43.41381833" lon="13.20673"><ele>224.0</ele><time>2022-03-17T14:08:55.314Z</time></trkpt><trkpt lat="43.41381667" lon="13.2067"><ele>225.0</ele><time>2022-03-17T14:08:56.285Z</time></trkpt><trkpt lat="43.41381667" lon="13.2067"><ele>225.0</ele><time>2022-03-17T14:08:57.296Z</time></trkpt><trkpt lat="43.41381333" lon="13.20663667"><ele>226.0</ele><time>2022-03-17T14:08:58.309Z</time></trkpt><trkpt lat="43.41381333" lon="13.20663667"><ele>226.0</ele><time>2022-03-17T14:08:59.320Z</time></trkpt><trkpt lat="43.41381167" lon="13.20656333"><ele>225.0</ele><time>2022-03-17T14:09:00.287Z</time></trkpt><trkpt lat="43.41380833" lon="13.20653333"><ele>226.0</ele><time>2022-03-17T14:09:01.307Z</time></trkpt><trkpt lat="43.41380833" lon="13.20653333"><ele>226.0</ele><time>2022-03-17T14:09:02.297Z</time></trkpt><trkpt lat="43.41379833" lon="13.20646667"><ele>226.0</ele><time>2022-03-17T14:09:03.307Z</time></trkpt><trkpt lat="43.41379667" lon="13.20643333"><ele>226.0</ele><time>2022-03-17T14:09:04.319Z</time></trkpt><trkpt lat="43.41379667" lon="13.20643333"><ele>226.0</ele><time>2022-03-17T14:09:05.298Z</time></trkpt><trkpt lat="43.413805" lon="13.20634667"><ele>226.0</ele><time>2022-03-17T14:09:06.296Z</time></trkpt><trkpt lat="43.413805" lon="13.20634667"><ele>226.0</ele><time>2022-03-17T14:09:07.315Z</time></trkpt><trkpt lat="43.413805" lon="13.20628167"><ele>226.0</ele><time>2022-03-17T14:09:08.316Z</time></trkpt><trkpt lat="43.413805" lon="13.20628167"><ele>226.0</ele><time>2022-03-17T14:09:09.295Z</time></trkpt><trkpt lat="43.4138" lon="13.20622167"><ele>227.0</ele><time>2022-03-17T14:09:10.312Z</time></trkpt><trkpt lat="43.4138" lon="13.20622167"><ele>227.0</ele><time>2022-03-17T14:09:11.295Z</time></trkpt><trkpt lat="43.41379667" lon="13.20615833"><ele>227.0</ele><time>2022-03-17T14:09:12.301Z</time></trkpt><trkpt lat="43.41379667" lon="13.20615833"><ele>227.0</ele><time>2022-03-17T14:09:13.306Z</time></trkpt><trkpt lat="43.41379" lon="13.20609667"><ele>228.0</ele><time>2022-03-17T14:09:14.321Z</time></trkpt><trkpt lat="43.41379" lon="13.20609667"><ele>228.0</ele><time>2022-03-17T14:09:15.288Z</time></trkpt><trkpt lat="43.41378167" lon="13.20603333"><ele>229.0</ele><time>2022-03-17T14:09:16.300Z</time></trkpt><trkpt lat="43.41378167" lon="13.206"><ele>228.0</ele><time>2022-03-17T14:09:17.289Z</time></trkpt><trkpt lat="43.41378333" lon="13.20597167"><ele>229.0</ele><time>2022-03-17T14:09:18.293Z</time></trkpt><trkpt lat="43.41378333" lon="13.20597167"><ele>229.0</ele><time>2022-03-17T14:09:19.308Z</time></trkpt><trkpt lat="43.41378333" lon="13.20591"><ele>229.0</ele><time>2022-03-17T14:09:20.314Z</time></trkpt><trkpt lat="43.41378333" lon="13.20591"><ele>229.0</ele><time>2022-03-17T14:09:21.295Z</time></trkpt><trkpt lat="43.41377833" lon="13.20584167"><ele>229.0</ele><time>2022-03-17T14:09:22.328Z</time></trkpt><trkpt lat="43.41377833" lon="13.20584167"><ele>229.0</ele><time>2022-03-17T14:09:23.301Z</time></trkpt><trkpt lat="43.413775" lon="13.205765"><ele>229.0</ele><time>2022-03-17T14:09:24.318Z</time></trkpt><trkpt lat="43.41377667" lon="13.20572667"><ele>230.0</ele><time>2022-03-17T14:09:25.317Z</time></trkpt><trkpt lat="43.41378" lon="13.20569"><ele>230.0</ele><time>2022-03-17T14:09:26.293Z</time></trkpt><trkpt lat="43.41378" lon="13.20569"><ele>230.0</ele><time>2022-03-17T14:09:27.301Z</time></trkpt><trkpt lat="43.41378167" lon="13.20563"><ele>230.0</ele><time>2022-03-17T14:09:28.287Z</time></trkpt><trkpt lat="43.41378" lon="13.20560333"><ele>231.0</ele><time>2022-03-17T14:09:29.310Z</time></trkpt><trkpt lat="43.41378" lon="13.205575"><ele>231.0</ele><time>2022-03-17T14:09:30.295Z</time></trkpt><trkpt lat="43.41378" lon="13.205575"><ele>231.0</ele><time>2022-03-17T14:09:31.303Z</time></trkpt><trkpt lat="43.41377833" lon="13.20553"><ele>233.0</ele><time>2022-03-17T14:09:32.290Z</time></trkpt><trkpt lat="43.41377833" lon="13.20553"><ele>233.0</ele><time>2022-03-17T14:09:33.295Z</time></trkpt><trkpt lat="43.413775" lon="13.20547667"><ele>233.0</ele><time>2022-03-17T14:09:34.297Z</time></trkpt><trkpt lat="43.413775" lon="13.20544833"><ele>233.0</ele><time>2022-03-17T14:09:35.324Z</time></trkpt><trkpt lat="43.413775" lon="13.20544833"><ele>233.0</ele><time>2022-03-17T14:09:36.301Z</time></trkpt><trkpt lat="43.41378333" lon="13.205405"><ele>234.0</ele><time>2022-03-17T14:09:37.288Z</time></trkpt><trkpt lat="43.41378833" lon="13.205375"><ele>234.0</ele><time>2022-03-17T14:09:38.313Z</time></trkpt><trkpt lat="43.41378833" lon="13.205375"><ele>234.0</ele><time>2022-03-17T14:09:39.295Z</time></trkpt><trkpt lat="43.41379" lon="13.20531833"><ele>235.0</ele><time>2022-03-17T14:09:40.286Z</time></trkpt><trkpt lat="43.41379" lon="13.20531833"><ele>235.0</ele><time>2022-03-17T14:09:41.301Z</time></trkpt><trkpt lat="43.41379167" lon="13.20526167"><ele>236.0</ele><time>2022-03-17T14:09:42.297Z</time></trkpt><trkpt lat="43.41379167" lon="13.20526167"><ele>236.0</ele><time>2022-03-17T14:09:43.308Z</time></trkpt><trkpt lat="43.413795" lon="13.20520667"><ele>236.0</ele><time>2022-03-17T14:09:44.323Z</time></trkpt><trkpt lat="43.41379833" lon="13.20517833"><ele>236.0</ele><time>2022-03-17T14:09:45.306Z</time></trkpt><trkpt lat="43.41379833" lon="13.20517833"><ele>236.0</ele><time>2022-03-17T14:09:46.300Z</time></trkpt><trkpt lat="43.41380333" lon="13.20511667"><ele>237.0</ele><time>2022-03-17T14:09:47.287Z</time></trkpt><trkpt lat="43.41380333" lon="13.20511667"><ele>237.0</ele><time>2022-03-17T14:09:48.300Z</time></trkpt><trkpt lat="43.41380667" lon="13.20506"><ele>237.0</ele><time>2022-03-17T14:09:49.294Z</time></trkpt><trkpt lat="43.41381" lon="13.20503333"><ele>238.0</ele><time>2022-03-17T14:09:50.299Z</time></trkpt><trkpt lat="43.41381" lon="13.20503333"><ele>238.0</ele><time>2022-03-17T14:09:51.298Z</time></trkpt><trkpt lat="43.41381667" lon="13.20498667"><ele>239.0</ele><time>2022-03-17T14:09:52.322Z</time></trkpt><trkpt lat="43.41381667" lon="13.20498667"><ele>239.0</ele><time>2022-03-17T14:09:53.295Z</time></trkpt><trkpt lat="43.41382667" lon="13.20494667"><ele>239.0</ele><time>2022-03-17T14:09:54.316Z</time></trkpt><trkpt lat="43.41383167" lon="13.20492667"><ele>240.0</ele><time>2022-03-17T14:09:55.288Z</time></trkpt><trkpt lat="43.41383333" lon="13.204905"><ele>240.0</ele><time>2022-03-17T14:09:56.317Z</time></trkpt><trkpt lat="43.41383333" lon="13.204905"><ele>240.0</ele><time>2022-03-17T14:09:57.295Z</time></trkpt><trkpt lat="43.41384167" lon="13.20485667"><ele>241.0</ele><time>2022-03-17T14:09:58.287Z</time></trkpt><trkpt lat="43.41384167" lon="13.20485667"><ele>241.0</ele><time>2022-03-17T14:09:59.318Z</time></trkpt><trkpt lat="43.413845" lon="13.20482667"><ele>242.0</ele><time>2022-03-17T14:10:00.300Z</time></trkpt><trkpt lat="43.41384833" lon="13.20480833"><ele>242.0</ele><time>2022-03-17T14:10:01.319Z</time></trkpt><trkpt lat="43.413855" lon="13.20478667"><ele>243.0</ele><time>2022-03-17T14:10:02.296Z</time></trkpt><trkpt lat="43.413855" lon="13.20478667"><ele>243.0</ele><time>2022-03-17T14:10:03.303Z</time></trkpt><trkpt lat="43.41386333" lon="13.20474833"><ele>244.0</ele><time>2022-03-17T14:10:04.316Z</time></trkpt><trkpt lat="43.413865" lon="13.20473333"><ele>244.0</ele><time>2022-03-17T14:10:05.300Z</time></trkpt><trkpt lat="43.413865" lon="13.20473333"><ele>244.0</ele><time>2022-03-17T14:10:06.309Z</time></trkpt><trkpt lat="43.41386667" lon="13.20471333"><ele>245.0</ele><time>2022-03-17T14:10:07.291Z</time></trkpt><trkpt lat="43.41387167" lon="13.20469833"><ele>246.0</ele><time>2022-03-17T14:10:08.324Z</time></trkpt><trkpt lat="43.41387167" lon="13.20469833"><ele>246.0</ele><time>2022-03-17T14:10:09.304Z</time></trkpt><trkpt lat="43.41388333" lon="13.204655"><ele>247.0</ele><time>2022-03-17T14:10:10.314Z</time></trkpt><trkpt lat="43.41388333" lon="13.204655"><ele>247.0</ele><time>2022-03-17T14:10:11.316Z</time></trkpt><trkpt lat="43.41389833" lon="13.20461167"><ele>247.0</ele><time>2022-03-17T14:10:12.287Z</time></trkpt><trkpt lat="43.41389833" lon="13.20461167"><ele>247.0</ele><time>2022-03-17T14:10:13.293Z</time></trkpt><trkpt lat="43.41390667" lon="13.20456333"><ele>248.0</ele><time>2022-03-17T14:10:14.312Z</time></trkpt><trkpt lat="43.41391333" lon="13.20454"><ele>249.0</ele><time>2022-03-17T14:10:15.289Z</time></trkpt><trkpt lat="43.41392167" lon="13.20451833"><ele>249.0</ele><time>2022-03-17T14:10:16.287Z</time></trkpt><trkpt lat="43.41392167" lon="13.20451833"><ele>249.0</ele><time>2022-03-17T14:10:17.295Z</time></trkpt><trkpt lat="43.41393333" lon="13.20447667"><ele>250.0</ele><time>2022-03-17T14:10:18.305Z</time></trkpt><trkpt lat="43.41393333" lon="13.20447667"><ele>250.0</ele><time>2022-03-17T14:10:19.319Z</time></trkpt><trkpt lat="43.41395" lon="13.20442833"><ele>251.0</ele><time>2022-03-17T14:10:20.298Z</time></trkpt><trkpt lat="43.41395667" lon="13.20440833"><ele>251.0</ele><time>2022-03-17T14:10:21.317Z</time></trkpt><trkpt lat="43.41395667" lon="13.20440833"><ele>251.0</ele><time>2022-03-17T14:10:22.289Z</time></trkpt><trkpt lat="43.41396667" lon="13.20437"><ele>252.0</ele><time>2022-03-17T14:10:23.306Z</time></trkpt><trkpt lat="43.41397333" lon="13.20435"><ele>252.0</ele><time>2022-03-17T14:10:24.284Z</time></trkpt><trkpt lat="43.41397333" lon="13.20435"><ele>252.0</ele><time>2022-03-17T14:10:25.290Z</time></trkpt><trkpt lat="43.41398667" lon="13.204305"><ele>252.0</ele><time>2022-03-17T14:10:26.306Z</time></trkpt><trkpt lat="43.41398667" lon="13.204305"><ele>252.0</ele><time>2022-03-17T14:10:27.308Z</time></trkpt><trkpt lat="43.41400167" lon="13.20426167"><ele>253.0</ele><time>2022-03-17T14:10:28.285Z</time></trkpt><trkpt lat="43.41400667" lon="13.204245"><ele>253.0</ele><time>2022-03-17T14:10:29.299Z</time></trkpt><trkpt lat="43.41400667" lon="13.204245"><ele>253.0</ele><time>2022-03-17T14:10:30.305Z</time></trkpt><trkpt lat="43.41402333" lon="13.20420333"><ele>254.0</ele><time>2022-03-17T14:10:31.332Z</time></trkpt><trkpt lat="43.41403167" lon="13.20418333"><ele>254.0</ele><time>2022-03-17T14:10:32.308Z</time></trkpt><trkpt lat="43.41403167" lon="13.20418333"><ele>254.0</ele><time>2022-03-17T14:10:33.318Z</time></trkpt><trkpt lat="43.41404667" lon="13.20414333"><ele>255.0</ele><time>2022-03-17T14:10:34.306Z</time></trkpt><trkpt lat="43.41404667" lon="13.20414333"><ele>255.0</ele><time>2022-03-17T14:10:35.297Z</time></trkpt><trkpt lat="43.41406167" lon="13.20410167"><ele>255.0</ele><time>2022-03-17T14:10:36.296Z</time></trkpt><trkpt lat="43.41406167" lon="13.20410167"><ele>255.0</ele><time>2022-03-17T14:10:37.297Z</time></trkpt><trkpt lat="43.41408" lon="13.204055"><ele>256.0</ele><time>2022-03-17T14:10:38.298Z</time></trkpt><trkpt lat="43.41408" lon="13.204055"><ele>256.0</ele><time>2022-03-17T14:10:39.297Z</time></trkpt><trkpt lat="43.41408833" lon="13.20401667"><ele>256.0</ele><time>2022-03-17T14:10:40.297Z</time></trkpt><trkpt lat="43.41408833" lon="13.20401667"><ele>256.0</ele><time>2022-03-17T14:10:41.290Z</time></trkpt><trkpt lat="43.41410167" lon="13.203975"><ele>257.0</ele><time>2022-03-17T14:10:42.302Z</time></trkpt><trkpt lat="43.41411167" lon="13.203955"><ele>257.0</ele><time>2022-03-17T14:10:43.304Z</time></trkpt><trkpt lat="43.41411167" lon="13.203955"><ele>257.0</ele><time>2022-03-17T14:10:44.284Z</time></trkpt><trkpt lat="43.41412667" lon="13.20391333"><ele>257.0</ele><time>2022-03-17T14:10:45.297Z</time></trkpt><trkpt lat="43.41413333" lon="13.203895"><ele>258.0</ele><time>2022-03-17T14:10:46.321Z</time></trkpt><trkpt lat="43.41413333" lon="13.203895"><ele>258.0</ele><time>2022-03-17T14:10:47.297Z</time></trkpt><trkpt lat="43.414145" lon="13.20386333"><ele>258.0</ele><time>2022-03-17T14:10:48.304Z</time></trkpt><trkpt lat="43.414145" lon="13.20386333"><ele>258.0</ele><time>2022-03-17T14:10:49.290Z</time></trkpt><trkpt lat="43.41415833" lon="13.20382667"><ele>259.0</ele><time>2022-03-17T14:10:50.309Z</time></trkpt><trkpt lat="43.41415833" lon="13.20382667"><ele>259.0</ele><time>2022-03-17T14:10:51.321Z</time></trkpt><trkpt lat="43.41417833" lon="13.20378833"><ele>259.0</ele><time>2022-03-17T14:10:52.288Z</time></trkpt><trkpt lat="43.41417833" lon="13.20378833"><ele>259.0</ele><time>2022-03-17T14:10:53.299Z</time></trkpt><trkpt lat="43.414195" lon="13.20375167"><ele>260.0</ele><time>2022-03-17T14:10:54.297Z</time></trkpt><trkpt lat="43.414195" lon="13.20375167"><ele>260.0</ele><time>2022-03-17T14:10:55.316Z</time></trkpt><trkpt lat="43.41421" lon="13.20371667"><ele>261.0</ele><time>2022-03-17T14:10:56.322Z</time></trkpt><trkpt lat="43.41421" lon="13.20371667"><ele>261.0</ele><time>2022-03-17T14:10:57.291Z</time></trkpt><trkpt lat="43.41422333" lon="13.20367667"><ele>261.0</ele><time>2022-03-17T14:10:58.315Z</time></trkpt><trkpt lat="43.41422833" lon="13.20365667"><ele>261.0</ele><time>2022-03-17T14:10:59.294Z</time></trkpt><trkpt lat="43.41422833" lon="13.20365667"><ele>261.0</ele><time>2022-03-17T14:11:00.302Z</time></trkpt><trkpt lat="43.414235" lon="13.20361"><ele>262.0</ele><time>2022-03-17T14:11:01.307Z</time></trkpt><trkpt lat="43.41424167" lon="13.20359"><ele>262.0</ele><time>2022-03-17T14:11:02.297Z</time></trkpt><trkpt lat="43.41424167" lon="13.20359"><ele>262.0</ele><time>2022-03-17T14:11:03.286Z</time></trkpt><trkpt lat="43.41425833" lon="13.20355"><ele>262.0</ele><time>2022-03-17T14:11:04.296Z</time></trkpt><trkpt lat="43.41426333" lon="13.20353"><ele>262.0</ele><time>2022-03-17T14:11:05.284Z</time></trkpt><trkpt lat="43.41426333" lon="13.20353"><ele>262.0</ele><time>2022-03-17T14:11:06.299Z</time></trkpt><trkpt lat="43.41427333" lon="13.20349"><ele>262.0</ele><time>2022-03-17T14:11:07.321Z</time></trkpt><trkpt lat="43.41427833" lon="13.20346833"><ele>262.0</ele><time>2022-03-17T14:11:08.304Z</time></trkpt><trkpt lat="43.41427833" lon="13.20346833"><ele>262.0</ele><time>2022-03-17T14:11:09.311Z</time></trkpt><trkpt lat="43.41428833" lon="13.20342833"><ele>263.0</ele><time>2022-03-17T14:11:10.295Z</time></trkpt><trkpt lat="43.41428833" lon="13.20342833"><ele>263.0</ele><time>2022-03-17T14:11:11.315Z</time></trkpt><trkpt lat="43.4143" lon="13.20338833"><ele>263.0</ele><time>2022-03-17T14:11:12.290Z</time></trkpt><trkpt lat="43.414305" lon="13.20336667"><ele>263.0</ele><time>2022-03-17T14:11:13.313Z</time></trkpt><trkpt lat="43.41431167" lon="13.203345"><ele>263.0</ele><time>2022-03-17T14:11:14.322Z</time></trkpt><trkpt lat="43.41431167" lon="13.203345"><ele>263.0</ele><time>2022-03-17T14:11:15.288Z</time></trkpt><trkpt lat="43.41432833" lon="13.20331167"><ele>263.0</ele><time>2022-03-17T14:11:16.301Z</time></trkpt><trkpt lat="43.41433333" lon="13.20329333"><ele>264.0</ele><time>2022-03-17T14:11:17.327Z</time></trkpt><trkpt lat="43.41433833" lon="13.20327333"><ele>264.0</ele><time>2022-03-17T14:11:18.322Z</time></trkpt><trkpt lat="43.41433833" lon="13.20327333"><ele>264.0</ele><time>2022-03-17T14:11:19.288Z</time></trkpt><trkpt lat="43.41435333" lon="13.20323833"><ele>264.0</ele><time>2022-03-17T14:11:20.298Z</time></trkpt><trkpt lat="43.41435833" lon="13.20322"><ele>265.0</ele><time>2022-03-17T14:11:21.304Z</time></trkpt><trkpt lat="43.41436" lon="13.2032"><ele>265.0</ele><time>2022-03-17T14:11:22.307Z</time></trkpt><trkpt lat="43.41436" lon="13.2032"><ele>265.0</ele><time>2022-03-17T14:11:23.301Z</time></trkpt><trkpt lat="43.41436333" lon="13.20316167"><ele>265.0</ele><time>2022-03-17T14:11:24.293Z</time></trkpt><trkpt lat="43.41436667" lon="13.20314333"><ele>266.0</ele><time>2022-03-17T14:11:25.285Z</time></trkpt><trkpt lat="43.41436667" lon="13.20314333"><ele>266.0</ele><time>2022-03-17T14:11:26.307Z</time></trkpt><trkpt lat="43.41437667" lon="13.203105"><ele>266.0</ele><time>2022-03-17T14:11:27.313Z</time></trkpt><trkpt lat="43.41437667" lon="13.203105"><ele>266.0</ele><time>2022-03-17T14:11:28.318Z</time></trkpt><trkpt lat="43.414385" lon="13.20306833"><ele>266.0</ele><time>2022-03-17T14:11:29.293Z</time></trkpt><trkpt lat="43.41438833" lon="13.20304833"><ele>267.0</ele><time>2022-03-17T14:11:30.285Z</time></trkpt><trkpt lat="43.41438833" lon="13.20304833"><ele>267.0</ele><time>2022-03-17T14:11:31.291Z</time></trkpt><trkpt lat="43.41438833" lon="13.20301"><ele>267.0</ele><time>2022-03-17T14:11:32.304Z</time></trkpt><trkpt lat="43.41438833" lon="13.20301"><ele>267.0</ele><time>2022-03-17T14:11:33.311Z</time></trkpt><trkpt lat="43.41438833" lon="13.20297"><ele>267.0</ele><time>2022-03-17T14:11:34.289Z</time></trkpt><trkpt lat="43.41438833" lon="13.20297"><ele>267.0</ele><time>2022-03-17T14:11:35.298Z</time></trkpt><trkpt lat="43.414395" lon="13.20293"><ele>268.0</ele><time>2022-03-17T14:11:36.322Z</time></trkpt><trkpt lat="43.414395" lon="13.20293"><ele>268.0</ele><time>2022-03-17T14:11:37.288Z</time></trkpt><trkpt lat="43.41439833" lon="13.20288667"><ele>268.0</ele><time>2022-03-17T14:11:38.301Z</time></trkpt><trkpt lat="43.41439833" lon="13.20288667"><ele>268.0</ele><time>2022-03-17T14:11:39.311Z</time></trkpt><trkpt lat="43.41440167" lon="13.20284333"><ele>268.0</ele><time>2022-03-17T14:11:40.291Z</time></trkpt><trkpt lat="43.41440167" lon="13.20284333"><ele>268.0</ele><time>2022-03-17T14:11:41.297Z</time></trkpt><trkpt lat="43.41440667" lon="13.20280167"><ele>269.0</ele><time>2022-03-17T14:11:42.326Z</time></trkpt><trkpt lat="43.41440667" lon="13.20280167"><ele>269.0</ele><time>2022-03-17T14:11:43.291Z</time></trkpt><trkpt lat="43.41440833" lon="13.20276333"><ele>269.0</ele><time>2022-03-17T14:11:44.307Z</time></trkpt><trkpt lat="43.41440833" lon="13.202745"><ele>269.0</ele><time>2022-03-17T14:11:45.294Z</time></trkpt><trkpt lat="43.41440833" lon="13.202745"><ele>269.0</ele><time>2022-03-17T14:11:46.302Z</time></trkpt><trkpt lat="43.41441333" lon="13.20270333"><ele>270.0</ele><time>2022-03-17T14:11:47.300Z</time></trkpt><trkpt lat="43.41441333" lon="13.20270333"><ele>270.0</ele><time>2022-03-17T14:11:48.312Z</time></trkpt><trkpt lat="43.41441167" lon="13.20266333"><ele>270.0</ele><time>2022-03-17T14:11:49.285Z</time></trkpt><trkpt lat="43.41441" lon="13.20264"><ele>270.0</ele><time>2022-03-17T14:11:50.302Z</time></trkpt><trkpt lat="43.41441" lon="13.20264"><ele>270.0</ele><time>2022-03-17T14:11:51.308Z</time></trkpt><trkpt lat="43.41441167" lon="13.20259667"><ele>270.0</ele><time>2022-03-17T14:11:52.302Z</time></trkpt><trkpt lat="43.41441167" lon="13.20259667"><ele>270.0</ele><time>2022-03-17T14:11:53.307Z</time></trkpt><trkpt lat="43.41441" lon="13.202555"><ele>271.0</ele><time>2022-03-17T14:11:54.287Z</time></trkpt><trkpt lat="43.41441" lon="13.20253667"><ele>271.0</ele><time>2022-03-17T14:11:55.312Z</time></trkpt><trkpt lat="43.41440833" lon="13.202515"><ele>271.0</ele><time>2022-03-17T14:11:56.319Z</time></trkpt><trkpt lat="43.41440833" lon="13.202515"><ele>271.0</ele><time>2022-03-17T14:11:57.288Z</time></trkpt><trkpt lat="43.41441167" lon="13.20246667"><ele>271.0</ele><time>2022-03-17T14:11:58.306Z</time></trkpt><trkpt lat="43.41441167" lon="13.202445"><ele>272.0</ele><time>2022-03-17T14:11:59.284Z</time></trkpt><trkpt lat="43.41441167" lon="13.202445"><ele>272.0</ele><time>2022-03-17T14:12:00.295Z</time></trkpt><trkpt lat="43.41441667" lon="13.20240167"><ele>272.0</ele><time>2022-03-17T14:12:01.299Z</time></trkpt><trkpt lat="43.41441833" lon="13.20237833"><ele>272.0</ele><time>2022-03-17T14:12:02.297Z</time></trkpt><trkpt lat="43.41441833" lon="13.20237833"><ele>272.0</ele><time>2022-03-17T14:12:03.299Z</time></trkpt><trkpt lat="43.41441667" lon="13.202325"><ele>272.0</ele><time>2022-03-17T14:12:04.313Z</time></trkpt><trkpt lat="43.41441667" lon="13.202325"><ele>272.0</ele><time>2022-03-17T14:12:05.319Z</time></trkpt><trkpt lat="43.41441833" lon="13.20228333"><ele>273.0</ele><time>2022-03-17T14:12:06.300Z</time></trkpt><trkpt lat="43.41442167" lon="13.20226167"><ele>273.0</ele><time>2022-03-17T14:12:07.320Z</time></trkpt><trkpt lat="43.41442167" lon="13.20226167"><ele>273.0</ele><time>2022-03-17T14:12:08.291Z</time></trkpt><trkpt lat="43.41442333" lon="13.20222333"><ele>273.0</ele><time>2022-03-17T14:12:09.308Z</time></trkpt><trkpt lat="43.41442333" lon="13.20222333"><ele>273.0</ele><time>2022-03-17T14:12:10.315Z</time></trkpt><trkpt lat="43.414425" lon="13.20217833"><ele>274.0</ele><time>2022-03-17T14:12:11.295Z</time></trkpt><trkpt lat="43.414425" lon="13.20215667"><ele>274.0</ele><time>2022-03-17T14:12:12.294Z</time></trkpt><trkpt lat="43.414425" lon="13.20215667"><ele>274.0</ele><time>2022-03-17T14:12:13.318Z</time></trkpt><trkpt lat="43.41442333" lon="13.20211333"><ele>274.0</ele><time>2022-03-17T14:12:14.295Z</time></trkpt><trkpt lat="43.41442333" lon="13.20211333"><ele>274.0</ele><time>2022-03-17T14:12:15.303Z</time></trkpt><trkpt lat="43.41442167" lon="13.20206833"><ele>275.0</ele><time>2022-03-17T14:12:16.314Z</time></trkpt><trkpt lat="43.41442167" lon="13.20206833"><ele>275.0</ele><time>2022-03-17T14:12:17.296Z</time></trkpt><trkpt lat="43.414415" lon="13.20202667"><ele>275.0</ele><time>2022-03-17T14:12:18.293Z</time></trkpt><trkpt lat="43.414415" lon="13.20202667"><ele>275.0</ele><time>2022-03-17T14:12:19.300Z</time></trkpt><trkpt lat="43.41441167" lon="13.20198333"><ele>275.0</ele><time>2022-03-17T14:12:20.326Z</time></trkpt><trkpt lat="43.41441167" lon="13.20198333"><ele>275.0</ele><time>2022-03-17T14:12:21.310Z</time></trkpt><trkpt lat="43.41441167" lon="13.20193833"><ele>275.0</ele><time>2022-03-17T14:12:22.289Z</time></trkpt><trkpt lat="43.41441167" lon="13.20193833"><ele>275.0</ele><time>2022-03-17T14:12:23.303Z</time></trkpt><trkpt lat="43.41440667" lon="13.201895"><ele>276.0</ele><time>2022-03-17T14:12:24.297Z</time></trkpt><trkpt lat="43.41440667" lon="13.201895"><ele>276.0</ele><time>2022-03-17T14:12:25.304Z</time></trkpt><trkpt lat="43.41440167" lon="13.201855"><ele>276.0</ele><time>2022-03-17T14:12:26.316Z</time></trkpt><trkpt lat="43.41440167" lon="13.201855"><ele>276.0</ele><time>2022-03-17T14:12:27.305Z</time></trkpt><trkpt lat="43.41439667" lon="13.20180667"><ele>276.0</ele><time>2022-03-17T14:12:28.322Z</time></trkpt><trkpt lat="43.41439167" lon="13.20178333"><ele>276.0</ele><time>2022-03-17T14:12:29.324Z</time></trkpt><trkpt lat="43.41439167" lon="13.20178333"><ele>276.0</ele><time>2022-03-17T14:12:30.299Z</time></trkpt><trkpt lat="43.41438333" lon="13.20173667"><ele>276.0</ele><time>2022-03-17T14:12:31.321Z</time></trkpt><trkpt lat="43.41437833" lon="13.20171333"><ele>276.0</ele><time>2022-03-17T14:12:32.289Z</time></trkpt><trkpt lat="43.41437833" lon="13.20171333"><ele>276.0</ele><time>2022-03-17T14:12:33.296Z</time></trkpt><trkpt lat="43.41437" lon="13.20165833"><ele>276.0</ele><time>2022-03-17T14:12:34.305Z</time></trkpt><trkpt lat="43.41437" lon="13.20165833"><ele>276.0</ele><time>2022-03-17T14:12:35.311Z</time></trkpt><trkpt lat="43.41435833" lon="13.20160167"><ele>277.0</ele><time>2022-03-17T14:12:36.285Z</time></trkpt><trkpt lat="43.41435333" lon="13.20157667"><ele>277.0</ele><time>2022-03-17T14:12:37.294Z</time></trkpt><trkpt lat="43.41435333" lon="13.20157667"><ele>277.0</ele><time>2022-03-17T14:12:38.300Z</time></trkpt><trkpt lat="43.41434333" lon="13.20153667"><ele>277.0</ele><time>2022-03-17T14:12:39.288Z</time></trkpt><trkpt lat="43.41434333" lon="13.20153667"><ele>277.0</ele><time>2022-03-17T14:12:40.301Z</time></trkpt><trkpt lat="43.41431833" lon="13.20149667"><ele>277.0</ele><time>2022-03-17T14:12:41.321Z</time></trkpt><trkpt lat="43.41431833" lon="13.20149667"><ele>277.0</ele><time>2022-03-17T14:12:42.297Z</time></trkpt><trkpt lat="43.41429167" lon="13.20145833"><ele>277.0</ele><time>2022-03-17T14:12:43.323Z</time></trkpt><trkpt lat="43.41428333" lon="13.201435"><ele>277.0</ele><time>2022-03-17T14:12:44.299Z</time></trkpt><trkpt lat="43.41428333" lon="13.201435"><ele>277.0</ele><time>2022-03-17T14:12:45.310Z</time></trkpt><trkpt lat="43.41426333" lon="13.20139"><ele>277.0</ele><time>2022-03-17T14:12:46.325Z</time></trkpt><trkpt lat="43.41426333" lon="13.20139"><ele>277.0</ele><time>2022-03-17T14:12:47.294Z</time></trkpt><trkpt lat="43.41424333" lon="13.201345"><ele>277.0</ele><time>2022-03-17T14:12:48.308Z</time></trkpt><trkpt lat="43.41424333" lon="13.201345"><ele>277.0</ele><time>2022-03-17T14:12:49.317Z</time></trkpt><trkpt lat="43.41422167" lon="13.20130167"><ele>277.0</ele><time>2022-03-17T14:12:50.301Z</time></trkpt><trkpt lat="43.41422167" lon="13.20130167"><ele>277.0</ele><time>2022-03-17T14:12:51.311Z</time></trkpt><trkpt lat="43.41419833" lon="13.20125833"><ele>278.0</ele><time>2022-03-17T14:12:52.321Z</time></trkpt><trkpt lat="43.41419833" lon="13.20125833"><ele>278.0</ele><time>2022-03-17T14:12:53.288Z</time></trkpt><trkpt lat="43.41417333" lon="13.201215"><ele>278.0</ele><time>2022-03-17T14:12:54.297Z</time></trkpt><trkpt lat="43.41417333" lon="13.201215"><ele>278.0</ele><time>2022-03-17T14:12:55.303Z</time></trkpt><trkpt lat="43.41414667" lon="13.20117167"><ele>279.0</ele><time>2022-03-17T14:12:56.318Z</time></trkpt><trkpt lat="43.41414667" lon="13.20117167"><ele>279.0</ele><time>2022-03-17T14:12:57.297Z</time></trkpt><trkpt lat="43.41412" lon="13.20112667"><ele>279.0</ele><time>2022-03-17T14:12:58.322Z</time></trkpt><trkpt lat="43.41412" lon="13.20112667"><ele>279.0</ele><time>2022-03-17T14:12:59.291Z</time></trkpt><trkpt lat="43.414095" lon="13.20108"><ele>279.0</ele><time>2022-03-17T14:13:00.306Z</time></trkpt><trkpt lat="43.41408333" lon="13.20106"><ele>279.0</ele><time>2022-03-17T14:13:01.287Z</time></trkpt><trkpt lat="43.41407167" lon="13.20103833"><ele>280.0</ele><time>2022-03-17T14:13:02.301Z</time></trkpt><trkpt lat="43.41405833" lon="13.201015"><ele>280.0</ele><time>2022-03-17T14:13:03.319Z</time></trkpt><trkpt lat="43.41405833" lon="13.201015"><ele>280.0</ele><time>2022-03-17T14:13:04.288Z</time></trkpt><trkpt lat="43.41402833" lon="13.20097167"><ele>280.0</ele><time>2022-03-17T14:13:05.303Z</time></trkpt><trkpt lat="43.414015" lon="13.20095167"><ele>280.0</ele><time>2022-03-17T14:13:06.288Z</time></trkpt><trkpt lat="43.414" lon="13.20093"><ele>280.0</ele><time>2022-03-17T14:13:07.299Z</time></trkpt><trkpt lat="43.41398333" lon="13.20091167"><ele>280.0</ele><time>2022-03-17T14:13:08.314Z</time></trkpt><trkpt lat="43.41398333" lon="13.20091167"><ele>280.0</ele><time>2022-03-17T14:13:09.288Z</time></trkpt><trkpt lat="43.41395167" lon="13.20087"><ele>281.0</ele><time>2022-03-17T14:13:10.304Z</time></trkpt><trkpt lat="43.41395167" lon="13.20087"><ele>281.0</ele><time>2022-03-17T14:13:11.316Z</time></trkpt><trkpt lat="43.41392333" lon="13.20083167"><ele>281.0</ele><time>2022-03-17T14:13:12.298Z</time></trkpt><trkpt lat="43.41392333" lon="13.20083167"><ele>281.0</ele><time>2022-03-17T14:13:13.307Z</time></trkpt><trkpt lat="43.41388833" lon="13.200805"><ele>281.0</ele><time>2022-03-17T14:13:14.323Z</time></trkpt><trkpt lat="43.41388833" lon="13.200805"><ele>281.0</ele><time>2022-03-17T14:13:15.293Z</time></trkpt><trkpt lat="43.41385833" lon="13.20076833"><ele>282.0</ele><time>2022-03-17T14:13:16.309Z</time></trkpt><trkpt lat="43.41385833" lon="13.20076833"><ele>282.0</ele><time>2022-03-17T14:13:17.289Z</time></trkpt><trkpt lat="43.41383333" lon="13.20073"><ele>282.0</ele><time>2022-03-17T14:13:18.299Z</time></trkpt><trkpt lat="43.41383333" lon="13.20073"><ele>282.0</ele><time>2022-03-17T14:13:19.315Z</time></trkpt><trkpt lat="43.41380333" lon="13.20068833"><ele>282.0</ele><time>2022-03-17T14:13:20.284Z</time></trkpt><trkpt lat="43.41380333" lon="13.20068833"><ele>282.0</ele><time>2022-03-17T14:13:21.292Z</time></trkpt><trkpt lat="43.413765" lon="13.20066167"><ele>283.0</ele><time>2022-03-17T14:13:22.300Z</time></trkpt><trkpt lat="43.413765" lon="13.20066167"><ele>283.0</ele><time>2022-03-17T14:13:23.306Z</time></trkpt><trkpt lat="43.41372833" lon="13.20061667"><ele>283.0</ele><time>2022-03-17T14:13:24.319Z</time></trkpt><trkpt lat="43.41372833" lon="13.20061667"><ele>283.0</ele><time>2022-03-17T14:13:25.297Z</time></trkpt><trkpt lat="43.41369833" lon="13.20057667"><ele>283.0</ele><time>2022-03-17T14:13:26.311Z</time></trkpt><trkpt lat="43.41369833" lon="13.20057667"><ele>283.0</ele><time>2022-03-17T14:13:27.309Z</time></trkpt><trkpt lat="43.41366333" lon="13.20053833"><ele>283.0</ele><time>2022-03-17T14:13:28.287Z</time></trkpt><trkpt lat="43.41364833" lon="13.200515"><ele>283.0</ele><time>2022-03-17T14:13:29.303Z</time></trkpt><trkpt lat="43.41364833" lon="13.200515"><ele>283.0</ele><time>2022-03-17T14:13:30.310Z</time></trkpt><trkpt lat="43.41361667" lon="13.20047333"><ele>284.0</ele><time>2022-03-17T14:13:31.291Z</time></trkpt><trkpt lat="43.41361667" lon="13.20047333"><ele>284.0</ele><time>2022-03-17T14:13:32.301Z</time></trkpt><trkpt lat="43.41358667" lon="13.20043167"><ele>284.0</ele><time>2022-03-17T14:13:33.311Z</time></trkpt><trkpt lat="43.41357167" lon="13.20041167"><ele>284.0</ele><time>2022-03-17T14:13:34.305Z</time></trkpt><trkpt lat="43.41357167" lon="13.20041167"><ele>284.0</ele><time>2022-03-17T14:13:35.323Z</time></trkpt><trkpt lat="43.41354167" lon="13.20036833"><ele>284.0</ele><time>2022-03-17T14:13:36.307Z</time></trkpt><trkpt lat="43.41354167" lon="13.20036833"><ele>284.0</ele><time>2022-03-17T14:13:37.314Z</time></trkpt><trkpt lat="43.41351333" lon="13.20032833"><ele>285.0</ele><time>2022-03-17T14:13:38.285Z</time></trkpt><trkpt lat="43.41351333" lon="13.20032833"><ele>285.0</ele><time>2022-03-17T14:13:39.296Z</time></trkpt><trkpt lat="43.41348167" lon="13.200285"><ele>285.0</ele><time>2022-03-17T14:13:40.321Z</time></trkpt><trkpt lat="43.41346667" lon="13.20026167"><ele>286.0</ele><time>2022-03-17T14:13:41.284Z</time></trkpt><trkpt lat="43.41346667" lon="13.20026167"><ele>286.0</ele><time>2022-03-17T14:13:42.291Z</time></trkpt><trkpt lat="43.41343167" lon="13.20022"><ele>286.0</ele><time>2022-03-17T14:13:43.317Z</time></trkpt><trkpt lat="43.41341167" lon="13.20020167"><ele>287.0</ele><time>2022-03-17T14:13:44.306Z</time></trkpt><trkpt lat="43.41341167" lon="13.20020167"><ele>287.0</ele><time>2022-03-17T14:13:45.318Z</time></trkpt><trkpt lat="43.41337833" lon="13.20016167"><ele>288.0</ele><time>2022-03-17T14:13:46.307Z</time></trkpt><trkpt lat="43.41336167" lon="13.200145"><ele>288.0</ele><time>2022-03-17T14:13:47.294Z</time></trkpt><trkpt lat="43.41334667" lon="13.20012833"><ele>288.0</ele><time>2022-03-17T14:13:48.317Z</time></trkpt><trkpt lat="43.41334667" lon="13.20012833"><ele>288.0</ele><time>2022-03-17T14:13:49.322Z</time></trkpt><trkpt lat="43.413315" lon="13.20009833"><ele>289.0</ele><time>2022-03-17T14:13:50.306Z</time></trkpt><trkpt lat="43.413315" lon="13.20009833"><ele>289.0</ele><time>2022-03-17T14:13:51.316Z</time></trkpt><trkpt lat="43.41328333" lon="13.20007"><ele>289.0</ele><time>2022-03-17T14:13:52.322Z</time></trkpt><trkpt lat="43.41328333" lon="13.20007"><ele>289.0</ele><time>2022-03-17T14:13:53.304Z</time></trkpt><trkpt lat="43.41326667" lon="13.20002"><ele>289.0</ele><time>2022-03-17T14:13:54.320Z</time></trkpt><trkpt lat="43.41326667" lon="13.20002"><ele>289.0</ele><time>2022-03-17T14:13:55.291Z</time></trkpt><trkpt lat="43.41323667" lon="13.19997667"><ele>288.0</ele><time>2022-03-17T14:13:56.315Z</time></trkpt><trkpt lat="43.41322333" lon="13.19995667"><ele>288.0</ele><time>2022-03-17T14:13:57.302Z</time></trkpt><trkpt lat="43.41322333" lon="13.19995667"><ele>288.0</ele><time>2022-03-17T14:13:58.310Z</time></trkpt><trkpt lat="43.41319833" lon="13.19991833"><ele>288.0</ele><time>2022-03-17T14:13:59.307Z</time></trkpt><trkpt lat="43.413185" lon="13.19989667"><ele>288.0</ele><time>2022-03-17T14:14:00.290Z</time></trkpt><trkpt lat="43.413185" lon="13.19989667"><ele>288.0</ele><time>2022-03-17T14:14:01.298Z</time></trkpt><trkpt lat="43.41315833" lon="13.199865"><ele>289.0</ele><time>2022-03-17T14:14:02.312Z</time></trkpt><trkpt lat="43.41315833" lon="13.199865"><ele>289.0</ele><time>2022-03-17T14:14:03.319Z</time></trkpt><trkpt lat="43.41313667" lon="13.19982833"><ele>289.0</ele><time>2022-03-17T14:14:04.292Z</time></trkpt><trkpt lat="43.41313667" lon="13.19982833"><ele>289.0</ele><time>2022-03-17T14:14:05.307Z</time></trkpt><trkpt lat="43.41311" lon="13.19979833"><ele>290.0</ele><time>2022-03-17T14:14:06.322Z</time></trkpt><trkpt lat="43.41311" lon="13.19979833"><ele>290.0</ele><time>2022-03-17T14:14:07.294Z</time></trkpt><trkpt lat="43.41308167" lon="13.19977167"><ele>290.0</ele><time>2022-03-17T14:14:08.303Z</time></trkpt><trkpt lat="43.41308167" lon="13.19977167"><ele>290.0</ele><time>2022-03-17T14:14:09.309Z</time></trkpt><trkpt lat="43.41305167" lon="13.19973833"><ele>290.0</ele><time>2022-03-17T14:14:10.299Z</time></trkpt><trkpt lat="43.41305167" lon="13.19973833"><ele>290.0</ele><time>2022-03-17T14:14:11.305Z</time></trkpt><trkpt lat="43.41302167" lon="13.19970167"><ele>291.0</ele><time>2022-03-17T14:14:12.328Z</time></trkpt><trkpt lat="43.413005" lon="13.199685"><ele>291.0</ele><time>2022-03-17T14:14:13.295Z</time></trkpt><trkpt lat="43.413005" lon="13.199685"><ele>291.0</ele><time>2022-03-17T14:14:14.306Z</time></trkpt><trkpt lat="43.41297333" lon="13.19964833"><ele>291.0</ele><time>2022-03-17T14:14:15.323Z</time></trkpt><trkpt lat="43.41297333" lon="13.19964833"><ele>291.0</ele><time>2022-03-17T14:14:16.298Z</time></trkpt><trkpt lat="43.41294333" lon="13.19961"><ele>292.0</ele><time>2022-03-17T14:14:17.312Z</time></trkpt><trkpt lat="43.412925" lon="13.19959"><ele>292.0</ele><time>2022-03-17T14:14:18.323Z</time></trkpt><trkpt lat="43.412925" lon="13.19959"><ele>292.0</ele><time>2022-03-17T14:14:19.294Z</time></trkpt><trkpt lat="43.412885" lon="13.19955"><ele>293.0</ele><time>2022-03-17T14:14:20.309Z</time></trkpt><trkpt lat="43.412885" lon="13.19955"><ele>293.0</ele><time>2022-03-17T14:14:21.288Z</time></trkpt><trkpt lat="43.412845" lon="13.19951"><ele>293.0</ele><time>2022-03-17T14:14:22.312Z</time></trkpt><trkpt lat="43.412845" lon="13.19951"><ele>293.0</ele><time>2022-03-17T14:14:23.285Z</time></trkpt><trkpt lat="43.41281167" lon="13.19946333"><ele>293.0</ele><time>2022-03-17T14:14:24.299Z</time></trkpt><trkpt lat="43.41281167" lon="13.19946333"><ele>293.0</ele><time>2022-03-17T14:14:25.320Z</time></trkpt><trkpt lat="43.41277667" lon="13.199415"><ele>293.0</ele><time>2022-03-17T14:14:26.318Z</time></trkpt><trkpt lat="43.41277667" lon="13.199415"><ele>293.0</ele><time>2022-03-17T14:14:27.310Z</time></trkpt><trkpt lat="43.41274" lon="13.199365"><ele>294.0</ele><time>2022-03-17T14:14:28.288Z</time></trkpt><trkpt lat="43.41272333" lon="13.19933833"><ele>294.0</ele><time>2022-03-17T14:14:29.308Z</time></trkpt><trkpt lat="43.41272333" lon="13.19933833"><ele>294.0</ele><time>2022-03-17T14:14:30.293Z</time></trkpt><trkpt lat="43.41268333" lon="13.19928833"><ele>294.0</ele><time>2022-03-17T14:14:31.287Z</time></trkpt><trkpt lat="43.41266333" lon="13.199265"><ele>294.0</ele><time>2022-03-17T14:14:32.309Z</time></trkpt><trkpt lat="43.41266333" lon="13.199265"><ele>294.0</ele><time>2022-03-17T14:14:33.320Z</time></trkpt><trkpt lat="43.412625" lon="13.19920833"><ele>294.0</ele><time>2022-03-17T14:14:34.301Z</time></trkpt><trkpt lat="43.412625" lon="13.19920833"><ele>294.0</ele><time>2022-03-17T14:14:35.306Z</time></trkpt><trkpt lat="43.41258833" lon="13.19914667"><ele>294.0</ele><time>2022-03-17T14:14:36.287Z</time></trkpt><trkpt lat="43.41257" lon="13.19911667"><ele>294.0</ele><time>2022-03-17T14:14:37.323Z</time></trkpt><trkpt lat="43.41255167" lon="13.199085"><ele>294.0</ele><time>2022-03-17T14:14:38.298Z</time></trkpt><trkpt lat="43.41255167" lon="13.199085"><ele>294.0</ele><time>2022-03-17T14:14:39.304Z</time></trkpt><trkpt lat="43.41251833" lon="13.19901667"><ele>295.0</ele><time>2022-03-17T14:14:40.302Z</time></trkpt><trkpt lat="43.412505" lon="13.19897667"><ele>295.0</ele><time>2022-03-17T14:14:41.313Z</time></trkpt><trkpt lat="43.412505" lon="13.19897667"><ele>295.0</ele><time>2022-03-17T14:14:42.291Z</time></trkpt><trkpt lat="43.41247667" lon="13.19889667"><ele>294.0</ele><time>2022-03-17T14:14:43.299Z</time></trkpt><trkpt lat="43.41246333" lon="13.19886"><ele>294.0</ele><time>2022-03-17T14:14:44.316Z</time></trkpt><trkpt lat="43.41246333" lon="13.19886"><ele>294.0</ele><time>2022-03-17T14:14:45.322Z</time></trkpt><trkpt lat="43.41244833" lon="13.19877667"><ele>295.0</ele><time>2022-03-17T14:14:46.302Z</time></trkpt><trkpt lat="43.41244833" lon="13.19877667"><ele>295.0</ele><time>2022-03-17T14:14:47.315Z</time></trkpt><trkpt lat="43.41243833" lon="13.19868167"><ele>294.0</ele><time>2022-03-17T14:14:48.289Z</time></trkpt><trkpt lat="43.41243833" lon="13.19868167"><ele>294.0</ele><time>2022-03-17T14:14:49.296Z</time></trkpt><trkpt lat="43.41243333" lon="13.19859167"><ele>294.0</ele><time>2022-03-17T14:14:50.307Z</time></trkpt><trkpt lat="43.41243167" lon="13.19855"><ele>295.0</ele><time>2022-03-17T14:14:51.303Z</time></trkpt><trkpt lat="43.41243167" lon="13.19855"><ele>295.0</ele><time>2022-03-17T14:14:52.309Z</time></trkpt><trkpt lat="43.41243" lon="13.19846167"><ele>295.0</ele><time>2022-03-17T14:14:53.327Z</time></trkpt><trkpt lat="43.41243" lon="13.19842"><ele>295.0</ele><time>2022-03-17T14:14:54.286Z</time></trkpt><trkpt lat="43.41243" lon="13.19842"><ele>295.0</ele><time>2022-03-17T14:14:55.288Z</time></trkpt><trkpt lat="43.41243333" lon="13.198335"><ele>296.0</ele><time>2022-03-17T14:14:56.323Z</time></trkpt><trkpt lat="43.41243333" lon="13.19829167"><ele>296.0</ele><time>2022-03-17T14:14:57.294Z</time></trkpt><trkpt lat="43.41243333" lon="13.19829167"><ele>296.0</ele><time>2022-03-17T14:14:58.299Z</time></trkpt><trkpt lat="43.41243333" lon="13.198215"><ele>296.0</ele><time>2022-03-17T14:14:59.287Z</time></trkpt><trkpt lat="43.41243167" lon="13.19817667"><ele>297.0</ele><time>2022-03-17T14:15:00.286Z</time></trkpt><trkpt lat="43.41243167" lon="13.19817667"><ele>297.0</ele><time>2022-03-17T14:15:01.298Z</time></trkpt><trkpt lat="43.41243" lon="13.19810167"><ele>297.0</ele><time>2022-03-17T14:15:02.327Z</time></trkpt><trkpt lat="43.41243" lon="13.19810167"><ele>297.0</ele><time>2022-03-17T14:15:03.306Z</time></trkpt><trkpt lat="43.41242667" lon="13.19803"><ele>297.0</ele><time>2022-03-17T14:15:04.293Z</time></trkpt><trkpt lat="43.41242667" lon="13.19803"><ele>297.0</ele><time>2022-03-17T14:15:05.301Z</time></trkpt><trkpt lat="43.41242667" lon="13.19795333"><ele>297.0</ele><time>2022-03-17T14:15:06.317Z</time></trkpt><trkpt lat="43.41242667" lon="13.19795333"><ele>297.0</ele><time>2022-03-17T14:15:07.291Z</time></trkpt><trkpt lat="43.41242833" lon="13.19787333"><ele>298.0</ele><time>2022-03-17T14:15:08.301Z</time></trkpt><trkpt lat="43.41242833" lon="13.19787333"><ele>298.0</ele><time>2022-03-17T14:15:09.309Z</time></trkpt><trkpt lat="43.41243667" lon="13.197795"><ele>299.0</ele><time>2022-03-17T14:15:10.287Z</time></trkpt><trkpt lat="43.41243667" lon="13.197755"><ele>299.0</ele><time>2022-03-17T14:15:11.297Z</time></trkpt><trkpt lat="43.41243667" lon="13.197755"><ele>299.0</ele><time>2022-03-17T14:15:12.307Z</time></trkpt><trkpt lat="43.41244167" lon="13.197685"><ele>299.0</ele><time>2022-03-17T14:15:13.284Z</time></trkpt><trkpt lat="43.41244167" lon="13.197685"><ele>299.0</ele><time>2022-03-17T14:15:14.296Z</time></trkpt><trkpt lat="43.41244333" lon="13.197615"><ele>300.0</ele><time>2022-03-17T14:15:15.320Z</time></trkpt><trkpt lat="43.41244333" lon="13.197615"><ele>300.0</ele><time>2022-03-17T14:15:16.292Z</time></trkpt><trkpt lat="43.41244667" lon="13.19753333"><ele>300.0</ele><time>2022-03-17T14:15:17.309Z</time></trkpt><trkpt lat="43.41244833" lon="13.19749333"><ele>301.0</ele><time>2022-03-17T14:15:18.317Z</time></trkpt><trkpt lat="43.41244833" lon="13.19749333"><ele>301.0</ele><time>2022-03-17T14:15:19.292Z</time></trkpt><trkpt lat="43.41245333" lon="13.19742333"><ele>302.0</ele><time>2022-03-17T14:15:20.305Z</time></trkpt><trkpt lat="43.41245333" lon="13.19742333"><ele>302.0</ele><time>2022-03-17T14:15:21.318Z</time></trkpt><trkpt lat="43.41245333" lon="13.19734667"><ele>303.0</ele><time>2022-03-17T14:15:22.287Z</time></trkpt><trkpt lat="43.41245167" lon="13.197305"><ele>303.0</ele><time>2022-03-17T14:15:23.300Z</time></trkpt><trkpt lat="43.41245167" lon="13.197305"><ele>303.0</ele><time>2022-03-17T14:15:24.307Z</time></trkpt><trkpt lat="43.41244667" lon="13.19723333"><ele>303.0</ele><time>2022-03-17T14:15:25.284Z</time></trkpt><trkpt lat="43.41245" lon="13.197195"><ele>303.0</ele><time>2022-03-17T14:15:26.298Z</time></trkpt><trkpt lat="43.41245" lon="13.197195"><ele>303.0</ele><time>2022-03-17T14:15:27.291Z</time></trkpt><trkpt lat="43.41246" lon="13.19712"><ele>304.0</ele><time>2022-03-17T14:15:28.306Z</time></trkpt><trkpt lat="43.41246" lon="13.19712"><ele>304.0</ele><time>2022-03-17T14:15:29.288Z</time></trkpt><trkpt lat="43.41247167" lon="13.19703833"><ele>304.0</ele><time>2022-03-17T14:15:30.308Z</time></trkpt><trkpt lat="43.41247167" lon="13.19703833"><ele>304.0</ele><time>2022-03-17T14:15:31.316Z</time></trkpt><trkpt lat="43.41248333" lon="13.19696167"><ele>304.0</ele><time>2022-03-17T14:15:32.299Z</time></trkpt><trkpt lat="43.41248333" lon="13.19696167"><ele>304.0</ele><time>2022-03-17T14:15:33.308Z</time></trkpt><trkpt lat="43.41248333" lon="13.196885"><ele>304.0</ele><time>2022-03-17T14:15:34.294Z</time></trkpt><trkpt lat="43.41248333" lon="13.196885"><ele>304.0</ele><time>2022-03-17T14:15:35.305Z</time></trkpt><trkpt lat="43.41247667" lon="13.19681167"><ele>305.0</ele><time>2022-03-17T14:15:36.323Z</time></trkpt><trkpt lat="43.41247667" lon="13.19681167"><ele>305.0</ele><time>2022-03-17T14:15:37.290Z</time></trkpt><trkpt lat="43.41247167" lon="13.19673167"><ele>305.0</ele><time>2022-03-17T14:15:38.315Z</time></trkpt><trkpt lat="43.41247167" lon="13.19673167"><ele>305.0</ele><time>2022-03-17T14:15:39.295Z</time></trkpt><trkpt lat="43.41247" lon="13.196655"><ele>305.0</ele><time>2022-03-17T14:15:40.311Z</time></trkpt><trkpt lat="43.41247333" lon="13.19661667"><ele>306.0</ele><time>2022-03-17T14:15:41.313Z</time></trkpt><trkpt lat="43.41247667" lon="13.19657667"><ele>306.0</ele><time>2022-03-17T14:15:42.285Z</time></trkpt><trkpt lat="43.41247667" lon="13.19657667"><ele>306.0</ele><time>2022-03-17T14:15:43.293Z</time></trkpt><trkpt lat="43.41247833" lon="13.1965"><ele>306.0</ele><time>2022-03-17T14:15:44.319Z</time></trkpt><trkpt lat="43.41247833" lon="13.1965"><ele>306.0</ele><time>2022-03-17T14:15:45.290Z</time></trkpt><trkpt lat="43.41248167" lon="13.19641667"><ele>306.0</ele><time>2022-03-17T14:15:46.293Z</time></trkpt><trkpt lat="43.41248167" lon="13.19637667"><ele>306.0</ele><time>2022-03-17T14:15:47.317Z</time></trkpt><trkpt lat="43.41248167" lon="13.19637667"><ele>306.0</ele><time>2022-03-17T14:15:48.287Z</time></trkpt><trkpt lat="43.412485" lon="13.196295"><ele>306.0</ele><time>2022-03-17T14:15:49.296Z</time></trkpt><trkpt lat="43.41248667" lon="13.19625667"><ele>307.0</ele><time>2022-03-17T14:15:50.324Z</time></trkpt><trkpt lat="43.41248667" lon="13.19625667"><ele>307.0</ele><time>2022-03-17T14:15:51.289Z</time></trkpt><trkpt lat="43.41248833" lon="13.19618"><ele>307.0</ele><time>2022-03-17T14:15:52.303Z</time></trkpt><trkpt lat="43.41248333" lon="13.19614"><ele>307.0</ele><time>2022-03-17T14:15:53.315Z</time></trkpt><trkpt lat="43.41248333" lon="13.19614"><ele>307.0</ele><time>2022-03-17T14:15:54.284Z</time></trkpt><trkpt lat="43.41248833" lon="13.19606333"><ele>308.0</ele><time>2022-03-17T14:15:55.318Z</time></trkpt><trkpt lat="43.41249167" lon="13.196025"><ele>308.0</ele><time>2022-03-17T14:15:56.293Z</time></trkpt><trkpt lat="43.41249167" lon="13.196025"><ele>308.0</ele><time>2022-03-17T14:15:57.298Z</time></trkpt><trkpt lat="43.412495" lon="13.19594833"><ele>308.0</ele><time>2022-03-17T14:15:58.309Z</time></trkpt><trkpt lat="43.41249667" lon="13.19591"><ele>308.0</ele><time>2022-03-17T14:15:59.290Z</time></trkpt><trkpt lat="43.41249667" lon="13.19591"><ele>308.0</ele><time>2022-03-17T14:16:00.299Z</time></trkpt><trkpt lat="43.412495" lon="13.19583167"><ele>307.0</ele><time>2022-03-17T14:16:01.287Z</time></trkpt><trkpt lat="43.412495" lon="13.19583167"><ele>307.0</ele><time>2022-03-17T14:16:02.293Z</time></trkpt><trkpt lat="43.41249167" lon="13.195755"><ele>306.0</ele><time>2022-03-17T14:16:03.311Z</time></trkpt><trkpt lat="43.41249" lon="13.19572"><ele>306.0</ele><time>2022-03-17T14:16:04.288Z</time></trkpt><trkpt lat="43.41249" lon="13.19572"><ele>306.0</ele><time>2022-03-17T14:16:05.295Z</time></trkpt><trkpt lat="43.41249167" lon="13.19564833"><ele>306.0</ele><time>2022-03-17T14:16:06.301Z</time></trkpt><trkpt lat="43.41249167" lon="13.19564833"><ele>306.0</ele><time>2022-03-17T14:16:07.307Z</time></trkpt><trkpt lat="43.41249667" lon="13.19557333"><ele>307.0</ele><time>2022-03-17T14:16:08.286Z</time></trkpt><trkpt lat="43.41249667" lon="13.19557333"><ele>307.0</ele><time>2022-03-17T14:16:09.298Z</time></trkpt><trkpt lat="43.41249833" lon="13.19549667"><ele>308.0</ele><time>2022-03-17T14:16:10.312Z</time></trkpt><trkpt lat="43.41250167" lon="13.19545667"><ele>308.0</ele><time>2022-03-17T14:16:11.308Z</time></trkpt><trkpt lat="43.41250167" lon="13.19545667"><ele>308.0</ele><time>2022-03-17T14:16:12.313Z</time></trkpt><trkpt lat="43.41250333" lon="13.19537667"><ele>308.0</ele><time>2022-03-17T14:16:13.284Z</time></trkpt><trkpt lat="43.412505" lon="13.19533667"><ele>309.0</ele><time>2022-03-17T14:16:14.298Z</time></trkpt><trkpt lat="43.412505" lon="13.19533667"><ele>309.0</ele><time>2022-03-17T14:16:15.305Z</time></trkpt><trkpt lat="43.41251" lon="13.19525833"><ele>309.0</ele><time>2022-03-17T14:16:16.318Z</time></trkpt><trkpt lat="43.41251" lon="13.19525833"><ele>309.0</ele><time>2022-03-17T14:16:17.295Z</time></trkpt><trkpt lat="43.412515" lon="13.19518333"><ele>310.0</ele><time>2022-03-17T14:16:18.303Z</time></trkpt><trkpt lat="43.41251333" lon="13.19514333"><ele>309.0</ele><time>2022-03-17T14:16:19.323Z</time></trkpt><trkpt lat="43.41251333" lon="13.19514333"><ele>309.0</ele><time>2022-03-17T14:16:20.293Z</time></trkpt><trkpt lat="43.41251667" lon="13.19506667"><ele>310.0</ele><time>2022-03-17T14:16:21.308Z</time></trkpt><trkpt lat="43.41251667" lon="13.19506667"><ele>310.0</ele><time>2022-03-17T14:16:22.289Z</time></trkpt><trkpt lat="43.41252167" lon="13.194985"><ele>310.0</ele><time>2022-03-17T14:16:23.310Z</time></trkpt><trkpt lat="43.41252167" lon="13.194985"><ele>310.0</ele><time>2022-03-17T14:16:24.288Z</time></trkpt><trkpt lat="43.41252167" lon="13.19490667"><ele>310.0</ele><time>2022-03-17T14:16:25.306Z</time></trkpt><trkpt lat="43.41252333" lon="13.19486833"><ele>311.0</ele><time>2022-03-17T14:16:26.301Z</time></trkpt><trkpt lat="43.41252333" lon="13.19486833"><ele>311.0</ele><time>2022-03-17T14:16:27.303Z</time></trkpt><trkpt lat="43.41252167" lon="13.19479167"><ele>312.0</ele><time>2022-03-17T14:16:28.310Z</time></trkpt><trkpt lat="43.41252" lon="13.19475333"><ele>312.0</ele><time>2022-03-17T14:16:29.297Z</time></trkpt><trkpt lat="43.41252" lon="13.19475333"><ele>312.0</ele><time>2022-03-17T14:16:30.306Z</time></trkpt><trkpt lat="43.41251667" lon="13.19467333"><ele>312.0</ele><time>2022-03-17T14:16:31.323Z</time></trkpt><trkpt lat="43.41251667" lon="13.19463333"><ele>312.0</ele><time>2022-03-17T14:16:32.297Z</time></trkpt><trkpt lat="43.41251667" lon="13.19463333"><ele>312.0</ele><time>2022-03-17T14:16:33.302Z</time></trkpt><trkpt lat="43.41252" lon="13.19455333"><ele>312.0</ele><time>2022-03-17T14:16:34.289Z</time></trkpt><trkpt lat="43.41252" lon="13.19455333"><ele>312.0</ele><time>2022-03-17T14:16:35.296Z</time></trkpt><trkpt lat="43.41252167" lon="13.19447167"><ele>313.0</ele><time>2022-03-17T14:16:36.318Z</time></trkpt><trkpt lat="43.41252167" lon="13.19447167"><ele>313.0</ele><time>2022-03-17T14:16:37.303Z</time></trkpt><trkpt lat="43.412515" lon="13.19439333"><ele>312.0</ele><time>2022-03-17T14:16:38.315Z</time></trkpt><trkpt lat="43.412515" lon="13.19439333"><ele>312.0</ele><time>2022-03-17T14:16:39.320Z</time></trkpt><trkpt lat="43.41251" lon="13.194315"><ele>313.0</ele><time>2022-03-17T14:16:40.315Z</time></trkpt><trkpt lat="43.41251" lon="13.194315"><ele>313.0</ele><time>2022-03-17T14:16:41.298Z</time></trkpt><trkpt lat="43.41250667" lon="13.19423667"><ele>313.0</ele><time>2022-03-17T14:16:42.321Z</time></trkpt><trkpt lat="43.41250667" lon="13.19423667"><ele>313.0</ele><time>2022-03-17T14:16:43.289Z</time></trkpt><trkpt lat="43.41250333" lon="13.19415"><ele>314.0</ele><time>2022-03-17T14:16:44.304Z</time></trkpt><trkpt lat="43.41250333" lon="13.19415"><ele>314.0</ele><time>2022-03-17T14:16:45.321Z</time></trkpt><trkpt lat="43.41249167" lon="13.194065"><ele>314.0</ele><time>2022-03-17T14:16:46.288Z</time></trkpt><trkpt lat="43.41249167" lon="13.194065"><ele>314.0</ele><time>2022-03-17T14:16:47.300Z</time></trkpt><trkpt lat="43.41247167" lon="13.19398167"><ele>314.0</ele><time>2022-03-17T14:16:48.322Z</time></trkpt><trkpt lat="43.41246167" lon="13.19394"><ele>314.0</ele><time>2022-03-17T14:16:49.313Z</time></trkpt><trkpt lat="43.41246167" lon="13.19394"><ele>314.0</ele><time>2022-03-17T14:16:50.322Z</time></trkpt><trkpt lat="43.41244333" lon="13.193855"><ele>314.0</ele><time>2022-03-17T14:16:51.317Z</time></trkpt><trkpt lat="43.41244333" lon="13.193855"><ele>314.0</ele><time>2022-03-17T14:16:52.291Z</time></trkpt><trkpt lat="43.41242667" lon="13.19377167"><ele>315.0</ele><time>2022-03-17T14:16:53.318Z</time></trkpt><trkpt lat="43.41242667" lon="13.19377167"><ele>315.0</ele><time>2022-03-17T14:16:54.296Z</time></trkpt><trkpt lat="43.41240667" lon="13.19369"><ele>316.0</ele><time>2022-03-17T14:16:55.309Z</time></trkpt><trkpt lat="43.412395" lon="13.19365"><ele>316.0</ele><time>2022-03-17T14:16:56.322Z</time></trkpt><trkpt lat="43.412395" lon="13.19365"><ele>316.0</ele><time>2022-03-17T14:16:57.290Z</time></trkpt><trkpt lat="43.412375" lon="13.19357333"><ele>317.0</ele><time>2022-03-17T14:16:58.307Z</time></trkpt><trkpt lat="43.41236333" lon="13.19353667"><ele>317.0</ele><time>2022-03-17T14:16:59.314Z</time></trkpt><trkpt lat="43.41235167" lon="13.1935"><ele>317.0</ele><time>2022-03-17T14:17:00.323Z</time></trkpt><trkpt lat="43.41235167" lon="13.1935"><ele>317.0</ele><time>2022-03-17T14:17:01.292Z</time></trkpt><trkpt lat="43.41233" lon="13.19342667"><ele>317.0</ele><time>2022-03-17T14:17:02.311Z</time></trkpt><trkpt lat="43.41233" lon="13.19342667"><ele>317.0</ele><time>2022-03-17T14:17:03.318Z</time></trkpt><trkpt lat="43.41231" lon="13.19335"><ele>318.0</ele><time>2022-03-17T14:17:04.309Z</time></trkpt><trkpt lat="43.41229833" lon="13.19331167"><ele>318.0</ele><time>2022-03-17T14:17:05.289Z</time></trkpt><trkpt lat="43.41229833" lon="13.19331167"><ele>318.0</ele><time>2022-03-17T14:17:06.295Z</time></trkpt><trkpt lat="43.41227833" lon="13.193235"><ele>319.0</ele><time>2022-03-17T14:17:07.313Z</time></trkpt><trkpt lat="43.41227833" lon="13.193235"><ele>319.0</ele><time>2022-03-17T14:17:08.288Z</time></trkpt><trkpt lat="43.41225833" lon="13.19315833"><ele>319.0</ele><time>2022-03-17T14:17:09.285Z</time></trkpt><trkpt lat="43.41225833" lon="13.19315833"><ele>319.0</ele><time>2022-03-17T14:17:10.293Z</time></trkpt><trkpt lat="43.41223833" lon="13.19308"><ele>320.0</ele><time>2022-03-17T14:17:11.328Z</time></trkpt><trkpt lat="43.41223833" lon="13.19308"><ele>320.0</ele><time>2022-03-17T14:17:12.297Z</time></trkpt><trkpt lat="43.41221833" lon="13.19300333"><ele>320.0</ele><time>2022-03-17T14:17:13.315Z</time></trkpt><trkpt lat="43.41220833" lon="13.19296667"><ele>320.0</ele><time>2022-03-17T14:17:14.294Z</time></trkpt><trkpt lat="43.41220833" lon="13.19296667"><ele>320.0</ele><time>2022-03-17T14:17:15.302Z</time></trkpt><trkpt lat="43.41218667" lon="13.19289333"><ele>321.0</ele><time>2022-03-17T14:17:16.319Z</time></trkpt><trkpt lat="43.412175" lon="13.192855"><ele>321.0</ele><time>2022-03-17T14:17:17.312Z</time></trkpt><trkpt lat="43.412175" lon="13.192855"><ele>321.0</ele><time>2022-03-17T14:17:18.289Z</time></trkpt><trkpt lat="43.412155" lon="13.19277167"><ele>322.0</ele><time>2022-03-17T14:17:19.284Z</time></trkpt><trkpt lat="43.412155" lon="13.19277167"><ele>322.0</ele><time>2022-03-17T14:17:20.292Z</time></trkpt><trkpt lat="43.41213333" lon="13.19269667"><ele>322.0</ele><time>2022-03-17T14:17:21.320Z</time></trkpt><trkpt lat="43.41212333" lon="13.19265833"><ele>323.0</ele><time>2022-03-17T14:17:22.317Z</time></trkpt><trkpt lat="43.41212333" lon="13.19265833"><ele>323.0</ele><time>2022-03-17T14:17:23.289Z</time></trkpt><trkpt lat="43.41210167" lon="13.19258"><ele>323.0</ele><time>2022-03-17T14:17:24.315Z</time></trkpt><trkpt lat="43.41209167" lon="13.19254167"><ele>323.0</ele><time>2022-03-17T14:17:25.294Z</time></trkpt><trkpt lat="43.41209167" lon="13.19254167"><ele>323.0</ele><time>2022-03-17T14:17:26.286Z</time></trkpt><trkpt lat="43.41207167" lon="13.19246333"><ele>324.0</ele><time>2022-03-17T14:17:27.334Z</time></trkpt><trkpt lat="43.41207167" lon="13.19246333"><ele>324.0</ele><time>2022-03-17T14:17:28.312Z</time></trkpt><trkpt lat="43.412055" lon="13.19238333"><ele>324.0</ele><time>2022-03-17T14:17:29.292Z</time></trkpt><trkpt lat="43.412055" lon="13.19238333"><ele>324.0</ele><time>2022-03-17T14:17:30.306Z</time></trkpt><trkpt lat="43.41203667" lon="13.192305"><ele>325.0</ele><time>2022-03-17T14:17:31.317Z</time></trkpt><trkpt lat="43.41203667" lon="13.192305"><ele>325.0</ele><time>2022-03-17T14:17:32.322Z</time></trkpt><trkpt lat="43.412015" lon="13.192235"><ele>325.0</ele><time>2022-03-17T14:17:33.289Z</time></trkpt><trkpt lat="43.41200333" lon="13.19220333"><ele>326.0</ele><time>2022-03-17T14:17:34.288Z</time></trkpt><trkpt lat="43.41200333" lon="13.19220333"><ele>326.0</ele><time>2022-03-17T14:17:35.297Z</time></trkpt><trkpt lat="43.41198167" lon="13.19213333"><ele>326.0</ele><time>2022-03-17T14:17:36.314Z</time></trkpt><trkpt lat="43.41197333" lon="13.192095"><ele>327.0</ele><time>2022-03-17T14:17:37.285Z</time></trkpt><trkpt lat="43.41197333" lon="13.192095"><ele>327.0</ele><time>2022-03-17T14:17:38.301Z</time></trkpt><trkpt lat="43.41195333" lon="13.192015"><ele>327.0</ele><time>2022-03-17T14:17:39.318Z</time></trkpt><trkpt lat="43.41195333" lon="13.192015"><ele>327.0</ele><time>2022-03-17T14:17:40.289Z</time></trkpt><trkpt lat="43.41193333" lon="13.19193333"><ele>327.0</ele><time>2022-03-17T14:17:41.320Z</time></trkpt><trkpt lat="43.411925" lon="13.19189333"><ele>328.0</ele><time>2022-03-17T14:17:42.314Z</time></trkpt><trkpt lat="43.411925" lon="13.19189333"><ele>328.0</ele><time>2022-03-17T14:17:43.322Z</time></trkpt><trkpt lat="43.41190833" lon="13.19181667"><ele>328.0</ele><time>2022-03-17T14:17:44.303Z</time></trkpt><trkpt lat="43.41190833" lon="13.19181667"><ele>328.0</ele><time>2022-03-17T14:17:45.310Z</time></trkpt><trkpt lat="43.41188167" lon="13.19173667"><ele>328.0</ele><time>2022-03-17T14:17:46.301Z</time></trkpt><trkpt lat="43.41188167" lon="13.19173667"><ele>328.0</ele><time>2022-03-17T14:17:47.308Z</time></trkpt><trkpt lat="43.41186333" lon="13.19165833"><ele>328.0</ele><time>2022-03-17T14:17:48.321Z</time></trkpt><trkpt lat="43.411855" lon="13.19160667"><ele>328.0</ele><time>2022-03-17T14:17:49.306Z</time></trkpt><trkpt lat="43.411855" lon="13.19160667"><ele>328.0</ele><time>2022-03-17T14:17:50.314Z</time></trkpt><trkpt lat="43.41183833" lon="13.19152167"><ele>328.0</ele><time>2022-03-17T14:17:51.298Z</time></trkpt><trkpt lat="43.41183833" lon="13.19152167"><ele>328.0</ele><time>2022-03-17T14:17:52.308Z</time></trkpt><trkpt lat="43.411815" lon="13.19145"><ele>330.0</ele><time>2022-03-17T14:17:53.285Z</time></trkpt><trkpt lat="43.411815" lon="13.19145"><ele>330.0</ele><time>2022-03-17T14:17:54.298Z</time></trkpt><trkpt lat="43.41179" lon="13.19137167"><ele>330.0</ele><time>2022-03-17T14:17:55.317Z</time></trkpt><trkpt lat="43.41177833" lon="13.19133333"><ele>330.0</ele><time>2022-03-17T14:17:56.314Z</time></trkpt><trkpt lat="43.41177833" lon="13.19133333"><ele>330.0</ele><time>2022-03-17T14:17:57.319Z</time></trkpt><trkpt lat="43.41175667" lon="13.19125667"><ele>331.0</ele><time>2022-03-17T14:17:58.293Z</time></trkpt><trkpt lat="43.41175667" lon="13.19125667"><ele>331.0</ele><time>2022-03-17T14:17:59.299Z</time></trkpt><trkpt lat="43.41173833" lon="13.191175"><ele>332.0</ele><time>2022-03-17T14:18:00.308Z</time></trkpt><trkpt lat="43.41173833" lon="13.191175"><ele>332.0</ele><time>2022-03-17T14:18:01.316Z</time></trkpt><trkpt lat="43.41172" lon="13.19109333"><ele>332.0</ele><time>2022-03-17T14:18:02.288Z</time></trkpt><trkpt lat="43.41172" lon="13.19109333"><ele>332.0</ele><time>2022-03-17T14:18:03.302Z</time></trkpt><trkpt lat="43.41170333" lon="13.19100167"><ele>332.0</ele><time>2022-03-17T14:18:04.320Z</time></trkpt><trkpt lat="43.41169333" lon="13.19095667"><ele>333.0</ele><time>2022-03-17T14:18:05.300Z</time></trkpt><trkpt lat="43.411685" lon="13.19091"><ele>332.0</ele><time>2022-03-17T14:18:06.322Z</time></trkpt><trkpt lat="43.411685" lon="13.19091"><ele>332.0</ele><time>2022-03-17T14:18:07.292Z</time></trkpt><trkpt lat="43.41166833" lon="13.19081667"><ele>332.0</ele><time>2022-03-17T14:18:08.308Z</time></trkpt><trkpt lat="43.41166833" lon="13.19081667"><ele>332.0</ele><time>2022-03-17T14:18:09.314Z</time></trkpt><trkpt lat="43.41165167" lon="13.19072167"><ele>332.0</ele><time>2022-03-17T14:18:10.324Z</time></trkpt><trkpt lat="43.41165167" lon="13.19072167"><ele>332.0</ele><time>2022-03-17T14:18:11.298Z</time></trkpt><trkpt lat="43.41163833" lon="13.190625"><ele>332.0</ele><time>2022-03-17T14:18:12.323Z</time></trkpt><trkpt lat="43.41163833" lon="13.190625"><ele>332.0</ele><time>2022-03-17T14:18:13.289Z</time></trkpt><trkpt lat="43.411625" lon="13.19052667"><ele>333.0</ele><time>2022-03-17T14:18:14.302Z</time></trkpt><trkpt lat="43.411625" lon="13.19052667"><ele>333.0</ele><time>2022-03-17T14:18:15.309Z</time></trkpt><trkpt lat="43.41160833" lon="13.19043"><ele>333.0</ele><time>2022-03-17T14:18:16.289Z</time></trkpt><trkpt lat="43.41160833" lon="13.19043"><ele>333.0</ele><time>2022-03-17T14:18:17.298Z</time></trkpt><trkpt lat="43.41159" lon="13.19033167"><ele>333.0</ele><time>2022-03-17T14:18:18.315Z</time></trkpt><trkpt lat="43.41158333" lon="13.19027833"><ele>333.0</ele><time>2022-03-17T14:18:19.291Z</time></trkpt><trkpt lat="43.41158333" lon="13.19027833"><ele>333.0</ele><time>2022-03-17T14:18:20.296Z</time></trkpt><trkpt lat="43.41156667" lon="13.19016667"><ele>333.0</ele><time>2022-03-17T14:18:21.292Z</time></trkpt><trkpt lat="43.41156667" lon="13.19016667"><ele>333.0</ele><time>2022-03-17T14:18:22.299Z</time></trkpt><trkpt lat="43.411545" lon="13.19007"><ele>334.0</ele><time>2022-03-17T14:18:23.315Z</time></trkpt><trkpt lat="43.41153667" lon="13.19002"><ele>334.0</ele><time>2022-03-17T14:18:24.309Z</time></trkpt><trkpt lat="43.41153667" lon="13.19002"><ele>334.0</ele><time>2022-03-17T14:18:25.318Z</time></trkpt><trkpt lat="43.41151667" lon="13.189925"><ele>334.0</ele><time>2022-03-17T14:18:26.294Z</time></trkpt><trkpt lat="43.41151667" lon="13.189925"><ele>334.0</ele><time>2022-03-17T14:18:27.294Z</time></trkpt><trkpt lat="43.41150167" lon="13.18983"><ele>334.0</ele><time>2022-03-17T14:18:28.314Z</time></trkpt><trkpt lat="43.41150167" lon="13.18983"><ele>334.0</ele><time>2022-03-17T14:18:29.321Z</time></trkpt><trkpt lat="43.41149" lon="13.189735"><ele>334.0</ele><time>2022-03-17T14:18:30.296Z</time></trkpt><trkpt lat="43.41149" lon="13.189735"><ele>334.0</ele><time>2022-03-17T14:18:31.310Z</time></trkpt><trkpt lat="43.41147333" lon="13.18964333"><ele>334.0</ele><time>2022-03-17T14:18:32.287Z</time></trkpt><trkpt lat="43.41147333" lon="13.18964333"><ele>334.0</ele><time>2022-03-17T14:18:33.298Z</time></trkpt><trkpt lat="43.41146167" lon="13.18955167"><ele>334.0</ele><time>2022-03-17T14:18:34.310Z</time></trkpt><trkpt lat="43.41146167" lon="13.18955167"><ele>334.0</ele><time>2022-03-17T14:18:35.317Z</time></trkpt><trkpt lat="43.41144833" lon="13.18946167"><ele>335.0</ele><time>2022-03-17T14:18:36.296Z</time></trkpt><trkpt lat="43.41143833" lon="13.18941833"><ele>335.0</ele><time>2022-03-17T14:18:37.307Z</time></trkpt><trkpt lat="43.41143833" lon="13.18941833"><ele>335.0</ele><time>2022-03-17T14:18:38.285Z</time></trkpt><trkpt lat="43.41142167" lon="13.18934"><ele>335.0</ele><time>2022-03-17T14:18:39.298Z</time></trkpt><trkpt lat="43.41141667" lon="13.189305"><ele>335.0</ele><time>2022-03-17T14:18:40.317Z</time></trkpt><trkpt lat="43.41141667" lon="13.189305"><ele>335.0</ele><time>2022-03-17T14:18:41.292Z</time></trkpt><trkpt lat="43.411405" lon="13.18924833"><ele>335.0</ele><time>2022-03-17T14:18:42.308Z</time></trkpt><trkpt lat="43.411405" lon="13.18924833"><ele>335.0</ele><time>2022-03-17T14:18:43.299Z</time></trkpt><trkpt lat="43.4114" lon="13.18920667"><ele>335.0</ele><time>2022-03-17T14:18:44.293Z</time></trkpt><trkpt lat="43.4114" lon="13.18920667"><ele>335.0</ele><time>2022-03-17T14:18:45.300Z</time></trkpt><trkpt lat="43.4114" lon="13.18920333"><ele>335.0</ele><time>2022-03-17T14:18:46.297Z</time></trkpt><trkpt lat="43.4114" lon="13.18920333"><ele>335.0</ele><time>2022-03-17T14:18:47.300Z</time></trkpt><trkpt lat="43.41138" lon="13.18916667"><ele>335.0</ele><time>2022-03-17T14:18:48.303Z</time></trkpt><trkpt lat="43.41138" lon="13.18916667"><ele>335.0</ele><time>2022-03-17T14:18:49.321Z</time></trkpt><trkpt lat="43.41136667" lon="13.18913333"><ele>335.0</ele><time>2022-03-17T14:18:50.299Z</time></trkpt><trkpt lat="43.41136333" lon="13.18911833"><ele>335.0</ele><time>2022-03-17T14:18:51.305Z</time></trkpt><trkpt lat="43.41136" lon="13.18910667"><ele>335.0</ele><time>2022-03-17T14:18:52.294Z</time></trkpt><trkpt lat="43.41136" lon="13.18910667"><ele>335.0</ele><time>2022-03-17T14:18:53.305Z</time></trkpt><trkpt lat="43.41135" lon="13.18908333"><ele>335.0</ele><time>2022-03-17T14:18:54.287Z</time></trkpt><trkpt lat="43.41135" lon="13.18908333"><ele>335.0</ele><time>2022-03-17T14:18:55.297Z</time></trkpt><trkpt lat="43.41133833" lon="13.18903333"><ele>335.0</ele><time>2022-03-17T14:18:56.315Z</time></trkpt><trkpt lat="43.41133833" lon="13.18903333"><ele>335.0</ele><time>2022-03-17T14:18:57.323Z</time></trkpt><trkpt lat="43.41131" lon="13.18899667"><ele>335.0</ele><time>2022-03-17T14:18:58.294Z</time></trkpt><trkpt lat="43.41131" lon="13.18899667"><ele>335.0</ele><time>2022-03-17T14:18:59.308Z</time></trkpt><trkpt lat="43.41128" lon="13.189005"><ele>336.0</ele><time>2022-03-17T14:19:00.294Z</time></trkpt><trkpt lat="43.41127667" lon="13.18902"><ele>336.0</ele><time>2022-03-17T14:19:01.308Z</time></trkpt><trkpt lat="43.41127667" lon="13.18902"><ele>336.0</ele><time>2022-03-17T14:19:02.317Z</time></trkpt><trkpt lat="43.41128" lon="13.18902833"><ele>337.0</ele><time>2022-03-17T14:19:03.291Z</time></trkpt><trkpt lat="43.41128" lon="13.18902833"><ele>337.0</ele><time>2022-03-17T14:19:04.290Z</time></trkpt><trkpt lat="43.41128" lon="13.18902833"><ele>337.0</ele><time>2022-03-17T14:19:05.293Z</time></trkpt><trkpt lat="43.41132333" lon="13.189135"><ele>337.0</ele><time>2022-03-17T14:19:06.290Z</time></trkpt><trkpt lat="43.411335" lon="13.18916667"><ele>337.0</ele><time>2022-03-17T14:19:07.290Z</time></trkpt><trkpt lat="43.411335" lon="13.18916667"><ele>337.0</ele><time>2022-03-17T14:19:08.293Z</time></trkpt><trkpt lat="43.41136667" lon="13.18922333"><ele>338.0</ele><time>2022-03-17T14:19:09.298Z</time></trkpt><trkpt lat="43.41136667" lon="13.18922333"><ele>338.0</ele><time>2022-03-17T14:19:10.306Z</time></trkpt><trkpt lat="43.41140833" lon="13.18923667"><ele>339.0</ele><time>2022-03-17T14:19:11.289Z</time></trkpt><trkpt lat="43.41140833" lon="13.18923667"><ele>339.0</ele><time>2022-03-17T14:19:12.296Z</time></trkpt><trkpt lat="43.41143167" lon="13.189185"><ele>339.0</ele><time>2022-03-17T14:19:13.312Z</time></trkpt><trkpt lat="43.41143167" lon="13.189185"><ele>339.0</ele><time>2022-03-17T14:19:14.306Z</time></trkpt><trkpt lat="43.41142333" lon="13.18910333"><ele>338.0</ele><time>2022-03-17T14:19:15.307Z</time></trkpt><trkpt lat="43.41142333" lon="13.18910333"><ele>338.0</ele><time>2022-03-17T14:19:16.315Z</time></trkpt><trkpt lat="43.41141333" lon="13.18901"><ele>338.0</ele><time>2022-03-17T14:19:17.302Z</time></trkpt><trkpt lat="43.41141333" lon="13.18901"><ele>338.0</ele><time>2022-03-17T14:19:18.311Z</time></trkpt><trkpt lat="43.411435" lon="13.18899667"><ele>338.0</ele><time>2022-03-17T14:19:19.298Z</time></trkpt><trkpt lat="43.41144667" lon="13.18902167"><ele>338.0</ele><time>2022-03-17T14:19:20.291Z</time></trkpt><trkpt lat="43.41144667" lon="13.18902167"><ele>338.0</ele><time>2022-03-17T14:19:21.301Z</time></trkpt><trkpt lat="43.411455" lon="13.18909333"><ele>338.0</ele><time>2022-03-17T14:19:22.321Z</time></trkpt><trkpt lat="43.411455" lon="13.18909333"><ele>338.0</ele><time>2022-03-17T14:19:23.289Z</time></trkpt><trkpt lat="43.41143333" lon="13.18915"><ele>338.0</ele><time>2022-03-17T14:19:24.315Z</time></trkpt><trkpt lat="43.41142167" lon="13.18918"><ele>338.0</ele><time>2022-03-17T14:19:25.304Z</time></trkpt><trkpt lat="43.41142167" lon="13.18918"><ele>338.0</ele><time>2022-03-17T14:19:26.284Z</time></trkpt><trkpt lat="43.41141333" lon="13.18923667"><ele>340.0</ele><time>2022-03-17T14:19:27.285Z</time></trkpt><trkpt lat="43.41142" lon="13.18925667"><ele>340.0</ele><time>2022-03-17T14:19:28.285Z</time></trkpt><trkpt lat="43.41142" lon="13.18925667"><ele>340.0</ele><time>2022-03-17T14:19:29.293Z</time></trkpt><trkpt lat="43.41145167" lon="13.18927"><ele>341.0</ele><time>2022-03-17T14:19:30.317Z</time></trkpt><trkpt lat="43.41145167" lon="13.18927"><ele>341.0</ele><time>2022-03-17T14:19:31.285Z</time></trkpt><trkpt lat="43.41146833" lon="13.18924333"><ele>340.0</ele><time>2022-03-17T14:19:32.302Z</time></trkpt><trkpt lat="43.41146833" lon="13.18924333"><ele>340.0</ele><time>2022-03-17T14:19:33.313Z</time></trkpt><trkpt lat="43.41146833" lon="13.18921833"><ele>340.0</ele><time>2022-03-17T14:19:34.295Z</time></trkpt><trkpt lat="43.41146833" lon="13.18921833"><ele>340.0</ele><time>2022-03-17T14:19:35.288Z</time></trkpt><trkpt lat="43.41145333" lon="13.189165"><ele>340.0</ele><time>2022-03-17T14:19:36.289Z</time></trkpt><trkpt lat="43.41145333" lon="13.189165"><ele>340.0</ele><time>2022-03-17T14:19:37.301Z</time></trkpt><trkpt lat="43.411445" lon="13.18907167"><ele>340.0</ele><time>2022-03-17T14:19:38.290Z</time></trkpt><trkpt lat="43.411445" lon="13.18907167"><ele>340.0</ele><time>2022-03-17T14:19:39.285Z</time></trkpt><trkpt lat="43.411435" lon="13.188975"><ele>340.0</ele><time>2022-03-17T14:19:40.306Z</time></trkpt><trkpt lat="43.411425" lon="13.18893"><ele>340.0</ele><time>2022-03-17T14:19:41.284Z</time></trkpt><trkpt lat="43.411425" lon="13.18893"><ele>340.0</ele><time>2022-03-17T14:19:42.296Z</time></trkpt><trkpt lat="43.41139167" lon="13.18886"><ele>340.0</ele><time>2022-03-17T14:19:43.323Z</time></trkpt><trkpt lat="43.41137167" lon="13.18883333"><ele>340.0</ele><time>2022-03-17T14:19:44.302Z</time></trkpt><trkpt lat="43.41137167" lon="13.18883333"><ele>340.0</ele><time>2022-03-17T14:19:45.316Z</time></trkpt><trkpt lat="43.41133833" lon="13.18878167"><ele>340.0</ele><time>2022-03-17T14:19:46.306Z</time></trkpt><trkpt lat="43.41133833" lon="13.18878167"><ele>340.0</ele><time>2022-03-17T14:19:47.316Z</time></trkpt><trkpt lat="43.41132667" lon="13.18872"><ele>340.0</ele><time>2022-03-17T14:19:48.304Z</time></trkpt><trkpt lat="43.41133" lon="13.18869333"><ele>340.0</ele><time>2022-03-17T14:19:49.323Z</time></trkpt><trkpt lat="43.41133667" lon="13.18867333"><ele>341.0</ele><time>2022-03-17T14:19:50.299Z</time></trkpt><trkpt lat="43.41133667" lon="13.18867333"><ele>341.0</ele><time>2022-03-17T14:19:51.307Z</time></trkpt><trkpt lat="43.41135833" lon="13.18867167"><ele>341.0</ele><time>2022-03-17T14:19:52.287Z</time></trkpt><trkpt lat="43.41135833" lon="13.18867167"><ele>341.0</ele><time>2022-03-17T14:19:53.295Z</time></trkpt><trkpt lat="43.41136333" lon="13.18868"><ele>341.0</ele><time>2022-03-17T14:19:54.322Z</time></trkpt><trkpt lat="43.411365" lon="13.18867667"><ele>341.0</ele><time>2022-03-17T14:19:55.286Z</time></trkpt><trkpt lat="43.411365" lon="13.18867667"><ele>341.0</ele><time>2022-03-17T14:19:56.316Z</time></trkpt><trkpt lat="43.41128833" lon="13.18877667"><ele>348.0</ele><time>2022-03-17T14:19:57.313Z</time></trkpt><trkpt lat="43.41128833" lon="13.18877667"><ele>348.0</ele><time>2022-03-17T14:19:58.304Z</time></trkpt><trkpt lat="43.411325" lon="13.18885667"><ele>347.0</ele><time>2022-03-17T14:19:59.287Z</time></trkpt><trkpt lat="43.411325" lon="13.18885667"><ele>347.0</ele><time>2022-03-17T14:20:00.295Z</time></trkpt><trkpt lat="43.41136" lon="13.18893667"><ele>347.0</ele><time>2022-03-17T14:20:01.317Z</time></trkpt><trkpt lat="43.41136" lon="13.18893667"><ele>347.0</ele><time>2022-03-17T14:20:02.287Z</time></trkpt><trkpt lat="43.411395" lon="13.18901333"><ele>347.0</ele><time>2022-03-17T14:20:03.302Z</time></trkpt><trkpt lat="43.411395" lon="13.18901333"><ele>347.0</ele><time>2022-03-17T14:20:04.310Z</time></trkpt><trkpt lat="43.41142667" lon="13.189085"><ele>346.0</ele><time>2022-03-17T14:20:05.290Z</time></trkpt><trkpt lat="43.41143833" lon="13.189125"><ele>346.0</ele><time>2022-03-17T14:20:06.317Z</time></trkpt><trkpt lat="43.41144833" lon="13.18916333"><ele>347.0</ele><time>2022-03-17T14:20:07.297Z</time></trkpt><trkpt lat="43.41144833" lon="13.18916333"><ele>347.0</ele><time>2022-03-17T14:20:08.307Z</time></trkpt><trkpt lat="43.41145167" lon="13.18924833"><ele>349.0</ele><time>2022-03-17T14:20:09.289Z</time></trkpt><trkpt lat="43.41143833" lon="13.18927333"><ele>349.0</ele><time>2022-03-17T14:20:10.313Z</time></trkpt><trkpt lat="43.41142" lon="13.18926667"><ele>350.0</ele><time>2022-03-17T14:20:11.291Z</time></trkpt><trkpt lat="43.41142" lon="13.18926667"><ele>350.0</ele><time>2022-03-17T14:20:12.298Z</time></trkpt><trkpt lat="43.41138167" lon="13.18920667"><ele>350.0</ele><time>2022-03-17T14:20:13.288Z</time></trkpt><trkpt lat="43.41136333" lon="13.189165"><ele>349.0</ele><time>2022-03-17T14:20:14.309Z</time></trkpt><trkpt lat="43.41136333" lon="13.189165"><ele>349.0</ele><time>2022-03-17T14:20:15.317Z</time></trkpt><trkpt lat="43.41133" lon="13.18907667"><ele>349.0</ele><time>2022-03-17T14:20:16.300Z</time></trkpt><trkpt lat="43.41133" lon="13.18907667"><ele>349.0</ele><time>2022-03-17T14:20:17.307Z</time></trkpt><trkpt lat="43.41129833" lon="13.188985"><ele>348.0</ele><time>2022-03-17T14:20:18.319Z</time></trkpt><trkpt lat="43.41128" lon="13.18894"><ele>348.0</ele><time>2022-03-17T14:20:19.305Z</time></trkpt><trkpt lat="43.41128" lon="13.18894"><ele>348.0</ele><time>2022-03-17T14:20:20.312Z</time></trkpt><trkpt lat="43.41124833" lon="13.18885167"><ele>347.0</ele><time>2022-03-17T14:20:21.290Z</time></trkpt><trkpt lat="43.41123" lon="13.18881"><ele>347.0</ele><time>2022-03-17T14:20:22.305Z</time></trkpt><trkpt lat="43.41123" lon="13.18881"><ele>347.0</ele><time>2022-03-17T14:20:23.315Z</time></trkpt><trkpt lat="43.41119333" lon="13.18872333"><ele>347.0</ele><time>2022-03-17T14:20:24.300Z</time></trkpt><trkpt lat="43.41119333" lon="13.18872333"><ele>347.0</ele><time>2022-03-17T14:20:25.308Z</time></trkpt><trkpt lat="43.41115667" lon="13.18863667"><ele>347.0</ele><time>2022-03-17T14:20:26.317Z</time></trkpt><trkpt lat="43.41115667" lon="13.18863667"><ele>347.0</ele><time>2022-03-17T14:20:27.310Z</time></trkpt><trkpt lat="43.411125" lon="13.18854667"><ele>346.0</ele><time>2022-03-17T14:20:28.309Z</time></trkpt><trkpt lat="43.411125" lon="13.18854667"><ele>346.0</ele><time>2022-03-17T14:20:29.318Z</time></trkpt><trkpt lat="43.41109" lon="13.18845"><ele>346.0</ele><time>2022-03-17T14:20:30.293Z</time></trkpt><trkpt lat="43.41107333" lon="13.1884"><ele>345.0</ele><time>2022-03-17T14:20:31.319Z</time></trkpt><trkpt lat="43.41107333" lon="13.1884"><ele>345.0</ele><time>2022-03-17T14:20:32.287Z</time></trkpt><trkpt lat="43.41103667" lon="13.1883"><ele>345.0</ele><time>2022-03-17T14:20:33.308Z</time></trkpt><trkpt lat="43.41101667" lon="13.18825167"><ele>345.0</ele><time>2022-03-17T14:20:34.318Z</time></trkpt><trkpt lat="43.41101667" lon="13.18825167"><ele>345.0</ele><time>2022-03-17T14:20:35.286Z</time></trkpt><trkpt lat="43.41097833" lon="13.18815"><ele>345.0</ele><time>2022-03-17T14:20:36.309Z</time></trkpt><trkpt lat="43.41096" lon="13.18809667"><ele>345.0</ele><time>2022-03-17T14:20:37.317Z</time></trkpt><trkpt lat="43.41096" lon="13.18809667"><ele>345.0</ele><time>2022-03-17T14:20:38.284Z</time></trkpt><trkpt lat="43.41092" lon="13.18798667"><ele>344.0</ele><time>2022-03-17T14:20:39.297Z</time></trkpt><trkpt lat="43.41089667" lon="13.18793167"><ele>344.0</ele><time>2022-03-17T14:20:40.316Z</time></trkpt><trkpt lat="43.41089667" lon="13.18793167"><ele>344.0</ele><time>2022-03-17T14:20:41.323Z</time></trkpt><trkpt lat="43.41085333" lon="13.18782"><ele>344.0</ele><time>2022-03-17T14:20:42.302Z</time></trkpt><trkpt lat="43.41083" lon="13.187765"><ele>344.0</ele><time>2022-03-17T14:20:43.319Z</time></trkpt><trkpt lat="43.41083" lon="13.187765"><ele>344.0</ele><time>2022-03-17T14:20:44.286Z</time></trkpt><trkpt lat="43.41078333" lon="13.18765667"><ele>343.0</ele><time>2022-03-17T14:20:45.311Z</time></trkpt><trkpt lat="43.41078333" lon="13.18765667"><ele>343.0</ele><time>2022-03-17T14:20:46.319Z</time></trkpt><trkpt lat="43.41073167" lon="13.187555"><ele>343.0</ele><time>2022-03-17T14:20:47.312Z</time></trkpt><trkpt lat="43.41070167" lon="13.18750833"><ele>343.0</ele><time>2022-03-17T14:20:48.295Z</time></trkpt><trkpt lat="43.41070167" lon="13.18750833"><ele>343.0</ele><time>2022-03-17T14:20:49.304Z</time></trkpt><trkpt lat="43.41063833" lon="13.18742833"><ele>343.0</ele><time>2022-03-17T14:20:50.291Z</time></trkpt><trkpt lat="43.41060333" lon="13.187395"><ele>343.0</ele><time>2022-03-17T14:20:51.312Z</time></trkpt><trkpt lat="43.41060333" lon="13.187395"><ele>343.0</ele><time>2022-03-17T14:20:52.319Z</time></trkpt><trkpt lat="43.41052667" lon="13.18735"><ele>343.0</ele><time>2022-03-17T14:20:53.302Z</time></trkpt><trkpt lat="43.41048833" lon="13.18732833"><ele>342.0</ele><time>2022-03-17T14:20:54.295Z</time></trkpt><trkpt lat="43.41048833" lon="13.18732833"><ele>342.0</ele><time>2022-03-17T14:20:55.306Z</time></trkpt><trkpt lat="43.41041" lon="13.18729167"><ele>342.0</ele><time>2022-03-17T14:20:56.288Z</time></trkpt><trkpt lat="43.41037" lon="13.18728167"><ele>342.0</ele><time>2022-03-17T14:20:57.302Z</time></trkpt><trkpt lat="43.41037" lon="13.18728167"><ele>342.0</ele><time>2022-03-17T14:20:58.309Z</time></trkpt><trkpt lat="43.41028667" lon="13.18725"><ele>342.0</ele><time>2022-03-17T14:20:59.289Z</time></trkpt><trkpt lat="43.410245" lon="13.18722667"><ele>342.0</ele><time>2022-03-17T14:21:00.311Z</time></trkpt><trkpt lat="43.410245" lon="13.18722667"><ele>342.0</ele><time>2022-03-17T14:21:01.318Z</time></trkpt><trkpt lat="43.41015833" lon="13.18718833"><ele>341.0</ele><time>2022-03-17T14:21:02.302Z</time></trkpt><trkpt lat="43.41011333" lon="13.18717167"><ele>341.0</ele><time>2022-03-17T14:21:03.313Z</time></trkpt><trkpt lat="43.41011333" lon="13.18717167"><ele>341.0</ele><time>2022-03-17T14:21:04.319Z</time></trkpt><trkpt lat="43.41002833" lon="13.18712333"><ele>341.0</ele><time>2022-03-17T14:21:05.301Z</time></trkpt><trkpt lat="43.40998167" lon="13.18709833"><ele>341.0</ele><time>2022-03-17T14:21:06.284Z</time></trkpt><trkpt lat="43.40998167" lon="13.18709833"><ele>341.0</ele><time>2022-03-17T14:21:07.291Z</time></trkpt><trkpt lat="43.40989167" lon="13.18704"><ele>341.0</ele><time>2022-03-17T14:21:08.311Z</time></trkpt><trkpt lat="43.40989167" lon="13.18704"><ele>341.0</ele><time>2022-03-17T14:21:09.317Z</time></trkpt><trkpt lat="43.40980833" lon="13.18697667"><ele>341.0</ele><time>2022-03-17T14:21:10.302Z</time></trkpt><trkpt lat="43.40980833" lon="13.18697667"><ele>341.0</ele><time>2022-03-17T14:21:11.310Z</time></trkpt><trkpt lat="43.40972167" lon="13.18692"><ele>340.0</ele><time>2022-03-17T14:21:12.290Z</time></trkpt><trkpt lat="43.409675" lon="13.18690167"><ele>340.0</ele><time>2022-03-17T14:21:13.314Z</time></trkpt><trkpt lat="43.409675" lon="13.18690167"><ele>340.0</ele><time>2022-03-17T14:21:14.320Z</time></trkpt><trkpt lat="43.40957667" lon="13.18689"><ele>341.0</ele><time>2022-03-17T14:21:15.292Z</time></trkpt><trkpt lat="43.40957667" lon="13.18689"><ele>341.0</ele><time>2022-03-17T14:21:16.307Z</time></trkpt><trkpt lat="43.409475" lon="13.18688833"><ele>341.0</ele><time>2022-03-17T14:21:17.290Z</time></trkpt><trkpt lat="43.409425" lon="13.18689167"><ele>340.0</ele><time>2022-03-17T14:21:18.306Z</time></trkpt><trkpt lat="43.409425" lon="13.18689167"><ele>340.0</ele><time>2022-03-17T14:21:19.313Z</time></trkpt><trkpt lat="43.40933333" lon="13.18689833"><ele>341.0</ele><time>2022-03-17T14:21:20.287Z</time></trkpt><trkpt lat="43.40933333" lon="13.18689833"><ele>341.0</ele><time>2022-03-17T14:21:21.296Z</time></trkpt><trkpt lat="43.40924" lon="13.186905"><ele>341.0</ele><time>2022-03-17T14:21:22.311Z</time></trkpt><trkpt lat="43.40924" lon="13.186905"><ele>341.0</ele><time>2022-03-17T14:21:23.318Z</time></trkpt><trkpt lat="43.40914833" lon="13.18690667"><ele>341.0</ele><time>2022-03-17T14:21:24.311Z</time></trkpt><trkpt lat="43.40914833" lon="13.18690667"><ele>341.0</ele><time>2022-03-17T14:21:25.318Z</time></trkpt><trkpt lat="43.40905833" lon="13.186905"><ele>341.0</ele><time>2022-03-17T14:21:26.284Z</time></trkpt><trkpt lat="43.40905833" lon="13.186905"><ele>341.0</ele><time>2022-03-17T14:21:27.286Z</time></trkpt><trkpt lat="43.40896667" lon="13.18690833"><ele>341.0</ele><time>2022-03-17T14:21:28.305Z</time></trkpt><trkpt lat="43.40892333" lon="13.18691"><ele>342.0</ele><time>2022-03-17T14:21:29.318Z</time></trkpt><trkpt lat="43.40892333" lon="13.18691"><ele>342.0</ele><time>2022-03-17T14:21:30.285Z</time></trkpt><trkpt lat="43.408835" lon="13.18691"><ele>342.0</ele><time>2022-03-17T14:21:31.304Z</time></trkpt><trkpt lat="43.408835" lon="13.18691"><ele>342.0</ele><time>2022-03-17T14:21:32.311Z</time></trkpt><trkpt lat="43.40875667" lon="13.18691333"><ele>342.0</ele><time>2022-03-17T14:21:33.296Z</time></trkpt><trkpt lat="43.40875667" lon="13.18691333"><ele>342.0</ele><time>2022-03-17T14:21:34.303Z</time></trkpt><trkpt lat="43.40868" lon="13.18691333"><ele>343.0</ele><time>2022-03-17T14:21:35.286Z</time></trkpt><trkpt lat="43.40868" lon="13.18691333"><ele>343.0</ele><time>2022-03-17T14:21:36.293Z</time></trkpt><trkpt lat="43.40860667" lon="13.18691333"><ele>343.0</ele><time>2022-03-17T14:21:37.305Z</time></trkpt><trkpt lat="43.40857167" lon="13.18691667"><ele>343.0</ele><time>2022-03-17T14:21:38.294Z</time></trkpt><trkpt lat="43.40857167" lon="13.18691667"><ele>343.0</ele><time>2022-03-17T14:21:39.300Z</time></trkpt><trkpt lat="43.40850167" lon="13.18691833"><ele>344.0</ele><time>2022-03-17T14:21:40.294Z</time></trkpt><trkpt lat="43.40850167" lon="13.18691833"><ele>344.0</ele><time>2022-03-17T14:21:41.322Z</time></trkpt><trkpt lat="43.40843167" lon="13.186925"><ele>344.0</ele><time>2022-03-17T14:21:42.299Z</time></trkpt><trkpt lat="43.40839833" lon="13.18692833"><ele>344.0</ele><time>2022-03-17T14:21:43.316Z</time></trkpt><trkpt lat="43.40839833" lon="13.18692833"><ele>344.0</ele><time>2022-03-17T14:21:44.323Z</time></trkpt><trkpt lat="43.40833167" lon="13.18693167"><ele>344.0</ele><time>2022-03-17T14:21:45.299Z</time></trkpt><trkpt lat="43.40833167" lon="13.18693167"><ele>344.0</ele><time>2022-03-17T14:21:46.306Z</time></trkpt><trkpt lat="43.408265" lon="13.18691667"><ele>345.0</ele><time>2022-03-17T14:21:47.293Z</time></trkpt><trkpt lat="43.408265" lon="13.18691667"><ele>345.0</ele><time>2022-03-17T14:21:48.299Z</time></trkpt><trkpt lat="43.40820333" lon="13.18689833"><ele>346.0</ele><time>2022-03-17T14:21:49.293Z</time></trkpt><trkpt lat="43.40820333" lon="13.18689833"><ele>346.0</ele><time>2022-03-17T14:21:50.300Z</time></trkpt><trkpt lat="43.40814167" lon="13.18688"><ele>346.0</ele><time>2022-03-17T14:21:51.313Z</time></trkpt><trkpt lat="43.40810833" lon="13.18687"><ele>346.0</ele><time>2022-03-17T14:21:52.318Z</time></trkpt><trkpt lat="43.40810833" lon="13.18687"><ele>346.0</ele><time>2022-03-17T14:21:53.284Z</time></trkpt><trkpt lat="43.408045" lon="13.18683667"><ele>347.0</ele><time>2022-03-17T14:21:54.304Z</time></trkpt><trkpt lat="43.408045" lon="13.18683667"><ele>347.0</ele><time>2022-03-17T14:21:55.310Z</time></trkpt><trkpt lat="43.40797667" lon="13.18679833"><ele>347.0</ele><time>2022-03-17T14:21:56.286Z</time></trkpt><trkpt lat="43.40794333" lon="13.18677667"><ele>348.0</ele><time>2022-03-17T14:21:57.298Z</time></trkpt><trkpt lat="43.40794333" lon="13.18677667"><ele>348.0</ele><time>2022-03-17T14:21:58.309Z</time></trkpt><trkpt lat="43.40788" lon="13.18673333"><ele>348.0</ele><time>2022-03-17T14:21:59.284Z</time></trkpt><trkpt lat="43.40784833" lon="13.18670833"><ele>348.0</ele><time>2022-03-17T14:22:00.297Z</time></trkpt><trkpt lat="43.40784833" lon="13.18670833"><ele>348.0</ele><time>2022-03-17T14:22:01.304Z</time></trkpt><trkpt lat="43.407785" lon="13.18666167"><ele>349.0</ele><time>2022-03-17T14:22:02.321Z</time></trkpt><trkpt lat="43.407785" lon="13.18666167"><ele>349.0</ele><time>2022-03-17T14:22:03.287Z</time></trkpt><trkpt lat="43.40772" lon="13.18661333"><ele>349.0</ele><time>2022-03-17T14:22:04.294Z</time></trkpt><trkpt lat="43.40772" lon="13.18661333"><ele>349.0</ele><time>2022-03-17T14:22:05.303Z</time></trkpt><trkpt lat="43.40765333" lon="13.18656667"><ele>350.0</ele><time>2022-03-17T14:22:06.319Z</time></trkpt><trkpt lat="43.40761833" lon="13.18654167"><ele>350.0</ele><time>2022-03-17T14:22:07.293Z</time></trkpt><trkpt lat="43.40761833" lon="13.18654167"><ele>350.0</ele><time>2022-03-17T14:22:08.300Z</time></trkpt><trkpt lat="43.40755667" lon="13.18648833"><ele>351.0</ele><time>2022-03-17T14:22:09.318Z</time></trkpt><trkpt lat="43.40755667" lon="13.18648833"><ele>351.0</ele><time>2022-03-17T14:22:10.285Z</time></trkpt><trkpt lat="43.40749333" lon="13.18642667"><ele>351.0</ele><time>2022-03-17T14:22:11.310Z</time></trkpt><trkpt lat="43.40749333" lon="13.18642667"><ele>351.0</ele><time>2022-03-17T14:22:12.317Z</time></trkpt><trkpt lat="43.40744" lon="13.18634667"><ele>352.0</ele><time>2022-03-17T14:22:13.313Z</time></trkpt><trkpt lat="43.40742" lon="13.18630333"><ele>352.0</ele><time>2022-03-17T14:22:14.321Z</time></trkpt><trkpt lat="43.40742" lon="13.18630333"><ele>352.0</ele><time>2022-03-17T14:22:15.288Z</time></trkpt><trkpt lat="43.40739667" lon="13.18621833"><ele>352.0</ele><time>2022-03-17T14:22:16.302Z</time></trkpt><trkpt lat="43.40739667" lon="13.18621833"><ele>352.0</ele><time>2022-03-17T14:22:17.308Z</time></trkpt><trkpt lat="43.40738333" lon="13.18613667"><ele>353.0</ele><time>2022-03-17T14:22:18.287Z</time></trkpt><trkpt lat="43.40737667" lon="13.1861"><ele>353.0</ele><time>2022-03-17T14:22:19.304Z</time></trkpt><trkpt lat="43.40737667" lon="13.1861"><ele>353.0</ele><time>2022-03-17T14:22:20.311Z</time></trkpt><trkpt lat="43.407375" lon="13.186015"><ele>352.0</ele><time>2022-03-17T14:22:21.290Z</time></trkpt><trkpt lat="43.407375" lon="13.186015"><ele>352.0</ele><time>2022-03-17T14:22:22.299Z</time></trkpt><trkpt lat="43.40737833" lon="13.18593667"><ele>352.0</ele><time>2022-03-17T14:22:23.284Z</time></trkpt><trkpt lat="43.40737833" lon="13.18593667"><ele>352.0</ele><time>2022-03-17T14:22:24.291Z</time></trkpt><trkpt lat="43.40738167" lon="13.185855"><ele>353.0</ele><time>2022-03-17T14:22:25.285Z</time></trkpt><trkpt lat="43.40738167" lon="13.185855"><ele>353.0</ele><time>2022-03-17T14:22:26.294Z</time></trkpt><trkpt lat="43.40739167" lon="13.18578333"><ele>353.0</ele><time>2022-03-17T14:22:27.301Z</time></trkpt><trkpt lat="43.40739667" lon="13.18575667"><ele>353.0</ele><time>2022-03-17T14:22:28.316Z</time></trkpt><trkpt lat="43.40739667" lon="13.18575667"><ele>353.0</ele><time>2022-03-17T14:22:29.323Z</time></trkpt><trkpt lat="43.40740333" lon="13.18570333"><ele>354.0</ele><time>2022-03-17T14:22:30.317Z</time></trkpt><trkpt lat="43.40741" lon="13.18567167"><ele>354.0</ele><time>2022-03-17T14:22:31.293Z</time></trkpt><trkpt lat="43.40741" lon="13.18567167"><ele>354.0</ele><time>2022-03-17T14:22:32.300Z</time></trkpt><trkpt lat="43.40741167" lon="13.185605"><ele>354.0</ele><time>2022-03-17T14:22:33.290Z</time></trkpt><trkpt lat="43.40741167" lon="13.185605"><ele>354.0</ele><time>2022-03-17T14:22:34.297Z</time></trkpt><trkpt lat="43.40742167" lon="13.18553667"><ele>355.0</ele><time>2022-03-17T14:22:35.314Z</time></trkpt><trkpt lat="43.40742667" lon="13.18550167"><ele>355.0</ele><time>2022-03-17T14:22:36.299Z</time></trkpt><trkpt lat="43.40742667" lon="13.18550167"><ele>355.0</ele><time>2022-03-17T14:22:37.305Z</time></trkpt><trkpt lat="43.40744" lon="13.18543333"><ele>355.0</ele><time>2022-03-17T14:22:38.300Z</time></trkpt><trkpt lat="43.40744" lon="13.18543333"><ele>355.0</ele><time>2022-03-17T14:22:39.307Z</time></trkpt><trkpt lat="43.40745" lon="13.18536167"><ele>356.0</ele><time>2022-03-17T14:22:40.291Z</time></trkpt><trkpt lat="43.40745167" lon="13.18533"><ele>356.0</ele><time>2022-03-17T14:22:41.304Z</time></trkpt><trkpt lat="43.40745167" lon="13.18533"><ele>356.0</ele><time>2022-03-17T14:22:42.310Z</time></trkpt><trkpt lat="43.40746" lon="13.18526167"><ele>357.0</ele><time>2022-03-17T14:22:43.284Z</time></trkpt><trkpt lat="43.40746" lon="13.18526167"><ele>357.0</ele><time>2022-03-17T14:22:44.295Z</time></trkpt><trkpt lat="43.407475" lon="13.185185"><ele>357.0</ele><time>2022-03-17T14:22:45.321Z</time></trkpt><trkpt lat="43.40746667" lon="13.18516"><ele>357.0</ele><time>2022-03-17T14:22:46.299Z</time></trkpt><trkpt lat="43.407465" lon="13.18513"><ele>357.0</ele><time>2022-03-17T14:22:47.321Z</time></trkpt><trkpt lat="43.407465" lon="13.18513"><ele>357.0</ele><time>2022-03-17T14:22:48.288Z</time></trkpt><trkpt lat="43.40747333" lon="13.18506833"><ele>358.0</ele><time>2022-03-17T14:22:49.294Z</time></trkpt><trkpt lat="43.40747667" lon="13.18504"><ele>358.0</ele><time>2022-03-17T14:22:50.314Z</time></trkpt><trkpt lat="43.40747667" lon="13.18504"><ele>358.0</ele><time>2022-03-17T14:22:51.321Z</time></trkpt><trkpt lat="43.40748333" lon="13.18497833"><ele>358.0</ele><time>2022-03-17T14:22:52.308Z</time></trkpt><trkpt lat="43.40748333" lon="13.18497833"><ele>358.0</ele><time>2022-03-17T14:22:53.317Z</time></trkpt><trkpt lat="43.40748667" lon="13.1849"><ele>359.0</ele><time>2022-03-17T14:22:54.314Z</time></trkpt><trkpt lat="43.40748667" lon="13.1849"><ele>359.0</ele><time>2022-03-17T14:22:55.321Z</time></trkpt><trkpt lat="43.40749833" lon="13.18482333"><ele>359.0</ele><time>2022-03-17T14:22:56.305Z</time></trkpt><trkpt lat="43.407505" lon="13.18479167"><ele>359.0</ele><time>2022-03-17T14:22:57.298Z</time></trkpt><trkpt lat="43.407505" lon="13.18479167"><ele>359.0</ele><time>2022-03-17T14:22:58.308Z</time></trkpt><trkpt lat="43.40751333" lon="13.18472833"><ele>360.0</ele><time>2022-03-17T14:22:59.288Z</time></trkpt><trkpt lat="43.407515" lon="13.18469667"><ele>360.0</ele><time>2022-03-17T14:23:00.303Z</time></trkpt><trkpt lat="43.407515" lon="13.18469667"><ele>360.0</ele><time>2022-03-17T14:23:01.308Z</time></trkpt><trkpt lat="43.40751833" lon="13.18463333"><ele>360.0</ele><time>2022-03-17T14:23:02.310Z</time></trkpt><trkpt lat="43.40751833" lon="13.18463333"><ele>360.0</ele><time>2022-03-17T14:23:03.316Z</time></trkpt><trkpt lat="43.40752667" lon="13.18456333"><ele>360.0</ele><time>2022-03-17T14:23:04.290Z</time></trkpt><trkpt lat="43.40752667" lon="13.18456333"><ele>360.0</ele><time>2022-03-17T14:23:05.297Z</time></trkpt><trkpt lat="43.40753667" lon="13.18449833"><ele>361.0</ele><time>2022-03-17T14:23:06.317Z</time></trkpt><trkpt lat="43.40754333" lon="13.184465"><ele>361.0</ele><time>2022-03-17T14:23:07.308Z</time></trkpt><trkpt lat="43.40754333" lon="13.184465"><ele>361.0</ele><time>2022-03-17T14:23:08.315Z</time></trkpt><trkpt lat="43.40754333" lon="13.18439167"><ele>361.0</ele><time>2022-03-17T14:23:09.308Z</time></trkpt><trkpt lat="43.40753833" lon="13.184355"><ele>361.0</ele><time>2022-03-17T14:23:10.315Z</time></trkpt><trkpt lat="43.40753833" lon="13.184355"><ele>361.0</ele><time>2022-03-17T14:23:11.323Z</time></trkpt><trkpt lat="43.40753333" lon="13.18428333"><ele>362.0</ele><time>2022-03-17T14:23:12.306Z</time></trkpt><trkpt lat="43.407535" lon="13.18425167"><ele>362.0</ele><time>2022-03-17T14:23:13.320Z</time></trkpt><trkpt lat="43.407535" lon="13.18425167"><ele>362.0</ele><time>2022-03-17T14:23:14.286Z</time></trkpt><trkpt lat="43.40756" lon="13.18419"><ele>362.0</ele><time>2022-03-17T14:23:15.322Z</time></trkpt><trkpt lat="43.40756" lon="13.18419"><ele>362.0</ele><time>2022-03-17T14:23:16.289Z</time></trkpt><trkpt lat="43.407575" lon="13.18411667"><ele>362.0</ele><time>2022-03-17T14:23:17.306Z</time></trkpt><trkpt lat="43.40758333" lon="13.18408"><ele>363.0</ele><time>2022-03-17T14:23:18.318Z</time></trkpt><trkpt lat="43.40758333" lon="13.18408"><ele>363.0</ele><time>2022-03-17T14:23:19.285Z</time></trkpt><trkpt lat="43.40759" lon="13.18400667"><ele>363.0</ele><time>2022-03-17T14:23:20.308Z</time></trkpt><trkpt lat="43.40759" lon="13.18400667"><ele>363.0</ele><time>2022-03-17T14:23:21.316Z</time></trkpt><trkpt lat="43.40759667" lon="13.18393167"><ele>363.0</ele><time>2022-03-17T14:23:22.302Z</time></trkpt><trkpt lat="43.40759667" lon="13.18393167"><ele>363.0</ele><time>2022-03-17T14:23:23.310Z</time></trkpt><trkpt lat="43.407605" lon="13.18385833"><ele>364.0</ele><time>2022-03-17T14:23:24.321Z</time></trkpt><trkpt lat="43.40761" lon="13.18382167"><ele>364.0</ele><time>2022-03-17T14:23:25.295Z</time></trkpt><trkpt lat="43.40761" lon="13.18382167"><ele>364.0</ele><time>2022-03-17T14:23:26.314Z</time></trkpt><trkpt lat="43.40761833" lon="13.18374833"><ele>365.0</ele><time>2022-03-17T14:23:27.317Z</time></trkpt><trkpt lat="43.40761833" lon="13.18371333"><ele>366.0</ele><time>2022-03-17T14:23:28.292Z</time></trkpt><trkpt lat="43.40761833" lon="13.18371333"><ele>366.0</ele><time>2022-03-17T14:23:29.300Z</time></trkpt><trkpt lat="43.407615" lon="13.18363833"><ele>366.0</ele><time>2022-03-17T14:23:30.317Z</time></trkpt><trkpt lat="43.407615" lon="13.18363833"><ele>366.0</ele><time>2022-03-17T14:23:31.285Z</time></trkpt><trkpt lat="43.40760667" lon="13.18356167"><ele>367.0</ele><time>2022-03-17T14:23:32.304Z</time></trkpt><trkpt lat="43.40760667" lon="13.18356167"><ele>367.0</ele><time>2022-03-17T14:23:33.311Z</time></trkpt><trkpt lat="43.40758667" lon="13.18349"><ele>367.0</ele><time>2022-03-17T14:23:34.288Z</time></trkpt><trkpt lat="43.40757667" lon="13.183455"><ele>367.0</ele><time>2022-03-17T14:23:35.285Z</time></trkpt><trkpt lat="43.40757667" lon="13.183455"><ele>367.0</ele><time>2022-03-17T14:23:36.292Z</time></trkpt><trkpt lat="43.40755167" lon="13.183385"><ele>368.0</ele><time>2022-03-17T14:23:37.312Z</time></trkpt><trkpt lat="43.40755167" lon="13.183385"><ele>368.0</ele><time>2022-03-17T14:23:38.319Z</time></trkpt><trkpt lat="43.40752667" lon="13.18331"><ele>368.0</ele><time>2022-03-17T14:23:39.308Z</time></trkpt><trkpt lat="43.407515" lon="13.18327333"><ele>368.0</ele><time>2022-03-17T14:23:40.292Z</time></trkpt><trkpt lat="43.407515" lon="13.18327333"><ele>368.0</ele><time>2022-03-17T14:23:41.298Z</time></trkpt><trkpt lat="43.40748167" lon="13.18320167"><ele>369.0</ele><time>2022-03-17T14:23:42.294Z</time></trkpt><trkpt lat="43.40748167" lon="13.18320167"><ele>369.0</ele><time>2022-03-17T14:23:43.300Z</time></trkpt><trkpt lat="43.40745167" lon="13.18313"><ele>369.0</ele><time>2022-03-17T14:23:44.320Z</time></trkpt><trkpt lat="43.40745167" lon="13.18313"><ele>369.0</ele><time>2022-03-17T14:23:45.286Z</time></trkpt><trkpt lat="43.40742" lon="13.18305167"><ele>370.0</ele><time>2022-03-17T14:23:46.305Z</time></trkpt><trkpt lat="43.40742" lon="13.18305167"><ele>370.0</ele><time>2022-03-17T14:23:47.315Z</time></trkpt><trkpt lat="43.40739167" lon="13.18297333"><ele>370.0</ele><time>2022-03-17T14:23:48.311Z</time></trkpt><trkpt lat="43.40737833" lon="13.182935"><ele>371.0</ele><time>2022-03-17T14:23:49.292Z</time></trkpt><trkpt lat="43.40737833" lon="13.182935"><ele>371.0</ele><time>2022-03-17T14:23:50.298Z</time></trkpt><trkpt lat="43.40735333" lon="13.182855"><ele>371.0</ele><time>2022-03-17T14:23:51.317Z</time></trkpt><trkpt lat="43.40733833" lon="13.18281833"><ele>372.0</ele><time>2022-03-17T14:23:52.292Z</time></trkpt><trkpt lat="43.40733833" lon="13.18281833"><ele>372.0</ele><time>2022-03-17T14:23:53.300Z</time></trkpt><trkpt lat="43.40731" lon="13.18274167"><ele>372.0</ele><time>2022-03-17T14:23:54.317Z</time></trkpt><trkpt lat="43.40731" lon="13.18274167"><ele>372.0</ele><time>2022-03-17T14:23:55.323Z</time></trkpt><trkpt lat="43.40727167" lon="13.182665"><ele>373.0</ele><time>2022-03-17T14:23:56.305Z</time></trkpt><trkpt lat="43.40727167" lon="13.182665"><ele>373.0</ele><time>2022-03-17T14:23:57.314Z</time></trkpt><trkpt lat="43.407235" lon="13.18258167"><ele>373.0</ele><time>2022-03-17T14:23:58.308Z</time></trkpt><trkpt lat="43.407235" lon="13.18258167"><ele>373.0</ele><time>2022-03-17T14:23:59.289Z</time></trkpt><trkpt lat="43.4072" lon="13.182495"><ele>374.0</ele><time>2022-03-17T14:24:00.311Z</time></trkpt><trkpt lat="43.40718167" lon="13.18245333"><ele>374.0</ele><time>2022-03-17T14:24:01.293Z</time></trkpt><trkpt lat="43.40718167" lon="13.18245333"><ele>374.0</ele><time>2022-03-17T14:24:02.299Z</time></trkpt><trkpt lat="43.40714667" lon="13.18236667"><ele>374.0</ele><time>2022-03-17T14:24:03.314Z</time></trkpt><trkpt lat="43.40714667" lon="13.18236667"><ele>374.0</ele><time>2022-03-17T14:24:04.321Z</time></trkpt><trkpt lat="43.40710667" lon="13.18228167"><ele>375.0</ele><time>2022-03-17T14:24:05.285Z</time></trkpt><trkpt lat="43.40710667" lon="13.18228167"><ele>375.0</ele><time>2022-03-17T14:24:06.292Z</time></trkpt><trkpt lat="43.40706833" lon="13.18219"><ele>375.0</ele><time>2022-03-17T14:24:07.311Z</time></trkpt><trkpt lat="43.40706833" lon="13.18219"><ele>375.0</ele><time>2022-03-17T14:24:08.318Z</time></trkpt><trkpt lat="43.407035" lon="13.18208833"><ele>374.0</ele><time>2022-03-17T14:24:09.299Z</time></trkpt><trkpt lat="43.407035" lon="13.18208833"><ele>374.0</ele><time>2022-03-17T14:24:10.306Z</time></trkpt><trkpt lat="43.40699667" lon="13.181995"><ele>374.0</ele><time>2022-03-17T14:24:11.316Z</time></trkpt><trkpt lat="43.40699667" lon="13.181995"><ele>374.0</ele><time>2022-03-17T14:24:12.323Z</time></trkpt><trkpt lat="43.40696" lon="13.18189667"><ele>374.0</ele><time>2022-03-17T14:24:13.314Z</time></trkpt><trkpt lat="43.40696" lon="13.18189667"><ele>374.0</ele><time>2022-03-17T14:24:14.321Z</time></trkpt><trkpt lat="43.40692333" lon="13.18179833"><ele>374.0</ele><time>2022-03-17T14:24:15.299Z</time></trkpt><trkpt lat="43.40690333" lon="13.18175"><ele>374.0</ele><time>2022-03-17T14:24:16.298Z</time></trkpt><trkpt lat="43.40690333" lon="13.18175"><ele>374.0</ele><time>2022-03-17T14:24:17.308Z</time></trkpt><trkpt lat="43.40687167" lon="13.18165167"><ele>374.0</ele><time>2022-03-17T14:24:18.286Z</time></trkpt><trkpt lat="43.40685667" lon="13.18160333"><ele>374.0</ele><time>2022-03-17T14:24:19.310Z</time></trkpt><trkpt lat="43.40685667" lon="13.18160333"><ele>374.0</ele><time>2022-03-17T14:24:20.317Z</time></trkpt><trkpt lat="43.40682333" lon="13.18151"><ele>374.0</ele><time>2022-03-17T14:24:21.308Z</time></trkpt><trkpt lat="43.40681167" lon="13.18146333"><ele>374.0</ele><time>2022-03-17T14:24:22.294Z</time></trkpt><trkpt lat="43.40681167" lon="13.18146333"><ele>374.0</ele><time>2022-03-17T14:24:23.301Z</time></trkpt><trkpt lat="43.40679167" lon="13.18136333"><ele>375.0</ele><time>2022-03-17T14:24:24.322Z</time></trkpt><trkpt lat="43.40679167" lon="13.18136333"><ele>375.0</ele><time>2022-03-17T14:24:25.288Z</time></trkpt><trkpt lat="43.40677667" lon="13.18126167"><ele>375.0</ele><time>2022-03-17T14:24:26.323Z</time></trkpt><trkpt lat="43.40677667" lon="13.18126167"><ele>375.0</ele><time>2022-03-17T14:24:27.320Z</time></trkpt><trkpt lat="43.406765" lon="13.181165"><ele>375.0</ele><time>2022-03-17T14:24:28.304Z</time></trkpt><trkpt lat="43.40676167" lon="13.18111333"><ele>375.0</ele><time>2022-03-17T14:24:29.321Z</time></trkpt><trkpt lat="43.40676167" lon="13.18111333"><ele>375.0</ele><time>2022-03-17T14:24:30.288Z</time></trkpt><trkpt lat="43.40675833" lon="13.18101333"><ele>376.0</ele><time>2022-03-17T14:24:31.314Z</time></trkpt><trkpt lat="43.40675833" lon="13.18101333"><ele>376.0</ele><time>2022-03-17T14:24:32.321Z</time></trkpt><trkpt lat="43.40676333" lon="13.18091333"><ele>376.0</ele><time>2022-03-17T14:24:33.304Z</time></trkpt><trkpt lat="43.40676833" lon="13.18086333"><ele>376.0</ele><time>2022-03-17T14:24:34.287Z</time></trkpt><trkpt lat="43.40677667" lon="13.18081167"><ele>377.0</ele><time>2022-03-17T14:24:35.305Z</time></trkpt><trkpt lat="43.40677667" lon="13.18081167"><ele>377.0</ele><time>2022-03-17T14:24:36.312Z</time></trkpt><trkpt lat="43.40679167" lon="13.18070167"><ele>377.0</ele><time>2022-03-17T14:24:37.303Z</time></trkpt><trkpt lat="43.40679167" lon="13.18070167"><ele>377.0</ele><time>2022-03-17T14:24:38.310Z</time></trkpt><trkpt lat="43.40681" lon="13.18059"><ele>378.0</ele><time>2022-03-17T14:24:39.306Z</time></trkpt><trkpt lat="43.40681" lon="13.18059"><ele>378.0</ele><time>2022-03-17T14:24:40.312Z</time></trkpt><trkpt lat="43.406835" lon="13.18047667"><ele>378.0</ele><time>2022-03-17T14:24:41.291Z</time></trkpt><trkpt lat="43.406835" lon="13.18047667"><ele>378.0</ele><time>2022-03-17T14:24:42.301Z</time></trkpt><trkpt lat="43.40685667" lon="13.18035667"><ele>378.0</ele><time>2022-03-17T14:24:43.295Z</time></trkpt><trkpt lat="43.40685667" lon="13.18035667"><ele>378.0</ele><time>2022-03-17T14:24:44.306Z</time></trkpt><trkpt lat="43.40687833" lon="13.18023833"><ele>378.0</ele><time>2022-03-17T14:24:45.292Z</time></trkpt><trkpt lat="43.40689333" lon="13.18018167"><ele>378.0</ele><time>2022-03-17T14:24:46.293Z</time></trkpt><trkpt lat="43.40689333" lon="13.18018167"><ele>378.0</ele><time>2022-03-17T14:24:47.301Z</time></trkpt><trkpt lat="43.406915" lon="13.18006667"><ele>378.0</ele><time>2022-03-17T14:24:48.295Z</time></trkpt><trkpt lat="43.40692667" lon="13.18001167"><ele>378.0</ele><time>2022-03-17T14:24:49.310Z</time></trkpt><trkpt lat="43.40694167" lon="13.17995333"><ele>378.0</ele><time>2022-03-17T14:24:50.292Z</time></trkpt><trkpt lat="43.40694167" lon="13.17995333"><ele>378.0</ele><time>2022-03-17T14:24:51.306Z</time></trkpt><trkpt lat="43.40696167" lon="13.17984333"><ele>378.0</ele><time>2022-03-17T14:24:52.303Z</time></trkpt><trkpt lat="43.40697167" lon="13.17978833"><ele>378.0</ele><time>2022-03-17T14:24:53.287Z</time></trkpt><trkpt lat="43.40697167" lon="13.17978833"><ele>378.0</ele><time>2022-03-17T14:24:54.294Z</time></trkpt><trkpt lat="43.40699667" lon="13.17968167"><ele>378.0</ele><time>2022-03-17T14:24:55.287Z</time></trkpt><trkpt lat="43.40699667" lon="13.17968167"><ele>378.0</ele><time>2022-03-17T14:24:56.293Z</time></trkpt><trkpt lat="43.40702167" lon="13.179575"><ele>378.0</ele><time>2022-03-17T14:24:57.306Z</time></trkpt><trkpt lat="43.40702167" lon="13.179575"><ele>378.0</ele><time>2022-03-17T14:24:58.313Z</time></trkpt><trkpt lat="43.40704667" lon="13.17947"><ele>378.0</ele><time>2022-03-17T14:24:59.288Z</time></trkpt><trkpt lat="43.40705833" lon="13.17941667"><ele>378.0</ele><time>2022-03-17T14:25:00.286Z</time></trkpt><trkpt lat="43.40706833" lon="13.17937"><ele>378.0</ele><time>2022-03-17T14:25:01.309Z</time></trkpt><trkpt lat="43.40706833" lon="13.17937"><ele>378.0</ele><time>2022-03-17T14:25:02.316Z</time></trkpt><trkpt lat="43.407075" lon="13.17931"><ele>378.0</ele><time>2022-03-17T14:25:03.293Z</time></trkpt><trkpt lat="43.407075" lon="13.17931"><ele>378.0</ele><time>2022-03-17T14:25:04.299Z</time></trkpt><trkpt lat="43.407055" lon="13.17935"><ele>378.0</ele><time>2022-03-17T14:25:05.290Z</time></trkpt><trkpt lat="43.407055" lon="13.17935"><ele>378.0</ele><time>2022-03-17T14:25:06.297Z</time></trkpt><trkpt lat="43.40703667" lon="13.179425"><ele>378.0</ele><time>2022-03-17T14:25:07.304Z</time></trkpt><trkpt lat="43.40703667" lon="13.179425"><ele>378.0</ele><time>2022-03-17T14:25:08.295Z</time></trkpt><trkpt lat="43.40701833" lon="13.17950833"><ele>378.0</ele><time>2022-03-17T14:25:09.288Z</time></trkpt><trkpt lat="43.407025" lon="13.179535"><ele>378.0</ele><time>2022-03-17T14:25:10.296Z</time></trkpt><trkpt lat="43.407025" lon="13.179535"><ele>378.0</ele><time>2022-03-17T14:25:11.303Z</time></trkpt><trkpt lat="43.40705333" lon="13.17952"><ele>379.0</ele><time>2022-03-17T14:25:12.315Z</time></trkpt><trkpt lat="43.40705833" lon="13.17950333"><ele>379.0</ele><time>2022-03-17T14:25:13.289Z</time></trkpt><trkpt lat="43.40705833" lon="13.17950333"><ele>379.0</ele><time>2022-03-17T14:25:14.295Z</time></trkpt><trkpt lat="43.40706833" lon="13.17948333"><ele>380.0</ele><time>2022-03-17T14:25:15.317Z</time></trkpt><trkpt lat="43.40706833" lon="13.17948333"><ele>380.0</ele><time>2022-03-17T14:25:16.291Z</time></trkpt><trkpt lat="43.40706833" lon="13.17948333"><ele>380.0</ele><time>2022-03-17T14:25:17.287Z</time></trkpt><trkpt lat="43.407065" lon="13.179375"><ele>374.0</ele><time>2022-03-17T14:25:18.284Z</time></trkpt><trkpt lat="43.407065" lon="13.179375"><ele>374.0</ele><time>2022-03-17T14:25:19.295Z</time></trkpt><trkpt lat="43.40707667" lon="13.17931833"><ele>375.0</ele><time>2022-03-17T14:25:20.314Z</time></trkpt><trkpt lat="43.40707667" lon="13.17931833"><ele>375.0</ele><time>2022-03-17T14:25:21.289Z</time></trkpt><trkpt lat="43.407095" lon="13.17924667"><ele>375.0</ele><time>2022-03-17T14:25:22.306Z</time></trkpt><trkpt lat="43.40710167" lon="13.17921"><ele>375.0</ele><time>2022-03-17T14:25:23.290Z</time></trkpt><trkpt lat="43.40710167" lon="13.17921"><ele>375.0</ele><time>2022-03-17T14:25:24.298Z</time></trkpt><trkpt lat="43.40711667" lon="13.17912667"><ele>375.0</ele><time>2022-03-17T14:25:25.315Z</time></trkpt><trkpt lat="43.40711667" lon="13.17912667"><ele>375.0</ele><time>2022-03-17T14:25:26.298Z</time></trkpt><trkpt lat="43.40713167" lon="13.17904333"><ele>375.0</ele><time>2022-03-17T14:25:27.286Z</time></trkpt><trkpt lat="43.40713167" lon="13.17904333"><ele>375.0</ele><time>2022-03-17T14:25:28.288Z</time></trkpt><trkpt lat="43.407145" lon="13.17895167"><ele>375.0</ele><time>2022-03-17T14:25:29.303Z</time></trkpt><trkpt lat="43.407145" lon="13.17895167"><ele>375.0</ele><time>2022-03-17T14:25:30.286Z</time></trkpt><trkpt lat="43.40717" lon="13.17885"><ele>375.0</ele><time>2022-03-17T14:25:31.318Z</time></trkpt><trkpt lat="43.40717" lon="13.17885"><ele>375.0</ele><time>2022-03-17T14:25:32.304Z</time></trkpt><trkpt lat="43.4072" lon="13.178735"><ele>375.0</ele><time>2022-03-17T14:25:33.315Z</time></trkpt><trkpt lat="43.4072" lon="13.178735"><ele>375.0</ele><time>2022-03-17T14:25:34.284Z</time></trkpt><trkpt lat="43.40723667" lon="13.17861833"><ele>376.0</ele><time>2022-03-17T14:25:35.317Z</time></trkpt><trkpt lat="43.40723667" lon="13.17861833"><ele>376.0</ele><time>2022-03-17T14:25:36.290Z</time></trkpt><trkpt lat="43.40727167" lon="13.17849667"><ele>376.0</ele><time>2022-03-17T14:25:37.291Z</time></trkpt><trkpt lat="43.40727167" lon="13.17849667"><ele>376.0</ele><time>2022-03-17T14:25:38.322Z</time></trkpt><trkpt lat="43.40730333" lon="13.17837"><ele>376.0</ele><time>2022-03-17T14:25:39.297Z</time></trkpt><trkpt lat="43.40731667" lon="13.17830833"><ele>376.0</ele><time>2022-03-17T14:25:40.306Z</time></trkpt><trkpt lat="43.40731667" lon="13.17830833"><ele>376.0</ele><time>2022-03-17T14:25:41.315Z</time></trkpt><trkpt lat="43.40734167" lon="13.17818333"><ele>376.0</ele><time>2022-03-17T14:25:42.301Z</time></trkpt><trkpt lat="43.40734833" lon="13.17812167"><ele>375.0</ele><time>2022-03-17T14:25:43.293Z</time></trkpt><trkpt lat="43.40734833" lon="13.17812167"><ele>375.0</ele><time>2022-03-17T14:25:44.299Z</time></trkpt><trkpt lat="43.40737167" lon="13.178005"><ele>375.0</ele><time>2022-03-17T14:25:45.286Z</time></trkpt><trkpt lat="43.40737167" lon="13.178005"><ele>375.0</ele><time>2022-03-17T14:25:46.323Z</time></trkpt><trkpt lat="43.407405" lon="13.17789"><ele>375.0</ele><time>2022-03-17T14:25:47.304Z</time></trkpt><trkpt lat="43.407405" lon="13.17789"><ele>375.0</ele><time>2022-03-17T14:25:48.321Z</time></trkpt><trkpt lat="43.40742833" lon="13.17777667"><ele>374.0</ele><time>2022-03-17T14:25:49.302Z</time></trkpt><trkpt lat="43.40742833" lon="13.17777667"><ele>374.0</ele><time>2022-03-17T14:25:50.291Z</time></trkpt><trkpt lat="43.40745333" lon="13.17767"><ele>374.0</ele><time>2022-03-17T14:25:51.290Z</time></trkpt><trkpt lat="43.40745333" lon="13.17767"><ele>374.0</ele><time>2022-03-17T14:25:52.309Z</time></trkpt><trkpt lat="43.40747667" lon="13.17756333"><ele>375.0</ele><time>2022-03-17T14:25:53.292Z</time></trkpt><trkpt lat="43.40747667" lon="13.17756333"><ele>375.0</ele><time>2022-03-17T14:25:54.307Z</time></trkpt><trkpt lat="43.40750167" lon="13.17746833"><ele>376.0</ele><time>2022-03-17T14:25:55.315Z</time></trkpt><trkpt lat="43.40751333" lon="13.17742333"><ele>376.0</ele><time>2022-03-17T14:25:56.294Z</time></trkpt><trkpt lat="43.40751333" lon="13.17742333"><ele>376.0</ele><time>2022-03-17T14:25:57.305Z</time></trkpt><trkpt lat="43.407535" lon="13.17734"><ele>377.0</ele><time>2022-03-17T14:25:58.316Z</time></trkpt><trkpt lat="43.40754667" lon="13.17730167"><ele>377.0</ele><time>2022-03-17T14:25:59.310Z</time></trkpt><trkpt lat="43.40754667" lon="13.17730167"><ele>377.0</ele><time>2022-03-17T14:26:00.308Z</time></trkpt><trkpt lat="43.40756833" lon="13.17722167"><ele>378.0</ele><time>2022-03-17T14:26:01.293Z</time></trkpt><trkpt lat="43.40757667" lon="13.17718167"><ele>378.0</ele><time>2022-03-17T14:26:02.285Z</time></trkpt><trkpt lat="43.40757667" lon="13.17718167"><ele>378.0</ele><time>2022-03-17T14:26:03.306Z</time></trkpt><trkpt lat="43.40758833" lon="13.17709833"><ele>379.0</ele><time>2022-03-17T14:26:04.288Z</time></trkpt><trkpt lat="43.40759333" lon="13.177065"><ele>379.0</ele><time>2022-03-17T14:26:05.306Z</time></trkpt><trkpt lat="43.40759333" lon="13.177065"><ele>379.0</ele><time>2022-03-17T14:26:06.304Z</time></trkpt><trkpt lat="43.40761333" lon="13.176995"><ele>380.0</ele><time>2022-03-17T14:26:07.320Z</time></trkpt><trkpt lat="43.40761333" lon="13.176995"><ele>380.0</ele><time>2022-03-17T14:26:08.289Z</time></trkpt><trkpt lat="43.407635" lon="13.17692333"><ele>380.0</ele><time>2022-03-17T14:26:09.301Z</time></trkpt><trkpt lat="43.40764333" lon="13.176885"><ele>380.0</ele><time>2022-03-17T14:26:10.300Z</time></trkpt><trkpt lat="43.40764333" lon="13.176885"><ele>380.0</ele><time>2022-03-17T14:26:11.324Z</time></trkpt><trkpt lat="43.40766" lon="13.17680667"><ele>381.0</ele><time>2022-03-17T14:26:12.313Z</time></trkpt><trkpt lat="43.40766" lon="13.17680667"><ele>381.0</ele><time>2022-03-17T14:26:13.320Z</time></trkpt><trkpt lat="43.40768" lon="13.17673667"><ele>381.0</ele><time>2022-03-17T14:26:14.288Z</time></trkpt><trkpt lat="43.40769333" lon="13.176705"><ele>382.0</ele><time>2022-03-17T14:26:15.288Z</time></trkpt><trkpt lat="43.40769333" lon="13.176705"><ele>382.0</ele><time>2022-03-17T14:26:16.309Z</time></trkpt><trkpt lat="43.40770333" lon="13.17663333"><ele>382.0</ele><time>2022-03-17T14:26:17.293Z</time></trkpt><trkpt lat="43.40770333" lon="13.17663333"><ele>382.0</ele><time>2022-03-17T14:26:18.304Z</time></trkpt><trkpt lat="43.40771833" lon="13.17656167"><ele>383.0</ele><time>2022-03-17T14:26:19.321Z</time></trkpt><trkpt lat="43.40772667" lon="13.176525"><ele>383.0</ele><time>2022-03-17T14:26:20.316Z</time></trkpt><trkpt lat="43.40772667" lon="13.176525"><ele>383.0</ele><time>2022-03-17T14:26:21.305Z</time></trkpt><trkpt lat="43.407745" lon="13.176455"><ele>383.0</ele><time>2022-03-17T14:26:22.323Z</time></trkpt><trkpt lat="43.407745" lon="13.176455"><ele>383.0</ele><time>2022-03-17T14:26:23.290Z</time></trkpt><trkpt lat="43.40777" lon="13.17638833"><ele>384.0</ele><time>2022-03-17T14:26:24.301Z</time></trkpt><trkpt lat="43.40777" lon="13.17638833"><ele>384.0</ele><time>2022-03-17T14:26:25.312Z</time></trkpt><trkpt lat="43.40778667" lon="13.176315"><ele>385.0</ele><time>2022-03-17T14:26:26.304Z</time></trkpt><trkpt lat="43.40778667" lon="13.176315"><ele>385.0</ele><time>2022-03-17T14:26:27.293Z</time></trkpt><trkpt lat="43.40780667" lon="13.176235"><ele>385.0</ele><time>2022-03-17T14:26:28.313Z</time></trkpt><trkpt lat="43.40780667" lon="13.176235"><ele>385.0</ele><time>2022-03-17T14:26:29.323Z</time></trkpt><trkpt lat="43.40783833" lon="13.17614833"><ele>386.0</ele><time>2022-03-17T14:26:30.293Z</time></trkpt><trkpt lat="43.40783833" lon="13.17614833"><ele>386.0</ele><time>2022-03-17T14:26:31.299Z</time></trkpt><trkpt lat="43.40786667" lon="13.17606167"><ele>386.0</ele><time>2022-03-17T14:26:32.285Z</time></trkpt><trkpt lat="43.40786667" lon="13.17606167"><ele>386.0</ele><time>2022-03-17T14:26:33.302Z</time></trkpt><trkpt lat="43.40789167" lon="13.17597333"><ele>386.0</ele><time>2022-03-17T14:26:34.322Z</time></trkpt><trkpt lat="43.40790667" lon="13.17592667"><ele>386.0</ele><time>2022-03-17T14:26:35.302Z</time></trkpt><trkpt lat="43.40790667" lon="13.17592667"><ele>386.0</ele><time>2022-03-17T14:26:36.284Z</time></trkpt><trkpt lat="43.40792833" lon="13.175835"><ele>386.0</ele><time>2022-03-17T14:26:37.298Z</time></trkpt><trkpt lat="43.407935" lon="13.17578667"><ele>386.0</ele><time>2022-03-17T14:26:38.304Z</time></trkpt><trkpt lat="43.407935" lon="13.17578667"><ele>386.0</ele><time>2022-03-17T14:26:39.296Z</time></trkpt><trkpt lat="43.40795167" lon="13.17568833"><ele>386.0</ele><time>2022-03-17T14:26:40.321Z</time></trkpt><trkpt lat="43.40796333" lon="13.17564333"><ele>386.0</ele><time>2022-03-17T14:26:41.297Z</time></trkpt><trkpt lat="43.40796333" lon="13.17564333"><ele>386.0</ele><time>2022-03-17T14:26:42.311Z</time></trkpt><trkpt lat="43.40798833" lon="13.17555"><ele>386.0</ele><time>2022-03-17T14:26:43.284Z</time></trkpt><trkpt lat="43.40798833" lon="13.17555"><ele>386.0</ele><time>2022-03-17T14:26:44.294Z</time></trkpt><trkpt lat="43.40801" lon="13.17545833"><ele>386.0</ele><time>2022-03-17T14:26:45.297Z</time></trkpt><trkpt lat="43.40801" lon="13.17545833"><ele>386.0</ele><time>2022-03-17T14:26:46.309Z</time></trkpt><trkpt lat="43.408035" lon="13.17536833"><ele>386.0</ele><time>2022-03-17T14:26:47.285Z</time></trkpt><trkpt lat="43.408035" lon="13.17536833"><ele>386.0</ele><time>2022-03-17T14:26:48.291Z</time></trkpt><trkpt lat="43.408055" lon="13.17527833"><ele>386.0</ele><time>2022-03-17T14:26:49.302Z</time></trkpt><trkpt lat="43.408055" lon="13.17527833"><ele>386.0</ele><time>2022-03-17T14:26:50.293Z</time></trkpt><trkpt lat="43.40808167" lon="13.17519"><ele>386.0</ele><time>2022-03-17T14:26:51.288Z</time></trkpt><trkpt lat="43.40808167" lon="13.17519"><ele>386.0</ele><time>2022-03-17T14:26:52.319Z</time></trkpt><trkpt lat="43.408105" lon="13.1751"><ele>385.0</ele><time>2022-03-17T14:26:53.305Z</time></trkpt><trkpt lat="43.40811333" lon="13.17505167"><ele>385.0</ele><time>2022-03-17T14:26:54.299Z</time></trkpt><trkpt lat="43.40811333" lon="13.17505167"><ele>385.0</ele><time>2022-03-17T14:26:55.307Z</time></trkpt><trkpt lat="43.408125" lon="13.174955"><ele>385.0</ele><time>2022-03-17T14:26:56.300Z</time></trkpt><trkpt lat="43.40813" lon="13.17490667"><ele>385.0</ele><time>2022-03-17T14:26:57.318Z</time></trkpt><trkpt lat="43.40813" lon="13.17490667"><ele>385.0</ele><time>2022-03-17T14:26:58.297Z</time></trkpt><trkpt lat="43.408135" lon="13.17480833"><ele>385.0</ele><time>2022-03-17T14:26:59.309Z</time></trkpt><trkpt lat="43.408135" lon="13.17480833"><ele>385.0</ele><time>2022-03-17T14:27:00.286Z</time></trkpt><trkpt lat="43.40815167" lon="13.174705"><ele>385.0</ele><time>2022-03-17T14:27:01.323Z</time></trkpt><trkpt lat="43.40815167" lon="13.174705"><ele>385.0</ele><time>2022-03-17T14:27:02.296Z</time></trkpt><trkpt lat="43.408185" lon="13.17459833"><ele>385.0</ele><time>2022-03-17T14:27:03.321Z</time></trkpt><trkpt lat="43.408185" lon="13.17459833"><ele>385.0</ele><time>2022-03-17T14:27:04.321Z</time></trkpt><trkpt lat="43.40822167" lon="13.17448833"><ele>385.0</ele><time>2022-03-17T14:27:05.312Z</time></trkpt><trkpt lat="43.40822167" lon="13.17448833"><ele>385.0</ele><time>2022-03-17T14:27:06.323Z</time></trkpt><trkpt lat="43.40823833" lon="13.17437333"><ele>385.0</ele><time>2022-03-17T14:27:07.298Z</time></trkpt><trkpt lat="43.40823833" lon="13.174315"><ele>385.0</ele><time>2022-03-17T14:27:08.320Z</time></trkpt><trkpt lat="43.40823667" lon="13.17425833"><ele>385.0</ele><time>2022-03-17T14:27:09.323Z</time></trkpt><trkpt lat="43.40823667" lon="13.17425833"><ele>385.0</ele><time>2022-03-17T14:27:10.300Z</time></trkpt><trkpt lat="43.40822" lon="13.17414667"><ele>385.0</ele><time>2022-03-17T14:27:11.320Z</time></trkpt><trkpt lat="43.40820333" lon="13.174095"><ele>385.0</ele><time>2022-03-17T14:27:12.306Z</time></trkpt><trkpt lat="43.40820333" lon="13.174095"><ele>385.0</ele><time>2022-03-17T14:27:13.312Z</time></trkpt><trkpt lat="43.40816" lon="13.17400667"><ele>385.0</ele><time>2022-03-17T14:27:14.287Z</time></trkpt><trkpt lat="43.40816" lon="13.17400667"><ele>385.0</ele><time>2022-03-17T14:27:15.296Z</time></trkpt><trkpt lat="43.4081" lon="13.17394167"><ele>385.0</ele><time>2022-03-17T14:27:16.315Z</time></trkpt><trkpt lat="43.4081" lon="13.17394167"><ele>385.0</ele><time>2022-03-17T14:27:17.288Z</time></trkpt><trkpt lat="43.408025" lon="13.17388667"><ele>385.0</ele><time>2022-03-17T14:27:18.310Z</time></trkpt><trkpt lat="43.408025" lon="13.17388667"><ele>385.0</ele><time>2022-03-17T14:27:19.322Z</time></trkpt><trkpt lat="43.40794833" lon="13.17382833"><ele>384.0</ele><time>2022-03-17T14:27:20.297Z</time></trkpt><trkpt lat="43.40794833" lon="13.17382833"><ele>384.0</ele><time>2022-03-17T14:27:21.308Z</time></trkpt><trkpt lat="43.407865" lon="13.17377"><ele>384.0</ele><time>2022-03-17T14:27:22.285Z</time></trkpt><trkpt lat="43.407865" lon="13.17377"><ele>384.0</ele><time>2022-03-17T14:27:23.294Z</time></trkpt><trkpt lat="43.407775" lon="13.17371167"><ele>383.0</ele><time>2022-03-17T14:27:24.306Z</time></trkpt><trkpt lat="43.407775" lon="13.17371167"><ele>383.0</ele><time>2022-03-17T14:27:25.285Z</time></trkpt><trkpt lat="43.40768333" lon="13.17365333"><ele>383.0</ele><time>2022-03-17T14:27:26.321Z</time></trkpt><trkpt lat="43.40768333" lon="13.17365333"><ele>383.0</ele><time>2022-03-17T14:27:27.313Z</time></trkpt><trkpt lat="43.40759667" lon="13.17358833"><ele>383.0</ele><time>2022-03-17T14:27:28.323Z</time></trkpt><trkpt lat="43.40755333" lon="13.17355167"><ele>383.0</ele><time>2022-03-17T14:27:29.306Z</time></trkpt><trkpt lat="43.40755333" lon="13.17355167"><ele>383.0</ele><time>2022-03-17T14:27:30.315Z</time></trkpt><trkpt lat="43.40746333" lon="13.17348833"><ele>383.0</ele><time>2022-03-17T14:27:31.287Z</time></trkpt><trkpt lat="43.40746333" lon="13.17348833"><ele>383.0</ele><time>2022-03-17T14:27:32.296Z</time></trkpt><trkpt lat="43.40738167" lon="13.173425"><ele>383.0</ele><time>2022-03-17T14:27:33.307Z</time></trkpt><trkpt lat="43.40734" lon="13.17339167"><ele>383.0</ele><time>2022-03-17T14:27:34.316Z</time></trkpt><trkpt lat="43.40734" lon="13.17339167"><ele>383.0</ele><time>2022-03-17T14:27:35.303Z</time></trkpt><trkpt lat="43.40726167" lon="13.17333"><ele>383.0</ele><time>2022-03-17T14:27:36.319Z</time></trkpt><trkpt lat="43.40722333" lon="13.17330167"><ele>383.0</ele><time>2022-03-17T14:27:37.302Z</time></trkpt><trkpt lat="43.40722333" lon="13.17330167"><ele>383.0</ele><time>2022-03-17T14:27:38.289Z</time></trkpt><trkpt lat="43.40714667" lon="13.17325667"><ele>383.0</ele><time>2022-03-17T14:27:39.302Z</time></trkpt><trkpt lat="43.40714667" lon="13.17325667"><ele>383.0</ele><time>2022-03-17T14:27:40.294Z</time></trkpt><trkpt lat="43.40708" lon="13.17321667"><ele>383.0</ele><time>2022-03-17T14:27:41.304Z</time></trkpt><trkpt lat="43.40708" lon="13.17321667"><ele>383.0</ele><time>2022-03-17T14:27:42.285Z</time></trkpt><trkpt lat="43.40701167" lon="13.173185"><ele>383.0</ele><time>2022-03-17T14:27:43.296Z</time></trkpt><trkpt lat="43.40697667" lon="13.17317167"><ele>384.0</ele><time>2022-03-17T14:27:44.318Z</time></trkpt><trkpt lat="43.40697667" lon="13.17317167"><ele>384.0</ele><time>2022-03-17T14:27:45.295Z</time></trkpt><trkpt lat="43.40690833" lon="13.17314667"><ele>384.0</ele><time>2022-03-17T14:27:46.310Z</time></trkpt><trkpt lat="43.40687833" lon="13.17313167"><ele>384.0</ele><time>2022-03-17T14:27:47.286Z</time></trkpt><trkpt lat="43.406845" lon="13.17312"><ele>385.0</ele><time>2022-03-17T14:27:48.312Z</time></trkpt><trkpt lat="43.406845" lon="13.17312"><ele>385.0</ele><time>2022-03-17T14:27:49.299Z</time></trkpt><trkpt lat="43.40677667" lon="13.17309167"><ele>385.0</ele><time>2022-03-17T14:27:50.315Z</time></trkpt><trkpt lat="43.40677667" lon="13.17309167"><ele>385.0</ele><time>2022-03-17T14:27:51.286Z</time></trkpt><trkpt lat="43.40671167" lon="13.17305667"><ele>386.0</ele><time>2022-03-17T14:27:52.285Z</time></trkpt><trkpt lat="43.40671167" lon="13.17305667"><ele>386.0</ele><time>2022-03-17T14:27:53.294Z</time></trkpt><trkpt lat="43.40665" lon="13.17301833"><ele>386.0</ele><time>2022-03-17T14:27:54.309Z</time></trkpt><trkpt lat="43.40665" lon="13.17301833"><ele>386.0</ele><time>2022-03-17T14:27:55.301Z</time></trkpt><trkpt lat="43.406585" lon="13.172975"><ele>386.0</ele><time>2022-03-17T14:27:56.316Z</time></trkpt><trkpt lat="43.406585" lon="13.172975"><ele>386.0</ele><time>2022-03-17T14:27:57.289Z</time></trkpt><trkpt lat="43.40652" lon="13.172945"><ele>387.0</ele><time>2022-03-17T14:27:58.287Z</time></trkpt><trkpt lat="43.40652" lon="13.172945"><ele>387.0</ele><time>2022-03-17T14:27:59.308Z</time></trkpt><trkpt lat="43.40644667" lon="13.17291833"><ele>387.0</ele><time>2022-03-17T14:28:00.292Z</time></trkpt><trkpt lat="43.40644667" lon="13.17291833"><ele>387.0</ele><time>2022-03-17T14:28:01.300Z</time></trkpt><trkpt lat="43.40637833" lon="13.17289667"><ele>388.0</ele><time>2022-03-17T14:28:02.325Z</time></trkpt><trkpt lat="43.40637833" lon="13.17289667"><ele>388.0</ele><time>2022-03-17T14:28:03.299Z</time></trkpt><trkpt lat="43.40631" lon="13.17287833"><ele>388.0</ele><time>2022-03-17T14:28:04.324Z</time></trkpt><trkpt lat="43.40631" lon="13.17287833"><ele>388.0</ele><time>2022-03-17T14:28:05.287Z</time></trkpt><trkpt lat="43.40624667" lon="13.172855"><ele>389.0</ele><time>2022-03-17T14:28:06.302Z</time></trkpt><trkpt lat="43.40624667" lon="13.172855"><ele>389.0</ele><time>2022-03-17T14:28:07.284Z</time></trkpt><trkpt lat="43.40618" lon="13.17282667"><ele>388.0</ele><time>2022-03-17T14:28:08.290Z</time></trkpt><trkpt lat="43.40618" lon="13.17282667"><ele>388.0</ele><time>2022-03-17T14:28:09.295Z</time></trkpt><trkpt lat="43.40611667" lon="13.17278667"><ele>389.0</ele><time>2022-03-17T14:28:10.322Z</time></trkpt><trkpt lat="43.40608833" lon="13.17276667"><ele>389.0</ele><time>2022-03-17T14:28:11.293Z</time></trkpt><trkpt lat="43.40608833" lon="13.17276667"><ele>389.0</ele><time>2022-03-17T14:28:12.303Z</time></trkpt><trkpt lat="43.40603167" lon="13.17272667"><ele>390.0</ele><time>2022-03-17T14:28:13.318Z</time></trkpt><trkpt lat="43.40600667" lon="13.17270167"><ele>390.0</ele><time>2022-03-17T14:28:14.297Z</time></trkpt><trkpt lat="43.40600667" lon="13.17270167"><ele>390.0</ele><time>2022-03-17T14:28:15.309Z</time></trkpt><trkpt lat="43.40595167" lon="13.17266167"><ele>391.0</ele><time>2022-03-17T14:28:16.294Z</time></trkpt><trkpt lat="43.40595167" lon="13.17266167"><ele>391.0</ele><time>2022-03-17T14:28:17.307Z</time></trkpt><trkpt lat="43.40590333" lon="13.172625"><ele>393.0</ele><time>2022-03-17T14:28:18.299Z</time></trkpt><trkpt lat="43.40590333" lon="13.172625"><ele>393.0</ele><time>2022-03-17T14:28:19.314Z</time></trkpt><trkpt lat="43.40586167" lon="13.17258167"><ele>395.0</ele><time>2022-03-17T14:28:20.295Z</time></trkpt><trkpt lat="43.40586167" lon="13.17258167"><ele>395.0</ele><time>2022-03-17T14:28:21.306Z</time></trkpt><trkpt lat="43.40581167" lon="13.17254"><ele>395.0</ele><time>2022-03-17T14:28:22.286Z</time></trkpt><trkpt lat="43.40581167" lon="13.17254"><ele>395.0</ele><time>2022-03-17T14:28:23.310Z</time></trkpt><trkpt lat="43.40576333" lon="13.17249"><ele>396.0</ele><time>2022-03-17T14:28:24.324Z</time></trkpt><trkpt lat="43.40573833" lon="13.17246667"><ele>396.0</ele><time>2022-03-17T14:28:25.303Z</time></trkpt><trkpt lat="43.40571667" lon="13.172445"><ele>397.0</ele><time>2022-03-17T14:28:26.315Z</time></trkpt><trkpt lat="43.40571667" lon="13.172445"><ele>397.0</ele><time>2022-03-17T14:28:27.298Z</time></trkpt><trkpt lat="43.40567" lon="13.17240167"><ele>397.0</ele><time>2022-03-17T14:28:28.310Z</time></trkpt><trkpt lat="43.40564333" lon="13.17237333"><ele>397.0</ele><time>2022-03-17T14:28:29.292Z</time></trkpt><trkpt lat="43.40564333" lon="13.17237333"><ele>397.0</ele><time>2022-03-17T14:28:30.300Z</time></trkpt><trkpt lat="43.40560333" lon="13.17230833"><ele>398.0</ele><time>2022-03-17T14:28:31.318Z</time></trkpt><trkpt lat="43.4056" lon="13.17225167"><ele>398.0</ele><time>2022-03-17T14:28:32.301Z</time></trkpt><trkpt lat="43.4056" lon="13.17225167"><ele>398.0</ele><time>2022-03-17T14:28:33.289Z</time></trkpt><trkpt lat="43.405595" lon="13.17213167"><ele>399.0</ele><time>2022-03-17T14:28:34.300Z</time></trkpt><trkpt lat="43.405595" lon="13.17213167"><ele>399.0</ele><time>2022-03-17T14:28:35.322Z</time></trkpt><trkpt lat="43.40561833" lon="13.17197333"><ele>398.0</ele><time>2022-03-17T14:28:36.296Z</time></trkpt><trkpt lat="43.40561833" lon="13.17197333"><ele>398.0</ele><time>2022-03-17T14:28:37.321Z</time></trkpt><trkpt lat="43.40563833" lon="13.17178833"><ele>398.0</ele><time>2022-03-17T14:28:38.306Z</time></trkpt><trkpt lat="43.40563833" lon="13.17178833"><ele>398.0</ele><time>2022-03-17T14:28:39.322Z</time></trkpt><trkpt lat="43.405665" lon="13.17156667"><ele>398.0</ele><time>2022-03-17T14:28:40.300Z</time></trkpt><trkpt lat="43.405665" lon="13.17156667"><ele>398.0</ele><time>2022-03-17T14:28:41.316Z</time></trkpt><trkpt lat="43.40569833" lon="13.17132167"><ele>398.0</ele><time>2022-03-17T14:28:42.296Z</time></trkpt><trkpt lat="43.40569833" lon="13.17132167"><ele>398.0</ele><time>2022-03-17T14:28:43.320Z</time></trkpt><trkpt lat="43.40574833" lon="13.17107167"><ele>399.0</ele><time>2022-03-17T14:28:44.301Z</time></trkpt><trkpt lat="43.40574833" lon="13.17107167"><ele>399.0</ele><time>2022-03-17T14:28:45.288Z</time></trkpt><trkpt lat="43.40578167" lon="13.17079"><ele>399.0</ele><time>2022-03-17T14:28:46.300Z</time></trkpt><trkpt lat="43.40578167" lon="13.17079"><ele>399.0</ele><time>2022-03-17T14:28:47.311Z</time></trkpt><trkpt lat="43.40581167" lon="13.17049167"><ele>399.0</ele><time>2022-03-17T14:28:48.287Z</time></trkpt><trkpt lat="43.40581167" lon="13.17049167"><ele>399.0</ele><time>2022-03-17T14:28:49.297Z</time></trkpt><trkpt lat="43.40582667" lon="13.17019333"><ele>399.0</ele><time>2022-03-17T14:28:50.302Z</time></trkpt><trkpt lat="43.40582667" lon="13.17019333"><ele>399.0</ele><time>2022-03-17T14:28:51.284Z</time></trkpt><trkpt lat="43.40583333" lon="13.1699"><ele>400.0</ele><time>2022-03-17T14:28:52.301Z</time></trkpt><trkpt lat="43.40583333" lon="13.1699"><ele>400.0</ele><time>2022-03-17T14:28:53.309Z</time></trkpt><trkpt lat="43.40581333" lon="13.16960667"><ele>399.0</ele><time>2022-03-17T14:28:54.287Z</time></trkpt><trkpt lat="43.40581333" lon="13.16960667"><ele>399.0</ele><time>2022-03-17T14:28:55.285Z</time></trkpt><trkpt lat="43.405795" lon="13.16932167"><ele>399.0</ele><time>2022-03-17T14:28:56.293Z</time></trkpt><trkpt lat="43.405795" lon="13.16932167"><ele>399.0</ele><time>2022-03-17T14:28:57.319Z</time></trkpt><trkpt lat="43.40581" lon="13.16904167"><ele>399.0</ele><time>2022-03-17T14:28:58.291Z</time></trkpt><trkpt lat="43.40583333" lon="13.16890167"><ele>399.0</ele><time>2022-03-17T14:28:59.305Z</time></trkpt><trkpt lat="43.40583333" lon="13.16890167"><ele>399.0</ele><time>2022-03-17T14:29:00.291Z</time></trkpt><trkpt lat="43.405865" lon="13.16862667"><ele>399.0</ele><time>2022-03-17T14:29:01.302Z</time></trkpt><trkpt lat="43.40587" lon="13.16849167"><ele>399.0</ele><time>2022-03-17T14:29:02.299Z</time></trkpt><trkpt lat="43.40587" lon="13.16849167"><ele>399.0</ele><time>2022-03-17T14:29:03.309Z</time></trkpt><trkpt lat="43.40589833" lon="13.168215"><ele>399.0</ele><time>2022-03-17T14:29:04.287Z</time></trkpt><trkpt lat="43.40590667" lon="13.16808167"><ele>399.0</ele><time>2022-03-17T14:29:05.308Z</time></trkpt><trkpt lat="43.40590667" lon="13.16808167"><ele>399.0</ele><time>2022-03-17T14:29:06.317Z</time></trkpt><trkpt lat="43.40592" lon="13.16783"><ele>399.0</ele><time>2022-03-17T14:29:07.290Z</time></trkpt><trkpt lat="43.40592" lon="13.16783"><ele>399.0</ele><time>2022-03-17T14:29:08.296Z</time></trkpt><trkpt lat="43.40591167" lon="13.167585"><ele>398.0</ele><time>2022-03-17T14:29:09.307Z</time></trkpt><trkpt lat="43.405885" lon="13.16747"><ele>398.0</ele><time>2022-03-17T14:29:10.294Z</time></trkpt><trkpt lat="43.405885" lon="13.16747"><ele>398.0</ele><time>2022-03-17T14:29:11.308Z</time></trkpt><trkpt lat="43.40577167" lon="13.16728667"><ele>397.0</ele><time>2022-03-17T14:29:12.295Z</time></trkpt><trkpt lat="43.4057" lon="13.16722833"><ele>397.0</ele><time>2022-03-17T14:29:13.306Z</time></trkpt><trkpt lat="43.4057" lon="13.16722833"><ele>397.0</ele><time>2022-03-17T14:29:14.317Z</time></trkpt><trkpt lat="43.405565" lon="13.16718667"><ele>397.0</ele><time>2022-03-17T14:29:15.285Z</time></trkpt><trkpt lat="43.405565" lon="13.16718667"><ele>397.0</ele><time>2022-03-17T14:29:16.293Z</time></trkpt><trkpt lat="43.405475" lon="13.16724333"><ele>396.0</ele><time>2022-03-17T14:29:17.307Z</time></trkpt><trkpt lat="43.405475" lon="13.16724333"><ele>396.0</ele><time>2022-03-17T14:29:18.293Z</time></trkpt><trkpt lat="43.40544" lon="13.16734"><ele>395.0</ele><time>2022-03-17T14:29:19.305Z</time></trkpt><trkpt lat="43.40542167" lon="13.16738167"><ele>394.0</ele><time>2022-03-17T14:29:20.285Z</time></trkpt><trkpt lat="43.40542167" lon="13.16738167"><ele>394.0</ele><time>2022-03-17T14:29:21.298Z</time></trkpt><trkpt lat="43.40537833" lon="13.16746167"><ele>394.0</ele><time>2022-03-17T14:29:22.319Z</time></trkpt><trkpt lat="43.40537833" lon="13.16746167"><ele>394.0</ele><time>2022-03-17T14:29:23.305Z</time></trkpt><trkpt lat="43.40533167" lon="13.167535"><ele>394.0</ele><time>2022-03-17T14:29:24.319Z</time></trkpt><trkpt lat="43.40531167" lon="13.16757"><ele>393.0</ele><time>2022-03-17T14:29:25.295Z</time></trkpt><trkpt lat="43.40531167" lon="13.16757"><ele>393.0</ele><time>2022-03-17T14:29:26.319Z</time></trkpt><trkpt lat="43.40527" lon="13.16763"><ele>393.0</ele><time>2022-03-17T14:29:27.305Z</time></trkpt><trkpt lat="43.40527" lon="13.16763"><ele>393.0</ele><time>2022-03-17T14:29:28.320Z</time></trkpt><trkpt lat="43.40524333" lon="13.16766167"><ele>393.0</ele><time>2022-03-17T14:29:29.294Z</time></trkpt><trkpt lat="43.40524333" lon="13.16766167"><ele>393.0</ele><time>2022-03-17T14:29:30.308Z</time></trkpt><trkpt lat="43.405225" lon="13.16769"><ele>393.0</ele><time>2022-03-17T14:29:31.303Z</time></trkpt><trkpt lat="43.405215" lon="13.1677"><ele>393.0</ele><time>2022-03-17T14:29:32.290Z</time></trkpt><trkpt lat="43.405215" lon="13.1677"><ele>393.0</ele><time>2022-03-17T14:29:33.304Z</time></trkpt><trkpt lat="43.40519167" lon="13.167725"><ele>393.0</ele><time>2022-03-17T14:29:34.306Z</time></trkpt><trkpt lat="43.40517667" lon="13.16774"><ele>393.0</ele><time>2022-03-17T14:29:35.299Z</time></trkpt><trkpt lat="43.40517667" lon="13.16774"><ele>393.0</ele><time>2022-03-17T14:29:36.311Z</time></trkpt><trkpt lat="43.40515" lon="13.16777167"><ele>393.0</ele><time>2022-03-17T14:29:37.291Z</time></trkpt><trkpt lat="43.40513833" lon="13.16778667"><ele>393.0</ele><time>2022-03-17T14:29:38.310Z</time></trkpt><trkpt lat="43.40513833" lon="13.16778667"><ele>393.0</ele><time>2022-03-17T14:29:39.289Z</time></trkpt><trkpt lat="43.40511167" lon="13.167815"><ele>393.0</ele><time>2022-03-17T14:29:40.304Z</time></trkpt><trkpt lat="43.4051" lon="13.16783333"><ele>392.0</ele><time>2022-03-17T14:29:41.322Z</time></trkpt><trkpt lat="43.4051" lon="13.16783333"><ele>392.0</ele><time>2022-03-17T14:29:42.296Z</time></trkpt><trkpt lat="43.405075" lon="13.16788"><ele>392.0</ele><time>2022-03-17T14:29:43.311Z</time></trkpt><trkpt lat="43.40506167" lon="13.167895"><ele>392.0</ele><time>2022-03-17T14:29:44.302Z</time></trkpt><trkpt lat="43.40506167" lon="13.167895"><ele>392.0</ele><time>2022-03-17T14:29:45.286Z</time></trkpt><trkpt lat="43.405035" lon="13.16792333"><ele>392.0</ele><time>2022-03-17T14:29:46.301Z</time></trkpt><trkpt lat="43.40501667" lon="13.16794"><ele>393.0</ele><time>2022-03-17T14:29:47.295Z</time></trkpt><trkpt lat="43.40501667" lon="13.16794"><ele>393.0</ele><time>2022-03-17T14:29:48.296Z</time></trkpt><trkpt lat="43.40497667" lon="13.16798167"><ele>393.0</ele><time>2022-03-17T14:29:49.310Z</time></trkpt><trkpt lat="43.40496167" lon="13.167995"><ele>393.0</ele><time>2022-03-17T14:29:50.299Z</time></trkpt><trkpt lat="43.40496167" lon="13.167995"><ele>393.0</ele><time>2022-03-17T14:29:51.313Z</time></trkpt><trkpt lat="43.40493667" lon="13.168025"><ele>393.0</ele><time>2022-03-17T14:29:52.285Z</time></trkpt><trkpt lat="43.40493667" lon="13.168025"><ele>393.0</ele><time>2022-03-17T14:29:53.300Z</time></trkpt><trkpt lat="43.40491167" lon="13.16805833"><ele>394.0</ele><time>2022-03-17T14:29:54.319Z</time></trkpt><trkpt lat="43.40491167" lon="13.16805833"><ele>394.0</ele><time>2022-03-17T14:29:55.307Z</time></trkpt><trkpt lat="43.404885" lon="13.168095"><ele>395.0</ele><time>2022-03-17T14:29:56.323Z</time></trkpt><trkpt lat="43.404885" lon="13.168095"><ele>395.0</ele><time>2022-03-17T14:29:57.291Z</time></trkpt><trkpt lat="43.40484333" lon="13.16812667"><ele>395.0</ele><time>2022-03-17T14:29:58.286Z</time></trkpt><trkpt lat="43.40482167" lon="13.16814833"><ele>395.0</ele><time>2022-03-17T14:29:59.308Z</time></trkpt><trkpt lat="43.40482167" lon="13.16814833"><ele>395.0</ele><time>2022-03-17T14:30:00.317Z</time></trkpt><trkpt lat="43.40479" lon="13.16818333"><ele>395.0</ele><time>2022-03-17T14:30:01.290Z</time></trkpt><trkpt lat="43.40477333" lon="13.16820167"><ele>395.0</ele><time>2022-03-17T14:30:02.312Z</time></trkpt><trkpt lat="43.40477333" lon="13.16820167"><ele>395.0</ele><time>2022-03-17T14:30:03.323Z</time></trkpt><trkpt lat="43.404735" lon="13.16825333"><ele>395.0</ele><time>2022-03-17T14:30:04.312Z</time></trkpt><trkpt lat="43.40471333" lon="13.16827333"><ele>395.0</ele><time>2022-03-17T14:30:05.312Z</time></trkpt><trkpt lat="43.40471333" lon="13.16827333"><ele>395.0</ele><time>2022-03-17T14:30:06.323Z</time></trkpt><trkpt lat="43.40468" lon="13.16831667"><ele>395.0</ele><time>2022-03-17T14:30:07.321Z</time></trkpt><trkpt lat="43.40466333" lon="13.16834"><ele>395.0</ele><time>2022-03-17T14:30:08.296Z</time></trkpt><trkpt lat="43.40466333" lon="13.16834"><ele>395.0</ele><time>2022-03-17T14:30:09.307Z</time></trkpt><trkpt lat="43.40462" lon="13.16839167"><ele>395.0</ele><time>2022-03-17T14:30:10.319Z</time></trkpt><trkpt lat="43.40459833" lon="13.16841"><ele>395.0</ele><time>2022-03-17T14:30:11.301Z</time></trkpt><trkpt lat="43.40459833" lon="13.16841"><ele>395.0</ele><time>2022-03-17T14:30:12.323Z</time></trkpt><trkpt lat="43.40456833" lon="13.168455"><ele>396.0</ele><time>2022-03-17T14:30:13.306Z</time></trkpt><trkpt lat="43.40454667" lon="13.16847667"><ele>396.0</ele><time>2022-03-17T14:30:14.284Z</time></trkpt><trkpt lat="43.40454667" lon="13.16847667"><ele>396.0</ele><time>2022-03-17T14:30:15.321Z</time></trkpt><trkpt lat="43.40450333" lon="13.16852"><ele>396.0</ele><time>2022-03-17T14:30:16.299Z</time></trkpt><trkpt lat="43.40450333" lon="13.16852"><ele>396.0</ele><time>2022-03-17T14:30:17.291Z</time></trkpt><trkpt lat="43.40446167" lon="13.16856"><ele>397.0</ele><time>2022-03-17T14:30:18.309Z</time></trkpt><trkpt lat="43.40446167" lon="13.16856"><ele>397.0</ele><time>2022-03-17T14:30:19.322Z</time></trkpt><trkpt lat="43.40442167" lon="13.16860167"><ele>397.0</ele><time>2022-03-17T14:30:20.316Z</time></trkpt><trkpt lat="43.40442167" lon="13.16860167"><ele>397.0</ele><time>2022-03-17T14:30:21.313Z</time></trkpt><trkpt lat="43.40437833" lon="13.16865"><ele>396.0</ele><time>2022-03-17T14:30:22.290Z</time></trkpt><trkpt lat="43.40436167" lon="13.16866667"><ele>397.0</ele><time>2022-03-17T14:30:23.312Z</time></trkpt><trkpt lat="43.40436167" lon="13.16866667"><ele>397.0</ele><time>2022-03-17T14:30:24.284Z</time></trkpt><trkpt lat="43.40433" lon="13.16871167"><ele>397.0</ele><time>2022-03-17T14:30:25.315Z</time></trkpt><trkpt lat="43.40431" lon="13.168735"><ele>397.0</ele><time>2022-03-17T14:30:26.290Z</time></trkpt><trkpt lat="43.40431" lon="13.168735"><ele>397.0</ele><time>2022-03-17T14:30:27.299Z</time></trkpt><trkpt lat="43.40427833" lon="13.16877667"><ele>398.0</ele><time>2022-03-17T14:30:28.316Z</time></trkpt><trkpt lat="43.40425833" lon="13.16879667"><ele>398.0</ele><time>2022-03-17T14:30:29.298Z</time></trkpt><trkpt lat="43.40425833" lon="13.16879667"><ele>398.0</ele><time>2022-03-17T14:30:30.289Z</time></trkpt><trkpt lat="43.40422" lon="13.16884167"><ele>398.0</ele><time>2022-03-17T14:30:31.303Z</time></trkpt><trkpt lat="43.40422" lon="13.16884167"><ele>398.0</ele><time>2022-03-17T14:30:32.321Z</time></trkpt><trkpt lat="43.40418333" lon="13.16888333"><ele>398.0</ele><time>2022-03-17T14:30:33.302Z</time></trkpt><trkpt lat="43.40418333" lon="13.16888333"><ele>398.0</ele><time>2022-03-17T14:30:34.298Z</time></trkpt><trkpt lat="43.404145" lon="13.16891667"><ele>399.0</ele><time>2022-03-17T14:30:35.316Z</time></trkpt><trkpt lat="43.404125" lon="13.16893333"><ele>399.0</ele><time>2022-03-17T14:30:36.326Z</time></trkpt><trkpt lat="43.404125" lon="13.16893333"><ele>399.0</ele><time>2022-03-17T14:30:37.302Z</time></trkpt><trkpt lat="43.40408167" lon="13.16896"><ele>399.0</ele><time>2022-03-17T14:30:38.319Z</time></trkpt><trkpt lat="43.40406" lon="13.16896667"><ele>399.0</ele><time>2022-03-17T14:30:39.308Z</time></trkpt><trkpt lat="43.40406" lon="13.16896667"><ele>399.0</ele><time>2022-03-17T14:30:40.301Z</time></trkpt><trkpt lat="43.40401667" lon="13.16897"><ele>400.0</ele><time>2022-03-17T14:30:41.315Z</time></trkpt><trkpt lat="43.40401667" lon="13.16897"><ele>400.0</ele><time>2022-03-17T14:30:42.287Z</time></trkpt><trkpt lat="43.40397333" lon="13.168955"><ele>400.0</ele><time>2022-03-17T14:30:43.285Z</time></trkpt><trkpt lat="43.40397333" lon="13.168955"><ele>400.0</ele><time>2022-03-17T14:30:44.311Z</time></trkpt><trkpt lat="43.40392667" lon="13.16892833"><ele>400.0</ele><time>2022-03-17T14:30:45.296Z</time></trkpt><trkpt lat="43.40392667" lon="13.16892833"><ele>400.0</ele><time>2022-03-17T14:30:46.311Z</time></trkpt><trkpt lat="43.403885" lon="13.1689"><ele>400.0</ele><time>2022-03-17T14:30:47.289Z</time></trkpt><trkpt lat="43.403885" lon="13.1689"><ele>400.0</ele><time>2022-03-17T14:30:48.300Z</time></trkpt><trkpt lat="43.40384333" lon="13.16886333"><ele>401.0</ele><time>2022-03-17T14:30:49.284Z</time></trkpt><trkpt lat="43.40381667" lon="13.16884667"><ele>401.0</ele><time>2022-03-17T14:30:50.298Z</time></trkpt><trkpt lat="43.40381667" lon="13.16884667"><ele>401.0</ele><time>2022-03-17T14:30:51.285Z</time></trkpt><trkpt lat="43.40376" lon="13.16882333"><ele>401.0</ele><time>2022-03-17T14:30:52.308Z</time></trkpt><trkpt lat="43.40376" lon="13.16882333"><ele>401.0</ele><time>2022-03-17T14:30:53.290Z</time></trkpt><trkpt lat="43.40370167" lon="13.16884"><ele>401.0</ele><time>2022-03-17T14:30:54.284Z</time></trkpt><trkpt lat="43.40370167" lon="13.16884"><ele>401.0</ele><time>2022-03-17T14:30:55.306Z</time></trkpt><trkpt lat="43.40366167" lon="13.16889833"><ele>401.0</ele><time>2022-03-17T14:30:56.316Z</time></trkpt><trkpt lat="43.40365333" lon="13.168935"><ele>401.0</ele><time>2022-03-17T14:30:57.292Z</time></trkpt><trkpt lat="43.40365333" lon="13.168935"><ele>401.0</ele><time>2022-03-17T14:30:58.303Z</time></trkpt><trkpt lat="43.40365667" lon="13.16901833"><ele>401.0</ele><time>2022-03-17T14:30:59.303Z</time></trkpt><trkpt lat="43.40365667" lon="13.16901833"><ele>401.0</ele><time>2022-03-17T14:31:00.286Z</time></trkpt><trkpt lat="43.40367333" lon="13.16909333"><ele>401.0</ele><time>2022-03-17T14:31:01.302Z</time></trkpt><trkpt lat="43.40367333" lon="13.16909333"><ele>401.0</ele><time>2022-03-17T14:31:02.320Z</time></trkpt><trkpt lat="43.40369167" lon="13.16917"><ele>402.0</ele><time>2022-03-17T14:31:03.306Z</time></trkpt><trkpt lat="43.40369167" lon="13.16917"><ele>402.0</ele><time>2022-03-17T14:31:04.299Z</time></trkpt><trkpt lat="43.40371" lon="13.16923667"><ele>402.0</ele><time>2022-03-17T14:31:05.314Z</time></trkpt><trkpt lat="43.40371" lon="13.16923667"><ele>402.0</ele><time>2022-03-17T14:31:06.287Z</time></trkpt><trkpt lat="43.40373167" lon="13.169295"><ele>402.0</ele><time>2022-03-17T14:31:07.287Z</time></trkpt><trkpt lat="43.40373167" lon="13.169295"><ele>402.0</ele><time>2022-03-17T14:31:08.299Z</time></trkpt><trkpt lat="43.403745" lon="13.16936"><ele>403.0</ele><time>2022-03-17T14:31:09.320Z</time></trkpt><trkpt lat="43.403745" lon="13.16936"><ele>403.0</ele><time>2022-03-17T14:31:10.312Z</time></trkpt><trkpt lat="43.40375" lon="13.16943667"><ele>403.0</ele><time>2022-03-17T14:31:11.291Z</time></trkpt><trkpt lat="43.40375" lon="13.16943667"><ele>403.0</ele><time>2022-03-17T14:31:12.301Z</time></trkpt><trkpt lat="43.403755" lon="13.16949667"><ele>403.0</ele><time>2022-03-17T14:31:13.286Z</time></trkpt><trkpt lat="43.403755" lon="13.16952667"><ele>404.0</ele><time>2022-03-17T14:31:14.317Z</time></trkpt><trkpt lat="43.403755" lon="13.16952667"><ele>404.0</ele><time>2022-03-17T14:31:15.286Z</time></trkpt><trkpt lat="43.40376" lon="13.16958"><ele>404.0</ele><time>2022-03-17T14:31:16.303Z</time></trkpt><trkpt lat="43.40376333" lon="13.16960833"><ele>405.0</ele><time>2022-03-17T14:31:17.287Z</time></trkpt><trkpt lat="43.40376333" lon="13.16960833"><ele>405.0</ele><time>2022-03-17T14:31:18.297Z</time></trkpt><trkpt lat="43.40376833" lon="13.169665"><ele>405.0</ele><time>2022-03-17T14:31:19.292Z</time></trkpt><trkpt lat="43.40376833" lon="13.169665"><ele>405.0</ele><time>2022-03-17T14:31:20.303Z</time></trkpt><trkpt lat="43.40375333" lon="13.16972833"><ele>406.0</ele><time>2022-03-17T14:31:21.316Z</time></trkpt><trkpt lat="43.40375333" lon="13.16972833"><ele>406.0</ele><time>2022-03-17T14:31:22.289Z</time></trkpt><trkpt lat="43.40375333" lon="13.16978"><ele>407.0</ele><time>2022-03-17T14:31:23.301Z</time></trkpt><trkpt lat="43.40374667" lon="13.16981333"><ele>407.0</ele><time>2022-03-17T14:31:24.291Z</time></trkpt><trkpt lat="43.40374667" lon="13.16981333"><ele>407.0</ele><time>2022-03-17T14:31:25.308Z</time></trkpt><trkpt lat="43.40374" lon="13.16987333"><ele>408.0</ele><time>2022-03-17T14:31:26.299Z</time></trkpt><trkpt lat="43.40374" lon="13.16987333"><ele>408.0</ele><time>2022-03-17T14:31:27.290Z</time></trkpt><trkpt lat="43.403735" lon="13.16992667"><ele>409.0</ele><time>2022-03-17T14:31:28.302Z</time></trkpt><trkpt lat="43.403735" lon="13.16995167"><ele>409.0</ele><time>2022-03-17T14:31:29.300Z</time></trkpt><trkpt lat="43.403735" lon="13.16995167"><ele>409.0</ele><time>2022-03-17T14:31:30.307Z</time></trkpt><trkpt lat="43.40372833" lon="13.17000333"><ele>410.0</ele><time>2022-03-17T14:31:31.286Z</time></trkpt><trkpt lat="43.40372833" lon="13.17000333"><ele>410.0</ele><time>2022-03-17T14:31:32.298Z</time></trkpt><trkpt lat="43.40372" lon="13.17004333"><ele>411.0</ele><time>2022-03-17T14:31:33.312Z</time></trkpt><trkpt lat="43.40372" lon="13.17004333"><ele>411.0</ele><time>2022-03-17T14:31:34.320Z</time></trkpt><trkpt lat="43.40371" lon="13.17009667"><ele>412.0</ele><time>2022-03-17T14:31:35.294Z</time></trkpt><trkpt lat="43.403705" lon="13.17012333"><ele>412.0</ele><time>2022-03-17T14:31:36.318Z</time></trkpt><trkpt lat="43.403705" lon="13.17012333"><ele>412.0</ele><time>2022-03-17T14:31:37.290Z</time></trkpt><trkpt lat="43.40368833" lon="13.17017"><ele>412.0</ele><time>2022-03-17T14:31:38.320Z</time></trkpt><trkpt lat="43.40368833" lon="13.17017"><ele>412.0</ele><time>2022-03-17T14:31:39.288Z</time></trkpt><trkpt lat="43.403675" lon="13.170215"><ele>413.0</ele><time>2022-03-17T14:31:40.304Z</time></trkpt><trkpt lat="43.403665" lon="13.17024"><ele>413.0</ele><time>2022-03-17T14:31:41.323Z</time></trkpt><trkpt lat="43.403665" lon="13.17024"><ele>413.0</ele><time>2022-03-17T14:31:42.293Z</time></trkpt><trkpt lat="43.40364333" lon="13.17028167"><ele>413.0</ele><time>2022-03-17T14:31:43.304Z</time></trkpt><trkpt lat="43.40363333" lon="13.17030167"><ele>414.0</ele><time>2022-03-17T14:31:44.317Z</time></trkpt><trkpt lat="43.40363333" lon="13.17030167"><ele>414.0</ele><time>2022-03-17T14:31:45.315Z</time></trkpt><trkpt lat="43.40361333" lon="13.17034333"><ele>414.0</ele><time>2022-03-17T14:31:46.302Z</time></trkpt><trkpt lat="43.40361333" lon="13.17034333"><ele>414.0</ele><time>2022-03-17T14:31:47.286Z</time></trkpt><trkpt lat="43.403595" lon="13.17037333"><ele>415.0</ele><time>2022-03-17T14:31:48.296Z</time></trkpt><trkpt lat="43.403595" lon="13.17037333"><ele>415.0</ele><time>2022-03-17T14:31:49.293Z</time></trkpt><trkpt lat="43.40356167" lon="13.17040333"><ele>415.0</ele><time>2022-03-17T14:31:50.303Z</time></trkpt><trkpt lat="43.40354" lon="13.170415"><ele>416.0</ele><time>2022-03-17T14:31:51.284Z</time></trkpt><trkpt lat="43.40354" lon="13.170415"><ele>416.0</ele><time>2022-03-17T14:31:52.300Z</time></trkpt><trkpt lat="43.40350167" lon="13.17044833"><ele>416.0</ele><time>2022-03-17T14:31:53.303Z</time></trkpt><trkpt lat="43.40350167" lon="13.17044833"><ele>416.0</ele><time>2022-03-17T14:31:54.312Z</time></trkpt><trkpt lat="43.40347167" lon="13.17048167"><ele>416.0</ele><time>2022-03-17T14:31:55.293Z</time></trkpt><trkpt lat="43.40345667" lon="13.170495"><ele>416.0</ele><time>2022-03-17T14:31:56.313Z</time></trkpt><trkpt lat="43.40344" lon="13.17051167"><ele>416.0</ele><time>2022-03-17T14:31:57.292Z</time></trkpt><trkpt lat="43.40344" lon="13.17051167"><ele>416.0</ele><time>2022-03-17T14:31:58.301Z</time></trkpt><trkpt lat="43.40341333" lon="13.17054333"><ele>417.0</ele><time>2022-03-17T14:31:59.326Z</time></trkpt><trkpt lat="43.40339667" lon="13.17056"><ele>417.0</ele><time>2022-03-17T14:32:00.317Z</time></trkpt><trkpt lat="43.40339667" lon="13.17056"><ele>417.0</ele><time>2022-03-17T14:32:01.288Z</time></trkpt><trkpt lat="43.40336667" lon="13.17059"><ele>417.0</ele><time>2022-03-17T14:32:02.300Z</time></trkpt><trkpt lat="43.40336667" lon="13.17059"><ele>417.0</ele><time>2022-03-17T14:32:03.318Z</time></trkpt><trkpt lat="43.403335" lon="13.170615"><ele>417.0</ele><time>2022-03-17T14:32:04.290Z</time></trkpt><trkpt lat="43.403335" lon="13.170615"><ele>417.0</ele><time>2022-03-17T14:32:05.285Z</time></trkpt><trkpt lat="43.4033" lon="13.17065"><ele>418.0</ele><time>2022-03-17T14:32:06.296Z</time></trkpt><trkpt lat="43.40328333" lon="13.17067"><ele>418.0</ele><time>2022-03-17T14:32:07.316Z</time></trkpt><trkpt lat="43.403265" lon="13.17068833"><ele>418.0</ele><time>2022-03-17T14:32:08.302Z</time></trkpt><trkpt lat="43.403265" lon="13.17068833"><ele>418.0</ele><time>2022-03-17T14:32:09.318Z</time></trkpt><trkpt lat="43.40323333" lon="13.170725"><ele>419.0</ele><time>2022-03-17T14:32:10.295Z</time></trkpt><trkpt lat="43.40323333" lon="13.170725"><ele>419.0</ele><time>2022-03-17T14:32:11.302Z</time></trkpt><trkpt lat="43.40320167" lon="13.170765"><ele>419.0</ele><time>2022-03-17T14:32:12.322Z</time></trkpt><trkpt lat="43.40320167" lon="13.170765"><ele>419.0</ele><time>2022-03-17T14:32:13.297Z</time></trkpt><trkpt lat="43.40317333" lon="13.17081833"><ele>420.0</ele><time>2022-03-17T14:32:14.330Z</time></trkpt><trkpt lat="43.40317333" lon="13.17081833"><ele>420.0</ele><time>2022-03-17T14:32:15.299Z</time></trkpt><trkpt lat="43.40314667" lon="13.17086667"><ele>421.0</ele><time>2022-03-17T14:32:16.321Z</time></trkpt><trkpt lat="43.40313667" lon="13.17089167"><ele>421.0</ele><time>2022-03-17T14:32:17.287Z</time></trkpt><trkpt lat="43.40313667" lon="13.17089167"><ele>421.0</ele><time>2022-03-17T14:32:18.292Z</time></trkpt><trkpt lat="43.40311667" lon="13.17094667"><ele>422.0</ele><time>2022-03-17T14:32:19.308Z</time></trkpt><trkpt lat="43.40311667" lon="13.17094667"><ele>422.0</ele><time>2022-03-17T14:32:20.323Z</time></trkpt><trkpt lat="43.40309833" lon="13.17100667"><ele>423.0</ele><time>2022-03-17T14:32:21.304Z</time></trkpt><trkpt lat="43.40309833" lon="13.17100667"><ele>423.0</ele><time>2022-03-17T14:32:22.287Z</time></trkpt><trkpt lat="43.40306833" lon="13.17106167"><ele>423.0</ele><time>2022-03-17T14:32:23.306Z</time></trkpt><trkpt lat="43.40306833" lon="13.17106167"><ele>423.0</ele><time>2022-03-17T14:32:24.285Z</time></trkpt><trkpt lat="43.403055" lon="13.17111833"><ele>424.0</ele><time>2022-03-17T14:32:25.302Z</time></trkpt><trkpt lat="43.40305167" lon="13.171145"><ele>424.0</ele><time>2022-03-17T14:32:26.295Z</time></trkpt><trkpt lat="43.40305167" lon="13.171145"><ele>424.0</ele><time>2022-03-17T14:32:27.289Z</time></trkpt><trkpt lat="43.40303667" lon="13.17119833"><ele>425.0</ele><time>2022-03-17T14:32:28.310Z</time></trkpt><trkpt lat="43.40303" lon="13.171225"><ele>425.0</ele><time>2022-03-17T14:32:29.288Z</time></trkpt><trkpt lat="43.403025" lon="13.171255"><ele>425.0</ele><time>2022-03-17T14:32:30.311Z</time></trkpt><trkpt lat="43.403025" lon="13.171255"><ele>425.0</ele><time>2022-03-17T14:32:31.322Z</time></trkpt><trkpt lat="43.40300667" lon="13.17131667"><ele>425.0</ele><time>2022-03-17T14:32:32.297Z</time></trkpt><trkpt lat="43.40299833" lon="13.17135333"><ele>425.0</ele><time>2022-03-17T14:32:33.322Z</time></trkpt><trkpt lat="43.40299833" lon="13.17135333"><ele>425.0</ele><time>2022-03-17T14:32:34.294Z</time></trkpt><trkpt lat="43.40298" lon="13.171415"><ele>426.0</ele><time>2022-03-17T14:32:35.304Z</time></trkpt><trkpt lat="43.40297167" lon="13.17144667"><ele>426.0</ele><time>2022-03-17T14:32:36.284Z</time></trkpt><trkpt lat="43.40297167" lon="13.17144667"><ele>426.0</ele><time>2022-03-17T14:32:37.307Z</time></trkpt><trkpt lat="43.40294833" lon="13.17151"><ele>426.0</ele><time>2022-03-17T14:32:38.323Z</time></trkpt><trkpt lat="43.40294833" lon="13.17151"><ele>426.0</ele><time>2022-03-17T14:32:39.290Z</time></trkpt><trkpt lat="43.40291833" lon="13.17157333"><ele>426.0</ele><time>2022-03-17T14:32:40.313Z</time></trkpt><trkpt lat="43.40291833" lon="13.17157333"><ele>426.0</ele><time>2022-03-17T14:32:41.304Z</time></trkpt><trkpt lat="43.40289333" lon="13.17164333"><ele>426.0</ele><time>2022-03-17T14:32:42.317Z</time></trkpt><trkpt lat="43.40289333" lon="13.17164333"><ele>426.0</ele><time>2022-03-17T14:32:43.294Z</time></trkpt><trkpt lat="43.40287" lon="13.17171"><ele>427.0</ele><time>2022-03-17T14:32:44.314Z</time></trkpt><trkpt lat="43.40285833" lon="13.17173833"><ele>427.0</ele><time>2022-03-17T14:32:45.295Z</time></trkpt><trkpt lat="43.40285833" lon="13.17173833"><ele>427.0</ele><time>2022-03-17T14:32:46.285Z</time></trkpt><trkpt lat="43.40283333" lon="13.17179667"><ele>427.0</ele><time>2022-03-17T14:32:47.299Z</time></trkpt><trkpt lat="43.40283333" lon="13.17179667"><ele>427.0</ele><time>2022-03-17T14:32:48.320Z</time></trkpt><trkpt lat="43.40280333" lon="13.17185167"><ele>427.0</ele><time>2022-03-17T14:32:49.297Z</time></trkpt><trkpt lat="43.40278833" lon="13.17187833"><ele>427.0</ele><time>2022-03-17T14:32:50.307Z</time></trkpt><trkpt lat="43.40278833" lon="13.17187833"><ele>427.0</ele><time>2022-03-17T14:32:51.321Z</time></trkpt><trkpt lat="43.402755" lon="13.17192833"><ele>428.0</ele><time>2022-03-17T14:32:52.297Z</time></trkpt><trkpt lat="43.402755" lon="13.17192833"><ele>428.0</ele><time>2022-03-17T14:32:53.288Z</time></trkpt><trkpt lat="43.40271" lon="13.17198"><ele>428.0</ele><time>2022-03-17T14:32:54.303Z</time></trkpt><trkpt lat="43.40271" lon="13.17198"><ele>428.0</ele><time>2022-03-17T14:32:55.309Z</time></trkpt><trkpt lat="43.40266833" lon="13.17202167"><ele>429.0</ele><time>2022-03-17T14:32:56.291Z</time></trkpt><trkpt lat="43.40266833" lon="13.17202167"><ele>429.0</ele><time>2022-03-17T14:32:57.307Z</time></trkpt><trkpt lat="43.40263167" lon="13.17206"><ele>429.0</ele><time>2022-03-17T14:32:58.316Z</time></trkpt><trkpt lat="43.40263167" lon="13.17206"><ele>429.0</ele><time>2022-03-17T14:32:59.305Z</time></trkpt><trkpt lat="43.4026" lon="13.17209667"><ele>430.0</ele><time>2022-03-17T14:33:00.316Z</time></trkpt><trkpt lat="43.4026" lon="13.17209667"><ele>430.0</ele><time>2022-03-17T14:33:01.289Z</time></trkpt><trkpt lat="43.40255667" lon="13.172135"><ele>431.0</ele><time>2022-03-17T14:33:02.304Z</time></trkpt><trkpt lat="43.40255667" lon="13.172135"><ele>431.0</ele><time>2022-03-17T14:33:03.321Z</time></trkpt><trkpt lat="43.40251167" lon="13.172165"><ele>431.0</ele><time>2022-03-17T14:33:04.301Z</time></trkpt><trkpt lat="43.40249" lon="13.17217167"><ele>432.0</ele><time>2022-03-17T14:33:05.291Z</time></trkpt><trkpt lat="43.40246833" lon="13.17217167"><ele>432.0</ele><time>2022-03-17T14:33:06.322Z</time></trkpt><trkpt lat="43.40246833" lon="13.17217167"><ele>432.0</ele><time>2022-03-17T14:33:07.297Z</time></trkpt><trkpt lat="43.40242833" lon="13.17216333"><ele>433.0</ele><time>2022-03-17T14:33:08.310Z</time></trkpt><trkpt lat="43.40242833" lon="13.17216333"><ele>433.0</ele><time>2022-03-17T14:33:09.289Z</time></trkpt><trkpt lat="43.40239167" lon="13.17215167"><ele>433.0</ele><time>2022-03-17T14:33:10.313Z</time></trkpt><trkpt lat="43.40239167" lon="13.17215167"><ele>433.0</ele><time>2022-03-17T14:33:11.287Z</time></trkpt><trkpt lat="43.40235667" lon="13.17214167"><ele>434.0</ele><time>2022-03-17T14:33:12.295Z</time></trkpt><trkpt lat="43.40235667" lon="13.17214167"><ele>434.0</ele><time>2022-03-17T14:33:13.294Z</time></trkpt><trkpt lat="43.402325" lon="13.172115"><ele>434.0</ele><time>2022-03-17T14:33:14.316Z</time></trkpt><trkpt lat="43.402325" lon="13.172115"><ele>434.0</ele><time>2022-03-17T14:33:15.290Z</time></trkpt><trkpt lat="43.40229667" lon="13.17208333"><ele>435.0</ele><time>2022-03-17T14:33:16.308Z</time></trkpt><trkpt lat="43.40228167" lon="13.172065"><ele>436.0</ele><time>2022-03-17T14:33:17.286Z</time></trkpt><trkpt lat="43.40228167" lon="13.172065"><ele>436.0</ele><time>2022-03-17T14:33:18.319Z</time></trkpt><trkpt lat="43.402255" lon="13.17202833"><ele>436.0</ele><time>2022-03-17T14:33:19.289Z</time></trkpt><trkpt lat="43.40224167" lon="13.17201167"><ele>436.0</ele><time>2022-03-17T14:33:20.302Z</time></trkpt><trkpt lat="43.40224167" lon="13.17201167"><ele>436.0</ele><time>2022-03-17T14:33:21.301Z</time></trkpt><trkpt lat="43.40221333" lon="13.17198"><ele>437.0</ele><time>2022-03-17T14:33:22.323Z</time></trkpt><trkpt lat="43.40221333" lon="13.17198"><ele>437.0</ele><time>2022-03-17T14:33:23.293Z</time></trkpt><trkpt lat="43.40218167" lon="13.17195167"><ele>437.0</ele><time>2022-03-17T14:33:24.311Z</time></trkpt><trkpt lat="43.40218167" lon="13.17195167"><ele>437.0</ele><time>2022-03-17T14:33:25.287Z</time></trkpt><trkpt lat="43.40215833" lon="13.17191333"><ele>437.0</ele><time>2022-03-17T14:33:26.304Z</time></trkpt><trkpt lat="43.40215833" lon="13.17191333"><ele>437.0</ele><time>2022-03-17T14:33:27.322Z</time></trkpt><trkpt lat="43.40213833" lon="13.17187167"><ele>438.0</ele><time>2022-03-17T14:33:28.300Z</time></trkpt><trkpt lat="43.40212333" lon="13.17186167"><ele>438.0</ele><time>2022-03-17T14:33:29.291Z</time></trkpt><trkpt lat="43.40212333" lon="13.17186167"><ele>438.0</ele><time>2022-03-17T14:33:30.310Z</time></trkpt><trkpt lat="43.40209833" lon="13.17183167"><ele>438.0</ele><time>2022-03-17T14:33:31.286Z</time></trkpt><trkpt lat="43.40208667" lon="13.171815"><ele>439.0</ele><time>2022-03-17T14:33:32.317Z</time></trkpt><trkpt lat="43.40208667" lon="13.171815"><ele>439.0</ele><time>2022-03-17T14:33:33.295Z</time></trkpt><trkpt lat="43.40206" lon="13.17178333"><ele>439.0</ele><time>2022-03-17T14:33:34.319Z</time></trkpt><trkpt lat="43.40204833" lon="13.17177167"><ele>439.0</ele><time>2022-03-17T14:33:35.299Z</time></trkpt><trkpt lat="43.40204833" lon="13.17177167"><ele>439.0</ele><time>2022-03-17T14:33:36.306Z</time></trkpt><trkpt lat="43.40202" lon="13.17174333"><ele>440.0</ele><time>2022-03-17T14:33:37.320Z</time></trkpt><trkpt lat="43.40202" lon="13.17174333"><ele>440.0</ele><time>2022-03-17T14:33:38.290Z</time></trkpt><trkpt lat="43.40199333" lon="13.17171333"><ele>440.0</ele><time>2022-03-17T14:33:39.294Z</time></trkpt><trkpt lat="43.40199333" lon="13.17171333"><ele>440.0</ele><time>2022-03-17T14:33:40.305Z</time></trkpt><trkpt lat="43.40197" lon="13.171685"><ele>440.0</ele><time>2022-03-17T14:33:41.286Z</time></trkpt><trkpt lat="43.40197" lon="13.171685"><ele>440.0</ele><time>2022-03-17T14:33:42.297Z</time></trkpt><trkpt lat="43.401945" lon="13.17165333"><ele>440.0</ele><time>2022-03-17T14:33:43.307Z</time></trkpt><trkpt lat="43.40193333" lon="13.17163833"><ele>441.0</ele><time>2022-03-17T14:33:44.293Z</time></trkpt><trkpt lat="43.40192" lon="13.17162167"><ele>441.0</ele><time>2022-03-17T14:33:45.300Z</time></trkpt><trkpt lat="43.40192" lon="13.17162167"><ele>441.0</ele><time>2022-03-17T14:33:46.306Z</time></trkpt><trkpt lat="43.401895" lon="13.17159"><ele>441.0</ele><time>2022-03-17T14:33:47.318Z</time></trkpt><trkpt lat="43.401895" lon="13.17159"><ele>441.0</ele><time>2022-03-17T14:33:48.289Z</time></trkpt><trkpt lat="43.40186833" lon="13.17156"><ele>441.0</ele><time>2022-03-17T14:33:49.306Z</time></trkpt><trkpt lat="43.40186833" lon="13.17156"><ele>441.0</ele><time>2022-03-17T14:33:50.305Z</time></trkpt><trkpt lat="43.40184333" lon="13.17153333"><ele>442.0</ele><time>2022-03-17T14:33:51.286Z</time></trkpt><trkpt lat="43.40184333" lon="13.17153333"><ele>442.0</ele><time>2022-03-17T14:33:52.303Z</time></trkpt><trkpt lat="43.40181833" lon="13.17150167"><ele>442.0</ele><time>2022-03-17T14:33:53.284Z</time></trkpt><trkpt lat="43.401805" lon="13.17148667"><ele>442.0</ele><time>2022-03-17T14:33:54.317Z</time></trkpt><trkpt lat="43.401805" lon="13.17148667"><ele>442.0</ele><time>2022-03-17T14:33:55.285Z</time></trkpt><trkpt lat="43.40177833" lon="13.17145667"><ele>442.0</ele><time>2022-03-17T14:33:56.316Z</time></trkpt><trkpt lat="43.40177833" lon="13.17145667"><ele>442.0</ele><time>2022-03-17T14:33:57.286Z</time></trkpt><trkpt lat="43.40175167" lon="13.171425"><ele>443.0</ele><time>2022-03-17T14:33:58.303Z</time></trkpt><trkpt lat="43.40173833" lon="13.17141"><ele>443.0</ele><time>2022-03-17T14:33:59.294Z</time></trkpt><trkpt lat="43.40173833" lon="13.17141"><ele>443.0</ele><time>2022-03-17T14:34:00.302Z</time></trkpt><trkpt lat="43.40171167" lon="13.17137833"><ele>443.0</ele><time>2022-03-17T14:34:01.285Z</time></trkpt><trkpt lat="43.40169833" lon="13.171365"><ele>444.0</ele><time>2022-03-17T14:34:02.296Z</time></trkpt><trkpt lat="43.40169833" lon="13.171365"><ele>444.0</ele><time>2022-03-17T14:34:03.307Z</time></trkpt><trkpt lat="43.40167167" lon="13.17133167"><ele>444.0</ele><time>2022-03-17T14:34:04.331Z</time></trkpt><trkpt lat="43.40165833" lon="13.17131667"><ele>444.0</ele><time>2022-03-17T14:34:05.293Z</time></trkpt><trkpt lat="43.40165833" lon="13.17131667"><ele>444.0</ele><time>2022-03-17T14:34:06.312Z</time></trkpt><trkpt lat="43.40163167" lon="13.171285"><ele>445.0</ele><time>2022-03-17T14:34:07.285Z</time></trkpt><trkpt lat="43.40161833" lon="13.17126833"><ele>445.0</ele><time>2022-03-17T14:34:08.311Z</time></trkpt><trkpt lat="43.40161833" lon="13.17126833"><ele>445.0</ele><time>2022-03-17T14:34:09.322Z</time></trkpt><trkpt lat="43.40159167" lon="13.17123833"><ele>445.0</ele><time>2022-03-17T14:34:10.318Z</time></trkpt><trkpt lat="43.40157833" lon="13.17122167"><ele>446.0</ele><time>2022-03-17T14:34:11.297Z</time></trkpt><trkpt lat="43.40157833" lon="13.17122167"><ele>446.0</ele><time>2022-03-17T14:34:12.313Z</time></trkpt><trkpt lat="43.40155167" lon="13.17119167"><ele>446.0</ele><time>2022-03-17T14:34:13.289Z</time></trkpt><trkpt lat="43.40154" lon="13.171175"><ele>446.0</ele><time>2022-03-17T14:34:14.308Z</time></trkpt><trkpt lat="43.40152667" lon="13.17116"><ele>446.0</ele><time>2022-03-17T14:34:15.285Z</time></trkpt><trkpt lat="43.40152667" lon="13.17116"><ele>446.0</ele><time>2022-03-17T14:34:16.294Z</time></trkpt><trkpt lat="43.4015" lon="13.17113"><ele>447.0</ele><time>2022-03-17T14:34:17.305Z</time></trkpt><trkpt lat="43.4015" lon="13.17113"><ele>447.0</ele><time>2022-03-17T14:34:18.285Z</time></trkpt><trkpt lat="43.401475" lon="13.17109833"><ele>447.0</ele><time>2022-03-17T14:34:19.326Z</time></trkpt><trkpt lat="43.40146167" lon="13.171085"><ele>447.0</ele><time>2022-03-17T14:34:20.292Z</time></trkpt><trkpt lat="43.40146167" lon="13.171085"><ele>447.0</ele><time>2022-03-17T14:34:21.309Z</time></trkpt><trkpt lat="43.40144" lon="13.171055"><ele>448.0</ele><time>2022-03-17T14:34:22.295Z</time></trkpt><trkpt lat="43.40142667" lon="13.17104"><ele>448.0</ele><time>2022-03-17T14:34:23.319Z</time></trkpt><trkpt lat="43.40142667" lon="13.17104"><ele>448.0</ele><time>2022-03-17T14:34:24.292Z</time></trkpt><trkpt lat="43.40140167" lon="13.17100833"><ele>449.0</ele><time>2022-03-17T14:34:25.306Z</time></trkpt><trkpt lat="43.40140167" lon="13.17100833"><ele>449.0</ele><time>2022-03-17T14:34:26.294Z</time></trkpt><trkpt lat="43.401375" lon="13.17097667"><ele>449.0</ele><time>2022-03-17T14:34:27.308Z</time></trkpt><trkpt lat="43.401375" lon="13.17097667"><ele>449.0</ele><time>2022-03-17T14:34:28.290Z</time></trkpt><trkpt lat="43.40134667" lon="13.17094"><ele>449.0</ele><time>2022-03-17T14:34:29.309Z</time></trkpt><trkpt lat="43.40133333" lon="13.170925"><ele>450.0</ele><time>2022-03-17T14:34:30.286Z</time></trkpt><trkpt lat="43.40133333" lon="13.170925"><ele>450.0</ele><time>2022-03-17T14:34:31.309Z</time></trkpt><trkpt lat="43.40130667" lon="13.17089333"><ele>450.0</ele><time>2022-03-17T14:34:32.299Z</time></trkpt><trkpt lat="43.40130667" lon="13.17089333"><ele>450.0</ele><time>2022-03-17T14:34:33.307Z</time></trkpt><trkpt lat="43.40127833" lon="13.17086167"><ele>450.0</ele><time>2022-03-17T14:34:34.287Z</time></trkpt><trkpt lat="43.40127833" lon="13.17086167"><ele>450.0</ele><time>2022-03-17T14:34:35.299Z</time></trkpt><trkpt lat="43.401255" lon="13.17083333"><ele>451.0</ele><time>2022-03-17T14:34:36.299Z</time></trkpt><trkpt lat="43.401255" lon="13.17083333"><ele>451.0</ele><time>2022-03-17T14:34:37.309Z</time></trkpt><trkpt lat="43.40123" lon="13.170805"><ele>451.0</ele><time>2022-03-17T14:34:38.293Z</time></trkpt><trkpt lat="43.40121667" lon="13.17079167"><ele>451.0</ele><time>2022-03-17T14:34:39.306Z</time></trkpt><trkpt lat="43.40121667" lon="13.17079167"><ele>451.0</ele><time>2022-03-17T14:34:40.312Z</time></trkpt><trkpt lat="43.40119167" lon="13.170765"><ele>452.0</ele><time>2022-03-17T14:34:41.300Z</time></trkpt><trkpt lat="43.40119167" lon="13.170765"><ele>452.0</ele><time>2022-03-17T14:34:42.310Z</time></trkpt><trkpt lat="43.401165" lon="13.17073833"><ele>452.0</ele><time>2022-03-17T14:34:43.296Z</time></trkpt><trkpt lat="43.40115167" lon="13.170725"><ele>452.0</ele><time>2022-03-17T14:34:44.306Z</time></trkpt><trkpt lat="43.40115167" lon="13.170725"><ele>452.0</ele><time>2022-03-17T14:34:45.323Z</time></trkpt><trkpt lat="43.40112167" lon="13.17070167"><ele>453.0</ele><time>2022-03-17T14:34:46.306Z</time></trkpt><trkpt lat="43.40112167" lon="13.17070167"><ele>453.0</ele><time>2022-03-17T14:34:47.290Z</time></trkpt><trkpt lat="43.401095" lon="13.17067833"><ele>453.0</ele><time>2022-03-17T14:34:48.308Z</time></trkpt><trkpt lat="43.40108333" lon="13.17066833"><ele>453.0</ele><time>2022-03-17T14:34:49.299Z</time></trkpt><trkpt lat="43.40107167" lon="13.17065833"><ele>454.0</ele><time>2022-03-17T14:34:50.305Z</time></trkpt><trkpt lat="43.40107167" lon="13.17065833"><ele>454.0</ele><time>2022-03-17T14:34:51.320Z</time></trkpt><trkpt lat="43.40104167" lon="13.17064167"><ele>454.0</ele><time>2022-03-17T14:34:52.288Z</time></trkpt><trkpt lat="43.40104167" lon="13.17064167"><ele>454.0</ele><time>2022-03-17T14:34:53.304Z</time></trkpt><trkpt lat="43.40101" lon="13.170635"><ele>454.0</ele><time>2022-03-17T14:34:54.312Z</time></trkpt><trkpt lat="43.40099167" lon="13.17063667"><ele>454.0</ele><time>2022-03-17T14:34:55.299Z</time></trkpt><trkpt lat="43.400975" lon="13.17063667"><ele>455.0</ele><time>2022-03-17T14:34:56.313Z</time></trkpt><trkpt lat="43.400975" lon="13.17063667"><ele>455.0</ele><time>2022-03-17T14:34:57.289Z</time></trkpt><trkpt lat="43.40094333" lon="13.17063167"><ele>455.0</ele><time>2022-03-17T14:34:58.303Z</time></trkpt><trkpt lat="43.40092667" lon="13.170625"><ele>455.0</ele><time>2022-03-17T14:34:59.302Z</time></trkpt><trkpt lat="43.40092667" lon="13.170625"><ele>455.0</ele><time>2022-03-17T14:35:00.299Z</time></trkpt><trkpt lat="43.40089667" lon="13.170615"><ele>456.0</ele><time>2022-03-17T14:35:01.310Z</time></trkpt><trkpt lat="43.40089667" lon="13.170615"><ele>456.0</ele><time>2022-03-17T14:35:02.284Z</time></trkpt><trkpt lat="43.40086333" lon="13.17060833"><ele>456.0</ele><time>2022-03-17T14:35:03.299Z</time></trkpt><trkpt lat="43.40084667" lon="13.17060333"><ele>456.0</ele><time>2022-03-17T14:35:04.309Z</time></trkpt><trkpt lat="43.40084667" lon="13.17060333"><ele>456.0</ele><time>2022-03-17T14:35:05.284Z</time></trkpt><trkpt lat="43.40081333" lon="13.170595"><ele>457.0</ele><time>2022-03-17T14:35:06.299Z</time></trkpt><trkpt lat="43.40081333" lon="13.170595"><ele>457.0</ele><time>2022-03-17T14:35:07.288Z</time></trkpt><trkpt lat="43.40078" lon="13.17058667"><ele>457.0</ele><time>2022-03-17T14:35:08.302Z</time></trkpt><trkpt lat="43.40078" lon="13.17058667"><ele>457.0</ele><time>2022-03-17T14:35:09.308Z</time></trkpt><trkpt lat="43.400745" lon="13.17058333"><ele>458.0</ele><time>2022-03-17T14:35:10.297Z</time></trkpt><trkpt lat="43.400745" lon="13.17058333"><ele>458.0</ele><time>2022-03-17T14:35:11.313Z</time></trkpt><trkpt lat="43.40071333" lon="13.17057333"><ele>458.0</ele><time>2022-03-17T14:35:12.292Z</time></trkpt><trkpt lat="43.40069667" lon="13.17057167"><ele>458.0</ele><time>2022-03-17T14:35:13.299Z</time></trkpt><trkpt lat="43.40069667" lon="13.17057167"><ele>458.0</ele><time>2022-03-17T14:35:14.320Z</time></trkpt><trkpt lat="43.40066333" lon="13.17056667"><ele>459.0</ele><time>2022-03-17T14:35:15.294Z</time></trkpt><trkpt lat="43.40066333" lon="13.17056667"><ele>459.0</ele><time>2022-03-17T14:35:16.314Z</time></trkpt><trkpt lat="43.40062833" lon="13.170565"><ele>459.0</ele><time>2022-03-17T14:35:17.295Z</time></trkpt><trkpt lat="43.40061167" lon="13.17056333"><ele>459.0</ele><time>2022-03-17T14:35:18.286Z</time></trkpt><trkpt lat="43.40059333" lon="13.17056333"><ele>460.0</ele><time>2022-03-17T14:35:19.292Z</time></trkpt><trkpt lat="43.40059333" lon="13.17056333"><ele>460.0</ele><time>2022-03-17T14:35:20.300Z</time></trkpt><trkpt lat="43.40055833" lon="13.17056167"><ele>460.0</ele><time>2022-03-17T14:35:21.316Z</time></trkpt><trkpt lat="43.40055833" lon="13.17056167"><ele>460.0</ele><time>2022-03-17T14:35:22.287Z</time></trkpt><trkpt lat="43.40052167" lon="13.170565"><ele>461.0</ele><time>2022-03-17T14:35:23.297Z</time></trkpt><trkpt lat="43.40050333" lon="13.17057"><ele>461.0</ele><time>2022-03-17T14:35:24.297Z</time></trkpt><trkpt lat="43.40050333" lon="13.17057"><ele>461.0</ele><time>2022-03-17T14:35:25.322Z</time></trkpt><trkpt lat="43.40047" lon="13.17057"><ele>462.0</ele><time>2022-03-17T14:35:26.318Z</time></trkpt><trkpt lat="43.40047" lon="13.17057"><ele>462.0</ele><time>2022-03-17T14:35:27.322Z</time></trkpt><trkpt lat="43.40043833" lon="13.17057167"><ele>462.0</ele><time>2022-03-17T14:35:28.296Z</time></trkpt><trkpt lat="43.40043833" lon="13.17057167"><ele>462.0</ele><time>2022-03-17T14:35:29.321Z</time></trkpt><trkpt lat="43.40040333" lon="13.17057333"><ele>463.0</ele><time>2022-03-17T14:35:30.291Z</time></trkpt><trkpt lat="43.40040333" lon="13.17057333"><ele>463.0</ele><time>2022-03-17T14:35:31.299Z</time></trkpt><trkpt lat="43.40037167" lon="13.17057667"><ele>463.0</ele><time>2022-03-17T14:35:32.316Z</time></trkpt><trkpt lat="43.40037167" lon="13.17057667"><ele>463.0</ele><time>2022-03-17T14:35:33.285Z</time></trkpt><trkpt lat="43.400335" lon="13.17058833"><ele>463.0</ele><time>2022-03-17T14:35:34.302Z</time></trkpt><trkpt lat="43.400315" lon="13.17059"><ele>463.0</ele><time>2022-03-17T14:35:35.306Z</time></trkpt><trkpt lat="43.400315" lon="13.17059"><ele>463.0</ele><time>2022-03-17T14:35:36.308Z</time></trkpt><trkpt lat="43.40026667" lon="13.17057833"><ele>464.0</ele><time>2022-03-17T14:35:37.289Z</time></trkpt><trkpt lat="43.40024" lon="13.17058"><ele>464.0</ele><time>2022-03-17T14:35:38.317Z</time></trkpt><trkpt lat="43.40024" lon="13.17058"><ele>464.0</ele><time>2022-03-17T14:35:39.324Z</time></trkpt><trkpt lat="43.40018833" lon="13.17059"><ele>463.0</ele><time>2022-03-17T14:35:40.297Z</time></trkpt><trkpt lat="43.40018833" lon="13.17059"><ele>463.0</ele><time>2022-03-17T14:35:41.306Z</time></trkpt><trkpt lat="43.40013667" lon="13.17060667"><ele>463.0</ele><time>2022-03-17T14:35:42.285Z</time></trkpt><trkpt lat="43.40013667" lon="13.17060667"><ele>463.0</ele><time>2022-03-17T14:35:43.306Z</time></trkpt><trkpt lat="43.40007833" lon="13.17062333"><ele>464.0</ele><time>2022-03-17T14:35:44.321Z</time></trkpt><trkpt lat="43.40007833" lon="13.17062333"><ele>464.0</ele><time>2022-03-17T14:35:45.308Z</time></trkpt><trkpt lat="43.40002" lon="13.17063833"><ele>464.0</ele><time>2022-03-17T14:35:46.286Z</time></trkpt><trkpt lat="43.40002" lon="13.17063833"><ele>464.0</ele><time>2022-03-17T14:35:47.300Z</time></trkpt><trkpt lat="43.399955" lon="13.170655"><ele>463.0</ele><time>2022-03-17T14:35:48.315Z</time></trkpt><trkpt lat="43.39992167" lon="13.170665"><ele>463.0</ele><time>2022-03-17T14:35:49.299Z</time></trkpt><trkpt lat="43.39992167" lon="13.170665"><ele>463.0</ele><time>2022-03-17T14:35:50.307Z</time></trkpt><trkpt lat="43.399845" lon="13.170685"><ele>463.0</ele><time>2022-03-17T14:35:51.324Z</time></trkpt><trkpt lat="43.39980333" lon="13.17069667"><ele>463.0</ele><time>2022-03-17T14:35:52.298Z</time></trkpt><trkpt lat="43.39980333" lon="13.17069667"><ele>463.0</ele><time>2022-03-17T14:35:53.308Z</time></trkpt><trkpt lat="43.39971" lon="13.17072833"><ele>461.0</ele><time>2022-03-17T14:35:54.292Z</time></trkpt><trkpt lat="43.39971" lon="13.17072833"><ele>461.0</ele><time>2022-03-17T14:35:55.317Z</time></trkpt><trkpt lat="43.39960833" lon="13.17076167"><ele>459.0</ele><time>2022-03-17T14:35:56.287Z</time></trkpt><trkpt lat="43.39960833" lon="13.17076167"><ele>459.0</ele><time>2022-03-17T14:35:57.296Z</time></trkpt><trkpt lat="43.39949833" lon="13.17079833"><ele>458.0</ele><time>2022-03-17T14:35:58.306Z</time></trkpt><trkpt lat="43.39949833" lon="13.17079833"><ele>458.0</ele><time>2022-03-17T14:35:59.301Z</time></trkpt><trkpt lat="43.39937167" lon="13.17084167"><ele>457.0</ele><time>2022-03-17T14:36:00.316Z</time></trkpt><trkpt lat="43.3993" lon="13.17087"><ele>456.0</ele><time>2022-03-17T14:36:01.292Z</time></trkpt><trkpt lat="43.3993" lon="13.17087"><ele>456.0</ele><time>2022-03-17T14:36:02.299Z</time></trkpt><trkpt lat="43.39915667" lon="13.17093"><ele>455.0</ele><time>2022-03-17T14:36:03.317Z</time></trkpt><trkpt lat="43.39908667" lon="13.17096167"><ele>455.0</ele><time>2022-03-17T14:36:04.286Z</time></trkpt><trkpt lat="43.39901833" lon="13.17099667"><ele>455.0</ele><time>2022-03-17T14:36:05.323Z</time></trkpt><trkpt lat="43.39901833" lon="13.17099667"><ele>455.0</ele><time>2022-03-17T14:36:06.296Z</time></trkpt><trkpt lat="43.39889" lon="13.171065"><ele>455.0</ele><time>2022-03-17T14:36:07.317Z</time></trkpt><trkpt lat="43.39883167" lon="13.17109333"><ele>455.0</ele><time>2022-03-17T14:36:08.297Z</time></trkpt><trkpt lat="43.39883167" lon="13.17109333"><ele>455.0</ele><time>2022-03-17T14:36:09.307Z</time></trkpt><trkpt lat="43.39873" lon="13.17113"><ele>456.0</ele><time>2022-03-17T14:36:10.316Z</time></trkpt><trkpt lat="43.39868833" lon="13.17114"><ele>456.0</ele><time>2022-03-17T14:36:11.303Z</time></trkpt><trkpt lat="43.39868833" lon="13.17114"><ele>456.0</ele><time>2022-03-17T14:36:12.316Z</time></trkpt><trkpt lat="43.39861667" lon="13.17115"><ele>457.0</ele><time>2022-03-17T14:36:13.286Z</time></trkpt><trkpt lat="43.39858333" lon="13.17115167"><ele>457.0</ele><time>2022-03-17T14:36:14.291Z</time></trkpt><trkpt lat="43.39858333" lon="13.17115167"><ele>457.0</ele><time>2022-03-17T14:36:15.301Z</time></trkpt><trkpt lat="43.39852833" lon="13.17114167"><ele>457.0</ele><time>2022-03-17T14:36:16.286Z</time></trkpt><trkpt lat="43.39852833" lon="13.17114167"><ele>457.0</ele><time>2022-03-17T14:36:17.293Z</time></trkpt><trkpt lat="43.39847833" lon="13.17111333"><ele>458.0</ele><time>2022-03-17T14:36:18.325Z</time></trkpt><trkpt lat="43.39845333" lon="13.17109667"><ele>458.0</ele><time>2022-03-17T14:36:19.300Z</time></trkpt><trkpt lat="43.39843167" lon="13.17107833"><ele>458.0</ele><time>2022-03-17T14:36:20.294Z</time></trkpt><trkpt lat="43.39843167" lon="13.17107833"><ele>458.0</ele><time>2022-03-17T14:36:21.302Z</time></trkpt><trkpt lat="43.39838833" lon="13.17103833"><ele>459.0</ele><time>2022-03-17T14:36:22.291Z</time></trkpt><trkpt lat="43.39836333" lon="13.17102"><ele>460.0</ele><time>2022-03-17T14:36:23.296Z</time></trkpt><trkpt lat="43.39836333" lon="13.17102"><ele>460.0</ele><time>2022-03-17T14:36:24.310Z</time></trkpt><trkpt lat="43.398315" lon="13.17098333"><ele>461.0</ele><time>2022-03-17T14:36:25.291Z</time></trkpt><trkpt lat="43.39829333" lon="13.17096167"><ele>461.0</ele><time>2022-03-17T14:36:26.310Z</time></trkpt><trkpt lat="43.39827167" lon="13.17094167"><ele>462.0</ele><time>2022-03-17T14:36:27.318Z</time></trkpt><trkpt lat="43.39827167" lon="13.17094167"><ele>462.0</ele><time>2022-03-17T14:36:28.284Z</time></trkpt><trkpt lat="43.398225" lon="13.17091"><ele>462.0</ele><time>2022-03-17T14:36:29.313Z</time></trkpt><trkpt lat="43.398225" lon="13.17091"><ele>462.0</ele><time>2022-03-17T14:36:30.291Z</time></trkpt><trkpt lat="43.39818333" lon="13.17087167"><ele>463.0</ele><time>2022-03-17T14:36:31.295Z</time></trkpt><trkpt lat="43.39815833" lon="13.170855"><ele>463.0</ele><time>2022-03-17T14:36:32.316Z</time></trkpt><trkpt lat="43.39815833" lon="13.170855"><ele>463.0</ele><time>2022-03-17T14:36:33.323Z</time></trkpt><trkpt lat="43.39811" lon="13.170825"><ele>463.0</ele><time>2022-03-17T14:36:34.296Z</time></trkpt><trkpt lat="43.39811" lon="13.170825"><ele>463.0</ele><time>2022-03-17T14:36:35.309Z</time></trkpt><trkpt lat="43.39807" lon="13.17078"><ele>463.0</ele><time>2022-03-17T14:36:36.303Z</time></trkpt><trkpt lat="43.39805167" lon="13.17075833"><ele>464.0</ele><time>2022-03-17T14:36:37.295Z</time></trkpt><trkpt lat="43.39805167" lon="13.17075833"><ele>464.0</ele><time>2022-03-17T14:36:38.300Z</time></trkpt><trkpt lat="43.39801" lon="13.17073833"><ele>465.0</ele><time>2022-03-17T14:36:39.306Z</time></trkpt><trkpt lat="43.39801" lon="13.17073833"><ele>465.0</ele><time>2022-03-17T14:36:40.307Z</time></trkpt><trkpt lat="43.39796333" lon="13.17071333"><ele>465.0</ele><time>2022-03-17T14:36:41.318Z</time></trkpt><trkpt lat="43.39796333" lon="13.17071333"><ele>465.0</ele><time>2022-03-17T14:36:42.289Z</time></trkpt><trkpt lat="43.39792333" lon="13.17067333"><ele>465.0</ele><time>2022-03-17T14:36:43.289Z</time></trkpt><trkpt lat="43.39790333" lon="13.17065167"><ele>465.0</ele><time>2022-03-17T14:36:44.317Z</time></trkpt><trkpt lat="43.39790333" lon="13.17065167"><ele>465.0</ele><time>2022-03-17T14:36:45.284Z</time></trkpt><trkpt lat="43.39786167" lon="13.170615"><ele>464.0</ele><time>2022-03-17T14:36:46.306Z</time></trkpt><trkpt lat="43.39786167" lon="13.170615"><ele>464.0</ele><time>2022-03-17T14:36:47.312Z</time></trkpt><trkpt lat="43.39782167" lon="13.17058"><ele>464.0</ele><time>2022-03-17T14:36:48.293Z</time></trkpt><trkpt lat="43.39780167" lon="13.17055833"><ele>464.0</ele><time>2022-03-17T14:36:49.298Z</time></trkpt><trkpt lat="43.39780167" lon="13.17055833"><ele>464.0</ele><time>2022-03-17T14:36:50.307Z</time></trkpt><trkpt lat="43.39776167" lon="13.17051333"><ele>465.0</ele><time>2022-03-17T14:36:51.321Z</time></trkpt><trkpt lat="43.39776167" lon="13.17051333"><ele>465.0</ele><time>2022-03-17T14:36:52.294Z</time></trkpt><trkpt lat="43.397725" lon="13.17048333"><ele>465.0</ele><time>2022-03-17T14:36:53.289Z</time></trkpt><trkpt lat="43.397725" lon="13.17048333"><ele>465.0</ele><time>2022-03-17T14:36:54.323Z</time></trkpt><trkpt lat="43.39769667" lon="13.170445"><ele>467.0</ele><time>2022-03-17T14:36:55.294Z</time></trkpt><trkpt lat="43.39768167" lon="13.170425"><ele>467.0</ele><time>2022-03-17T14:36:56.318Z</time></trkpt><trkpt lat="43.39768167" lon="13.170425"><ele>467.0</ele><time>2022-03-17T14:36:57.288Z</time></trkpt><trkpt lat="43.39765833" lon="13.17038"><ele>469.0</ele><time>2022-03-17T14:36:58.319Z</time></trkpt><trkpt lat="43.39765833" lon="13.17038"><ele>469.0</ele><time>2022-03-17T14:36:59.290Z</time></trkpt><trkpt lat="43.39762833" lon="13.170345"><ele>471.0</ele><time>2022-03-17T14:37:00.308Z</time></trkpt><trkpt lat="43.39762833" lon="13.170345"><ele>471.0</ele><time>2022-03-17T14:37:01.313Z</time></trkpt><trkpt lat="43.39759167" lon="13.17030833"><ele>471.0</ele><time>2022-03-17T14:37:02.291Z</time></trkpt><trkpt lat="43.39759167" lon="13.17030833"><ele>471.0</ele><time>2022-03-17T14:37:03.306Z</time></trkpt><trkpt lat="43.397555" lon="13.17027667"><ele>472.0</ele><time>2022-03-17T14:37:04.286Z</time></trkpt><trkpt lat="43.397555" lon="13.17027667"><ele>472.0</ele><time>2022-03-17T14:37:05.314Z</time></trkpt><trkpt lat="43.39752167" lon="13.17024"><ele>472.0</ele><time>2022-03-17T14:37:06.294Z</time></trkpt><trkpt lat="43.39752167" lon="13.17024"><ele>472.0</ele><time>2022-03-17T14:37:07.303Z</time></trkpt><trkpt lat="43.39748833" lon="13.17020167"><ele>472.0</ele><time>2022-03-17T14:37:08.304Z</time></trkpt><trkpt lat="43.39748833" lon="13.17020167"><ele>472.0</ele><time>2022-03-17T14:37:09.321Z</time></trkpt><trkpt lat="43.39745333" lon="13.17016667"><ele>473.0</ele><time>2022-03-17T14:37:10.301Z</time></trkpt><trkpt lat="43.39745333" lon="13.17016667"><ele>473.0</ele><time>2022-03-17T14:37:11.310Z</time></trkpt><trkpt lat="43.397425" lon="13.17012833"><ele>473.0</ele><time>2022-03-17T14:37:12.292Z</time></trkpt><trkpt lat="43.397425" lon="13.17012833"><ele>473.0</ele><time>2022-03-17T14:37:13.300Z</time></trkpt><trkpt lat="43.39739833" lon="13.1701"><ele>474.0</ele><time>2022-03-17T14:37:14.323Z</time></trkpt><trkpt lat="43.39739833" lon="13.1701"><ele>474.0</ele><time>2022-03-17T14:37:15.310Z</time></trkpt><trkpt lat="43.397395" lon="13.170095"><ele>474.0</ele><time>2022-03-17T14:37:16.285Z</time></trkpt><trkpt lat="43.39739333" lon="13.1701"><ele>474.0</ele><time>2022-03-17T14:37:17.312Z</time></trkpt><trkpt lat="43.39739333" lon="13.17010167"><ele>474.0</ele><time>2022-03-17T14:37:18.312Z</time></trkpt><trkpt lat="43.39736" lon="13.170105"><ele>473.0</ele><time>2022-03-17T14:37:19.298Z</time></trkpt><trkpt lat="43.39736" lon="13.170105"><ele>473.0</ele><time>2022-03-17T14:37:20.291Z</time></trkpt><trkpt lat="43.39732167" lon="13.170095"><ele>473.0</ele><time>2022-03-17T14:37:21.291Z</time></trkpt><trkpt lat="43.39732167" lon="13.170095"><ele>473.0</ele><time>2022-03-17T14:37:22.289Z</time></trkpt><trkpt lat="43.397275" lon="13.17007333"><ele>473.0</ele><time>2022-03-17T14:37:23.296Z</time></trkpt><trkpt lat="43.397275" lon="13.17007333"><ele>473.0</ele><time>2022-03-17T14:37:24.288Z</time></trkpt><trkpt lat="43.39721833" lon="13.17004"><ele>472.0</ele><time>2022-03-17T14:37:25.297Z</time></trkpt><trkpt lat="43.39718667" lon="13.170025"><ele>472.0</ele><time>2022-03-17T14:37:26.311Z</time></trkpt><trkpt lat="43.39718667" lon="13.170025"><ele>472.0</ele><time>2022-03-17T14:37:27.303Z</time></trkpt><trkpt lat="43.39712333" lon="13.16999833"><ele>471.0</ele><time>2022-03-17T14:37:28.317Z</time></trkpt><trkpt lat="43.39712333" lon="13.16999833"><ele>471.0</ele><time>2022-03-17T14:37:29.285Z</time></trkpt><trkpt lat="43.39704167" lon="13.16997333"><ele>471.0</ele><time>2022-03-17T14:37:30.295Z</time></trkpt><trkpt lat="43.39704167" lon="13.16997333"><ele>471.0</ele><time>2022-03-17T14:37:31.305Z</time></trkpt><trkpt lat="43.39694833" lon="13.169945"><ele>470.0</ele><time>2022-03-17T14:37:32.320Z</time></trkpt><trkpt lat="43.39694833" lon="13.169945"><ele>470.0</ele><time>2022-03-17T14:37:33.287Z</time></trkpt><trkpt lat="43.39685" lon="13.16988667"><ele>469.0</ele><time>2022-03-17T14:37:34.303Z</time></trkpt><trkpt lat="43.39685" lon="13.16988667"><ele>469.0</ele><time>2022-03-17T14:37:35.286Z</time></trkpt><trkpt lat="43.39675333" lon="13.16981667"><ele>468.0</ele><time>2022-03-17T14:37:36.300Z</time></trkpt><trkpt lat="43.39675333" lon="13.16981667"><ele>468.0</ele><time>2022-03-17T14:37:37.286Z</time></trkpt><trkpt lat="43.39664667" lon="13.16974667"><ele>466.0</ele><time>2022-03-17T14:37:38.314Z</time></trkpt><trkpt lat="43.39664667" lon="13.16974667"><ele>466.0</ele><time>2022-03-17T14:37:39.305Z</time></trkpt><trkpt lat="43.39654333" lon="13.16968"><ele>465.0</ele><time>2022-03-17T14:37:40.315Z</time></trkpt><trkpt lat="43.39649167" lon="13.169645"><ele>465.0</ele><time>2022-03-17T14:37:41.289Z</time></trkpt><trkpt lat="43.39649167" lon="13.169645"><ele>465.0</ele><time>2022-03-17T14:37:42.298Z</time></trkpt><trkpt lat="43.39640167" lon="13.169585"><ele>464.0</ele><time>2022-03-17T14:37:43.288Z</time></trkpt><trkpt lat="43.39635833" lon="13.16955667"><ele>464.0</ele><time>2022-03-17T14:37:44.312Z</time></trkpt><trkpt lat="43.39631333" lon="13.16953"><ele>463.0</ele><time>2022-03-17T14:37:45.306Z</time></trkpt><trkpt lat="43.39631333" lon="13.16953"><ele>463.0</ele><time>2022-03-17T14:37:46.312Z</time></trkpt><trkpt lat="43.39622833" lon="13.16948167"><ele>462.0</ele><time>2022-03-17T14:37:47.300Z</time></trkpt><trkpt lat="43.39622833" lon="13.16948167"><ele>462.0</ele><time>2022-03-17T14:37:48.286Z</time></trkpt><trkpt lat="43.39615333" lon="13.16945667"><ele>461.0</ele><time>2022-03-17T14:37:49.301Z</time></trkpt><trkpt lat="43.39611333" lon="13.16944667"><ele>461.0</ele><time>2022-03-17T14:37:50.300Z</time></trkpt><trkpt lat="43.39611333" lon="13.16944667"><ele>461.0</ele><time>2022-03-17T14:37:51.315Z</time></trkpt><trkpt lat="43.396025" lon="13.16944833"><ele>459.0</ele><time>2022-03-17T14:37:52.300Z</time></trkpt><trkpt lat="43.396025" lon="13.16944833"><ele>459.0</ele><time>2022-03-17T14:37:53.293Z</time></trkpt><trkpt lat="43.39592833" lon="13.16943"><ele>457.0</ele><time>2022-03-17T14:37:54.320Z</time></trkpt><trkpt lat="43.39592833" lon="13.16943"><ele>457.0</ele><time>2022-03-17T14:37:55.289Z</time></trkpt><trkpt lat="43.39581333" lon="13.16938333"><ele>457.0</ele><time>2022-03-17T14:37:56.311Z</time></trkpt><trkpt lat="43.39581333" lon="13.16938333"><ele>457.0</ele><time>2022-03-17T14:37:57.288Z</time></trkpt><trkpt lat="43.395705" lon="13.1693"><ele>456.0</ele><time>2022-03-17T14:37:58.302Z</time></trkpt><trkpt lat="43.395705" lon="13.1693"><ele>456.0</ele><time>2022-03-17T14:37:59.305Z</time></trkpt><trkpt lat="43.395605" lon="13.169205"><ele>456.0</ele><time>2022-03-17T14:38:00.318Z</time></trkpt><trkpt lat="43.39556" lon="13.16915667"><ele>456.0</ele><time>2022-03-17T14:38:01.307Z</time></trkpt><trkpt lat="43.39556" lon="13.16915667"><ele>456.0</ele><time>2022-03-17T14:38:02.321Z</time></trkpt><trkpt lat="43.39548" lon="13.16907167"><ele>456.0</ele><time>2022-03-17T14:38:03.314Z</time></trkpt><trkpt lat="43.39548" lon="13.16907167"><ele>456.0</ele><time>2022-03-17T14:38:04.309Z</time></trkpt><trkpt lat="43.39540667" lon="13.16900167"><ele>456.0</ele><time>2022-03-17T14:38:05.298Z</time></trkpt><trkpt lat="43.39537167" lon="13.16897333"><ele>455.0</ele><time>2022-03-17T14:38:06.293Z</time></trkpt><trkpt lat="43.39537167" lon="13.16897333"><ele>455.0</ele><time>2022-03-17T14:38:07.303Z</time></trkpt><trkpt lat="43.3953" lon="13.16891667"><ele>455.0</ele><time>2022-03-17T14:38:08.291Z</time></trkpt><trkpt lat="43.3953" lon="13.16891667"><ele>455.0</ele><time>2022-03-17T14:38:09.298Z</time></trkpt><trkpt lat="43.39524" lon="13.168855"><ele>455.0</ele><time>2022-03-17T14:38:10.312Z</time></trkpt><trkpt lat="43.39521" lon="13.16882333"><ele>455.0</ele><time>2022-03-17T14:38:11.287Z</time></trkpt><trkpt lat="43.39521" lon="13.16882333"><ele>455.0</ele><time>2022-03-17T14:38:12.293Z</time></trkpt><trkpt lat="43.39514833" lon="13.16876333"><ele>455.0</ele><time>2022-03-17T14:38:13.313Z</time></trkpt><trkpt lat="43.39511833" lon="13.16873333"><ele>455.0</ele><time>2022-03-17T14:38:14.287Z</time></trkpt><trkpt lat="43.39511833" lon="13.16873333"><ele>455.0</ele><time>2022-03-17T14:38:15.302Z</time></trkpt><trkpt lat="43.39506167" lon="13.168675"><ele>455.0</ele><time>2022-03-17T14:38:16.285Z</time></trkpt><trkpt lat="43.395035" lon="13.16865"><ele>455.0</ele><time>2022-03-17T14:38:17.305Z</time></trkpt><trkpt lat="43.395035" lon="13.16865"><ele>455.0</ele><time>2022-03-17T14:38:18.294Z</time></trkpt><trkpt lat="43.39498333" lon="13.16860167"><ele>455.0</ele><time>2022-03-17T14:38:19.284Z</time></trkpt><trkpt lat="43.39495667" lon="13.16857667"><ele>455.0</ele><time>2022-03-17T14:38:20.308Z</time></trkpt><trkpt lat="43.39495667" lon="13.16857667"><ele>455.0</ele><time>2022-03-17T14:38:21.320Z</time></trkpt><trkpt lat="43.39490667" lon="13.16853833"><ele>456.0</ele><time>2022-03-17T14:38:22.297Z</time></trkpt><trkpt lat="43.39490667" lon="13.16853833"><ele>456.0</ele><time>2022-03-17T14:38:23.309Z</time></trkpt><trkpt lat="43.39485667" lon="13.1685"><ele>457.0</ele><time>2022-03-17T14:38:24.305Z</time></trkpt><trkpt lat="43.39483333" lon="13.16848833"><ele>457.0</ele><time>2022-03-17T14:38:25.287Z</time></trkpt><trkpt lat="43.39483333" lon="13.16848833"><ele>457.0</ele><time>2022-03-17T14:38:26.288Z</time></trkpt><trkpt lat="43.39479" lon="13.16848"><ele>457.0</ele><time>2022-03-17T14:38:27.295Z</time></trkpt><trkpt lat="43.39479" lon="13.16848"><ele>457.0</ele><time>2022-03-17T14:38:28.302Z</time></trkpt><trkpt lat="43.39478333" lon="13.16847667"><ele>457.0</ele><time>2022-03-17T14:38:29.294Z</time></trkpt><trkpt lat="43.39478" lon="13.168475"><ele>457.0</ele><time>2022-03-17T14:38:30.321Z</time></trkpt><trkpt lat="43.39478" lon="13.168475"><ele>457.0</ele><time>2022-03-17T14:38:31.290Z</time></trkpt><trkpt lat="43.39476833" lon="13.16842333"><ele>460.0</ele><time>2022-03-17T14:38:32.323Z</time></trkpt><trkpt lat="43.39476833" lon="13.16842333"><ele>460.0</ele><time>2022-03-17T14:38:33.284Z</time></trkpt><trkpt lat="43.39463167" lon="13.16849667"><ele>458.0</ele><time>2022-03-17T14:38:34.298Z</time></trkpt><trkpt lat="43.39460667" lon="13.168505"><ele>458.0</ele><time>2022-03-17T14:38:35.284Z</time></trkpt><trkpt lat="43.39460667" lon="13.168505"><ele>458.0</ele><time>2022-03-17T14:38:36.286Z</time></trkpt><trkpt lat="43.394555" lon="13.16853833"><ele>458.0</ele><time>2022-03-17T14:38:37.314Z</time></trkpt><trkpt lat="43.394555" lon="13.16853833"><ele>458.0</ele><time>2022-03-17T14:38:38.311Z</time></trkpt><trkpt lat="43.394495" lon="13.16857833"><ele>458.0</ele><time>2022-03-17T14:38:39.322Z</time></trkpt><trkpt lat="43.394495" lon="13.16857833"><ele>458.0</ele><time>2022-03-17T14:38:40.288Z</time></trkpt><trkpt lat="43.39443333" lon="13.16861667"><ele>457.0</ele><time>2022-03-17T14:38:41.296Z</time></trkpt><trkpt lat="43.39443333" lon="13.16861667"><ele>457.0</ele><time>2022-03-17T14:38:42.306Z</time></trkpt><trkpt lat="43.39436667" lon="13.16866333"><ele>457.0</ele><time>2022-03-17T14:38:43.314Z</time></trkpt><trkpt lat="43.39436667" lon="13.16866333"><ele>457.0</ele><time>2022-03-17T14:38:44.290Z</time></trkpt><trkpt lat="43.39429667" lon="13.16870833"><ele>457.0</ele><time>2022-03-17T14:38:45.305Z</time></trkpt><trkpt lat="43.39429667" lon="13.16870833"><ele>457.0</ele><time>2022-03-17T14:38:46.312Z</time></trkpt><trkpt lat="43.39422667" lon="13.16875"><ele>457.0</ele><time>2022-03-17T14:38:47.284Z</time></trkpt><trkpt lat="43.39419667" lon="13.16877"><ele>457.0</ele><time>2022-03-17T14:38:48.317Z</time></trkpt><trkpt lat="43.39419667" lon="13.16877"><ele>457.0</ele><time>2022-03-17T14:38:49.313Z</time></trkpt><trkpt lat="43.39414167" lon="13.16881"><ele>457.0</ele><time>2022-03-17T14:38:50.286Z</time></trkpt><trkpt lat="43.39414167" lon="13.16881"><ele>457.0</ele><time>2022-03-17T14:38:51.295Z</time></trkpt><trkpt lat="43.39410167" lon="13.16884333"><ele>456.0</ele><time>2022-03-17T14:38:52.314Z</time></trkpt><trkpt lat="43.394085" lon="13.16885833"><ele>456.0</ele><time>2022-03-17T14:38:53.310Z</time></trkpt><trkpt lat="43.39406833" lon="13.16886333"><ele>456.0</ele><time>2022-03-17T14:38:54.287Z</time></trkpt><trkpt lat="43.39406833" lon="13.16886333"><ele>456.0</ele><time>2022-03-17T14:38:55.294Z</time></trkpt><trkpt lat="43.39406" lon="13.168845"><ele>456.0</ele><time>2022-03-17T14:38:56.306Z</time></trkpt><trkpt lat="43.39406" lon="13.168845"><ele>456.0</ele><time>2022-03-17T14:38:57.315Z</time></trkpt><trkpt lat="43.39410333" lon="13.16882333"><ele>456.0</ele><time>2022-03-17T14:38:58.320Z</time></trkpt><trkpt lat="43.39413333" lon="13.168805"><ele>456.0</ele><time>2022-03-17T14:38:59.290Z</time></trkpt><trkpt lat="43.39413333" lon="13.168805"><ele>456.0</ele><time>2022-03-17T14:39:00.300Z</time></trkpt><trkpt lat="43.39420333" lon="13.16877"><ele>456.0</ele><time>2022-03-17T14:39:01.288Z</time></trkpt><trkpt lat="43.39424667" lon="13.168745"><ele>456.0</ele><time>2022-03-17T14:39:02.318Z</time></trkpt><trkpt lat="43.39424667" lon="13.168745"><ele>456.0</ele><time>2022-03-17T14:39:03.297Z</time></trkpt><trkpt lat="43.39432667" lon="13.16868833"><ele>456.0</ele><time>2022-03-17T14:39:04.318Z</time></trkpt><trkpt lat="43.394365" lon="13.16866333"><ele>456.0</ele><time>2022-03-17T14:39:05.305Z</time></trkpt><trkpt lat="43.394365" lon="13.16866333"><ele>456.0</ele><time>2022-03-17T14:39:06.312Z</time></trkpt><trkpt lat="43.39444" lon="13.16861833"><ele>455.0</ele><time>2022-03-17T14:39:07.287Z</time></trkpt><trkpt lat="43.394475" lon="13.16859333"><ele>455.0</ele><time>2022-03-17T14:39:08.304Z</time></trkpt><trkpt lat="43.394475" lon="13.16859333"><ele>455.0</ele><time>2022-03-17T14:39:09.312Z</time></trkpt><trkpt lat="43.39453833" lon="13.16854667"><ele>455.0</ele><time>2022-03-17T14:39:10.288Z</time></trkpt><trkpt lat="43.39453833" lon="13.16854667"><ele>455.0</ele><time>2022-03-17T14:39:11.302Z</time></trkpt><trkpt lat="43.3946" lon="13.16850167"><ele>455.0</ele><time>2022-03-17T14:39:12.294Z</time></trkpt><trkpt lat="43.39463167" lon="13.16848167"><ele>454.0</ele><time>2022-03-17T14:39:13.317Z</time></trkpt><trkpt lat="43.39466333" lon="13.16846"><ele>454.0</ele><time>2022-03-17T14:39:14.295Z</time></trkpt><trkpt lat="43.39466333" lon="13.16846"><ele>454.0</ele><time>2022-03-17T14:39:15.300Z</time></trkpt><trkpt lat="43.39472667" lon="13.16842333"><ele>454.0</ele><time>2022-03-17T14:39:16.321Z</time></trkpt><trkpt lat="43.39472667" lon="13.16842333"><ele>454.0</ele><time>2022-03-17T14:39:17.296Z</time></trkpt><trkpt lat="43.39478833" lon="13.16838833"><ele>454.0</ele><time>2022-03-17T14:39:18.324Z</time></trkpt><trkpt lat="43.39478833" lon="13.16838833"><ele>454.0</ele><time>2022-03-17T14:39:19.291Z</time></trkpt><trkpt lat="43.39485167" lon="13.16835667"><ele>455.0</ele><time>2022-03-17T14:39:20.309Z</time></trkpt><trkpt lat="43.39485167" lon="13.16835667"><ele>455.0</ele><time>2022-03-17T14:39:21.286Z</time></trkpt><trkpt lat="43.39490833" lon="13.168335"><ele>455.0</ele><time>2022-03-17T14:39:22.315Z</time></trkpt><trkpt lat="43.39490833" lon="13.168335"><ele>455.0</ele><time>2022-03-17T14:39:23.323Z</time></trkpt><trkpt lat="43.394965" lon="13.16832333"><ele>456.0</ele><time>2022-03-17T14:39:24.302Z</time></trkpt><trkpt lat="43.394995" lon="13.16832"><ele>456.0</ele><time>2022-03-17T14:39:25.284Z</time></trkpt><trkpt lat="43.394995" lon="13.16832"><ele>456.0</ele><time>2022-03-17T14:39:26.313Z</time></trkpt><trkpt lat="43.39504333" lon="13.16830667"><ele>457.0</ele><time>2022-03-17T14:39:27.287Z</time></trkpt><trkpt lat="43.39504333" lon="13.16830667"><ele>457.0</ele><time>2022-03-17T14:39:28.312Z</time></trkpt><trkpt lat="43.395045" lon="13.168255"><ele>457.0</ele><time>2022-03-17T14:39:29.320Z</time></trkpt><trkpt lat="43.39503167" lon="13.16822333"><ele>457.0</ele><time>2022-03-17T14:39:30.292Z</time></trkpt><trkpt lat="43.39503167" lon="13.16822333"><ele>457.0</ele><time>2022-03-17T14:39:31.312Z</time></trkpt><trkpt lat="43.39500333" lon="13.168165"><ele>458.0</ele><time>2022-03-17T14:39:32.300Z</time></trkpt><trkpt lat="43.39500333" lon="13.168165"><ele>458.0</ele><time>2022-03-17T14:39:33.313Z</time></trkpt><trkpt lat="43.39498" lon="13.16809"><ele>458.0</ele><time>2022-03-17T14:39:34.285Z</time></trkpt><trkpt lat="43.394975" lon="13.16804833"><ele>459.0</ele><time>2022-03-17T14:39:35.321Z</time></trkpt><trkpt lat="43.394975" lon="13.16804833"><ele>459.0</ele><time>2022-03-17T14:39:36.293Z</time></trkpt><trkpt lat="43.39496167" lon="13.16797"><ele>459.0</ele><time>2022-03-17T14:39:37.297Z</time></trkpt><trkpt lat="43.39496167" lon="13.16797"><ele>459.0</ele><time>2022-03-17T14:39:38.304Z</time></trkpt><trkpt lat="43.39495" lon="13.16789333"><ele>459.0</ele><time>2022-03-17T14:39:39.323Z</time></trkpt><trkpt lat="43.394945" lon="13.16785833"><ele>460.0</ele><time>2022-03-17T14:39:40.306Z</time></trkpt><trkpt lat="43.394945" lon="13.16785833"><ele>460.0</ele><time>2022-03-17T14:39:41.319Z</time></trkpt><trkpt lat="43.39493333" lon="13.16778667"><ele>460.0</ele><time>2022-03-17T14:39:42.286Z</time></trkpt><trkpt lat="43.394925" lon="13.16775167"><ele>461.0</ele><time>2022-03-17T14:39:43.312Z</time></trkpt><trkpt lat="43.394925" lon="13.16775167"><ele>461.0</ele><time>2022-03-17T14:39:44.290Z</time></trkpt><trkpt lat="43.39490167" lon="13.167685"><ele>462.0</ele><time>2022-03-17T14:39:45.308Z</time></trkpt><trkpt lat="43.39490167" lon="13.167685"><ele>462.0</ele><time>2022-03-17T14:39:46.317Z</time></trkpt><trkpt lat="43.394875" lon="13.16761333"><ele>462.0</ele><time>2022-03-17T14:39:47.323Z</time></trkpt><trkpt lat="43.394875" lon="13.16761333"><ele>462.0</ele><time>2022-03-17T14:39:48.292Z</time></trkpt><trkpt lat="43.39483667" lon="13.16755333"><ele>463.0</ele><time>2022-03-17T14:39:49.306Z</time></trkpt><trkpt lat="43.39483667" lon="13.16755333"><ele>463.0</ele><time>2022-03-17T14:39:50.313Z</time></trkpt><trkpt lat="43.39479167" lon="13.16748833"><ele>463.0</ele><time>2022-03-17T14:39:51.290Z</time></trkpt><trkpt lat="43.39479167" lon="13.16748833"><ele>463.0</ele><time>2022-03-17T14:39:52.316Z</time></trkpt><trkpt lat="43.39475333" lon="13.16741167"><ele>464.0</ele><time>2022-03-17T14:39:53.299Z</time></trkpt><trkpt lat="43.39475333" lon="13.16741167"><ele>464.0</ele><time>2022-03-17T14:39:54.307Z</time></trkpt><trkpt lat="43.39471833" lon="13.16732667"><ele>464.0</ele><time>2022-03-17T14:39:55.285Z</time></trkpt><trkpt lat="43.39471833" lon="13.16732667"><ele>464.0</ele><time>2022-03-17T14:39:56.294Z</time></trkpt><trkpt lat="43.3947" lon="13.16723167"><ele>465.0</ele><time>2022-03-17T14:39:57.315Z</time></trkpt><trkpt lat="43.39469" lon="13.16719"><ele>465.0</ele><time>2022-03-17T14:39:58.301Z</time></trkpt><trkpt lat="43.39469" lon="13.16719"><ele>465.0</ele><time>2022-03-17T14:39:59.313Z</time></trkpt><trkpt lat="43.39467333" lon="13.16710667"><ele>464.0</ele><time>2022-03-17T14:40:00.305Z</time></trkpt><trkpt lat="43.39467333" lon="13.16710667"><ele>464.0</ele><time>2022-03-17T14:40:01.320Z</time></trkpt><trkpt lat="43.394655" lon="13.16702167"><ele>464.0</ele><time>2022-03-17T14:40:02.294Z</time></trkpt><trkpt lat="43.394655" lon="13.16702167"><ele>464.0</ele><time>2022-03-17T14:40:03.311Z</time></trkpt><trkpt lat="43.39463" lon="13.16693333"><ele>463.0</ele><time>2022-03-17T14:40:04.284Z</time></trkpt><trkpt lat="43.39461667" lon="13.16689"><ele>462.0</ele><time>2022-03-17T14:40:05.302Z</time></trkpt><trkpt lat="43.39461667" lon="13.16689"><ele>462.0</ele><time>2022-03-17T14:40:06.319Z</time></trkpt><trkpt lat="43.39458333" lon="13.166805"><ele>462.0</ele><time>2022-03-17T14:40:07.296Z</time></trkpt><trkpt lat="43.39458333" lon="13.166805"><ele>462.0</ele><time>2022-03-17T14:40:08.304Z</time></trkpt><trkpt lat="43.39456167" lon="13.16676667"><ele>461.0</ele><time>2022-03-17T14:40:09.318Z</time></trkpt><trkpt lat="43.39455833" lon="13.16676167"><ele>461.0</ele><time>2022-03-17T14:40:10.293Z</time></trkpt><trkpt lat="43.39455833" lon="13.16676167"><ele>461.0</ele><time>2022-03-17T14:40:11.310Z</time></trkpt><trkpt lat="43.39455333" lon="13.16676167"><ele>460.0</ele><time>2022-03-17T14:41:51.144Z</time></trkpt><trkpt lat="43.39088" lon="13.167995"><ele>408.0</ele><time>2022-03-17T14:41:51.288Z</time></trkpt><trkpt lat="43.39088" lon="13.167995"><ele>408.0</ele><time>2022-03-17T14:41:52.286Z</time></trkpt><trkpt lat="43.39080333" lon="13.168045"><ele>407.0</ele><time>2022-03-17T14:41:53.326Z</time></trkpt><trkpt lat="43.39080333" lon="13.168045"><ele>407.0</ele><time>2022-03-17T14:41:54.313Z</time></trkpt><trkpt lat="43.39075167" lon="13.16807167"><ele>407.0</ele><time>2022-03-17T14:41:55.284Z</time></trkpt><trkpt lat="43.39075167" lon="13.16807167"><ele>407.0</ele><time>2022-03-17T14:41:56.290Z</time></trkpt><trkpt lat="43.39070167" lon="13.16810333"><ele>406.0</ele><time>2022-03-17T14:41:57.300Z</time></trkpt><trkpt lat="43.39070167" lon="13.16810333"><ele>406.0</ele><time>2022-03-17T14:41:58.320Z</time></trkpt><trkpt lat="43.39064167" lon="13.16812167"><ele>405.0</ele><time>2022-03-17T14:41:59.308Z</time></trkpt><trkpt lat="43.39064167" lon="13.16812167"><ele>405.0</ele><time>2022-03-17T14:42:00.315Z</time></trkpt><trkpt lat="43.39059833" lon="13.16813667"><ele>404.0</ele><time>2022-03-17T14:42:01.286Z</time></trkpt><trkpt lat="43.39057333" lon="13.16814167"><ele>404.0</ele><time>2022-03-17T14:42:02.296Z</time></trkpt><trkpt lat="43.39057333" lon="13.16814167"><ele>404.0</ele><time>2022-03-17T14:42:03.312Z</time></trkpt><trkpt lat="43.39051167" lon="13.168145"><ele>403.0</ele><time>2022-03-17T14:42:04.321Z</time></trkpt><trkpt lat="43.39047667" lon="13.16813833"><ele>402.0</ele><time>2022-03-17T14:42:05.294Z</time></trkpt><trkpt lat="43.39047667" lon="13.16813833"><ele>402.0</ele><time>2022-03-17T14:42:06.301Z</time></trkpt><trkpt lat="43.39041167" lon="13.16812833"><ele>401.0</ele><time>2022-03-17T14:42:07.298Z</time></trkpt><trkpt lat="43.39038" lon="13.16812833"><ele>400.0</ele><time>2022-03-17T14:42:08.293Z</time></trkpt><trkpt lat="43.39038" lon="13.16812833"><ele>400.0</ele><time>2022-03-17T14:42:09.299Z</time></trkpt><trkpt lat="43.39033333" lon="13.168125"><ele>399.0</ele><time>2022-03-17T14:42:10.310Z</time></trkpt><trkpt lat="43.39031" lon="13.16812"><ele>398.0</ele><time>2022-03-17T14:42:11.323Z</time></trkpt><trkpt lat="43.39031" lon="13.16812"><ele>398.0</ele><time>2022-03-17T14:42:12.291Z</time></trkpt><trkpt lat="43.39025833" lon="13.16811167"><ele>397.0</ele><time>2022-03-17T14:42:13.303Z</time></trkpt><trkpt lat="43.39023833" lon="13.16810833"><ele>396.0</ele><time>2022-03-17T14:42:14.291Z</time></trkpt><trkpt lat="43.39023833" lon="13.16810833"><ele>396.0</ele><time>2022-03-17T14:42:15.309Z</time></trkpt><trkpt lat="43.39019" lon="13.168095"><ele>394.0</ele><time>2022-03-17T14:42:16.316Z</time></trkpt><trkpt lat="43.39019" lon="13.168095"><ele>394.0</ele><time>2022-03-17T14:42:17.306Z</time></trkpt><trkpt lat="43.39014667" lon="13.16808167"><ele>393.0</ele><time>2022-03-17T14:42:18.284Z</time></trkpt><trkpt lat="43.39014667" lon="13.16808167"><ele>393.0</ele><time>2022-03-17T14:42:19.291Z</time></trkpt><trkpt lat="43.39011" lon="13.16805833"><ele>391.0</ele><time>2022-03-17T14:42:20.308Z</time></trkpt><trkpt lat="43.39008667" lon="13.16805667"><ele>391.0</ele><time>2022-03-17T14:42:21.290Z</time></trkpt><trkpt lat="43.39008667" lon="13.16805667"><ele>391.0</ele><time>2022-03-17T14:42:22.315Z</time></trkpt><trkpt lat="43.390055" lon="13.16803833"><ele>390.0</ele><time>2022-03-17T14:42:23.291Z</time></trkpt><trkpt lat="43.390055" lon="13.16803833"><ele>390.0</ele><time>2022-03-17T14:42:24.313Z</time></trkpt><trkpt lat="43.39001333" lon="13.16800333"><ele>389.0</ele><time>2022-03-17T14:42:25.287Z</time></trkpt><trkpt lat="43.39001333" lon="13.16800333"><ele>389.0</ele><time>2022-03-17T14:42:26.290Z</time></trkpt><trkpt lat="43.38995333" lon="13.16795167"><ele>387.0</ele><time>2022-03-17T14:42:27.284Z</time></trkpt><trkpt lat="43.38995333" lon="13.16795167"><ele>387.0</ele><time>2022-03-17T14:42:28.307Z</time></trkpt><trkpt lat="43.38989" lon="13.16789333"><ele>386.0</ele><time>2022-03-17T14:42:29.287Z</time></trkpt><trkpt lat="43.38986333" lon="13.16787"><ele>385.0</ele><time>2022-03-17T14:42:30.320Z</time></trkpt><trkpt lat="43.38986333" lon="13.16787"><ele>385.0</ele><time>2022-03-17T14:42:31.285Z</time></trkpt><trkpt lat="43.38982833" lon="13.16782667"><ele>384.0</ele><time>2022-03-17T14:42:32.307Z</time></trkpt><trkpt lat="43.38982833" lon="13.16782667"><ele>384.0</ele><time>2022-03-17T14:42:33.318Z</time></trkpt><trkpt lat="43.38979833" lon="13.167805"><ele>382.0</ele><time>2022-03-17T14:42:34.293Z</time></trkpt><trkpt lat="43.38979833" lon="13.167805"><ele>382.0</ele><time>2022-03-17T14:42:35.303Z</time></trkpt><trkpt lat="43.38976667" lon="13.16777167"><ele>380.0</ele><time>2022-03-17T14:42:36.328Z</time></trkpt><trkpt lat="43.38976667" lon="13.16777167"><ele>380.0</ele><time>2022-03-17T14:42:37.301Z</time></trkpt><trkpt lat="43.38973833" lon="13.16772333"><ele>379.0</ele><time>2022-03-17T14:42:38.319Z</time></trkpt><trkpt lat="43.38972333" lon="13.16770667"><ele>377.0</ele><time>2022-03-17T14:42:39.296Z</time></trkpt><trkpt lat="43.38971167" lon="13.16769167"><ele>377.0</ele><time>2022-03-17T14:42:40.286Z</time></trkpt><trkpt lat="43.38971167" lon="13.16769167"><ele>377.0</ele><time>2022-03-17T14:42:41.297Z</time></trkpt><trkpt lat="43.38968" lon="13.16766167"><ele>375.0</ele><time>2022-03-17T14:42:42.321Z</time></trkpt><trkpt lat="43.38966167" lon="13.16764"><ele>374.0</ele><time>2022-03-17T14:42:43.304Z</time></trkpt><trkpt lat="43.38966167" lon="13.16764"><ele>374.0</ele><time>2022-03-17T14:42:44.315Z</time></trkpt><trkpt lat="43.38963" lon="13.16761167"><ele>372.0</ele><time>2022-03-17T14:42:45.308Z</time></trkpt><trkpt lat="43.389605" lon="13.16760833"><ele>371.0</ele><time>2022-03-17T14:42:46.322Z</time></trkpt><trkpt lat="43.389605" lon="13.16760833"><ele>371.0</ele><time>2022-03-17T14:42:47.307Z</time></trkpt><trkpt lat="43.389565" lon="13.16759"><ele>370.0</ele><time>2022-03-17T14:42:48.289Z</time></trkpt><trkpt lat="43.389565" lon="13.16759"><ele>370.0</ele><time>2022-03-17T14:42:49.317Z</time></trkpt><trkpt lat="43.38951833" lon="13.16758333"><ele>368.0</ele><time>2022-03-17T14:42:50.290Z</time></trkpt><trkpt lat="43.38949167" lon="13.16756833"><ele>367.0</ele><time>2022-03-17T14:42:51.323Z</time></trkpt><trkpt lat="43.38949167" lon="13.16756833"><ele>367.0</ele><time>2022-03-17T14:42:52.308Z</time></trkpt><trkpt lat="43.38944167" lon="13.16754167"><ele>365.0</ele><time>2022-03-17T14:42:53.288Z</time></trkpt><trkpt lat="43.38944167" lon="13.16754167"><ele>365.0</ele><time>2022-03-17T14:42:54.294Z</time></trkpt><trkpt lat="43.389375" lon="13.16749167"><ele>363.0</ele><time>2022-03-17T14:42:55.306Z</time></trkpt><trkpt lat="43.389375" lon="13.16749167"><ele>363.0</ele><time>2022-03-17T14:42:56.285Z</time></trkpt><trkpt lat="43.389305" lon="13.16744667"><ele>361.0</ele><time>2022-03-17T14:42:57.311Z</time></trkpt><trkpt lat="43.389305" lon="13.16744667"><ele>361.0</ele><time>2022-03-17T14:42:58.287Z</time></trkpt><trkpt lat="43.38924333" lon="13.16742333"><ele>359.0</ele><time>2022-03-17T14:42:59.298Z</time></trkpt><trkpt lat="43.38924333" lon="13.16742333"><ele>359.0</ele><time>2022-03-17T14:43:00.294Z</time></trkpt><trkpt lat="43.38918667" lon="13.16740667"><ele>357.0</ele><time>2022-03-17T14:43:01.314Z</time></trkpt><trkpt lat="43.38915667" lon="13.16738667"><ele>356.0</ele><time>2022-03-17T14:43:02.312Z</time></trkpt><trkpt lat="43.38912667" lon="13.16736333"><ele>356.0</ele><time>2022-03-17T14:43:03.290Z</time></trkpt><trkpt lat="43.38912667" lon="13.16736333"><ele>356.0</ele><time>2022-03-17T14:43:04.304Z</time></trkpt><trkpt lat="43.38906" lon="13.167335"><ele>354.0</ele><time>2022-03-17T14:43:05.293Z</time></trkpt><trkpt lat="43.38906" lon="13.167335"><ele>354.0</ele><time>2022-03-17T14:43:06.320Z</time></trkpt><trkpt lat="43.38900167" lon="13.16731667"><ele>353.0</ele><time>2022-03-17T14:43:07.291Z</time></trkpt><trkpt lat="43.38897667" lon="13.16731"><ele>352.0</ele><time>2022-03-17T14:43:08.305Z</time></trkpt><trkpt lat="43.38895" lon="13.16730167"><ele>351.0</ele><time>2022-03-17T14:43:09.289Z</time></trkpt><trkpt lat="43.38895" lon="13.16730167"><ele>351.0</ele><time>2022-03-17T14:43:10.314Z</time></trkpt><trkpt lat="43.38890167" lon="13.16728667"><ele>350.0</ele><time>2022-03-17T14:43:11.324Z</time></trkpt><trkpt lat="43.38890167" lon="13.16728667"><ele>350.0</ele><time>2022-03-17T14:43:12.293Z</time></trkpt><trkpt lat="43.38886" lon="13.16726333"><ele>348.0</ele><time>2022-03-17T14:43:13.309Z</time></trkpt><trkpt lat="43.38884" lon="13.16725333"><ele>348.0</ele><time>2022-03-17T14:43:14.321Z</time></trkpt><trkpt lat="43.38884" lon="13.16725333"><ele>348.0</ele><time>2022-03-17T14:43:15.303Z</time></trkpt><trkpt lat="43.388825" lon="13.16725167"><ele>348.0</ele><time>2022-03-17T14:43:16.305Z</time></trkpt><trkpt lat="43.38882167" lon="13.16725333"><ele>349.0</ele><time>2022-03-17T14:43:17.313Z</time></trkpt><trkpt lat="43.38882167" lon="13.16725333"><ele>349.0</ele><time>2022-03-17T14:43:18.317Z</time></trkpt><trkpt lat="43.38882167" lon="13.16725333"><ele>349.0</ele><time>2022-03-17T14:43:19.313Z</time></trkpt><trkpt lat="43.38877833" lon="13.16723"><ele>349.0</ele><time>2022-03-17T14:43:20.303Z</time></trkpt><trkpt lat="43.38877833" lon="13.16723"><ele>349.0</ele><time>2022-03-17T14:43:21.315Z</time></trkpt><trkpt lat="43.38876167" lon="13.16722833"><ele>349.0</ele><time>2022-03-17T14:43:22.289Z</time></trkpt><trkpt lat="43.38876167" lon="13.16722833"><ele>349.0</ele><time>2022-03-17T14:43:23.295Z</time></trkpt><trkpt lat="43.38874667" lon="13.16722333"><ele>349.0</ele><time>2022-03-17T14:43:24.306Z</time></trkpt><trkpt lat="43.38874667" lon="13.16722333"><ele>349.0</ele><time>2022-03-17T14:43:25.317Z</time></trkpt><trkpt lat="43.38873167" lon="13.16721167"><ele>349.0</ele><time>2022-03-17T14:43:26.289Z</time></trkpt><trkpt lat="43.38873167" lon="13.16721167"><ele>349.0</ele><time>2022-03-17T14:43:27.307Z</time></trkpt><trkpt lat="43.388705" lon="13.1672"><ele>349.0</ele><time>2022-03-17T14:43:28.286Z</time></trkpt><trkpt lat="43.388705" lon="13.1672"><ele>349.0</ele><time>2022-03-17T14:43:29.296Z</time></trkpt><trkpt lat="43.38868333" lon="13.16719"><ele>349.0</ele><time>2022-03-17T14:43:30.313Z</time></trkpt><trkpt lat="43.38868333" lon="13.16719"><ele>349.0</ele><time>2022-03-17T14:43:31.322Z</time></trkpt><trkpt lat="43.38867" lon="13.16717167"><ele>349.0</ele><time>2022-03-17T14:43:32.313Z</time></trkpt><trkpt lat="43.38867" lon="13.16717167"><ele>349.0</ele><time>2022-03-17T14:43:33.318Z</time></trkpt><trkpt lat="43.38865833" lon="13.16715333"><ele>349.0</ele><time>2022-03-17T14:43:34.290Z</time></trkpt><trkpt lat="43.38865" lon="13.16715167"><ele>349.0</ele><time>2022-03-17T14:43:35.288Z</time></trkpt><trkpt lat="43.38864167" lon="13.16714667"><ele>349.0</ele><time>2022-03-17T14:43:36.320Z</time></trkpt><trkpt lat="43.38864167" lon="13.16714667"><ele>349.0</ele><time>2022-03-17T14:43:37.287Z</time></trkpt><trkpt lat="43.38862167" lon="13.167145"><ele>349.0</ele><time>2022-03-17T14:43:38.308Z</time></trkpt><trkpt lat="43.38862167" lon="13.167145"><ele>349.0</ele><time>2022-03-17T14:43:39.298Z</time></trkpt><trkpt lat="43.38861" lon="13.167135"><ele>348.0</ele><time>2022-03-17T14:43:40.317Z</time></trkpt><trkpt lat="43.38860667" lon="13.16713"><ele>348.0</ele><time>2022-03-17T14:43:41.299Z</time></trkpt><trkpt lat="43.38860667" lon="13.16713"><ele>348.0</ele><time>2022-03-17T14:43:42.297Z</time></trkpt><trkpt lat="43.388555" lon="13.16703833"><ele>348.0</ele><time>2022-03-17T14:43:43.289Z</time></trkpt><trkpt lat="43.38853667" lon="13.16701"><ele>348.0</ele><time>2022-03-17T14:43:44.317Z</time></trkpt><trkpt lat="43.38853667" lon="13.16701"><ele>348.0</ele><time>2022-03-17T14:43:45.287Z</time></trkpt><trkpt lat="43.38850333" lon="13.16697"><ele>347.0</ele><time>2022-03-17T14:43:46.310Z</time></trkpt><trkpt lat="43.38850333" lon="13.16697"><ele>347.0</ele><time>2022-03-17T14:43:47.297Z</time></trkpt><trkpt lat="43.38846333" lon="13.16693"><ele>347.0</ele><time>2022-03-17T14:43:48.310Z</time></trkpt><trkpt lat="43.38844333" lon="13.16691167"><ele>347.0</ele><time>2022-03-17T14:43:49.290Z</time></trkpt><trkpt lat="43.38844333" lon="13.16691167"><ele>347.0</ele><time>2022-03-17T14:43:50.290Z</time></trkpt><trkpt lat="43.38839833" lon="13.16688"><ele>346.0</ele><time>2022-03-17T14:43:51.306Z</time></trkpt><trkpt lat="43.38837167" lon="13.16685833"><ele>346.0</ele><time>2022-03-17T14:43:52.301Z</time></trkpt><trkpt lat="43.38837167" lon="13.16685833"><ele>346.0</ele><time>2022-03-17T14:43:53.317Z</time></trkpt><trkpt lat="43.38833167" lon="13.16680333"><ele>345.0</ele><time>2022-03-17T14:43:54.285Z</time></trkpt><trkpt lat="43.38833167" lon="13.16680333"><ele>345.0</ele><time>2022-03-17T14:43:55.304Z</time></trkpt><trkpt lat="43.388295" lon="13.16676"><ele>344.0</ele><time>2022-03-17T14:43:56.328Z</time></trkpt><trkpt lat="43.38827667" lon="13.16674"><ele>343.0</ele><time>2022-03-17T14:43:57.308Z</time></trkpt><trkpt lat="43.38827667" lon="13.16674"><ele>343.0</ele><time>2022-03-17T14:43:58.285Z</time></trkpt><trkpt lat="43.38824333" lon="13.16669167"><ele>342.0</ele><time>2022-03-17T14:43:59.299Z</time></trkpt><trkpt lat="43.38824333" lon="13.16669167"><ele>342.0</ele><time>2022-03-17T14:44:00.307Z</time></trkpt><trkpt lat="43.38819833" lon="13.16661167"><ele>341.0</ele><time>2022-03-17T14:44:01.299Z</time></trkpt><trkpt lat="43.38817333" lon="13.16656333"><ele>340.0</ele><time>2022-03-17T14:44:02.295Z</time></trkpt><trkpt lat="43.38817333" lon="13.16656333"><ele>340.0</ele><time>2022-03-17T14:44:03.304Z</time></trkpt><trkpt lat="43.38814" lon="13.166475"><ele>339.0</ele><time>2022-03-17T14:44:04.322Z</time></trkpt><trkpt lat="43.38814" lon="13.166475"><ele>339.0</ele><time>2022-03-17T14:44:05.300Z</time></trkpt><trkpt lat="43.38811833" lon="13.16641333"><ele>338.0</ele><time>2022-03-17T14:44:06.295Z</time></trkpt><trkpt lat="43.38811833" lon="13.16641333"><ele>338.0</ele><time>2022-03-17T14:44:07.299Z</time></trkpt><trkpt lat="43.3881" lon="13.16636333"><ele>337.0</ele><time>2022-03-17T14:44:08.315Z</time></trkpt><trkpt lat="43.3881" lon="13.16636333"><ele>337.0</ele><time>2022-03-17T14:44:09.305Z</time></trkpt><trkpt lat="43.38807667" lon="13.16629667"><ele>336.0</ele><time>2022-03-17T14:44:10.286Z</time></trkpt><trkpt lat="43.38807667" lon="13.16629667"><ele>336.0</ele><time>2022-03-17T14:44:11.307Z</time></trkpt><trkpt lat="43.38804333" lon="13.16623333"><ele>334.0</ele><time>2022-03-17T14:44:12.289Z</time></trkpt><trkpt lat="43.38804333" lon="13.16623333"><ele>334.0</ele><time>2022-03-17T14:44:13.301Z</time></trkpt><trkpt lat="43.38801" lon="13.16617833"><ele>333.0</ele><time>2022-03-17T14:44:14.326Z</time></trkpt><trkpt lat="43.388" lon="13.16615333"><ele>332.0</ele><time>2022-03-17T14:44:15.308Z</time></trkpt><trkpt lat="43.388" lon="13.16615333"><ele>332.0</ele><time>2022-03-17T14:44:16.293Z</time></trkpt><trkpt lat="43.38802167" lon="13.16608833"><ele>331.0</ele><time>2022-03-17T14:44:17.315Z</time></trkpt><trkpt lat="43.38802167" lon="13.16608833"><ele>331.0</ele><time>2022-03-17T14:44:18.300Z</time></trkpt><trkpt lat="43.38807" lon="13.16602"><ele>330.0</ele><time>2022-03-17T14:44:19.318Z</time></trkpt><trkpt lat="43.38807" lon="13.16602"><ele>330.0</ele><time>2022-03-17T14:44:20.299Z</time></trkpt><trkpt lat="43.388115" lon="13.16597667"><ele>329.0</ele><time>2022-03-17T14:44:21.318Z</time></trkpt><trkpt lat="43.388115" lon="13.16597667"><ele>329.0</ele><time>2022-03-17T14:44:22.301Z</time></trkpt><trkpt lat="43.38817333" lon="13.16594833"><ele>328.0</ele><time>2022-03-17T14:44:23.311Z</time></trkpt><trkpt lat="43.38817333" lon="13.16594833"><ele>328.0</ele><time>2022-03-17T14:44:24.316Z</time></trkpt><trkpt lat="43.38824167" lon="13.16593167"><ele>328.0</ele><time>2022-03-17T14:44:25.287Z</time></trkpt><trkpt lat="43.38824167" lon="13.16593167"><ele>328.0</ele><time>2022-03-17T14:44:26.316Z</time></trkpt><trkpt lat="43.38831333" lon="13.16595"><ele>327.0</ele><time>2022-03-17T14:44:27.306Z</time></trkpt><trkpt lat="43.38831333" lon="13.16595"><ele>327.0</ele><time>2022-03-17T14:44:28.287Z</time></trkpt><trkpt lat="43.388385" lon="13.16597167"><ele>327.0</ele><time>2022-03-17T14:44:29.311Z</time></trkpt><trkpt lat="43.388385" lon="13.16597167"><ele>327.0</ele><time>2022-03-17T14:44:30.291Z</time></trkpt><trkpt lat="43.38845667" lon="13.166005"><ele>326.0</ele><time>2022-03-17T14:44:31.287Z</time></trkpt><trkpt lat="43.38845667" lon="13.166005"><ele>326.0</ele><time>2022-03-17T14:44:32.292Z</time></trkpt><trkpt lat="43.388515" lon="13.16604"><ele>325.0</ele><time>2022-03-17T14:44:33.306Z</time></trkpt><trkpt lat="43.388515" lon="13.16604"><ele>325.0</ele><time>2022-03-17T14:44:34.315Z</time></trkpt><trkpt lat="43.38859167" lon="13.16606833"><ele>324.0</ele><time>2022-03-17T14:44:35.312Z</time></trkpt><trkpt lat="43.38859167" lon="13.16606833"><ele>324.0</ele><time>2022-03-17T14:44:36.302Z</time></trkpt><trkpt lat="43.38868167" lon="13.166105"><ele>323.0</ele><time>2022-03-17T14:44:37.319Z</time></trkpt><trkpt lat="43.38873" lon="13.16613"><ele>322.0</ele><time>2022-03-17T14:44:38.302Z</time></trkpt><trkpt lat="43.38873" lon="13.16613"><ele>322.0</ele><time>2022-03-17T14:44:39.288Z</time></trkpt><trkpt lat="43.38883" lon="13.16616"><ele>321.0</ele><time>2022-03-17T14:44:40.312Z</time></trkpt><trkpt lat="43.38883" lon="13.16616"><ele>321.0</ele><time>2022-03-17T14:44:41.311Z</time></trkpt><trkpt lat="43.388935" lon="13.16614833"><ele>320.0</ele><time>2022-03-17T14:44:42.307Z</time></trkpt><trkpt lat="43.388935" lon="13.16614833"><ele>320.0</ele><time>2022-03-17T14:44:43.291Z</time></trkpt><trkpt lat="43.38902833" lon="13.16610667"><ele>318.0</ele><time>2022-03-17T14:44:44.304Z</time></trkpt><trkpt lat="43.38906" lon="13.16608167"><ele>318.0</ele><time>2022-03-17T14:44:45.319Z</time></trkpt><trkpt lat="43.38906" lon="13.16608167"><ele>318.0</ele><time>2022-03-17T14:44:46.287Z</time></trkpt><trkpt lat="43.38906667" lon="13.166015"><ele>317.0</ele><time>2022-03-17T14:44:47.306Z</time></trkpt><trkpt lat="43.38904833" lon="13.166005"><ele>317.0</ele><time>2022-03-17T14:44:48.319Z</time></trkpt><trkpt lat="43.38904833" lon="13.166005"><ele>317.0</ele><time>2022-03-17T14:44:49.312Z</time></trkpt><trkpt lat="43.38902333" lon="13.16601667"><ele>316.0</ele><time>2022-03-17T14:44:50.286Z</time></trkpt><trkpt lat="43.38902333" lon="13.16601667"><ele>316.0</ele><time>2022-03-17T14:44:51.300Z</time></trkpt><trkpt lat="43.38902" lon="13.16603"><ele>316.0</ele><time>2022-03-17T14:44:52.318Z</time></trkpt><trkpt lat="43.38902" lon="13.16603"><ele>316.0</ele><time>2022-03-17T14:44:53.295Z</time></trkpt><trkpt lat="43.38901833" lon="13.16603333"><ele>316.0</ele><time>2022-03-17T14:44:54.319Z</time></trkpt><trkpt lat="43.38893333" lon="13.16610833"><ele>312.0</ele><time>2022-03-17T14:44:55.316Z</time></trkpt><trkpt lat="43.38893333" lon="13.16610833"><ele>312.0</ele><time>2022-03-17T14:44:56.310Z</time></trkpt><trkpt lat="43.38889167" lon="13.1661"><ele>311.0</ele><time>2022-03-17T14:44:57.300Z</time></trkpt><trkpt lat="43.38889167" lon="13.1661"><ele>311.0</ele><time>2022-03-17T14:44:58.296Z</time></trkpt><trkpt lat="43.38884833" lon="13.16607667"><ele>311.0</ele><time>2022-03-17T14:44:59.298Z</time></trkpt><trkpt lat="43.38884833" lon="13.16607667"><ele>311.0</ele><time>2022-03-17T14:45:00.305Z</time></trkpt><trkpt lat="43.38879667" lon="13.16604167"><ele>311.0</ele><time>2022-03-17T14:45:01.284Z</time></trkpt><trkpt lat="43.38879667" lon="13.16604167"><ele>311.0</ele><time>2022-03-17T14:45:02.292Z</time></trkpt><trkpt lat="43.38875167" lon="13.16598833"><ele>311.0</ele><time>2022-03-17T14:45:03.309Z</time></trkpt><trkpt lat="43.38875167" lon="13.16598833"><ele>311.0</ele><time>2022-03-17T14:45:04.291Z</time></trkpt><trkpt lat="43.38869833" lon="13.16591667"><ele>310.0</ele><time>2022-03-17T14:45:05.315Z</time></trkpt><trkpt lat="43.38869833" lon="13.16591667"><ele>310.0</ele><time>2022-03-17T14:45:06.322Z</time></trkpt><trkpt lat="43.388645" lon="13.16586167"><ele>310.0</ele><time>2022-03-17T14:45:07.317Z</time></trkpt><trkpt lat="43.388645" lon="13.16586167"><ele>310.0</ele><time>2022-03-17T14:45:08.285Z</time></trkpt><trkpt lat="43.38857667" lon="13.16579333"><ele>310.0</ele><time>2022-03-17T14:45:09.307Z</time></trkpt><trkpt lat="43.38857667" lon="13.16579333"><ele>310.0</ele><time>2022-03-17T14:45:10.316Z</time></trkpt><trkpt lat="43.38852333" lon="13.16573"><ele>310.0</ele><time>2022-03-17T14:45:11.301Z</time></trkpt><trkpt lat="43.38852333" lon="13.16573"><ele>310.0</ele><time>2022-03-17T14:45:12.308Z</time></trkpt><trkpt lat="43.38846833" lon="13.16567333"><ele>309.0</ele><time>2022-03-17T14:45:13.297Z</time></trkpt><trkpt lat="43.38846833" lon="13.16567333"><ele>309.0</ele><time>2022-03-17T14:45:14.304Z</time></trkpt><trkpt lat="43.38840333" lon="13.16562833"><ele>309.0</ele><time>2022-03-17T14:45:15.291Z</time></trkpt><trkpt lat="43.38840333" lon="13.16562833"><ele>309.0</ele><time>2022-03-17T14:45:16.301Z</time></trkpt><trkpt lat="43.38832833" lon="13.16561333"><ele>309.0</ele><time>2022-03-17T14:45:17.299Z</time></trkpt><trkpt lat="43.38829" lon="13.16560167"><ele>309.0</ele><time>2022-03-17T14:45:18.320Z</time></trkpt><trkpt lat="43.38825" lon="13.16559167"><ele>309.0</ele><time>2022-03-17T14:45:19.305Z</time></trkpt><trkpt lat="43.38825" lon="13.16559167"><ele>309.0</ele><time>2022-03-17T14:45:20.312Z</time></trkpt><trkpt lat="43.388175" lon="13.165565"><ele>309.0</ele><time>2022-03-17T14:45:21.292Z</time></trkpt><trkpt lat="43.388175" lon="13.165565"><ele>309.0</ele><time>2022-03-17T14:45:22.301Z</time></trkpt><trkpt lat="43.38810167" lon="13.16552667"><ele>310.0</ele><time>2022-03-17T14:45:23.286Z</time></trkpt><trkpt lat="43.38810167" lon="13.16552667"><ele>310.0</ele><time>2022-03-17T14:45:24.292Z</time></trkpt><trkpt lat="43.388025" lon="13.16550167"><ele>311.0</ele><time>2022-03-17T14:45:25.318Z</time></trkpt><trkpt lat="43.388025" lon="13.16550167"><ele>311.0</ele><time>2022-03-17T14:45:26.291Z</time></trkpt><trkpt lat="43.38794833" lon="13.165495"><ele>312.0</ele><time>2022-03-17T14:45:27.284Z</time></trkpt><trkpt lat="43.38794833" lon="13.165495"><ele>312.0</ele><time>2022-03-17T14:45:28.291Z</time></trkpt><trkpt lat="43.38788" lon="13.16552333"><ele>313.0</ele><time>2022-03-17T14:45:29.318Z</time></trkpt><trkpt lat="43.38788" lon="13.16552333"><ele>313.0</ele><time>2022-03-17T14:45:30.285Z</time></trkpt><trkpt lat="43.38781333" lon="13.16558667"><ele>313.0</ele><time>2022-03-17T14:45:31.310Z</time></trkpt><trkpt lat="43.38781333" lon="13.16558667"><ele>313.0</ele><time>2022-03-17T14:45:32.290Z</time></trkpt><trkpt lat="43.387765" lon="13.165675"><ele>312.0</ele><time>2022-03-17T14:45:33.295Z</time></trkpt><trkpt lat="43.387765" lon="13.165675"><ele>312.0</ele><time>2022-03-17T14:45:34.302Z</time></trkpt><trkpt lat="43.387715" lon="13.16576833"><ele>312.0</ele><time>2022-03-17T14:45:35.302Z</time></trkpt><trkpt lat="43.38768667" lon="13.16580833"><ele>312.0</ele><time>2022-03-17T14:45:36.323Z</time></trkpt><trkpt lat="43.38765333" lon="13.16584"><ele>311.0</ele><time>2022-03-17T14:45:37.308Z</time></trkpt><trkpt lat="43.38765333" lon="13.16584"><ele>311.0</ele><time>2022-03-17T14:45:38.317Z</time></trkpt><trkpt lat="43.38757" lon="13.165875"><ele>311.0</ele><time>2022-03-17T14:45:39.304Z</time></trkpt><trkpt lat="43.38757" lon="13.165875"><ele>311.0</ele><time>2022-03-17T14:45:40.311Z</time></trkpt><trkpt lat="43.38748333" lon="13.16590333"><ele>310.0</ele><time>2022-03-17T14:45:41.298Z</time></trkpt><trkpt lat="43.38748333" lon="13.16590333"><ele>310.0</ele><time>2022-03-17T14:45:42.289Z</time></trkpt><trkpt lat="43.38739333" lon="13.16595"><ele>308.0</ele><time>2022-03-17T14:45:43.318Z</time></trkpt><trkpt lat="43.38735167" lon="13.16598833"><ele>308.0</ele><time>2022-03-17T14:45:44.302Z</time></trkpt><trkpt lat="43.38735167" lon="13.16598833"><ele>308.0</ele><time>2022-03-17T14:45:45.309Z</time></trkpt><trkpt lat="43.387285" lon="13.16610833"><ele>307.0</ele><time>2022-03-17T14:45:46.315Z</time></trkpt><trkpt lat="43.38727" lon="13.166185"><ele>307.0</ele><time>2022-03-17T14:45:47.301Z</time></trkpt><trkpt lat="43.38727" lon="13.166185"><ele>307.0</ele><time>2022-03-17T14:45:48.308Z</time></trkpt><trkpt lat="43.38727333" lon="13.16636"><ele>305.0</ele><time>2022-03-17T14:45:49.324Z</time></trkpt><trkpt lat="43.38727333" lon="13.16636"><ele>305.0</ele><time>2022-03-17T14:45:50.290Z</time></trkpt><trkpt lat="43.38731" lon="13.16654333"><ele>303.0</ele><time>2022-03-17T14:45:51.315Z</time></trkpt><trkpt lat="43.38733167" lon="13.16663833"><ele>303.0</ele><time>2022-03-17T14:45:52.323Z</time></trkpt><trkpt lat="43.38733167" lon="13.16663833"><ele>303.0</ele><time>2022-03-17T14:45:53.289Z</time></trkpt><trkpt lat="43.38738" lon="13.16683667"><ele>302.0</ele><time>2022-03-17T14:45:54.318Z</time></trkpt><trkpt lat="43.38740167" lon="13.16693833"><ele>301.0</ele><time>2022-03-17T14:45:55.310Z</time></trkpt><trkpt lat="43.38740167" lon="13.16693833"><ele>301.0</ele><time>2022-03-17T14:45:56.317Z</time></trkpt><trkpt lat="43.38744833" lon="13.16713833"><ele>300.0</ele><time>2022-03-17T14:45:57.295Z</time></trkpt><trkpt lat="43.38747" lon="13.16724167"><ele>299.0</ele><time>2022-03-17T14:45:58.311Z</time></trkpt><trkpt lat="43.38747" lon="13.16724167"><ele>299.0</ele><time>2022-03-17T14:45:59.318Z</time></trkpt><trkpt lat="43.38751667" lon="13.16744833"><ele>298.0</ele><time>2022-03-17T14:46:00.299Z</time></trkpt><trkpt lat="43.38754167" lon="13.16755667"><ele>297.0</ele><time>2022-03-17T14:46:01.323Z</time></trkpt><trkpt lat="43.38754167" lon="13.16755667"><ele>297.0</ele><time>2022-03-17T14:46:02.289Z</time></trkpt><trkpt lat="43.38760667" lon="13.16776667"><ele>296.0</ele><time>2022-03-17T14:46:03.315Z</time></trkpt><trkpt lat="43.38764333" lon="13.16786833"><ele>295.0</ele><time>2022-03-17T14:46:04.296Z</time></trkpt><trkpt lat="43.38764333" lon="13.16786833"><ele>295.0</ele><time>2022-03-17T14:46:05.303Z</time></trkpt><trkpt lat="43.387725" lon="13.16805833"><ele>294.0</ele><time>2022-03-17T14:46:06.284Z</time></trkpt><trkpt lat="43.38776667" lon="13.16814167"><ele>293.0</ele><time>2022-03-17T14:46:07.303Z</time></trkpt><trkpt lat="43.38776667" lon="13.16814167"><ele>293.0</ele><time>2022-03-17T14:46:08.310Z</time></trkpt><trkpt lat="43.38783833" lon="13.168275"><ele>292.0</ele><time>2022-03-17T14:46:09.304Z</time></trkpt><trkpt lat="43.38783833" lon="13.168275"><ele>292.0</ele><time>2022-03-17T14:46:10.311Z</time></trkpt><trkpt lat="43.38788667" lon="13.16840167"><ele>291.0</ele><time>2022-03-17T14:46:11.284Z</time></trkpt><trkpt lat="43.38788667" lon="13.16840167"><ele>291.0</ele><time>2022-03-17T14:46:12.293Z</time></trkpt><trkpt lat="43.38795" lon="13.168515"><ele>290.0</ele><time>2022-03-17T14:46:13.323Z</time></trkpt><trkpt lat="43.38795" lon="13.168515"><ele>290.0</ele><time>2022-03-17T14:46:14.290Z</time></trkpt><trkpt lat="43.38801333" lon="13.16863167"><ele>289.0</ele><time>2022-03-17T14:46:15.307Z</time></trkpt><trkpt lat="43.38801333" lon="13.16863167"><ele>289.0</ele><time>2022-03-17T14:46:16.313Z</time></trkpt><trkpt lat="43.38807333" lon="13.16875667"><ele>288.0</ele><time>2022-03-17T14:46:17.314Z</time></trkpt><trkpt lat="43.38810833" lon="13.16881667"><ele>288.0</ele><time>2022-03-17T14:46:18.291Z</time></trkpt><trkpt lat="43.38810833" lon="13.16881667"><ele>288.0</ele><time>2022-03-17T14:46:19.298Z</time></trkpt><trkpt lat="43.38817833" lon="13.16894667"><ele>286.0</ele><time>2022-03-17T14:46:20.284Z</time></trkpt><trkpt lat="43.388215" lon="13.16901"><ele>286.0</ele><time>2022-03-17T14:46:21.314Z</time></trkpt><trkpt lat="43.38825167" lon="13.16907167"><ele>286.0</ele><time>2022-03-17T14:46:22.294Z</time></trkpt><trkpt lat="43.38825167" lon="13.16907167"><ele>286.0</ele><time>2022-03-17T14:46:23.303Z</time></trkpt><trkpt lat="43.38831333" lon="13.1692"><ele>285.0</ele><time>2022-03-17T14:46:24.320Z</time></trkpt><trkpt lat="43.38834333" lon="13.16926833"><ele>284.0</ele><time>2022-03-17T14:46:25.301Z</time></trkpt><trkpt lat="43.38834333" lon="13.16926833"><ele>284.0</ele><time>2022-03-17T14:46:26.320Z</time></trkpt><trkpt lat="43.38839833" lon="13.16940167"><ele>283.0</ele><time>2022-03-17T14:46:27.304Z</time></trkpt><trkpt lat="43.38839833" lon="13.16940167"><ele>283.0</ele><time>2022-03-17T14:46:28.311Z</time></trkpt><trkpt lat="43.38846667" lon="13.16952333"><ele>282.0</ele><time>2022-03-17T14:46:29.302Z</time></trkpt><trkpt lat="43.38846667" lon="13.16952333"><ele>282.0</ele><time>2022-03-17T14:46:30.309Z</time></trkpt><trkpt lat="43.388545" lon="13.16965167"><ele>282.0</ele><time>2022-03-17T14:46:31.284Z</time></trkpt><trkpt lat="43.388545" lon="13.16965167"><ele>282.0</ele><time>2022-03-17T14:46:32.291Z</time></trkpt><trkpt lat="43.38862833" lon="13.16978167"><ele>281.0</ele><time>2022-03-17T14:46:33.313Z</time></trkpt><trkpt lat="43.38862833" lon="13.16978167"><ele>281.0</ele><time>2022-03-17T14:46:34.320Z</time></trkpt><trkpt lat="43.388715" lon="13.16991333"><ele>280.0</ele><time>2022-03-17T14:46:35.304Z</time></trkpt><trkpt lat="43.388715" lon="13.16991333"><ele>280.0</ele><time>2022-03-17T14:46:36.312Z</time></trkpt><trkpt lat="43.388805" lon="13.17003833"><ele>280.0</ele><time>2022-03-17T14:46:37.291Z</time></trkpt><trkpt lat="43.388805" lon="13.17003833"><ele>280.0</ele><time>2022-03-17T14:46:38.320Z</time></trkpt><trkpt lat="43.38889667" lon="13.17017"><ele>279.0</ele><time>2022-03-17T14:46:39.309Z</time></trkpt><trkpt lat="43.38889667" lon="13.17017"><ele>279.0</ele><time>2022-03-17T14:46:40.316Z</time></trkpt><trkpt lat="43.38898667" lon="13.17030833"><ele>278.0</ele><time>2022-03-17T14:46:41.298Z</time></trkpt><trkpt lat="43.38898667" lon="13.17030833"><ele>278.0</ele><time>2022-03-17T14:46:42.304Z</time></trkpt><trkpt lat="43.38907667" lon="13.17043333"><ele>278.0</ele><time>2022-03-17T14:46:43.289Z</time></trkpt><trkpt lat="43.38907667" lon="13.17043333"><ele>278.0</ele><time>2022-03-17T14:46:44.299Z</time></trkpt><trkpt lat="43.389175" lon="13.17054667"><ele>277.0</ele><time>2022-03-17T14:46:45.300Z</time></trkpt><trkpt lat="43.389175" lon="13.17054667"><ele>277.0</ele><time>2022-03-17T14:46:46.293Z</time></trkpt><trkpt lat="43.38926833" lon="13.17067"><ele>276.0</ele><time>2022-03-17T14:46:47.318Z</time></trkpt><trkpt lat="43.38932" lon="13.17073"><ele>276.0</ele><time>2022-03-17T14:46:48.292Z</time></trkpt><trkpt lat="43.38937167" lon="13.17079833"><ele>276.0</ele><time>2022-03-17T14:46:49.315Z</time></trkpt><trkpt lat="43.38937167" lon="13.17079833"><ele>276.0</ele><time>2022-03-17T14:46:50.321Z</time></trkpt><trkpt lat="43.38947333" lon="13.17094"><ele>275.0</ele><time>2022-03-17T14:46:51.309Z</time></trkpt><trkpt lat="43.38947333" lon="13.17094"><ele>275.0</ele><time>2022-03-17T14:46:52.316Z</time></trkpt><trkpt lat="43.38958167" lon="13.17107"><ele>274.0</ele><time>2022-03-17T14:46:53.288Z</time></trkpt><trkpt lat="43.38958167" lon="13.17107"><ele>274.0</ele><time>2022-03-17T14:46:54.303Z</time></trkpt><trkpt lat="43.38968833" lon="13.17119167"><ele>274.0</ele><time>2022-03-17T14:46:55.319Z</time></trkpt><trkpt lat="43.38968833" lon="13.17119167"><ele>274.0</ele><time>2022-03-17T14:46:56.286Z</time></trkpt><trkpt lat="43.389805" lon="13.171295"><ele>273.0</ele><time>2022-03-17T14:46:57.309Z</time></trkpt><trkpt lat="43.38986" lon="13.17134167"><ele>273.0</ele><time>2022-03-17T14:46:58.320Z</time></trkpt><trkpt lat="43.38986" lon="13.17134167"><ele>273.0</ele><time>2022-03-17T14:46:59.287Z</time></trkpt><trkpt lat="43.38996833" lon="13.17141333"><ele>272.0</ele><time>2022-03-17T14:47:00.317Z</time></trkpt><trkpt lat="43.39002667" lon="13.17145167"><ele>272.0</ele><time>2022-03-17T14:47:01.291Z</time></trkpt><trkpt lat="43.39002667" lon="13.17145167"><ele>272.0</ele><time>2022-03-17T14:47:02.301Z</time></trkpt><trkpt lat="43.390145" lon="13.17151167"><ele>272.0</ele><time>2022-03-17T14:47:03.286Z</time></trkpt><trkpt lat="43.390145" lon="13.17151167"><ele>272.0</ele><time>2022-03-17T14:47:04.293Z</time></trkpt><trkpt lat="43.39026" lon="13.17156667"><ele>272.0</ele><time>2022-03-17T14:47:05.284Z</time></trkpt><trkpt lat="43.39026" lon="13.17156667"><ele>272.0</ele><time>2022-03-17T14:47:06.290Z</time></trkpt><trkpt lat="43.39037833" lon="13.17161"><ele>272.0</ele><time>2022-03-17T14:47:07.306Z</time></trkpt><trkpt lat="43.39037833" lon="13.17161"><ele>272.0</ele><time>2022-03-17T14:47:08.289Z</time></trkpt><trkpt lat="43.39048833" lon="13.17168167"><ele>272.0</ele><time>2022-03-17T14:47:09.314Z</time></trkpt><trkpt lat="43.39048833" lon="13.17168167"><ele>272.0</ele><time>2022-03-17T14:47:10.321Z</time></trkpt><trkpt lat="43.390595" lon="13.17176167"><ele>272.0</ele><time>2022-03-17T14:47:11.298Z</time></trkpt><trkpt lat="43.390595" lon="13.17176167"><ele>272.0</ele><time>2022-03-17T14:47:12.304Z</time></trkpt><trkpt lat="43.39070667" lon="13.171835"><ele>271.0</ele><time>2022-03-17T14:47:13.287Z</time></trkpt><trkpt lat="43.39070667" lon="13.171835"><ele>271.0</ele><time>2022-03-17T14:47:14.310Z</time></trkpt><trkpt lat="43.39081167" lon="13.17191833"><ele>271.0</ele><time>2022-03-17T14:47:15.294Z</time></trkpt><trkpt lat="43.39081167" lon="13.17191833"><ele>271.0</ele><time>2022-03-17T14:47:16.302Z</time></trkpt><trkpt lat="43.39091667" lon="13.172015"><ele>271.0</ele><time>2022-03-17T14:47:17.302Z</time></trkpt><trkpt lat="43.39091667" lon="13.172015"><ele>271.0</ele><time>2022-03-17T14:47:18.311Z</time></trkpt><trkpt lat="43.39102333" lon="13.17210833"><ele>271.0</ele><time>2022-03-17T14:47:19.296Z</time></trkpt><trkpt lat="43.39102333" lon="13.17210833"><ele>271.0</ele><time>2022-03-17T14:47:20.289Z</time></trkpt><trkpt lat="43.39112667" lon="13.17220833"><ele>271.0</ele><time>2022-03-17T14:47:21.295Z</time></trkpt><trkpt lat="43.39112667" lon="13.17220833"><ele>271.0</ele><time>2022-03-17T14:47:22.303Z</time></trkpt><trkpt lat="43.39121667" lon="13.17231667"><ele>270.0</ele><time>2022-03-17T14:47:23.285Z</time></trkpt><trkpt lat="43.39121667" lon="13.17231667"><ele>270.0</ele><time>2022-03-17T14:47:24.293Z</time></trkpt><trkpt lat="43.39131" lon="13.17242333"><ele>270.0</ele><time>2022-03-17T14:47:25.317Z</time></trkpt><trkpt lat="43.39131" lon="13.17242333"><ele>270.0</ele><time>2022-03-17T14:47:26.305Z</time></trkpt><trkpt lat="43.39139167" lon="13.17253167"><ele>270.0</ele><time>2022-03-17T14:47:27.323Z</time></trkpt><trkpt lat="43.39139167" lon="13.17253167"><ele>270.0</ele><time>2022-03-17T14:47:28.291Z</time></trkpt><trkpt lat="43.39147333" lon="13.17263667"><ele>270.0</ele><time>2022-03-17T14:47:29.317Z</time></trkpt><trkpt lat="43.39147333" lon="13.17263667"><ele>270.0</ele><time>2022-03-17T14:47:30.323Z</time></trkpt><trkpt lat="43.39155167" lon="13.17272833"><ele>270.0</ele><time>2022-03-17T14:47:31.320Z</time></trkpt><trkpt lat="43.39155167" lon="13.17272833"><ele>270.0</ele><time>2022-03-17T14:47:32.287Z</time></trkpt><trkpt lat="43.39162833" lon="13.172815"><ele>270.0</ele><time>2022-03-17T14:47:33.306Z</time></trkpt><trkpt lat="43.39162833" lon="13.172815"><ele>270.0</ele><time>2022-03-17T14:47:34.312Z</time></trkpt><trkpt lat="43.39169833" lon="13.17290833"><ele>270.0</ele><time>2022-03-17T14:47:35.298Z</time></trkpt><trkpt lat="43.39173333" lon="13.17295333"><ele>270.0</ele><time>2022-03-17T14:47:36.293Z</time></trkpt><trkpt lat="43.39173333" lon="13.17295333"><ele>270.0</ele><time>2022-03-17T14:47:37.302Z</time></trkpt><trkpt lat="43.39180167" lon="13.17304"><ele>270.0</ele><time>2022-03-17T14:47:38.323Z</time></trkpt><trkpt lat="43.391835" lon="13.17308167"><ele>270.0</ele><time>2022-03-17T14:47:39.306Z</time></trkpt><trkpt lat="43.391835" lon="13.17308167"><ele>270.0</ele><time>2022-03-17T14:47:40.313Z</time></trkpt><trkpt lat="43.39189833" lon="13.17316833"><ele>271.0</ele><time>2022-03-17T14:47:41.318Z</time></trkpt><trkpt lat="43.39193" lon="13.173215"><ele>271.0</ele><time>2022-03-17T14:47:42.292Z</time></trkpt><trkpt lat="43.39195333" lon="13.17327"><ele>271.0</ele><time>2022-03-17T14:47:43.309Z</time></trkpt><trkpt lat="43.39195333" lon="13.17327"><ele>271.0</ele><time>2022-03-17T14:47:44.316Z</time></trkpt><trkpt lat="43.39200667" lon="13.17336667"><ele>271.0</ele><time>2022-03-17T14:47:45.318Z</time></trkpt><trkpt lat="43.39200667" lon="13.17336667"><ele>271.0</ele><time>2022-03-17T14:47:46.284Z</time></trkpt><trkpt lat="43.39206167" lon="13.173465"><ele>271.0</ele><time>2022-03-17T14:47:47.312Z</time></trkpt><trkpt lat="43.39206167" lon="13.173465"><ele>271.0</ele><time>2022-03-17T14:47:48.319Z</time></trkpt><trkpt lat="43.39212167" lon="13.17355333"><ele>271.0</ele><time>2022-03-17T14:47:49.315Z</time></trkpt><trkpt lat="43.39212167" lon="13.17355333"><ele>271.0</ele><time>2022-03-17T14:47:50.321Z</time></trkpt><trkpt lat="43.39217667" lon="13.17365"><ele>272.0</ele><time>2022-03-17T14:47:51.295Z</time></trkpt><trkpt lat="43.39217667" lon="13.17365"><ele>272.0</ele><time>2022-03-17T14:47:52.284Z</time></trkpt><trkpt lat="43.39223167" lon="13.17375"><ele>272.0</ele><time>2022-03-17T14:47:53.304Z</time></trkpt><trkpt lat="43.39223167" lon="13.17375"><ele>272.0</ele><time>2022-03-17T14:47:54.311Z</time></trkpt><trkpt lat="43.39228667" lon="13.17385167"><ele>273.0</ele><time>2022-03-17T14:47:55.297Z</time></trkpt><trkpt lat="43.39228667" lon="13.17385167"><ele>273.0</ele><time>2022-03-17T14:47:56.306Z</time></trkpt><trkpt lat="43.39234333" lon="13.17395333"><ele>273.0</ele><time>2022-03-17T14:47:57.286Z</time></trkpt><trkpt lat="43.39234333" lon="13.17395333"><ele>273.0</ele><time>2022-03-17T14:47:58.293Z</time></trkpt><trkpt lat="43.39240667" lon="13.17405333"><ele>274.0</ele><time>2022-03-17T14:47:59.309Z</time></trkpt><trkpt lat="43.39240667" lon="13.17405333"><ele>274.0</ele><time>2022-03-17T14:48:00.316Z</time></trkpt><trkpt lat="43.39246333" lon="13.17415833"><ele>274.0</ele><time>2022-03-17T14:48:01.300Z</time></trkpt><trkpt lat="43.39246333" lon="13.17415833"><ele>274.0</ele><time>2022-03-17T14:48:02.291Z</time></trkpt><trkpt lat="43.39252333" lon="13.17426333"><ele>274.0</ele><time>2022-03-17T14:48:03.290Z</time></trkpt><trkpt lat="43.39252333" lon="13.17426333"><ele>274.0</ele><time>2022-03-17T14:48:04.297Z</time></trkpt><trkpt lat="43.39258167" lon="13.174375"><ele>275.0</ele><time>2022-03-17T14:48:05.315Z</time></trkpt><trkpt lat="43.39258167" lon="13.174375"><ele>275.0</ele><time>2022-03-17T14:48:06.322Z</time></trkpt><trkpt lat="43.39264167" lon="13.174485"><ele>275.0</ele><time>2022-03-17T14:48:07.307Z</time></trkpt><trkpt lat="43.39264167" lon="13.174485"><ele>275.0</ele><time>2022-03-17T14:48:08.314Z</time></trkpt><trkpt lat="43.392705" lon="13.17460167"><ele>275.0</ele><time>2022-03-17T14:48:09.284Z</time></trkpt><trkpt lat="43.392705" lon="13.17460167"><ele>275.0</ele><time>2022-03-17T14:48:10.291Z</time></trkpt><trkpt lat="43.39276833" lon="13.17471333"><ele>275.0</ele><time>2022-03-17T14:48:11.301Z</time></trkpt><trkpt lat="43.39276833" lon="13.17471333"><ele>275.0</ele><time>2022-03-17T14:48:12.308Z</time></trkpt><trkpt lat="43.39283167" lon="13.174835"><ele>275.0</ele><time>2022-03-17T14:48:13.287Z</time></trkpt><trkpt lat="43.39283167" lon="13.174835"><ele>275.0</ele><time>2022-03-17T14:48:14.296Z</time></trkpt><trkpt lat="43.39289833" lon="13.174955"><ele>275.0</ele><time>2022-03-17T14:48:15.309Z</time></trkpt><trkpt lat="43.39289833" lon="13.174955"><ele>275.0</ele><time>2022-03-17T14:48:16.316Z</time></trkpt><trkpt lat="43.39297333" lon="13.175065"><ele>276.0</ele><time>2022-03-17T14:48:17.294Z</time></trkpt><trkpt lat="43.39300833" lon="13.17512667"><ele>276.0</ele><time>2022-03-17T14:48:18.288Z</time></trkpt><trkpt lat="43.39304167" lon="13.17518667"><ele>276.0</ele><time>2022-03-17T14:48:19.312Z</time></trkpt><trkpt lat="43.39304167" lon="13.17518667"><ele>276.0</ele><time>2022-03-17T14:48:20.318Z</time></trkpt><trkpt lat="43.39310333" lon="13.17531"><ele>276.0</ele><time>2022-03-17T14:48:21.303Z</time></trkpt><trkpt lat="43.39310333" lon="13.17531"><ele>276.0</ele><time>2022-03-17T14:48:22.310Z</time></trkpt><trkpt lat="43.39316667" lon="13.175435"><ele>276.0</ele><time>2022-03-17T14:48:23.284Z</time></trkpt><trkpt lat="43.3932" lon="13.17549833"><ele>276.0</ele><time>2022-03-17T14:48:24.302Z</time></trkpt><trkpt lat="43.39323333" lon="13.17555667"><ele>276.0</ele><time>2022-03-17T14:48:25.315Z</time></trkpt><trkpt lat="43.39323333" lon="13.17555667"><ele>276.0</ele><time>2022-03-17T14:48:26.321Z</time></trkpt><trkpt lat="43.39329833" lon="13.17567667"><ele>277.0</ele><time>2022-03-17T14:48:27.300Z</time></trkpt><trkpt lat="43.39333167" lon="13.17573667"><ele>277.0</ele><time>2022-03-17T14:48:28.318Z</time></trkpt><trkpt lat="43.39336333" lon="13.175795"><ele>277.0</ele><time>2022-03-17T14:48:29.299Z</time></trkpt><trkpt lat="43.39336333" lon="13.175795"><ele>277.0</ele><time>2022-03-17T14:48:30.306Z</time></trkpt><trkpt lat="43.39343" lon="13.17590333"><ele>277.0</ele><time>2022-03-17T14:48:31.284Z</time></trkpt><trkpt lat="43.39343" lon="13.17590333"><ele>277.0</ele><time>2022-03-17T14:48:32.291Z</time></trkpt><trkpt lat="43.393485" lon="13.17601667"><ele>278.0</ele><time>2022-03-17T14:48:33.311Z</time></trkpt><trkpt lat="43.393485" lon="13.17601667"><ele>278.0</ele><time>2022-03-17T14:48:34.318Z</time></trkpt><trkpt lat="43.39354333" lon="13.17613333"><ele>278.0</ele><time>2022-03-17T14:48:35.298Z</time></trkpt><trkpt lat="43.39354333" lon="13.17613333"><ele>278.0</ele><time>2022-03-17T14:48:36.304Z</time></trkpt><trkpt lat="43.39360333" lon="13.17625333"><ele>279.0</ele><time>2022-03-17T14:48:37.295Z</time></trkpt><trkpt lat="43.39360333" lon="13.17625333"><ele>279.0</ele><time>2022-03-17T14:48:38.302Z</time></trkpt><trkpt lat="43.39366833" lon="13.17637167"><ele>279.0</ele><time>2022-03-17T14:48:39.318Z</time></trkpt><trkpt lat="43.39366833" lon="13.17637167"><ele>279.0</ele><time>2022-03-17T14:48:40.284Z</time></trkpt><trkpt lat="43.39374" lon="13.176475"><ele>279.0</ele><time>2022-03-17T14:48:41.312Z</time></trkpt><trkpt lat="43.39374" lon="13.176475"><ele>279.0</ele><time>2022-03-17T14:48:42.319Z</time></trkpt><trkpt lat="43.39380833" lon="13.17656667"><ele>279.0</ele><time>2022-03-17T14:48:43.297Z</time></trkpt><trkpt lat="43.39384" lon="13.17661167"><ele>279.0</ele><time>2022-03-17T14:48:44.288Z</time></trkpt><trkpt lat="43.39384" lon="13.17661167"><ele>279.0</ele><time>2022-03-17T14:48:45.295Z</time></trkpt><trkpt lat="43.39389333" lon="13.176705"><ele>280.0</ele><time>2022-03-17T14:48:46.308Z</time></trkpt><trkpt lat="43.39391" lon="13.176745"><ele>280.0</ele><time>2022-03-17T14:48:47.290Z</time></trkpt><trkpt lat="43.39391" lon="13.176745"><ele>280.0</ele><time>2022-03-17T14:48:48.305Z</time></trkpt><trkpt lat="43.3939" lon="13.17681"><ele>280.0</ele><time>2022-03-17T14:48:49.289Z</time></trkpt><trkpt lat="43.3939" lon="13.17681"><ele>280.0</ele><time>2022-03-17T14:48:50.303Z</time></trkpt><trkpt lat="43.39385333" lon="13.17683667"><ele>279.0</ele><time>2022-03-17T14:48:51.316Z</time></trkpt><trkpt lat="43.39385333" lon="13.17683667"><ele>279.0</ele><time>2022-03-17T14:48:52.323Z</time></trkpt><trkpt lat="43.39381" lon="13.17685167"><ele>279.0</ele><time>2022-03-17T14:48:53.301Z</time></trkpt><trkpt lat="43.39381" lon="13.17685167"><ele>279.0</ele><time>2022-03-17T14:48:54.307Z</time></trkpt><trkpt lat="43.39378333" lon="13.17683667"><ele>279.0</ele><time>2022-03-17T14:48:55.323Z</time></trkpt><trkpt lat="43.39378333" lon="13.17683667"><ele>279.0</ele><time>2022-03-17T14:48:56.290Z</time></trkpt><trkpt lat="43.39377333" lon="13.17683167"><ele>279.0</ele><time>2022-03-17T14:48:57.297Z</time></trkpt><trkpt lat="43.39377333" lon="13.17684"><ele>279.0</ele><time>2022-03-17T14:48:58.303Z</time></trkpt><trkpt lat="43.39377833" lon="13.176845"><ele>279.0</ele><time>2022-03-17T14:48:59.290Z</time></trkpt><trkpt lat="43.39377667" lon="13.17685167"><ele>279.0</ele><time>2022-03-17T14:49:00.293Z</time></trkpt><trkpt lat="43.39369" lon="13.176955"><ele>278.0</ele><time>2022-03-17T14:49:01.321Z</time></trkpt><trkpt lat="43.39366667" lon="13.17696833"><ele>278.0</ele><time>2022-03-17T14:49:02.287Z</time></trkpt><trkpt lat="43.39366667" lon="13.17696833"><ele>278.0</ele><time>2022-03-17T14:49:03.321Z</time></trkpt><trkpt lat="43.393605" lon="13.17696667"><ele>278.0</ele><time>2022-03-17T14:49:04.318Z</time></trkpt><trkpt lat="43.39357333" lon="13.17696167"><ele>278.0</ele><time>2022-03-17T14:49:05.295Z</time></trkpt><trkpt lat="43.39357333" lon="13.17696167"><ele>278.0</ele><time>2022-03-17T14:49:06.303Z</time></trkpt><trkpt lat="43.39351" lon="13.17694667"><ele>277.0</ele><time>2022-03-17T14:49:07.285Z</time></trkpt><trkpt lat="43.39351" lon="13.17694667"><ele>277.0</ele><time>2022-03-17T14:49:08.293Z</time></trkpt><trkpt lat="43.39345333" lon="13.17691833"><ele>277.0</ele><time>2022-03-17T14:49:09.317Z</time></trkpt><trkpt lat="43.39345333" lon="13.17691833"><ele>277.0</ele><time>2022-03-17T14:49:10.287Z</time></trkpt><trkpt lat="43.39338667" lon="13.1769"><ele>277.0</ele><time>2022-03-17T14:49:11.299Z</time></trkpt><trkpt lat="43.39338667" lon="13.1769"><ele>277.0</ele><time>2022-03-17T14:49:12.316Z</time></trkpt><trkpt lat="43.39332667" lon="13.17690833"><ele>277.0</ele><time>2022-03-17T14:49:13.294Z</time></trkpt><trkpt lat="43.39332667" lon="13.17690833"><ele>277.0</ele><time>2022-03-17T14:49:14.320Z</time></trkpt><trkpt lat="43.39327833" lon="13.17692"><ele>277.0</ele><time>2022-03-17T14:49:15.297Z</time></trkpt><trkpt lat="43.39327833" lon="13.17692"><ele>277.0</ele><time>2022-03-17T14:49:16.293Z</time></trkpt><trkpt lat="43.39326167" lon="13.17692833"><ele>277.0</ele><time>2022-03-17T14:49:17.314Z</time></trkpt><trkpt lat="43.39326167" lon="13.17692833"><ele>277.0</ele><time>2022-03-17T14:49:18.288Z</time></trkpt><trkpt lat="43.393255" lon="13.176935"><ele>276.0</ele><time>2022-03-17T14:49:19.308Z</time></trkpt><trkpt lat="43.393255" lon="13.176935"><ele>276.0</ele><time>2022-03-17T14:49:20.294Z</time></trkpt><trkpt lat="43.393165" lon="13.176955"><ele>274.0</ele><time>2022-03-17T14:49:21.291Z</time></trkpt><trkpt lat="43.39314" lon="13.17696"><ele>274.0</ele><time>2022-03-17T14:49:22.295Z</time></trkpt><trkpt lat="43.39314" lon="13.17696"><ele>274.0</ele><time>2022-03-17T14:49:23.302Z</time></trkpt><trkpt lat="43.39308333" lon="13.17697"><ele>273.0</ele><time>2022-03-17T14:49:24.285Z</time></trkpt><trkpt lat="43.39308333" lon="13.17697"><ele>273.0</ele><time>2022-03-17T14:49:25.292Z</time></trkpt><trkpt lat="43.39302833" lon="13.176975"><ele>273.0</ele><time>2022-03-17T14:49:26.302Z</time></trkpt><trkpt lat="43.393005" lon="13.17698333"><ele>273.0</ele><time>2022-03-17T14:49:27.289Z</time></trkpt><trkpt lat="43.39297" lon="13.17699667"><ele>273.0</ele><time>2022-03-17T14:49:28.307Z</time></trkpt><trkpt lat="43.39297" lon="13.17699667"><ele>273.0</ele><time>2022-03-17T14:49:29.314Z</time></trkpt><trkpt lat="43.392905" lon="13.17702333"><ele>272.0</ele><time>2022-03-17T14:49:30.295Z</time></trkpt><trkpt lat="43.39287333" lon="13.17704"><ele>272.0</ele><time>2022-03-17T14:49:31.313Z</time></trkpt><trkpt lat="43.39287333" lon="13.17704"><ele>272.0</ele><time>2022-03-17T14:49:32.320Z</time></trkpt><trkpt lat="43.39281667" lon="13.17706667"><ele>272.0</ele><time>2022-03-17T14:49:33.306Z</time></trkpt><trkpt lat="43.392785" lon="13.17707833"><ele>271.0</ele><time>2022-03-17T14:49:34.289Z</time></trkpt><trkpt lat="43.392785" lon="13.17707833"><ele>271.0</ele><time>2022-03-17T14:49:35.296Z</time></trkpt><trkpt lat="43.39272833" lon="13.17710167"><ele>271.0</ele><time>2022-03-17T14:49:36.305Z</time></trkpt><trkpt lat="43.39272833" lon="13.17710167"><ele>271.0</ele><time>2022-03-17T14:49:37.311Z</time></trkpt><trkpt lat="43.39268" lon="13.177135"><ele>271.0</ele><time>2022-03-17T14:49:38.303Z</time></trkpt><trkpt lat="43.39268" lon="13.177135"><ele>271.0</ele><time>2022-03-17T14:49:39.309Z</time></trkpt><trkpt lat="43.392645" lon="13.17717"><ele>270.0</ele><time>2022-03-17T14:49:40.297Z</time></trkpt><trkpt lat="43.392645" lon="13.17717"><ele>270.0</ele><time>2022-03-17T14:49:41.284Z</time></trkpt><trkpt lat="43.39263167" lon="13.17718333"><ele>270.0</ele><time>2022-03-17T14:49:42.305Z</time></trkpt><trkpt lat="43.39263167" lon="13.17718333"><ele>270.0</ele><time>2022-03-17T14:49:43.312Z</time></trkpt><trkpt lat="43.39262833" lon="13.17718833"><ele>269.0</ele><time>2022-03-17T14:49:44.300Z</time></trkpt><trkpt lat="43.39259333" lon="13.17725"><ele>267.0</ele><time>2022-03-17T14:49:45.289Z</time></trkpt><trkpt lat="43.39259167" lon="13.17725333"><ele>267.0</ele><time>2022-03-17T14:49:46.296Z</time></trkpt><trkpt lat="43.39259167" lon="13.17725333"><ele>267.0</ele><time>2022-03-17T14:49:47.305Z</time></trkpt><trkpt lat="43.39255167" lon="13.17728333"><ele>265.0</ele><time>2022-03-17T14:49:48.295Z</time></trkpt><trkpt lat="43.39255167" lon="13.17728333"><ele>265.0</ele><time>2022-03-17T14:49:49.286Z</time></trkpt><trkpt lat="43.39249667" lon="13.17732833"><ele>264.0</ele><time>2022-03-17T14:49:50.290Z</time></trkpt><trkpt lat="43.39249667" lon="13.17732833"><ele>264.0</ele><time>2022-03-17T14:49:51.289Z</time></trkpt><trkpt lat="43.39249667" lon="13.17732833"><ele>264.0</ele><time>2022-03-17T14:49:52.303Z</time></trkpt><trkpt lat="43.39249667" lon="13.17732833"><ele>264.0</ele><time>2022-03-17T14:49:53.329Z</time></trkpt><trkpt lat="43.39241167" lon="13.17747333"><ele>266.0</ele><time>2022-03-17T14:49:54.328Z</time></trkpt><trkpt lat="43.39241167" lon="13.17747333"><ele>266.0</ele><time>2022-03-17T14:49:55.372Z</time></trkpt><trkpt lat="43.392385" lon="13.17753833"><ele>266.0</ele><time>2022-03-17T14:49:56.295Z</time></trkpt><trkpt lat="43.392385" lon="13.17753833"><ele>266.0</ele><time>2022-03-17T14:49:57.302Z</time></trkpt><trkpt lat="43.39235667" lon="13.17760167"><ele>266.0</ele><time>2022-03-17T14:49:58.321Z</time></trkpt><trkpt lat="43.39235667" lon="13.17760167"><ele>266.0</ele><time>2022-03-17T14:49:59.287Z</time></trkpt><trkpt lat="43.39234" lon="13.17766667"><ele>267.0</ele><time>2022-03-17T14:50:00.299Z</time></trkpt><trkpt lat="43.39234" lon="13.17766667"><ele>267.0</ele><time>2022-03-17T14:50:01.306Z</time></trkpt><trkpt lat="43.39231333" lon="13.177725"><ele>267.0</ele><time>2022-03-17T14:50:02.301Z</time></trkpt><trkpt lat="43.39231333" lon="13.177725"><ele>267.0</ele><time>2022-03-17T14:50:03.304Z</time></trkpt><trkpt lat="43.39228667" lon="13.17776167"><ele>267.0</ele><time>2022-03-17T14:50:04.285Z</time></trkpt><trkpt lat="43.39228667" lon="13.17776167"><ele>267.0</ele><time>2022-03-17T14:50:05.292Z</time></trkpt><trkpt lat="43.392265" lon="13.177775"><ele>267.0</ele><time>2022-03-17T14:50:06.308Z</time></trkpt><trkpt lat="43.39226167" lon="13.17777833"><ele>267.0</ele><time>2022-03-17T14:50:07.303Z</time></trkpt><trkpt lat="43.39226167" lon="13.17777833"><ele>267.0</ele><time>2022-03-17T14:50:08.285Z</time></trkpt><trkpt lat="43.39223667" lon="13.17777333"><ele>266.0</ele><time>2022-03-17T14:50:09.300Z</time></trkpt><trkpt lat="43.39223667" lon="13.17777333"><ele>266.0</ele><time>2022-03-17T14:50:10.310Z</time></trkpt><trkpt lat="43.39219667" lon="13.17777833"><ele>266.0</ele><time>2022-03-17T14:50:11.303Z</time></trkpt><trkpt lat="43.39219667" lon="13.17777833"><ele>266.0</ele><time>2022-03-17T14:50:12.311Z</time></trkpt><trkpt lat="43.39216333" lon="13.177765"><ele>266.0</ele><time>2022-03-17T14:50:13.305Z</time></trkpt><trkpt lat="43.39216333" lon="13.177765"><ele>266.0</ele><time>2022-03-17T14:50:14.317Z</time></trkpt><trkpt lat="43.392155" lon="13.177755"><ele>266.0</ele><time>2022-03-17T14:50:15.291Z</time></trkpt><trkpt lat="43.39215167" lon="13.17775667"><ele>267.0</ele><time>2022-03-17T14:50:16.294Z</time></trkpt><trkpt lat="43.39215167" lon="13.17775667"><ele>267.0</ele><time>2022-03-17T14:50:17.296Z</time></trkpt><trkpt lat="43.39217833" lon="13.177845"><ele>266.0</ele><time>2022-03-17T14:50:18.306Z</time></trkpt><trkpt lat="43.39217833" lon="13.177845"><ele>266.0</ele><time>2022-03-17T14:50:19.284Z</time></trkpt><trkpt lat="43.39218167" lon="13.17788667"><ele>265.0</ele><time>2022-03-17T14:50:20.293Z</time></trkpt><trkpt lat="43.39218167" lon="13.17788667"><ele>265.0</ele><time>2022-03-17T14:50:21.300Z</time></trkpt><trkpt lat="43.39216" lon="13.17792167"><ele>265.0</ele><time>2022-03-17T14:50:22.298Z</time></trkpt><trkpt lat="43.39216" lon="13.17792167"><ele>265.0</ele><time>2022-03-17T14:50:23.309Z</time></trkpt><trkpt lat="43.39216" lon="13.17793667"><ele>265.0</ele><time>2022-03-17T14:50:24.294Z</time></trkpt><trkpt lat="43.39216" lon="13.17793667"><ele>265.0</ele><time>2022-03-17T14:50:25.311Z</time></trkpt><trkpt lat="43.39215667" lon="13.17795833"><ele>265.0</ele><time>2022-03-17T14:50:26.288Z</time></trkpt><trkpt lat="43.39215667" lon="13.17795833"><ele>265.0</ele><time>2022-03-17T14:50:27.313Z</time></trkpt><trkpt lat="43.392155" lon="13.177985"><ele>265.0</ele><time>2022-03-17T14:50:28.291Z</time></trkpt><trkpt lat="43.39215667" lon="13.17799167"><ele>265.0</ele><time>2022-03-17T14:50:29.318Z</time></trkpt><trkpt lat="43.39213167" lon="13.17803833"><ele>265.0</ele><time>2022-03-17T14:50:30.318Z</time></trkpt><trkpt lat="43.392125" lon="13.178045"><ele>265.0</ele><time>2022-03-17T14:50:31.314Z</time></trkpt><trkpt lat="43.392125" lon="13.178045"><ele>265.0</ele><time>2022-03-17T14:50:32.317Z</time></trkpt><trkpt lat="43.39212" lon="13.17806333"><ele>265.0</ele><time>2022-03-17T14:50:33.289Z</time></trkpt><trkpt lat="43.39212" lon="13.17806333"><ele>265.0</ele><time>2022-03-17T14:50:34.295Z</time></trkpt><trkpt lat="43.39211833" lon="13.17807333"><ele>265.0</ele><time>2022-03-17T14:50:35.293Z</time></trkpt><trkpt lat="43.39211167" lon="13.17815167"><ele>266.0</ele><time>2022-03-17T14:50:36.292Z</time></trkpt><trkpt lat="43.39211167" lon="13.17815167"><ele>266.0</ele><time>2022-03-17T14:50:37.291Z</time></trkpt><trkpt lat="43.39210667" lon="13.17814333"><ele>266.0</ele><time>2022-03-17T14:50:38.296Z</time></trkpt><trkpt lat="43.39210667" lon="13.17814333"><ele>266.0</ele><time>2022-03-17T14:50:39.289Z</time></trkpt><trkpt lat="43.39211" lon="13.17813333"><ele>267.0</ele><time>2022-03-17T14:50:40.297Z</time></trkpt><trkpt lat="43.39210833" lon="13.17813167"><ele>266.0</ele><time>2022-03-17T14:50:41.357Z</time></trkpt><trkpt lat="43.39210667" lon="13.178125"><ele>266.0</ele><time>2022-03-17T14:50:42.291Z</time></trkpt><trkpt lat="43.39210667" lon="13.178125"><ele>266.0</ele><time>2022-03-17T14:50:43.315Z</time></trkpt><trkpt lat="43.392115" lon="13.178095"><ele>266.0</ele><time>2022-03-17T14:50:44.342Z</time></trkpt><trkpt lat="43.392125" lon="13.178085"><ele>266.0</ele><time>2022-03-17T14:50:45.319Z</time></trkpt><trkpt lat="43.392125" lon="13.178085"><ele>266.0</ele><time>2022-03-17T14:50:46.293Z</time></trkpt><trkpt lat="43.39213667" lon="13.17806667"><ele>266.0</ele><time>2022-03-17T14:50:47.300Z</time></trkpt><trkpt lat="43.39213667" lon="13.17806667"><ele>266.0</ele><time>2022-03-17T14:50:48.320Z</time></trkpt><trkpt lat="43.39214167" lon="13.17805167"><ele>266.0</ele><time>2022-03-17T14:50:49.343Z</time></trkpt><trkpt lat="43.392145" lon="13.178045"><ele>266.0</ele><time>2022-03-17T14:50:50.304Z</time></trkpt><trkpt lat="43.392145" lon="13.178045"><ele>266.0</ele><time>2022-03-17T14:50:51.300Z</time></trkpt><trkpt lat="43.39215333" lon="13.17803667"><ele>266.0</ele><time>2022-03-17T14:50:52.315Z</time></trkpt><trkpt lat="43.39215333" lon="13.17803667"><ele>266.0</ele><time>2022-03-17T14:50:53.298Z</time></trkpt><trkpt lat="43.39215833" lon="13.17803667"><ele>266.0</ele><time>2022-03-17T14:50:54.414Z</time></trkpt><trkpt lat="43.39215833" lon="13.17803667"><ele>266.0</ele><time>2022-03-17T14:50:55.309Z</time></trkpt><trkpt lat="43.39216" lon="13.17802667"><ele>266.0</ele><time>2022-03-17T14:50:56.284Z</time></trkpt><trkpt lat="43.39216" lon="13.17802667"><ele>266.0</ele><time>2022-03-17T14:50:57.333Z</time></trkpt><trkpt lat="43.39216" lon="13.17802667"><ele>266.0</ele><time>2022-03-17T14:50:58.296Z</time></trkpt><trkpt lat="43.39215167" lon="13.177995"><ele>266.0</ele><time>2022-03-17T14:50:59.306Z</time></trkpt><trkpt lat="43.39215167" lon="13.177995"><ele>266.0</ele><time>2022-03-17T14:51:00.293Z</time></trkpt><trkpt lat="43.39214667" lon="13.17797"><ele>266.0</ele><time>2022-03-17T14:51:01.301Z</time></trkpt><trkpt lat="43.39214667" lon="13.17797"><ele>266.0</ele><time>2022-03-17T14:51:02.287Z</time></trkpt><trkpt lat="43.39214833" lon="13.17794167"><ele>266.0</ele><time>2022-03-17T14:51:03.312Z</time></trkpt><trkpt lat="43.39214833" lon="13.17794167"><ele>266.0</ele><time>2022-03-17T14:51:04.309Z</time></trkpt><trkpt lat="43.39216667" lon="13.17792167"><ele>266.0</ele><time>2022-03-17T14:51:05.284Z</time></trkpt><trkpt lat="43.39217833" lon="13.17791167"><ele>267.0</ele><time>2022-03-17T14:51:06.316Z</time></trkpt><trkpt lat="43.39217833" lon="13.17791167"><ele>267.0</ele><time>2022-03-17T14:51:07.293Z</time></trkpt><trkpt lat="43.39219667" lon="13.17788833"><ele>267.0</ele><time>2022-03-17T14:51:08.305Z</time></trkpt><trkpt lat="43.39220833" lon="13.17787833"><ele>267.0</ele><time>2022-03-17T14:51:09.321Z</time></trkpt><trkpt lat="43.39220833" lon="13.17787833"><ele>267.0</ele><time>2022-03-17T14:51:10.295Z</time></trkpt><trkpt lat="43.39221833" lon="13.177855"><ele>267.0</ele><time>2022-03-17T14:51:11.302Z</time></trkpt><trkpt lat="43.39222167" lon="13.17784167"><ele>267.0</ele><time>2022-03-17T14:51:12.293Z</time></trkpt><trkpt lat="43.39222167" lon="13.17784167"><ele>267.0</ele><time>2022-03-17T14:51:13.288Z</time></trkpt><trkpt lat="43.39222833" lon="13.177815"><ele>268.0</ele><time>2022-03-17T14:51:14.295Z</time></trkpt><trkpt lat="43.39222833" lon="13.177815"><ele>268.0</ele><time>2022-03-17T14:51:15.286Z</time></trkpt><trkpt lat="43.392245" lon="13.17779833"><ele>268.0</ele><time>2022-03-17T14:51:16.338Z</time></trkpt><trkpt lat="43.392245" lon="13.17779833"><ele>268.0</ele><time>2022-03-17T14:51:17.307Z</time></trkpt><trkpt lat="43.39227" lon="13.17779167"><ele>268.0</ele><time>2022-03-17T14:51:18.315Z</time></trkpt><trkpt lat="43.39227" lon="13.17779167"><ele>268.0</ele><time>2022-03-17T14:51:19.299Z</time></trkpt><trkpt lat="43.39228667" lon="13.17776833"><ele>269.0</ele><time>2022-03-17T14:51:20.306Z</time></trkpt><trkpt lat="43.39229667" lon="13.17775333"><ele>269.0</ele><time>2022-03-17T14:51:21.341Z</time></trkpt><trkpt lat="43.39229667" lon="13.17775333"><ele>269.0</ele><time>2022-03-17T14:51:22.298Z</time></trkpt><trkpt lat="43.39231167" lon="13.17772667"><ele>269.0</ele><time>2022-03-17T14:51:23.307Z</time></trkpt><trkpt lat="43.39231833" lon="13.17771667"><ele>269.0</ele><time>2022-03-17T14:51:24.299Z</time></trkpt><trkpt lat="43.39231833" lon="13.17771667"><ele>269.0</ele><time>2022-03-17T14:51:25.287Z</time></trkpt><trkpt lat="43.39232667" lon="13.17769"><ele>269.0</ele><time>2022-03-17T14:51:26.309Z</time></trkpt><trkpt lat="43.39232667" lon="13.17769"><ele>269.0</ele><time>2022-03-17T14:51:27.293Z</time></trkpt><trkpt lat="43.39233833" lon="13.17765333"><ele>269.0</ele><time>2022-03-17T14:51:28.301Z</time></trkpt><trkpt lat="43.39233833" lon="13.17765333"><ele>269.0</ele><time>2022-03-17T14:51:29.286Z</time></trkpt><trkpt lat="43.392345" lon="13.17761833"><ele>269.0</ele><time>2022-03-17T14:51:30.355Z</time></trkpt><trkpt lat="43.392345" lon="13.17761833"><ele>269.0</ele><time>2022-03-17T14:51:31.295Z</time></trkpt><trkpt lat="43.39236167" lon="13.17758667"><ele>269.0</ele><time>2022-03-17T14:51:32.303Z</time></trkpt><trkpt lat="43.39237167" lon="13.17756167"><ele>269.0</ele><time>2022-03-17T14:51:33.287Z</time></trkpt><trkpt lat="43.39237167" lon="13.17756167"><ele>269.0</ele><time>2022-03-17T14:51:34.305Z</time></trkpt><trkpt lat="43.39238833" lon="13.17750167"><ele>270.0</ele><time>2022-03-17T14:51:35.312Z</time></trkpt><trkpt lat="43.392395" lon="13.17746667"><ele>269.0</ele><time>2022-03-17T14:51:36.312Z</time></trkpt><trkpt lat="43.392395" lon="13.17746667"><ele>269.0</ele><time>2022-03-17T14:51:37.315Z</time></trkpt><trkpt lat="43.39241333" lon="13.1774"><ele>269.0</ele><time>2022-03-17T14:51:38.286Z</time></trkpt><trkpt lat="43.39241333" lon="13.1774"><ele>269.0</ele><time>2022-03-17T14:51:39.299Z</time></trkpt><trkpt lat="43.39243" lon="13.17737"><ele>269.0</ele><time>2022-03-17T14:51:40.305Z</time></trkpt><trkpt lat="43.39244167" lon="13.177365"><ele>269.0</ele><time>2022-03-17T14:51:41.290Z</time></trkpt><trkpt lat="43.39244167" lon="13.177365"><ele>269.0</ele><time>2022-03-17T14:51:42.292Z</time></trkpt><trkpt lat="43.39245833" lon="13.177345"><ele>269.0</ele><time>2022-03-17T14:51:43.304Z</time></trkpt><trkpt lat="43.39245833" lon="13.177345"><ele>269.0</ele><time>2022-03-17T14:51:44.289Z</time></trkpt><trkpt lat="43.39246" lon="13.17733167"><ele>269.0</ele><time>2022-03-17T14:51:45.295Z</time></trkpt><trkpt lat="43.39246167" lon="13.17732833"><ele>269.0</ele><time>2022-03-17T14:51:46.343Z</time></trkpt><trkpt lat="43.39246167" lon="13.17732833"><ele>269.0</ele><time>2022-03-17T14:51:47.289Z</time></trkpt><trkpt lat="43.39246167" lon="13.17732833"><ele>269.0</ele><time>2022-03-17T14:51:48.296Z</time></trkpt><trkpt lat="43.39246167" lon="13.17732833"><ele>269.0</ele><time>2022-03-17T14:51:49.302Z</time></trkpt><trkpt lat="43.39246167" lon="13.17732833"><ele>269.0</ele><time>2022-03-17T14:51:50.321Z</time></trkpt><trkpt lat="43.39250333" lon="13.17730333"><ele>266.0</ele><time>2022-03-17T14:51:51.321Z</time></trkpt><trkpt lat="43.39251167" lon="13.17729667"><ele>266.0</ele><time>2022-03-17T14:51:52.313Z</time></trkpt><trkpt lat="43.39251167" lon="13.17729667"><ele>266.0</ele><time>2022-03-17T14:51:53.304Z</time></trkpt><trkpt lat="43.39252333" lon="13.17728833"><ele>266.0</ele><time>2022-03-17T14:51:54.306Z</time></trkpt><trkpt lat="43.39252333" lon="13.17728833"><ele>266.0</ele><time>2022-03-17T14:51:55.321Z</time></trkpt><trkpt lat="43.39253667" lon="13.177285"><ele>266.0</ele><time>2022-03-17T14:51:56.307Z</time></trkpt><trkpt lat="43.39253667" lon="13.177285"><ele>266.0</ele><time>2022-03-17T14:51:57.313Z</time></trkpt><trkpt lat="43.39253833" lon="13.17726667"><ele>266.0</ele><time>2022-03-17T14:51:58.311Z</time></trkpt><trkpt lat="43.39254" lon="13.17725667"><ele>266.0</ele><time>2022-03-17T14:51:59.293Z</time></trkpt><trkpt lat="43.39254333" lon="13.17724833"><ele>265.0</ele><time>2022-03-17T14:52:00.313Z</time></trkpt><trkpt lat="43.39254333" lon="13.17724833"><ele>265.0</ele><time>2022-03-17T14:52:01.319Z</time></trkpt><trkpt lat="43.39255333" lon="13.17724"><ele>265.0</ele><time>2022-03-17T14:52:02.301Z</time></trkpt><trkpt lat="43.39255333" lon="13.17724"><ele>265.0</ele><time>2022-03-17T14:52:03.306Z</time></trkpt><trkpt lat="43.39256167" lon="13.17722167"><ele>265.0</ele><time>2022-03-17T14:52:04.294Z</time></trkpt><trkpt lat="43.392565" lon="13.17721667"><ele>265.0</ele><time>2022-03-17T14:52:05.318Z</time></trkpt><trkpt lat="43.392565" lon="13.17721667"><ele>265.0</ele><time>2022-03-17T14:52:06.287Z</time></trkpt><trkpt lat="43.39257167" lon="13.177205"><ele>265.0</ele><time>2022-03-17T14:52:07.303Z</time></trkpt><trkpt lat="43.39257167" lon="13.177205"><ele>265.0</ele><time>2022-03-17T14:52:08.309Z</time></trkpt><trkpt lat="43.39258" lon="13.17719667"><ele>265.0</ele><time>2022-03-17T14:52:09.324Z</time></trkpt><trkpt lat="43.39258" lon="13.17719667"><ele>265.0</ele><time>2022-03-17T14:52:10.296Z</time></trkpt><trkpt lat="43.39258" lon="13.17719833"><ele>265.0</ele><time>2022-03-17T14:52:11.322Z</time></trkpt><trkpt lat="43.39258" lon="13.17719833"><ele>265.0</ele><time>2022-03-17T14:52:12.309Z</time></trkpt><trkpt lat="43.39258167" lon="13.1772"><ele>265.0</ele><time>2022-03-17T14:52:13.318Z</time></trkpt><trkpt lat="43.39258167" lon="13.1772"><ele>265.0</ele><time>2022-03-17T14:52:14.306Z</time></trkpt><trkpt lat="43.39262333" lon="13.17717333"><ele>265.0</ele><time>2022-03-17T14:52:15.320Z</time></trkpt><trkpt lat="43.39262333" lon="13.17717333"><ele>265.0</ele><time>2022-03-17T14:52:16.318Z</time></trkpt><trkpt lat="43.39263667" lon="13.17715833"><ele>265.0</ele><time>2022-03-17T14:52:17.314Z</time></trkpt><trkpt lat="43.39263667" lon="13.17715833"><ele>265.0</ele><time>2022-03-17T14:52:18.312Z</time></trkpt><trkpt lat="43.392655" lon="13.17714167"><ele>265.0</ele><time>2022-03-17T14:52:19.314Z</time></trkpt><trkpt lat="43.392655" lon="13.17714167"><ele>265.0</ele><time>2022-03-17T14:52:20.320Z</time></trkpt><trkpt lat="43.39267667" lon="13.17712833"><ele>265.0</ele><time>2022-03-17T14:52:21.303Z</time></trkpt><trkpt lat="43.39267667" lon="13.17712833"><ele>265.0</ele><time>2022-03-17T14:52:22.314Z</time></trkpt><trkpt lat="43.392685" lon="13.17711833"><ele>265.0</ele><time>2022-03-17T14:52:23.294Z</time></trkpt><trkpt lat="43.392685" lon="13.17711833"><ele>265.0</ele><time>2022-03-17T14:52:24.300Z</time></trkpt><trkpt lat="43.392685" lon="13.17711167"><ele>265.0</ele><time>2022-03-17T14:52:25.295Z</time></trkpt><trkpt lat="43.39272" lon="13.17707667"><ele>265.0</ele><time>2022-03-17T14:52:26.300Z</time></trkpt><trkpt lat="43.39273167" lon="13.17707333"><ele>265.0</ele><time>2022-03-17T14:52:27.290Z</time></trkpt><trkpt lat="43.39273167" lon="13.17707333"><ele>265.0</ele><time>2022-03-17T14:52:28.285Z</time></trkpt><trkpt lat="43.39275833" lon="13.17706333"><ele>265.0</ele><time>2022-03-17T14:52:29.355Z</time></trkpt><trkpt lat="43.39275833" lon="13.17706333"><ele>265.0</ele><time>2022-03-17T14:52:30.299Z</time></trkpt><trkpt lat="43.39278833" lon="13.17704667"><ele>265.0</ele><time>2022-03-17T14:52:31.308Z</time></trkpt><trkpt lat="43.392805" lon="13.17704333"><ele>265.0</ele><time>2022-03-17T14:52:32.304Z</time></trkpt><trkpt lat="43.392825" lon="13.17703833"><ele>265.0</ele><time>2022-03-17T14:52:33.318Z</time></trkpt><trkpt lat="43.392825" lon="13.17703833"><ele>265.0</ele><time>2022-03-17T14:52:34.317Z</time></trkpt><trkpt lat="43.39286833" lon="13.177025"><ele>266.0</ele><time>2022-03-17T14:52:35.286Z</time></trkpt><trkpt lat="43.39288167" lon="13.17702"><ele>266.0</ele><time>2022-03-17T14:52:36.297Z</time></trkpt><trkpt lat="43.39288167" lon="13.17702"><ele>266.0</ele><time>2022-03-17T14:52:37.315Z</time></trkpt><trkpt lat="43.39291167" lon="13.17700667"><ele>266.0</ele><time>2022-03-17T14:52:38.323Z</time></trkpt><trkpt lat="43.39293333" lon="13.17700167"><ele>266.0</ele><time>2022-03-17T14:52:39.320Z</time></trkpt><trkpt lat="43.39293333" lon="13.17700167"><ele>266.0</ele><time>2022-03-17T14:52:40.305Z</time></trkpt><trkpt lat="43.39296" lon="13.17699167"><ele>267.0</ele><time>2022-03-17T14:52:41.322Z</time></trkpt><trkpt lat="43.39297" lon="13.17699167"><ele>267.0</ele><time>2022-03-17T14:52:42.299Z</time></trkpt><trkpt lat="43.39297" lon="13.17699167"><ele>267.0</ele><time>2022-03-17T14:52:43.318Z</time></trkpt><trkpt lat="43.39301" lon="13.17697833"><ele>268.0</ele><time>2022-03-17T14:52:44.284Z</time></trkpt><trkpt lat="43.393035" lon="13.17696667"><ele>268.0</ele><time>2022-03-17T14:52:45.336Z</time></trkpt><trkpt lat="43.393035" lon="13.17696667"><ele>268.0</ele><time>2022-03-17T14:52:46.319Z</time></trkpt><trkpt lat="43.39306333" lon="13.17696333"><ele>270.0</ele><time>2022-03-17T14:52:47.290Z</time></trkpt><trkpt lat="43.39306333" lon="13.17696333"><ele>270.0</ele><time>2022-03-17T14:52:48.317Z</time></trkpt><trkpt lat="43.39311" lon="13.17695167"><ele>271.0</ele><time>2022-03-17T14:52:49.291Z</time></trkpt><trkpt lat="43.39313667" lon="13.17694"><ele>271.0</ele><time>2022-03-17T14:52:50.293Z</time></trkpt><trkpt lat="43.39316" lon="13.17693167"><ele>271.0</ele><time>2022-03-17T14:52:51.299Z</time></trkpt><trkpt lat="43.39316" lon="13.17693167"><ele>271.0</ele><time>2022-03-17T14:52:52.318Z</time></trkpt><trkpt lat="43.39320167" lon="13.17692333"><ele>272.0</ele><time>2022-03-17T14:52:53.284Z</time></trkpt><trkpt lat="43.39320167" lon="13.17692333"><ele>272.0</ele><time>2022-03-17T14:52:54.307Z</time></trkpt><trkpt lat="43.39325" lon="13.17691167"><ele>273.0</ele><time>2022-03-17T14:52:55.330Z</time></trkpt><trkpt lat="43.39325" lon="13.17691167"><ele>273.0</ele><time>2022-03-17T14:52:56.304Z</time></trkpt><trkpt lat="43.39330333" lon="13.17691167"><ele>274.0</ele><time>2022-03-17T14:52:57.319Z</time></trkpt><trkpt lat="43.39330333" lon="13.17691167"><ele>274.0</ele><time>2022-03-17T14:52:58.293Z</time></trkpt><trkpt lat="43.393365" lon="13.17691667"><ele>275.0</ele><time>2022-03-17T14:52:59.300Z</time></trkpt><trkpt lat="43.39339" lon="13.17691667"><ele>275.0</ele><time>2022-03-17T14:53:00.320Z</time></trkpt><trkpt lat="43.39339" lon="13.17691667"><ele>275.0</ele><time>2022-03-17T14:53:01.312Z</time></trkpt><trkpt lat="43.393435" lon="13.17694333"><ele>275.0</ele><time>2022-03-17T14:53:02.321Z</time></trkpt><trkpt lat="43.393435" lon="13.17694333"><ele>275.0</ele><time>2022-03-17T14:53:03.317Z</time></trkpt><trkpt lat="43.39348667" lon="13.17697333"><ele>275.0</ele><time>2022-03-17T14:53:04.323Z</time></trkpt><trkpt lat="43.39351333" lon="13.17697333"><ele>276.0</ele><time>2022-03-17T14:53:05.313Z</time></trkpt><trkpt lat="43.39351333" lon="13.17697333"><ele>276.0</ele><time>2022-03-17T14:53:06.294Z</time></trkpt><trkpt lat="43.39356333" lon="13.17697167"><ele>277.0</ele><time>2022-03-17T14:53:07.323Z</time></trkpt><trkpt lat="43.39356333" lon="13.17697167"><ele>277.0</ele><time>2022-03-17T14:53:08.284Z</time></trkpt><trkpt lat="43.39360667" lon="13.17696167"><ele>278.0</ele><time>2022-03-17T14:53:09.298Z</time></trkpt><trkpt lat="43.39360667" lon="13.17696167"><ele>278.0</ele><time>2022-03-17T14:53:10.285Z</time></trkpt><trkpt lat="43.39365667" lon="13.17694"><ele>279.0</ele><time>2022-03-17T14:53:11.296Z</time></trkpt><trkpt lat="43.39365667" lon="13.17694"><ele>279.0</ele><time>2022-03-17T14:53:12.315Z</time></trkpt><trkpt lat="43.39369333" lon="13.17691167"><ele>280.0</ele><time>2022-03-17T14:53:13.333Z</time></trkpt><trkpt lat="43.39370667" lon="13.17690167"><ele>280.0</ele><time>2022-03-17T14:53:14.286Z</time></trkpt><trkpt lat="43.39370667" lon="13.17690167"><ele>280.0</ele><time>2022-03-17T14:53:15.306Z</time></trkpt><trkpt lat="43.39373833" lon="13.17688"><ele>281.0</ele><time>2022-03-17T14:53:16.316Z</time></trkpt><trkpt lat="43.39373833" lon="13.17688"><ele>281.0</ele><time>2022-03-17T14:53:17.292Z</time></trkpt><trkpt lat="43.39375" lon="13.17683833"><ele>281.0</ele><time>2022-03-17T14:53:18.311Z</time></trkpt><trkpt lat="43.39375" lon="13.17682"><ele>282.0</ele><time>2022-03-17T14:53:19.289Z</time></trkpt><trkpt lat="43.39376" lon="13.176805"><ele>282.0</ele><time>2022-03-17T14:53:20.318Z</time></trkpt><trkpt lat="43.39377667" lon="13.17680667"><ele>282.0</ele><time>2022-03-17T14:53:21.301Z</time></trkpt><trkpt lat="43.39377667" lon="13.17680667"><ele>282.0</ele><time>2022-03-17T14:53:22.317Z</time></trkpt><trkpt lat="43.393805" lon="13.176845"><ele>282.0</ele><time>2022-03-17T14:53:23.297Z</time></trkpt><trkpt lat="43.393805" lon="13.176845"><ele>282.0</ele><time>2022-03-17T14:53:24.312Z</time></trkpt><trkpt lat="43.393845" lon="13.17684333"><ele>283.0</ele><time>2022-03-17T14:53:25.322Z</time></trkpt><trkpt lat="43.393845" lon="13.17684333"><ele>283.0</ele><time>2022-03-17T14:53:26.293Z</time></trkpt><trkpt lat="43.39388" lon="13.17682167"><ele>284.0</ele><time>2022-03-17T14:53:27.301Z</time></trkpt><trkpt lat="43.39388" lon="13.17682167"><ele>284.0</ele><time>2022-03-17T14:53:28.315Z</time></trkpt><trkpt lat="43.39391" lon="13.176795"><ele>284.0</ele><time>2022-03-17T14:53:29.322Z</time></trkpt><trkpt lat="43.39391" lon="13.176795"><ele>284.0</ele><time>2022-03-17T14:53:30.296Z</time></trkpt><trkpt lat="43.39393667" lon="13.17676833"><ele>284.0</ele><time>2022-03-17T14:53:31.298Z</time></trkpt><trkpt lat="43.39395" lon="13.17676"><ele>284.0</ele><time>2022-03-17T14:53:32.302Z</time></trkpt><trkpt lat="43.39395" lon="13.17676"><ele>284.0</ele><time>2022-03-17T14:53:33.318Z</time></trkpt><trkpt lat="43.39397167" lon="13.17674167"><ele>284.0</ele><time>2022-03-17T14:53:34.285Z</time></trkpt><trkpt lat="43.39397167" lon="13.17674167"><ele>284.0</ele><time>2022-03-17T14:53:35.309Z</time></trkpt><trkpt lat="43.39398333" lon="13.176725"><ele>284.0</ele><time>2022-03-17T14:53:36.334Z</time></trkpt><trkpt lat="43.39398333" lon="13.176725"><ele>284.0</ele><time>2022-03-17T14:53:37.298Z</time></trkpt><trkpt lat="43.39399667" lon="13.17671833"><ele>284.0</ele><time>2022-03-17T14:53:38.310Z</time></trkpt><trkpt lat="43.39399667" lon="13.17671833"><ele>284.0</ele><time>2022-03-17T14:53:39.290Z</time></trkpt><trkpt lat="43.393995" lon="13.17672667"><ele>284.0</ele><time>2022-03-17T14:53:40.296Z</time></trkpt><trkpt lat="43.393995" lon="13.17672667"><ele>284.0</ele><time>2022-03-17T14:53:41.315Z</time></trkpt><trkpt lat="43.393995" lon="13.17672667"><ele>284.0</ele><time>2022-03-17T14:53:42.321Z</time></trkpt><trkpt lat="43.393995" lon="13.17672667"><ele>284.0</ele><time>2022-03-17T14:53:43.289Z</time></trkpt><trkpt lat="43.39399833" lon="13.176765"><ele>283.0</ele><time>2022-03-17T14:53:44.295Z</time></trkpt><trkpt lat="43.393995" lon="13.17678333"><ele>282.0</ele><time>2022-03-17T14:53:45.286Z</time></trkpt><trkpt lat="43.393995" lon="13.17678333"><ele>282.0</ele><time>2022-03-17T14:53:46.323Z</time></trkpt><trkpt lat="43.39401667" lon="13.17684"><ele>282.0</ele><time>2022-03-17T14:53:47.332Z</time></trkpt><trkpt lat="43.39401667" lon="13.17684"><ele>282.0</ele><time>2022-03-17T14:53:48.320Z</time></trkpt><trkpt lat="43.39403667" lon="13.17692333"><ele>281.0</ele><time>2022-03-17T14:53:49.287Z</time></trkpt><trkpt lat="43.39404" lon="13.17697"><ele>281.0</ele><time>2022-03-17T14:53:50.305Z</time></trkpt><trkpt lat="43.39404" lon="13.17697"><ele>281.0</ele><time>2022-03-17T14:53:51.308Z</time></trkpt><trkpt lat="43.39405" lon="13.17706667"><ele>280.0</ele><time>2022-03-17T14:53:52.316Z</time></trkpt><trkpt lat="43.39405" lon="13.17706667"><ele>280.0</ele><time>2022-03-17T14:53:53.297Z</time></trkpt><trkpt lat="43.39405667" lon="13.17715"><ele>280.0</ele><time>2022-03-17T14:53:54.318Z</time></trkpt><trkpt lat="43.39406" lon="13.17718833"><ele>280.0</ele><time>2022-03-17T14:53:55.284Z</time></trkpt><trkpt lat="43.39406" lon="13.17718833"><ele>280.0</ele><time>2022-03-17T14:53:56.302Z</time></trkpt><trkpt lat="43.39406833" lon="13.17726667"><ele>280.0</ele><time>2022-03-17T14:53:57.320Z</time></trkpt><trkpt lat="43.39406833" lon="13.17726667"><ele>280.0</ele><time>2022-03-17T14:53:58.290Z</time></trkpt><trkpt lat="43.39408167" lon="13.17734333"><ele>280.0</ele><time>2022-03-17T14:53:59.310Z</time></trkpt><trkpt lat="43.39409167" lon="13.17737667"><ele>279.0</ele><time>2022-03-17T14:54:00.318Z</time></trkpt><trkpt lat="43.39410167" lon="13.17740833"><ele>279.0</ele><time>2022-03-17T14:54:01.292Z</time></trkpt><trkpt lat="43.39411" lon="13.17744"><ele>279.0</ele><time>2022-03-17T14:54:02.321Z</time></trkpt><trkpt lat="43.39411" lon="13.17744"><ele>279.0</ele><time>2022-03-17T14:54:03.300Z</time></trkpt><trkpt lat="43.39413" lon="13.17750667"><ele>279.0</ele><time>2022-03-17T14:54:04.322Z</time></trkpt><trkpt lat="43.39414167" lon="13.17754"><ele>279.0</ele><time>2022-03-17T14:54:05.336Z</time></trkpt><trkpt lat="43.39414167" lon="13.17754"><ele>279.0</ele><time>2022-03-17T14:54:06.316Z</time></trkpt><trkpt lat="43.39415833" lon="13.17760167"><ele>278.0</ele><time>2022-03-17T14:54:07.285Z</time></trkpt><trkpt lat="43.394175" lon="13.17762667"><ele>278.0</ele><time>2022-03-17T14:54:08.301Z</time></trkpt><trkpt lat="43.394175" lon="13.17762667"><ele>278.0</ele><time>2022-03-17T14:54:09.298Z</time></trkpt><trkpt lat="43.39420333" lon="13.17768833"><ele>277.0</ele><time>2022-03-17T14:54:10.306Z</time></trkpt><trkpt lat="43.39420333" lon="13.17768833"><ele>277.0</ele><time>2022-03-17T14:54:11.296Z</time></trkpt><trkpt lat="43.39423" lon="13.177745"><ele>277.0</ele><time>2022-03-17T14:54:12.303Z</time></trkpt><trkpt lat="43.39423" lon="13.177745"><ele>277.0</ele><time>2022-03-17T14:54:13.317Z</time></trkpt><trkpt lat="43.39426167" lon="13.177805"><ele>277.0</ele><time>2022-03-17T14:54:14.286Z</time></trkpt><trkpt lat="43.39427667" lon="13.17783667"><ele>277.0</ele><time>2022-03-17T14:54:15.297Z</time></trkpt><trkpt lat="43.39427667" lon="13.17783667"><ele>277.0</ele><time>2022-03-17T14:54:16.314Z</time></trkpt><trkpt lat="43.39431167" lon="13.17790167"><ele>276.0</ele><time>2022-03-17T14:54:17.322Z</time></trkpt><trkpt lat="43.39431167" lon="13.17790167"><ele>276.0</ele><time>2022-03-17T14:54:18.304Z</time></trkpt><trkpt lat="43.39435" lon="13.17796667"><ele>276.0</ele><time>2022-03-17T14:54:19.372Z</time></trkpt><trkpt lat="43.39435" lon="13.17796667"><ele>276.0</ele><time>2022-03-17T14:54:20.311Z</time></trkpt><trkpt lat="43.39439" lon="13.17803667"><ele>276.0</ele><time>2022-03-17T14:54:21.318Z</time></trkpt><trkpt lat="43.39439" lon="13.17803667"><ele>276.0</ele><time>2022-03-17T14:54:22.316Z</time></trkpt><trkpt lat="43.394435" lon="13.17811167"><ele>275.0</ele><time>2022-03-17T14:54:23.286Z</time></trkpt><trkpt lat="43.394435" lon="13.17811167"><ele>275.0</ele><time>2022-03-17T14:54:24.284Z</time></trkpt><trkpt lat="43.39447833" lon="13.17819"><ele>275.0</ele><time>2022-03-17T14:54:25.295Z</time></trkpt><trkpt lat="43.3945" lon="13.17822833"><ele>275.0</ele><time>2022-03-17T14:54:26.320Z</time></trkpt><trkpt lat="43.39452" lon="13.178265"><ele>275.0</ele><time>2022-03-17T14:54:27.287Z</time></trkpt><trkpt lat="43.39452" lon="13.178265"><ele>275.0</ele><time>2022-03-17T14:54:28.321Z</time></trkpt><trkpt lat="43.39456667" lon="13.178335"><ele>275.0</ele><time>2022-03-17T14:54:29.289Z</time></trkpt><trkpt lat="43.39456667" lon="13.178335"><ele>275.0</ele><time>2022-03-17T14:54:30.320Z</time></trkpt><trkpt lat="43.39461" lon="13.17841167"><ele>275.0</ele><time>2022-03-17T14:54:31.286Z</time></trkpt><trkpt lat="43.39461" lon="13.17841167"><ele>275.0</ele><time>2022-03-17T14:54:32.319Z</time></trkpt><trkpt lat="43.39465" lon="13.17847667"><ele>275.0</ele><time>2022-03-17T14:54:33.286Z</time></trkpt><trkpt lat="43.39465" lon="13.17847667"><ele>275.0</ele><time>2022-03-17T14:54:34.322Z</time></trkpt><trkpt lat="43.39468333" lon="13.17854"><ele>276.0</ele><time>2022-03-17T14:54:35.286Z</time></trkpt><trkpt lat="43.39468333" lon="13.17854"><ele>276.0</ele><time>2022-03-17T14:54:36.317Z</time></trkpt><trkpt lat="43.39472" lon="13.17859667"><ele>276.0</ele><time>2022-03-17T14:54:37.284Z</time></trkpt><trkpt lat="43.39472" lon="13.17859667"><ele>276.0</ele><time>2022-03-17T14:54:38.305Z</time></trkpt><trkpt lat="43.39477" lon="13.17866667"><ele>276.0</ele><time>2022-03-17T14:54:39.311Z</time></trkpt><trkpt lat="43.39477" lon="13.17866667"><ele>276.0</ele><time>2022-03-17T14:54:40.306Z</time></trkpt><trkpt lat="43.39482" lon="13.178725"><ele>276.0</ele><time>2022-03-17T14:54:41.334Z</time></trkpt><trkpt lat="43.39482" lon="13.178725"><ele>276.0</ele><time>2022-03-17T14:54:42.298Z</time></trkpt><trkpt lat="43.39486333" lon="13.17877667"><ele>276.0</ele><time>2022-03-17T14:54:43.304Z</time></trkpt><trkpt lat="43.39488333" lon="13.1788"><ele>276.0</ele><time>2022-03-17T14:54:44.337Z</time></trkpt><trkpt lat="43.39488333" lon="13.1788"><ele>276.0</ele><time>2022-03-17T14:54:45.319Z</time></trkpt><trkpt lat="43.39492667" lon="13.17884833"><ele>277.0</ele><time>2022-03-17T14:54:46.285Z</time></trkpt><trkpt lat="43.39492667" lon="13.17884833"><ele>277.0</ele><time>2022-03-17T14:54:47.286Z</time></trkpt><trkpt lat="43.39497833" lon="13.17891"><ele>277.0</ele><time>2022-03-17T14:54:48.299Z</time></trkpt><trkpt lat="43.39497833" lon="13.17891"><ele>277.0</ele><time>2022-03-17T14:54:49.291Z</time></trkpt><trkpt lat="43.39503" lon="13.17897333"><ele>278.0</ele><time>2022-03-17T14:54:50.324Z</time></trkpt><trkpt lat="43.39503" lon="13.17897333"><ele>278.0</ele><time>2022-03-17T14:54:51.321Z</time></trkpt><trkpt lat="43.39508" lon="13.17903833"><ele>278.0</ele><time>2022-03-17T14:54:52.291Z</time></trkpt><trkpt lat="43.39508" lon="13.17903833"><ele>278.0</ele><time>2022-03-17T14:54:53.285Z</time></trkpt><trkpt lat="43.395135" lon="13.17911167"><ele>279.0</ele><time>2022-03-17T14:54:54.303Z</time></trkpt><trkpt lat="43.39516167" lon="13.17914667"><ele>279.0</ele><time>2022-03-17T14:54:55.328Z</time></trkpt><trkpt lat="43.39516167" lon="13.17914667"><ele>279.0</ele><time>2022-03-17T14:54:56.308Z</time></trkpt><trkpt lat="43.39521333" lon="13.179215"><ele>279.0</ele><time>2022-03-17T14:54:57.323Z</time></trkpt><trkpt lat="43.39521333" lon="13.179215"><ele>279.0</ele><time>2022-03-17T14:54:58.301Z</time></trkpt><trkpt lat="43.39527167" lon="13.17927833"><ele>280.0</ele><time>2022-03-17T14:54:59.319Z</time></trkpt><trkpt lat="43.39527167" lon="13.17927833"><ele>280.0</ele><time>2022-03-17T14:55:00.302Z</time></trkpt><trkpt lat="43.39531833" lon="13.17934167"><ele>280.0</ele><time>2022-03-17T14:55:01.344Z</time></trkpt><trkpt lat="43.39531833" lon="13.17934167"><ele>280.0</ele><time>2022-03-17T14:55:02.313Z</time></trkpt><trkpt lat="43.39536667" lon="13.17942167"><ele>281.0</ele><time>2022-03-17T14:55:03.319Z</time></trkpt><trkpt lat="43.39536667" lon="13.17942167"><ele>281.0</ele><time>2022-03-17T14:55:04.294Z</time></trkpt><trkpt lat="43.39540833" lon="13.17948833"><ele>281.0</ele><time>2022-03-17T14:55:05.303Z</time></trkpt><trkpt lat="43.39543167" lon="13.17952167"><ele>282.0</ele><time>2022-03-17T14:55:06.292Z</time></trkpt><trkpt lat="43.39543167" lon="13.17952167"><ele>282.0</ele><time>2022-03-17T14:55:07.307Z</time></trkpt><trkpt lat="43.395475" lon="13.17958333"><ele>282.0</ele><time>2022-03-17T14:55:08.318Z</time></trkpt><trkpt lat="43.39549" lon="13.17961333"><ele>283.0</ele><time>2022-03-17T14:55:09.307Z</time></trkpt><trkpt lat="43.39549" lon="13.17961333"><ele>283.0</ele><time>2022-03-17T14:55:10.308Z</time></trkpt><trkpt lat="43.39553333" lon="13.17967"><ele>283.0</ele><time>2022-03-17T14:55:11.319Z</time></trkpt><trkpt lat="43.39553333" lon="13.17967"><ele>283.0</ele><time>2022-03-17T14:55:12.296Z</time></trkpt><trkpt lat="43.39558167" lon="13.17973167"><ele>284.0</ele><time>2022-03-17T14:55:13.336Z</time></trkpt><trkpt lat="43.39560667" lon="13.17976667"><ele>284.0</ele><time>2022-03-17T14:55:14.313Z</time></trkpt><trkpt lat="43.39560667" lon="13.17976667"><ele>284.0</ele><time>2022-03-17T14:55:15.322Z</time></trkpt><trkpt lat="43.39565" lon="13.179825"><ele>285.0</ele><time>2022-03-17T14:55:16.316Z</time></trkpt><trkpt lat="43.39567167" lon="13.17985667"><ele>285.0</ele><time>2022-03-17T14:55:17.296Z</time></trkpt><trkpt lat="43.39567167" lon="13.17985667"><ele>285.0</ele><time>2022-03-17T14:55:18.320Z</time></trkpt><trkpt lat="43.39570167" lon="13.17992833"><ele>285.0</ele><time>2022-03-17T14:55:19.287Z</time></trkpt><trkpt lat="43.39570167" lon="13.17992833"><ele>285.0</ele><time>2022-03-17T14:55:20.302Z</time></trkpt><trkpt lat="43.39573667" lon="13.17999"><ele>286.0</ele><time>2022-03-17T14:55:21.354Z</time></trkpt><trkpt lat="43.39573667" lon="13.17999"><ele>286.0</ele><time>2022-03-17T14:55:22.300Z</time></trkpt><trkpt lat="43.39577" lon="13.18005333"><ele>287.0</ele><time>2022-03-17T14:55:23.307Z</time></trkpt><trkpt lat="43.39578167" lon="13.18009333"><ele>287.0</ele><time>2022-03-17T14:55:24.319Z</time></trkpt><trkpt lat="43.39578167" lon="13.18009333"><ele>287.0</ele><time>2022-03-17T14:55:25.318Z</time></trkpt><trkpt lat="43.39580667" lon="13.18018167"><ele>288.0</ele><time>2022-03-17T14:55:26.305Z</time></trkpt><trkpt lat="43.39580667" lon="13.18018167"><ele>288.0</ele><time>2022-03-17T14:55:27.294Z</time></trkpt><trkpt lat="43.39582" lon="13.18028667"><ele>288.0</ele><time>2022-03-17T14:55:28.344Z</time></trkpt><trkpt lat="43.39582" lon="13.18028667"><ele>288.0</ele><time>2022-03-17T14:55:29.322Z</time></trkpt><trkpt lat="43.39584333" lon="13.18036667"><ele>288.0</ele><time>2022-03-17T14:55:30.294Z</time></trkpt><trkpt lat="43.39584333" lon="13.18036667"><ele>288.0</ele><time>2022-03-17T14:55:31.320Z</time></trkpt><trkpt lat="43.39585833" lon="13.18046"><ele>289.0</ele><time>2022-03-17T14:55:32.287Z</time></trkpt><trkpt lat="43.39586" lon="13.18051667"><ele>289.0</ele><time>2022-03-17T14:55:33.306Z</time></trkpt><trkpt lat="43.39586" lon="13.18051667"><ele>289.0</ele><time>2022-03-17T14:55:34.297Z</time></trkpt><trkpt lat="43.39587167" lon="13.18061167"><ele>290.0</ele><time>2022-03-17T14:55:35.304Z</time></trkpt><trkpt lat="43.39590167" lon="13.18062833"><ele>290.0</ele><time>2022-03-17T14:55:36.285Z</time></trkpt><trkpt lat="43.39590167" lon="13.18062833"><ele>290.0</ele><time>2022-03-17T14:55:37.317Z</time></trkpt><trkpt lat="43.39591833" lon="13.18070667"><ele>291.0</ele><time>2022-03-17T14:55:38.288Z</time></trkpt><trkpt lat="43.39591833" lon="13.18070667"><ele>291.0</ele><time>2022-03-17T14:55:39.319Z</time></trkpt><trkpt lat="43.39593667" lon="13.18080667"><ele>291.0</ele><time>2022-03-17T14:55:40.305Z</time></trkpt><trkpt lat="43.39593667" lon="13.18080667"><ele>291.0</ele><time>2022-03-17T14:55:41.291Z</time></trkpt><trkpt lat="43.395945" lon="13.18093167"><ele>291.0</ele><time>2022-03-17T14:55:42.304Z</time></trkpt><trkpt lat="43.395945" lon="13.18093167"><ele>291.0</ele><time>2022-03-17T14:55:43.290Z</time></trkpt><trkpt lat="43.39595667" lon="13.18106667"><ele>292.0</ele><time>2022-03-17T14:55:44.297Z</time></trkpt><trkpt lat="43.39594833" lon="13.18114"><ele>292.0</ele><time>2022-03-17T14:55:45.336Z</time></trkpt><trkpt lat="43.39594833" lon="13.18114"><ele>292.0</ele><time>2022-03-17T14:55:46.292Z</time></trkpt><trkpt lat="43.39593" lon="13.18128"><ele>293.0</ele><time>2022-03-17T14:55:47.309Z</time></trkpt><trkpt lat="43.39593" lon="13.18128"><ele>293.0</ele><time>2022-03-17T14:55:48.290Z</time></trkpt><trkpt lat="43.395915" lon="13.18142833"><ele>293.0</ele><time>2022-03-17T14:55:49.297Z</time></trkpt><trkpt lat="43.395915" lon="13.18142833"><ele>293.0</ele><time>2022-03-17T14:55:50.291Z</time></trkpt><trkpt lat="43.39591333" lon="13.18159667"><ele>294.0</ele><time>2022-03-17T14:55:51.346Z</time></trkpt><trkpt lat="43.39591333" lon="13.18159667"><ele>294.0</ele><time>2022-03-17T14:55:52.298Z</time></trkpt><trkpt lat="43.395915" lon="13.18175667"><ele>294.0</ele><time>2022-03-17T14:55:53.305Z</time></trkpt><trkpt lat="43.395915" lon="13.18182667"><ele>294.0</ele><time>2022-03-17T14:55:54.305Z</time></trkpt><trkpt lat="43.39591333" lon="13.18190167"><ele>294.0</ele><time>2022-03-17T14:55:55.286Z</time></trkpt><trkpt lat="43.39591333" lon="13.18190167"><ele>294.0</ele><time>2022-03-17T14:55:56.308Z</time></trkpt><trkpt lat="43.39591833" lon="13.18205833"><ele>295.0</ele><time>2022-03-17T14:55:57.285Z</time></trkpt><trkpt lat="43.39591833" lon="13.18205833"><ele>295.0</ele><time>2022-03-17T14:55:58.300Z</time></trkpt><trkpt lat="43.39592833" lon="13.18222333"><ele>295.0</ele><time>2022-03-17T14:55:59.309Z</time></trkpt><trkpt lat="43.39593167" lon="13.1823"><ele>295.0</ele><time>2022-03-17T14:56:00.416Z</time></trkpt><trkpt lat="43.39593167" lon="13.1823"><ele>295.0</ele><time>2022-03-17T14:56:01.302Z</time></trkpt><trkpt lat="43.39594833" lon="13.18243833"><ele>295.0</ele><time>2022-03-17T14:56:02.309Z</time></trkpt><trkpt lat="43.39594833" lon="13.18243833"><ele>295.0</ele><time>2022-03-17T14:56:03.293Z</time></trkpt><trkpt lat="43.39598" lon="13.18256167"><ele>294.0</ele><time>2022-03-17T14:56:04.305Z</time></trkpt><trkpt lat="43.395995" lon="13.18262167"><ele>294.0</ele><time>2022-03-17T14:56:05.289Z</time></trkpt><trkpt lat="43.395995" lon="13.18262167"><ele>294.0</ele><time>2022-03-17T14:56:06.318Z</time></trkpt><trkpt lat="43.396025" lon="13.18272333"><ele>294.0</ele><time>2022-03-17T14:56:07.285Z</time></trkpt><trkpt lat="43.39603833" lon="13.18276667"><ele>294.0</ele><time>2022-03-17T14:56:08.293Z</time></trkpt><trkpt lat="43.39605167" lon="13.182815"><ele>295.0</ele><time>2022-03-17T14:56:09.323Z</time></trkpt><trkpt lat="43.39605167" lon="13.182815"><ele>295.0</ele><time>2022-03-17T14:56:10.304Z</time></trkpt><trkpt lat="43.39609" lon="13.18289167"><ele>295.0</ele><time>2022-03-17T14:56:11.321Z</time></trkpt><trkpt lat="43.39609" lon="13.18289167"><ele>295.0</ele><time>2022-03-17T14:56:12.301Z</time></trkpt><trkpt lat="43.396115" lon="13.18295333"><ele>295.0</ele><time>2022-03-17T14:56:13.308Z</time></trkpt><trkpt lat="43.39612167" lon="13.18299"><ele>295.0</ele><time>2022-03-17T14:56:14.299Z</time></trkpt><trkpt lat="43.39612667" lon="13.18303333"><ele>295.0</ele><time>2022-03-17T14:56:15.291Z</time></trkpt><trkpt lat="43.39612667" lon="13.18303333"><ele>295.0</ele><time>2022-03-17T14:56:16.311Z</time></trkpt><trkpt lat="43.39615" lon="13.18311833"><ele>295.0</ele><time>2022-03-17T14:56:17.323Z</time></trkpt><trkpt lat="43.39615" lon="13.18311833"><ele>295.0</ele><time>2022-03-17T14:56:18.322Z</time></trkpt><trkpt lat="43.39617167" lon="13.18320167"><ele>296.0</ele><time>2022-03-17T14:56:19.295Z</time></trkpt><trkpt lat="43.39618167" lon="13.18324167"><ele>296.0</ele><time>2022-03-17T14:56:20.335Z</time></trkpt><trkpt lat="43.39618167" lon="13.18324167"><ele>296.0</ele><time>2022-03-17T14:56:21.307Z</time></trkpt><trkpt lat="43.396205" lon="13.183325"><ele>296.0</ele><time>2022-03-17T14:56:22.313Z</time></trkpt><trkpt lat="43.396205" lon="13.183325"><ele>296.0</ele><time>2022-03-17T14:56:23.292Z</time></trkpt><trkpt lat="43.396235" lon="13.18339667"><ele>296.0</ele><time>2022-03-17T14:56:24.300Z</time></trkpt><trkpt lat="43.396235" lon="13.18339667"><ele>296.0</ele><time>2022-03-17T14:56:25.321Z</time></trkpt><trkpt lat="43.39626667" lon="13.18345833"><ele>297.0</ele><time>2022-03-17T14:56:26.306Z</time></trkpt><trkpt lat="43.39628" lon="13.18349167"><ele>297.0</ele><time>2022-03-17T14:56:27.286Z</time></trkpt><trkpt lat="43.39628" lon="13.18349167"><ele>297.0</ele><time>2022-03-17T14:56:28.309Z</time></trkpt><trkpt lat="43.39629167" lon="13.183545"><ele>297.0</ele><time>2022-03-17T14:56:29.324Z</time></trkpt><trkpt lat="43.3963" lon="13.18356167"><ele>297.0</ele><time>2022-03-17T14:56:30.306Z</time></trkpt><trkpt lat="43.39631" lon="13.18358167"><ele>298.0</ele><time>2022-03-17T14:56:31.320Z</time></trkpt><trkpt lat="43.39631" lon="13.18358167"><ele>298.0</ele><time>2022-03-17T14:56:32.299Z</time></trkpt><trkpt lat="43.39634" lon="13.18362333"><ele>298.0</ele><time>2022-03-17T14:56:33.309Z</time></trkpt><trkpt lat="43.39634" lon="13.18362333"><ele>298.0</ele><time>2022-03-17T14:56:34.290Z</time></trkpt><trkpt lat="43.39636833" lon="13.18368833"><ele>298.0</ele><time>2022-03-17T14:56:35.298Z</time></trkpt><trkpt lat="43.39639167" lon="13.18370333"><ele>298.0</ele><time>2022-03-17T14:56:36.311Z</time></trkpt><trkpt lat="43.39639167" lon="13.18370333"><ele>298.0</ele><time>2022-03-17T14:56:37.286Z</time></trkpt><trkpt lat="43.39642" lon="13.18375667"><ele>298.0</ele><time>2022-03-17T14:56:38.294Z</time></trkpt><trkpt lat="43.39642" lon="13.18375667"><ele>298.0</ele><time>2022-03-17T14:56:39.308Z</time></trkpt><trkpt lat="43.39643167" lon="13.18383"><ele>299.0</ele><time>2022-03-17T14:56:40.320Z</time></trkpt><trkpt lat="43.39643167" lon="13.18383"><ele>299.0</ele><time>2022-03-17T14:56:41.298Z</time></trkpt><trkpt lat="43.39645" lon="13.18389833"><ele>299.0</ele><time>2022-03-17T14:56:42.305Z</time></trkpt><trkpt lat="43.39645" lon="13.18389833"><ele>299.0</ele><time>2022-03-17T14:56:43.285Z</time></trkpt><trkpt lat="43.39646667" lon="13.18397667"><ele>299.0</ele><time>2022-03-17T14:56:44.293Z</time></trkpt><trkpt lat="43.396485" lon="13.18401"><ele>299.0</ele><time>2022-03-17T14:56:45.300Z</time></trkpt><trkpt lat="43.396485" lon="13.18401"><ele>299.0</ele><time>2022-03-17T14:56:46.316Z</time></trkpt><trkpt lat="43.39652667" lon="13.18409833"><ele>299.0</ele><time>2022-03-17T14:56:47.324Z</time></trkpt><trkpt lat="43.39652667" lon="13.18409833"><ele>299.0</ele><time>2022-03-17T14:56:48.306Z</time></trkpt><trkpt lat="43.39656" lon="13.18419"><ele>300.0</ele><time>2022-03-17T14:56:49.312Z</time></trkpt><trkpt lat="43.39656" lon="13.18419"><ele>300.0</ele><time>2022-03-17T14:56:50.310Z</time></trkpt><trkpt lat="43.39658833" lon="13.184275"><ele>300.0</ele><time>2022-03-17T14:56:51.343Z</time></trkpt><trkpt lat="43.39658833" lon="13.184275"><ele>300.0</ele><time>2022-03-17T14:56:52.290Z</time></trkpt><trkpt lat="43.39662" lon="13.184355"><ele>300.0</ele><time>2022-03-17T14:56:53.412Z</time></trkpt><trkpt lat="43.39663833" lon="13.18439333"><ele>300.0</ele><time>2022-03-17T14:56:54.310Z</time></trkpt><trkpt lat="43.39663833" lon="13.18439333"><ele>300.0</ele><time>2022-03-17T14:56:55.284Z</time></trkpt><trkpt lat="43.39668167" lon="13.184465"><ele>300.0</ele><time>2022-03-17T14:56:56.295Z</time></trkpt><trkpt lat="43.39670167" lon="13.184505"><ele>300.0</ele><time>2022-03-17T14:56:57.285Z</time></trkpt><trkpt lat="43.39670167" lon="13.184505"><ele>300.0</ele><time>2022-03-17T14:56:58.308Z</time></trkpt><trkpt lat="43.39674667" lon="13.18458667"><ele>300.0</ele><time>2022-03-17T14:56:59.318Z</time></trkpt><trkpt lat="43.39677" lon="13.18462667"><ele>300.0</ele><time>2022-03-17T14:57:00.300Z</time></trkpt><trkpt lat="43.39677" lon="13.18462667"><ele>300.0</ele><time>2022-03-17T14:57:01.320Z</time></trkpt><trkpt lat="43.39681" lon="13.18470833"><ele>299.0</ele><time>2022-03-17T14:57:02.286Z</time></trkpt><trkpt lat="43.39683333" lon="13.18475333"><ele>299.0</ele><time>2022-03-17T14:57:03.307Z</time></trkpt><trkpt lat="43.39683333" lon="13.18475333"><ele>299.0</ele><time>2022-03-17T14:57:04.319Z</time></trkpt><trkpt lat="43.39687333" lon="13.18484"><ele>299.0</ele><time>2022-03-17T14:57:05.286Z</time></trkpt><trkpt lat="43.39687333" lon="13.18484"><ele>299.0</ele><time>2022-03-17T14:57:06.315Z</time></trkpt><trkpt lat="43.39693" lon="13.18494333"><ele>299.0</ele><time>2022-03-17T14:57:07.285Z</time></trkpt><trkpt lat="43.39693" lon="13.18494333"><ele>299.0</ele><time>2022-03-17T14:57:08.296Z</time></trkpt><trkpt lat="43.39696833" lon="13.18502167"><ele>298.0</ele><time>2022-03-17T14:57:09.301Z</time></trkpt><trkpt lat="43.39696833" lon="13.18502167"><ele>298.0</ele><time>2022-03-17T14:57:10.297Z</time></trkpt><trkpt lat="43.397015" lon="13.1851"><ele>297.0</ele><time>2022-03-17T14:57:11.305Z</time></trkpt><trkpt lat="43.397015" lon="13.1851"><ele>297.0</ele><time>2022-03-17T14:57:12.293Z</time></trkpt><trkpt lat="43.39707667" lon="13.185175"><ele>297.0</ele><time>2022-03-17T14:57:13.302Z</time></trkpt><trkpt lat="43.39710833" lon="13.18520667"><ele>297.0</ele><time>2022-03-17T14:57:14.290Z</time></trkpt><trkpt lat="43.39714333" lon="13.18523667"><ele>297.0</ele><time>2022-03-17T14:57:15.320Z</time></trkpt><trkpt lat="43.39714333" lon="13.18523667"><ele>297.0</ele><time>2022-03-17T14:57:16.297Z</time></trkpt><trkpt lat="43.39721333" lon="13.18529"><ele>296.0</ele><time>2022-03-17T14:57:17.303Z</time></trkpt><trkpt lat="43.397245" lon="13.185315"><ele>296.0</ele><time>2022-03-17T14:57:18.297Z</time></trkpt><trkpt lat="43.39727833" lon="13.18533833"><ele>296.0</ele><time>2022-03-17T14:57:19.284Z</time></trkpt><trkpt lat="43.39727833" lon="13.18533833"><ele>296.0</ele><time>2022-03-17T14:57:20.318Z</time></trkpt><trkpt lat="43.39734833" lon="13.18539"><ele>296.0</ele><time>2022-03-17T14:57:21.284Z</time></trkpt><trkpt lat="43.39738167" lon="13.18541167"><ele>295.0</ele><time>2022-03-17T14:57:22.304Z</time></trkpt><trkpt lat="43.39738167" lon="13.18541167"><ele>295.0</ele><time>2022-03-17T14:57:23.289Z</time></trkpt><trkpt lat="43.39744667" lon="13.18546"><ele>295.0</ele><time>2022-03-17T14:57:24.301Z</time></trkpt><trkpt lat="43.39748" lon="13.18548667"><ele>295.0</ele><time>2022-03-17T14:57:25.317Z</time></trkpt><trkpt lat="43.39748" lon="13.18548667"><ele>295.0</ele><time>2022-03-17T14:57:26.308Z</time></trkpt><trkpt lat="43.39754833" lon="13.18553167"><ele>295.0</ele><time>2022-03-17T14:57:27.322Z</time></trkpt><trkpt lat="43.39754833" lon="13.18553167"><ele>295.0</ele><time>2022-03-17T14:57:28.307Z</time></trkpt><trkpt lat="43.39761833" lon="13.18556333"><ele>295.0</ele><time>2022-03-17T14:57:29.319Z</time></trkpt><trkpt lat="43.39761833" lon="13.18556333"><ele>295.0</ele><time>2022-03-17T14:57:30.297Z</time></trkpt><trkpt lat="43.397685" lon="13.18559167"><ele>295.0</ele><time>2022-03-17T14:57:31.289Z</time></trkpt><trkpt lat="43.39771667" lon="13.18560167"><ele>295.0</ele><time>2022-03-17T14:57:32.321Z</time></trkpt><trkpt lat="43.39771667" lon="13.18560167"><ele>295.0</ele><time>2022-03-17T14:57:33.317Z</time></trkpt><trkpt lat="43.39777833" lon="13.18561167"><ele>296.0</ele><time>2022-03-17T14:57:34.323Z</time></trkpt><trkpt lat="43.39777833" lon="13.18561167"><ele>296.0</ele><time>2022-03-17T14:57:35.299Z</time></trkpt><trkpt lat="43.39784" lon="13.185615"><ele>296.0</ele><time>2022-03-17T14:57:36.338Z</time></trkpt><trkpt lat="43.39784" lon="13.185615"><ele>296.0</ele><time>2022-03-17T14:57:37.305Z</time></trkpt><trkpt lat="43.39790333" lon="13.18561833"><ele>296.0</ele><time>2022-03-17T14:57:38.318Z</time></trkpt><trkpt lat="43.39793" lon="13.18561833"><ele>296.0</ele><time>2022-03-17T14:57:39.285Z</time></trkpt><trkpt lat="43.39793" lon="13.18561833"><ele>296.0</ele><time>2022-03-17T14:57:40.318Z</time></trkpt><trkpt lat="43.39799" lon="13.18560667"><ele>297.0</ele><time>2022-03-17T14:57:41.293Z</time></trkpt><trkpt lat="43.398025" lon="13.18560167"><ele>297.0</ele><time>2022-03-17T14:57:42.320Z</time></trkpt><trkpt lat="43.398025" lon="13.18560167"><ele>297.0</ele><time>2022-03-17T14:57:43.287Z</time></trkpt><trkpt lat="43.39808833" lon="13.185575"><ele>298.0</ele><time>2022-03-17T14:57:44.299Z</time></trkpt><trkpt lat="43.39811833" lon="13.18555833"><ele>298.0</ele><time>2022-03-17T14:57:45.308Z</time></trkpt><trkpt lat="43.39811833" lon="13.18555833"><ele>298.0</ele><time>2022-03-17T14:57:46.292Z</time></trkpt><trkpt lat="43.39816833" lon="13.18552"><ele>298.0</ele><time>2022-03-17T14:57:47.300Z</time></trkpt><trkpt lat="43.39816833" lon="13.18552"><ele>298.0</ele><time>2022-03-17T14:57:48.285Z</time></trkpt><trkpt lat="43.39821833" lon="13.18547333"><ele>298.0</ele><time>2022-03-17T14:57:49.306Z</time></trkpt><trkpt lat="43.39821833" lon="13.18547333"><ele>298.0</ele><time>2022-03-17T14:57:50.284Z</time></trkpt><trkpt lat="43.39827833" lon="13.18541833"><ele>299.0</ele><time>2022-03-17T14:57:51.429Z</time></trkpt><trkpt lat="43.39827833" lon="13.18541833"><ele>299.0</ele><time>2022-03-17T14:57:52.294Z</time></trkpt><trkpt lat="43.39833667" lon="13.185365"><ele>299.0</ele><time>2022-03-17T14:57:53.300Z</time></trkpt><trkpt lat="43.39837167" lon="13.18534333"><ele>299.0</ele><time>2022-03-17T14:57:54.286Z</time></trkpt><trkpt lat="43.39837167" lon="13.18534333"><ele>299.0</ele><time>2022-03-17T14:57:55.319Z</time></trkpt><trkpt lat="43.39844" lon="13.185305"><ele>299.0</ele><time>2022-03-17T14:57:56.286Z</time></trkpt><trkpt lat="43.39844" lon="13.185305"><ele>299.0</ele><time>2022-03-17T14:57:57.321Z</time></trkpt><trkpt lat="43.39850833" lon="13.18528"><ele>300.0</ele><time>2022-03-17T14:57:58.288Z</time></trkpt><trkpt lat="43.39850833" lon="13.18528"><ele>300.0</ele><time>2022-03-17T14:57:59.318Z</time></trkpt><trkpt lat="43.39857333" lon="13.18526167"><ele>301.0</ele><time>2022-03-17T14:58:00.286Z</time></trkpt><trkpt lat="43.39857333" lon="13.18526167"><ele>301.0</ele><time>2022-03-17T14:58:01.300Z</time></trkpt><trkpt lat="43.39864" lon="13.18526167"><ele>301.0</ele><time>2022-03-17T14:58:02.311Z</time></trkpt><trkpt lat="43.39867167" lon="13.18526333"><ele>301.0</ele><time>2022-03-17T14:58:03.314Z</time></trkpt><trkpt lat="43.39867167" lon="13.18526333"><ele>301.0</ele><time>2022-03-17T14:58:04.296Z</time></trkpt><trkpt lat="43.39874167" lon="13.18528167"><ele>301.0</ele><time>2022-03-17T14:58:05.302Z</time></trkpt><trkpt lat="43.39874167" lon="13.18528167"><ele>301.0</ele><time>2022-03-17T14:58:06.322Z</time></trkpt><trkpt lat="43.39881667" lon="13.18532167"><ele>300.0</ele><time>2022-03-17T14:58:07.295Z</time></trkpt><trkpt lat="43.398855" lon="13.18535667"><ele>300.0</ele><time>2022-03-17T14:58:08.296Z</time></trkpt><trkpt lat="43.39889333" lon="13.18538667"><ele>300.0</ele><time>2022-03-17T14:58:09.284Z</time></trkpt><trkpt lat="43.39889333" lon="13.18538667"><ele>300.0</ele><time>2022-03-17T14:58:10.308Z</time></trkpt><trkpt lat="43.398995" lon="13.18546833"><ele>299.0</ele><time>2022-03-17T14:58:11.320Z</time></trkpt><trkpt lat="43.399055" lon="13.18551333"><ele>299.0</ele><time>2022-03-17T14:58:12.297Z</time></trkpt><trkpt lat="43.399055" lon="13.18551333"><ele>299.0</ele><time>2022-03-17T14:58:13.285Z</time></trkpt><trkpt lat="43.399185" lon="13.185595"><ele>297.0</ele><time>2022-03-17T14:58:14.296Z</time></trkpt><trkpt lat="43.39925833" lon="13.18562667"><ele>297.0</ele><time>2022-03-17T14:58:15.318Z</time></trkpt><trkpt lat="43.39925833" lon="13.18562667"><ele>297.0</ele><time>2022-03-17T14:58:16.309Z</time></trkpt><trkpt lat="43.39940833" lon="13.18568333"><ele>294.0</ele><time>2022-03-17T14:58:17.320Z</time></trkpt><trkpt lat="43.39949" lon="13.18570167"><ele>293.0</ele><time>2022-03-17T14:58:18.284Z</time></trkpt><trkpt lat="43.39949" lon="13.18570167"><ele>293.0</ele><time>2022-03-17T14:58:19.316Z</time></trkpt><trkpt lat="43.39967167" lon="13.18574"><ele>291.0</ele><time>2022-03-17T14:58:20.294Z</time></trkpt><trkpt lat="43.39976833" lon="13.18577"><ele>289.0</ele><time>2022-03-17T14:58:21.321Z</time></trkpt><trkpt lat="43.39986333" lon="13.18581833"><ele>288.0</ele><time>2022-03-17T14:58:22.309Z</time></trkpt><trkpt lat="43.39986333" lon="13.18581833"><ele>288.0</ele><time>2022-03-17T14:58:23.293Z</time></trkpt><trkpt lat="43.40004667" lon="13.18595"><ele>286.0</ele><time>2022-03-17T14:58:24.304Z</time></trkpt><trkpt lat="43.40004667" lon="13.18595"><ele>286.0</ele><time>2022-03-17T14:58:25.320Z</time></trkpt><trkpt lat="43.400195" lon="13.186145"><ele>283.0</ele><time>2022-03-17T14:58:26.300Z</time></trkpt><trkpt lat="43.40025667" lon="13.186255"><ele>282.0</ele><time>2022-03-17T14:58:27.287Z</time></trkpt><trkpt lat="43.40025667" lon="13.186255"><ele>282.0</ele><time>2022-03-17T14:58:28.303Z</time></trkpt><trkpt lat="43.40033833" lon="13.1865"><ele>280.0</ele><time>2022-03-17T14:58:29.342Z</time></trkpt><trkpt lat="43.40033833" lon="13.1865"><ele>280.0</ele><time>2022-03-17T14:58:30.296Z</time></trkpt><trkpt lat="43.40040667" lon="13.18673167"><ele>278.0</ele><time>2022-03-17T14:58:31.314Z</time></trkpt><trkpt lat="43.40043667" lon="13.18684667"><ele>277.0</ele><time>2022-03-17T14:58:32.295Z</time></trkpt><trkpt lat="43.40046833" lon="13.186965"><ele>275.0</ele><time>2022-03-17T14:58:33.284Z</time></trkpt><trkpt lat="43.4005" lon="13.18708667"><ele>275.0</ele><time>2022-03-17T14:58:34.313Z</time></trkpt><trkpt lat="43.4005" lon="13.18708667"><ele>275.0</ele><time>2022-03-17T14:58:35.299Z</time></trkpt><trkpt lat="43.40055833" lon="13.18733667"><ele>273.0</ele><time>2022-03-17T14:58:36.305Z</time></trkpt><trkpt lat="43.40055833" lon="13.18733667"><ele>273.0</ele><time>2022-03-17T14:58:37.287Z</time></trkpt><trkpt lat="43.40061167" lon="13.18758333"><ele>271.0</ele><time>2022-03-17T14:58:38.291Z</time></trkpt><trkpt lat="43.40064" lon="13.18771667"><ele>270.0</ele><time>2022-03-17T14:58:39.321Z</time></trkpt><trkpt lat="43.40064" lon="13.18771667"><ele>270.0</ele><time>2022-03-17T14:58:40.312Z</time></trkpt><trkpt lat="43.40067667" lon="13.18799167"><ele>268.0</ele><time>2022-03-17T14:58:41.321Z</time></trkpt><trkpt lat="43.40067667" lon="13.18799167"><ele>268.0</ele><time>2022-03-17T14:58:42.317Z</time></trkpt><trkpt lat="43.40069667" lon="13.18826667"><ele>267.0</ele><time>2022-03-17T14:58:43.285Z</time></trkpt><trkpt lat="43.40069667" lon="13.18826667"><ele>267.0</ele><time>2022-03-17T14:58:44.308Z</time></trkpt><trkpt lat="43.40070667" lon="13.18852167"><ele>265.0</ele><time>2022-03-17T14:58:45.321Z</time></trkpt><trkpt lat="43.40070667" lon="13.18852167"><ele>265.0</ele><time>2022-03-17T14:58:46.318Z</time></trkpt><trkpt lat="43.40067667" lon="13.18877"><ele>263.0</ele><time>2022-03-17T14:58:47.287Z</time></trkpt><trkpt lat="43.40067667" lon="13.18877"><ele>263.0</ele><time>2022-03-17T14:58:48.305Z</time></trkpt><trkpt lat="43.40064167" lon="13.18900667"><ele>262.0</ele><time>2022-03-17T14:58:49.322Z</time></trkpt><trkpt lat="43.40064167" lon="13.18900667"><ele>262.0</ele><time>2022-03-17T14:58:50.305Z</time></trkpt><trkpt lat="43.40061833" lon="13.18924167"><ele>260.0</ele><time>2022-03-17T14:58:51.294Z</time></trkpt><trkpt lat="43.40061833" lon="13.18924167"><ele>260.0</ele><time>2022-03-17T14:58:52.293Z</time></trkpt><trkpt lat="43.4006" lon="13.18943167"><ele>259.0</ele><time>2022-03-17T14:58:53.305Z</time></trkpt><trkpt lat="43.4006" lon="13.18943167"><ele>259.0</ele><time>2022-03-17T14:58:54.290Z</time></trkpt><trkpt lat="43.400555" lon="13.18954833"><ele>257.0</ele><time>2022-03-17T14:58:55.302Z</time></trkpt><trkpt lat="43.400555" lon="13.18954833"><ele>257.0</ele><time>2022-03-17T14:58:56.319Z</time></trkpt><trkpt lat="43.40047333" lon="13.18960667"><ele>256.0</ele><time>2022-03-17T14:58:57.285Z</time></trkpt><trkpt lat="43.40047333" lon="13.18960667"><ele>256.0</ele><time>2022-03-17T14:58:58.286Z</time></trkpt><trkpt lat="43.40042667" lon="13.189755"><ele>255.0</ele><time>2022-03-17T14:58:59.331Z</time></trkpt><trkpt lat="43.40042667" lon="13.189755"><ele>255.0</ele><time>2022-03-17T14:59:00.286Z</time></trkpt><trkpt lat="43.40047333" lon="13.18994167"><ele>254.0</ele><time>2022-03-17T14:59:01.297Z</time></trkpt><trkpt lat="43.40047333" lon="13.18994167"><ele>254.0</ele><time>2022-03-17T14:59:02.317Z</time></trkpt><trkpt lat="43.40046667" lon="13.19012167"><ele>252.0</ele><time>2022-03-17T14:59:03.284Z</time></trkpt><trkpt lat="43.40046667" lon="13.19012167"><ele>252.0</ele><time>2022-03-17T14:59:04.285Z</time></trkpt><trkpt lat="43.40039667" lon="13.19022667"><ele>250.0</ele><time>2022-03-17T14:59:05.336Z</time></trkpt><trkpt lat="43.40039667" lon="13.19022667"><ele>250.0</ele><time>2022-03-17T14:59:06.316Z</time></trkpt><trkpt lat="43.40025167" lon="13.19017333"><ele>249.0</ele><time>2022-03-17T14:59:07.289Z</time></trkpt><trkpt lat="43.40018333" lon="13.19018333"><ele>248.0</ele><time>2022-03-17T14:59:08.316Z</time></trkpt><trkpt lat="43.40014" lon="13.19023333"><ele>248.0</ele><time>2022-03-17T14:59:09.322Z</time></trkpt><trkpt lat="43.40014" lon="13.19023333"><ele>248.0</ele><time>2022-03-17T14:59:10.303Z</time></trkpt><trkpt lat="43.40016667" lon="13.190355"><ele>246.0</ele><time>2022-03-17T14:59:11.319Z</time></trkpt><trkpt lat="43.40016667" lon="13.190355"><ele>246.0</ele><time>2022-03-17T14:59:12.307Z</time></trkpt><trkpt lat="43.400245" lon="13.19047167"><ele>244.0</ele><time>2022-03-17T14:59:13.318Z</time></trkpt><trkpt lat="43.400275" lon="13.19054"><ele>244.0</ele><time>2022-03-17T14:59:14.302Z</time></trkpt><trkpt lat="43.400275" lon="13.19054"><ele>244.0</ele><time>2022-03-17T14:59:15.320Z</time></trkpt><trkpt lat="43.40028333" lon="13.19065833"><ele>242.0</ele><time>2022-03-17T14:59:16.288Z</time></trkpt><trkpt lat="43.40028333" lon="13.19065833"><ele>242.0</ele><time>2022-03-17T14:59:17.300Z</time></trkpt><trkpt lat="43.40024" lon="13.19071833"><ele>240.0</ele><time>2022-03-17T14:59:18.306Z</time></trkpt><trkpt lat="43.40021833" lon="13.19071667"><ele>240.0</ele><time>2022-03-17T14:59:19.290Z</time></trkpt><trkpt lat="43.40021833" lon="13.19071667"><ele>240.0</ele><time>2022-03-17T14:59:20.316Z</time></trkpt><trkpt lat="43.40019" lon="13.19070167"><ele>239.0</ele><time>2022-03-17T14:59:21.331Z</time></trkpt><trkpt lat="43.40019" lon="13.19070167"><ele>239.0</ele><time>2022-03-17T14:59:22.312Z</time></trkpt><trkpt lat="43.40016167" lon="13.190705"><ele>238.0</ele><time>2022-03-17T14:59:23.320Z</time></trkpt><trkpt lat="43.400145" lon="13.190715"><ele>237.0</ele><time>2022-03-17T14:59:24.294Z</time></trkpt><trkpt lat="43.400145" lon="13.190715"><ele>237.0</ele><time>2022-03-17T14:59:25.299Z</time></trkpt><trkpt lat="43.40011667" lon="13.19075167"><ele>237.0</ele><time>2022-03-17T14:59:26.301Z</time></trkpt><trkpt lat="43.40011667" lon="13.19075167"><ele>237.0</ele><time>2022-03-17T14:59:27.288Z</time></trkpt><trkpt lat="43.400075" lon="13.19077833"><ele>236.0</ele><time>2022-03-17T14:59:28.334Z</time></trkpt><trkpt lat="43.400075" lon="13.19077833"><ele>236.0</ele><time>2022-03-17T14:59:29.286Z</time></trkpt><trkpt lat="43.40006" lon="13.19076833"><ele>235.0</ele><time>2022-03-17T14:59:30.295Z</time></trkpt><trkpt lat="43.40006" lon="13.19076833"><ele>235.0</ele><time>2022-03-17T14:59:31.310Z</time></trkpt><trkpt lat="43.40006333" lon="13.19076833"><ele>235.0</ele><time>2022-03-17T14:59:32.317Z</time></trkpt><trkpt lat="43.40006833" lon="13.19077333"><ele>235.0</ele><time>2022-03-17T14:59:33.305Z</time></trkpt><trkpt lat="43.400065" lon="13.19077667"><ele>236.0</ele><time>2022-03-17T14:59:34.289Z</time></trkpt><trkpt lat="43.400065" lon="13.19077667"><ele>236.0</ele><time>2022-03-17T14:59:35.285Z</time></trkpt><trkpt lat="43.400065" lon="13.19077667"><ele>236.0</ele><time>2022-03-17T14:59:36.294Z</time></trkpt><trkpt lat="43.4001" lon="13.1908"><ele>234.0</ele><time>2022-03-17T14:59:37.309Z</time></trkpt><trkpt lat="43.4001" lon="13.1908"><ele>234.0</ele><time>2022-03-17T14:59:38.292Z</time></trkpt><trkpt lat="43.40007" lon="13.19081333"><ele>234.0</ele><time>2022-03-17T14:59:39.299Z</time></trkpt><trkpt lat="43.40007" lon="13.19081333"><ele>234.0</ele><time>2022-03-17T14:59:40.292Z</time></trkpt><trkpt lat="43.40003833" lon="13.190825"><ele>234.0</ele><time>2022-03-17T14:59:41.298Z</time></trkpt><trkpt lat="43.40003833" lon="13.190825"><ele>234.0</ele><time>2022-03-17T14:59:42.306Z</time></trkpt><trkpt lat="43.40000833" lon="13.19083167"><ele>234.0</ele><time>2022-03-17T14:59:43.314Z</time></trkpt><trkpt lat="43.40000833" lon="13.19083167"><ele>234.0</ele><time>2022-03-17T14:59:44.301Z</time></trkpt><trkpt lat="43.39997167" lon="13.190855"><ele>234.0</ele><time>2022-03-17T14:59:45.301Z</time></trkpt><trkpt lat="43.39997167" lon="13.190855"><ele>234.0</ele><time>2022-03-17T14:59:46.286Z</time></trkpt><trkpt lat="43.399945" lon="13.19088667"><ele>234.0</ele><time>2022-03-17T14:59:47.300Z</time></trkpt><trkpt lat="43.39992667" lon="13.19090333"><ele>234.0</ele><time>2022-03-17T14:59:48.284Z</time></trkpt><trkpt lat="43.39992667" lon="13.19090333"><ele>234.0</ele><time>2022-03-17T14:59:49.305Z</time></trkpt><trkpt lat="43.39988333" lon="13.190945"><ele>234.0</ele><time>2022-03-17T14:59:50.317Z</time></trkpt><trkpt lat="43.39988333" lon="13.190945"><ele>234.0</ele><time>2022-03-17T14:59:51.296Z</time></trkpt><trkpt lat="43.399835" lon="13.19099333"><ele>234.0</ele><time>2022-03-17T14:59:52.310Z</time></trkpt><trkpt lat="43.399835" lon="13.19099333"><ele>234.0</ele><time>2022-03-17T14:59:53.295Z</time></trkpt><trkpt lat="43.39978333" lon="13.19104333"><ele>234.0</ele><time>2022-03-17T14:59:54.303Z</time></trkpt><trkpt lat="43.39978333" lon="13.19104333"><ele>234.0</ele><time>2022-03-17T14:59:55.285Z</time></trkpt><trkpt lat="43.39973167" lon="13.19110667"><ele>234.0</ele><time>2022-03-17T14:59:56.292Z</time></trkpt><trkpt lat="43.39970667" lon="13.19113667"><ele>234.0</ele><time>2022-03-17T14:59:57.318Z</time></trkpt><trkpt lat="43.39970667" lon="13.19113667"><ele>234.0</ele><time>2022-03-17T14:59:58.297Z</time></trkpt><trkpt lat="43.39966" lon="13.19119167"><ele>234.0</ele><time>2022-03-17T14:59:59.307Z</time></trkpt><trkpt lat="43.39966" lon="13.19119167"><ele>234.0</ele><time>2022-03-17T15:00:00.296Z</time></trkpt><trkpt lat="43.39961167" lon="13.19124"><ele>235.0</ele><time>2022-03-17T15:00:01.308Z</time></trkpt><trkpt lat="43.39959" lon="13.19126667"><ele>235.0</ele><time>2022-03-17T15:00:02.295Z</time></trkpt><trkpt lat="43.39959" lon="13.19126667"><ele>235.0</ele><time>2022-03-17T15:00:03.314Z</time></trkpt><trkpt lat="43.399545" lon="13.19132"><ele>235.0</ele><time>2022-03-17T15:00:04.322Z</time></trkpt><trkpt lat="43.399545" lon="13.19132"><ele>235.0</ele><time>2022-03-17T15:00:05.293Z</time></trkpt><trkpt lat="43.399495" lon="13.19138333"><ele>235.0</ele><time>2022-03-17T15:00:06.328Z</time></trkpt><trkpt lat="43.399495" lon="13.19138333"><ele>235.0</ele><time>2022-03-17T15:00:07.299Z</time></trkpt><trkpt lat="43.39944333" lon="13.191455"><ele>236.0</ele><time>2022-03-17T15:00:08.308Z</time></trkpt><trkpt lat="43.39941333" lon="13.19149333"><ele>236.0</ele><time>2022-03-17T15:00:09.287Z</time></trkpt><trkpt lat="43.39941333" lon="13.19149333"><ele>236.0</ele><time>2022-03-17T15:00:10.304Z</time></trkpt><trkpt lat="43.39937" lon="13.19158167"><ele>237.0</ele><time>2022-03-17T15:00:11.316Z</time></trkpt><trkpt lat="43.39937" lon="13.19158167"><ele>237.0</ele><time>2022-03-17T15:00:12.311Z</time></trkpt><trkpt lat="43.39934167" lon="13.19167667"><ele>237.0</ele><time>2022-03-17T15:00:13.323Z</time></trkpt><trkpt lat="43.39934167" lon="13.19167667"><ele>237.0</ele><time>2022-03-17T15:00:14.300Z</time></trkpt><trkpt lat="43.39932667" lon="13.19176667"><ele>238.0</ele><time>2022-03-17T15:00:15.309Z</time></trkpt><trkpt lat="43.39932667" lon="13.19176667"><ele>238.0</ele><time>2022-03-17T15:00:16.292Z</time></trkpt><trkpt lat="43.39933667" lon="13.19185667"><ele>239.0</ele><time>2022-03-17T15:00:17.302Z</time></trkpt><trkpt lat="43.39933667" lon="13.19185667"><ele>239.0</ele><time>2022-03-17T15:00:18.287Z</time></trkpt><trkpt lat="43.39935333" lon="13.19194167"><ele>239.0</ele><time>2022-03-17T15:00:19.298Z</time></trkpt><trkpt lat="43.39935333" lon="13.19194167"><ele>239.0</ele><time>2022-03-17T15:00:20.296Z</time></trkpt><trkpt lat="43.39937167" lon="13.19203"><ele>239.0</ele><time>2022-03-17T15:00:21.329Z</time></trkpt><trkpt lat="43.39937167" lon="13.19203"><ele>239.0</ele><time>2022-03-17T15:00:22.303Z</time></trkpt><trkpt lat="43.399385" lon="13.19211667"><ele>239.0</ele><time>2022-03-17T15:00:23.315Z</time></trkpt><trkpt lat="43.39939167" lon="13.19215667"><ele>239.0</ele><time>2022-03-17T15:00:24.307Z</time></trkpt><trkpt lat="43.39939167" lon="13.19215667"><ele>239.0</ele><time>2022-03-17T15:00:25.321Z</time></trkpt><trkpt lat="43.39940833" lon="13.19223667"><ele>239.0</ele><time>2022-03-17T15:00:26.314Z</time></trkpt><trkpt lat="43.39941667" lon="13.192275"><ele>239.0</ele><time>2022-03-17T15:00:27.317Z</time></trkpt><trkpt lat="43.39941667" lon="13.192275"><ele>239.0</ele><time>2022-03-17T15:00:28.298Z</time></trkpt><trkpt lat="43.39942833" lon="13.192355"><ele>239.0</ele><time>2022-03-17T15:00:29.308Z</time></trkpt><trkpt lat="43.39942833" lon="13.192355"><ele>239.0</ele><time>2022-03-17T15:00:30.301Z</time></trkpt><trkpt lat="43.399445" lon="13.19243667"><ele>239.0</ele><time>2022-03-17T15:00:31.315Z</time></trkpt><trkpt lat="43.399445" lon="13.19243667"><ele>239.0</ele><time>2022-03-17T15:00:32.301Z</time></trkpt><trkpt lat="43.39946" lon="13.19252"><ele>240.0</ele><time>2022-03-17T15:00:33.316Z</time></trkpt><trkpt lat="43.39946667" lon="13.19256167"><ele>240.0</ele><time>2022-03-17T15:00:34.293Z</time></trkpt><trkpt lat="43.39946667" lon="13.19256167"><ele>240.0</ele><time>2022-03-17T15:00:35.311Z</time></trkpt><trkpt lat="43.39948" lon="13.19264833"><ele>240.0</ele><time>2022-03-17T15:00:36.289Z</time></trkpt><trkpt lat="43.39948" lon="13.19264833"><ele>240.0</ele><time>2022-03-17T15:00:37.317Z</time></trkpt><trkpt lat="43.39949" lon="13.19273167"><ele>240.0</ele><time>2022-03-17T15:00:38.299Z</time></trkpt><trkpt lat="43.399495" lon="13.19277667"><ele>241.0</ele><time>2022-03-17T15:00:39.316Z</time></trkpt><trkpt lat="43.399495" lon="13.19277667"><ele>241.0</ele><time>2022-03-17T15:00:40.309Z</time></trkpt><trkpt lat="43.39951" lon="13.19287167"><ele>241.0</ele><time>2022-03-17T15:00:41.322Z</time></trkpt><trkpt lat="43.39951" lon="13.19287167"><ele>241.0</ele><time>2022-03-17T15:00:42.293Z</time></trkpt><trkpt lat="43.39952833" lon="13.19295667"><ele>241.0</ele><time>2022-03-17T15:00:43.303Z</time></trkpt><trkpt lat="43.39952833" lon="13.19295667"><ele>241.0</ele><time>2022-03-17T15:00:44.318Z</time></trkpt><trkpt lat="43.399545" lon="13.19304167"><ele>242.0</ele><time>2022-03-17T15:00:45.284Z</time></trkpt><trkpt lat="43.399545" lon="13.19304167"><ele>242.0</ele><time>2022-03-17T15:00:46.315Z</time></trkpt><trkpt lat="43.39956833" lon="13.19312"><ele>242.0</ele><time>2022-03-17T15:00:47.326Z</time></trkpt><trkpt lat="43.399585" lon="13.19315667"><ele>242.0</ele><time>2022-03-17T15:00:48.311Z</time></trkpt><trkpt lat="43.399585" lon="13.19315667"><ele>242.0</ele><time>2022-03-17T15:00:49.294Z</time></trkpt><trkpt lat="43.39961667" lon="13.19323"><ele>242.0</ele><time>2022-03-17T15:00:50.313Z</time></trkpt><trkpt lat="43.39962667" lon="13.19326333"><ele>242.0</ele><time>2022-03-17T15:00:51.292Z</time></trkpt><trkpt lat="43.39962667" lon="13.19326333"><ele>242.0</ele><time>2022-03-17T15:00:52.302Z</time></trkpt><trkpt lat="43.39966833" lon="13.19332833"><ele>242.0</ele><time>2022-03-17T15:00:53.309Z</time></trkpt><trkpt lat="43.39966833" lon="13.19332833"><ele>242.0</ele><time>2022-03-17T15:00:54.286Z</time></trkpt><trkpt lat="43.39970667" lon="13.19339167"><ele>241.0</ele><time>2022-03-17T15:00:55.285Z</time></trkpt><trkpt lat="43.39972667" lon="13.19342667"><ele>241.0</ele><time>2022-03-17T15:00:56.309Z</time></trkpt><trkpt lat="43.39974833" lon="13.19346"><ele>241.0</ele><time>2022-03-17T15:00:57.292Z</time></trkpt><trkpt lat="43.39974833" lon="13.19346"><ele>241.0</ele><time>2022-03-17T15:00:58.288Z</time></trkpt><trkpt lat="43.39978167" lon="13.19353"><ele>241.0</ele><time>2022-03-17T15:00:59.295Z</time></trkpt><trkpt lat="43.3998" lon="13.193565"><ele>241.0</ele><time>2022-03-17T15:01:00.290Z</time></trkpt><trkpt lat="43.3998" lon="13.193565"><ele>241.0</ele><time>2022-03-17T15:01:01.308Z</time></trkpt><trkpt lat="43.399845" lon="13.19362667"><ele>240.0</ele><time>2022-03-17T15:01:02.314Z</time></trkpt><trkpt lat="43.399845" lon="13.19362667"><ele>240.0</ele><time>2022-03-17T15:01:03.290Z</time></trkpt><trkpt lat="43.399885" lon="13.193695"><ele>240.0</ele><time>2022-03-17T15:01:04.302Z</time></trkpt><trkpt lat="43.399885" lon="13.193695"><ele>240.0</ele><time>2022-03-17T15:01:05.322Z</time></trkpt><trkpt lat="43.39992667" lon="13.19376167"><ele>240.0</ele><time>2022-03-17T15:01:06.319Z</time></trkpt><trkpt lat="43.39992667" lon="13.19376167"><ele>240.0</ele><time>2022-03-17T15:01:07.307Z</time></trkpt><trkpt lat="43.39997167" lon="13.19382"><ele>241.0</ele><time>2022-03-17T15:01:08.319Z</time></trkpt><trkpt lat="43.39999" lon="13.19385667"><ele>241.0</ele><time>2022-03-17T15:01:09.316Z</time></trkpt><trkpt lat="43.39999" lon="13.19385667"><ele>241.0</ele><time>2022-03-17T15:01:10.302Z</time></trkpt><trkpt lat="43.40003" lon="13.19395333"><ele>241.0</ele><time>2022-03-17T15:01:11.309Z</time></trkpt><trkpt lat="43.40003" lon="13.19395333"><ele>241.0</ele><time>2022-03-17T15:01:12.289Z</time></trkpt><trkpt lat="43.400075" lon="13.19402167"><ele>241.0</ele><time>2022-03-17T15:01:13.296Z</time></trkpt><trkpt lat="43.400075" lon="13.19402167"><ele>241.0</ele><time>2022-03-17T15:01:14.316Z</time></trkpt><trkpt lat="43.400125" lon="13.19408667"><ele>242.0</ele><time>2022-03-17T15:01:15.290Z</time></trkpt><trkpt lat="43.400125" lon="13.19408667"><ele>242.0</ele><time>2022-03-17T15:01:16.305Z</time></trkpt><trkpt lat="43.40017667" lon="13.19415667"><ele>242.0</ele><time>2022-03-17T15:01:17.318Z</time></trkpt><trkpt lat="43.40020667" lon="13.19419"><ele>242.0</ele><time>2022-03-17T15:01:18.300Z</time></trkpt><trkpt lat="43.40020667" lon="13.19419"><ele>242.0</ele><time>2022-03-17T15:01:19.316Z</time></trkpt><trkpt lat="43.40026" lon="13.19425833"><ele>242.0</ele><time>2022-03-17T15:01:20.294Z</time></trkpt><trkpt lat="43.40028167" lon="13.19429833"><ele>242.0</ele><time>2022-03-17T15:01:21.292Z</time></trkpt><trkpt lat="43.40028167" lon="13.19429833"><ele>242.0</ele><time>2022-03-17T15:01:22.309Z</time></trkpt><trkpt lat="43.40032333" lon="13.194385"><ele>242.0</ele><time>2022-03-17T15:01:23.318Z</time></trkpt><trkpt lat="43.40034667" lon="13.19443"><ele>242.0</ele><time>2022-03-17T15:01:24.291Z</time></trkpt><trkpt lat="43.40034667" lon="13.19443"><ele>242.0</ele><time>2022-03-17T15:01:25.304Z</time></trkpt><trkpt lat="43.40038" lon="13.19453167"><ele>242.0</ele><time>2022-03-17T15:01:26.289Z</time></trkpt><trkpt lat="43.40039333" lon="13.194585"><ele>242.0</ele><time>2022-03-17T15:01:27.309Z</time></trkpt><trkpt lat="43.40039333" lon="13.194585"><ele>242.0</ele><time>2022-03-17T15:01:28.286Z</time></trkpt><trkpt lat="43.400405" lon="13.19469833"><ele>241.0</ele><time>2022-03-17T15:01:29.296Z</time></trkpt><trkpt lat="43.40040333" lon="13.19475667"><ele>241.0</ele><time>2022-03-17T15:01:30.297Z</time></trkpt><trkpt lat="43.40040333" lon="13.19475667"><ele>241.0</ele><time>2022-03-17T15:01:31.323Z</time></trkpt><trkpt lat="43.40039167" lon="13.19487167"><ele>241.0</ele><time>2022-03-17T15:01:32.298Z</time></trkpt><trkpt lat="43.40039167" lon="13.19487167"><ele>241.0</ele><time>2022-03-17T15:01:33.285Z</time></trkpt><trkpt lat="43.40038333" lon="13.19497833"><ele>242.0</ele><time>2022-03-17T15:01:34.292Z</time></trkpt><trkpt lat="43.40038333" lon="13.19497833"><ele>242.0</ele><time>2022-03-17T15:01:35.314Z</time></trkpt><trkpt lat="43.40038333" lon="13.19507333"><ele>242.0</ele><time>2022-03-17T15:01:36.284Z</time></trkpt><trkpt lat="43.40038333" lon="13.19507333"><ele>242.0</ele><time>2022-03-17T15:01:37.314Z</time></trkpt><trkpt lat="43.40037" lon="13.19516167"><ele>242.0</ele><time>2022-03-17T15:01:38.288Z</time></trkpt><trkpt lat="43.400365" lon="13.19520833"><ele>243.0</ele><time>2022-03-17T15:01:39.314Z</time></trkpt><trkpt lat="43.400365" lon="13.19520833"><ele>243.0</ele><time>2022-03-17T15:01:40.303Z</time></trkpt><trkpt lat="43.40035833" lon="13.19528833"><ele>243.0</ele><time>2022-03-17T15:01:41.316Z</time></trkpt><trkpt lat="43.40035333" lon="13.19533167"><ele>243.0</ele><time>2022-03-17T15:01:42.306Z</time></trkpt><trkpt lat="43.40035333" lon="13.19533167"><ele>243.0</ele><time>2022-03-17T15:01:43.287Z</time></trkpt><trkpt lat="43.40035333" lon="13.19541833"><ele>243.0</ele><time>2022-03-17T15:01:44.294Z</time></trkpt><trkpt lat="43.40035167" lon="13.19546333"><ele>244.0</ele><time>2022-03-17T15:01:45.315Z</time></trkpt><trkpt lat="43.40035167" lon="13.19546333"><ele>244.0</ele><time>2022-03-17T15:01:46.291Z</time></trkpt><trkpt lat="43.40037" lon="13.19554833"><ele>244.0</ele><time>2022-03-17T15:01:47.304Z</time></trkpt><trkpt lat="43.40037" lon="13.19554833"><ele>244.0</ele><time>2022-03-17T15:01:48.285Z</time></trkpt><trkpt lat="43.400385" lon="13.19564333"><ele>244.0</ele><time>2022-03-17T15:01:49.292Z</time></trkpt><trkpt lat="43.40038833" lon="13.19568833"><ele>245.0</ele><time>2022-03-17T15:01:50.312Z</time></trkpt><trkpt lat="43.40039333" lon="13.19573167"><ele>245.0</ele><time>2022-03-17T15:01:51.291Z</time></trkpt><trkpt lat="43.40039333" lon="13.19573167"><ele>245.0</ele><time>2022-03-17T15:01:52.308Z</time></trkpt><trkpt lat="43.40040833" lon="13.19582"><ele>245.0</ele><time>2022-03-17T15:01:53.323Z</time></trkpt><trkpt lat="43.40042167" lon="13.19585833"><ele>245.0</ele><time>2022-03-17T15:01:54.303Z</time></trkpt><trkpt lat="43.40042167" lon="13.19585833"><ele>245.0</ele><time>2022-03-17T15:01:55.319Z</time></trkpt><trkpt lat="43.40044833" lon="13.195925"><ele>245.0</ele><time>2022-03-17T15:01:56.291Z</time></trkpt><trkpt lat="43.40046333" lon="13.19595833"><ele>245.0</ele><time>2022-03-17T15:01:57.325Z</time></trkpt><trkpt lat="43.40046333" lon="13.19595833"><ele>245.0</ele><time>2022-03-17T15:01:58.286Z</time></trkpt><trkpt lat="43.40049833" lon="13.19600333"><ele>245.0</ele><time>2022-03-17T15:01:59.293Z</time></trkpt><trkpt lat="43.40049833" lon="13.19600333"><ele>245.0</ele><time>2022-03-17T15:02:00.287Z</time></trkpt><trkpt lat="43.40053167" lon="13.19605667"><ele>245.0</ele><time>2022-03-17T15:02:01.287Z</time></trkpt><trkpt lat="43.40053167" lon="13.19605667"><ele>245.0</ele><time>2022-03-17T15:02:02.309Z</time></trkpt><trkpt lat="43.400585" lon="13.19611667"><ele>246.0</ele><time>2022-03-17T15:02:03.318Z</time></trkpt><trkpt lat="43.400585" lon="13.19611667"><ele>246.0</ele><time>2022-03-17T15:02:04.294Z</time></trkpt><trkpt lat="43.40062167" lon="13.19616833"><ele>246.0</ele><time>2022-03-17T15:02:05.288Z</time></trkpt><trkpt lat="43.40062167" lon="13.19616833"><ele>246.0</ele><time>2022-03-17T15:02:06.294Z</time></trkpt><trkpt lat="43.40066167" lon="13.196235"><ele>246.0</ele><time>2022-03-17T15:02:07.301Z</time></trkpt><trkpt lat="43.40066167" lon="13.196235"><ele>246.0</ele><time>2022-03-17T15:02:08.288Z</time></trkpt><trkpt lat="43.4007" lon="13.196305"><ele>246.0</ele><time>2022-03-17T15:02:09.296Z</time></trkpt><trkpt lat="43.4007" lon="13.196305"><ele>246.0</ele><time>2022-03-17T15:02:10.294Z</time></trkpt><trkpt lat="43.40075667" lon="13.19640167"><ele>246.0</ele><time>2022-03-17T15:02:11.330Z</time></trkpt><trkpt lat="43.40075667" lon="13.19640167"><ele>246.0</ele><time>2022-03-17T15:02:12.316Z</time></trkpt><trkpt lat="43.40080833" lon="13.19648667"><ele>246.0</ele><time>2022-03-17T15:02:13.297Z</time></trkpt><trkpt lat="43.400835" lon="13.19653833"><ele>246.0</ele><time>2022-03-17T15:02:14.300Z</time></trkpt><trkpt lat="43.400835" lon="13.19653833"><ele>246.0</ele><time>2022-03-17T15:02:15.289Z</time></trkpt><trkpt lat="43.40086167" lon="13.19664833"><ele>246.0</ele><time>2022-03-17T15:02:16.303Z</time></trkpt><trkpt lat="43.40086667" lon="13.19670833"><ele>245.0</ele><time>2022-03-17T15:02:17.322Z</time></trkpt><trkpt lat="43.40086667" lon="13.19670833"><ele>245.0</ele><time>2022-03-17T15:02:18.301Z</time></trkpt><trkpt lat="43.40088167" lon="13.19683"><ele>245.0</ele><time>2022-03-17T15:02:19.313Z</time></trkpt><trkpt lat="43.40088167" lon="13.19683"><ele>245.0</ele><time>2022-03-17T15:02:20.293Z</time></trkpt><trkpt lat="43.400895" lon="13.19694667"><ele>244.0</ele><time>2022-03-17T15:02:21.288Z</time></trkpt><trkpt lat="43.400895" lon="13.19694667"><ele>244.0</ele><time>2022-03-17T15:02:22.307Z</time></trkpt><trkpt lat="43.400915" lon="13.19706667"><ele>244.0</ele><time>2022-03-17T15:02:23.317Z</time></trkpt><trkpt lat="43.400915" lon="13.19706667"><ele>244.0</ele><time>2022-03-17T15:02:24.296Z</time></trkpt><trkpt lat="43.40093167" lon="13.19717833"><ele>244.0</ele><time>2022-03-17T15:02:25.308Z</time></trkpt><trkpt lat="43.40093167" lon="13.19717833"><ele>244.0</ele><time>2022-03-17T15:02:26.293Z</time></trkpt><trkpt lat="43.40096167" lon="13.19729333"><ele>244.0</ele><time>2022-03-17T15:02:27.293Z</time></trkpt><trkpt lat="43.40096167" lon="13.19729333"><ele>244.0</ele><time>2022-03-17T15:02:28.285Z</time></trkpt><trkpt lat="43.40099333" lon="13.19740833"><ele>244.0</ele><time>2022-03-17T15:02:29.294Z</time></trkpt><trkpt lat="43.40099333" lon="13.19740833"><ele>244.0</ele><time>2022-03-17T15:02:30.312Z</time></trkpt><trkpt lat="43.40102667" lon="13.19752833"><ele>243.0</ele><time>2022-03-17T15:02:31.322Z</time></trkpt><trkpt lat="43.40102667" lon="13.19752833"><ele>243.0</ele><time>2022-03-17T15:02:32.286Z</time></trkpt><trkpt lat="43.401055" lon="13.19766"><ele>244.0</ele><time>2022-03-17T15:02:33.293Z</time></trkpt><trkpt lat="43.401055" lon="13.19766"><ele>244.0</ele><time>2022-03-17T15:02:34.306Z</time></trkpt><trkpt lat="43.40107667" lon="13.19779"><ele>244.0</ele><time>2022-03-17T15:02:35.313Z</time></trkpt><trkpt lat="43.40109167" lon="13.19784833"><ele>244.0</ele><time>2022-03-17T15:02:36.306Z</time></trkpt><trkpt lat="43.40109167" lon="13.19784833"><ele>244.0</ele><time>2022-03-17T15:02:37.297Z</time></trkpt><trkpt lat="43.40112" lon="13.19797"><ele>244.0</ele><time>2022-03-17T15:02:38.305Z</time></trkpt><trkpt lat="43.40112" lon="13.19797"><ele>244.0</ele><time>2022-03-17T15:02:39.289Z</time></trkpt><trkpt lat="43.40115333" lon="13.19808167"><ele>245.0</ele><time>2022-03-17T15:02:40.296Z</time></trkpt><trkpt lat="43.40115333" lon="13.19808167"><ele>245.0</ele><time>2022-03-17T15:02:41.318Z</time></trkpt><trkpt lat="43.40118833" lon="13.19818333"><ele>246.0</ele><time>2022-03-17T15:02:42.290Z</time></trkpt><trkpt lat="43.40118833" lon="13.19818333"><ele>246.0</ele><time>2022-03-17T15:02:43.304Z</time></trkpt><trkpt lat="43.40121" lon="13.19827167"><ele>246.0</ele><time>2022-03-17T15:02:44.313Z</time></trkpt><trkpt lat="43.40122" lon="13.19831167"><ele>247.0</ele><time>2022-03-17T15:02:45.322Z</time></trkpt><trkpt lat="43.40122" lon="13.19831167"><ele>247.0</ele><time>2022-03-17T15:02:46.286Z</time></trkpt><trkpt lat="43.40124333" lon="13.19838667"><ele>247.0</ele><time>2022-03-17T15:02:47.298Z</time></trkpt><trkpt lat="43.40125167" lon="13.19842167"><ele>247.0</ele><time>2022-03-17T15:02:48.289Z</time></trkpt><trkpt lat="43.40125167" lon="13.19842167"><ele>247.0</ele><time>2022-03-17T15:02:49.314Z</time></trkpt><trkpt lat="43.40126833" lon="13.198495"><ele>248.0</ele><time>2022-03-17T15:02:50.286Z</time></trkpt><trkpt lat="43.40126833" lon="13.198495"><ele>248.0</ele><time>2022-03-17T15:02:51.306Z</time></trkpt><trkpt lat="43.40128333" lon="13.19857667"><ele>249.0</ele><time>2022-03-17T15:02:52.314Z</time></trkpt><trkpt lat="43.40128333" lon="13.19857667"><ele>249.0</ele><time>2022-03-17T15:02:53.288Z</time></trkpt><trkpt lat="43.4013" lon="13.19864833"><ele>249.0</ele><time>2022-03-17T15:02:54.297Z</time></trkpt><trkpt lat="43.40130833" lon="13.19868333"><ele>250.0</ele><time>2022-03-17T15:02:55.296Z</time></trkpt><trkpt lat="43.40130833" lon="13.19868333"><ele>250.0</ele><time>2022-03-17T15:02:56.286Z</time></trkpt><trkpt lat="43.40133167" lon="13.19875333"><ele>252.0</ele><time>2022-03-17T15:02:57.294Z</time></trkpt><trkpt lat="43.40133167" lon="13.19875333"><ele>252.0</ele><time>2022-03-17T15:02:58.291Z</time></trkpt><trkpt lat="43.40134" lon="13.19880333"><ele>252.0</ele><time>2022-03-17T15:02:59.300Z</time></trkpt><trkpt lat="43.40134" lon="13.19880333"><ele>252.0</ele><time>2022-03-17T15:03:00.289Z</time></trkpt><trkpt lat="43.401345" lon="13.198855"><ele>253.0</ele><time>2022-03-17T15:03:01.296Z</time></trkpt><trkpt lat="43.401345" lon="13.198855"><ele>253.0</ele><time>2022-03-17T15:03:02.319Z</time></trkpt><trkpt lat="43.401355" lon="13.19890667"><ele>253.0</ele><time>2022-03-17T15:03:03.290Z</time></trkpt><trkpt lat="43.40136167" lon="13.19893"><ele>254.0</ele><time>2022-03-17T15:03:04.304Z</time></trkpt><trkpt lat="43.40136167" lon="13.19893"><ele>254.0</ele><time>2022-03-17T15:03:05.303Z</time></trkpt><trkpt lat="43.40136833" lon="13.198985"><ele>255.0</ele><time>2022-03-17T15:03:06.315Z</time></trkpt><trkpt lat="43.401375" lon="13.199015"><ele>255.0</ele><time>2022-03-17T15:03:07.286Z</time></trkpt><trkpt lat="43.401375" lon="13.199015"><ele>255.0</ele><time>2022-03-17T15:03:08.315Z</time></trkpt><trkpt lat="43.40138333" lon="13.199075"><ele>256.0</ele><time>2022-03-17T15:03:09.285Z</time></trkpt><trkpt lat="43.40138333" lon="13.199075"><ele>256.0</ele><time>2022-03-17T15:03:10.315Z</time></trkpt><trkpt lat="43.40139" lon="13.19913667"><ele>256.0</ele><time>2022-03-17T15:03:11.285Z</time></trkpt><trkpt lat="43.40138667" lon="13.19917"><ele>257.0</ele><time>2022-03-17T15:03:12.311Z</time></trkpt><trkpt lat="43.40138667" lon="13.19917"><ele>257.0</ele><time>2022-03-17T15:03:13.289Z</time></trkpt><trkpt lat="43.401385" lon="13.19923333"><ele>257.0</ele><time>2022-03-17T15:03:14.296Z</time></trkpt><trkpt lat="43.401395" lon="13.19926"><ele>258.0</ele><time>2022-03-17T15:03:15.289Z</time></trkpt><trkpt lat="43.401395" lon="13.19926"><ele>258.0</ele><time>2022-03-17T15:03:16.303Z</time></trkpt><trkpt lat="43.4014" lon="13.19932"><ele>259.0</ele><time>2022-03-17T15:03:17.312Z</time></trkpt><trkpt lat="43.40139833" lon="13.19935"><ele>260.0</ele><time>2022-03-17T15:03:18.306Z</time></trkpt><trkpt lat="43.40139833" lon="13.19935"><ele>260.0</ele><time>2022-03-17T15:03:19.290Z</time></trkpt><trkpt lat="43.40138667" lon="13.199405"><ele>261.0</ele><time>2022-03-17T15:03:20.297Z</time></trkpt><trkpt lat="43.40137833" lon="13.19943333"><ele>261.0</ele><time>2022-03-17T15:03:21.289Z</time></trkpt><trkpt lat="43.40137833" lon="13.19943333"><ele>261.0</ele><time>2022-03-17T15:03:22.299Z</time></trkpt><trkpt lat="43.40135667" lon="13.199485"><ele>262.0</ele><time>2022-03-17T15:03:23.312Z</time></trkpt><trkpt lat="43.40134667" lon="13.19951"><ele>263.0</ele><time>2022-03-17T15:03:24.291Z</time></trkpt><trkpt lat="43.40133667" lon="13.199535"><ele>263.0</ele><time>2022-03-17T15:03:25.311Z</time></trkpt><trkpt lat="43.40133667" lon="13.199535"><ele>263.0</ele><time>2022-03-17T15:03:26.299Z</time></trkpt><trkpt lat="43.40131" lon="13.19958667"><ele>264.0</ele><time>2022-03-17T15:03:27.294Z</time></trkpt><trkpt lat="43.40129833" lon="13.19961"><ele>264.0</ele><time>2022-03-17T15:03:28.293Z</time></trkpt><trkpt lat="43.40129833" lon="13.19961"><ele>264.0</ele><time>2022-03-17T15:03:29.311Z</time></trkpt><trkpt lat="43.40127" lon="13.199655"><ele>265.0</ele><time>2022-03-17T15:03:30.292Z</time></trkpt><trkpt lat="43.40125667" lon="13.19967667"><ele>266.0</ele><time>2022-03-17T15:03:31.294Z</time></trkpt><trkpt lat="43.40125667" lon="13.19967667"><ele>266.0</ele><time>2022-03-17T15:03:32.315Z</time></trkpt><trkpt lat="43.40122833" lon="13.199725"><ele>266.0</ele><time>2022-03-17T15:03:33.298Z</time></trkpt><trkpt lat="43.40122833" lon="13.199725"><ele>266.0</ele><time>2022-03-17T15:03:34.290Z</time></trkpt><trkpt lat="43.4012" lon="13.199775"><ele>267.0</ele><time>2022-03-17T15:03:35.300Z</time></trkpt><trkpt lat="43.401185" lon="13.19979833"><ele>267.0</ele><time>2022-03-17T15:03:36.307Z</time></trkpt><trkpt lat="43.401185" lon="13.19979833"><ele>267.0</ele><time>2022-03-17T15:03:37.312Z</time></trkpt><trkpt lat="43.40115167" lon="13.19984333"><ele>268.0</ele><time>2022-03-17T15:03:38.295Z</time></trkpt><trkpt lat="43.40115167" lon="13.19984333"><ele>268.0</ele><time>2022-03-17T15:03:39.297Z</time></trkpt><trkpt lat="43.40112167" lon="13.19989167"><ele>269.0</ele><time>2022-03-17T15:03:40.310Z</time></trkpt><trkpt lat="43.40112167" lon="13.19989167"><ele>269.0</ele><time>2022-03-17T15:03:41.323Z</time></trkpt><trkpt lat="43.4011" lon="13.19993167"><ele>270.0</ele><time>2022-03-17T15:03:42.296Z</time></trkpt><trkpt lat="43.4011" lon="13.19993167"><ele>270.0</ele><time>2022-03-17T15:03:43.286Z</time></trkpt><trkpt lat="43.40108" lon="13.19998833"><ele>271.0</ele><time>2022-03-17T15:03:44.294Z</time></trkpt><trkpt lat="43.40107" lon="13.200015"><ele>272.0</ele><time>2022-03-17T15:03:45.314Z</time></trkpt><trkpt lat="43.40107" lon="13.200015"><ele>272.0</ele><time>2022-03-17T15:03:46.308Z</time></trkpt><trkpt lat="43.40104667" lon="13.20006667"><ele>273.0</ele><time>2022-03-17T15:03:47.316Z</time></trkpt><trkpt lat="43.40103167" lon="13.20009"><ele>273.0</ele><time>2022-03-17T15:03:48.316Z</time></trkpt><trkpt lat="43.40101833" lon="13.20011667"><ele>274.0</ele><time>2022-03-17T15:03:49.306Z</time></trkpt><trkpt lat="43.40101833" lon="13.20011667"><ele>274.0</ele><time>2022-03-17T15:03:50.302Z</time></trkpt><trkpt lat="43.40099" lon="13.200165"><ele>274.0</ele><time>2022-03-17T15:03:51.315Z</time></trkpt><trkpt lat="43.40099" lon="13.200165"><ele>274.0</ele><time>2022-03-17T15:03:52.296Z</time></trkpt><trkpt lat="43.40096167" lon="13.20020667"><ele>275.0</ele><time>2022-03-17T15:03:53.306Z</time></trkpt><trkpt lat="43.40094667" lon="13.20023"><ele>275.0</ele><time>2022-03-17T15:03:54.308Z</time></trkpt><trkpt lat="43.400935" lon="13.20025333"><ele>275.0</ele><time>2022-03-17T15:03:55.295Z</time></trkpt><trkpt lat="43.400935" lon="13.20025333"><ele>275.0</ele><time>2022-03-17T15:03:56.292Z</time></trkpt><trkpt lat="43.400905" lon="13.20029333"><ele>276.0</ele><time>2022-03-17T15:03:57.305Z</time></trkpt><trkpt lat="43.400905" lon="13.20029333"><ele>276.0</ele><time>2022-03-17T15:03:58.295Z</time></trkpt><trkpt lat="43.40086833" lon="13.20034167"><ele>275.0</ele><time>2022-03-17T15:03:59.305Z</time></trkpt><trkpt lat="43.40084833" lon="13.200365"><ele>276.0</ele><time>2022-03-17T15:04:00.289Z</time></trkpt><trkpt lat="43.40084833" lon="13.200365"><ele>276.0</ele><time>2022-03-17T15:04:01.287Z</time></trkpt><trkpt lat="43.40081333" lon="13.200415"><ele>276.0</ele><time>2022-03-17T15:04:02.300Z</time></trkpt><trkpt lat="43.400795" lon="13.20044"><ele>275.0</ele><time>2022-03-17T15:04:03.291Z</time></trkpt><trkpt lat="43.400795" lon="13.20044"><ele>275.0</ele><time>2022-03-17T15:04:04.306Z</time></trkpt><trkpt lat="43.40076833" lon="13.20049"><ele>275.0</ele><time>2022-03-17T15:04:05.315Z</time></trkpt><trkpt lat="43.40075333" lon="13.200515"><ele>276.0</ele><time>2022-03-17T15:04:06.302Z</time></trkpt><trkpt lat="43.40075333" lon="13.200515"><ele>276.0</ele><time>2022-03-17T15:04:07.301Z</time></trkpt><trkpt lat="43.40072167" lon="13.20056667"><ele>276.0</ele><time>2022-03-17T15:04:08.313Z</time></trkpt><trkpt lat="43.40070167" lon="13.20059667"><ele>275.0</ele><time>2022-03-17T15:04:09.297Z</time></trkpt><trkpt lat="43.40070167" lon="13.20059667"><ele>275.0</ele><time>2022-03-17T15:04:10.309Z</time></trkpt><trkpt lat="43.400665" lon="13.200655"><ele>275.0</ele><time>2022-03-17T15:04:11.323Z</time></trkpt><trkpt lat="43.40064833" lon="13.20068333"><ele>275.0</ele><time>2022-03-17T15:04:12.299Z</time></trkpt><trkpt lat="43.40064833" lon="13.20068333"><ele>275.0</ele><time>2022-03-17T15:04:13.321Z</time></trkpt><trkpt lat="43.40060833" lon="13.20073833"><ele>275.0</ele><time>2022-03-17T15:04:14.289Z</time></trkpt><trkpt lat="43.40059167" lon="13.20076833"><ele>275.0</ele><time>2022-03-17T15:04:15.309Z</time></trkpt><trkpt lat="43.40057667" lon="13.20079667"><ele>274.0</ele><time>2022-03-17T15:04:16.297Z</time></trkpt><trkpt lat="43.40057667" lon="13.20079667"><ele>274.0</ele><time>2022-03-17T15:04:17.303Z</time></trkpt><trkpt lat="43.40055167" lon="13.200845"><ele>274.0</ele><time>2022-03-17T15:04:18.315Z</time></trkpt><trkpt lat="43.40055167" lon="13.200845"><ele>274.0</ele><time>2022-03-17T15:04:19.299Z</time></trkpt><trkpt lat="43.40051833" lon="13.20089667"><ele>275.0</ele><time>2022-03-17T15:04:20.315Z</time></trkpt><trkpt lat="43.40051833" lon="13.20089667"><ele>275.0</ele><time>2022-03-17T15:04:21.299Z</time></trkpt><trkpt lat="43.40049167" lon="13.20094667"><ele>275.0</ele><time>2022-03-17T15:04:22.309Z</time></trkpt><trkpt lat="43.40047833" lon="13.20096833"><ele>276.0</ele><time>2022-03-17T15:04:23.348Z</time></trkpt><trkpt lat="43.40047833" lon="13.20096833"><ele>276.0</ele><time>2022-03-17T15:04:24.306Z</time></trkpt><trkpt lat="43.40044333" lon="13.20101667"><ele>277.0</ele><time>2022-03-17T15:04:25.319Z</time></trkpt><trkpt lat="43.40044333" lon="13.20101667"><ele>277.0</ele><time>2022-03-17T15:04:26.317Z</time></trkpt><trkpt lat="43.40041333" lon="13.201065"><ele>277.0</ele><time>2022-03-17T15:04:27.311Z</time></trkpt><trkpt lat="43.40039833" lon="13.20109333"><ele>278.0</ele><time>2022-03-17T15:04:28.297Z</time></trkpt><trkpt lat="43.400385" lon="13.20112167"><ele>278.0</ele><time>2022-03-17T15:04:29.289Z</time></trkpt><trkpt lat="43.40037167" lon="13.20115"><ele>278.0</ele><time>2022-03-17T15:04:30.320Z</time></trkpt><trkpt lat="43.40037167" lon="13.20115"><ele>278.0</ele><time>2022-03-17T15:04:31.303Z</time></trkpt><trkpt lat="43.40034833" lon="13.20121167"><ele>279.0</ele><time>2022-03-17T15:04:32.285Z</time></trkpt><trkpt lat="43.40033667" lon="13.20124167"><ele>278.0</ele><time>2022-03-17T15:04:33.309Z</time></trkpt><trkpt lat="43.40033667" lon="13.20124167"><ele>278.0</ele><time>2022-03-17T15:04:34.292Z</time></trkpt><trkpt lat="43.40031667" lon="13.2013"><ele>278.0</ele><time>2022-03-17T15:04:35.302Z</time></trkpt><trkpt lat="43.40031333" lon="13.20133"><ele>277.0</ele><time>2022-03-17T15:04:36.290Z</time></trkpt><trkpt lat="43.40031333" lon="13.20133"><ele>277.0</ele><time>2022-03-17T15:04:37.311Z</time></trkpt><trkpt lat="43.40031167" lon="13.20140167"><ele>277.0</ele><time>2022-03-17T15:04:38.297Z</time></trkpt><trkpt lat="43.40031667" lon="13.20143333"><ele>277.0</ele><time>2022-03-17T15:04:39.314Z</time></trkpt><trkpt lat="43.40031667" lon="13.20143333"><ele>277.0</ele><time>2022-03-17T15:04:40.298Z</time></trkpt><trkpt lat="43.400335" lon="13.20149667"><ele>277.0</ele><time>2022-03-17T15:04:41.305Z</time></trkpt><trkpt lat="43.40034667" lon="13.20153"><ele>277.0</ele><time>2022-03-17T15:04:42.300Z</time></trkpt><trkpt lat="43.40034667" lon="13.20153"><ele>277.0</ele><time>2022-03-17T15:04:43.288Z</time></trkpt><trkpt lat="43.40037667" lon="13.20159833"><ele>277.0</ele><time>2022-03-17T15:04:44.297Z</time></trkpt><trkpt lat="43.40038833" lon="13.20163333"><ele>277.0</ele><time>2022-03-17T15:04:45.308Z</time></trkpt><trkpt lat="43.40038833" lon="13.20163333"><ele>277.0</ele><time>2022-03-17T15:04:46.295Z</time></trkpt><trkpt lat="43.40041333" lon="13.20169333"><ele>276.0</ele><time>2022-03-17T15:04:47.313Z</time></trkpt><trkpt lat="43.400425" lon="13.20172333"><ele>276.0</ele><time>2022-03-17T15:04:48.304Z</time></trkpt><trkpt lat="43.400425" lon="13.20172333"><ele>276.0</ele><time>2022-03-17T15:04:49.318Z</time></trkpt><trkpt lat="43.40045167" lon="13.20178333"><ele>276.0</ele><time>2022-03-17T15:04:50.293Z</time></trkpt><trkpt lat="43.40046667" lon="13.20181667"><ele>276.0</ele><time>2022-03-17T15:04:51.302Z</time></trkpt><trkpt lat="43.40046667" lon="13.20181667"><ele>276.0</ele><time>2022-03-17T15:04:52.288Z</time></trkpt><trkpt lat="43.40050333" lon="13.201885"><ele>276.0</ele><time>2022-03-17T15:04:53.301Z</time></trkpt><trkpt lat="43.40050333" lon="13.201885"><ele>276.0</ele><time>2022-03-17T15:04:54.291Z</time></trkpt><trkpt lat="43.40054333" lon="13.20196333"><ele>276.0</ele><time>2022-03-17T15:04:55.293Z</time></trkpt><trkpt lat="43.40054333" lon="13.20196333"><ele>276.0</ele><time>2022-03-17T15:04:56.290Z</time></trkpt><trkpt lat="43.40058167" lon="13.20204167"><ele>275.0</ele><time>2022-03-17T15:04:57.303Z</time></trkpt><trkpt lat="43.40058167" lon="13.20204167"><ele>275.0</ele><time>2022-03-17T15:04:58.297Z</time></trkpt><trkpt lat="43.40062" lon="13.20212"><ele>275.0</ele><time>2022-03-17T15:04:59.310Z</time></trkpt><trkpt lat="43.40063833" lon="13.20215833"><ele>275.0</ele><time>2022-03-17T15:05:00.322Z</time></trkpt><trkpt lat="43.40063833" lon="13.20215833"><ele>275.0</ele><time>2022-03-17T15:05:01.312Z</time></trkpt><trkpt lat="43.40067833" lon="13.202245"><ele>275.0</ele><time>2022-03-17T15:05:02.319Z</time></trkpt><trkpt lat="43.4007" lon="13.20229"><ele>275.0</ele><time>2022-03-17T15:05:03.304Z</time></trkpt><trkpt lat="43.4007" lon="13.20229"><ele>275.0</ele><time>2022-03-17T15:05:04.288Z</time></trkpt><trkpt lat="43.40074667" lon="13.20238"><ele>275.0</ele><time>2022-03-17T15:05:05.303Z</time></trkpt><trkpt lat="43.40074667" lon="13.20238"><ele>275.0</ele><time>2022-03-17T15:05:06.295Z</time></trkpt><trkpt lat="43.40079833" lon="13.20246167"><ele>275.0</ele><time>2022-03-17T15:05:07.307Z</time></trkpt><trkpt lat="43.40079833" lon="13.20246167"><ele>275.0</ele><time>2022-03-17T15:05:08.284Z</time></trkpt><trkpt lat="43.40085667" lon="13.202535"><ele>275.0</ele><time>2022-03-17T15:05:09.293Z</time></trkpt><trkpt lat="43.40085667" lon="13.202535"><ele>275.0</ele><time>2022-03-17T15:05:10.314Z</time></trkpt><trkpt lat="43.400915" lon="13.202605"><ele>275.0</ele><time>2022-03-17T15:05:11.284Z</time></trkpt><trkpt lat="43.400915" lon="13.202605"><ele>275.0</ele><time>2022-03-17T15:05:12.302Z</time></trkpt><trkpt lat="43.40098" lon="13.202665"><ele>275.0</ele><time>2022-03-17T15:05:13.310Z</time></trkpt><trkpt lat="43.40101167" lon="13.20269"><ele>275.0</ele><time>2022-03-17T15:05:14.309Z</time></trkpt><trkpt lat="43.40101167" lon="13.20269"><ele>275.0</ele><time>2022-03-17T15:05:15.288Z</time></trkpt><trkpt lat="43.40107167" lon="13.20273833"><ele>275.0</ele><time>2022-03-17T15:05:16.296Z</time></trkpt><trkpt lat="43.40107167" lon="13.20273833"><ele>275.0</ele><time>2022-03-17T15:05:17.291Z</time></trkpt><trkpt lat="43.40113" lon="13.20278167"><ele>276.0</ele><time>2022-03-17T15:05:18.321Z</time></trkpt><trkpt lat="43.40115667" lon="13.20280333"><ele>276.0</ele><time>2022-03-17T15:05:19.303Z</time></trkpt><trkpt lat="43.40115667" lon="13.20280333"><ele>276.0</ele><time>2022-03-17T15:05:20.288Z</time></trkpt><trkpt lat="43.401205" lon="13.20285333"><ele>277.0</ele><time>2022-03-17T15:05:21.299Z</time></trkpt><trkpt lat="43.401205" lon="13.20285333"><ele>277.0</ele><time>2022-03-17T15:05:22.300Z</time></trkpt><trkpt lat="43.40125167" lon="13.20290333"><ele>277.0</ele><time>2022-03-17T15:05:23.363Z</time></trkpt><trkpt lat="43.40125167" lon="13.20290333"><ele>277.0</ele><time>2022-03-17T15:05:24.305Z</time></trkpt><trkpt lat="43.40129333" lon="13.20296167"><ele>277.0</ele><time>2022-03-17T15:05:25.312Z</time></trkpt><trkpt lat="43.40129333" lon="13.20296167"><ele>277.0</ele><time>2022-03-17T15:05:26.302Z</time></trkpt><trkpt lat="43.40132833" lon="13.20303"><ele>278.0</ele><time>2022-03-17T15:05:27.301Z</time></trkpt><trkpt lat="43.40134167" lon="13.203065"><ele>278.0</ele><time>2022-03-17T15:05:28.286Z</time></trkpt><trkpt lat="43.40134167" lon="13.203065"><ele>278.0</ele><time>2022-03-17T15:05:29.302Z</time></trkpt><trkpt lat="43.40136833" lon="13.203135"><ele>278.0</ele><time>2022-03-17T15:05:30.312Z</time></trkpt><trkpt lat="43.40138333" lon="13.20316833"><ele>278.0</ele><time>2022-03-17T15:05:31.297Z</time></trkpt><trkpt lat="43.40138333" lon="13.20316833"><ele>278.0</ele><time>2022-03-17T15:05:32.315Z</time></trkpt><trkpt lat="43.40140333" lon="13.20324"><ele>279.0</ele><time>2022-03-17T15:05:33.284Z</time></trkpt><trkpt lat="43.40140333" lon="13.20324"><ele>279.0</ele><time>2022-03-17T15:05:34.299Z</time></trkpt><trkpt lat="43.40142167" lon="13.20331"><ele>279.0</ele><time>2022-03-17T15:05:35.284Z</time></trkpt><trkpt lat="43.40142167" lon="13.20331"><ele>279.0</ele><time>2022-03-17T15:05:36.285Z</time></trkpt><trkpt lat="43.40144833" lon="13.20338"><ele>279.0</ele><time>2022-03-17T15:05:37.294Z</time></trkpt><trkpt lat="43.40144833" lon="13.20338"><ele>279.0</ele><time>2022-03-17T15:05:38.289Z</time></trkpt><trkpt lat="43.40146667" lon="13.20345"><ele>279.0</ele><time>2022-03-17T15:05:39.300Z</time></trkpt><trkpt lat="43.401475" lon="13.20348333"><ele>279.0</ele><time>2022-03-17T15:05:40.324Z</time></trkpt><trkpt lat="43.401475" lon="13.20348333"><ele>279.0</ele><time>2022-03-17T15:05:41.323Z</time></trkpt><trkpt lat="43.40149833" lon="13.20354667"><ele>279.0</ele><time>2022-03-17T15:05:42.293Z</time></trkpt><trkpt lat="43.40149833" lon="13.20354667"><ele>279.0</ele><time>2022-03-17T15:05:43.303Z</time></trkpt><trkpt lat="43.40150667" lon="13.20361833"><ele>280.0</ele><time>2022-03-17T15:05:44.316Z</time></trkpt><trkpt lat="43.40150667" lon="13.20361833"><ele>280.0</ele><time>2022-03-17T15:05:45.307Z</time></trkpt><trkpt lat="43.40148333" lon="13.20365667"><ele>281.0</ele><time>2022-03-17T15:05:46.314Z</time></trkpt><trkpt lat="43.40148333" lon="13.20365667"><ele>281.0</ele><time>2022-03-17T15:05:47.311Z</time></trkpt><trkpt lat="43.40145667" lon="13.20362"><ele>281.0</ele><time>2022-03-17T15:05:48.286Z</time></trkpt><trkpt lat="43.40144" lon="13.203595"><ele>282.0</ele><time>2022-03-17T15:05:49.309Z</time></trkpt><trkpt lat="43.40144" lon="13.203595"><ele>282.0</ele><time>2022-03-17T15:05:50.302Z</time></trkpt><trkpt lat="43.40139833" lon="13.20355167"><ele>283.0</ele><time>2022-03-17T15:05:51.314Z</time></trkpt><trkpt lat="43.40139833" lon="13.20355167"><ele>283.0</ele><time>2022-03-17T15:05:52.287Z</time></trkpt><trkpt lat="43.40135333" lon="13.203505"><ele>284.0</ele><time>2022-03-17T15:05:53.316Z</time></trkpt><trkpt lat="43.40135333" lon="13.203505"><ele>284.0</ele><time>2022-03-17T15:05:54.308Z</time></trkpt><trkpt lat="43.4013" lon="13.20346167"><ele>285.0</ele><time>2022-03-17T15:05:55.322Z</time></trkpt><trkpt lat="43.4013" lon="13.20346167"><ele>285.0</ele><time>2022-03-17T15:05:56.305Z</time></trkpt><trkpt lat="43.40124333" lon="13.20343167"><ele>285.0</ele><time>2022-03-17T15:05:57.313Z</time></trkpt><trkpt lat="43.40124333" lon="13.20343167"><ele>285.0</ele><time>2022-03-17T15:05:58.312Z</time></trkpt><trkpt lat="43.40117833" lon="13.20342"><ele>287.0</ele><time>2022-03-17T15:05:59.322Z</time></trkpt><trkpt lat="43.40117833" lon="13.20342"><ele>287.0</ele><time>2022-03-17T15:06:00.316Z</time></trkpt><trkpt lat="43.401115" lon="13.20342167"><ele>287.0</ele><time>2022-03-17T15:06:01.315Z</time></trkpt><trkpt lat="43.40108333" lon="13.20342833"><ele>288.0</ele><time>2022-03-17T15:06:02.317Z</time></trkpt><trkpt lat="43.40105333" lon="13.20343667"><ele>288.0</ele><time>2022-03-17T15:06:03.289Z</time></trkpt><trkpt lat="43.40105333" lon="13.20343667"><ele>288.0</ele><time>2022-03-17T15:06:04.310Z</time></trkpt><trkpt lat="43.400995" lon="13.203455"><ele>289.0</ele><time>2022-03-17T15:06:05.319Z</time></trkpt><trkpt lat="43.400965" lon="13.20345667"><ele>289.0</ele><time>2022-03-17T15:06:06.307Z</time></trkpt><trkpt lat="43.400965" lon="13.20345667"><ele>289.0</ele><time>2022-03-17T15:06:07.323Z</time></trkpt><trkpt lat="43.40090667" lon="13.20347167"><ele>290.0</ele><time>2022-03-17T15:06:08.299Z</time></trkpt><trkpt lat="43.40087833" lon="13.20348167"><ele>290.0</ele><time>2022-03-17T15:06:09.323Z</time></trkpt><trkpt lat="43.40087833" lon="13.20348167"><ele>290.0</ele><time>2022-03-17T15:06:10.312Z</time></trkpt><trkpt lat="43.400825" lon="13.20350333"><ele>291.0</ele><time>2022-03-17T15:06:11.320Z</time></trkpt><trkpt lat="43.400825" lon="13.20350333"><ele>291.0</ele><time>2022-03-17T15:06:12.306Z</time></trkpt><trkpt lat="43.40076" lon="13.203525"><ele>291.0</ele><time>2022-03-17T15:06:13.313Z</time></trkpt><trkpt lat="43.40076" lon="13.203525"><ele>291.0</ele><time>2022-03-17T15:06:14.310Z</time></trkpt><trkpt lat="43.40070167" lon="13.20355667"><ele>292.0</ele><time>2022-03-17T15:06:15.317Z</time></trkpt><trkpt lat="43.40070167" lon="13.20355667"><ele>292.0</ele><time>2022-03-17T15:06:16.297Z</time></trkpt><trkpt lat="43.40064333" lon="13.20358833"><ele>292.0</ele><time>2022-03-17T15:06:17.308Z</time></trkpt><trkpt lat="43.40064333" lon="13.20358833"><ele>292.0</ele><time>2022-03-17T15:06:18.291Z</time></trkpt><trkpt lat="43.40058" lon="13.20361667"><ele>292.0</ele><time>2022-03-17T15:06:19.300Z</time></trkpt><trkpt lat="43.40058" lon="13.20361667"><ele>292.0</ele><time>2022-03-17T15:06:20.301Z</time></trkpt><trkpt lat="43.40052" lon="13.20365"><ele>293.0</ele><time>2022-03-17T15:06:21.316Z</time></trkpt><trkpt lat="43.40052" lon="13.20365"><ele>293.0</ele><time>2022-03-17T15:06:22.311Z</time></trkpt><trkpt lat="43.40046167" lon="13.20369"><ele>293.0</ele><time>2022-03-17T15:06:23.318Z</time></trkpt><trkpt lat="43.40046167" lon="13.20369"><ele>293.0</ele><time>2022-03-17T15:06:24.289Z</time></trkpt><trkpt lat="43.400405" lon="13.20373667"><ele>293.0</ele><time>2022-03-17T15:06:25.303Z</time></trkpt><trkpt lat="43.400405" lon="13.20373667"><ele>293.0</ele><time>2022-03-17T15:06:26.297Z</time></trkpt><trkpt lat="43.40035333" lon="13.20379"><ele>293.0</ele><time>2022-03-17T15:06:27.310Z</time></trkpt><trkpt lat="43.40035333" lon="13.20379"><ele>293.0</ele><time>2022-03-17T15:06:28.310Z</time></trkpt><trkpt lat="43.40030167" lon="13.20385167"><ele>294.0</ele><time>2022-03-17T15:06:29.293Z</time></trkpt><trkpt lat="43.40030167" lon="13.20385167"><ele>294.0</ele><time>2022-03-17T15:06:30.312Z</time></trkpt><trkpt lat="43.400255" lon="13.20392"><ele>294.0</ele><time>2022-03-17T15:06:31.320Z</time></trkpt><trkpt lat="43.400255" lon="13.20392"><ele>294.0</ele><time>2022-03-17T15:06:32.298Z</time></trkpt><trkpt lat="43.40021167" lon="13.20399333"><ele>294.0</ele><time>2022-03-17T15:06:33.309Z</time></trkpt><trkpt lat="43.40021167" lon="13.20399333"><ele>294.0</ele><time>2022-03-17T15:06:34.288Z</time></trkpt><trkpt lat="43.40017333" lon="13.20407167"><ele>294.0</ele><time>2022-03-17T15:06:35.301Z</time></trkpt><trkpt lat="43.40015333" lon="13.20411167"><ele>294.0</ele><time>2022-03-17T15:06:36.292Z</time></trkpt><trkpt lat="43.40015333" lon="13.20411167"><ele>294.0</ele><time>2022-03-17T15:06:37.292Z</time></trkpt><trkpt lat="43.400125" lon="13.20419833"><ele>294.0</ele><time>2022-03-17T15:06:38.304Z</time></trkpt><trkpt lat="43.400125" lon="13.20419833"><ele>294.0</ele><time>2022-03-17T15:06:39.299Z</time></trkpt><trkpt lat="43.40009667" lon="13.204285"><ele>295.0</ele><time>2022-03-17T15:06:40.307Z</time></trkpt><trkpt lat="43.40009667" lon="13.204285"><ele>295.0</ele><time>2022-03-17T15:06:41.319Z</time></trkpt><trkpt lat="43.40007333" lon="13.20437333"><ele>295.0</ele><time>2022-03-17T15:06:42.288Z</time></trkpt><trkpt lat="43.40007333" lon="13.20437333"><ele>295.0</ele><time>2022-03-17T15:06:43.305Z</time></trkpt><trkpt lat="43.40006167" lon="13.20446333"><ele>295.0</ele><time>2022-03-17T15:06:44.318Z</time></trkpt><trkpt lat="43.40005833" lon="13.20450833"><ele>295.0</ele><time>2022-03-17T15:06:45.305Z</time></trkpt><trkpt lat="43.40005833" lon="13.20450833"><ele>295.0</ele><time>2022-03-17T15:06:46.319Z</time></trkpt><trkpt lat="43.40005167" lon="13.20460167"><ele>295.0</ele><time>2022-03-17T15:06:47.297Z</time></trkpt><trkpt lat="43.40004833" lon="13.20465"><ele>295.0</ele><time>2022-03-17T15:06:48.284Z</time></trkpt><trkpt lat="43.40004833" lon="13.20465"><ele>295.0</ele><time>2022-03-17T15:06:49.311Z</time></trkpt><trkpt lat="43.40004333" lon="13.204745"><ele>295.0</ele><time>2022-03-17T15:06:50.319Z</time></trkpt><trkpt lat="43.40004333" lon="13.204745"><ele>295.0</ele><time>2022-03-17T15:06:51.299Z</time></trkpt><trkpt lat="43.40004167" lon="13.20484"><ele>295.0</ele><time>2022-03-17T15:06:52.306Z</time></trkpt><trkpt lat="43.40004167" lon="13.20484"><ele>295.0</ele><time>2022-03-17T15:06:53.323Z</time></trkpt><trkpt lat="43.40004167" lon="13.20493167"><ele>296.0</ele><time>2022-03-17T15:06:54.293Z</time></trkpt><trkpt lat="43.400045" lon="13.20497833"><ele>296.0</ele><time>2022-03-17T15:06:55.316Z</time></trkpt><trkpt lat="43.400045" lon="13.20497833"><ele>296.0</ele><time>2022-03-17T15:06:56.298Z</time></trkpt><trkpt lat="43.40004667" lon="13.20507167"><ele>296.0</ele><time>2022-03-17T15:06:57.308Z</time></trkpt><trkpt lat="43.40004667" lon="13.20507167"><ele>296.0</ele><time>2022-03-17T15:06:58.322Z</time></trkpt><trkpt lat="43.40004833" lon="13.20516667"><ele>296.0</ele><time>2022-03-17T15:06:59.293Z</time></trkpt><trkpt lat="43.40005" lon="13.20521167"><ele>297.0</ele><time>2022-03-17T15:07:00.325Z</time></trkpt><trkpt lat="43.40005" lon="13.20521167"><ele>297.0</ele><time>2022-03-17T15:07:01.301Z</time></trkpt><trkpt lat="43.400055" lon="13.20530167"><ele>297.0</ele><time>2022-03-17T15:07:02.310Z</time></trkpt><trkpt lat="43.400055" lon="13.20530167"><ele>297.0</ele><time>2022-03-17T15:07:03.291Z</time></trkpt><trkpt lat="43.40006167" lon="13.20539"><ele>297.0</ele><time>2022-03-17T15:07:04.306Z</time></trkpt><trkpt lat="43.40006167" lon="13.20539"><ele>297.0</ele><time>2022-03-17T15:07:05.319Z</time></trkpt><trkpt lat="43.40006333" lon="13.205475"><ele>298.0</ele><time>2022-03-17T15:07:06.294Z</time></trkpt><trkpt lat="43.40006333" lon="13.205475"><ele>298.0</ele><time>2022-03-17T15:07:07.309Z</time></trkpt><trkpt lat="43.400055" lon="13.20555"><ele>298.0</ele><time>2022-03-17T15:07:08.320Z</time></trkpt><trkpt lat="43.40003667" lon="13.20558667"><ele>298.0</ele><time>2022-03-17T15:07:09.306Z</time></trkpt><trkpt lat="43.40003667" lon="13.20558667"><ele>298.0</ele><time>2022-03-17T15:07:10.286Z</time></trkpt><trkpt lat="43.39998667" lon="13.20564333"><ele>298.0</ele><time>2022-03-17T15:07:11.294Z</time></trkpt><trkpt lat="43.399955" lon="13.20566333"><ele>298.0</ele><time>2022-03-17T15:07:12.322Z</time></trkpt><trkpt lat="43.399925" lon="13.20568667"><ele>298.0</ele><time>2022-03-17T15:07:13.301Z</time></trkpt><trkpt lat="43.399925" lon="13.20568667"><ele>298.0</ele><time>2022-03-17T15:07:14.284Z</time></trkpt><trkpt lat="43.39987167" lon="13.20573"><ele>299.0</ele><time>2022-03-17T15:07:15.291Z</time></trkpt><trkpt lat="43.39987167" lon="13.20573"><ele>299.0</ele><time>2022-03-17T15:07:16.310Z</time></trkpt><trkpt lat="43.39981167" lon="13.205765"><ele>299.0</ele><time>2022-03-17T15:07:17.286Z</time></trkpt><trkpt lat="43.39981167" lon="13.205765"><ele>299.0</ele><time>2022-03-17T15:07:18.310Z</time></trkpt><trkpt lat="43.39975" lon="13.20580333"><ele>299.0</ele><time>2022-03-17T15:07:19.324Z</time></trkpt><trkpt lat="43.39975" lon="13.20580333"><ele>299.0</ele><time>2022-03-17T15:07:20.302Z</time></trkpt><trkpt lat="43.39969" lon="13.20585167"><ele>299.0</ele><time>2022-03-17T15:07:21.311Z</time></trkpt><trkpt lat="43.39969" lon="13.20585167"><ele>299.0</ele><time>2022-03-17T15:07:22.284Z</time></trkpt><trkpt lat="43.39962667" lon="13.20589333"><ele>299.0</ele><time>2022-03-17T15:07:23.291Z</time></trkpt><trkpt lat="43.39959333" lon="13.20591167"><ele>300.0</ele><time>2022-03-17T15:07:24.292Z</time></trkpt><trkpt lat="43.39959333" lon="13.20591167"><ele>300.0</ele><time>2022-03-17T15:07:25.312Z</time></trkpt><trkpt lat="43.39952833" lon="13.20594833"><ele>300.0</ele><time>2022-03-17T15:07:26.300Z</time></trkpt><trkpt lat="43.39949667" lon="13.20596833"><ele>300.0</ele><time>2022-03-17T15:07:27.306Z</time></trkpt><trkpt lat="43.39946333" lon="13.20598667"><ele>300.0</ele><time>2022-03-17T15:07:28.297Z</time></trkpt><trkpt lat="43.39946333" lon="13.20598667"><ele>300.0</ele><time>2022-03-17T15:07:29.311Z</time></trkpt><trkpt lat="43.3994" lon="13.206025"><ele>300.0</ele><time>2022-03-17T15:07:30.319Z</time></trkpt><trkpt lat="43.3994" lon="13.206025"><ele>300.0</ele><time>2022-03-17T15:07:31.303Z</time></trkpt><trkpt lat="43.39933333" lon="13.206055"><ele>300.0</ele><time>2022-03-17T15:07:32.311Z</time></trkpt><trkpt lat="43.39933333" lon="13.206055"><ele>300.0</ele><time>2022-03-17T15:07:33.302Z</time></trkpt><trkpt lat="43.39927833" lon="13.20608167"><ele>301.0</ele><time>2022-03-17T15:07:34.317Z</time></trkpt><trkpt lat="43.39927833" lon="13.20608167"><ele>301.0</ele><time>2022-03-17T15:07:35.298Z</time></trkpt><trkpt lat="43.39923167" lon="13.20611333"><ele>301.0</ele><time>2022-03-17T15:07:36.307Z</time></trkpt><trkpt lat="43.39923167" lon="13.20611333"><ele>301.0</ele><time>2022-03-17T15:07:37.292Z</time></trkpt><trkpt lat="43.39919167" lon="13.20614"><ele>301.0</ele><time>2022-03-17T15:07:38.301Z</time></trkpt><trkpt lat="43.39919167" lon="13.20614"><ele>301.0</ele><time>2022-03-17T15:07:39.291Z</time></trkpt><trkpt lat="43.39915333" lon="13.20616333"><ele>302.0</ele><time>2022-03-17T15:07:40.301Z</time></trkpt><trkpt lat="43.39915333" lon="13.20616333"><ele>302.0</ele><time>2022-03-17T15:07:41.320Z</time></trkpt><trkpt lat="43.39911667" lon="13.20618333"><ele>303.0</ele><time>2022-03-17T15:07:42.301Z</time></trkpt><trkpt lat="43.39910333" lon="13.20619167"><ele>303.0</ele><time>2022-03-17T15:07:43.291Z</time></trkpt><trkpt lat="43.39908833" lon="13.206205"><ele>303.0</ele><time>2022-03-17T15:07:44.314Z</time></trkpt><trkpt lat="43.39908833" lon="13.206205"><ele>303.0</ele><time>2022-03-17T15:07:45.286Z</time></trkpt><trkpt lat="43.39905833" lon="13.20623833"><ele>303.0</ele><time>2022-03-17T15:07:46.293Z</time></trkpt><trkpt lat="43.39905833" lon="13.20623833"><ele>303.0</ele><time>2022-03-17T15:07:47.305Z</time></trkpt><trkpt lat="43.399025" lon="13.20626833"><ele>305.0</ele><time>2022-03-17T15:07:48.313Z</time></trkpt><trkpt lat="43.39900833" lon="13.20628"><ele>305.0</ele><time>2022-03-17T15:07:49.320Z</time></trkpt><trkpt lat="43.39899333" lon="13.20629833"><ele>305.0</ele><time>2022-03-17T15:07:50.304Z</time></trkpt><trkpt lat="43.39899333" lon="13.20629833"><ele>305.0</ele><time>2022-03-17T15:07:51.288Z</time></trkpt><trkpt lat="43.39896833" lon="13.20633833"><ele>306.0</ele><time>2022-03-17T15:07:52.300Z</time></trkpt><trkpt lat="43.39896833" lon="13.20633833"><ele>306.0</ele><time>2022-03-17T15:07:53.319Z</time></trkpt><trkpt lat="43.39894" lon="13.20637"><ele>307.0</ele><time>2022-03-17T15:07:54.286Z</time></trkpt><trkpt lat="43.39894" lon="13.20637"><ele>307.0</ele><time>2022-03-17T15:07:55.309Z</time></trkpt><trkpt lat="43.39892" lon="13.206405"><ele>308.0</ele><time>2022-03-17T15:07:56.298Z</time></trkpt><trkpt lat="43.39892" lon="13.206405"><ele>308.0</ele><time>2022-03-17T15:07:57.288Z</time></trkpt><trkpt lat="43.39889833" lon="13.20645"><ele>309.0</ele><time>2022-03-17T15:07:58.295Z</time></trkpt><trkpt lat="43.39889833" lon="13.20645"><ele>309.0</ele><time>2022-03-17T15:07:59.312Z</time></trkpt><trkpt lat="43.39887" lon="13.20648"><ele>309.0</ele><time>2022-03-17T15:08:00.319Z</time></trkpt><trkpt lat="43.39887" lon="13.20648"><ele>309.0</ele><time>2022-03-17T15:08:01.293Z</time></trkpt><trkpt lat="43.398845" lon="13.206515"><ele>310.0</ele><time>2022-03-17T15:08:02.301Z</time></trkpt><trkpt lat="43.398845" lon="13.206515"><ele>310.0</ele><time>2022-03-17T15:08:03.304Z</time></trkpt><trkpt lat="43.39882667" lon="13.20655167"><ele>310.0</ele><time>2022-03-17T15:08:04.322Z</time></trkpt><trkpt lat="43.39882667" lon="13.20655167"><ele>310.0</ele><time>2022-03-17T15:08:05.294Z</time></trkpt><trkpt lat="43.39880833" lon="13.206585"><ele>310.0</ele><time>2022-03-17T15:08:06.301Z</time></trkpt><trkpt lat="43.39880833" lon="13.206585"><ele>310.0</ele><time>2022-03-17T15:08:07.293Z</time></trkpt><trkpt lat="43.39879" lon="13.20662167"><ele>310.0</ele><time>2022-03-17T15:08:08.308Z</time></trkpt><trkpt lat="43.39879" lon="13.20662167"><ele>310.0</ele><time>2022-03-17T15:08:09.297Z</time></trkpt><trkpt lat="43.39877333" lon="13.206655"><ele>311.0</ele><time>2022-03-17T15:08:10.324Z</time></trkpt><trkpt lat="43.39877333" lon="13.206655"><ele>311.0</ele><time>2022-03-17T15:08:11.295Z</time></trkpt><trkpt lat="43.39875833" lon="13.20668667"><ele>311.0</ele><time>2022-03-17T15:08:12.307Z</time></trkpt><trkpt lat="43.39875333" lon="13.20670333"><ele>311.0</ele><time>2022-03-17T15:08:13.294Z</time></trkpt><trkpt lat="43.39875333" lon="13.20670333"><ele>311.0</ele><time>2022-03-17T15:08:14.315Z</time></trkpt><trkpt lat="43.39874" lon="13.20674667"><ele>312.0</ele><time>2022-03-17T15:08:15.324Z</time></trkpt><trkpt lat="43.39874" lon="13.20674667"><ele>312.0</ele><time>2022-03-17T15:08:16.316Z</time></trkpt><trkpt lat="43.39872667" lon="13.20679167"><ele>312.0</ele><time>2022-03-17T15:08:17.292Z</time></trkpt><trkpt lat="43.39871667" lon="13.20681333"><ele>312.0</ele><time>2022-03-17T15:08:18.317Z</time></trkpt><trkpt lat="43.39870667" lon="13.20683167"><ele>313.0</ele><time>2022-03-17T15:08:19.302Z</time></trkpt><trkpt lat="43.39870667" lon="13.20683167"><ele>313.0</ele><time>2022-03-17T15:08:20.303Z</time></trkpt><trkpt lat="43.39869167" lon="13.20687"><ele>313.0</ele><time>2022-03-17T15:08:21.316Z</time></trkpt><trkpt lat="43.39869167" lon="13.20687"><ele>313.0</ele><time>2022-03-17T15:08:22.289Z</time></trkpt><trkpt lat="43.398685" lon="13.20690833"><ele>313.0</ele><time>2022-03-17T15:08:23.297Z</time></trkpt><trkpt lat="43.398685" lon="13.20690833"><ele>313.0</ele><time>2022-03-17T15:08:24.287Z</time></trkpt><trkpt lat="43.39867667" lon="13.20694833"><ele>314.0</ele><time>2022-03-17T15:08:25.295Z</time></trkpt><trkpt lat="43.39867667" lon="13.20694833"><ele>314.0</ele><time>2022-03-17T15:08:26.310Z</time></trkpt><trkpt lat="43.39867" lon="13.20698833"><ele>315.0</ele><time>2022-03-17T15:08:27.299Z</time></trkpt><trkpt lat="43.39867" lon="13.20698833"><ele>315.0</ele><time>2022-03-17T15:08:28.317Z</time></trkpt><trkpt lat="43.39866833" lon="13.20702833"><ele>315.0</ele><time>2022-03-17T15:08:29.290Z</time></trkpt><trkpt lat="43.39866833" lon="13.20705167"><ele>316.0</ele><time>2022-03-17T15:08:30.285Z</time></trkpt><trkpt lat="43.39866833" lon="13.20705167"><ele>316.0</ele><time>2022-03-17T15:08:31.313Z</time></trkpt><trkpt lat="43.39866333" lon="13.207095"><ele>316.0</ele><time>2022-03-17T15:08:32.298Z</time></trkpt><trkpt lat="43.39866333" lon="13.207095"><ele>316.0</ele><time>2022-03-17T15:08:33.312Z</time></trkpt><trkpt lat="43.39866167" lon="13.20713333"><ele>316.0</ele><time>2022-03-17T15:08:34.320Z</time></trkpt><trkpt lat="43.39866167" lon="13.20713333"><ele>316.0</ele><time>2022-03-17T15:08:35.296Z</time></trkpt><trkpt lat="43.39865833" lon="13.20717167"><ele>317.0</ele><time>2022-03-17T15:08:36.301Z</time></trkpt><trkpt lat="43.39865833" lon="13.20717167"><ele>317.0</ele><time>2022-03-17T15:08:37.289Z</time></trkpt><trkpt lat="43.39864667" lon="13.20721167"><ele>317.0</ele><time>2022-03-17T15:08:38.303Z</time></trkpt><trkpt lat="43.39864667" lon="13.20721167"><ele>317.0</ele><time>2022-03-17T15:08:39.288Z</time></trkpt><trkpt lat="43.398645" lon="13.20724333"><ele>318.0</ele><time>2022-03-17T15:08:40.298Z</time></trkpt><trkpt lat="43.398645" lon="13.20724333"><ele>318.0</ele><time>2022-03-17T15:08:41.319Z</time></trkpt><trkpt lat="43.39863833" lon="13.207275"><ele>318.0</ele><time>2022-03-17T15:08:42.294Z</time></trkpt><trkpt lat="43.39863833" lon="13.207275"><ele>318.0</ele><time>2022-03-17T15:08:43.314Z</time></trkpt><trkpt lat="43.39863333" lon="13.20731333"><ele>318.0</ele><time>2022-03-17T15:08:44.295Z</time></trkpt><trkpt lat="43.39863333" lon="13.20731333"><ele>318.0</ele><time>2022-03-17T15:08:45.302Z</time></trkpt><trkpt lat="43.39862" lon="13.20735333"><ele>319.0</ele><time>2022-03-17T15:08:46.315Z</time></trkpt><trkpt lat="43.39862" lon="13.20735333"><ele>319.0</ele><time>2022-03-17T15:08:47.299Z</time></trkpt><trkpt lat="43.39861167" lon="13.20739333"><ele>319.0</ele><time>2022-03-17T15:08:48.307Z</time></trkpt><trkpt lat="43.39860833" lon="13.207415"><ele>319.0</ele><time>2022-03-17T15:08:49.288Z</time></trkpt><trkpt lat="43.39860833" lon="13.207415"><ele>319.0</ele><time>2022-03-17T15:08:50.310Z</time></trkpt><trkpt lat="43.39861" lon="13.20744833"><ele>320.0</ele><time>2022-03-17T15:08:51.321Z</time></trkpt><trkpt lat="43.39861" lon="13.20744833"><ele>320.0</ele><time>2022-03-17T15:08:52.307Z</time></trkpt><trkpt lat="43.39860833" lon="13.20748667"><ele>320.0</ele><time>2022-03-17T15:08:53.317Z</time></trkpt><trkpt lat="43.398605" lon="13.20750667"><ele>320.0</ele><time>2022-03-17T15:08:54.292Z</time></trkpt><trkpt lat="43.39860333" lon="13.20753167"><ele>320.0</ele><time>2022-03-17T15:08:55.292Z</time></trkpt><trkpt lat="43.39860333" lon="13.20753167"><ele>320.0</ele><time>2022-03-17T15:08:56.303Z</time></trkpt><trkpt lat="43.398595" lon="13.20757333"><ele>321.0</ele><time>2022-03-17T15:08:57.317Z</time></trkpt><trkpt lat="43.398595" lon="13.20757333"><ele>321.0</ele><time>2022-03-17T15:08:58.302Z</time></trkpt><trkpt lat="43.39859" lon="13.20761833"><ele>322.0</ele><time>2022-03-17T15:08:59.310Z</time></trkpt><trkpt lat="43.39858833" lon="13.20764333"><ele>322.0</ele><time>2022-03-17T15:09:00.323Z</time></trkpt><trkpt lat="43.39858833" lon="13.20764333"><ele>322.0</ele><time>2022-03-17T15:09:01.302Z</time></trkpt><trkpt lat="43.39858333" lon="13.20769333"><ele>323.0</ele><time>2022-03-17T15:09:02.320Z</time></trkpt><trkpt lat="43.39858333" lon="13.20769333"><ele>323.0</ele><time>2022-03-17T15:09:03.307Z</time></trkpt><trkpt lat="43.39857167" lon="13.20774"><ele>324.0</ele><time>2022-03-17T15:09:04.315Z</time></trkpt><trkpt lat="43.39856" lon="13.20776333"><ele>325.0</ele><time>2022-03-17T15:09:05.298Z</time></trkpt><trkpt lat="43.39856" lon="13.20776333"><ele>325.0</ele><time>2022-03-17T15:09:06.318Z</time></trkpt><trkpt lat="43.39853833" lon="13.207795"><ele>326.0</ele><time>2022-03-17T15:09:07.289Z</time></trkpt><trkpt lat="43.39853833" lon="13.207795"><ele>326.0</ele><time>2022-03-17T15:09:08.321Z</time></trkpt><trkpt lat="43.39851333" lon="13.20782667"><ele>326.0</ele><time>2022-03-17T15:09:09.319Z</time></trkpt><trkpt lat="43.39851333" lon="13.20782667"><ele>326.0</ele><time>2022-03-17T15:09:10.298Z</time></trkpt><trkpt lat="43.398485" lon="13.20785667"><ele>327.0</ele><time>2022-03-17T15:09:11.317Z</time></trkpt><trkpt lat="43.398485" lon="13.20785667"><ele>327.0</ele><time>2022-03-17T15:09:12.290Z</time></trkpt><trkpt lat="43.39846" lon="13.20788167"><ele>328.0</ele><time>2022-03-17T15:09:13.299Z</time></trkpt><trkpt lat="43.39845167" lon="13.2079"><ele>328.0</ele><time>2022-03-17T15:09:14.319Z</time></trkpt><trkpt lat="43.39845167" lon="13.2079"><ele>328.0</ele><time>2022-03-17T15:09:15.300Z</time></trkpt><trkpt lat="43.39843667" lon="13.20794"><ele>328.0</ele><time>2022-03-17T15:09:16.308Z</time></trkpt><trkpt lat="43.39843667" lon="13.20794"><ele>328.0</ele><time>2022-03-17T15:09:17.309Z</time></trkpt><trkpt lat="43.39844" lon="13.20799667"><ele>329.0</ele><time>2022-03-17T15:09:18.318Z</time></trkpt><trkpt lat="43.398445" lon="13.20803"><ele>329.0</ele><time>2022-03-17T15:09:19.309Z</time></trkpt><trkpt lat="43.398445" lon="13.20803"><ele>329.0</ele><time>2022-03-17T15:09:20.290Z</time></trkpt><trkpt lat="43.39844833" lon="13.20809167"><ele>329.0</ele><time>2022-03-17T15:09:21.313Z</time></trkpt><trkpt lat="43.398445" lon="13.20812333"><ele>329.0</ele><time>2022-03-17T15:09:22.298Z</time></trkpt><trkpt lat="43.398445" lon="13.20812333"><ele>329.0</ele><time>2022-03-17T15:09:23.285Z</time></trkpt><trkpt lat="43.39844167" lon="13.20818333"><ele>329.0</ele><time>2022-03-17T15:09:24.292Z</time></trkpt><trkpt lat="43.39844167" lon="13.20818333"><ele>329.0</ele><time>2022-03-17T15:09:25.307Z</time></trkpt><trkpt lat="43.398445" lon="13.20823833"><ele>330.0</ele><time>2022-03-17T15:09:26.314Z</time></trkpt><trkpt lat="43.39844667" lon="13.20826667"><ele>330.0</ele><time>2022-03-17T15:09:27.295Z</time></trkpt><trkpt lat="43.39844667" lon="13.20826667"><ele>330.0</ele><time>2022-03-17T15:09:28.312Z</time></trkpt><trkpt lat="43.39845167" lon="13.20832833"><ele>330.0</ele><time>2022-03-17T15:09:29.321Z</time></trkpt><trkpt lat="43.39845167" lon="13.20832833"><ele>330.0</ele><time>2022-03-17T15:09:30.301Z</time></trkpt><trkpt lat="43.39846" lon="13.20838833"><ele>331.0</ele><time>2022-03-17T15:09:31.309Z</time></trkpt><trkpt lat="43.39846" lon="13.20838833"><ele>331.0</ele><time>2022-03-17T15:09:32.305Z</time></trkpt><trkpt lat="43.39846833" lon="13.20844667"><ele>331.0</ele><time>2022-03-17T15:09:33.322Z</time></trkpt><trkpt lat="43.39846833" lon="13.20844667"><ele>331.0</ele><time>2022-03-17T15:09:34.318Z</time></trkpt><trkpt lat="43.398475" lon="13.208505"><ele>331.0</ele><time>2022-03-17T15:09:35.319Z</time></trkpt><trkpt lat="43.39847833" lon="13.20853167"><ele>332.0</ele><time>2022-03-17T15:09:36.299Z</time></trkpt><trkpt lat="43.39847833" lon="13.20853167"><ele>332.0</ele><time>2022-03-17T15:09:37.289Z</time></trkpt><trkpt lat="43.39849" lon="13.20859167"><ele>332.0</ele><time>2022-03-17T15:09:38.296Z</time></trkpt><trkpt lat="43.39849667" lon="13.20862333"><ele>332.0</ele><time>2022-03-17T15:09:39.293Z</time></trkpt><trkpt lat="43.39849667" lon="13.20862333"><ele>332.0</ele><time>2022-03-17T15:09:40.316Z</time></trkpt><trkpt lat="43.39851" lon="13.208685"><ele>332.0</ele><time>2022-03-17T15:09:41.293Z</time></trkpt><trkpt lat="43.39852" lon="13.20871333"><ele>332.0</ele><time>2022-03-17T15:09:42.320Z</time></trkpt><trkpt lat="43.39852" lon="13.20871333"><ele>332.0</ele><time>2022-03-17T15:09:43.308Z</time></trkpt><trkpt lat="43.39852833" lon="13.208775"><ele>332.0</ele><time>2022-03-17T15:09:44.315Z</time></trkpt><trkpt lat="43.39853333" lon="13.20880167"><ele>333.0</ele><time>2022-03-17T15:09:45.293Z</time></trkpt><trkpt lat="43.39853333" lon="13.20880167"><ele>333.0</ele><time>2022-03-17T15:09:46.314Z</time></trkpt><trkpt lat="43.39855" lon="13.20886"><ele>333.0</ele><time>2022-03-17T15:09:47.321Z</time></trkpt><trkpt lat="43.39855" lon="13.20886"><ele>333.0</ele><time>2022-03-17T15:09:48.317Z</time></trkpt><trkpt lat="43.398565" lon="13.20892"><ele>332.0</ele><time>2022-03-17T15:09:49.287Z</time></trkpt><trkpt lat="43.39857" lon="13.20895333"><ele>332.0</ele><time>2022-03-17T15:09:50.321Z</time></trkpt><trkpt lat="43.39857" lon="13.20895333"><ele>332.0</ele><time>2022-03-17T15:09:51.304Z</time></trkpt><trkpt lat="43.39858333" lon="13.20902167"><ele>332.0</ele><time>2022-03-17T15:09:52.312Z</time></trkpt><trkpt lat="43.39858333" lon="13.20902167"><ele>332.0</ele><time>2022-03-17T15:09:53.288Z</time></trkpt><trkpt lat="43.398595" lon="13.20909667"><ele>332.0</ele><time>2022-03-17T15:09:54.297Z</time></trkpt><trkpt lat="43.39860333" lon="13.20913833"><ele>332.0</ele><time>2022-03-17T15:09:55.323Z</time></trkpt><trkpt lat="43.39860333" lon="13.20913833"><ele>332.0</ele><time>2022-03-17T15:09:56.303Z</time></trkpt><trkpt lat="43.39860833" lon="13.20921167"><ele>332.0</ele><time>2022-03-17T15:09:57.313Z</time></trkpt><trkpt lat="43.39860833" lon="13.20921167"><ele>332.0</ele><time>2022-03-17T15:09:58.296Z</time></trkpt><trkpt lat="43.3986" lon="13.20925667"><ele>332.0</ele><time>2022-03-17T15:09:59.304Z</time></trkpt><trkpt lat="43.3986" lon="13.20925667"><ele>332.0</ele><time>2022-03-17T15:10:00.319Z</time></trkpt><trkpt lat="43.39857333" lon="13.20924833"><ele>332.0</ele><time>2022-03-17T15:10:01.289Z</time></trkpt><trkpt lat="43.39857333" lon="13.20924833"><ele>332.0</ele><time>2022-03-17T15:10:02.316Z</time></trkpt><trkpt lat="43.39854667" lon="13.20925"><ele>332.0</ele><time>2022-03-17T15:10:03.284Z</time></trkpt><trkpt lat="43.39854667" lon="13.20925"><ele>332.0</ele><time>2022-03-17T15:10:04.302Z</time></trkpt><trkpt lat="43.39852" lon="13.20925"><ele>332.0</ele><time>2022-03-17T15:10:05.313Z</time></trkpt><trkpt lat="43.39849333" lon="13.20927333"><ele>332.0</ele><time>2022-03-17T15:10:06.300Z</time></trkpt><trkpt lat="43.39849333" lon="13.20927333"><ele>332.0</ele><time>2022-03-17T15:10:07.306Z</time></trkpt><trkpt lat="43.39844" lon="13.20931667"><ele>333.0</ele><time>2022-03-17T15:10:08.313Z</time></trkpt><trkpt lat="43.39840333" lon="13.20932667"><ele>333.0</ele><time>2022-03-17T15:10:09.322Z</time></trkpt><trkpt lat="43.39840333" lon="13.20932667"><ele>333.0</ele><time>2022-03-17T15:10:10.286Z</time></trkpt><trkpt lat="43.39831833" lon="13.209305"><ele>333.0</ele><time>2022-03-17T15:10:11.297Z</time></trkpt><trkpt lat="43.39829167" lon="13.20925333"><ele>334.0</ele><time>2022-03-17T15:10:12.318Z</time></trkpt><trkpt lat="43.39829167" lon="13.20925333"><ele>334.0</ele><time>2022-03-17T15:10:13.303Z</time></trkpt><trkpt lat="43.39824167" lon="13.20917833"><ele>335.0</ele><time>2022-03-17T15:10:14.320Z</time></trkpt><trkpt lat="43.39822667" lon="13.20914667"><ele>335.0</ele><time>2022-03-17T15:10:15.303Z</time></trkpt><trkpt lat="43.39822667" lon="13.20914667"><ele>335.0</ele><time>2022-03-17T15:10:16.285Z</time></trkpt><trkpt lat="43.39817667" lon="13.20907333"><ele>336.0</ele><time>2022-03-17T15:10:17.296Z</time></trkpt><trkpt lat="43.39817667" lon="13.20907333"><ele>336.0</ele><time>2022-03-17T15:10:18.295Z</time></trkpt><trkpt lat="43.39811667" lon="13.20902167"><ele>336.0</ele><time>2022-03-17T15:10:19.303Z</time></trkpt><trkpt lat="43.39811667" lon="13.20902167"><ele>336.0</ele><time>2022-03-17T15:10:20.317Z</time></trkpt><trkpt lat="43.398075" lon="13.20896333"><ele>337.0</ele><time>2022-03-17T15:10:21.301Z</time></trkpt><trkpt lat="43.39806" lon="13.20893667"><ele>337.0</ele><time>2022-03-17T15:10:22.284Z</time></trkpt><trkpt lat="43.39806" lon="13.20893667"><ele>337.0</ele><time>2022-03-17T15:10:23.296Z</time></trkpt><trkpt lat="43.39802667" lon="13.20887667"><ele>338.0</ele><time>2022-03-17T15:10:24.317Z</time></trkpt><trkpt lat="43.39802667" lon="13.20887667"><ele>338.0</ele><time>2022-03-17T15:10:25.304Z</time></trkpt><trkpt lat="43.39799167" lon="13.20882333"><ele>338.0</ele><time>2022-03-17T15:10:26.313Z</time></trkpt><trkpt lat="43.39798167" lon="13.20879833"><ele>338.0</ele><time>2022-03-17T15:10:27.292Z</time></trkpt><trkpt lat="43.39798167" lon="13.20879833"><ele>338.0</ele><time>2022-03-17T15:10:28.306Z</time></trkpt><trkpt lat="43.39799833" lon="13.20874833"><ele>339.0</ele><time>2022-03-17T15:10:29.315Z</time></trkpt><trkpt lat="43.398" lon="13.20872833"><ele>339.0</ele><time>2022-03-17T15:10:30.306Z</time></trkpt><trkpt lat="43.398" lon="13.20872833"><ele>339.0</ele><time>2022-03-17T15:10:31.300Z</time></trkpt><trkpt lat="43.39799" lon="13.20871667"><ele>338.0</ele><time>2022-03-17T15:10:32.320Z</time></trkpt><trkpt lat="43.39798667" lon="13.20871667"><ele>338.0</ele><time>2022-03-17T15:10:33.294Z</time></trkpt><trkpt lat="43.39798667" lon="13.20871667"><ele>338.0</ele><time>2022-03-17T15:10:34.287Z</time></trkpt><trkpt lat="43.39794333" lon="13.20878167"><ele>332.0</ele><time>2022-03-17T15:10:35.301Z</time></trkpt><trkpt lat="43.39794333" lon="13.20878167"><ele>332.0</ele><time>2022-03-17T15:10:36.300Z</time></trkpt><trkpt lat="43.39795167" lon="13.20880833"><ele>332.0</ele><time>2022-03-17T15:10:37.299Z</time></trkpt><trkpt lat="43.39795167" lon="13.20880833"><ele>332.0</ele><time>2022-03-17T15:10:38.295Z</time></trkpt><trkpt lat="43.397975" lon="13.20884667"><ele>332.0</ele><time>2022-03-17T15:10:39.299Z</time></trkpt><trkpt lat="43.397975" lon="13.20884667"><ele>332.0</ele><time>2022-03-17T15:10:40.308Z</time></trkpt><trkpt lat="43.39799833" lon="13.20889"><ele>332.0</ele><time>2022-03-17T15:10:41.291Z</time></trkpt><trkpt lat="43.39799833" lon="13.20889"><ele>332.0</ele><time>2022-03-17T15:10:42.300Z</time></trkpt><trkpt lat="43.39802833" lon="13.20894167"><ele>331.0</ele><time>2022-03-17T15:10:43.317Z</time></trkpt><trkpt lat="43.39802833" lon="13.20894167"><ele>331.0</ele><time>2022-03-17T15:10:44.286Z</time></trkpt><trkpt lat="43.39804333" lon="13.20901167"><ele>331.0</ele><time>2022-03-17T15:10:45.295Z</time></trkpt><trkpt lat="43.39804333" lon="13.20901167"><ele>331.0</ele><time>2022-03-17T15:10:46.302Z</time></trkpt><trkpt lat="43.39805833" lon="13.20909"><ele>331.0</ele><time>2022-03-17T15:10:47.288Z</time></trkpt><trkpt lat="43.39805833" lon="13.20909"><ele>331.0</ele><time>2022-03-17T15:10:48.294Z</time></trkpt><trkpt lat="43.39808667" lon="13.20917"><ele>330.0</ele><time>2022-03-17T15:10:49.294Z</time></trkpt><trkpt lat="43.39808667" lon="13.20917"><ele>330.0</ele><time>2022-03-17T15:10:50.299Z</time></trkpt><trkpt lat="43.39811667" lon="13.20925667"><ele>330.0</ele><time>2022-03-17T15:10:51.318Z</time></trkpt><trkpt lat="43.39812333" lon="13.20929833"><ele>329.0</ele><time>2022-03-17T15:10:52.299Z</time></trkpt><trkpt lat="43.39811667" lon="13.20933833"><ele>329.0</ele><time>2022-03-17T15:10:53.298Z</time></trkpt><trkpt lat="43.39811667" lon="13.20933833"><ele>329.0</ele><time>2022-03-17T15:10:54.303Z</time></trkpt><trkpt lat="43.398065" lon="13.20938667"><ele>328.0</ele><time>2022-03-17T15:10:55.290Z</time></trkpt><trkpt lat="43.398065" lon="13.20938667"><ele>328.0</ele><time>2022-03-17T15:10:56.301Z</time></trkpt><trkpt lat="43.39799667" lon="13.20942333"><ele>328.0</ele><time>2022-03-17T15:10:57.321Z</time></trkpt><trkpt lat="43.39799667" lon="13.20942333"><ele>328.0</ele><time>2022-03-17T15:10:58.286Z</time></trkpt><trkpt lat="43.39792833" lon="13.20946833"><ele>327.0</ele><time>2022-03-17T15:10:59.318Z</time></trkpt><trkpt lat="43.39792833" lon="13.20946833"><ele>327.0</ele><time>2022-03-17T15:11:00.305Z</time></trkpt><trkpt lat="43.39786" lon="13.20952167"><ele>327.0</ele><time>2022-03-17T15:11:01.321Z</time></trkpt><trkpt lat="43.39786" lon="13.20952167"><ele>327.0</ele><time>2022-03-17T15:11:02.287Z</time></trkpt><trkpt lat="43.39778667" lon="13.20956667"><ele>327.0</ele><time>2022-03-17T15:11:03.317Z</time></trkpt><trkpt lat="43.39778667" lon="13.20956667"><ele>327.0</ele><time>2022-03-17T15:11:04.285Z</time></trkpt><trkpt lat="43.39770833" lon="13.20961167"><ele>327.0</ele><time>2022-03-17T15:11:05.302Z</time></trkpt><trkpt lat="43.39770833" lon="13.20961167"><ele>327.0</ele><time>2022-03-17T15:11:06.307Z</time></trkpt><trkpt lat="43.39763667" lon="13.20966167"><ele>327.0</ele><time>2022-03-17T15:11:07.298Z</time></trkpt><trkpt lat="43.39763667" lon="13.20966167"><ele>327.0</ele><time>2022-03-17T15:11:08.303Z</time></trkpt><trkpt lat="43.39756667" lon="13.20970833"><ele>328.0</ele><time>2022-03-17T15:11:09.324Z</time></trkpt><trkpt lat="43.39756667" lon="13.20970833"><ele>328.0</ele><time>2022-03-17T15:11:10.289Z</time></trkpt><trkpt lat="43.39750333" lon="13.209755"><ele>328.0</ele><time>2022-03-17T15:11:11.306Z</time></trkpt><trkpt lat="43.39750333" lon="13.209755"><ele>328.0</ele><time>2022-03-17T15:11:12.311Z</time></trkpt><trkpt lat="43.39743167" lon="13.2098"><ele>328.0</ele><time>2022-03-17T15:11:13.296Z</time></trkpt><trkpt lat="43.39743167" lon="13.2098"><ele>328.0</ele><time>2022-03-17T15:11:14.305Z</time></trkpt><trkpt lat="43.39734833" lon="13.20984333"><ele>328.0</ele><time>2022-03-17T15:11:15.292Z</time></trkpt><trkpt lat="43.39734833" lon="13.20984333"><ele>328.0</ele><time>2022-03-17T15:11:16.298Z</time></trkpt><trkpt lat="43.397255" lon="13.20987833"><ele>328.0</ele><time>2022-03-17T15:11:17.287Z</time></trkpt><trkpt lat="43.397255" lon="13.20987833"><ele>328.0</ele><time>2022-03-17T15:11:18.305Z</time></trkpt><trkpt lat="43.39716667" lon="13.20991333"><ele>329.0</ele><time>2022-03-17T15:11:19.322Z</time></trkpt><trkpt lat="43.39712333" lon="13.20993167"><ele>329.0</ele><time>2022-03-17T15:11:20.300Z</time></trkpt><trkpt lat="43.39712333" lon="13.20993167"><ele>329.0</ele><time>2022-03-17T15:11:21.307Z</time></trkpt><trkpt lat="43.39702167" lon="13.20997333"><ele>329.0</ele><time>2022-03-17T15:11:22.286Z</time></trkpt><trkpt lat="43.39702167" lon="13.20997333"><ele>329.0</ele><time>2022-03-17T15:11:23.292Z</time></trkpt><trkpt lat="43.39693333" lon="13.20999167"><ele>328.0</ele><time>2022-03-17T15:11:24.298Z</time></trkpt><trkpt lat="43.39693333" lon="13.20999167"><ele>328.0</ele><time>2022-03-17T15:11:25.303Z</time></trkpt><trkpt lat="43.39684333" lon="13.209995"><ele>329.0</ele><time>2022-03-17T15:11:26.310Z</time></trkpt><trkpt lat="43.39679333" lon="13.20999167"><ele>328.0</ele><time>2022-03-17T15:11:27.313Z</time></trkpt><trkpt lat="43.39679333" lon="13.20999167"><ele>328.0</ele><time>2022-03-17T15:11:28.318Z</time></trkpt><trkpt lat="43.39668833" lon="13.20997"><ele>328.0</ele><time>2022-03-17T15:11:29.298Z</time></trkpt><trkpt lat="43.39668833" lon="13.20997"><ele>328.0</ele><time>2022-03-17T15:11:30.304Z</time></trkpt><trkpt lat="43.39657" lon="13.20995"><ele>327.0</ele><time>2022-03-17T15:11:31.284Z</time></trkpt><trkpt lat="43.39650667" lon="13.20993833"><ele>326.0</ele><time>2022-03-17T15:11:32.306Z</time></trkpt><trkpt lat="43.39643667" lon="13.20992333"><ele>326.0</ele><time>2022-03-17T15:11:33.290Z</time></trkpt><trkpt lat="43.39643667" lon="13.20992333"><ele>326.0</ele><time>2022-03-17T15:11:34.295Z</time></trkpt><trkpt lat="43.39629" lon="13.209895"><ele>325.0</ele><time>2022-03-17T15:11:35.315Z</time></trkpt><trkpt lat="43.39629" lon="13.209895"><ele>325.0</ele><time>2022-03-17T15:11:36.320Z</time></trkpt><trkpt lat="43.39613667" lon="13.20989667"><ele>323.0</ele><time>2022-03-17T15:11:37.296Z</time></trkpt><trkpt lat="43.39613667" lon="13.20989667"><ele>323.0</ele><time>2022-03-17T15:11:38.303Z</time></trkpt><trkpt lat="43.39598667" lon="13.20997333"><ele>322.0</ele><time>2022-03-17T15:11:39.312Z</time></trkpt><trkpt lat="43.39598667" lon="13.20997333"><ele>322.0</ele><time>2022-03-17T15:11:40.317Z</time></trkpt><trkpt lat="43.395885" lon="13.21015333"><ele>321.0</ele><time>2022-03-17T15:11:41.310Z</time></trkpt><trkpt lat="43.395885" lon="13.21015333"><ele>321.0</ele><time>2022-03-17T15:11:42.287Z</time></trkpt><trkpt lat="43.39582" lon="13.21036833"><ele>320.0</ele><time>2022-03-17T15:11:43.303Z</time></trkpt><trkpt lat="43.39582" lon="13.21036833"><ele>320.0</ele><time>2022-03-17T15:11:44.310Z</time></trkpt><trkpt lat="43.395775" lon="13.21058667"><ele>319.0</ele><time>2022-03-17T15:11:45.298Z</time></trkpt><trkpt lat="43.395775" lon="13.21058667"><ele>319.0</ele><time>2022-03-17T15:11:46.304Z</time></trkpt><trkpt lat="43.39571667" lon="13.21078167"><ele>319.0</ele><time>2022-03-17T15:11:47.288Z</time></trkpt><trkpt lat="43.39571667" lon="13.21078167"><ele>319.0</ele><time>2022-03-17T15:11:48.293Z</time></trkpt><trkpt lat="43.39566333" lon="13.21096333"><ele>318.0</ele><time>2022-03-17T15:11:49.311Z</time></trkpt><trkpt lat="43.39566333" lon="13.21096333"><ele>318.0</ele><time>2022-03-17T15:11:50.317Z</time></trkpt><trkpt lat="43.395605" lon="13.21112667"><ele>318.0</ele><time>2022-03-17T15:11:51.303Z</time></trkpt><trkpt lat="43.39558167" lon="13.211205"><ele>318.0</ele><time>2022-03-17T15:11:52.289Z</time></trkpt><trkpt lat="43.39558167" lon="13.211205"><ele>318.0</ele><time>2022-03-17T15:11:53.294Z</time></trkpt><trkpt lat="43.39554667" lon="13.21135"><ele>319.0</ele><time>2022-03-17T15:11:54.323Z</time></trkpt><trkpt lat="43.39554667" lon="13.21135"><ele>319.0</ele><time>2022-03-17T15:11:55.291Z</time></trkpt><trkpt lat="43.395515" lon="13.21149833"><ele>319.0</ele><time>2022-03-17T15:11:56.311Z</time></trkpt><trkpt lat="43.395515" lon="13.21149833"><ele>319.0</ele><time>2022-03-17T15:11:57.316Z</time></trkpt><trkpt lat="43.39548833" lon="13.21165167"><ele>319.0</ele><time>2022-03-17T15:11:58.311Z</time></trkpt><trkpt lat="43.39548833" lon="13.21165167"><ele>319.0</ele><time>2022-03-17T15:11:59.316Z</time></trkpt><trkpt lat="43.395465" lon="13.21179667"><ele>318.0</ele><time>2022-03-17T15:12:00.302Z</time></trkpt><trkpt lat="43.395465" lon="13.21179667"><ele>318.0</ele><time>2022-03-17T15:12:01.308Z</time></trkpt><trkpt lat="43.39543667" lon="13.21193167"><ele>319.0</ele><time>2022-03-17T15:12:02.293Z</time></trkpt><trkpt lat="43.39543667" lon="13.21193167"><ele>319.0</ele><time>2022-03-17T15:12:03.299Z</time></trkpt><trkpt lat="43.39540333" lon="13.21205333"><ele>320.0</ele><time>2022-03-17T15:12:04.320Z</time></trkpt><trkpt lat="43.39538" lon="13.21211167"><ele>320.0</ele><time>2022-03-17T15:12:05.304Z</time></trkpt><trkpt lat="43.39538" lon="13.21211167"><ele>320.0</ele><time>2022-03-17T15:12:06.309Z</time></trkpt><trkpt lat="43.39532167" lon="13.21222"><ele>320.0</ele><time>2022-03-17T15:12:07.323Z</time></trkpt><trkpt lat="43.39532167" lon="13.21222"><ele>320.0</ele><time>2022-03-17T15:12:08.288Z</time></trkpt><trkpt lat="43.39526833" lon="13.21232333"><ele>321.0</ele><time>2022-03-17T15:12:09.305Z</time></trkpt><trkpt lat="43.39523667" lon="13.21237333"><ele>320.0</ele><time>2022-03-17T15:12:10.285Z</time></trkpt><trkpt lat="43.39523667" lon="13.21237333"><ele>320.0</ele><time>2022-03-17T15:12:11.311Z</time></trkpt><trkpt lat="43.39517667" lon="13.21247833"><ele>321.0</ele><time>2022-03-17T15:12:12.288Z</time></trkpt><trkpt lat="43.39517667" lon="13.21247833"><ele>321.0</ele><time>2022-03-17T15:12:13.294Z</time></trkpt><trkpt lat="43.39512333" lon="13.21258333"><ele>321.0</ele><time>2022-03-17T15:12:14.301Z</time></trkpt><trkpt lat="43.39512333" lon="13.21258333"><ele>321.0</ele><time>2022-03-17T15:12:15.319Z</time></trkpt><trkpt lat="43.39507333" lon="13.212695"><ele>321.0</ele><time>2022-03-17T15:12:16.302Z</time></trkpt><trkpt lat="43.39507333" lon="13.212695"><ele>321.0</ele><time>2022-03-17T15:12:17.308Z</time></trkpt><trkpt lat="43.39503333" lon="13.21281167"><ele>322.0</ele><time>2022-03-17T15:12:18.289Z</time></trkpt><trkpt lat="43.39503333" lon="13.21281167"><ele>322.0</ele><time>2022-03-17T15:12:19.294Z</time></trkpt><trkpt lat="43.39499167" lon="13.212935"><ele>322.0</ele><time>2022-03-17T15:12:20.297Z</time></trkpt><trkpt lat="43.39499167" lon="13.212935"><ele>322.0</ele><time>2022-03-17T15:12:21.303Z</time></trkpt><trkpt lat="43.39497333" lon="13.213055"><ele>322.0</ele><time>2022-03-17T15:12:22.284Z</time></trkpt><trkpt lat="43.39495833" lon="13.21311"><ele>323.0</ele><time>2022-03-17T15:12:23.320Z</time></trkpt><trkpt lat="43.39495833" lon="13.21311"><ele>323.0</ele><time>2022-03-17T15:12:24.289Z</time></trkpt><trkpt lat="43.39493" lon="13.21321833"><ele>323.0</ele><time>2022-03-17T15:12:25.323Z</time></trkpt><trkpt lat="43.39492" lon="13.21327167"><ele>323.0</ele><time>2022-03-17T15:12:26.311Z</time></trkpt><trkpt lat="43.39492" lon="13.21327167"><ele>323.0</ele><time>2022-03-17T15:12:27.310Z</time></trkpt><trkpt lat="43.394895" lon="13.21337667"><ele>323.0</ele><time>2022-03-17T15:12:28.298Z</time></trkpt><trkpt lat="43.39488333" lon="13.213425"><ele>323.0</ele><time>2022-03-17T15:12:29.321Z</time></trkpt><trkpt lat="43.39488333" lon="13.213425"><ele>323.0</ele><time>2022-03-17T15:12:30.288Z</time></trkpt><trkpt lat="43.39486667" lon="13.21351333"><ele>324.0</ele><time>2022-03-17T15:12:31.303Z</time></trkpt><trkpt lat="43.39485" lon="13.21354667"><ele>325.0</ele><time>2022-03-17T15:12:32.298Z</time></trkpt><trkpt lat="43.39485" lon="13.21354667"><ele>325.0</ele><time>2022-03-17T15:12:33.304Z</time></trkpt><trkpt lat="43.3948" lon="13.21358833"><ele>325.0</ele><time>2022-03-17T15:12:34.321Z</time></trkpt><trkpt lat="43.39476667" lon="13.21359167"><ele>326.0</ele><time>2022-03-17T15:12:35.295Z</time></trkpt><trkpt lat="43.39476667" lon="13.21359167"><ele>326.0</ele><time>2022-03-17T15:12:36.301Z</time></trkpt><trkpt lat="43.39469833" lon="13.21355333"><ele>326.0</ele><time>2022-03-17T15:12:37.318Z</time></trkpt><trkpt lat="43.39469833" lon="13.21355333"><ele>326.0</ele><time>2022-03-17T15:12:38.286Z</time></trkpt><trkpt lat="43.394655" lon="13.21347167"><ele>326.0</ele><time>2022-03-17T15:12:39.307Z</time></trkpt><trkpt lat="43.394655" lon="13.21347167"><ele>326.0</ele><time>2022-03-17T15:12:40.312Z</time></trkpt><trkpt lat="43.394605" lon="13.21338833"><ele>326.0</ele><time>2022-03-17T15:12:41.292Z</time></trkpt><trkpt lat="43.394605" lon="13.21338833"><ele>326.0</ele><time>2022-03-17T15:12:42.298Z</time></trkpt><trkpt lat="43.39454333" lon="13.213315"><ele>326.0</ele><time>2022-03-17T15:12:43.286Z</time></trkpt><trkpt lat="43.39451833" lon="13.21327833"><ele>326.0</ele><time>2022-03-17T15:12:44.312Z</time></trkpt><trkpt lat="43.39451833" lon="13.21327833"><ele>326.0</ele><time>2022-03-17T15:12:45.318Z</time></trkpt><trkpt lat="43.39446833" lon="13.21319833"><ele>325.0</ele><time>2022-03-17T15:12:46.316Z</time></trkpt><trkpt lat="43.394445" lon="13.21316"><ele>325.0</ele><time>2022-03-17T15:12:47.301Z</time></trkpt><trkpt lat="43.394445" lon="13.21316"><ele>325.0</ele><time>2022-03-17T15:12:48.306Z</time></trkpt><trkpt lat="43.39439833" lon="13.21308167"><ele>324.0</ele><time>2022-03-17T15:12:49.319Z</time></trkpt><trkpt lat="43.39439833" lon="13.21308167"><ele>324.0</ele><time>2022-03-17T15:12:50.289Z</time></trkpt><trkpt lat="43.39434667" lon="13.21300833"><ele>325.0</ele><time>2022-03-17T15:12:51.316Z</time></trkpt><trkpt lat="43.394325" lon="13.21297"><ele>325.0</ele><time>2022-03-17T15:12:52.298Z</time></trkpt><trkpt lat="43.394305" lon="13.21292833"><ele>324.0</ele><time>2022-03-17T15:12:53.318Z</time></trkpt><trkpt lat="43.394305" lon="13.21292833"><ele>324.0</ele><time>2022-03-17T15:12:54.288Z</time></trkpt><trkpt lat="43.39426167" lon="13.212845"><ele>323.0</ele><time>2022-03-17T15:12:55.303Z</time></trkpt><trkpt lat="43.39426167" lon="13.212845"><ele>323.0</ele><time>2022-03-17T15:12:56.309Z</time></trkpt><trkpt lat="43.39421" lon="13.21276833"><ele>324.0</ele><time>2022-03-17T15:12:57.288Z</time></trkpt><trkpt lat="43.39421" lon="13.21276833"><ele>324.0</ele><time>2022-03-17T15:12:58.294Z</time></trkpt><trkpt lat="43.394165" lon="13.21268667"><ele>323.0</ele><time>2022-03-17T15:12:59.299Z</time></trkpt><trkpt lat="43.394165" lon="13.21268667"><ele>323.0</ele><time>2022-03-17T15:13:00.305Z</time></trkpt><trkpt lat="43.39412667" lon="13.21259667"><ele>323.0</ele><time>2022-03-17T15:13:01.319Z</time></trkpt><trkpt lat="43.39410333" lon="13.21256"><ele>323.0</ele><time>2022-03-17T15:13:02.313Z</time></trkpt><trkpt lat="43.39410333" lon="13.21256"><ele>323.0</ele><time>2022-03-17T15:13:03.318Z</time></trkpt><trkpt lat="43.39406333" lon="13.21248"><ele>323.0</ele><time>2022-03-17T15:13:04.311Z</time></trkpt><trkpt lat="43.39406333" lon="13.21248"><ele>323.0</ele><time>2022-03-17T15:13:05.316Z</time></trkpt><trkpt lat="43.394015" lon="13.21240167"><ele>323.0</ele><time>2022-03-17T15:13:06.314Z</time></trkpt><trkpt lat="43.394015" lon="13.21240167"><ele>323.0</ele><time>2022-03-17T15:13:07.320Z</time></trkpt><trkpt lat="43.39397" lon="13.21232333"><ele>323.0</ele><time>2022-03-17T15:13:08.311Z</time></trkpt><trkpt lat="43.39397" lon="13.21232333"><ele>323.0</ele><time>2022-03-17T15:13:09.316Z</time></trkpt><trkpt lat="43.39392167" lon="13.212255"><ele>322.0</ele><time>2022-03-17T15:13:10.308Z</time></trkpt><trkpt lat="43.39389667" lon="13.21222333"><ele>323.0</ele><time>2022-03-17T15:13:11.287Z</time></trkpt><trkpt lat="43.39389667" lon="13.21222333"><ele>323.0</ele><time>2022-03-17T15:13:12.310Z</time></trkpt><trkpt lat="43.39383167" lon="13.21216167"><ele>323.0</ele><time>2022-03-17T15:13:13.290Z</time></trkpt><trkpt lat="43.39383167" lon="13.21216167"><ele>323.0</ele><time>2022-03-17T15:13:14.296Z</time></trkpt><trkpt lat="43.39375167" lon="13.21213667"><ele>324.0</ele><time>2022-03-17T15:13:15.310Z</time></trkpt><trkpt lat="43.39370833" lon="13.21213333"><ele>324.0</ele><time>2022-03-17T15:13:16.286Z</time></trkpt><trkpt lat="43.39366" lon="13.21214"><ele>325.0</ele><time>2022-03-17T15:13:17.303Z</time></trkpt><trkpt lat="43.39366" lon="13.21214"><ele>325.0</ele><time>2022-03-17T15:13:18.309Z</time></trkpt><trkpt lat="43.393575" lon="13.21213667"><ele>325.0</ele><time>2022-03-17T15:13:19.294Z</time></trkpt><trkpt lat="43.393575" lon="13.21213667"><ele>325.0</ele><time>2022-03-17T15:13:20.299Z</time></trkpt><trkpt lat="43.39348167" lon="13.21215"><ele>325.0</ele><time>2022-03-17T15:13:21.304Z</time></trkpt><trkpt lat="43.39348167" lon="13.21215"><ele>325.0</ele><time>2022-03-17T15:13:22.310Z</time></trkpt><trkpt lat="43.39338" lon="13.21216333"><ele>325.0</ele><time>2022-03-17T15:13:23.288Z</time></trkpt><trkpt lat="43.39333167" lon="13.21216667"><ele>325.0</ele><time>2022-03-17T15:13:24.303Z</time></trkpt><trkpt lat="43.39333167" lon="13.21216667"><ele>325.0</ele><time>2022-03-17T15:13:25.308Z</time></trkpt><trkpt lat="43.39323333" lon="13.212185"><ele>324.0</ele><time>2022-03-17T15:13:26.317Z</time></trkpt><trkpt lat="43.39318333" lon="13.21219667"><ele>324.0</ele><time>2022-03-17T15:13:27.299Z</time></trkpt><trkpt lat="43.39313167" lon="13.21220833"><ele>325.0</ele><time>2022-03-17T15:13:28.288Z</time></trkpt><trkpt lat="43.39313167" lon="13.21220833"><ele>325.0</ele><time>2022-03-17T15:13:29.294Z</time></trkpt><trkpt lat="43.39302833" lon="13.21223"><ele>324.0</ele><time>2022-03-17T15:13:30.318Z</time></trkpt><trkpt lat="43.392975" lon="13.21224167"><ele>324.0</ele><time>2022-03-17T15:13:31.296Z</time></trkpt><trkpt lat="43.392975" lon="13.21224167"><ele>324.0</ele><time>2022-03-17T15:13:32.301Z</time></trkpt><trkpt lat="43.39286833" lon="13.21225833"><ele>324.0</ele><time>2022-03-17T15:13:33.320Z</time></trkpt><trkpt lat="43.39286833" lon="13.21225833"><ele>324.0</ele><time>2022-03-17T15:13:34.287Z</time></trkpt><trkpt lat="43.39276167" lon="13.21228333"><ele>324.0</ele><time>2022-03-17T15:13:35.307Z</time></trkpt><trkpt lat="43.39276167" lon="13.21228333"><ele>324.0</ele><time>2022-03-17T15:13:36.313Z</time></trkpt><trkpt lat="43.392655" lon="13.21233167"><ele>324.0</ele><time>2022-03-17T15:13:37.292Z</time></trkpt><trkpt lat="43.392605" lon="13.21236833"><ele>323.0</ele><time>2022-03-17T15:13:38.313Z</time></trkpt><trkpt lat="43.392605" lon="13.21236833"><ele>323.0</ele><time>2022-03-17T15:13:39.319Z</time></trkpt><trkpt lat="43.39251667" lon="13.21245833"><ele>324.0</ele><time>2022-03-17T15:13:40.304Z</time></trkpt><trkpt lat="43.39251667" lon="13.21245833"><ele>324.0</ele><time>2022-03-17T15:13:41.309Z</time></trkpt><trkpt lat="43.39244833" lon="13.21257333"><ele>324.0</ele><time>2022-03-17T15:13:42.314Z</time></trkpt><trkpt lat="43.39242333" lon="13.21263833"><ele>324.0</ele><time>2022-03-17T15:13:43.311Z</time></trkpt><trkpt lat="43.39242333" lon="13.21263833"><ele>324.0</ele><time>2022-03-17T15:13:44.317Z</time></trkpt><trkpt lat="43.39238333" lon="13.21276667"><ele>324.0</ele><time>2022-03-17T15:13:45.317Z</time></trkpt><trkpt lat="43.39237" lon="13.21283333"><ele>324.0</ele><time>2022-03-17T15:13:46.284Z</time></trkpt><trkpt lat="43.39237" lon="13.21283333"><ele>324.0</ele><time>2022-03-17T15:13:47.291Z</time></trkpt><trkpt lat="43.392355" lon="13.21296833"><ele>324.0</ele><time>2022-03-17T15:13:48.309Z</time></trkpt><trkpt lat="43.392355" lon="13.21296833"><ele>324.0</ele><time>2022-03-17T15:13:49.315Z</time></trkpt><trkpt lat="43.39235333" lon="13.21309833"><ele>324.0</ele><time>2022-03-17T15:13:50.307Z</time></trkpt><trkpt lat="43.39235333" lon="13.21309833"><ele>324.0</ele><time>2022-03-17T15:13:51.313Z</time></trkpt><trkpt lat="43.39235833" lon="13.21322333"><ele>324.0</ele><time>2022-03-17T15:13:52.299Z</time></trkpt><trkpt lat="43.39236" lon="13.21328167"><ele>324.0</ele><time>2022-03-17T15:13:53.302Z</time></trkpt><trkpt lat="43.39236" lon="13.21328167"><ele>324.0</ele><time>2022-03-17T15:13:54.317Z</time></trkpt><trkpt lat="43.39237" lon="13.21339833"><ele>324.0</ele><time>2022-03-17T15:13:55.297Z</time></trkpt><trkpt lat="43.39237" lon="13.21339833"><ele>324.0</ele><time>2022-03-17T15:13:56.302Z</time></trkpt><trkpt lat="43.39237667" lon="13.21350833"><ele>324.0</ele><time>2022-03-17T15:13:57.300Z</time></trkpt><trkpt lat="43.39237833" lon="13.21356333"><ele>324.0</ele><time>2022-03-17T15:13:58.287Z</time></trkpt><trkpt lat="43.39237833" lon="13.21356333"><ele>324.0</ele><time>2022-03-17T15:13:59.294Z</time></trkpt><trkpt lat="43.392375" lon="13.21367667"><ele>324.0</ele><time>2022-03-17T15:14:00.316Z</time></trkpt><trkpt lat="43.392375" lon="13.21367667"><ele>324.0</ele><time>2022-03-17T15:14:01.324Z</time></trkpt><trkpt lat="43.392355" lon="13.213795"><ele>324.0</ele><time>2022-03-17T15:14:02.292Z</time></trkpt><trkpt lat="43.39233667" lon="13.21385333"><ele>324.0</ele><time>2022-03-17T15:14:03.306Z</time></trkpt><trkpt lat="43.39233667" lon="13.21385333"><ele>324.0</ele><time>2022-03-17T15:14:04.311Z</time></trkpt><trkpt lat="43.39229167" lon="13.21397667"><ele>324.0</ele><time>2022-03-17T15:14:05.293Z</time></trkpt><trkpt lat="43.39229167" lon="13.21397667"><ele>324.0</ele><time>2022-03-17T15:14:06.299Z</time></trkpt><trkpt lat="43.39223" lon="13.21411833"><ele>322.0</ele><time>2022-03-17T15:14:07.292Z</time></trkpt><trkpt lat="43.39219667" lon="13.214195"><ele>322.0</ele><time>2022-03-17T15:14:08.317Z</time></trkpt><trkpt lat="43.39219667" lon="13.214195"><ele>322.0</ele><time>2022-03-17T15:14:09.323Z</time></trkpt><trkpt lat="43.39213" lon="13.21436167"><ele>321.0</ele><time>2022-03-17T15:14:10.315Z</time></trkpt><trkpt lat="43.39209667" lon="13.21445"><ele>321.0</ele><time>2022-03-17T15:14:11.288Z</time></trkpt><trkpt lat="43.39209667" lon="13.21445"><ele>321.0</ele><time>2022-03-17T15:14:12.312Z</time></trkpt><trkpt lat="43.392025" lon="13.21463167"><ele>320.0</ele><time>2022-03-17T15:14:13.296Z</time></trkpt><trkpt lat="43.392025" lon="13.21463167"><ele>320.0</ele><time>2022-03-17T15:14:14.302Z</time></trkpt><trkpt lat="43.39196" lon="13.214815"><ele>320.0</ele><time>2022-03-17T15:14:15.286Z</time></trkpt><trkpt lat="43.39193" lon="13.21490833"><ele>320.0</ele><time>2022-03-17T15:14:16.300Z</time></trkpt><trkpt lat="43.39190333" lon="13.21500333"><ele>320.0</ele><time>2022-03-17T15:14:17.318Z</time></trkpt><trkpt lat="43.39188333" lon="13.21509833"><ele>319.0</ele><time>2022-03-17T15:14:18.295Z</time></trkpt><trkpt lat="43.39188333" lon="13.21509833"><ele>319.0</ele><time>2022-03-17T15:14:19.301Z</time></trkpt><trkpt lat="43.391855" lon="13.21528667"><ele>319.0</ele><time>2022-03-17T15:14:20.285Z</time></trkpt><trkpt lat="43.391855" lon="13.21528667"><ele>319.0</ele><time>2022-03-17T15:14:21.303Z</time></trkpt><trkpt lat="43.39184667" lon="13.21547333"><ele>319.0</ele><time>2022-03-17T15:14:22.286Z</time></trkpt><trkpt lat="43.391845" lon="13.21556333"><ele>318.0</ele><time>2022-03-17T15:14:23.308Z</time></trkpt><trkpt lat="43.391845" lon="13.21556333"><ele>318.0</ele><time>2022-03-17T15:14:24.313Z</time></trkpt><trkpt lat="43.391835" lon="13.21573333"><ele>319.0</ele><time>2022-03-17T15:14:25.303Z</time></trkpt><trkpt lat="43.391835" lon="13.21573333"><ele>319.0</ele><time>2022-03-17T15:14:26.303Z</time></trkpt><trkpt lat="43.39182833" lon="13.21589667"><ele>319.0</ele><time>2022-03-17T15:14:27.290Z</time></trkpt><trkpt lat="43.39182833" lon="13.21589667"><ele>319.0</ele><time>2022-03-17T15:14:28.296Z</time></trkpt><trkpt lat="43.391835" lon="13.21606333"><ele>318.0</ele><time>2022-03-17T15:14:29.321Z</time></trkpt><trkpt lat="43.391835" lon="13.21606333"><ele>318.0</ele><time>2022-03-17T15:14:30.289Z</time></trkpt><trkpt lat="43.39186167" lon="13.21622667"><ele>318.0</ele><time>2022-03-17T15:14:31.313Z</time></trkpt><trkpt lat="43.39186167" lon="13.21622667"><ele>318.0</ele><time>2022-03-17T15:14:32.319Z</time></trkpt><trkpt lat="43.3919" lon="13.21638333"><ele>318.0</ele><time>2022-03-17T15:14:33.299Z</time></trkpt><trkpt lat="43.3919" lon="13.21638333"><ele>318.0</ele><time>2022-03-17T15:14:34.305Z</time></trkpt><trkpt lat="43.391955" lon="13.216525"><ele>318.0</ele><time>2022-03-17T15:14:35.289Z</time></trkpt><trkpt lat="43.39198167" lon="13.21659"><ele>318.0</ele><time>2022-03-17T15:14:36.312Z</time></trkpt><trkpt lat="43.39200333" lon="13.216655"><ele>318.0</ele><time>2022-03-17T15:14:37.297Z</time></trkpt><trkpt lat="43.39200333" lon="13.216655"><ele>318.0</ele><time>2022-03-17T15:14:38.304Z</time></trkpt><trkpt lat="43.39204333" lon="13.21678333"><ele>318.0</ele><time>2022-03-17T15:14:39.288Z</time></trkpt><trkpt lat="43.39206333" lon="13.216855"><ele>318.0</ele><time>2022-03-17T15:14:40.286Z</time></trkpt><trkpt lat="43.39206333" lon="13.216855"><ele>318.0</ele><time>2022-03-17T15:14:41.291Z</time></trkpt><trkpt lat="43.39209167" lon="13.21699833"><ele>318.0</ele><time>2022-03-17T15:14:42.319Z</time></trkpt><trkpt lat="43.39209833" lon="13.21707167"><ele>318.0</ele><time>2022-03-17T15:14:43.296Z</time></trkpt><trkpt lat="43.39209833" lon="13.21707167"><ele>318.0</ele><time>2022-03-17T15:14:44.302Z</time></trkpt><trkpt lat="43.39210833" lon="13.21721833"><ele>318.0</ele><time>2022-03-17T15:14:45.319Z</time></trkpt><trkpt lat="43.39210833" lon="13.21721833"><ele>318.0</ele><time>2022-03-17T15:14:46.285Z</time></trkpt><trkpt lat="43.392105" lon="13.21736667"><ele>318.0</ele><time>2022-03-17T15:14:47.294Z</time></trkpt><trkpt lat="43.392105" lon="13.21736667"><ele>318.0</ele><time>2022-03-17T15:14:48.294Z</time></trkpt><trkpt lat="43.39209167" lon="13.21752167"><ele>318.0</ele><time>2022-03-17T15:14:49.284Z</time></trkpt><trkpt lat="43.39207833" lon="13.2176"><ele>318.0</ele><time>2022-03-17T15:14:50.315Z</time></trkpt><trkpt lat="43.39207833" lon="13.2176"><ele>318.0</ele><time>2022-03-17T15:14:51.286Z</time></trkpt><trkpt lat="43.39202167" lon="13.217745"><ele>317.0</ele><time>2022-03-17T15:14:52.307Z</time></trkpt><trkpt lat="43.39197833" lon="13.21779833"><ele>318.0</ele><time>2022-03-17T15:14:53.303Z</time></trkpt><trkpt lat="43.39197833" lon="13.21779833"><ele>318.0</ele><time>2022-03-17T15:14:54.309Z</time></trkpt><trkpt lat="43.39186667" lon="13.217865"><ele>318.0</ele><time>2022-03-17T15:14:55.290Z</time></trkpt><trkpt lat="43.39186667" lon="13.217865"><ele>318.0</ele><time>2022-03-17T15:14:56.296Z</time></trkpt><trkpt lat="43.39173833" lon="13.21789333"><ele>318.0</ele><time>2022-03-17T15:14:57.291Z</time></trkpt><trkpt lat="43.39167333" lon="13.217905"><ele>318.0</ele><time>2022-03-17T15:14:58.312Z</time></trkpt><trkpt lat="43.39167333" lon="13.217905"><ele>318.0</ele><time>2022-03-17T15:14:59.318Z</time></trkpt><trkpt lat="43.39154" lon="13.21793333"><ele>317.0</ele><time>2022-03-17T15:15:00.300Z</time></trkpt><trkpt lat="43.39154" lon="13.21793333"><ele>317.0</ele><time>2022-03-17T15:15:01.305Z</time></trkpt><trkpt lat="43.391395" lon="13.21797167"><ele>316.0</ele><time>2022-03-17T15:15:02.291Z</time></trkpt><trkpt lat="43.391395" lon="13.21797167"><ele>316.0</ele><time>2022-03-17T15:15:03.297Z</time></trkpt><trkpt lat="43.39124" lon="13.218005"><ele>316.0</ele><time>2022-03-17T15:15:04.301Z</time></trkpt><trkpt lat="43.39116667" lon="13.21802"><ele>315.0</ele><time>2022-03-17T15:15:05.293Z</time></trkpt><trkpt lat="43.39116667" lon="13.21802"><ele>315.0</ele><time>2022-03-17T15:15:06.299Z</time></trkpt><trkpt lat="43.39102333" lon="13.21805333"><ele>315.0</ele><time>2022-03-17T15:15:07.312Z</time></trkpt><trkpt lat="43.39095333" lon="13.21807167"><ele>315.0</ele><time>2022-03-17T15:15:08.319Z</time></trkpt><trkpt lat="43.39095333" lon="13.21807167"><ele>315.0</ele><time>2022-03-17T15:15:09.289Z</time></trkpt><trkpt lat="43.39081167" lon="13.21810667"><ele>315.0</ele><time>2022-03-17T15:15:10.313Z</time></trkpt><trkpt lat="43.39074333" lon="13.218125"><ele>314.0</ele><time>2022-03-17T15:15:11.292Z</time></trkpt><trkpt lat="43.39074333" lon="13.218125"><ele>314.0</ele><time>2022-03-17T15:15:12.297Z</time></trkpt><trkpt lat="43.39060667" lon="13.21816333"><ele>314.0</ele><time>2022-03-17T15:15:13.290Z</time></trkpt><trkpt lat="43.39054" lon="13.218185"><ele>314.0</ele><time>2022-03-17T15:15:14.315Z</time></trkpt><trkpt lat="43.39054" lon="13.218185"><ele>314.0</ele><time>2022-03-17T15:15:15.321Z</time></trkpt><trkpt lat="43.39040333" lon="13.21824"><ele>313.0</ele><time>2022-03-17T15:15:16.299Z</time></trkpt><trkpt lat="43.39040333" lon="13.21824"><ele>313.0</ele><time>2022-03-17T15:15:17.306Z</time></trkpt><trkpt lat="43.39026833" lon="13.21832667"><ele>312.0</ele><time>2022-03-17T15:15:18.287Z</time></trkpt><trkpt lat="43.39026833" lon="13.21832667"><ele>312.0</ele><time>2022-03-17T15:15:19.293Z</time></trkpt><trkpt lat="43.39014333" lon="13.21844833"><ele>311.0</ele><time>2022-03-17T15:15:20.287Z</time></trkpt><trkpt lat="43.39014333" lon="13.21844833"><ele>311.0</ele><time>2022-03-17T15:15:21.294Z</time></trkpt><trkpt lat="43.39003667" lon="13.218595"><ele>310.0</ele><time>2022-03-17T15:15:22.293Z</time></trkpt><trkpt lat="43.38998" lon="13.21867333"><ele>310.0</ele><time>2022-03-17T15:15:23.312Z</time></trkpt><trkpt lat="43.38998" lon="13.21867333"><ele>310.0</ele><time>2022-03-17T15:15:24.318Z</time></trkpt><trkpt lat="43.38987833" lon="13.21885"><ele>310.0</ele><time>2022-03-17T15:15:25.375Z</time></trkpt><trkpt lat="43.38983833" lon="13.21893833"><ele>309.0</ele><time>2022-03-17T15:15:26.286Z</time></trkpt><trkpt lat="43.38983833" lon="13.21893833"><ele>309.0</ele><time>2022-03-17T15:15:27.300Z</time></trkpt><trkpt lat="43.38976167" lon="13.21910333"><ele>309.0</ele><time>2022-03-17T15:15:28.317Z</time></trkpt><trkpt lat="43.389725" lon="13.21918167"><ele>309.0</ele><time>2022-03-17T15:15:29.301Z</time></trkpt><trkpt lat="43.389725" lon="13.21918167"><ele>309.0</ele><time>2022-03-17T15:15:30.307Z</time></trkpt><trkpt lat="43.38965167" lon="13.21931667"><ele>309.0</ele><time>2022-03-17T15:15:31.285Z</time></trkpt><trkpt lat="43.38965167" lon="13.21931667"><ele>309.0</ele><time>2022-03-17T15:15:32.292Z</time></trkpt><trkpt lat="43.389595" lon="13.21945167"><ele>309.0</ele><time>2022-03-17T15:15:33.307Z</time></trkpt><trkpt lat="43.38956167" lon="13.21952167"><ele>309.0</ele><time>2022-03-17T15:15:34.288Z</time></trkpt><trkpt lat="43.38956167" lon="13.21952167"><ele>309.0</ele><time>2022-03-17T15:15:35.294Z</time></trkpt><trkpt lat="43.38951" lon="13.21965167"><ele>309.0</ele><time>2022-03-17T15:15:36.316Z</time></trkpt><trkpt lat="43.38948833" lon="13.219715"><ele>310.0</ele><time>2022-03-17T15:15:37.310Z</time></trkpt><trkpt lat="43.38948833" lon="13.219715"><ele>310.0</ele><time>2022-03-17T15:15:38.316Z</time></trkpt><trkpt lat="43.38943" lon="13.21983"><ele>310.0</ele><time>2022-03-17T15:15:39.288Z</time></trkpt><trkpt lat="43.38943" lon="13.21983"><ele>310.0</ele><time>2022-03-17T15:15:40.293Z</time></trkpt><trkpt lat="43.38935" lon="13.21992333"><ele>310.0</ele><time>2022-03-17T15:15:41.311Z</time></trkpt><trkpt lat="43.38935" lon="13.21992333"><ele>310.0</ele><time>2022-03-17T15:15:42.316Z</time></trkpt><trkpt lat="43.38925" lon="13.22"><ele>310.0</ele><time>2022-03-17T15:15:43.311Z</time></trkpt><trkpt lat="43.3892" lon="13.22003167"><ele>310.0</ele><time>2022-03-17T15:15:44.302Z</time></trkpt><trkpt lat="43.3892" lon="13.22003167"><ele>310.0</ele><time>2022-03-17T15:15:45.308Z</time></trkpt><trkpt lat="43.389095" lon="13.22009667"><ele>310.0</ele><time>2022-03-17T15:15:46.304Z</time></trkpt><trkpt lat="43.38904333" lon="13.22012833"><ele>310.0</ele><time>2022-03-17T15:15:47.284Z</time></trkpt><trkpt lat="43.38904333" lon="13.22012833"><ele>310.0</ele><time>2022-03-17T15:15:48.289Z</time></trkpt><trkpt lat="43.38892833" lon="13.22018667"><ele>310.0</ele><time>2022-03-17T15:15:49.311Z</time></trkpt><trkpt lat="43.38886833" lon="13.22021167"><ele>310.0</ele><time>2022-03-17T15:15:50.287Z</time></trkpt><trkpt lat="43.38886833" lon="13.22021167"><ele>310.0</ele><time>2022-03-17T15:15:51.293Z</time></trkpt><trkpt lat="43.38875167" lon="13.220255"><ele>310.0</ele><time>2022-03-17T15:15:52.284Z</time></trkpt><trkpt lat="43.38869167" lon="13.22026833"><ele>310.0</ele><time>2022-03-17T15:15:53.305Z</time></trkpt><trkpt lat="43.38869167" lon="13.22026833"><ele>310.0</ele><time>2022-03-17T15:15:54.311Z</time></trkpt><trkpt lat="43.38856833" lon="13.22029667"><ele>310.0</ele><time>2022-03-17T15:15:55.286Z</time></trkpt><trkpt lat="43.38856833" lon="13.22029667"><ele>310.0</ele><time>2022-03-17T15:15:56.292Z</time></trkpt><trkpt lat="43.38844167" lon="13.220315"><ele>309.0</ele><time>2022-03-17T15:15:57.304Z</time></trkpt><trkpt lat="43.38844167" lon="13.220315"><ele>309.0</ele><time>2022-03-17T15:15:58.309Z</time></trkpt><trkpt lat="43.38831" lon="13.22031"><ele>309.0</ele><time>2022-03-17T15:15:59.318Z</time></trkpt><trkpt lat="43.38831" lon="13.22031"><ele>309.0</ele><time>2022-03-17T15:16:00.323Z</time></trkpt><trkpt lat="43.38817833" lon="13.220275"><ele>308.0</ele><time>2022-03-17T15:16:01.295Z</time></trkpt><trkpt lat="43.38811333" lon="13.22024833"><ele>308.0</ele><time>2022-03-17T15:16:02.322Z</time></trkpt><trkpt lat="43.38811333" lon="13.22024833"><ele>308.0</ele><time>2022-03-17T15:16:03.288Z</time></trkpt><trkpt lat="43.387975" lon="13.22020333"><ele>308.0</ele><time>2022-03-17T15:16:04.308Z</time></trkpt><trkpt lat="43.387975" lon="13.22020333"><ele>308.0</ele><time>2022-03-17T15:16:05.313Z</time></trkpt><trkpt lat="43.38782" lon="13.220225"><ele>307.0</ele><time>2022-03-17T15:16:06.305Z</time></trkpt><trkpt lat="43.38782" lon="13.220225"><ele>307.0</ele><time>2022-03-17T15:16:07.310Z</time></trkpt><trkpt lat="43.38769167" lon="13.22032333"><ele>306.0</ele><time>2022-03-17T15:16:08.294Z</time></trkpt><trkpt lat="43.38764333" lon="13.22039833"><ele>306.0</ele><time>2022-03-17T15:16:09.310Z</time></trkpt><trkpt lat="43.38760667" lon="13.22048167"><ele>306.0</ele><time>2022-03-17T15:16:10.295Z</time></trkpt><trkpt lat="43.38760667" lon="13.22048167"><ele>306.0</ele><time>2022-03-17T15:16:11.300Z</time></trkpt><trkpt lat="43.38757667" lon="13.22065833"><ele>307.0</ele><time>2022-03-17T15:16:12.322Z</time></trkpt><trkpt lat="43.38758" lon="13.22074833"><ele>307.0</ele><time>2022-03-17T15:16:13.297Z</time></trkpt><trkpt lat="43.38758" lon="13.22074833"><ele>307.0</ele><time>2022-03-17T15:16:14.302Z</time></trkpt><trkpt lat="43.387615" lon="13.22091167"><ele>306.0</ele><time>2022-03-17T15:16:15.292Z</time></trkpt><trkpt lat="43.387615" lon="13.22091167"><ele>306.0</ele><time>2022-03-17T15:16:16.298Z</time></trkpt><trkpt lat="43.38768" lon="13.221055"><ele>306.0</ele><time>2022-03-17T15:16:17.294Z</time></trkpt><trkpt lat="43.38768" lon="13.221055"><ele>306.0</ele><time>2022-03-17T15:16:18.299Z</time></trkpt><trkpt lat="43.38777333" lon="13.22116"><ele>305.0</ele><time>2022-03-17T15:16:19.294Z</time></trkpt><trkpt lat="43.387825" lon="13.221205"><ele>305.0</ele><time>2022-03-17T15:16:20.318Z</time></trkpt><trkpt lat="43.387825" lon="13.221205"><ele>305.0</ele><time>2022-03-17T15:16:21.287Z</time></trkpt><trkpt lat="43.38793" lon="13.22129167"><ele>304.0</ele><time>2022-03-17T15:16:22.311Z</time></trkpt><trkpt lat="43.38793" lon="13.22129167"><ele>304.0</ele><time>2022-03-17T15:16:23.316Z</time></trkpt><trkpt lat="43.388035" lon="13.22138"><ele>304.0</ele><time>2022-03-17T15:16:24.305Z</time></trkpt><trkpt lat="43.388085" lon="13.22142833"><ele>303.0</ele><time>2022-03-17T15:16:25.318Z</time></trkpt><trkpt lat="43.388085" lon="13.22142833"><ele>303.0</ele><time>2022-03-17T15:16:26.298Z</time></trkpt><trkpt lat="43.388185" lon="13.22152667"><ele>302.0</ele><time>2022-03-17T15:16:27.296Z</time></trkpt><trkpt lat="43.388235" lon="13.22157667"><ele>302.0</ele><time>2022-03-17T15:16:28.313Z</time></trkpt><trkpt lat="43.388235" lon="13.22157667"><ele>302.0</ele><time>2022-03-17T15:16:29.318Z</time></trkpt><trkpt lat="43.38833" lon="13.22168167"><ele>302.0</ele><time>2022-03-17T15:16:30.306Z</time></trkpt><trkpt lat="43.38837667" lon="13.22174167"><ele>301.0</ele><time>2022-03-17T15:16:31.291Z</time></trkpt><trkpt lat="43.38837667" lon="13.22174167"><ele>301.0</ele><time>2022-03-17T15:16:32.314Z</time></trkpt><trkpt lat="43.38846667" lon="13.221865"><ele>301.0</ele><time>2022-03-17T15:16:33.301Z</time></trkpt><trkpt lat="43.38851" lon="13.22192833"><ele>301.0</ele><time>2022-03-17T15:16:34.323Z</time></trkpt><trkpt lat="43.38855333" lon="13.22199"><ele>301.0</ele><time>2022-03-17T15:16:35.308Z</time></trkpt><trkpt lat="43.38855333" lon="13.22199"><ele>301.0</ele><time>2022-03-17T15:16:36.314Z</time></trkpt><trkpt lat="43.388645" lon="13.22211333"><ele>300.0</ele><time>2022-03-17T15:16:37.300Z</time></trkpt><trkpt lat="43.388645" lon="13.22211333"><ele>300.0</ele><time>2022-03-17T15:16:38.305Z</time></trkpt><trkpt lat="43.38873333" lon="13.22222833"><ele>300.0</ele><time>2022-03-17T15:16:39.294Z</time></trkpt><trkpt lat="43.38873333" lon="13.22222833"><ele>300.0</ele><time>2022-03-17T15:16:40.300Z</time></trkpt><trkpt lat="43.38881667" lon="13.22231833"><ele>300.0</ele><time>2022-03-17T15:16:41.321Z</time></trkpt><trkpt lat="43.38881667" lon="13.22231833"><ele>300.0</ele><time>2022-03-17T15:16:42.287Z</time></trkpt><trkpt lat="43.38889333" lon="13.222405"><ele>300.0</ele><time>2022-03-17T15:16:43.312Z</time></trkpt><trkpt lat="43.388925" lon="13.22245167"><ele>300.0</ele><time>2022-03-17T15:16:44.297Z</time></trkpt><trkpt lat="43.388925" lon="13.22245167"><ele>300.0</ele><time>2022-03-17T15:16:45.303Z</time></trkpt><trkpt lat="43.38897333" lon="13.22255833"><ele>300.0</ele><time>2022-03-17T15:16:46.285Z</time></trkpt><trkpt lat="43.388985" lon="13.22261833"><ele>300.0</ele><time>2022-03-17T15:16:47.302Z</time></trkpt><trkpt lat="43.388985" lon="13.22261833"><ele>300.0</ele><time>2022-03-17T15:16:48.307Z</time></trkpt><trkpt lat="43.388985" lon="13.22272833"><ele>300.0</ele><time>2022-03-17T15:16:49.291Z</time></trkpt><trkpt lat="43.388985" lon="13.22272833"><ele>300.0</ele><time>2022-03-17T15:16:50.297Z</time></trkpt><trkpt lat="43.38896333" lon="13.22281167"><ele>301.0</ele><time>2022-03-17T15:16:51.312Z</time></trkpt><trkpt lat="43.38894333" lon="13.22284167"><ele>301.0</ele><time>2022-03-17T15:16:52.292Z</time></trkpt><trkpt lat="43.38894333" lon="13.22284167"><ele>301.0</ele><time>2022-03-17T15:16:53.298Z</time></trkpt><trkpt lat="43.38893167" lon="13.222905"><ele>301.0</ele><time>2022-03-17T15:16:54.287Z</time></trkpt><trkpt lat="43.38893167" lon="13.222905"><ele>301.0</ele><time>2022-03-17T15:16:55.295Z</time></trkpt><trkpt lat="43.38897833" lon="13.22290667"><ele>302.0</ele><time>2022-03-17T15:16:56.317Z</time></trkpt><trkpt lat="43.38899667" lon="13.2229"><ele>302.0</ele><time>2022-03-17T15:16:57.308Z</time></trkpt><trkpt lat="43.38899667" lon="13.2229"><ele>302.0</ele><time>2022-03-17T15:16:58.313Z</time></trkpt><trkpt lat="43.38901333" lon="13.22288333"><ele>302.0</ele><time>2022-03-17T15:16:59.295Z</time></trkpt><trkpt lat="43.38901333" lon="13.22288333"><ele>302.0</ele><time>2022-03-17T15:17:00.301Z</time></trkpt><trkpt lat="43.38901333" lon="13.22288333"><ele>302.0</ele><time>2022-03-17T15:17:01.287Z</time></trkpt><trkpt lat="43.38901333" lon="13.22288333"><ele>302.0</ele><time>2022-03-17T15:17:02.285Z</time></trkpt><trkpt lat="43.38890667" lon="13.22290333"><ele>303.0</ele><time>2022-03-17T15:17:03.319Z</time></trkpt><trkpt lat="43.38890667" lon="13.22290333"><ele>303.0</ele><time>2022-03-17T15:17:04.308Z</time></trkpt><trkpt lat="43.38883" lon="13.22296333"><ele>302.0</ele><time>2022-03-17T15:17:05.314Z</time></trkpt><trkpt lat="43.38883" lon="13.22296333"><ele>302.0</ele><time>2022-03-17T15:17:06.319Z</time></trkpt><trkpt lat="43.38872833" lon="13.223005"><ele>301.0</ele><time>2022-03-17T15:17:07.289Z</time></trkpt><trkpt lat="43.38872833" lon="13.223005"><ele>301.0</ele><time>2022-03-17T15:17:08.300Z</time></trkpt><trkpt lat="43.38861333" lon="13.22306667"><ele>301.0</ele><time>2022-03-17T15:17:09.307Z</time></trkpt><trkpt lat="43.38861333" lon="13.22306667"><ele>301.0</ele><time>2022-03-17T15:17:10.292Z</time></trkpt><trkpt lat="43.388495" lon="13.22316"><ele>300.0</ele><time>2022-03-17T15:17:11.302Z</time></trkpt><trkpt lat="43.388495" lon="13.22316"><ele>300.0</ele><time>2022-03-17T15:17:12.287Z</time></trkpt><trkpt lat="43.388385" lon="13.22328833"><ele>299.0</ele><time>2022-03-17T15:17:13.297Z</time></trkpt><trkpt lat="43.38833833" lon="13.22337167"><ele>298.0</ele><time>2022-03-17T15:17:14.310Z</time></trkpt><trkpt lat="43.38833833" lon="13.22337167"><ele>298.0</ele><time>2022-03-17T15:17:15.286Z</time></trkpt><trkpt lat="43.38827333" lon="13.22358167"><ele>297.0</ele><time>2022-03-17T15:17:16.302Z</time></trkpt><trkpt lat="43.38825333" lon="13.22369833"><ele>296.0</ele><time>2022-03-17T15:17:17.288Z</time></trkpt><trkpt lat="43.38825333" lon="13.22369833"><ele>296.0</ele><time>2022-03-17T15:17:18.303Z</time></trkpt><trkpt lat="43.38822833" lon="13.22394"><ele>295.0</ele><time>2022-03-17T15:17:19.319Z</time></trkpt><trkpt lat="43.38822833" lon="13.22394"><ele>295.0</ele><time>2022-03-17T15:17:20.298Z</time></trkpt><trkpt lat="43.38820167" lon="13.22418667"><ele>294.0</ele><time>2022-03-17T15:17:21.307Z</time></trkpt><trkpt lat="43.38820167" lon="13.22418667"><ele>294.0</ele><time>2022-03-17T15:17:22.314Z</time></trkpt><trkpt lat="43.38816" lon="13.22443333"><ele>292.0</ele><time>2022-03-17T15:17:23.323Z</time></trkpt><trkpt lat="43.38816" lon="13.22443333"><ele>292.0</ele><time>2022-03-17T15:17:24.316Z</time></trkpt><trkpt lat="43.38807" lon="13.22464"><ele>290.0</ele><time>2022-03-17T15:17:25.323Z</time></trkpt><trkpt lat="43.38807" lon="13.22464"><ele>290.0</ele><time>2022-03-17T15:17:26.313Z</time></trkpt><trkpt lat="43.38791833" lon="13.22475833"><ele>289.0</ele><time>2022-03-17T15:17:27.323Z</time></trkpt><trkpt lat="43.38791833" lon="13.22475833"><ele>289.0</ele><time>2022-03-17T15:17:28.303Z</time></trkpt><trkpt lat="43.38773833" lon="13.22478333"><ele>289.0</ele><time>2022-03-17T15:17:29.311Z</time></trkpt><trkpt lat="43.38773833" lon="13.22478333"><ele>289.0</ele><time>2022-03-17T15:17:30.323Z</time></trkpt><trkpt lat="43.38754833" lon="13.22476333"><ele>288.0</ele><time>2022-03-17T15:17:31.294Z</time></trkpt><trkpt lat="43.38754833" lon="13.22476333"><ele>288.0</ele><time>2022-03-17T15:17:32.315Z</time></trkpt><trkpt lat="43.38737" lon="13.22467167"><ele>287.0</ele><time>2022-03-17T15:17:33.287Z</time></trkpt><trkpt lat="43.38737" lon="13.22467167"><ele>287.0</ele><time>2022-03-17T15:17:34.307Z</time></trkpt><trkpt lat="43.38719667" lon="13.22455"><ele>286.0</ele><time>2022-03-17T15:17:35.316Z</time></trkpt><trkpt lat="43.38719667" lon="13.22455"><ele>286.0</ele><time>2022-03-17T15:17:36.294Z</time></trkpt><trkpt lat="43.38700167" lon="13.22459333"><ele>285.0</ele><time>2022-03-17T15:17:37.308Z</time></trkpt><trkpt lat="43.38692333" lon="13.22467333"><ele>285.0</ele><time>2022-03-17T15:17:38.285Z</time></trkpt><trkpt lat="43.38685667" lon="13.22477667"><ele>285.0</ele><time>2022-03-17T15:17:39.308Z</time></trkpt><trkpt lat="43.38685667" lon="13.22477667"><ele>285.0</ele><time>2022-03-17T15:17:40.284Z</time></trkpt><trkpt lat="43.38678333" lon="13.22497167"><ele>284.0</ele><time>2022-03-17T15:17:41.292Z</time></trkpt><trkpt lat="43.38677333" lon="13.22507167"><ele>283.0</ele><time>2022-03-17T15:17:42.324Z</time></trkpt><trkpt lat="43.38677333" lon="13.22507167"><ele>283.0</ele><time>2022-03-17T15:17:43.316Z</time></trkpt><trkpt lat="43.38675833" lon="13.22526"><ele>283.0</ele><time>2022-03-17T15:17:44.284Z</time></trkpt><trkpt lat="43.38675167" lon="13.22534833"><ele>283.0</ele><time>2022-03-17T15:17:45.318Z</time></trkpt><trkpt lat="43.38675167" lon="13.22534833"><ele>283.0</ele><time>2022-03-17T15:17:46.302Z</time></trkpt><trkpt lat="43.38672833" lon="13.22553"><ele>283.0</ele><time>2022-03-17T15:17:47.311Z</time></trkpt><trkpt lat="43.38671833" lon="13.22561333"><ele>283.0</ele><time>2022-03-17T15:17:48.293Z</time></trkpt><trkpt lat="43.38671833" lon="13.22561333"><ele>283.0</ele><time>2022-03-17T15:17:49.284Z</time></trkpt><trkpt lat="43.38669" lon="13.225775"><ele>282.0</ele><time>2022-03-17T15:17:50.291Z</time></trkpt><trkpt lat="43.38667833" lon="13.22585"><ele>282.0</ele><time>2022-03-17T15:17:51.316Z</time></trkpt><trkpt lat="43.38667833" lon="13.22585"><ele>282.0</ele><time>2022-03-17T15:17:52.299Z</time></trkpt><trkpt lat="43.386655" lon="13.22599333"><ele>283.0</ele><time>2022-03-17T15:17:53.307Z</time></trkpt><trkpt lat="43.386655" lon="13.22599333"><ele>283.0</ele><time>2022-03-17T15:17:54.300Z</time></trkpt><trkpt lat="43.38663833" lon="13.22611833"><ele>282.0</ele><time>2022-03-17T15:17:55.313Z</time></trkpt><trkpt lat="43.38663833" lon="13.22611833"><ele>282.0</ele><time>2022-03-17T15:17:56.284Z</time></trkpt><trkpt lat="43.38663" lon="13.226225"><ele>283.0</ele><time>2022-03-17T15:17:57.294Z</time></trkpt><trkpt lat="43.38663" lon="13.226225"><ele>283.0</ele><time>2022-03-17T15:17:58.313Z</time></trkpt><trkpt lat="43.38661667" lon="13.22633833"><ele>284.0</ele><time>2022-03-17T15:17:59.316Z</time></trkpt><trkpt lat="43.38661667" lon="13.22633833"><ele>284.0</ele><time>2022-03-17T15:18:00.289Z</time></trkpt><trkpt lat="43.3866" lon="13.22645667"><ele>284.0</ele><time>2022-03-17T15:18:01.296Z</time></trkpt><trkpt lat="43.3866" lon="13.22645667"><ele>284.0</ele><time>2022-03-17T15:18:02.314Z</time></trkpt><trkpt lat="43.386585" lon="13.22658333"><ele>285.0</ele><time>2022-03-17T15:18:03.286Z</time></trkpt><trkpt lat="43.386585" lon="13.22658333"><ele>285.0</ele><time>2022-03-17T15:18:04.301Z</time></trkpt><trkpt lat="43.38658333" lon="13.22671"><ele>285.0</ele><time>2022-03-17T15:18:05.308Z</time></trkpt><trkpt lat="43.38658667" lon="13.226775"><ele>286.0</ele><time>2022-03-17T15:18:06.290Z</time></trkpt><trkpt lat="43.38658667" lon="13.226775"><ele>286.0</ele><time>2022-03-17T15:18:07.304Z</time></trkpt><trkpt lat="43.38658833" lon="13.22691333"><ele>287.0</ele><time>2022-03-17T15:18:08.296Z</time></trkpt><trkpt lat="43.38659333" lon="13.22697167"><ele>287.0</ele><time>2022-03-17T15:18:09.320Z</time></trkpt><trkpt lat="43.38659333" lon="13.22697167"><ele>287.0</ele><time>2022-03-17T15:18:10.298Z</time></trkpt><trkpt lat="43.38660333" lon="13.22709333"><ele>288.0</ele><time>2022-03-17T15:18:11.311Z</time></trkpt><trkpt lat="43.38660333" lon="13.22709333"><ele>288.0</ele><time>2022-03-17T15:18:12.302Z</time></trkpt><trkpt lat="43.38661833" lon="13.22721167"><ele>289.0</ele><time>2022-03-17T15:18:13.309Z</time></trkpt><trkpt lat="43.38661833" lon="13.22721167"><ele>289.0</ele><time>2022-03-17T15:18:14.284Z</time></trkpt><trkpt lat="43.386625" lon="13.22732833"><ele>290.0</ele><time>2022-03-17T15:18:15.313Z</time></trkpt><trkpt lat="43.386625" lon="13.22732833"><ele>290.0</ele><time>2022-03-17T15:18:16.311Z</time></trkpt><trkpt lat="43.38662333" lon="13.22743833"><ele>290.0</ele><time>2022-03-17T15:18:17.287Z</time></trkpt><trkpt lat="43.38662333" lon="13.22743833"><ele>290.0</ele><time>2022-03-17T15:18:18.304Z</time></trkpt><trkpt lat="43.38662167" lon="13.22754833"><ele>291.0</ele><time>2022-03-17T15:18:19.316Z</time></trkpt><trkpt lat="43.38662167" lon="13.22754833"><ele>291.0</ele><time>2022-03-17T15:18:20.292Z</time></trkpt><trkpt lat="43.38660667" lon="13.227655"><ele>292.0</ele><time>2022-03-17T15:18:21.304Z</time></trkpt><trkpt lat="43.38660667" lon="13.227655"><ele>292.0</ele><time>2022-03-17T15:18:22.314Z</time></trkpt><trkpt lat="43.38659333" lon="13.22775833"><ele>293.0</ele><time>2022-03-17T15:18:23.286Z</time></trkpt><trkpt lat="43.38659333" lon="13.22775833"><ele>293.0</ele><time>2022-03-17T15:18:24.309Z</time></trkpt><trkpt lat="43.38657" lon="13.22786167"><ele>293.0</ele><time>2022-03-17T15:18:25.287Z</time></trkpt><trkpt lat="43.38657" lon="13.22786167"><ele>293.0</ele><time>2022-03-17T15:18:26.308Z</time></trkpt><trkpt lat="43.38654167" lon="13.22796333"><ele>293.0</ele><time>2022-03-17T15:18:27.322Z</time></trkpt><trkpt lat="43.38654167" lon="13.22796333"><ele>293.0</ele><time>2022-03-17T15:18:28.297Z</time></trkpt><trkpt lat="43.38651" lon="13.22806167"><ele>294.0</ele><time>2022-03-17T15:18:29.307Z</time></trkpt><trkpt lat="43.38651" lon="13.22806167"><ele>294.0</ele><time>2022-03-17T15:18:30.323Z</time></trkpt><trkpt lat="43.386485" lon="13.22816333"><ele>295.0</ele><time>2022-03-17T15:18:31.313Z</time></trkpt><trkpt lat="43.386485" lon="13.22816333"><ele>295.0</ele><time>2022-03-17T15:18:32.309Z</time></trkpt><trkpt lat="43.38646833" lon="13.228265"><ele>296.0</ele><time>2022-03-17T15:18:33.284Z</time></trkpt><trkpt lat="43.38646833" lon="13.228265"><ele>296.0</ele><time>2022-03-17T15:18:34.301Z</time></trkpt><trkpt lat="43.38645" lon="13.22837"><ele>296.0</ele><time>2022-03-17T15:18:35.316Z</time></trkpt><trkpt lat="43.38645" lon="13.22837"><ele>296.0</ele><time>2022-03-17T15:18:36.302Z</time></trkpt><trkpt lat="43.38644833" lon="13.22846833"><ele>296.0</ele><time>2022-03-17T15:18:37.312Z</time></trkpt><trkpt lat="43.38644833" lon="13.22846833"><ele>296.0</ele><time>2022-03-17T15:18:38.323Z</time></trkpt><trkpt lat="43.38643833" lon="13.22856333"><ele>297.0</ele><time>2022-03-17T15:18:39.307Z</time></trkpt><trkpt lat="43.38643833" lon="13.22856333"><ele>297.0</ele><time>2022-03-17T15:18:40.292Z</time></trkpt><trkpt lat="43.38643333" lon="13.228655"><ele>298.0</ele><time>2022-03-17T15:18:41.303Z</time></trkpt><trkpt lat="43.38643333" lon="13.228655"><ele>298.0</ele><time>2022-03-17T15:18:42.312Z</time></trkpt><trkpt lat="43.38644333" lon="13.22875833"><ele>300.0</ele><time>2022-03-17T15:18:43.321Z</time></trkpt><trkpt lat="43.38645" lon="13.22880333"><ele>300.0</ele><time>2022-03-17T15:18:44.295Z</time></trkpt><trkpt lat="43.38645" lon="13.22880333"><ele>300.0</ele><time>2022-03-17T15:18:45.309Z</time></trkpt><trkpt lat="43.38646667" lon="13.22888667"><ele>302.0</ele><time>2022-03-17T15:18:46.318Z</time></trkpt><trkpt lat="43.38646667" lon="13.22888667"><ele>302.0</ele><time>2022-03-17T15:19:03.672Z</time></trkpt><trkpt lat="43.38647333" lon="13.22897"><ele>302.0</ele><time>2022-03-17T15:19:04.691Z</time></trkpt><trkpt lat="43.38647667" lon="13.229015"><ele>303.0</ele><time>2022-03-17T15:19:05.715Z</time></trkpt><trkpt lat="43.38647667" lon="13.229015"><ele>303.0</ele><time>2022-03-17T15:19:06.668Z</time></trkpt><trkpt lat="43.386485" lon="13.229105"><ele>303.0</ele><time>2022-03-17T15:19:07.678Z</time></trkpt><trkpt lat="43.386485" lon="13.229105"><ele>303.0</ele><time>2022-03-17T15:19:08.658Z</time></trkpt><trkpt lat="43.386485" lon="13.229185"><ele>303.0</ele><time>2022-03-17T15:19:09.673Z</time></trkpt><trkpt lat="43.386485" lon="13.229185"><ele>303.0</ele><time>2022-03-17T15:19:10.672Z</time></trkpt><trkpt lat="43.386495" lon="13.22925833"><ele>304.0</ele><time>2022-03-17T15:19:11.655Z</time></trkpt><trkpt lat="43.386495" lon="13.22925833"><ele>304.0</ele><time>2022-03-17T15:19:12.654Z</time></trkpt><trkpt lat="43.38650667" lon="13.22934"><ele>305.0</ele><time>2022-03-17T15:19:13.662Z</time></trkpt><trkpt lat="43.38650667" lon="13.22934"><ele>305.0</ele><time>2022-03-17T15:19:14.687Z</time></trkpt><trkpt lat="43.38651333" lon="13.22942"><ele>305.0</ele><time>2022-03-17T15:19:15.654Z</time></trkpt><trkpt lat="43.38651333" lon="13.22942"><ele>305.0</ele><time>2022-03-17T15:19:16.668Z</time></trkpt><trkpt lat="43.38652667" lon="13.22950333"><ele>305.0</ele><time>2022-03-17T15:19:17.660Z</time></trkpt><trkpt lat="43.38652667" lon="13.22950333"><ele>305.0</ele><time>2022-03-17T15:19:18.678Z</time></trkpt><trkpt lat="43.38654167" lon="13.22959"><ele>305.0</ele><time>2022-03-17T15:19:19.686Z</time></trkpt><trkpt lat="43.38654167" lon="13.22959"><ele>305.0</ele><time>2022-03-17T15:19:26.657Z</time></trkpt><trkpt lat="43.38655333" lon="13.22967167"><ele>305.0</ele><time>2022-03-17T15:19:27.667Z</time></trkpt><trkpt lat="43.38655333" lon="13.22967167"><ele>305.0</ele><time>2022-03-17T15:19:28.656Z</time></trkpt><trkpt lat="43.386565" lon="13.22975333"><ele>306.0</ele><time>2022-03-17T15:19:29.668Z</time></trkpt><trkpt lat="43.38657667" lon="13.22979667"><ele>306.0</ele><time>2022-03-17T15:19:30.677Z</time></trkpt><trkpt lat="43.38659167" lon="13.22983667"><ele>306.0</ele><time>2022-03-17T15:19:31.686Z</time></trkpt><trkpt lat="43.38659167" lon="13.22983667"><ele>306.0</ele><time>2022-03-17T15:19:32.666Z</time></trkpt><trkpt lat="43.38661167" lon="13.22993333"><ele>306.0</ele><time>2022-03-17T15:19:33.676Z</time></trkpt><trkpt lat="43.38661167" lon="13.22993333"><ele>306.0</ele><time>2022-03-17T15:19:34.691Z</time></trkpt><trkpt lat="43.38664333" lon="13.230015"><ele>306.0</ele><time>2022-03-17T15:19:35.658Z</time></trkpt><trkpt lat="43.38665833" lon="13.23005667"><ele>306.0</ele><time>2022-03-17T15:19:36.673Z</time></trkpt><trkpt lat="43.38665833" lon="13.23005667"><ele>306.0</ele><time>2022-03-17T15:19:37.686Z</time></trkpt><trkpt lat="43.38665833" lon="13.23013667"><ele>305.0</ele><time>2022-03-17T15:19:38.693Z</time></trkpt><trkpt lat="43.38665833" lon="13.23013667"><ele>305.0</ele><time>2022-03-17T15:19:39.668Z</time></trkpt><trkpt lat="43.386665" lon="13.23021833"><ele>306.0</ele><time>2022-03-17T15:19:40.675Z</time></trkpt><trkpt lat="43.386665" lon="13.23021833"><ele>306.0</ele><time>2022-03-17T15:19:41.658Z</time></trkpt><trkpt lat="43.38666667" lon="13.23027333"><ele>307.0</ele><time>2022-03-17T15:19:42.669Z</time></trkpt><trkpt lat="43.38666167" lon="13.2303"><ele>307.0</ele><time>2022-03-17T15:19:43.665Z</time></trkpt><trkpt lat="43.38666" lon="13.230335"><ele>307.0</ele><time>2022-03-17T15:19:44.672Z</time></trkpt><trkpt lat="43.38666" lon="13.230335"><ele>307.0</ele><time>2022-03-17T15:19:45.674Z</time></trkpt><trkpt lat="43.386695" lon="13.230405"><ele>307.0</ele><time>2022-03-17T15:19:46.682Z</time></trkpt><trkpt lat="43.386695" lon="13.230405"><ele>307.0</ele><time>2022-03-17T15:19:47.661Z</time></trkpt><trkpt lat="43.38674" lon="13.23049167"><ele>306.0</ele><time>2022-03-17T15:19:48.666Z</time></trkpt><trkpt lat="43.38676833" lon="13.230545"><ele>306.0</ele><time>2022-03-17T15:19:49.687Z</time></trkpt><trkpt lat="43.38676833" lon="13.230545"><ele>306.0</ele><time>2022-03-17T15:19:50.670Z</time></trkpt><trkpt lat="43.38683167" lon="13.23066"><ele>305.0</ele><time>2022-03-17T15:19:51.677Z</time></trkpt><trkpt lat="43.38683167" lon="13.23066"><ele>305.0</ele><time>2022-03-17T15:19:52.686Z</time></trkpt><trkpt lat="43.386875" lon="13.23078667"><ele>303.0</ele><time>2022-03-17T15:19:53.664Z</time></trkpt><trkpt lat="43.38690667" lon="13.23085"><ele>303.0</ele><time>2022-03-17T15:19:54.687Z</time></trkpt><trkpt lat="43.38693667" lon="13.23091667"><ele>302.0</ele><time>2022-03-17T15:19:55.675Z</time></trkpt><trkpt lat="43.38693667" lon="13.23091667"><ele>302.0</ele><time>2022-03-17T15:19:56.691Z</time></trkpt><trkpt lat="43.38699" lon="13.23105"><ele>301.0</ele><time>2022-03-17T15:19:57.659Z</time></trkpt><trkpt lat="43.38699" lon="13.23105"><ele>301.0</ele><time>2022-03-17T15:19:58.672Z</time></trkpt><trkpt lat="43.38702667" lon="13.231175"><ele>300.0</ele><time>2022-03-17T15:19:59.663Z</time></trkpt><trkpt lat="43.38702667" lon="13.231175"><ele>300.0</ele><time>2022-03-17T15:20:00.663Z</time></trkpt><trkpt lat="43.38706167" lon="13.23130167"><ele>299.0</ele><time>2022-03-17T15:20:01.670Z</time></trkpt><trkpt lat="43.38706167" lon="13.23130167"><ele>299.0</ele><time>2022-03-17T15:20:02.674Z</time></trkpt><trkpt lat="43.38710333" lon="13.23145833"><ele>298.0</ele><time>2022-03-17T15:20:03.684Z</time></trkpt><trkpt lat="43.38710333" lon="13.23145833"><ele>298.0</ele><time>2022-03-17T15:20:04.674Z</time></trkpt><trkpt lat="43.38716167" lon="13.23163167"><ele>298.0</ele><time>2022-03-17T15:20:05.683Z</time></trkpt><trkpt lat="43.38719333" lon="13.23171833"><ele>297.0</ele><time>2022-03-17T15:20:06.666Z</time></trkpt><trkpt lat="43.38719333" lon="13.23171833"><ele>297.0</ele><time>2022-03-17T15:20:07.684Z</time></trkpt><trkpt lat="43.38726833" lon="13.23189833"><ele>297.0</ele><time>2022-03-17T15:20:08.659Z</time></trkpt><trkpt lat="43.387295" lon="13.23199"><ele>296.0</ele><time>2022-03-17T15:20:09.677Z</time></trkpt><trkpt lat="43.387295" lon="13.23199"><ele>296.0</ele><time>2022-03-17T15:20:10.688Z</time></trkpt><trkpt lat="43.38735667" lon="13.232165"><ele>296.0</ele><time>2022-03-17T15:20:11.662Z</time></trkpt><trkpt lat="43.38735667" lon="13.232165"><ele>296.0</ele><time>2022-03-17T15:20:12.676Z</time></trkpt><trkpt lat="43.38741833" lon="13.23233"><ele>296.0</ele><time>2022-03-17T15:20:13.686Z</time></trkpt><trkpt lat="43.38745167" lon="13.23240333"><ele>296.0</ele><time>2022-03-17T15:20:14.677Z</time></trkpt><trkpt lat="43.38745167" lon="13.23240333"><ele>296.0</ele><time>2022-03-17T15:20:15.690Z</time></trkpt><trkpt lat="43.38750833" lon="13.23254167"><ele>296.0</ele><time>2022-03-17T15:20:16.661Z</time></trkpt><trkpt lat="43.38750833" lon="13.23254167"><ele>296.0</ele><time>2022-03-17T15:21:08.695Z</time></trkpt><trkpt lat="43.38756667" lon="13.23266667"><ele>296.0</ele><time>2022-03-17T15:21:09.666Z</time></trkpt><trkpt lat="43.38760333" lon="13.232725"><ele>295.0</ele><time>2022-03-17T15:21:10.693Z</time></trkpt><trkpt lat="43.38760333" lon="13.232725"><ele>295.0</ele><time>2022-03-17T15:21:11.683Z</time></trkpt><trkpt lat="43.38764833" lon="13.23282667"><ele>295.0</ele><time>2022-03-17T15:21:12.690Z</time></trkpt><trkpt lat="43.38764833" lon="13.23282667"><ele>295.0</ele><time>2022-03-17T15:21:13.671Z</time></trkpt><trkpt lat="43.387705" lon="13.232925"><ele>294.0</ele><time>2022-03-17T15:21:14.685Z</time></trkpt><trkpt lat="43.387705" lon="13.232925"><ele>294.0</ele><time>2022-03-17T15:21:15.700Z</time></trkpt><trkpt lat="43.38776167" lon="13.23301667"><ele>294.0</ele><time>2022-03-17T15:21:16.672Z</time></trkpt><trkpt lat="43.38776167" lon="13.23301667"><ele>294.0</ele><time>2022-03-17T15:21:17.692Z</time></trkpt><trkpt lat="43.38782667" lon="13.23311167"><ele>293.0</ele><time>2022-03-17T15:21:18.695Z</time></trkpt><trkpt lat="43.38782667" lon="13.23311167"><ele>293.0</ele><time>2022-03-17T15:21:19.689Z</time></trkpt><trkpt lat="43.38788833" lon="13.233215"><ele>292.0</ele><time>2022-03-17T15:21:20.702Z</time></trkpt><trkpt lat="43.38788833" lon="13.233215"><ele>292.0</ele><time>2022-03-17T15:21:21.672Z</time></trkpt><trkpt lat="43.38795167" lon="13.233325"><ele>292.0</ele><time>2022-03-17T15:21:22.689Z</time></trkpt><trkpt lat="43.38795167" lon="13.233325"><ele>292.0</ele><time>2022-03-17T15:21:23.678Z</time></trkpt><trkpt lat="43.38800167" lon="13.23342167"><ele>291.0</ele><time>2022-03-17T15:21:24.670Z</time></trkpt><trkpt lat="43.388035" lon="13.233455"><ele>291.0</ele><time>2022-03-17T15:21:25.687Z</time></trkpt><trkpt lat="43.38806" lon="13.23349167"><ele>291.0</ele><time>2022-03-17T15:21:26.686Z</time></trkpt><trkpt lat="43.38806" lon="13.23349167"><ele>291.0</ele><time>2022-03-17T15:21:27.703Z</time></trkpt><trkpt lat="43.38814833" lon="13.23357167"><ele>290.0</ele><time>2022-03-17T15:21:28.670Z</time></trkpt><trkpt lat="43.38814833" lon="13.23357167"><ele>290.0</ele><time>2022-03-17T15:21:29.686Z</time></trkpt><trkpt lat="43.38823" lon="13.23359667"><ele>291.0</ele><time>2022-03-17T15:21:30.701Z</time></trkpt><trkpt lat="43.38823" lon="13.23359667"><ele>291.0</ele><time>2022-03-17T15:21:31.684Z</time></trkpt><trkpt lat="43.38833" lon="13.23361833"><ele>290.0</ele><time>2022-03-17T15:21:32.692Z</time></trkpt><trkpt lat="43.38838" lon="13.23363833"><ele>291.0</ele><time>2022-03-17T15:21:33.667Z</time></trkpt><trkpt lat="43.38838" lon="13.23363833"><ele>291.0</ele><time>2022-03-17T15:21:34.675Z</time></trkpt><trkpt lat="43.38848" lon="13.23369667"><ele>291.0</ele><time>2022-03-17T15:21:35.685Z</time></trkpt><trkpt lat="43.38848" lon="13.23369667"><ele>291.0</ele><time>2022-03-17T15:21:36.702Z</time></trkpt><trkpt lat="43.38856167" lon="13.23383667"><ele>291.0</ele><time>2022-03-17T15:21:37.667Z</time></trkpt><trkpt lat="43.38856167" lon="13.23383667"><ele>291.0</ele><time>2022-03-17T15:21:38.690Z</time></trkpt><trkpt lat="43.388635" lon="13.233995"><ele>291.0</ele><time>2022-03-17T15:21:39.673Z</time></trkpt><trkpt lat="43.38867333" lon="13.23407833"><ele>290.0</ele><time>2022-03-17T15:21:40.695Z</time></trkpt><trkpt lat="43.38867333" lon="13.23407833"><ele>290.0</ele><time>2022-03-17T15:21:41.678Z</time></trkpt><trkpt lat="43.38875167" lon="13.23424"><ele>289.0</ele><time>2022-03-17T15:21:42.691Z</time></trkpt><trkpt lat="43.38875167" lon="13.23424"><ele>289.0</ele><time>2022-03-17T15:21:43.697Z</time></trkpt><trkpt lat="43.388815" lon="13.23441833"><ele>287.0</ele><time>2022-03-17T15:21:44.699Z</time></trkpt><trkpt lat="43.38885" lon="13.234505"><ele>287.0</ele><time>2022-03-17T15:21:45.676Z</time></trkpt><trkpt lat="43.38888833" lon="13.23459167"><ele>286.0</ele><time>2022-03-17T15:21:46.695Z</time></trkpt><trkpt lat="43.38888833" lon="13.23459167"><ele>286.0</ele><time>2022-03-17T15:21:47.668Z</time></trkpt><trkpt lat="43.388995" lon="13.234755"><ele>284.0</ele><time>2022-03-17T15:21:48.679Z</time></trkpt><trkpt lat="43.388995" lon="13.234755"><ele>284.0</ele><time>2022-03-17T15:21:49.689Z</time></trkpt><trkpt lat="43.389115" lon="13.23489333"><ele>282.0</ele><time>2022-03-17T15:21:50.705Z</time></trkpt><trkpt lat="43.38918" lon="13.23495667"><ele>282.0</ele><time>2022-03-17T15:21:51.690Z</time></trkpt><trkpt lat="43.38924167" lon="13.23501167"><ele>282.0</ele><time>2022-03-17T15:21:52.672Z</time></trkpt><trkpt lat="43.38924167" lon="13.23501167"><ele>282.0</ele><time>2022-03-17T15:21:53.695Z</time></trkpt><trkpt lat="43.38935167" lon="13.2351"><ele>281.0</ele><time>2022-03-17T15:21:54.666Z</time></trkpt><trkpt lat="43.38935167" lon="13.2351"><ele>281.0</ele><time>2022-03-17T15:21:55.672Z</time></trkpt><trkpt lat="43.38946833" lon="13.23516333"><ele>280.0</ele><time>2022-03-17T15:21:56.687Z</time></trkpt><trkpt lat="43.38946833" lon="13.23516333"><ele>280.0</ele><time>2022-03-17T15:21:57.685Z</time></trkpt><trkpt lat="43.38957167" lon="13.23524167"><ele>279.0</ele><time>2022-03-17T15:21:58.696Z</time></trkpt><trkpt lat="43.38957167" lon="13.23524167"><ele>279.0</ele><time>2022-03-17T15:21:59.681Z</time></trkpt><trkpt lat="43.38968167" lon="13.23529833"><ele>277.0</ele><time>2022-03-17T15:22:00.690Z</time></trkpt><trkpt lat="43.38973167" lon="13.23531667"><ele>278.0</ele><time>2022-03-17T15:22:01.692Z</time></trkpt><trkpt lat="43.38978167" lon="13.23533333"><ele>278.0</ele><time>2022-03-17T15:22:02.673Z</time></trkpt><trkpt lat="43.38978167" lon="13.23533333"><ele>278.0</ele><time>2022-03-17T15:22:03.698Z</time></trkpt><trkpt lat="43.38988833" lon="13.23536167"><ele>278.0</ele><time>2022-03-17T15:22:04.672Z</time></trkpt><trkpt lat="43.38988833" lon="13.23536167"><ele>278.0</ele><time>2022-03-17T15:22:05.690Z</time></trkpt><trkpt lat="43.39000333" lon="13.235365"><ele>277.0</ele><time>2022-03-17T15:22:06.697Z</time></trkpt><trkpt lat="43.39000333" lon="13.235365"><ele>277.0</ele><time>2022-03-17T15:22:07.680Z</time></trkpt><trkpt lat="43.39010667" lon="13.23534333"><ele>277.0</ele><time>2022-03-17T15:22:08.689Z</time></trkpt><trkpt lat="43.39010667" lon="13.23534333"><ele>277.0</ele><time>2022-03-17T15:22:09.673Z</time></trkpt><trkpt lat="43.390215" lon="13.23534"><ele>276.0</ele><time>2022-03-17T15:22:10.666Z</time></trkpt><trkpt lat="43.39027167" lon="13.23534667"><ele>275.0</ele><time>2022-03-17T15:22:11.668Z</time></trkpt><trkpt lat="43.39027167" lon="13.23534667"><ele>275.0</ele><time>2022-03-17T15:22:12.689Z</time></trkpt><trkpt lat="43.39038167" lon="13.23535167"><ele>275.0</ele><time>2022-03-17T15:22:13.699Z</time></trkpt><trkpt lat="43.39038167" lon="13.23535167"><ele>275.0</ele><time>2022-03-17T15:22:14.685Z</time></trkpt><trkpt lat="43.39049667" lon="13.23536"><ele>274.0</ele><time>2022-03-17T15:22:15.693Z</time></trkpt><trkpt lat="43.39056" lon="13.23536167"><ele>274.0</ele><time>2022-03-17T15:22:16.681Z</time></trkpt><trkpt lat="43.39056" lon="13.23536167"><ele>274.0</ele><time>2022-03-17T15:22:17.692Z</time></trkpt><trkpt lat="43.39069" lon="13.23535667"><ele>273.0</ele><time>2022-03-17T15:22:18.710Z</time></trkpt><trkpt lat="43.39069" lon="13.23535667"><ele>273.0</ele><time>2022-03-17T15:22:19.688Z</time></trkpt><trkpt lat="43.390835" lon="13.235345"><ele>271.0</ele><time>2022-03-17T15:22:20.696Z</time></trkpt><trkpt lat="43.39091333" lon="13.23533"><ele>271.0</ele><time>2022-03-17T15:22:21.698Z</time></trkpt><trkpt lat="43.39091333" lon="13.23533"><ele>271.0</ele><time>2022-03-17T15:22:22.686Z</time></trkpt><trkpt lat="43.39106667" lon="13.23527667"><ele>270.0</ele><time>2022-03-17T15:22:23.696Z</time></trkpt><trkpt lat="43.39106667" lon="13.23527667"><ele>270.0</ele><time>2022-03-17T15:22:24.672Z</time></trkpt><trkpt lat="43.391215" lon="13.23521333"><ele>269.0</ele><time>2022-03-17T15:22:25.686Z</time></trkpt><trkpt lat="43.39128833" lon="13.23520333"><ele>268.0</ele><time>2022-03-17T15:22:26.665Z</time></trkpt><trkpt lat="43.39128833" lon="13.23520333"><ele>268.0</ele><time>2022-03-17T15:22:27.678Z</time></trkpt><trkpt lat="43.391425" lon="13.23528333"><ele>266.0</ele><time>2022-03-17T15:22:28.672Z</time></trkpt><trkpt lat="43.391485" lon="13.23534167"><ele>266.0</ele><time>2022-03-17T15:22:29.672Z</time></trkpt><trkpt lat="43.39155167" lon="13.23539833"><ele>265.0</ele><time>2022-03-17T15:22:30.702Z</time></trkpt><trkpt lat="43.39161667" lon="13.23545167"><ele>264.0</ele><time>2022-03-17T15:22:31.701Z</time></trkpt><trkpt lat="43.39161667" lon="13.23545167"><ele>264.0</ele><time>2022-03-17T15:22:32.680Z</time></trkpt><trkpt lat="43.391745" lon="13.23556"><ele>262.0</ele><time>2022-03-17T15:22:33.687Z</time></trkpt><trkpt lat="43.39181167" lon="13.23561333"><ele>261.0</ele><time>2022-03-17T15:22:34.674Z</time></trkpt><trkpt lat="43.39181167" lon="13.23561333"><ele>261.0</ele><time>2022-03-17T15:22:35.695Z</time></trkpt><trkpt lat="43.391945" lon="13.23572667"><ele>260.0</ele><time>2022-03-17T15:22:36.667Z</time></trkpt><trkpt lat="43.39200167" lon="13.23580167"><ele>259.0</ele><time>2022-03-17T15:22:37.701Z</time></trkpt><trkpt lat="43.39200167" lon="13.23580167"><ele>259.0</ele><time>2022-03-17T15:22:38.687Z</time></trkpt><trkpt lat="43.39207167" lon="13.236"><ele>258.0</ele><time>2022-03-17T15:22:39.688Z</time></trkpt><trkpt lat="43.39207167" lon="13.236"><ele>258.0</ele><time>2022-03-17T15:22:40.680Z</time></trkpt><trkpt lat="43.39215167" lon="13.236225"><ele>256.0</ele><time>2022-03-17T15:22:41.692Z</time></trkpt><trkpt lat="43.39215167" lon="13.236225"><ele>256.0</ele><time>2022-03-17T15:22:42.667Z</time></trkpt><trkpt lat="43.39223" lon="13.23646667"><ele>254.0</ele><time>2022-03-17T15:22:43.676Z</time></trkpt><trkpt lat="43.39223" lon="13.23646667"><ele>254.0</ele><time>2022-03-17T15:22:44.693Z</time></trkpt><trkpt lat="43.39230333" lon="13.23671167"><ele>252.0</ele><time>2022-03-17T15:22:45.701Z</time></trkpt><trkpt lat="43.39233833" lon="13.23683833"><ele>251.0</ele><time>2022-03-17T15:22:46.675Z</time></trkpt><trkpt lat="43.39233833" lon="13.23683833"><ele>251.0</ele><time>2022-03-17T15:22:47.692Z</time></trkpt><trkpt lat="43.39242333" lon="13.23708667"><ele>249.0</ele><time>2022-03-17T15:22:48.701Z</time></trkpt><trkpt lat="43.39242333" lon="13.23708667"><ele>249.0</ele><time>2022-03-17T15:22:49.671Z</time></trkpt><trkpt lat="43.39252" lon="13.23730333"><ele>247.0</ele><time>2022-03-17T15:22:50.686Z</time></trkpt><trkpt lat="43.39252" lon="13.23730333"><ele>247.0</ele><time>2022-03-17T15:22:51.704Z</time></trkpt><trkpt lat="43.39254833" lon="13.23748667"><ele>245.0</ele><time>2022-03-17T15:22:52.675Z</time></trkpt><trkpt lat="43.39254833" lon="13.23748667"><ele>245.0</ele><time>2022-03-17T15:22:53.697Z</time></trkpt><trkpt lat="43.39246667" lon="13.237635"><ele>243.0</ele><time>2022-03-17T15:22:54.665Z</time></trkpt><trkpt lat="43.39246667" lon="13.237635"><ele>243.0</ele><time>2022-03-17T15:22:55.697Z</time></trkpt><trkpt lat="43.39230667" lon="13.23772333"><ele>240.0</ele><time>2022-03-17T15:22:56.665Z</time></trkpt><trkpt lat="43.39230667" lon="13.23772333"><ele>240.0</ele><time>2022-03-17T15:22:57.688Z</time></trkpt><trkpt lat="43.392165" lon="13.23785"><ele>239.0</ele><time>2022-03-17T15:22:58.695Z</time></trkpt><trkpt lat="43.392165" lon="13.23785"><ele>239.0</ele><time>2022-03-17T15:22:59.695Z</time></trkpt><trkpt lat="43.3921" lon="13.23804"><ele>237.0</ele><time>2022-03-17T15:23:00.703Z</time></trkpt><trkpt lat="43.3921" lon="13.23804"><ele>237.0</ele><time>2022-03-17T15:23:01.687Z</time></trkpt><trkpt lat="43.39210667" lon="13.238245"><ele>235.0</ele><time>2022-03-17T15:23:02.704Z</time></trkpt><trkpt lat="43.39211" lon="13.23833833"><ele>234.0</ele><time>2022-03-17T15:23:03.696Z</time></trkpt><trkpt lat="43.39211833" lon="13.23843667"><ele>233.0</ele><time>2022-03-17T15:23:04.671Z</time></trkpt><trkpt lat="43.39211833" lon="13.23843667"><ele>233.0</ele><time>2022-03-17T15:23:05.685Z</time></trkpt><trkpt lat="43.392135" lon="13.238645"><ele>230.0</ele><time>2022-03-17T15:23:06.696Z</time></trkpt><trkpt lat="43.392135" lon="13.238645"><ele>230.0</ele><time>2022-03-17T15:23:07.675Z</time></trkpt><trkpt lat="43.392155" lon="13.23884667"><ele>228.0</ele><time>2022-03-17T15:23:08.687Z</time></trkpt><trkpt lat="43.392165" lon="13.23894"><ele>227.0</ele><time>2022-03-17T15:23:09.685Z</time></trkpt><trkpt lat="43.39217333" lon="13.23903"><ele>226.0</ele><time>2022-03-17T15:23:10.694Z</time></trkpt><trkpt lat="43.39217333" lon="13.23903"><ele>226.0</ele><time>2022-03-17T15:23:11.684Z</time></trkpt><trkpt lat="43.39220833" lon="13.23921"><ele>224.0</ele><time>2022-03-17T15:23:12.693Z</time></trkpt><trkpt lat="43.39224333" lon="13.23928667"><ele>223.0</ele><time>2022-03-17T15:23:13.676Z</time></trkpt><trkpt lat="43.3923" lon="13.23934333"><ele>223.0</ele><time>2022-03-17T15:23:14.670Z</time></trkpt><trkpt lat="43.3923" lon="13.23934333"><ele>223.0</ele><time>2022-03-17T15:23:15.697Z</time></trkpt><trkpt lat="43.39245167" lon="13.23941"><ele>221.0</ele><time>2022-03-17T15:23:16.706Z</time></trkpt><trkpt lat="43.39245167" lon="13.23941"><ele>221.0</ele><time>2022-03-17T15:23:17.689Z</time></trkpt><trkpt lat="43.39259333" lon="13.23944667"><ele>220.0</ele><time>2022-03-17T15:23:18.696Z</time></trkpt><trkpt lat="43.39266" lon="13.23944167"><ele>219.0</ele><time>2022-03-17T15:23:19.679Z</time></trkpt><trkpt lat="43.39266" lon="13.23944167"><ele>219.0</ele><time>2022-03-17T15:23:20.698Z</time></trkpt><trkpt lat="43.392795" lon="13.23939833"><ele>217.0</ele><time>2022-03-17T15:23:21.673Z</time></trkpt><trkpt lat="43.39284833" lon="13.23937667"><ele>216.0</ele><time>2022-03-17T15:23:22.692Z</time></trkpt><trkpt lat="43.39284833" lon="13.23937667"><ele>216.0</ele><time>2022-03-17T15:23:23.696Z</time></trkpt><trkpt lat="43.39294333" lon="13.23932667"><ele>213.0</ele><time>2022-03-17T15:23:24.666Z</time></trkpt><trkpt lat="43.39294333" lon="13.23932667"><ele>213.0</ele><time>2022-03-17T15:23:25.685Z</time></trkpt><trkpt lat="43.39305333" lon="13.23926667"><ele>211.0</ele><time>2022-03-17T15:23:26.693Z</time></trkpt><trkpt lat="43.39311667" lon="13.23924167"><ele>211.0</ele><time>2022-03-17T15:23:27.697Z</time></trkpt><trkpt lat="43.39318333" lon="13.23921333"><ele>210.0</ele><time>2022-03-17T15:23:28.687Z</time></trkpt><trkpt lat="43.39325833" lon="13.239185"><ele>209.0</ele><time>2022-03-17T15:23:29.692Z</time></trkpt><trkpt lat="43.39325833" lon="13.239185"><ele>209.0</ele><time>2022-03-17T15:23:30.671Z</time></trkpt><trkpt lat="43.39342" lon="13.23917333"><ele>207.0</ele><time>2022-03-17T15:23:31.688Z</time></trkpt><trkpt lat="43.39342" lon="13.23917333"><ele>207.0</ele><time>2022-03-17T15:23:32.705Z</time></trkpt><trkpt lat="43.39359833" lon="13.239165"><ele>206.0</ele><time>2022-03-17T15:23:33.704Z</time></trkpt><trkpt lat="43.39359833" lon="13.239165"><ele>206.0</ele><time>2022-03-17T15:23:34.696Z</time></trkpt><trkpt lat="43.39377167" lon="13.23913667"><ele>204.0</ele><time>2022-03-17T15:23:35.704Z</time></trkpt><trkpt lat="43.39377167" lon="13.23913667"><ele>204.0</ele><time>2022-03-17T15:23:36.682Z</time></trkpt><trkpt lat="43.39394667" lon="13.23911"><ele>201.0</ele><time>2022-03-17T15:23:37.695Z</time></trkpt><trkpt lat="43.39394667" lon="13.23911"><ele>201.0</ele><time>2022-03-17T15:23:38.676Z</time></trkpt><trkpt lat="43.39412833" lon="13.23916833"><ele>197.0</ele><time>2022-03-17T15:23:39.669Z</time></trkpt><trkpt lat="43.394195" lon="13.23924"><ele>196.0</ele><time>2022-03-17T15:23:40.672Z</time></trkpt><trkpt lat="43.394195" lon="13.23924"><ele>196.0</ele><time>2022-03-17T15:23:41.690Z</time></trkpt><trkpt lat="43.394235" lon="13.23945"><ele>194.0</ele><time>2022-03-17T15:23:42.704Z</time></trkpt><trkpt lat="43.394235" lon="13.23945"><ele>194.0</ele><time>2022-03-17T15:23:43.685Z</time></trkpt><trkpt lat="43.39417" lon="13.23966167"><ele>192.0</ele><time>2022-03-17T15:23:44.698Z</time></trkpt><trkpt lat="43.39417" lon="13.23966167"><ele>192.0</ele><time>2022-03-17T15:23:45.687Z</time></trkpt><trkpt lat="43.39406333" lon="13.23981833"><ele>190.0</ele><time>2022-03-17T15:23:46.702Z</time></trkpt><trkpt lat="43.39406333" lon="13.23981833"><ele>190.0</ele><time>2022-03-17T15:23:47.698Z</time></trkpt><trkpt lat="43.39402167" lon="13.23994833"><ele>188.0</ele><time>2022-03-17T15:23:48.667Z</time></trkpt><trkpt lat="43.39404167" lon="13.24000167"><ele>187.0</ele><time>2022-03-17T15:23:49.697Z</time></trkpt><trkpt lat="43.39404167" lon="13.24000167"><ele>187.0</ele><time>2022-03-17T15:23:50.674Z</time></trkpt><trkpt lat="43.39412" lon="13.24004667"><ele>185.0</ele><time>2022-03-17T15:23:51.691Z</time></trkpt><trkpt lat="43.39417" lon="13.24004333"><ele>184.0</ele><time>2022-03-17T15:23:52.676Z</time></trkpt><trkpt lat="43.39422167" lon="13.24002667"><ele>183.0</ele><time>2022-03-17T15:23:53.701Z</time></trkpt><trkpt lat="43.39422167" lon="13.24002667"><ele>183.0</ele><time>2022-03-17T15:23:54.697Z</time></trkpt><trkpt lat="43.39433333" lon="13.23999833"><ele>182.0</ele><time>2022-03-17T15:23:55.667Z</time></trkpt><trkpt lat="43.39433333" lon="13.23999833"><ele>182.0</ele><time>2022-03-17T15:23:56.684Z</time></trkpt><trkpt lat="43.39445333" lon="13.23998667"><ele>182.0</ele><time>2022-03-17T15:23:57.692Z</time></trkpt><trkpt lat="43.39451833" lon="13.24"><ele>181.0</ele><time>2022-03-17T15:23:58.670Z</time></trkpt><trkpt lat="43.39457833" lon="13.24003333"><ele>181.0</ele><time>2022-03-17T15:23:59.706Z</time></trkpt><trkpt lat="43.39457833" lon="13.24003333"><ele>181.0</ele><time>2022-03-17T15:24:00.688Z</time></trkpt><trkpt lat="43.39466" lon="13.24013833"><ele>180.0</ele><time>2022-03-17T15:24:01.696Z</time></trkpt><trkpt lat="43.39466" lon="13.24013833"><ele>180.0</ele><time>2022-03-17T15:24:02.678Z</time></trkpt><trkpt lat="43.39469167" lon="13.24027833"><ele>180.0</ele><time>2022-03-17T15:24:03.687Z</time></trkpt><trkpt lat="43.39470167" lon="13.24034833"><ele>179.0</ele><time>2022-03-17T15:24:04.665Z</time></trkpt><trkpt lat="43.39470167" lon="13.24034833"><ele>179.0</ele><time>2022-03-17T15:24:05.684Z</time></trkpt><trkpt lat="43.394725" lon="13.24048333"><ele>179.0</ele><time>2022-03-17T15:24:06.695Z</time></trkpt><trkpt lat="43.394725" lon="13.24048333"><ele>179.0</ele><time>2022-03-17T15:24:07.671Z</time></trkpt><trkpt lat="43.39474333" lon="13.24059333"><ele>179.0</ele><time>2022-03-17T15:24:08.682Z</time></trkpt><trkpt lat="43.39474333" lon="13.24059333"><ele>179.0</ele><time>2022-03-17T15:24:09.672Z</time></trkpt><trkpt lat="43.39476667" lon="13.24070167"><ele>179.0</ele><time>2022-03-17T15:24:10.708Z</time></trkpt><trkpt lat="43.39476667" lon="13.24070167"><ele>179.0</ele><time>2022-03-17T15:24:11.688Z</time></trkpt><trkpt lat="43.39478833" lon="13.24081"><ele>179.0</ele><time>2022-03-17T15:24:12.686Z</time></trkpt><trkpt lat="43.39478833" lon="13.24081"><ele>179.0</ele><time>2022-03-17T15:24:13.702Z</time></trkpt><trkpt lat="43.39481" lon="13.24091667"><ele>180.0</ele><time>2022-03-17T15:24:14.670Z</time></trkpt><trkpt lat="43.39481" lon="13.24091667"><ele>180.0</ele><time>2022-03-17T15:24:15.681Z</time></trkpt><trkpt lat="43.39482833" lon="13.241025"><ele>180.0</ele><time>2022-03-17T15:24:16.689Z</time></trkpt><trkpt lat="43.39483667" lon="13.24108"><ele>180.0</ele><time>2022-03-17T15:24:17.709Z</time></trkpt><trkpt lat="43.394835" lon="13.24114167"><ele>180.0</ele><time>2022-03-17T15:24:18.693Z</time></trkpt><trkpt lat="43.394835" lon="13.24114167"><ele>180.0</ele><time>2022-03-17T15:24:19.685Z</time></trkpt><trkpt lat="43.394805" lon="13.24127"><ele>181.0</ele><time>2022-03-17T15:24:20.694Z</time></trkpt><trkpt lat="43.394805" lon="13.24127"><ele>181.0</ele><time>2022-03-17T15:24:21.685Z</time></trkpt><trkpt lat="43.39474" lon="13.24134333"><ele>181.0</ele><time>2022-03-17T15:24:22.692Z</time></trkpt><trkpt lat="43.39474" lon="13.24134333"><ele>181.0</ele><time>2022-03-17T15:24:23.684Z</time></trkpt><trkpt lat="43.39465667" lon="13.241365"><ele>182.0</ele><time>2022-03-17T15:24:24.692Z</time></trkpt><trkpt lat="43.39465667" lon="13.241365"><ele>182.0</ele><time>2022-03-17T15:24:25.673Z</time></trkpt><trkpt lat="43.39457667" lon="13.24136833"><ele>182.0</ele><time>2022-03-17T15:24:26.685Z</time></trkpt><trkpt lat="43.39457667" lon="13.24136833"><ele>182.0</ele><time>2022-03-17T15:24:27.682Z</time></trkpt><trkpt lat="43.39452167" lon="13.24138667"><ele>183.0</ele><time>2022-03-17T15:24:28.692Z</time></trkpt><trkpt lat="43.39452167" lon="13.24138667"><ele>183.0</ele><time>2022-03-17T15:24:29.665Z</time></trkpt><trkpt lat="43.39448333" lon="13.24145"><ele>183.0</ele><time>2022-03-17T15:24:30.675Z</time></trkpt><trkpt lat="43.39448333" lon="13.24145"><ele>183.0</ele><time>2022-03-17T15:24:31.695Z</time></trkpt><trkpt lat="43.394485" lon="13.241525"><ele>185.0</ele><time>2022-03-17T15:24:32.666Z</time></trkpt><trkpt lat="43.394485" lon="13.241525"><ele>185.0</ele><time>2022-03-17T15:24:33.666Z</time></trkpt><trkpt lat="43.39451667" lon="13.24157167"><ele>187.0</ele><time>2022-03-17T15:24:34.667Z</time></trkpt><trkpt lat="43.39451667" lon="13.24157167"><ele>187.0</ele><time>2022-03-17T15:24:35.672Z</time></trkpt><trkpt lat="43.39456667" lon="13.24158167"><ele>188.0</ele><time>2022-03-17T15:24:36.684Z</time></trkpt><trkpt lat="43.39459333" lon="13.24158833"><ele>189.0</ele><time>2022-03-17T15:24:37.689Z</time></trkpt><trkpt lat="43.39459333" lon="13.24158833"><ele>189.0</ele><time>2022-03-17T15:24:38.672Z</time></trkpt><trkpt lat="43.39464167" lon="13.24161"><ele>191.0</ele><time>2022-03-17T15:24:39.702Z</time></trkpt><trkpt lat="43.39466" lon="13.24162333"><ele>191.0</ele><time>2022-03-17T15:24:40.671Z</time></trkpt><trkpt lat="43.39468167" lon="13.24164"><ele>192.0</ele><time>2022-03-17T15:24:41.670Z</time></trkpt><trkpt lat="43.39468167" lon="13.24164"><ele>192.0</ele><time>2022-03-17T15:24:42.685Z</time></trkpt><trkpt lat="43.39471667" lon="13.24167167"><ele>193.0</ele><time>2022-03-17T15:24:43.696Z</time></trkpt><trkpt lat="43.39473667" lon="13.24169333"><ele>194.0</ele><time>2022-03-17T15:24:44.702Z</time></trkpt><trkpt lat="43.39473667" lon="13.24169333"><ele>194.0</ele><time>2022-03-17T15:24:45.684Z</time></trkpt><trkpt lat="43.39477667" lon="13.24174"><ele>195.0</ele><time>2022-03-17T15:24:46.696Z</time></trkpt><trkpt lat="43.39477667" lon="13.24174"><ele>195.0</ele><time>2022-03-17T15:24:47.676Z</time></trkpt><trkpt lat="43.39481333" lon="13.24177833"><ele>196.0</ele><time>2022-03-17T15:24:48.686Z</time></trkpt><trkpt lat="43.39481333" lon="13.24177833"><ele>196.0</ele><time>2022-03-17T15:24:49.666Z</time></trkpt><trkpt lat="43.39485667" lon="13.24183167"><ele>197.0</ele><time>2022-03-17T15:24:50.704Z</time></trkpt><trkpt lat="43.39485667" lon="13.24183167"><ele>197.0</ele><time>2022-03-17T15:24:51.698Z</time></trkpt><trkpt lat="43.39489667" lon="13.24189667"><ele>197.0</ele><time>2022-03-17T15:24:52.669Z</time></trkpt><trkpt lat="43.39489667" lon="13.24189667"><ele>197.0</ele><time>2022-03-17T15:24:53.683Z</time></trkpt><trkpt lat="43.39492667" lon="13.241975"><ele>198.0</ele><time>2022-03-17T15:24:54.689Z</time></trkpt><trkpt lat="43.39492667" lon="13.241975"><ele>198.0</ele><time>2022-03-17T15:24:55.682Z</time></trkpt><trkpt lat="43.39495667" lon="13.24204333"><ele>199.0</ele><time>2022-03-17T15:24:56.678Z</time></trkpt><trkpt lat="43.39495667" lon="13.24204333"><ele>199.0</ele><time>2022-03-17T15:24:57.692Z</time></trkpt><trkpt lat="43.39497167" lon="13.24212333"><ele>200.0</ele><time>2022-03-17T15:24:58.703Z</time></trkpt><trkpt lat="43.39497167" lon="13.24212333"><ele>200.0</ele><time>2022-03-17T15:24:59.685Z</time></trkpt><trkpt lat="43.39499167" lon="13.24219833"><ele>201.0</ele><time>2022-03-17T15:25:00.700Z</time></trkpt><trkpt lat="43.39499167" lon="13.24219833"><ele>201.0</ele><time>2022-03-17T15:25:01.691Z</time></trkpt><trkpt lat="43.39500667" lon="13.242275"><ele>202.0</ele><time>2022-03-17T15:25:02.673Z</time></trkpt><trkpt lat="43.39500667" lon="13.242275"><ele>202.0</ele><time>2022-03-17T15:25:03.669Z</time></trkpt><trkpt lat="43.39500833" lon="13.24235"><ele>203.0</ele><time>2022-03-17T15:25:04.676Z</time></trkpt><trkpt lat="43.39500833" lon="13.24235"><ele>203.0</ele><time>2022-03-17T15:25:05.688Z</time></trkpt><trkpt lat="43.39501833" lon="13.24243"><ele>204.0</ele><time>2022-03-17T15:25:06.666Z</time></trkpt><trkpt lat="43.395025" lon="13.24247"><ele>204.0</ele><time>2022-03-17T15:25:07.692Z</time></trkpt><trkpt lat="43.395025" lon="13.24247"><ele>204.0</ele><time>2022-03-17T15:25:08.685Z</time></trkpt><trkpt lat="43.395035" lon="13.24254667"><ele>205.0</ele><time>2022-03-17T15:25:09.694Z</time></trkpt><trkpt lat="43.39504" lon="13.24259"><ele>205.0</ele><time>2022-03-17T15:25:10.689Z</time></trkpt><trkpt lat="43.39504" lon="13.24259"><ele>205.0</ele><time>2022-03-17T15:25:11.702Z</time></trkpt><trkpt lat="43.395045" lon="13.24268167"><ele>205.0</ele><time>2022-03-17T15:25:12.672Z</time></trkpt><trkpt lat="43.395045" lon="13.24268167"><ele>205.0</ele><time>2022-03-17T15:25:13.690Z</time></trkpt><trkpt lat="43.39505" lon="13.242785"><ele>205.0</ele><time>2022-03-17T15:25:14.688Z</time></trkpt><trkpt lat="43.39505" lon="13.242785"><ele>205.0</ele><time>2022-03-17T15:25:15.677Z</time></trkpt><trkpt lat="43.39504833" lon="13.24287333"><ele>206.0</ele><time>2022-03-17T15:25:16.691Z</time></trkpt><trkpt lat="43.39504667" lon="13.24291333"><ele>206.0</ele><time>2022-03-17T15:25:17.666Z</time></trkpt><trkpt lat="43.39504667" lon="13.24291333"><ele>206.0</ele><time>2022-03-17T15:25:18.695Z</time></trkpt><trkpt lat="43.39505" lon="13.242995"><ele>206.0</ele><time>2022-03-17T15:25:19.667Z</time></trkpt><trkpt lat="43.39505" lon="13.242995"><ele>206.0</ele><time>2022-03-17T15:25:20.688Z</time></trkpt><trkpt lat="43.39505167" lon="13.24306833"><ele>206.0</ele><time>2022-03-17T15:25:21.696Z</time></trkpt><trkpt lat="43.39505" lon="13.24311"><ele>206.0</ele><time>2022-03-17T15:25:22.694Z</time></trkpt><trkpt lat="43.39505" lon="13.24311"><ele>206.0</ele><time>2022-03-17T15:25:23.685Z</time></trkpt><trkpt lat="43.39504833" lon="13.24318167"><ele>207.0</ele><time>2022-03-17T15:25:24.666Z</time></trkpt><trkpt lat="43.39504833" lon="13.24318167"><ele>207.0</ele><time>2022-03-17T15:25:25.688Z</time></trkpt><trkpt lat="43.395055" lon="13.24326833"><ele>208.0</ele><time>2022-03-17T15:25:26.698Z</time></trkpt><trkpt lat="43.39506" lon="13.243305"><ele>208.0</ele><time>2022-03-17T15:25:27.674Z</time></trkpt><trkpt lat="43.39505833" lon="13.24334833"><ele>209.0</ele><time>2022-03-17T15:25:28.665Z</time></trkpt><trkpt lat="43.39505833" lon="13.24334833"><ele>209.0</ele><time>2022-03-17T15:25:29.689Z</time></trkpt><trkpt lat="43.39505167" lon="13.24343667"><ele>210.0</ele><time>2022-03-17T15:25:30.705Z</time></trkpt><trkpt lat="43.39504667" lon="13.24348167"><ele>210.0</ele><time>2022-03-17T15:25:31.686Z</time></trkpt><trkpt lat="43.39504667" lon="13.24348167"><ele>210.0</ele><time>2022-03-17T15:25:32.675Z</time></trkpt><trkpt lat="43.39504667" lon="13.243575"><ele>210.0</ele><time>2022-03-17T15:25:33.688Z</time></trkpt><trkpt lat="43.39504667" lon="13.243575"><ele>210.0</ele><time>2022-03-17T15:25:34.672Z</time></trkpt><trkpt lat="43.39503833" lon="13.24366667"><ele>211.0</ele><time>2022-03-17T15:25:35.692Z</time></trkpt><trkpt lat="43.395035" lon="13.24370833"><ele>211.0</ele><time>2022-03-17T15:25:36.742Z</time></trkpt><trkpt lat="43.395035" lon="13.24370833"><ele>211.0</ele><time>2022-03-17T15:25:37.666Z</time></trkpt><trkpt lat="43.39503667" lon="13.24378333"><ele>212.0</ele><time>2022-03-17T15:25:38.673Z</time></trkpt><trkpt lat="43.39504167" lon="13.243825"><ele>212.0</ele><time>2022-03-17T15:25:39.709Z</time></trkpt><trkpt lat="43.39504167" lon="13.243825"><ele>212.0</ele><time>2022-03-17T15:25:40.675Z</time></trkpt><trkpt lat="43.39506" lon="13.24390833"><ele>211.0</ele><time>2022-03-17T15:25:41.689Z</time></trkpt><trkpt lat="43.39506" lon="13.24390833"><ele>211.0</ele><time>2022-03-17T15:25:42.684Z</time></trkpt><trkpt lat="43.39507833" lon="13.243995"><ele>211.0</ele><time>2022-03-17T15:25:43.708Z</time></trkpt><trkpt lat="43.39507833" lon="13.243995"><ele>211.0</ele><time>2022-03-17T15:25:44.666Z</time></trkpt><trkpt lat="43.39510167" lon="13.244085"><ele>211.0</ele><time>2022-03-17T15:25:45.673Z</time></trkpt><trkpt lat="43.39511667" lon="13.24412667"><ele>210.0</ele><time>2022-03-17T15:25:46.701Z</time></trkpt><trkpt lat="43.39511667" lon="13.24412667"><ele>210.0</ele><time>2022-03-17T15:25:47.683Z</time></trkpt><trkpt lat="43.395145" lon="13.244205"><ele>210.0</ele><time>2022-03-17T15:25:48.695Z</time></trkpt><trkpt lat="43.395145" lon="13.244205"><ele>210.0</ele><time>2022-03-17T15:25:49.684Z</time></trkpt><trkpt lat="43.39517667" lon="13.24429167"><ele>210.0</ele><time>2022-03-17T15:25:50.694Z</time></trkpt><trkpt lat="43.39517667" lon="13.24429167"><ele>210.0</ele><time>2022-03-17T15:25:51.674Z</time></trkpt><trkpt lat="43.39521" lon="13.24437167"><ele>209.0</ele><time>2022-03-17T15:25:52.683Z</time></trkpt><trkpt lat="43.39521" lon="13.24437167"><ele>209.0</ele><time>2022-03-17T15:25:53.686Z</time></trkpt><trkpt lat="43.395235" lon="13.24445667"><ele>209.0</ele><time>2022-03-17T15:25:54.700Z</time></trkpt><trkpt lat="43.395235" lon="13.24445667"><ele>209.0</ele><time>2022-03-17T15:25:55.679Z</time></trkpt><trkpt lat="43.39526167" lon="13.24454167"><ele>209.0</ele><time>2022-03-17T15:25:56.689Z</time></trkpt><trkpt lat="43.395275" lon="13.24458333"><ele>209.0</ele><time>2022-03-17T15:25:57.679Z</time></trkpt><trkpt lat="43.395275" lon="13.24458333"><ele>209.0</ele><time>2022-03-17T15:25:58.692Z</time></trkpt><trkpt lat="43.3953" lon="13.24466667"><ele>209.0</ele><time>2022-03-17T15:25:59.672Z</time></trkpt><trkpt lat="43.3953" lon="13.24466667"><ele>209.0</ele><time>2022-03-17T15:26:00.693Z</time></trkpt><trkpt lat="43.39532333" lon="13.24474"><ele>209.0</ele><time>2022-03-17T15:26:01.701Z</time></trkpt><trkpt lat="43.39532333" lon="13.24474"><ele>209.0</ele><time>2022-03-17T15:26:02.684Z</time></trkpt><trkpt lat="43.39534833" lon="13.24481167"><ele>210.0</ele><time>2022-03-17T15:26:03.694Z</time></trkpt><trkpt lat="43.39536333" lon="13.24484833"><ele>210.0</ele><time>2022-03-17T15:26:04.678Z</time></trkpt><trkpt lat="43.39536333" lon="13.24484833"><ele>210.0</ele><time>2022-03-17T15:26:05.692Z</time></trkpt><trkpt lat="43.395395" lon="13.244925"><ele>210.0</ele><time>2022-03-17T15:26:06.699Z</time></trkpt><trkpt lat="43.39540833" lon="13.24496"><ele>210.0</ele><time>2022-03-17T15:26:07.676Z</time></trkpt><trkpt lat="43.39540833" lon="13.24496"><ele>210.0</ele><time>2022-03-17T15:26:08.691Z</time></trkpt><trkpt lat="43.39543167" lon="13.24503333"><ele>210.0</ele><time>2022-03-17T15:26:09.703Z</time></trkpt><trkpt lat="43.39543833" lon="13.24507"><ele>211.0</ele><time>2022-03-17T15:26:10.690Z</time></trkpt><trkpt lat="43.39543833" lon="13.24507"><ele>211.0</ele><time>2022-03-17T15:26:11.701Z</time></trkpt><trkpt lat="43.39546" lon="13.24514333"><ele>211.0</ele><time>2022-03-17T15:26:12.677Z</time></trkpt><trkpt lat="43.39546833" lon="13.24518167"><ele>211.0</ele><time>2022-03-17T15:26:13.702Z</time></trkpt><trkpt lat="43.39547333" lon="13.24522333"><ele>211.0</ele><time>2022-03-17T15:26:14.685Z</time></trkpt><trkpt lat="43.39547333" lon="13.24522333"><ele>211.0</ele><time>2022-03-17T15:26:15.698Z</time></trkpt><trkpt lat="43.39548667" lon="13.245305"><ele>212.0</ele><time>2022-03-17T15:26:16.666Z</time></trkpt><trkpt lat="43.39548667" lon="13.245305"><ele>212.0</ele><time>2022-03-17T15:26:17.696Z</time></trkpt><trkpt lat="43.39550333" lon="13.24538667"><ele>212.0</ele><time>2022-03-17T15:26:18.694Z</time></trkpt><trkpt lat="43.39550333" lon="13.24538667"><ele>212.0</ele><time>2022-03-17T15:26:19.703Z</time></trkpt><trkpt lat="43.39551833" lon="13.24547833"><ele>211.0</ele><time>2022-03-17T15:26:20.670Z</time></trkpt><trkpt lat="43.395525" lon="13.24552333"><ele>212.0</ele><time>2022-03-17T15:26:21.692Z</time></trkpt><trkpt lat="43.395535" lon="13.24556667"><ele>212.0</ele><time>2022-03-17T15:26:22.688Z</time></trkpt><trkpt lat="43.395535" lon="13.24556667"><ele>212.0</ele><time>2022-03-17T15:26:23.699Z</time></trkpt><trkpt lat="43.39555833" lon="13.24565833"><ele>211.0</ele><time>2022-03-17T15:26:24.671Z</time></trkpt><trkpt lat="43.39555833" lon="13.24565833"><ele>211.0</ele><time>2022-03-17T15:26:25.689Z</time></trkpt><trkpt lat="43.39559" lon="13.24575667"><ele>211.0</ele><time>2022-03-17T15:26:26.698Z</time></trkpt><trkpt lat="43.39560833" lon="13.245815"><ele>211.0</ele><time>2022-03-17T15:26:27.673Z</time></trkpt><trkpt lat="43.39562333" lon="13.245875"><ele>211.0</ele><time>2022-03-17T15:26:28.694Z</time></trkpt><trkpt lat="43.39562333" lon="13.245875"><ele>211.0</ele><time>2022-03-17T15:27:28.204Z</time></trkpt><trkpt lat="43.39564167" lon="13.24599167"><ele>210.0</ele><time>2022-03-17T15:27:29.173Z</time></trkpt><trkpt lat="43.39564167" lon="13.24599167"><ele>210.0</ele><time>2022-03-17T15:27:30.192Z</time></trkpt><trkpt lat="43.39565833" lon="13.24610167"><ele>210.0</ele><time>2022-03-17T15:27:31.208Z</time></trkpt><trkpt lat="43.39565833" lon="13.24610167"><ele>210.0</ele><time>2022-03-17T15:27:32.176Z</time></trkpt><trkpt lat="43.39566667" lon="13.24621"><ele>210.0</ele><time>2022-03-17T15:27:33.183Z</time></trkpt><trkpt lat="43.39566667" lon="13.24621"><ele>210.0</ele><time>2022-03-17T15:27:34.201Z</time></trkpt><trkpt lat="43.39566833" lon="13.24630833"><ele>210.0</ele><time>2022-03-17T15:27:35.172Z</time></trkpt><trkpt lat="43.39566833" lon="13.24630833"><ele>210.0</ele><time>2022-03-17T15:27:36.208Z</time></trkpt><trkpt lat="43.39567333" lon="13.246405"><ele>210.0</ele><time>2022-03-17T15:27:37.178Z</time></trkpt><trkpt lat="43.39567333" lon="13.246405"><ele>210.0</ele><time>2022-03-17T15:27:38.174Z</time></trkpt><trkpt lat="43.395685" lon="13.2465"><ele>211.0</ele><time>2022-03-17T15:27:39.199Z</time></trkpt><trkpt lat="43.395685" lon="13.2465"><ele>211.0</ele><time>2022-03-17T15:27:40.175Z</time></trkpt><trkpt lat="43.39569333" lon="13.24659333"><ele>212.0</ele><time>2022-03-17T15:27:41.197Z</time></trkpt><trkpt lat="43.3957" lon="13.24663667"><ele>212.0</ele><time>2022-03-17T15:27:42.194Z</time></trkpt><trkpt lat="43.3957" lon="13.24663667"><ele>212.0</ele><time>2022-03-17T15:27:43.178Z</time></trkpt><trkpt lat="43.39571667" lon="13.24671667"><ele>213.0</ele><time>2022-03-17T15:27:44.186Z</time></trkpt><trkpt lat="43.395725" lon="13.24676"><ele>213.0</ele><time>2022-03-17T15:27:45.197Z</time></trkpt><trkpt lat="43.395725" lon="13.24676"><ele>213.0</ele><time>2022-03-17T15:27:46.175Z</time></trkpt><trkpt lat="43.39574" lon="13.24684"><ele>214.0</ele><time>2022-03-17T15:27:47.185Z</time></trkpt><trkpt lat="43.39574" lon="13.24684"><ele>214.0</ele><time>2022-03-17T15:27:48.176Z</time></trkpt><trkpt lat="43.395755" lon="13.24692333"><ele>214.0</ele><time>2022-03-17T15:27:49.210Z</time></trkpt><trkpt lat="43.395755" lon="13.24692333"><ele>214.0</ele><time>2022-03-17T15:27:50.189Z</time></trkpt><trkpt lat="43.39577167" lon="13.24700333"><ele>214.0</ele><time>2022-03-17T15:27:51.196Z</time></trkpt><trkpt lat="43.39577167" lon="13.24700333"><ele>214.0</ele><time>2022-03-17T15:27:52.179Z</time></trkpt><trkpt lat="43.39579167" lon="13.24708667"><ele>215.0</ele><time>2022-03-17T15:27:53.208Z</time></trkpt><trkpt lat="43.39579167" lon="13.24708667"><ele>215.0</ele><time>2022-03-17T15:27:54.184Z</time></trkpt><trkpt lat="43.39581333" lon="13.247165"><ele>215.0</ele><time>2022-03-17T15:27:55.203Z</time></trkpt><trkpt lat="43.39581333" lon="13.247165"><ele>215.0</ele><time>2022-03-17T15:27:56.189Z</time></trkpt><trkpt lat="43.39583833" lon="13.24723833"><ele>216.0</ele><time>2022-03-17T15:27:57.200Z</time></trkpt><trkpt lat="43.39583833" lon="13.24723833"><ele>216.0</ele><time>2022-03-17T15:27:58.196Z</time></trkpt><trkpt lat="43.39586167" lon="13.247315"><ele>217.0</ele><time>2022-03-17T15:27:59.208Z</time></trkpt><trkpt lat="43.39586167" lon="13.247315"><ele>217.0</ele><time>2022-03-17T15:28:00.189Z</time></trkpt><trkpt lat="43.39588167" lon="13.24740167"><ele>216.0</ele><time>2022-03-17T15:28:01.198Z</time></trkpt><trkpt lat="43.395895" lon="13.24744"><ele>216.0</ele><time>2022-03-17T15:28:02.174Z</time></trkpt><trkpt lat="43.39590667" lon="13.24746833"><ele>217.0</ele><time>2022-03-17T15:28:03.202Z</time></trkpt><trkpt lat="43.39590667" lon="13.24746833"><ele>217.0</ele><time>2022-03-17T15:28:04.182Z</time></trkpt><trkpt lat="43.395935" lon="13.247515"><ele>217.0</ele><time>2022-03-17T15:28:05.193Z</time></trkpt><trkpt lat="43.395935" lon="13.247515"><ele>217.0</ele><time>2022-03-17T15:28:06.176Z</time></trkpt><trkpt lat="43.39595167" lon="13.24757333"><ele>218.0</ele><time>2022-03-17T15:28:07.184Z</time></trkpt><trkpt lat="43.39595167" lon="13.24757333"><ele>218.0</ele><time>2022-03-17T15:28:08.209Z</time></trkpt><trkpt lat="43.395965" lon="13.24763833"><ele>218.0</ele><time>2022-03-17T15:28:09.176Z</time></trkpt><trkpt lat="43.395965" lon="13.24763833"><ele>218.0</ele><time>2022-03-17T15:28:10.203Z</time></trkpt><trkpt lat="43.39598167" lon="13.247705"><ele>220.0</ele><time>2022-03-17T15:28:11.175Z</time></trkpt><trkpt lat="43.39598167" lon="13.247705"><ele>220.0</ele><time>2022-03-17T15:28:12.191Z</time></trkpt><trkpt lat="43.396005" lon="13.24777333"><ele>221.0</ele><time>2022-03-17T15:28:13.193Z</time></trkpt><trkpt lat="43.396005" lon="13.24777333"><ele>221.0</ele><time>2022-03-17T15:28:14.181Z</time></trkpt><trkpt lat="43.39603" lon="13.24784"><ele>221.0</ele><time>2022-03-17T15:28:15.196Z</time></trkpt><trkpt lat="43.39603" lon="13.24784"><ele>221.0</ele><time>2022-03-17T15:28:16.193Z</time></trkpt><trkpt lat="43.39604833" lon="13.247905"><ele>222.0</ele><time>2022-03-17T15:28:17.172Z</time></trkpt><trkpt lat="43.39604833" lon="13.247905"><ele>222.0</ele><time>2022-03-17T15:28:18.173Z</time></trkpt><trkpt lat="43.396065" lon="13.24797333"><ele>223.0</ele><time>2022-03-17T15:28:19.183Z</time></trkpt><trkpt lat="43.396065" lon="13.24797333"><ele>223.0</ele><time>2022-03-17T15:28:20.175Z</time></trkpt><trkpt lat="43.396085" lon="13.24803833"><ele>224.0</ele><time>2022-03-17T15:28:21.183Z</time></trkpt><trkpt lat="43.396085" lon="13.24803833"><ele>224.0</ele><time>2022-03-17T15:28:22.201Z</time></trkpt><trkpt lat="43.39610167" lon="13.24810167"><ele>224.0</ele><time>2022-03-17T15:28:23.193Z</time></trkpt><trkpt lat="43.39610167" lon="13.24810167"><ele>224.0</ele><time>2022-03-17T15:28:24.197Z</time></trkpt><trkpt lat="43.396125" lon="13.24816667"><ele>224.0</ele><time>2022-03-17T15:28:25.207Z</time></trkpt><trkpt lat="43.396125" lon="13.24816667"><ele>224.0</ele><time>2022-03-17T15:28:26.177Z</time></trkpt><trkpt lat="43.39614833" lon="13.24822833"><ele>225.0</ele><time>2022-03-17T15:28:27.183Z</time></trkpt><trkpt lat="43.39615667" lon="13.24826333"><ele>225.0</ele><time>2022-03-17T15:28:28.203Z</time></trkpt><trkpt lat="43.39615667" lon="13.24826333"><ele>225.0</ele><time>2022-03-17T15:28:29.176Z</time></trkpt><trkpt lat="43.39618333" lon="13.24833333"><ele>225.0</ele><time>2022-03-17T15:28:30.187Z</time></trkpt><trkpt lat="43.39618333" lon="13.24833333"><ele>225.0</ele><time>2022-03-17T15:28:31.200Z</time></trkpt><trkpt lat="43.39621167" lon="13.24840167"><ele>225.0</ele><time>2022-03-17T15:28:32.211Z</time></trkpt><trkpt lat="43.39621167" lon="13.24840167"><ele>225.0</ele><time>2022-03-17T15:28:33.195Z</time></trkpt><trkpt lat="43.396235" lon="13.24846333"><ele>225.0</ele><time>2022-03-17T15:28:34.203Z</time></trkpt><trkpt lat="43.396245" lon="13.24849333"><ele>225.0</ele><time>2022-03-17T15:28:35.196Z</time></trkpt><trkpt lat="43.396245" lon="13.24849333"><ele>225.0</ele><time>2022-03-17T15:28:36.179Z</time></trkpt><trkpt lat="43.39627" lon="13.24855667"><ele>224.0</ele><time>2022-03-17T15:28:37.188Z</time></trkpt><trkpt lat="43.39627" lon="13.24855667"><ele>224.0</ele><time>2022-03-17T15:28:38.196Z</time></trkpt><trkpt lat="43.39630167" lon="13.248625"><ele>224.0</ele><time>2022-03-17T15:28:39.172Z</time></trkpt><trkpt lat="43.39630167" lon="13.248625"><ele>224.0</ele><time>2022-03-17T15:28:40.209Z</time></trkpt><trkpt lat="43.39634167" lon="13.248695"><ele>224.0</ele><time>2022-03-17T15:28:41.176Z</time></trkpt><trkpt lat="43.39636167" lon="13.24872833"><ele>223.0</ele><time>2022-03-17T15:28:42.199Z</time></trkpt><trkpt lat="43.39636167" lon="13.24872833"><ele>223.0</ele><time>2022-03-17T15:28:43.181Z</time></trkpt><trkpt lat="43.39640833" lon="13.24879"><ele>223.0</ele><time>2022-03-17T15:28:44.202Z</time></trkpt><trkpt lat="43.39643167" lon="13.24882"><ele>223.0</ele><time>2022-03-17T15:28:45.196Z</time></trkpt><trkpt lat="43.39643167" lon="13.24882"><ele>223.0</ele><time>2022-03-17T15:28:46.197Z</time></trkpt><trkpt lat="43.39648" lon="13.24888333"><ele>223.0</ele><time>2022-03-17T15:28:47.172Z</time></trkpt><trkpt lat="43.39648" lon="13.24888333"><ele>223.0</ele><time>2022-03-17T15:28:48.191Z</time></trkpt><trkpt lat="43.39653167" lon="13.24894667"><ele>222.0</ele><time>2022-03-17T15:28:49.200Z</time></trkpt><trkpt lat="43.39653167" lon="13.24894667"><ele>222.0</ele><time>2022-03-17T15:28:50.197Z</time></trkpt><trkpt lat="43.39658333" lon="13.249025"><ele>222.0</ele><time>2022-03-17T15:28:51.212Z</time></trkpt><trkpt lat="43.39658333" lon="13.249025"><ele>222.0</ele><time>2022-03-17T15:28:52.191Z</time></trkpt><trkpt lat="43.39663833" lon="13.24911667"><ele>222.0</ele><time>2022-03-17T15:28:53.210Z</time></trkpt><trkpt lat="43.39663833" lon="13.24911667"><ele>222.0</ele><time>2022-03-17T15:28:54.195Z</time></trkpt><trkpt lat="43.39669" lon="13.249215"><ele>222.0</ele><time>2022-03-17T15:28:55.180Z</time></trkpt><trkpt lat="43.39669" lon="13.249215"><ele>222.0</ele><time>2022-03-17T15:28:56.197Z</time></trkpt><trkpt lat="43.39674" lon="13.24930833"><ele>222.0</ele><time>2022-03-17T15:28:57.212Z</time></trkpt><trkpt lat="43.39674" lon="13.24930833"><ele>222.0</ele><time>2022-03-17T15:28:58.182Z</time></trkpt><trkpt lat="43.39679333" lon="13.24940167"><ele>222.0</ele><time>2022-03-17T15:28:59.198Z</time></trkpt><trkpt lat="43.39679333" lon="13.24940167"><ele>222.0</ele><time>2022-03-17T15:29:00.183Z</time></trkpt><trkpt lat="43.39684833" lon="13.249495"><ele>222.0</ele><time>2022-03-17T15:29:01.193Z</time></trkpt><trkpt lat="43.396875" lon="13.24953333"><ele>223.0</ele><time>2022-03-17T15:29:02.186Z</time></trkpt><trkpt lat="43.396875" lon="13.24953333"><ele>223.0</ele><time>2022-03-17T15:29:03.208Z</time></trkpt><trkpt lat="43.39692333" lon="13.24960667"><ele>222.0</ele><time>2022-03-17T15:29:04.175Z</time></trkpt><trkpt lat="43.39692333" lon="13.24960667"><ele>222.0</ele><time>2022-03-17T15:29:05.198Z</time></trkpt><trkpt lat="43.39696" lon="13.249675"><ele>222.0</ele><time>2022-03-17T15:29:06.172Z</time></trkpt><trkpt lat="43.39697667" lon="13.24970833"><ele>222.0</ele><time>2022-03-17T15:29:07.173Z</time></trkpt><trkpt lat="43.39697667" lon="13.24970833"><ele>222.0</ele><time>2022-03-17T15:29:08.187Z</time></trkpt><trkpt lat="43.397005" lon="13.24978667"><ele>222.0</ele><time>2022-03-17T15:29:09.197Z</time></trkpt><trkpt lat="43.397005" lon="13.24978667"><ele>222.0</ele><time>2022-03-17T15:29:10.181Z</time></trkpt><trkpt lat="43.39702" lon="13.24988667"><ele>221.0</ele><time>2022-03-17T15:29:11.221Z</time></trkpt><trkpt lat="43.39702" lon="13.24988667"><ele>221.0</ele><time>2022-03-17T15:29:12.180Z</time></trkpt><trkpt lat="43.397025" lon="13.25000833"><ele>221.0</ele><time>2022-03-17T15:29:13.199Z</time></trkpt><trkpt lat="43.39702667" lon="13.25007333"><ele>220.0</ele><time>2022-03-17T15:29:14.194Z</time></trkpt><trkpt lat="43.39702667" lon="13.25007333"><ele>220.0</ele><time>2022-03-17T15:29:15.176Z</time></trkpt><trkpt lat="43.39702833" lon="13.250215"><ele>220.0</ele><time>2022-03-17T15:29:16.203Z</time></trkpt><trkpt lat="43.39703167" lon="13.25029"><ele>220.0</ele><time>2022-03-17T15:29:17.176Z</time></trkpt><trkpt lat="43.39703167" lon="13.25029"><ele>220.0</ele><time>2022-03-17T15:29:18.200Z</time></trkpt><trkpt lat="43.39703833" lon="13.25044667"><ele>219.0</ele><time>2022-03-17T15:29:19.213Z</time></trkpt><trkpt lat="43.39703833" lon="13.25044667"><ele>219.0</ele><time>2022-03-17T15:29:20.204Z</time></trkpt><trkpt lat="43.39704167" lon="13.25060667"><ele>218.0</ele><time>2022-03-17T15:29:21.208Z</time></trkpt><trkpt lat="43.39704167" lon="13.25060667"><ele>218.0</ele><time>2022-03-17T15:29:22.195Z</time></trkpt><trkpt lat="43.397045" lon="13.250775"><ele>217.0</ele><time>2022-03-17T15:29:23.204Z</time></trkpt><trkpt lat="43.397045" lon="13.250775"><ele>217.0</ele><time>2022-03-17T15:29:24.191Z</time></trkpt><trkpt lat="43.397045" lon="13.25095667"><ele>217.0</ele><time>2022-03-17T15:29:25.205Z</time></trkpt><trkpt lat="43.39704667" lon="13.25105167"><ele>217.0</ele><time>2022-03-17T15:29:26.197Z</time></trkpt><trkpt lat="43.397045" lon="13.251145"><ele>216.0</ele><time>2022-03-17T15:29:27.197Z</time></trkpt><trkpt lat="43.397045" lon="13.251145"><ele>216.0</ele><time>2022-03-17T15:29:28.201Z</time></trkpt><trkpt lat="43.39703333" lon="13.25131667"><ele>217.0</ele><time>2022-03-17T15:29:29.210Z</time></trkpt><trkpt lat="43.397025" lon="13.2514"><ele>216.0</ele><time>2022-03-17T15:29:30.202Z</time></trkpt><trkpt lat="43.397025" lon="13.2514"><ele>216.0</ele><time>2022-03-17T15:29:31.191Z</time></trkpt><trkpt lat="43.397005" lon="13.25155167"><ele>216.0</ele><time>2022-03-17T15:29:32.198Z</time></trkpt><trkpt lat="43.39699333" lon="13.251625"><ele>217.0</ele><time>2022-03-17T15:29:33.192Z</time></trkpt><trkpt lat="43.39699333" lon="13.251625"><ele>217.0</ele><time>2022-03-17T15:29:34.176Z</time></trkpt><trkpt lat="43.39696833" lon="13.25176833"><ele>217.0</ele><time>2022-03-17T15:29:35.186Z</time></trkpt><trkpt lat="43.39696833" lon="13.25176833"><ele>217.0</ele><time>2022-03-17T15:29:36.201Z</time></trkpt><trkpt lat="43.39695167" lon="13.25191333"><ele>216.0</ele><time>2022-03-17T15:29:37.197Z</time></trkpt><trkpt lat="43.39695167" lon="13.25191333"><ele>216.0</ele><time>2022-03-17T15:29:38.192Z</time></trkpt><trkpt lat="43.39693167" lon="13.252055"><ele>216.0</ele><time>2022-03-17T15:29:39.206Z</time></trkpt><trkpt lat="43.39693167" lon="13.252055"><ele>216.0</ele><time>2022-03-17T15:29:40.183Z</time></trkpt><trkpt lat="43.39691" lon="13.25219167"><ele>216.0</ele><time>2022-03-17T15:29:41.190Z</time></trkpt><trkpt lat="43.39691" lon="13.25219167"><ele>216.0</ele><time>2022-03-17T15:29:42.196Z</time></trkpt><trkpt lat="43.39689667" lon="13.25232667"><ele>217.0</ele><time>2022-03-17T15:29:43.204Z</time></trkpt><trkpt lat="43.39689667" lon="13.25232667"><ele>217.0</ele><time>2022-03-17T15:29:44.191Z</time></trkpt><trkpt lat="43.39687167" lon="13.25247667"><ele>216.0</ele><time>2022-03-17T15:29:45.203Z</time></trkpt><trkpt lat="43.39687167" lon="13.25247667"><ele>216.0</ele><time>2022-03-17T15:29:46.200Z</time></trkpt><trkpt lat="43.39684" lon="13.252625"><ele>216.0</ele><time>2022-03-17T15:29:47.217Z</time></trkpt><trkpt lat="43.39684" lon="13.252625"><ele>216.0</ele><time>2022-03-17T15:29:48.193Z</time></trkpt><trkpt lat="43.39681167" lon="13.25277833"><ele>215.0</ele><time>2022-03-17T15:29:49.172Z</time></trkpt><trkpt lat="43.39681167" lon="13.25277833"><ele>215.0</ele><time>2022-03-17T15:29:50.182Z</time></trkpt><trkpt lat="43.39677833" lon="13.252935"><ele>215.0</ele><time>2022-03-17T15:29:51.198Z</time></trkpt><trkpt lat="43.39677833" lon="13.252935"><ele>215.0</ele><time>2022-03-17T15:29:52.209Z</time></trkpt><trkpt lat="43.39674333" lon="13.25309"><ele>215.0</ele><time>2022-03-17T15:29:53.185Z</time></trkpt><trkpt lat="43.39674333" lon="13.25309"><ele>215.0</ele><time>2022-03-17T15:29:54.192Z</time></trkpt><trkpt lat="43.39671" lon="13.253245"><ele>214.0</ele><time>2022-03-17T15:29:55.208Z</time></trkpt><trkpt lat="43.396695" lon="13.25332167"><ele>214.0</ele><time>2022-03-17T15:29:56.203Z</time></trkpt><trkpt lat="43.39667833" lon="13.25339667"><ele>214.0</ele><time>2022-03-17T15:29:57.176Z</time></trkpt><trkpt lat="43.39667833" lon="13.25339667"><ele>214.0</ele><time>2022-03-17T15:29:58.203Z</time></trkpt><trkpt lat="43.39664667" lon="13.25355"><ele>214.0</ele><time>2022-03-17T15:29:59.175Z</time></trkpt><trkpt lat="43.39663167" lon="13.25362833"><ele>214.0</ele><time>2022-03-17T15:30:00.175Z</time></trkpt><trkpt lat="43.39661667" lon="13.253705"><ele>214.0</ele><time>2022-03-17T15:30:01.204Z</time></trkpt><trkpt lat="43.39661667" lon="13.253705"><ele>214.0</ele><time>2022-03-17T15:30:02.175Z</time></trkpt><trkpt lat="43.39658667" lon="13.25385833"><ele>214.0</ele><time>2022-03-17T15:30:03.182Z</time></trkpt><trkpt lat="43.39658667" lon="13.25385833"><ele>214.0</ele><time>2022-03-17T15:30:04.195Z</time></trkpt><trkpt lat="43.396555" lon="13.25401667"><ele>214.0</ele><time>2022-03-17T15:30:05.209Z</time></trkpt><trkpt lat="43.39654" lon="13.25409833"><ele>213.0</ele><time>2022-03-17T15:30:06.199Z</time></trkpt><trkpt lat="43.39654" lon="13.25409833"><ele>213.0</ele><time>2022-03-17T15:30:07.190Z</time></trkpt><trkpt lat="43.39650833" lon="13.25425667"><ele>213.0</ele><time>2022-03-17T15:30:08.198Z</time></trkpt><trkpt lat="43.39649333" lon="13.25433667"><ele>213.0</ele><time>2022-03-17T15:30:09.178Z</time></trkpt><trkpt lat="43.39649333" lon="13.25433667"><ele>213.0</ele><time>2022-03-17T15:30:10.201Z</time></trkpt><trkpt lat="43.39647" lon="13.25449"><ele>213.0</ele><time>2022-03-17T15:30:11.209Z</time></trkpt><trkpt lat="43.396455" lon="13.25456333"><ele>213.0</ele><time>2022-03-17T15:30:12.206Z</time></trkpt><trkpt lat="43.396455" lon="13.25456333"><ele>213.0</ele><time>2022-03-17T15:30:13.181Z</time></trkpt><trkpt lat="43.39643167" lon="13.25471833"><ele>212.0</ele><time>2022-03-17T15:30:14.190Z</time></trkpt><trkpt lat="43.39642" lon="13.25479667"><ele>212.0</ele><time>2022-03-17T15:30:15.205Z</time></trkpt><trkpt lat="43.39642" lon="13.25479667"><ele>212.0</ele><time>2022-03-17T15:30:16.182Z</time></trkpt><trkpt lat="43.39639" lon="13.254955"><ele>212.0</ele><time>2022-03-17T15:30:17.194Z</time></trkpt><trkpt lat="43.39639" lon="13.254955"><ele>212.0</ele><time>2022-03-17T15:30:18.179Z</time></trkpt><trkpt lat="43.39636" lon="13.25511667"><ele>212.0</ele><time>2022-03-17T15:30:19.188Z</time></trkpt><trkpt lat="43.39636" lon="13.25511667"><ele>212.0</ele><time>2022-03-17T15:30:20.207Z</time></trkpt><trkpt lat="43.39633167" lon="13.255275"><ele>211.0</ele><time>2022-03-17T15:30:21.176Z</time></trkpt><trkpt lat="43.39633167" lon="13.255275"><ele>211.0</ele><time>2022-03-17T15:30:22.196Z</time></trkpt><trkpt lat="43.39630333" lon="13.255435"><ele>211.0</ele><time>2022-03-17T15:30:23.208Z</time></trkpt><trkpt lat="43.39630333" lon="13.255435"><ele>211.0</ele><time>2022-03-17T15:30:24.177Z</time></trkpt><trkpt lat="43.39627667" lon="13.25559667"><ele>210.0</ele><time>2022-03-17T15:30:25.195Z</time></trkpt><trkpt lat="43.39627667" lon="13.25559667"><ele>210.0</ele><time>2022-03-17T15:30:26.211Z</time></trkpt><trkpt lat="43.39624167" lon="13.255755"><ele>210.0</ele><time>2022-03-17T15:30:27.212Z</time></trkpt><trkpt lat="43.39624167" lon="13.255755"><ele>210.0</ele><time>2022-03-17T15:30:28.176Z</time></trkpt><trkpt lat="43.396205" lon="13.255905"><ele>210.0</ele><time>2022-03-17T15:30:29.186Z</time></trkpt><trkpt lat="43.39618833" lon="13.25598"><ele>210.0</ele><time>2022-03-17T15:30:30.210Z</time></trkpt><trkpt lat="43.39617" lon="13.256055"><ele>209.0</ele><time>2022-03-17T15:30:31.189Z</time></trkpt><trkpt lat="43.39617" lon="13.256055"><ele>209.0</ele><time>2022-03-17T15:30:32.186Z</time></trkpt><trkpt lat="43.39614167" lon="13.25620833"><ele>209.0</ele><time>2022-03-17T15:30:33.199Z</time></trkpt><trkpt lat="43.39614167" lon="13.25620833"><ele>209.0</ele><time>2022-03-17T15:30:34.180Z</time></trkpt><trkpt lat="43.396105" lon="13.25635833"><ele>208.0</ele><time>2022-03-17T15:30:35.189Z</time></trkpt><trkpt lat="43.396105" lon="13.25635833"><ele>208.0</ele><time>2022-03-17T15:30:36.202Z</time></trkpt><trkpt lat="43.39607" lon="13.25652167"><ele>207.0</ele><time>2022-03-17T15:30:37.203Z</time></trkpt><trkpt lat="43.39607" lon="13.25652167"><ele>207.0</ele><time>2022-03-17T15:30:38.204Z</time></trkpt><trkpt lat="43.39603" lon="13.25670167"><ele>206.0</ele><time>2022-03-17T15:30:39.175Z</time></trkpt><trkpt lat="43.39603" lon="13.25670167"><ele>206.0</ele><time>2022-03-17T15:30:40.203Z</time></trkpt><trkpt lat="43.39598833" lon="13.2569"><ele>205.0</ele><time>2022-03-17T15:30:41.175Z</time></trkpt><trkpt lat="43.39598833" lon="13.2569"><ele>205.0</ele><time>2022-03-17T15:30:42.191Z</time></trkpt><trkpt lat="43.39593333" lon="13.257105"><ele>204.0</ele><time>2022-03-17T15:30:43.208Z</time></trkpt><trkpt lat="43.39593333" lon="13.257105"><ele>204.0</ele><time>2022-03-17T15:30:44.199Z</time></trkpt><trkpt lat="43.395885" lon="13.25732"><ele>203.0</ele><time>2022-03-17T15:30:45.186Z</time></trkpt><trkpt lat="43.395885" lon="13.25732"><ele>203.0</ele><time>2022-03-17T15:30:46.197Z</time></trkpt><trkpt lat="43.39584333" lon="13.25754333"><ele>202.0</ele><time>2022-03-17T15:30:47.205Z</time></trkpt><trkpt lat="43.39582333" lon="13.257655"><ele>202.0</ele><time>2022-03-17T15:30:48.204Z</time></trkpt><trkpt lat="43.39582333" lon="13.257655"><ele>202.0</ele><time>2022-03-17T15:30:49.177Z</time></trkpt><trkpt lat="43.39579667" lon="13.25785833"><ele>201.0</ele><time>2022-03-17T15:30:50.173Z</time></trkpt><trkpt lat="43.39578167" lon="13.25795333"><ele>200.0</ele><time>2022-03-17T15:30:51.194Z</time></trkpt><trkpt lat="43.39578167" lon="13.25795333"><ele>200.0</ele><time>2022-03-17T15:30:52.185Z</time></trkpt><trkpt lat="43.39575167" lon="13.25814333"><ele>199.0</ele><time>2022-03-17T15:30:53.203Z</time></trkpt><trkpt lat="43.39575167" lon="13.25814333"><ele>199.0</ele><time>2022-03-17T15:30:54.190Z</time></trkpt><trkpt lat="43.39573" lon="13.258335"><ele>199.0</ele><time>2022-03-17T15:30:55.197Z</time></trkpt><trkpt lat="43.39573" lon="13.258335"><ele>199.0</ele><time>2022-03-17T15:30:56.178Z</time></trkpt><trkpt lat="43.39570833" lon="13.25852667"><ele>198.0</ele><time>2022-03-17T15:30:57.191Z</time></trkpt><trkpt lat="43.39570833" lon="13.25852667"><ele>198.0</ele><time>2022-03-17T15:30:58.203Z</time></trkpt><trkpt lat="43.39569333" lon="13.25871833"><ele>197.0</ele><time>2022-03-17T15:30:59.173Z</time></trkpt><trkpt lat="43.39568833" lon="13.25881333"><ele>197.0</ele><time>2022-03-17T15:31:00.202Z</time></trkpt><trkpt lat="43.39568833" lon="13.25881333"><ele>197.0</ele><time>2022-03-17T15:31:01.179Z</time></trkpt><trkpt lat="43.39567333" lon="13.258995"><ele>197.0</ele><time>2022-03-17T15:31:02.187Z</time></trkpt><trkpt lat="43.39566333" lon="13.25908"><ele>197.0</ele><time>2022-03-17T15:31:03.205Z</time></trkpt><trkpt lat="43.39566333" lon="13.25908"><ele>197.0</ele><time>2022-03-17T15:31:04.192Z</time></trkpt><trkpt lat="43.39563667" lon="13.25924833"><ele>196.0</ele><time>2022-03-17T15:31:05.200Z</time></trkpt><trkpt lat="43.39563667" lon="13.25924833"><ele>196.0</ele><time>2022-03-17T15:31:06.178Z</time></trkpt><trkpt lat="43.39560667" lon="13.25941"><ele>196.0</ele><time>2022-03-17T15:31:07.194Z</time></trkpt><trkpt lat="43.39559333" lon="13.25949"><ele>196.0</ele><time>2022-03-17T15:31:08.189Z</time></trkpt><trkpt lat="43.39559333" lon="13.25949"><ele>196.0</ele><time>2022-03-17T15:31:09.202Z</time></trkpt><trkpt lat="43.395575" lon="13.25964667"><ele>197.0</ele><time>2022-03-17T15:31:10.178Z</time></trkpt><trkpt lat="43.395565" lon="13.25972667"><ele>197.0</ele><time>2022-03-17T15:31:11.177Z</time></trkpt><trkpt lat="43.395565" lon="13.25972667"><ele>197.0</ele><time>2022-03-17T15:31:12.188Z</time></trkpt><trkpt lat="43.395545" lon="13.25988"><ele>197.0</ele><time>2022-03-17T15:31:13.198Z</time></trkpt><trkpt lat="43.395545" lon="13.25988"><ele>197.0</ele><time>2022-03-17T15:31:14.198Z</time></trkpt><trkpt lat="43.39552833" lon="13.26002333"><ele>198.0</ele><time>2022-03-17T15:31:15.205Z</time></trkpt><trkpt lat="43.39552833" lon="13.26002333"><ele>198.0</ele><time>2022-03-17T15:31:16.185Z</time></trkpt><trkpt lat="43.395505" lon="13.26016167"><ele>199.0</ele><time>2022-03-17T15:31:17.183Z</time></trkpt><trkpt lat="43.395505" lon="13.26016167"><ele>199.0</ele><time>2022-03-17T15:31:18.202Z</time></trkpt><trkpt lat="43.395475" lon="13.26030167"><ele>199.0</ele><time>2022-03-17T15:31:19.210Z</time></trkpt><trkpt lat="43.39546167" lon="13.26037333"><ele>199.0</ele><time>2022-03-17T15:31:20.208Z</time></trkpt><trkpt lat="43.39545167" lon="13.26044833"><ele>199.0</ele><time>2022-03-17T15:31:21.182Z</time></trkpt><trkpt lat="43.39545167" lon="13.26044833"><ele>199.0</ele><time>2022-03-17T15:31:22.205Z</time></trkpt><trkpt lat="43.39542167" lon="13.26060333"><ele>199.0</ele><time>2022-03-17T15:31:23.180Z</time></trkpt><trkpt lat="43.39540333" lon="13.26068333"><ele>199.0</ele><time>2022-03-17T15:31:24.211Z</time></trkpt><trkpt lat="43.39540333" lon="13.26068333"><ele>199.0</ele><time>2022-03-17T15:31:25.191Z</time></trkpt><trkpt lat="43.39536333" lon="13.26085333"><ele>198.0</ele><time>2022-03-17T15:31:26.207Z</time></trkpt><trkpt lat="43.395345" lon="13.26094"><ele>198.0</ele><time>2022-03-17T15:31:27.181Z</time></trkpt><trkpt lat="43.395345" lon="13.26094"><ele>198.0</ele><time>2022-03-17T15:31:28.181Z</time></trkpt><trkpt lat="43.39530333" lon="13.26112"><ele>197.0</ele><time>2022-03-17T15:31:29.191Z</time></trkpt><trkpt lat="43.39530333" lon="13.26112"><ele>197.0</ele><time>2022-03-17T15:31:30.208Z</time></trkpt><trkpt lat="43.39526" lon="13.26130167"><ele>196.0</ele><time>2022-03-17T15:31:31.174Z</time></trkpt><trkpt lat="43.39524" lon="13.26139667"><ele>196.0</ele><time>2022-03-17T15:31:32.191Z</time></trkpt><trkpt lat="43.39522333" lon="13.26149333"><ele>195.0</ele><time>2022-03-17T15:31:33.210Z</time></trkpt><trkpt lat="43.39522333" lon="13.26149333"><ele>195.0</ele><time>2022-03-17T15:31:34.187Z</time></trkpt><trkpt lat="43.39518833" lon="13.26169"><ele>195.0</ele><time>2022-03-17T15:31:35.195Z</time></trkpt><trkpt lat="43.39517167" lon="13.261785"><ele>195.0</ele><time>2022-03-17T15:31:36.177Z</time></trkpt><trkpt lat="43.39517167" lon="13.261785"><ele>195.0</ele><time>2022-03-17T15:31:37.195Z</time></trkpt><trkpt lat="43.39514833" lon="13.26197167"><ele>195.0</ele><time>2022-03-17T15:31:38.211Z</time></trkpt><trkpt lat="43.39513333" lon="13.26206"><ele>195.0</ele><time>2022-03-17T15:31:39.196Z</time></trkpt><trkpt lat="43.39513333" lon="13.26206"><ele>195.0</ele><time>2022-03-17T15:31:40.180Z</time></trkpt><trkpt lat="43.39510667" lon="13.26223167"><ele>195.0</ele><time>2022-03-17T15:31:41.189Z</time></trkpt><trkpt lat="43.39510667" lon="13.26223167"><ele>195.0</ele><time>2022-03-17T15:31:42.179Z</time></trkpt><trkpt lat="43.395075" lon="13.262395"><ele>195.0</ele><time>2022-03-17T15:31:43.190Z</time></trkpt><trkpt lat="43.395075" lon="13.262395"><ele>195.0</ele><time>2022-03-17T15:31:44.208Z</time></trkpt><trkpt lat="43.39504" lon="13.26256333"><ele>194.0</ele><time>2022-03-17T15:31:45.210Z</time></trkpt><trkpt lat="43.39504" lon="13.26256333"><ele>194.0</ele><time>2022-03-17T15:31:46.205Z</time></trkpt><trkpt lat="43.39500333" lon="13.26274"><ele>193.0</ele><time>2022-03-17T15:31:47.212Z</time></trkpt><trkpt lat="43.39500333" lon="13.26274"><ele>193.0</ele><time>2022-03-17T15:31:48.176Z</time></trkpt><trkpt lat="43.39497" lon="13.262925"><ele>193.0</ele><time>2022-03-17T15:31:49.189Z</time></trkpt><trkpt lat="43.39497" lon="13.262925"><ele>193.0</ele><time>2022-03-17T15:31:50.204Z</time></trkpt><trkpt lat="43.39493" lon="13.26312167"><ele>192.0</ele><time>2022-03-17T15:31:51.173Z</time></trkpt><trkpt lat="43.39493" lon="13.26312167"><ele>192.0</ele><time>2022-03-17T15:31:52.199Z</time></trkpt><trkpt lat="43.39488" lon="13.26332"><ele>192.0</ele><time>2022-03-17T15:31:53.180Z</time></trkpt><trkpt lat="43.39488" lon="13.26332"><ele>192.0</ele><time>2022-03-17T15:31:54.190Z</time></trkpt><trkpt lat="43.394845" lon="13.26351333"><ele>191.0</ele><time>2022-03-17T15:31:55.210Z</time></trkpt><trkpt lat="43.394845" lon="13.26351333"><ele>191.0</ele><time>2022-03-17T15:31:56.195Z</time></trkpt><trkpt lat="43.394825" lon="13.26369"><ele>191.0</ele><time>2022-03-17T15:31:57.206Z</time></trkpt><trkpt lat="43.394825" lon="13.26369"><ele>191.0</ele><time>2022-03-17T15:31:58.199Z</time></trkpt><trkpt lat="43.39480167" lon="13.26386"><ele>191.0</ele><time>2022-03-17T15:31:59.213Z</time></trkpt><trkpt lat="43.39480167" lon="13.26386"><ele>191.0</ele><time>2022-03-17T15:32:00.191Z</time></trkpt><trkpt lat="43.39476333" lon="13.26402667"><ele>191.0</ele><time>2022-03-17T15:32:01.177Z</time></trkpt><trkpt lat="43.39476333" lon="13.26402667"><ele>191.0</ele><time>2022-03-17T15:32:02.176Z</time></trkpt><trkpt lat="43.39473167" lon="13.26418333"><ele>192.0</ele><time>2022-03-17T15:32:03.194Z</time></trkpt><trkpt lat="43.39473167" lon="13.26418333"><ele>192.0</ele><time>2022-03-17T15:32:04.207Z</time></trkpt><trkpt lat="43.39470833" lon="13.26433"><ele>192.0</ele><time>2022-03-17T15:32:05.176Z</time></trkpt><trkpt lat="43.394695" lon="13.26440167"><ele>192.0</ele><time>2022-03-17T15:32:06.204Z</time></trkpt><trkpt lat="43.394695" lon="13.26440167"><ele>192.0</ele><time>2022-03-17T15:32:07.203Z</time></trkpt><trkpt lat="43.39466333" lon="13.26454"><ele>192.0</ele><time>2022-03-17T15:32:08.173Z</time></trkpt><trkpt lat="43.39464667" lon="13.26461167"><ele>191.0</ele><time>2022-03-17T15:32:09.198Z</time></trkpt><trkpt lat="43.39464667" lon="13.26461167"><ele>191.0</ele><time>2022-03-17T15:32:10.182Z</time></trkpt><trkpt lat="43.39461167" lon="13.26475667"><ele>191.0</ele><time>2022-03-17T15:32:11.195Z</time></trkpt><trkpt lat="43.39461167" lon="13.26475667"><ele>191.0</ele><time>2022-03-17T15:32:12.177Z</time></trkpt><trkpt lat="43.39457833" lon="13.26490667"><ele>192.0</ele><time>2022-03-17T15:32:13.184Z</time></trkpt><trkpt lat="43.39457833" lon="13.26490667"><ele>192.0</ele><time>2022-03-17T15:32:14.204Z</time></trkpt><trkpt lat="43.39455333" lon="13.26505667"><ele>191.0</ele><time>2022-03-17T15:32:15.176Z</time></trkpt><trkpt lat="43.39455333" lon="13.26505667"><ele>191.0</ele><time>2022-03-17T15:32:16.197Z</time></trkpt><trkpt lat="43.39452833" lon="13.26521333"><ele>191.0</ele><time>2022-03-17T15:32:17.207Z</time></trkpt><trkpt lat="43.39451333" lon="13.26529333"><ele>191.0</ele><time>2022-03-17T15:32:18.210Z</time></trkpt><trkpt lat="43.39451333" lon="13.26529333"><ele>191.0</ele><time>2022-03-17T15:32:19.174Z</time></trkpt><trkpt lat="43.39448167" lon="13.26545333"><ele>191.0</ele><time>2022-03-17T15:32:20.183Z</time></trkpt><trkpt lat="43.394475" lon="13.26553667"><ele>191.0</ele><time>2022-03-17T15:32:21.210Z</time></trkpt><trkpt lat="43.394475" lon="13.26553667"><ele>191.0</ele><time>2022-03-17T15:32:22.173Z</time></trkpt><trkpt lat="43.394435" lon="13.26569833"><ele>191.0</ele><time>2022-03-17T15:32:23.183Z</time></trkpt><trkpt lat="43.394435" lon="13.26569833"><ele>191.0</ele><time>2022-03-17T15:32:24.173Z</time></trkpt><trkpt lat="43.3944" lon="13.26586833"><ele>189.0</ele><time>2022-03-17T15:32:25.209Z</time></trkpt><trkpt lat="43.3944" lon="13.26586833"><ele>189.0</ele><time>2022-03-17T15:32:26.202Z</time></trkpt><trkpt lat="43.39436667" lon="13.26604833"><ele>189.0</ele><time>2022-03-17T15:32:27.176Z</time></trkpt><trkpt lat="43.39436667" lon="13.26604833"><ele>189.0</ele><time>2022-03-17T15:32:28.199Z</time></trkpt><trkpt lat="43.39434333" lon="13.266245"><ele>188.0</ele><time>2022-03-17T15:32:29.209Z</time></trkpt><trkpt lat="43.39433333" lon="13.26634833"><ele>187.0</ele><time>2022-03-17T15:32:30.194Z</time></trkpt><trkpt lat="43.39433333" lon="13.26634833"><ele>187.0</ele><time>2022-03-17T15:32:31.182Z</time></trkpt><trkpt lat="43.39431667" lon="13.266575"><ele>185.0</ele><time>2022-03-17T15:32:32.198Z</time></trkpt><trkpt lat="43.39431667" lon="13.266575"><ele>185.0</ele><time>2022-03-17T15:32:33.177Z</time></trkpt><trkpt lat="43.394295" lon="13.266825"><ele>183.0</ele><time>2022-03-17T15:32:34.185Z</time></trkpt><trkpt lat="43.394285" lon="13.26695833"><ele>182.0</ele><time>2022-03-17T15:32:35.172Z</time></trkpt><trkpt lat="43.394275" lon="13.26709667"><ele>182.0</ele><time>2022-03-17T15:32:36.202Z</time></trkpt><trkpt lat="43.394275" lon="13.26709667"><ele>182.0</ele><time>2022-03-17T15:32:37.200Z</time></trkpt><trkpt lat="43.39426333" lon="13.26739"><ele>180.0</ele><time>2022-03-17T15:32:38.177Z</time></trkpt><trkpt lat="43.39425667" lon="13.26754333"><ele>179.0</ele><time>2022-03-17T15:32:39.176Z</time></trkpt><trkpt lat="43.39425667" lon="13.26754333"><ele>179.0</ele><time>2022-03-17T15:32:40.211Z</time></trkpt><trkpt lat="43.39423333" lon="13.26786333"><ele>176.0</ele><time>2022-03-17T15:32:41.186Z</time></trkpt><trkpt lat="43.39423333" lon="13.26786333"><ele>176.0</ele><time>2022-03-17T15:32:42.172Z</time></trkpt><trkpt lat="43.39419333" lon="13.26819667"><ele>174.0</ele><time>2022-03-17T15:32:43.201Z</time></trkpt><trkpt lat="43.394175" lon="13.26836667"><ele>173.0</ele><time>2022-03-17T15:32:44.209Z</time></trkpt><trkpt lat="43.394175" lon="13.26836667"><ele>173.0</ele><time>2022-03-17T15:32:45.192Z</time></trkpt><trkpt lat="43.39414167" lon="13.26871667"><ele>170.0</ele><time>2022-03-17T15:32:46.201Z</time></trkpt><trkpt lat="43.39412333" lon="13.26889667"><ele>169.0</ele><time>2022-03-17T15:32:47.199Z</time></trkpt><trkpt lat="43.39412333" lon="13.26889667"><ele>169.0</ele><time>2022-03-17T15:32:48.189Z</time></trkpt><trkpt lat="43.39408667" lon="13.26925833"><ele>166.0</ele><time>2022-03-17T15:32:49.196Z</time></trkpt><trkpt lat="43.39407333" lon="13.26944333"><ele>165.0</ele><time>2022-03-17T15:32:50.177Z</time></trkpt><trkpt lat="43.39407333" lon="13.26944333"><ele>165.0</ele><time>2022-03-17T15:32:51.198Z</time></trkpt><trkpt lat="43.39405333" lon="13.26983"><ele>161.0</ele><time>2022-03-17T15:32:52.204Z</time></trkpt><trkpt lat="43.394045" lon="13.27003"><ele>159.0</ele><time>2022-03-17T15:32:53.204Z</time></trkpt><trkpt lat="43.394045" lon="13.27003"><ele>159.0</ele><time>2022-03-17T15:32:54.180Z</time></trkpt><trkpt lat="43.39403333" lon="13.27044"><ele>156.0</ele><time>2022-03-17T15:32:55.195Z</time></trkpt><trkpt lat="43.394025" lon="13.27064667"><ele>154.0</ele><time>2022-03-17T15:32:56.198Z</time></trkpt><trkpt lat="43.394025" lon="13.27064667"><ele>154.0</ele><time>2022-03-17T15:32:57.176Z</time></trkpt><trkpt lat="43.394" lon="13.27106833"><ele>152.0</ele><time>2022-03-17T15:32:58.181Z</time></trkpt><trkpt lat="43.394" lon="13.27106833"><ele>152.0</ele><time>2022-03-17T15:32:59.197Z</time></trkpt><trkpt lat="43.39397167" lon="13.27147667"><ele>150.0</ele><time>2022-03-17T15:33:00.220Z</time></trkpt><trkpt lat="43.39397167" lon="13.27147667"><ele>150.0</ele><time>2022-03-17T15:33:01.194Z</time></trkpt><trkpt lat="43.39397" lon="13.27185167"><ele>148.0</ele><time>2022-03-17T15:33:02.197Z</time></trkpt><trkpt lat="43.39399" lon="13.27202667"><ele>148.0</ele><time>2022-03-17T15:33:03.216Z</time></trkpt><trkpt lat="43.39399" lon="13.27202667"><ele>148.0</ele><time>2022-03-17T15:33:04.205Z</time></trkpt><trkpt lat="43.394095" lon="13.272345"><ele>146.0</ele><time>2022-03-17T15:33:05.174Z</time></trkpt><trkpt lat="43.39417" lon="13.27249667"><ele>145.0</ele><time>2022-03-17T15:33:06.211Z</time></trkpt><trkpt lat="43.39417" lon="13.27249667"><ele>145.0</ele><time>2022-03-17T15:33:07.196Z</time></trkpt><trkpt lat="43.39432167" lon="13.272825"><ele>142.0</ele><time>2022-03-17T15:33:08.209Z</time></trkpt><trkpt lat="43.39432167" lon="13.272825"><ele>142.0</ele><time>2022-03-17T15:33:09.194Z</time></trkpt><trkpt lat="43.39444667" lon="13.27318"><ele>139.0</ele><time>2022-03-17T15:33:10.207Z</time></trkpt><trkpt lat="43.3945" lon="13.27336667"><ele>137.0</ele><time>2022-03-17T15:33:11.196Z</time></trkpt><trkpt lat="43.3945" lon="13.27336667"><ele>137.0</ele><time>2022-03-17T15:33:12.209Z</time></trkpt><trkpt lat="43.39457" lon="13.27377167"><ele>132.0</ele><time>2022-03-17T15:33:13.175Z</time></trkpt><trkpt lat="43.394585" lon="13.273985"><ele>131.0</ele><time>2022-03-17T15:33:14.199Z</time></trkpt><trkpt lat="43.39459667" lon="13.27419833"><ele>130.0</ele><time>2022-03-17T15:33:15.184Z</time></trkpt><trkpt lat="43.39459667" lon="13.27419833"><ele>130.0</ele><time>2022-03-17T15:33:16.174Z</time></trkpt><trkpt lat="43.39461667" lon="13.27463"><ele>127.0</ele><time>2022-03-17T15:33:17.182Z</time></trkpt><trkpt lat="43.39461667" lon="13.27463"><ele>127.0</ele><time>2022-03-17T15:33:18.203Z</time></trkpt><trkpt lat="43.394615" lon="13.27504"><ele>126.0</ele><time>2022-03-17T15:33:19.173Z</time></trkpt><trkpt lat="43.394615" lon="13.27504"><ele>126.0</ele><time>2022-03-17T15:33:20.200Z</time></trkpt><trkpt lat="43.39458167" lon="13.27541"><ele>126.0</ele><time>2022-03-17T15:33:21.172Z</time></trkpt><trkpt lat="43.39458167" lon="13.27541"><ele>126.0</ele><time>2022-03-17T15:33:22.192Z</time></trkpt><trkpt lat="43.39452167" lon="13.27569833"><ele>128.0</ele><time>2022-03-17T15:33:23.205Z</time></trkpt><trkpt lat="43.39452167" lon="13.27569833"><ele>128.0</ele><time>2022-03-17T15:33:24.203Z</time></trkpt><trkpt lat="43.39448667" lon="13.27591667"><ele>130.0</ele><time>2022-03-17T15:33:25.214Z</time></trkpt><trkpt lat="43.39448667" lon="13.27591667"><ele>130.0</ele><time>2022-03-17T15:33:26.192Z</time></trkpt><trkpt lat="43.394465" lon="13.27610333"><ele>131.0</ele><time>2022-03-17T15:33:27.218Z</time></trkpt><trkpt lat="43.39445333" lon="13.27618167"><ele>131.0</ele><time>2022-03-17T15:33:28.199Z</time></trkpt><trkpt lat="43.39445333" lon="13.27618167"><ele>131.0</ele><time>2022-03-17T15:33:29.177Z</time></trkpt><trkpt lat="43.39444333" lon="13.27631667"><ele>132.0</ele><time>2022-03-17T15:33:30.184Z</time></trkpt><trkpt lat="43.394435" lon="13.276375"><ele>133.0</ele><time>2022-03-17T15:33:31.173Z</time></trkpt><trkpt lat="43.394435" lon="13.276375"><ele>133.0</ele><time>2022-03-17T15:33:32.195Z</time></trkpt><trkpt lat="43.39442" lon="13.27647833"><ele>134.0</ele><time>2022-03-17T15:33:33.202Z</time></trkpt><trkpt lat="43.39442" lon="13.27647833"><ele>134.0</ele><time>2022-03-17T15:33:34.179Z</time></trkpt><trkpt lat="43.39440833" lon="13.27657667"><ele>135.0</ele><time>2022-03-17T15:33:35.199Z</time></trkpt><trkpt lat="43.39440833" lon="13.27657667"><ele>135.0</ele><time>2022-03-17T15:33:36.201Z</time></trkpt><trkpt lat="43.39440167" lon="13.276675"><ele>136.0</ele><time>2022-03-17T15:33:37.180Z</time></trkpt><trkpt lat="43.39440167" lon="13.276675"><ele>136.0</ele><time>2022-03-17T15:33:38.204Z</time></trkpt><trkpt lat="43.39440333" lon="13.27677667"><ele>135.0</ele><time>2022-03-17T15:33:39.207Z</time></trkpt><trkpt lat="43.39440333" lon="13.27677667"><ele>135.0</ele><time>2022-03-17T15:33:40.180Z</time></trkpt><trkpt lat="43.39439333" lon="13.27688667"><ele>135.0</ele><time>2022-03-17T15:33:41.192Z</time></trkpt><trkpt lat="43.39438667" lon="13.27694333"><ele>135.0</ele><time>2022-03-17T15:33:42.180Z</time></trkpt><trkpt lat="43.39438667" lon="13.27694333"><ele>135.0</ele><time>2022-03-17T15:33:43.208Z</time></trkpt><trkpt lat="43.39437333" lon="13.27705167"><ele>135.0</ele><time>2022-03-17T15:33:44.182Z</time></trkpt><trkpt lat="43.39437" lon="13.27710667"><ele>135.0</ele><time>2022-03-17T15:33:45.187Z</time></trkpt><trkpt lat="43.39437" lon="13.27710667"><ele>135.0</ele><time>2022-03-17T15:33:46.205Z</time></trkpt><trkpt lat="43.39435667" lon="13.27721333"><ele>135.0</ele><time>2022-03-17T15:33:47.173Z</time></trkpt><trkpt lat="43.39435667" lon="13.27721333"><ele>135.0</ele><time>2022-03-17T15:33:48.191Z</time></trkpt><trkpt lat="43.394345" lon="13.27731667"><ele>135.0</ele><time>2022-03-17T15:33:49.203Z</time></trkpt><trkpt lat="43.39433833" lon="13.27736833"><ele>135.0</ele><time>2022-03-17T15:33:50.183Z</time></trkpt><trkpt lat="43.39433333" lon="13.27741833"><ele>136.0</ele><time>2022-03-17T15:33:51.200Z</time></trkpt><trkpt lat="43.39433333" lon="13.27741833"><ele>136.0</ele><time>2022-03-17T15:33:52.192Z</time></trkpt><trkpt lat="43.39431833" lon="13.27751667"><ele>136.0</ele><time>2022-03-17T15:33:53.202Z</time></trkpt><trkpt lat="43.39431167" lon="13.27756667"><ele>136.0</ele><time>2022-03-17T15:33:54.197Z</time></trkpt><trkpt lat="43.39431167" lon="13.27756667"><ele>136.0</ele><time>2022-03-17T15:33:55.172Z</time></trkpt><trkpt lat="43.39429167" lon="13.27766"><ele>137.0</ele><time>2022-03-17T15:33:56.181Z</time></trkpt><trkpt lat="43.39428333" lon="13.27770833"><ele>137.0</ele><time>2022-03-17T15:33:57.200Z</time></trkpt><trkpt lat="43.39428333" lon="13.27770833"><ele>137.0</ele><time>2022-03-17T15:33:58.176Z</time></trkpt><trkpt lat="43.39426833" lon="13.27779833"><ele>137.0</ele><time>2022-03-17T15:33:59.190Z</time></trkpt><trkpt lat="43.39425833" lon="13.27784333"><ele>137.0</ele><time>2022-03-17T15:34:00.210Z</time></trkpt><trkpt lat="43.39425833" lon="13.27784333"><ele>137.0</ele><time>2022-03-17T15:34:01.191Z</time></trkpt><trkpt lat="43.394235" lon="13.27792167"><ele>138.0</ele><time>2022-03-17T15:34:02.200Z</time></trkpt><trkpt lat="43.39422" lon="13.27795833"><ele>138.0</ele><time>2022-03-17T15:34:03.205Z</time></trkpt><trkpt lat="43.39422" lon="13.27795833"><ele>138.0</ele><time>2022-03-17T15:34:04.190Z</time></trkpt><trkpt lat="43.394185" lon="13.27803333"><ele>138.0</ele><time>2022-03-17T15:34:05.204Z</time></trkpt><trkpt lat="43.394185" lon="13.27803333"><ele>138.0</ele><time>2022-03-17T15:34:06.175Z</time></trkpt><trkpt lat="43.39414833" lon="13.27811"><ele>139.0</ele><time>2022-03-17T15:34:07.183Z</time></trkpt><trkpt lat="43.39414833" lon="13.27811"><ele>139.0</ele><time>2022-03-17T15:34:08.202Z</time></trkpt><trkpt lat="43.39411" lon="13.27818167"><ele>140.0</ele><time>2022-03-17T15:34:09.173Z</time></trkpt><trkpt lat="43.39411" lon="13.27818167"><ele>140.0</ele><time>2022-03-17T15:34:10.204Z</time></trkpt><trkpt lat="43.39406833" lon="13.27825167"><ele>141.0</ele><time>2022-03-17T15:34:11.211Z</time></trkpt><trkpt lat="43.39406833" lon="13.27825167"><ele>141.0</ele><time>2022-03-17T15:34:12.196Z</time></trkpt><trkpt lat="43.39402833" lon="13.27829833"><ele>142.0</ele><time>2022-03-17T15:34:13.205Z</time></trkpt><trkpt lat="43.39401167" lon="13.27831667"><ele>142.0</ele><time>2022-03-17T15:34:14.183Z</time></trkpt><trkpt lat="43.393995" lon="13.278335"><ele>142.0</ele><time>2022-03-17T15:34:15.197Z</time></trkpt><trkpt lat="43.393995" lon="13.278335"><ele>142.0</ele><time>2022-03-17T15:34:16.173Z</time></trkpt><trkpt lat="43.39396333" lon="13.27837167"><ele>142.0</ele><time>2022-03-17T15:34:17.180Z</time></trkpt><trkpt lat="43.39396333" lon="13.27837167"><ele>142.0</ele><time>2022-03-17T15:34:18.197Z</time></trkpt><trkpt lat="43.39394167" lon="13.27840667"><ele>143.0</ele><time>2022-03-17T15:34:19.199Z</time></trkpt><trkpt lat="43.39394167" lon="13.27840667"><ele>143.0</ele><time>2022-03-17T15:34:20.205Z</time></trkpt><trkpt lat="43.39391667" lon="13.278425"><ele>143.0</ele><time>2022-03-17T15:34:21.174Z</time></trkpt><trkpt lat="43.39391667" lon="13.278425"><ele>143.0</ele><time>2022-03-17T15:34:22.190Z</time></trkpt><trkpt lat="43.39391" lon="13.27843167"><ele>143.0</ele><time>2022-03-17T15:34:23.197Z</time></trkpt><trkpt lat="43.39390833" lon="13.27843333"><ele>143.0</ele><time>2022-03-17T15:34:24.182Z</time></trkpt><trkpt lat="43.39390833" lon="13.27843333"><ele>143.0</ele><time>2022-03-17T15:34:25.205Z</time></trkpt><trkpt lat="43.39390333" lon="13.27849167"><ele>142.0</ele><time>2022-03-17T15:34:26.207Z</time></trkpt><trkpt lat="43.39390333" lon="13.27849167"><ele>142.0</ele><time>2022-03-17T15:34:27.204Z</time></trkpt><trkpt lat="43.393875" lon="13.278495"><ele>143.0</ele><time>2022-03-17T15:34:28.173Z</time></trkpt><trkpt lat="43.393875" lon="13.278495"><ele>143.0</ele><time>2022-03-17T15:34:29.180Z</time></trkpt><trkpt lat="43.393845" lon="13.27852667"><ele>143.0</ele><time>2022-03-17T15:34:30.192Z</time></trkpt><trkpt lat="43.39383333" lon="13.27854333"><ele>143.0</ele><time>2022-03-17T15:34:31.205Z</time></trkpt><trkpt lat="43.39383333" lon="13.27854333"><ele>143.0</ele><time>2022-03-17T15:34:32.197Z</time></trkpt><trkpt lat="43.3938" lon="13.27858"><ele>143.0</ele><time>2022-03-17T15:34:33.172Z</time></trkpt><trkpt lat="43.3938" lon="13.27858"><ele>143.0</ele><time>2022-03-17T15:34:34.194Z</time></trkpt><trkpt lat="43.39376833" lon="13.27861333"><ele>144.0</ele><time>2022-03-17T15:34:35.209Z</time></trkpt><trkpt lat="43.39374667" lon="13.27863667"><ele>144.0</ele><time>2022-03-17T15:34:36.195Z</time></trkpt><trkpt lat="43.39374667" lon="13.27863667"><ele>144.0</ele><time>2022-03-17T15:34:37.209Z</time></trkpt><trkpt lat="43.39370667" lon="13.27868"><ele>145.0</ele><time>2022-03-17T15:34:38.210Z</time></trkpt><trkpt lat="43.39369" lon="13.27870333"><ele>145.0</ele><time>2022-03-17T15:34:39.211Z</time></trkpt><trkpt lat="43.39369" lon="13.27870333"><ele>145.0</ele><time>2022-03-17T15:34:40.202Z</time></trkpt><trkpt lat="43.39364167" lon="13.27875"><ele>146.0</ele><time>2022-03-17T15:34:41.183Z</time></trkpt><trkpt lat="43.39364167" lon="13.27875"><ele>146.0</ele><time>2022-03-17T15:34:42.200Z</time></trkpt><trkpt lat="43.393605" lon="13.27879333"><ele>146.0</ele><time>2022-03-17T15:34:43.174Z</time></trkpt><trkpt lat="43.39358667" lon="13.27881833"><ele>147.0</ele><time>2022-03-17T15:34:44.182Z</time></trkpt><trkpt lat="43.39357" lon="13.27884333"><ele>147.0</ele><time>2022-03-17T15:34:45.189Z</time></trkpt><trkpt lat="43.39357" lon="13.27884333"><ele>147.0</ele><time>2022-03-17T15:34:46.176Z</time></trkpt><trkpt lat="43.393535" lon="13.2789"><ele>148.0</ele><time>2022-03-17T15:34:47.188Z</time></trkpt><trkpt lat="43.39351667" lon="13.278925"><ele>148.0</ele><time>2022-03-17T15:34:48.186Z</time></trkpt><trkpt lat="43.3935" lon="13.27895"><ele>148.0</ele><time>2022-03-17T15:34:49.199Z</time></trkpt><trkpt lat="43.3935" lon="13.27895"><ele>148.0</ele><time>2022-03-17T15:34:50.197Z</time></trkpt><trkpt lat="43.39346167" lon="13.27900333"><ele>149.0</ele><time>2022-03-17T15:34:51.176Z</time></trkpt><trkpt lat="43.39346167" lon="13.27900333"><ele>149.0</ele><time>2022-03-17T15:34:52.190Z</time></trkpt><trkpt lat="43.39342167" lon="13.27905833"><ele>150.0</ele><time>2022-03-17T15:34:53.206Z</time></trkpt><trkpt lat="43.39342167" lon="13.27905833"><ele>150.0</ele><time>2022-03-17T15:34:54.186Z</time></trkpt><trkpt lat="43.39337833" lon="13.27910333"><ele>150.0</ele><time>2022-03-17T15:34:55.198Z</time></trkpt><trkpt lat="43.39335833" lon="13.27912667"><ele>151.0</ele><time>2022-03-17T15:34:56.205Z</time></trkpt><trkpt lat="43.39334167" lon="13.27915"><ele>151.0</ele><time>2022-03-17T15:34:57.212Z</time></trkpt><trkpt lat="43.39334167" lon="13.27915"><ele>151.0</ele><time>2022-03-17T15:34:58.206Z</time></trkpt><trkpt lat="43.3933" lon="13.2792"><ele>152.0</ele><time>2022-03-17T15:34:59.178Z</time></trkpt><trkpt lat="43.393275" lon="13.27922167"><ele>152.0</ele><time>2022-03-17T15:35:00.178Z</time></trkpt><trkpt lat="43.393275" lon="13.27922167"><ele>152.0</ele><time>2022-03-17T15:35:01.195Z</time></trkpt><trkpt lat="43.39322833" lon="13.27927167"><ele>153.0</ele><time>2022-03-17T15:35:02.208Z</time></trkpt><trkpt lat="43.39322833" lon="13.27927167"><ele>153.0</ele><time>2022-03-17T15:35:03.192Z</time></trkpt><trkpt lat="43.39319" lon="13.27932"><ele>154.0</ele><time>2022-03-17T15:35:04.200Z</time></trkpt><trkpt lat="43.39317" lon="13.27934"><ele>154.0</ele><time>2022-03-17T15:35:05.179Z</time></trkpt><trkpt lat="43.39314667" lon="13.27935833"><ele>154.0</ele><time>2022-03-17T15:35:06.209Z</time></trkpt><trkpt lat="43.39314667" lon="13.27935833"><ele>154.0</ele><time>2022-03-17T15:35:07.183Z</time></trkpt><trkpt lat="43.39309667" lon="13.27939667"><ele>154.0</ele><time>2022-03-17T15:35:08.198Z</time></trkpt><trkpt lat="43.39309667" lon="13.27939667"><ele>154.0</ele><time>2022-03-17T15:35:09.210Z</time></trkpt><trkpt lat="43.39304333" lon="13.27943333"><ele>154.0</ele><time>2022-03-17T15:35:10.187Z</time></trkpt><trkpt lat="43.39304333" lon="13.27943333"><ele>154.0</ele><time>2022-03-17T15:35:11.185Z</time></trkpt><trkpt lat="43.39298167" lon="13.27946833"><ele>154.0</ele><time>2022-03-17T15:35:12.196Z</time></trkpt><trkpt lat="43.39298167" lon="13.27946833"><ele>154.0</ele><time>2022-03-17T15:35:13.177Z</time></trkpt><trkpt lat="43.39292667" lon="13.2795"><ele>154.0</ele><time>2022-03-17T15:35:14.186Z</time></trkpt><trkpt lat="43.392895" lon="13.27951833"><ele>154.0</ele><time>2022-03-17T15:35:15.208Z</time></trkpt><trkpt lat="43.392895" lon="13.27951833"><ele>154.0</ele><time>2022-03-17T15:35:16.194Z</time></trkpt><trkpt lat="43.39283667" lon="13.27955167"><ele>154.0</ele><time>2022-03-17T15:35:17.172Z</time></trkpt><trkpt lat="43.39283667" lon="13.27955167"><ele>154.0</ele><time>2022-03-17T15:35:18.207Z</time></trkpt><trkpt lat="43.39277667" lon="13.27957333"><ele>154.0</ele><time>2022-03-17T15:35:19.184Z</time></trkpt><trkpt lat="43.39274667" lon="13.27958333"><ele>154.0</ele><time>2022-03-17T15:35:20.179Z</time></trkpt><trkpt lat="43.39274667" lon="13.27958333"><ele>154.0</ele><time>2022-03-17T15:35:21.201Z</time></trkpt><trkpt lat="43.392685" lon="13.27960833"><ele>154.0</ele><time>2022-03-17T15:35:22.180Z</time></trkpt><trkpt lat="43.392685" lon="13.27960833"><ele>154.0</ele><time>2022-03-17T15:35:23.173Z</time></trkpt><trkpt lat="43.39261833" lon="13.27964"><ele>155.0</ele><time>2022-03-17T15:35:24.185Z</time></trkpt><trkpt lat="43.39261833" lon="13.27964"><ele>155.0</ele><time>2022-03-17T15:35:25.200Z</time></trkpt><trkpt lat="43.392555" lon="13.27967667"><ele>156.0</ele><time>2022-03-17T15:35:26.184Z</time></trkpt><trkpt lat="43.392555" lon="13.27967667"><ele>156.0</ele><time>2022-03-17T15:35:27.197Z</time></trkpt><trkpt lat="43.392495" lon="13.27970333"><ele>157.0</ele><time>2022-03-17T15:35:28.206Z</time></trkpt><trkpt lat="43.392495" lon="13.27970333"><ele>157.0</ele><time>2022-03-17T15:35:29.197Z</time></trkpt><trkpt lat="43.392435" lon="13.27972667"><ele>157.0</ele><time>2022-03-17T15:35:30.173Z</time></trkpt><trkpt lat="43.392435" lon="13.27972667"><ele>157.0</ele><time>2022-03-17T15:35:31.201Z</time></trkpt><trkpt lat="43.39238833" lon="13.27974333"><ele>157.0</ele><time>2022-03-17T15:35:32.187Z</time></trkpt><trkpt lat="43.39238833" lon="13.27974333"><ele>157.0</ele><time>2022-03-17T15:35:33.209Z</time></trkpt><trkpt lat="43.39235667" lon="13.27975333"><ele>158.0</ele><time>2022-03-17T15:35:34.184Z</time></trkpt><trkpt lat="43.39234667" lon="13.27976333"><ele>158.0</ele><time>2022-03-17T15:35:35.210Z</time></trkpt><trkpt lat="43.39234667" lon="13.27976333"><ele>158.0</ele><time>2022-03-17T15:35:36.204Z</time></trkpt><trkpt lat="43.39233667" lon="13.27979167"><ele>158.0</ele><time>2022-03-17T15:35:37.179Z</time></trkpt><trkpt lat="43.39233167" lon="13.27980667"><ele>158.0</ele><time>2022-03-17T15:35:38.208Z</time></trkpt><trkpt lat="43.39232833" lon="13.27982333"><ele>159.0</ele><time>2022-03-17T15:35:39.206Z</time></trkpt><trkpt lat="43.39232833" lon="13.27982333"><ele>159.0</ele><time>2022-03-17T15:35:40.174Z</time></trkpt><trkpt lat="43.39233167" lon="13.27986667"><ele>159.0</ele><time>2022-03-17T15:35:41.182Z</time></trkpt><trkpt lat="43.39234" lon="13.27989333"><ele>159.0</ele><time>2022-03-17T15:35:42.209Z</time></trkpt><trkpt lat="43.39234" lon="13.27989333"><ele>159.0</ele><time>2022-03-17T15:35:43.196Z</time></trkpt><trkpt lat="43.39236" lon="13.27994333"><ele>159.0</ele><time>2022-03-17T15:35:44.172Z</time></trkpt><trkpt lat="43.39237333" lon="13.27997167"><ele>159.0</ele><time>2022-03-17T15:35:45.206Z</time></trkpt><trkpt lat="43.39237333" lon="13.27997167"><ele>159.0</ele><time>2022-03-17T15:35:46.186Z</time></trkpt><trkpt lat="43.392405" lon="13.28004333"><ele>158.0</ele><time>2022-03-17T15:35:47.196Z</time></trkpt><trkpt lat="43.392405" lon="13.28004333"><ele>158.0</ele><time>2022-03-17T15:35:48.173Z</time></trkpt><trkpt lat="43.39244667" lon="13.28013"><ele>158.0</ele><time>2022-03-17T15:35:49.184Z</time></trkpt><trkpt lat="43.39244667" lon="13.28013"><ele>158.0</ele><time>2022-03-17T15:35:50.207Z</time></trkpt><trkpt lat="43.39249" lon="13.28021833"><ele>158.0</ele><time>2022-03-17T15:35:51.181Z</time></trkpt><trkpt lat="43.39249" lon="13.28021833"><ele>158.0</ele><time>2022-03-17T15:35:52.173Z</time></trkpt><trkpt lat="43.39253167" lon="13.28031333"><ele>157.0</ele><time>2022-03-17T15:35:53.205Z</time></trkpt><trkpt lat="43.39253167" lon="13.28031333"><ele>157.0</ele><time>2022-03-17T15:35:54.200Z</time></trkpt><trkpt lat="43.39257667" lon="13.280415"><ele>156.0</ele><time>2022-03-17T15:35:55.172Z</time></trkpt><trkpt lat="43.39257667" lon="13.280415"><ele>156.0</ele><time>2022-03-17T15:35:56.205Z</time></trkpt><trkpt lat="43.39262833" lon="13.28052333"><ele>156.0</ele><time>2022-03-17T15:35:57.176Z</time></trkpt><trkpt lat="43.39262833" lon="13.28052333"><ele>156.0</ele><time>2022-03-17T15:35:58.203Z</time></trkpt><trkpt lat="43.39268" lon="13.28063333"><ele>155.0</ele><time>2022-03-17T15:35:59.191Z</time></trkpt><trkpt lat="43.39268" lon="13.28063333"><ele>155.0</ele><time>2022-03-17T15:36:00.197Z</time></trkpt><trkpt lat="43.39273333" lon="13.28074167"><ele>155.0</ele><time>2022-03-17T15:36:01.188Z</time></trkpt><trkpt lat="43.39273333" lon="13.28074167"><ele>155.0</ele><time>2022-03-17T15:36:02.196Z</time></trkpt><trkpt lat="43.392785" lon="13.28086"><ele>155.0</ele><time>2022-03-17T15:36:03.190Z</time></trkpt><trkpt lat="43.392785" lon="13.28086"><ele>155.0</ele><time>2022-03-17T15:36:04.204Z</time></trkpt><trkpt lat="43.392845" lon="13.28098"><ele>155.0</ele><time>2022-03-17T15:36:05.178Z</time></trkpt><trkpt lat="43.39287333" lon="13.28104167"><ele>154.0</ele><time>2022-03-17T15:36:06.195Z</time></trkpt><trkpt lat="43.39287333" lon="13.28104167"><ele>154.0</ele><time>2022-03-17T15:36:07.209Z</time></trkpt><trkpt lat="43.39293167" lon="13.28116333"><ele>154.0</ele><time>2022-03-17T15:36:08.181Z</time></trkpt><trkpt lat="43.39293167" lon="13.28116333"><ele>154.0</ele><time>2022-03-17T15:36:09.211Z</time></trkpt><trkpt lat="43.39298833" lon="13.281285"><ele>154.0</ele><time>2022-03-17T15:36:10.183Z</time></trkpt><trkpt lat="43.39298833" lon="13.281285"><ele>154.0</ele><time>2022-03-17T15:36:11.199Z</time></trkpt><trkpt lat="43.39304833" lon="13.28140667"><ele>154.0</ele><time>2022-03-17T15:36:12.204Z</time></trkpt><trkpt lat="43.39304833" lon="13.28140667"><ele>154.0</ele><time>2022-03-17T15:36:13.198Z</time></trkpt><trkpt lat="43.39310667" lon="13.28153333"><ele>153.0</ele><time>2022-03-17T15:36:14.210Z</time></trkpt><trkpt lat="43.393135" lon="13.281595"><ele>153.0</ele><time>2022-03-17T15:36:15.180Z</time></trkpt><trkpt lat="43.393135" lon="13.281595"><ele>153.0</ele><time>2022-03-17T15:36:16.199Z</time></trkpt><trkpt lat="43.39319" lon="13.28171833"><ele>153.0</ele><time>2022-03-17T15:36:17.210Z</time></trkpt><trkpt lat="43.39319" lon="13.28171833"><ele>153.0</ele><time>2022-03-17T15:36:18.186Z</time></trkpt><trkpt lat="43.39325" lon="13.281835"><ele>152.0</ele><time>2022-03-17T15:36:19.199Z</time></trkpt><trkpt lat="43.39327833" lon="13.28189333"><ele>152.0</ele><time>2022-03-17T15:36:20.201Z</time></trkpt><trkpt lat="43.39330833" lon="13.28195333"><ele>152.0</ele><time>2022-03-17T15:36:21.188Z</time></trkpt><trkpt lat="43.39330833" lon="13.28195333"><ele>152.0</ele><time>2022-03-17T15:36:22.202Z</time></trkpt><trkpt lat="43.39336667" lon="13.28207333"><ele>151.0</ele><time>2022-03-17T15:36:23.179Z</time></trkpt><trkpt lat="43.39339667" lon="13.282135"><ele>151.0</ele><time>2022-03-17T15:36:24.202Z</time></trkpt><trkpt lat="43.39339667" lon="13.282135"><ele>151.0</ele><time>2022-03-17T15:36:25.191Z</time></trkpt><trkpt lat="43.39345333" lon="13.28226"><ele>151.0</ele><time>2022-03-17T15:36:26.205Z</time></trkpt><trkpt lat="43.39348" lon="13.28232"><ele>151.0</ele><time>2022-03-17T15:36:27.178Z</time></trkpt><trkpt lat="43.39348" lon="13.28232"><ele>151.0</ele><time>2022-03-17T15:36:28.199Z</time></trkpt><trkpt lat="43.39353667" lon="13.28243333"><ele>151.0</ele><time>2022-03-17T15:36:29.172Z</time></trkpt><trkpt lat="43.393565" lon="13.28249167"><ele>151.0</ele><time>2022-03-17T15:36:30.190Z</time></trkpt><trkpt lat="43.393595" lon="13.28254833"><ele>151.0</ele><time>2022-03-17T15:36:31.180Z</time></trkpt><trkpt lat="43.393595" lon="13.28254833"><ele>151.0</ele><time>2022-03-17T15:36:32.201Z</time></trkpt><trkpt lat="43.39365333" lon="13.282665"><ele>150.0</ele><time>2022-03-17T15:36:33.173Z</time></trkpt><trkpt lat="43.39368167" lon="13.28272667"><ele>150.0</ele><time>2022-03-17T15:36:34.201Z</time></trkpt><trkpt lat="43.39368167" lon="13.28272667"><ele>150.0</ele><time>2022-03-17T15:36:35.179Z</time></trkpt><trkpt lat="43.39373833" lon="13.28285"><ele>150.0</ele><time>2022-03-17T15:36:36.196Z</time></trkpt><trkpt lat="43.39373833" lon="13.28285"><ele>150.0</ele><time>2022-03-17T15:36:37.211Z</time></trkpt><trkpt lat="43.39379833" lon="13.282975"><ele>150.0</ele><time>2022-03-17T15:36:38.180Z</time></trkpt><trkpt lat="43.39382833" lon="13.28304"><ele>149.0</ele><time>2022-03-17T15:36:39.177Z</time></trkpt><trkpt lat="43.39382833" lon="13.28304"><ele>149.0</ele><time>2022-03-17T15:36:40.177Z</time></trkpt><trkpt lat="43.39388833" lon="13.28317167"><ele>149.0</ele><time>2022-03-17T15:36:41.185Z</time></trkpt><trkpt lat="43.39392" lon="13.28323667"><ele>149.0</ele><time>2022-03-17T15:36:42.200Z</time></trkpt><trkpt lat="43.39392" lon="13.28323667"><ele>149.0</ele><time>2022-03-17T15:36:43.192Z</time></trkpt><trkpt lat="43.39398167" lon="13.28336667"><ele>149.0</ele><time>2022-03-17T15:36:44.204Z</time></trkpt><trkpt lat="43.39401167" lon="13.28343333"><ele>148.0</ele><time>2022-03-17T15:36:45.202Z</time></trkpt><trkpt lat="43.39401167" lon="13.28343333"><ele>148.0</ele><time>2022-03-17T15:36:46.211Z</time></trkpt><trkpt lat="43.39406833" lon="13.28357167"><ele>148.0</ele><time>2022-03-17T15:36:47.212Z</time></trkpt><trkpt lat="43.3941" lon="13.283635"><ele>148.0</ele><time>2022-03-17T15:36:48.195Z</time></trkpt><trkpt lat="43.3941" lon="13.283635"><ele>148.0</ele><time>2022-03-17T15:36:49.203Z</time></trkpt><trkpt lat="43.394165" lon="13.28376"><ele>148.0</ele><time>2022-03-17T15:36:50.180Z</time></trkpt><trkpt lat="43.394165" lon="13.28376"><ele>148.0</ele><time>2022-03-17T15:36:51.197Z</time></trkpt><trkpt lat="43.39423167" lon="13.28388833"><ele>148.0</ele><time>2022-03-17T15:36:52.212Z</time></trkpt><trkpt lat="43.39423167" lon="13.28388833"><ele>148.0</ele><time>2022-03-17T15:36:53.192Z</time></trkpt><trkpt lat="43.39429" lon="13.28402167"><ele>147.0</ele><time>2022-03-17T15:36:54.208Z</time></trkpt><trkpt lat="43.39432167" lon="13.28408833"><ele>147.0</ele><time>2022-03-17T15:36:55.174Z</time></trkpt><trkpt lat="43.39432167" lon="13.28408833"><ele>147.0</ele><time>2022-03-17T15:36:56.197Z</time></trkpt><trkpt lat="43.39438333" lon="13.28422667"><ele>147.0</ele><time>2022-03-17T15:36:57.175Z</time></trkpt><trkpt lat="43.39438333" lon="13.28422667"><ele>147.0</ele><time>2022-03-17T15:36:58.201Z</time></trkpt><trkpt lat="43.39444667" lon="13.28436667"><ele>147.0</ele><time>2022-03-17T15:36:59.183Z</time></trkpt><trkpt lat="43.39444667" lon="13.28436667"><ele>147.0</ele><time>2022-03-17T15:37:00.183Z</time></trkpt><trkpt lat="43.39451167" lon="13.28450833"><ele>146.0</ele><time>2022-03-17T15:37:01.199Z</time></trkpt><trkpt lat="43.394545" lon="13.28457833"><ele>147.0</ele><time>2022-03-17T15:37:02.176Z</time></trkpt><trkpt lat="43.39457667" lon="13.28465"><ele>147.0</ele><time>2022-03-17T15:37:03.199Z</time></trkpt><trkpt lat="43.39457667" lon="13.28465"><ele>147.0</ele><time>2022-03-17T15:37:04.177Z</time></trkpt><trkpt lat="43.39464333" lon="13.28479333"><ele>147.0</ele><time>2022-03-17T15:37:05.186Z</time></trkpt><trkpt lat="43.39464333" lon="13.28479333"><ele>147.0</ele><time>2022-03-17T15:37:06.204Z</time></trkpt><trkpt lat="43.39471167" lon="13.28494167"><ele>146.0</ele><time>2022-03-17T15:37:07.175Z</time></trkpt><trkpt lat="43.39471167" lon="13.28494167"><ele>146.0</ele><time>2022-03-17T15:37:08.192Z</time></trkpt><trkpt lat="43.39478333" lon="13.28508667"><ele>146.0</ele><time>2022-03-17T15:37:09.204Z</time></trkpt><trkpt lat="43.39478333" lon="13.28508667"><ele>146.0</ele><time>2022-03-17T15:37:10.205Z</time></trkpt><trkpt lat="43.39485667" lon="13.28523333"><ele>146.0</ele><time>2022-03-17T15:37:11.185Z</time></trkpt><trkpt lat="43.39485667" lon="13.28523333"><ele>146.0</ele><time>2022-03-17T15:37:12.181Z</time></trkpt><trkpt lat="43.39493333" lon="13.28538"><ele>147.0</ele><time>2022-03-17T15:37:13.188Z</time></trkpt><trkpt lat="43.39493333" lon="13.28538"><ele>147.0</ele><time>2022-03-17T15:37:14.199Z</time></trkpt><trkpt lat="43.395" lon="13.28552667"><ele>147.0</ele><time>2022-03-17T15:37:15.210Z</time></trkpt><trkpt lat="43.395" lon="13.28552667"><ele>147.0</ele><time>2022-03-17T15:37:16.194Z</time></trkpt><trkpt lat="43.39504833" lon="13.28568"><ele>146.0</ele><time>2022-03-17T15:37:17.183Z</time></trkpt><trkpt lat="43.39507333" lon="13.285755"><ele>146.0</ele><time>2022-03-17T15:37:18.196Z</time></trkpt><trkpt lat="43.39507333" lon="13.285755"><ele>146.0</ele><time>2022-03-17T15:37:19.196Z</time></trkpt><trkpt lat="43.39511167" lon="13.28591667"><ele>145.0</ele><time>2022-03-17T15:37:20.204Z</time></trkpt><trkpt lat="43.39511167" lon="13.28591667"><ele>145.0</ele><time>2022-03-17T15:37:21.198Z</time></trkpt><trkpt lat="43.39513833" lon="13.28607833"><ele>145.0</ele><time>2022-03-17T15:37:22.172Z</time></trkpt><trkpt lat="43.39515" lon="13.28616"><ele>145.0</ele><time>2022-03-17T15:37:23.183Z</time></trkpt><trkpt lat="43.39515" lon="13.28616"><ele>145.0</ele><time>2022-03-17T15:37:24.204Z</time></trkpt><trkpt lat="43.395175" lon="13.28632667"><ele>144.0</ele><time>2022-03-17T15:37:25.179Z</time></trkpt><trkpt lat="43.395175" lon="13.28632667"><ele>144.0</ele><time>2022-03-17T15:37:26.184Z</time></trkpt><trkpt lat="43.39520333" lon="13.28649"><ele>144.0</ele><time>2022-03-17T15:37:27.196Z</time></trkpt><trkpt lat="43.39520333" lon="13.28649"><ele>144.0</ele><time>2022-03-17T15:37:28.211Z</time></trkpt><trkpt lat="43.39523167" lon="13.28665"><ele>144.0</ele><time>2022-03-17T15:37:29.185Z</time></trkpt><trkpt lat="43.39523167" lon="13.28665"><ele>144.0</ele><time>2022-03-17T15:37:30.210Z</time></trkpt><trkpt lat="43.39526333" lon="13.286805"><ele>144.0</ele><time>2022-03-17T15:37:31.186Z</time></trkpt><trkpt lat="43.39526333" lon="13.286805"><ele>144.0</ele><time>2022-03-17T15:37:32.176Z</time></trkpt><trkpt lat="43.39529167" lon="13.28695333"><ele>143.0</ele><time>2022-03-17T15:37:33.186Z</time></trkpt><trkpt lat="43.39529167" lon="13.28695333"><ele>143.0</ele><time>2022-03-17T15:37:34.174Z</time></trkpt><trkpt lat="43.395315" lon="13.287095"><ele>143.0</ele><time>2022-03-17T15:37:35.181Z</time></trkpt><trkpt lat="43.395315" lon="13.287095"><ele>143.0</ele><time>2022-03-17T15:37:36.204Z</time></trkpt><trkpt lat="43.39533833" lon="13.28724167"><ele>143.0</ele><time>2022-03-17T15:37:37.181Z</time></trkpt><trkpt lat="43.39533833" lon="13.28724167"><ele>143.0</ele><time>2022-03-17T15:37:38.197Z</time></trkpt><trkpt lat="43.39536333" lon="13.28739333"><ele>143.0</ele><time>2022-03-17T15:37:39.179Z</time></trkpt><trkpt lat="43.39537667" lon="13.28746667"><ele>142.0</ele><time>2022-03-17T15:37:40.196Z</time></trkpt><trkpt lat="43.39537667" lon="13.28746667"><ele>142.0</ele><time>2022-03-17T15:37:41.180Z</time></trkpt><trkpt lat="43.39540333" lon="13.28761333"><ele>142.0</ele><time>2022-03-17T15:37:42.190Z</time></trkpt><trkpt lat="43.39540333" lon="13.28761333"><ele>142.0</ele><time>2022-03-17T15:37:43.208Z</time></trkpt><trkpt lat="43.39542667" lon="13.287765"><ele>142.0</ele><time>2022-03-17T15:37:44.186Z</time></trkpt><trkpt lat="43.39544" lon="13.28784167"><ele>142.0</ele><time>2022-03-17T15:37:45.177Z</time></trkpt><trkpt lat="43.39544" lon="13.28784167"><ele>142.0</ele><time>2022-03-17T15:37:46.205Z</time></trkpt><trkpt lat="43.395465" lon="13.28799667"><ele>141.0</ele><time>2022-03-17T15:37:47.178Z</time></trkpt><trkpt lat="43.39547833" lon="13.288075"><ele>141.0</ele><time>2022-03-17T15:37:48.197Z</time></trkpt><trkpt lat="43.39547833" lon="13.288075"><ele>141.0</ele><time>2022-03-17T15:37:49.176Z</time></trkpt><trkpt lat="43.39550833" lon="13.288235"><ele>141.0</ele><time>2022-03-17T15:37:50.189Z</time></trkpt><trkpt lat="43.39550833" lon="13.288235"><ele>141.0</ele><time>2022-03-17T15:37:51.188Z</time></trkpt><trkpt lat="43.39553667" lon="13.288395"><ele>141.0</ele><time>2022-03-17T15:37:52.199Z</time></trkpt><trkpt lat="43.39553667" lon="13.288395"><ele>141.0</ele><time>2022-03-17T15:37:53.195Z</time></trkpt><trkpt lat="43.39556667" lon="13.28856"><ele>141.0</ele><time>2022-03-17T15:37:54.174Z</time></trkpt><trkpt lat="43.39556667" lon="13.28856"><ele>141.0</ele><time>2022-03-17T15:37:55.198Z</time></trkpt><trkpt lat="43.39559167" lon="13.28872667"><ele>142.0</ele><time>2022-03-17T15:37:56.212Z</time></trkpt><trkpt lat="43.39560667" lon="13.28880667"><ele>141.0</ele><time>2022-03-17T15:37:57.207Z</time></trkpt><trkpt lat="43.39560667" lon="13.28880667"><ele>141.0</ele><time>2022-03-17T15:37:58.191Z</time></trkpt><trkpt lat="43.395635" lon="13.288965"><ele>141.0</ele><time>2022-03-17T15:37:59.203Z</time></trkpt><trkpt lat="43.39564833" lon="13.28904333"><ele>141.0</ele><time>2022-03-17T15:38:00.179Z</time></trkpt><trkpt lat="43.39564833" lon="13.28904333"><ele>141.0</ele><time>2022-03-17T15:38:01.201Z</time></trkpt><trkpt lat="43.39567667" lon="13.28920167"><ele>141.0</ele><time>2022-03-17T15:38:02.177Z</time></trkpt><trkpt lat="43.39569" lon="13.28928167"><ele>140.0</ele><time>2022-03-17T15:38:03.187Z</time></trkpt><trkpt lat="43.39569" lon="13.28928167"><ele>140.0</ele><time>2022-03-17T15:38:04.179Z</time></trkpt><trkpt lat="43.395715" lon="13.28944667"><ele>140.0</ele><time>2022-03-17T15:38:05.188Z</time></trkpt><trkpt lat="43.395725" lon="13.28953"><ele>140.0</ele><time>2022-03-17T15:38:06.186Z</time></trkpt><trkpt lat="43.395725" lon="13.28953"><ele>140.0</ele><time>2022-03-17T15:38:07.185Z</time></trkpt><trkpt lat="43.39575" lon="13.28969667"><ele>140.0</ele><time>2022-03-17T15:38:08.200Z</time></trkpt><trkpt lat="43.39576333" lon="13.28978167"><ele>140.0</ele><time>2022-03-17T15:38:09.200Z</time></trkpt><trkpt lat="43.39576333" lon="13.28978167"><ele>140.0</ele><time>2022-03-17T15:38:10.186Z</time></trkpt><trkpt lat="43.39578833" lon="13.28995333"><ele>139.0</ele><time>2022-03-17T15:38:11.199Z</time></trkpt><trkpt lat="43.39578833" lon="13.28995333"><ele>139.0</ele><time>2022-03-17T15:38:12.182Z</time></trkpt><trkpt lat="43.39581833" lon="13.290125"><ele>140.0</ele><time>2022-03-17T15:38:13.211Z</time></trkpt><trkpt lat="43.39581833" lon="13.290125"><ele>140.0</ele><time>2022-03-17T15:38:14.180Z</time></trkpt><trkpt lat="43.39585833" lon="13.290305"><ele>139.0</ele><time>2022-03-17T15:38:15.193Z</time></trkpt><trkpt lat="43.39585833" lon="13.290305"><ele>139.0</ele><time>2022-03-17T15:38:16.208Z</time></trkpt><trkpt lat="43.3959" lon="13.29048833"><ele>139.0</ele><time>2022-03-17T15:38:17.182Z</time></trkpt><trkpt lat="43.39591833" lon="13.29058"><ele>139.0</ele><time>2022-03-17T15:38:18.209Z</time></trkpt><trkpt lat="43.39591833" lon="13.29058"><ele>139.0</ele><time>2022-03-17T15:38:19.184Z</time></trkpt><trkpt lat="43.39596" lon="13.29076333"><ele>139.0</ele><time>2022-03-17T15:38:20.192Z</time></trkpt><trkpt lat="43.39596" lon="13.29076333"><ele>139.0</ele><time>2022-03-17T15:38:21.172Z</time></trkpt><trkpt lat="43.39599833" lon="13.29095167"><ele>138.0</ele><time>2022-03-17T15:38:22.181Z</time></trkpt><trkpt lat="43.39599833" lon="13.29095167"><ele>138.0</ele><time>2022-03-17T15:38:23.207Z</time></trkpt><trkpt lat="43.39604" lon="13.29113667"><ele>138.0</ele><time>2022-03-17T15:38:24.175Z</time></trkpt><trkpt lat="43.39606167" lon="13.29123"><ele>137.0</ele><time>2022-03-17T15:38:25.195Z</time></trkpt><trkpt lat="43.39606167" lon="13.29123"><ele>137.0</ele><time>2022-03-17T15:38:26.175Z</time></trkpt><trkpt lat="43.39610167" lon="13.29141833"><ele>136.0</ele><time>2022-03-17T15:38:27.189Z</time></trkpt><trkpt lat="43.39610167" lon="13.29141833"><ele>136.0</ele><time>2022-03-17T15:38:28.208Z</time></trkpt><trkpt lat="43.39614333" lon="13.29161167"><ele>135.0</ele><time>2022-03-17T15:38:29.178Z</time></trkpt><trkpt lat="43.396165" lon="13.29170667"><ele>135.0</ele><time>2022-03-17T15:38:30.209Z</time></trkpt><trkpt lat="43.396165" lon="13.29170667"><ele>135.0</ele><time>2022-03-17T15:38:31.185Z</time></trkpt><trkpt lat="43.396205" lon="13.29189833"><ele>134.0</ele><time>2022-03-17T15:38:32.196Z</time></trkpt><trkpt lat="43.39622667" lon="13.291995"><ele>134.0</ele><time>2022-03-17T15:38:33.198Z</time></trkpt><trkpt lat="43.39622667" lon="13.291995"><ele>134.0</ele><time>2022-03-17T15:38:34.180Z</time></trkpt><trkpt lat="43.39627" lon="13.29219667"><ele>133.0</ele><time>2022-03-17T15:38:35.188Z</time></trkpt><trkpt lat="43.39627" lon="13.29219667"><ele>133.0</ele><time>2022-03-17T15:38:36.201Z</time></trkpt><trkpt lat="43.39631333" lon="13.29240167"><ele>132.0</ele><time>2022-03-17T15:38:37.210Z</time></trkpt><trkpt lat="43.39631333" lon="13.29240167"><ele>132.0</ele><time>2022-03-17T15:38:38.206Z</time></trkpt><trkpt lat="43.396355" lon="13.29260833"><ele>131.0</ele><time>2022-03-17T15:38:39.185Z</time></trkpt><trkpt lat="43.396355" lon="13.29260833"><ele>131.0</ele><time>2022-03-17T15:38:40.197Z</time></trkpt><trkpt lat="43.3964" lon="13.29281833"><ele>130.0</ele><time>2022-03-17T15:38:41.212Z</time></trkpt><trkpt lat="43.39642667" lon="13.292925"><ele>129.0</ele><time>2022-03-17T15:38:42.182Z</time></trkpt><trkpt lat="43.39645333" lon="13.29303167"><ele>129.0</ele><time>2022-03-17T15:38:43.210Z</time></trkpt><trkpt lat="43.39645333" lon="13.29303167"><ele>129.0</ele><time>2022-03-17T15:38:44.198Z</time></trkpt><trkpt lat="43.39650667" lon="13.293255"><ele>128.0</ele><time>2022-03-17T15:38:45.173Z</time></trkpt><trkpt lat="43.39650667" lon="13.293255"><ele>128.0</ele><time>2022-03-17T15:38:46.195Z</time></trkpt><trkpt lat="43.396555" lon="13.29347667"><ele>127.0</ele><time>2022-03-17T15:38:47.210Z</time></trkpt><trkpt lat="43.396555" lon="13.29347667"><ele>127.0</ele><time>2022-03-17T15:38:48.173Z</time></trkpt><trkpt lat="43.39660667" lon="13.29370167"><ele>126.0</ele><time>2022-03-17T15:38:49.183Z</time></trkpt><trkpt lat="43.39660667" lon="13.29370167"><ele>126.0</ele><time>2022-03-17T15:38:50.210Z</time></trkpt><trkpt lat="43.396655" lon="13.293935"><ele>125.0</ele><time>2022-03-17T15:38:51.194Z</time></trkpt><trkpt lat="43.396655" lon="13.293935"><ele>125.0</ele><time>2022-03-17T15:38:52.210Z</time></trkpt><trkpt lat="43.396705" lon="13.29416333"><ele>125.0</ele><time>2022-03-17T15:38:53.175Z</time></trkpt><trkpt lat="43.396705" lon="13.29416333"><ele>125.0</ele><time>2022-03-17T15:38:54.178Z</time></trkpt><trkpt lat="43.39675833" lon="13.29438833"><ele>124.0</ele><time>2022-03-17T15:38:55.187Z</time></trkpt><trkpt lat="43.39675833" lon="13.29438833"><ele>124.0</ele><time>2022-03-17T15:38:56.199Z</time></trkpt><trkpt lat="43.39683" lon="13.29460333"><ele>123.0</ele><time>2022-03-17T15:38:57.212Z</time></trkpt><trkpt lat="43.39683" lon="13.29460333"><ele>123.0</ele><time>2022-03-17T15:38:58.186Z</time></trkpt><trkpt lat="43.396935" lon="13.2948"><ele>123.0</ele><time>2022-03-17T15:38:59.184Z</time></trkpt><trkpt lat="43.396935" lon="13.2948"><ele>123.0</ele><time>2022-03-17T15:39:00.207Z</time></trkpt><trkpt lat="43.39706333" lon="13.294975"><ele>122.0</ele><time>2022-03-17T15:39:01.181Z</time></trkpt><trkpt lat="43.39706333" lon="13.294975"><ele>122.0</ele><time>2022-03-17T15:39:02.203Z</time></trkpt><trkpt lat="43.39720167" lon="13.29513667"><ele>121.0</ele><time>2022-03-17T15:39:03.178Z</time></trkpt><trkpt lat="43.39720167" lon="13.29513667"><ele>121.0</ele><time>2022-03-17T15:39:04.187Z</time></trkpt><trkpt lat="43.39733833" lon="13.295295"><ele>121.0</ele><time>2022-03-17T15:39:05.195Z</time></trkpt><trkpt lat="43.39740667" lon="13.29536833"><ele>121.0</ele><time>2022-03-17T15:39:06.196Z</time></trkpt><trkpt lat="43.39740667" lon="13.29536833"><ele>121.0</ele><time>2022-03-17T15:39:07.173Z</time></trkpt><trkpt lat="43.39754167" lon="13.29550167"><ele>121.0</ele><time>2022-03-17T15:39:08.182Z</time></trkpt><trkpt lat="43.39754167" lon="13.29550167"><ele>121.0</ele><time>2022-03-17T15:39:09.210Z</time></trkpt><trkpt lat="43.39765833" lon="13.29564167"><ele>120.0</ele><time>2022-03-17T15:39:10.182Z</time></trkpt><trkpt lat="43.39765833" lon="13.29564167"><ele>120.0</ele><time>2022-03-17T15:39:11.188Z</time></trkpt><trkpt lat="43.397725" lon="13.29582667"><ele>119.0</ele><time>2022-03-17T15:39:12.176Z</time></trkpt><trkpt lat="43.39774167" lon="13.29592667"><ele>119.0</ele><time>2022-03-17T15:39:13.208Z</time></trkpt><trkpt lat="43.39774167" lon="13.29592667"><ele>119.0</ele><time>2022-03-17T15:39:14.186Z</time></trkpt><trkpt lat="43.397745" lon="13.29612333"><ele>119.0</ele><time>2022-03-17T15:39:15.198Z</time></trkpt><trkpt lat="43.397745" lon="13.29612333"><ele>119.0</ele><time>2022-03-17T15:39:16.210Z</time></trkpt><trkpt lat="43.39771833" lon="13.29629"><ele>119.0</ele><time>2022-03-17T15:39:17.173Z</time></trkpt><trkpt lat="43.39771833" lon="13.29629"><ele>119.0</ele><time>2022-03-17T15:39:18.177Z</time></trkpt><trkpt lat="43.39767667" lon="13.29644"><ele>119.0</ele><time>2022-03-17T15:39:19.188Z</time></trkpt><trkpt lat="43.39765667" lon="13.29650833"><ele>120.0</ele><time>2022-03-17T15:39:20.209Z</time></trkpt><trkpt lat="43.397635" lon="13.29657333"><ele>120.0</ele><time>2022-03-17T15:39:21.185Z</time></trkpt><trkpt lat="43.397635" lon="13.29657333"><ele>120.0</ele><time>2022-03-17T15:39:22.204Z</time></trkpt><trkpt lat="43.39759" lon="13.296695"><ele>120.0</ele><time>2022-03-17T15:39:23.175Z</time></trkpt><trkpt lat="43.39759" lon="13.296695"><ele>120.0</ele><time>2022-03-17T15:39:24.207Z</time></trkpt><trkpt lat="43.39755667" lon="13.29681333"><ele>121.0</ele><time>2022-03-17T15:39:25.178Z</time></trkpt><trkpt lat="43.39755667" lon="13.29681333"><ele>121.0</ele><time>2022-03-17T15:39:26.177Z</time></trkpt><trkpt lat="43.39752667" lon="13.29692333"><ele>121.0</ele><time>2022-03-17T15:39:27.203Z</time></trkpt><trkpt lat="43.39752667" lon="13.29692333"><ele>121.0</ele><time>2022-03-17T15:39:28.197Z</time></trkpt><trkpt lat="43.39748667" lon="13.29702333"><ele>123.0</ele><time>2022-03-17T15:39:29.172Z</time></trkpt><trkpt lat="43.39748667" lon="13.29702333"><ele>123.0</ele><time>2022-03-17T15:40:30.189Z</time></trkpt><trkpt lat="43.39745" lon="13.29712833"><ele>123.0</ele><time>2022-03-17T15:40:31.199Z</time></trkpt><trkpt lat="43.39745" lon="13.29712833"><ele>123.0</ele><time>2022-03-17T15:40:32.174Z</time></trkpt><trkpt lat="43.39740833" lon="13.29723833"><ele>124.0</ele><time>2022-03-17T15:40:33.181Z</time></trkpt><trkpt lat="43.39738667" lon="13.297295"><ele>124.0</ele><time>2022-03-17T15:40:34.182Z</time></trkpt><trkpt lat="43.39738667" lon="13.297295"><ele>124.0</ele><time>2022-03-17T15:40:35.205Z</time></trkpt><trkpt lat="43.39734333" lon="13.29741"><ele>124.0</ele><time>2022-03-17T15:40:36.176Z</time></trkpt><trkpt lat="43.39732" lon="13.29747"><ele>125.0</ele><time>2022-03-17T15:40:37.174Z</time></trkpt><trkpt lat="43.39732" lon="13.29747"><ele>125.0</ele><time>2022-03-17T15:40:38.201Z</time></trkpt><trkpt lat="43.39727667" lon="13.29758167"><ele>126.0</ele><time>2022-03-17T15:40:39.198Z</time></trkpt><trkpt lat="43.39725667" lon="13.29763167"><ele>126.0</ele><time>2022-03-17T15:40:40.178Z</time></trkpt><trkpt lat="43.39725667" lon="13.29763167"><ele>126.0</ele><time>2022-03-17T15:40:41.200Z</time></trkpt><trkpt lat="43.39722" lon="13.29771667"><ele>127.0</ele><time>2022-03-17T15:40:42.209Z</time></trkpt><trkpt lat="43.39720167" lon="13.29776333"><ele>128.0</ele><time>2022-03-17T15:40:43.194Z</time></trkpt><trkpt lat="43.39720167" lon="13.29776333"><ele>128.0</ele><time>2022-03-17T15:40:44.180Z</time></trkpt><trkpt lat="43.39717" lon="13.29785333"><ele>129.0</ele><time>2022-03-17T15:40:45.190Z</time></trkpt><trkpt lat="43.39717" lon="13.29785333"><ele>129.0</ele><time>2022-03-17T15:40:46.208Z</time></trkpt><trkpt lat="43.39714167" lon="13.29796"><ele>129.0</ele><time>2022-03-17T15:40:47.177Z</time></trkpt><trkpt lat="43.39714167" lon="13.29796"><ele>129.0</ele><time>2022-03-17T15:40:48.197Z</time></trkpt><trkpt lat="43.39710167" lon="13.29806667"><ele>129.0</ele><time>2022-03-17T15:40:49.210Z</time></trkpt><trkpt lat="43.39708333" lon="13.29811333"><ele>129.0</ele><time>2022-03-17T15:40:50.179Z</time></trkpt><trkpt lat="43.397065" lon="13.29816333"><ele>129.0</ele><time>2022-03-17T15:40:51.195Z</time></trkpt><trkpt lat="43.397065" lon="13.29816333"><ele>129.0</ele><time>2022-03-17T15:40:52.183Z</time></trkpt><trkpt lat="43.39701833" lon="13.29827167"><ele>130.0</ele><time>2022-03-17T15:40:53.197Z</time></trkpt><trkpt lat="43.39701833" lon="13.29827167"><ele>130.0</ele><time>2022-03-17T15:40:54.178Z</time></trkpt><trkpt lat="43.396975" lon="13.29837667"><ele>130.0</ele><time>2022-03-17T15:40:55.192Z</time></trkpt><trkpt lat="43.396955" lon="13.29843"><ele>130.0</ele><time>2022-03-17T15:40:56.212Z</time></trkpt><trkpt lat="43.396955" lon="13.29843"><ele>130.0</ele><time>2022-03-17T15:40:57.181Z</time></trkpt><trkpt lat="43.396915" lon="13.29853333"><ele>131.0</ele><time>2022-03-17T15:40:58.191Z</time></trkpt><trkpt lat="43.396915" lon="13.29853333"><ele>131.0</ele><time>2022-03-17T15:40:59.178Z</time></trkpt><trkpt lat="43.39687333" lon="13.29863"><ele>131.0</ele><time>2022-03-17T15:41:00.190Z</time></trkpt><trkpt lat="43.39685667" lon="13.298685"><ele>130.0</ele><time>2022-03-17T15:41:01.216Z</time></trkpt><trkpt lat="43.39685667" lon="13.298685"><ele>130.0</ele><time>2022-03-17T15:41:02.176Z</time></trkpt><trkpt lat="43.39683167" lon="13.29879167"><ele>130.0</ele><time>2022-03-17T15:41:03.184Z</time></trkpt><trkpt lat="43.39681833" lon="13.29884333"><ele>130.0</ele><time>2022-03-17T15:41:04.203Z</time></trkpt><trkpt lat="43.39681833" lon="13.29884333"><ele>130.0</ele><time>2022-03-17T15:41:05.198Z</time></trkpt><trkpt lat="43.39679167" lon="13.29894333"><ele>130.0</ele><time>2022-03-17T15:41:06.207Z</time></trkpt><trkpt lat="43.39677667" lon="13.29899333"><ele>131.0</ele><time>2022-03-17T15:41:07.189Z</time></trkpt><trkpt lat="43.39677667" lon="13.29899333"><ele>131.0</ele><time>2022-03-17T15:41:08.205Z</time></trkpt><trkpt lat="43.396755" lon="13.2991"><ele>130.0</ele><time>2022-03-17T15:41:09.174Z</time></trkpt><trkpt lat="43.396755" lon="13.2991"><ele>130.0</ele><time>2022-03-17T15:41:10.204Z</time></trkpt><trkpt lat="43.39673" lon="13.29921167"><ele>130.0</ele><time>2022-03-17T15:41:11.175Z</time></trkpt><trkpt lat="43.39671833" lon="13.29926667"><ele>130.0</ele><time>2022-03-17T15:41:12.190Z</time></trkpt><trkpt lat="43.39671833" lon="13.29926667"><ele>130.0</ele><time>2022-03-17T15:41:13.210Z</time></trkpt><trkpt lat="43.3967" lon="13.29937667"><ele>130.0</ele><time>2022-03-17T15:41:14.181Z</time></trkpt><trkpt lat="43.39669" lon="13.29943167"><ele>130.0</ele><time>2022-03-17T15:41:15.208Z</time></trkpt><trkpt lat="43.39669" lon="13.29943167"><ele>130.0</ele><time>2022-03-17T15:41:16.177Z</time></trkpt><trkpt lat="43.39667333" lon="13.29954667"><ele>130.0</ele><time>2022-03-17T15:41:17.188Z</time></trkpt><trkpt lat="43.39666167" lon="13.29961"><ele>130.0</ele><time>2022-03-17T15:41:18.194Z</time></trkpt><trkpt lat="43.39666167" lon="13.29961"><ele>130.0</ele><time>2022-03-17T15:41:19.205Z</time></trkpt><trkpt lat="43.39664333" lon="13.29972333"><ele>130.0</ele><time>2022-03-17T15:41:20.177Z</time></trkpt><trkpt lat="43.396635" lon="13.299775"><ele>130.0</ele><time>2022-03-17T15:41:21.206Z</time></trkpt><trkpt lat="43.396635" lon="13.299775"><ele>130.0</ele><time>2022-03-17T15:41:22.186Z</time></trkpt><trkpt lat="43.39661667" lon="13.29988333"><ele>130.0</ele><time>2022-03-17T15:41:23.202Z</time></trkpt><trkpt lat="43.39661667" lon="13.29988333"><ele>130.0</ele><time>2022-03-17T15:41:24.199Z</time></trkpt><trkpt lat="43.396595" lon="13.29998667"><ele>130.0</ele><time>2022-03-17T15:41:25.213Z</time></trkpt><trkpt lat="43.396595" lon="13.29998667"><ele>130.0</ele><time>2022-03-17T15:41:26.193Z</time></trkpt><trkpt lat="43.39657833" lon="13.30008167"><ele>130.0</ele><time>2022-03-17T15:41:27.200Z</time></trkpt><trkpt lat="43.39657" lon="13.30012167"><ele>130.0</ele><time>2022-03-17T15:41:28.204Z</time></trkpt><trkpt lat="43.39657" lon="13.30012167"><ele>130.0</ele><time>2022-03-17T15:41:29.177Z</time></trkpt><trkpt lat="43.39655167" lon="13.30019167"><ele>130.0</ele><time>2022-03-17T15:41:30.186Z</time></trkpt><trkpt lat="43.39654333" lon="13.30021833"><ele>130.0</ele><time>2022-03-17T15:41:31.183Z</time></trkpt><trkpt lat="43.39654333" lon="13.30021833"><ele>130.0</ele><time>2022-03-17T15:41:32.204Z</time></trkpt><trkpt lat="43.39653333" lon="13.30026667"><ele>130.0</ele><time>2022-03-17T15:41:33.181Z</time></trkpt><trkpt lat="43.39653333" lon="13.30026667"><ele>130.0</ele><time>2022-03-17T15:41:34.197Z</time></trkpt><trkpt lat="43.396515" lon="13.300305"><ele>130.0</ele><time>2022-03-17T15:41:35.214Z</time></trkpt><trkpt lat="43.39650667" lon="13.30031833"><ele>130.0</ele><time>2022-03-17T15:41:36.190Z</time></trkpt><trkpt lat="43.3965" lon="13.30033333"><ele>129.0</ele><time>2022-03-17T15:41:37.203Z</time></trkpt><trkpt lat="43.3965" lon="13.30033333"><ele>129.0</ele><time>2022-03-17T15:41:38.211Z</time></trkpt><trkpt lat="43.39649667" lon="13.30035333"><ele>129.0</ele><time>2022-03-17T15:41:39.187Z</time></trkpt><trkpt lat="43.39649667" lon="13.30035333"><ele>129.0</ele><time>2022-03-17T15:41:40.174Z</time></trkpt><trkpt lat="43.39647667" lon="13.30037333"><ele>128.0</ele><time>2022-03-17T15:41:41.189Z</time></trkpt><trkpt lat="43.396505" lon="13.300355"><ele>133.0</ele><time>2022-03-17T15:41:42.212Z</time></trkpt><trkpt lat="43.396505" lon="13.30033833"><ele>133.0</ele><time>2022-03-17T15:41:43.187Z</time></trkpt><trkpt lat="43.396505" lon="13.30033833"><ele>133.0</ele><time>2022-03-17T15:41:59.188Z</time></trkpt><trkpt lat="43.39649833" lon="13.30028667"><ele>133.0</ele><time>2022-03-17T15:42:21.186Z</time></trkpt><trkpt lat="43.39649833" lon="13.30028667"><ele>133.0</ele><time>2022-03-17T15:42:22.194Z</time></trkpt><trkpt lat="43.39651" lon="13.300215"><ele>132.0</ele><time>2022-03-17T15:42:23.211Z</time></trkpt><trkpt lat="43.39651167" lon="13.30017333"><ele>132.0</ele><time>2022-03-17T15:42:24.199Z</time></trkpt><trkpt lat="43.39651167" lon="13.30017333"><ele>132.0</ele><time>2022-03-17T15:42:25.186Z</time></trkpt><trkpt lat="43.39650333" lon="13.30007833"><ele>132.0</ele><time>2022-03-17T15:42:26.198Z</time></trkpt><trkpt lat="43.39650333" lon="13.30007833"><ele>132.0</ele><time>2022-03-17T15:42:27.212Z</time></trkpt><trkpt lat="43.39645" lon="13.30004333"><ele>131.0</ele><time>2022-03-17T15:42:28.224Z</time></trkpt><trkpt lat="43.39642333" lon="13.30007333"><ele>131.0</ele><time>2022-03-17T15:42:29.198Z</time></trkpt><trkpt lat="43.39639833" lon="13.30012"><ele>131.0</ele><time>2022-03-17T15:42:30.219Z</time></trkpt><trkpt lat="43.39639833" lon="13.30012"><ele>131.0</ele><time>2022-03-17T15:42:31.219Z</time></trkpt><trkpt lat="43.39634667" lon="13.30019667"><ele>131.0</ele><time>2022-03-17T15:42:32.187Z</time></trkpt><trkpt lat="43.39634667" lon="13.30019667"><ele>131.0</ele><time>2022-03-17T15:42:33.208Z</time></trkpt><trkpt lat="43.39627667" lon="13.30024667"><ele>130.0</ele><time>2022-03-17T15:42:34.221Z</time></trkpt><trkpt lat="43.39627667" lon="13.30024667"><ele>130.0</ele><time>2022-03-17T15:42:35.197Z</time></trkpt><trkpt lat="43.396205" lon="13.30028"><ele>130.0</ele><time>2022-03-17T15:42:36.217Z</time></trkpt><trkpt lat="43.396205" lon="13.30028"><ele>130.0</ele><time>2022-03-17T15:42:37.191Z</time></trkpt><trkpt lat="43.39614" lon="13.30032667"><ele>130.0</ele><time>2022-03-17T15:42:38.204Z</time></trkpt><trkpt lat="43.39610667" lon="13.300355"><ele>129.0</ele><time>2022-03-17T15:42:39.200Z</time></trkpt><trkpt lat="43.39610667" lon="13.300355"><ele>129.0</ele><time>2022-03-17T15:42:40.206Z</time></trkpt><trkpt lat="43.39606333" lon="13.300435"><ele>129.0</ele><time>2022-03-17T15:42:41.215Z</time></trkpt><trkpt lat="43.39606333" lon="13.300435"><ele>129.0</ele><time>2022-03-17T15:42:42.197Z</time></trkpt><trkpt lat="43.39603667" lon="13.30052833"><ele>129.0</ele><time>2022-03-17T15:42:43.200Z</time></trkpt><trkpt lat="43.396025" lon="13.30057167"><ele>129.0</ele><time>2022-03-17T15:42:44.186Z</time></trkpt><trkpt lat="43.39601333" lon="13.30061"><ele>128.0</ele><time>2022-03-17T15:42:45.209Z</time></trkpt><trkpt lat="43.39601333" lon="13.30061"><ele>128.0</ele><time>2022-03-17T15:42:46.194Z</time></trkpt><trkpt lat="43.39598333" lon="13.30068167"><ele>128.0</ele><time>2022-03-17T15:42:47.210Z</time></trkpt><trkpt lat="43.39598333" lon="13.30068167"><ele>128.0</ele><time>2022-03-17T15:42:48.192Z</time></trkpt><trkpt lat="43.39593" lon="13.30074333"><ele>126.0</ele><time>2022-03-17T15:42:49.201Z</time></trkpt><trkpt lat="43.39593" lon="13.30074333"><ele>126.0</ele><time>2022-03-17T15:42:50.198Z</time></trkpt><trkpt lat="43.39586" lon="13.30077667"><ele>125.0</ele><time>2022-03-17T15:42:51.191Z</time></trkpt><trkpt lat="43.39581667" lon="13.30080167"><ele>125.0</ele><time>2022-03-17T15:42:52.191Z</time></trkpt><trkpt lat="43.39581667" lon="13.30080167"><ele>125.0</ele><time>2022-03-17T15:42:53.211Z</time></trkpt><trkpt lat="43.39573833" lon="13.30086667"><ele>124.0</ele><time>2022-03-17T15:42:54.222Z</time></trkpt><trkpt lat="43.39573833" lon="13.30086667"><ele>124.0</ele><time>2022-03-17T15:42:55.211Z</time></trkpt><trkpt lat="43.39565" lon="13.30092833"><ele>123.0</ele><time>2022-03-17T15:42:56.208Z</time></trkpt><trkpt lat="43.39561" lon="13.300965"><ele>123.0</ele><time>2022-03-17T15:42:57.212Z</time></trkpt><trkpt lat="43.39561" lon="13.300965"><ele>123.0</ele><time>2022-03-17T15:42:58.190Z</time></trkpt><trkpt lat="43.39553167" lon="13.30105333"><ele>122.0</ele><time>2022-03-17T15:42:59.207Z</time></trkpt><trkpt lat="43.39553167" lon="13.30105333"><ele>122.0</ele><time>2022-03-17T15:43:00.201Z</time></trkpt><trkpt lat="43.39543833" lon="13.301145"><ele>121.0</ele><time>2022-03-17T15:43:01.216Z</time></trkpt><trkpt lat="43.39543833" lon="13.301145"><ele>121.0</ele><time>2022-03-17T15:43:02.201Z</time></trkpt><trkpt lat="43.39534" lon="13.30125167"><ele>121.0</ele><time>2022-03-17T15:43:03.211Z</time></trkpt><trkpt lat="43.39534" lon="13.30125167"><ele>121.0</ele><time>2022-03-17T15:43:04.188Z</time></trkpt><trkpt lat="43.39525" lon="13.30137333"><ele>119.0</ele><time>2022-03-17T15:43:05.197Z</time></trkpt><trkpt lat="43.395205" lon="13.30144333"><ele>118.0</ele><time>2022-03-17T15:43:06.183Z</time></trkpt><trkpt lat="43.395205" lon="13.30144333"><ele>118.0</ele><time>2022-03-17T15:43:07.211Z</time></trkpt><trkpt lat="43.39511" lon="13.30157333"><ele>117.0</ele><time>2022-03-17T15:43:08.208Z</time></trkpt><trkpt lat="43.39505667" lon="13.30162833"><ele>117.0</ele><time>2022-03-17T15:43:09.210Z</time></trkpt><trkpt lat="43.39505667" lon="13.30162833"><ele>117.0</ele><time>2022-03-17T15:43:10.184Z</time></trkpt><trkpt lat="43.39495" lon="13.301755"><ele>116.0</ele><time>2022-03-17T15:43:11.195Z</time></trkpt><trkpt lat="43.39495" lon="13.301755"><ele>116.0</ele><time>2022-03-17T15:43:12.204Z</time></trkpt><trkpt lat="43.394845" lon="13.30183833"><ele>117.0</ele><time>2022-03-17T15:43:13.214Z</time></trkpt><trkpt lat="43.394845" lon="13.30183833"><ele>117.0</ele><time>2022-03-17T15:43:14.201Z</time></trkpt><trkpt lat="43.394725" lon="13.30186667"><ele>117.0</ele><time>2022-03-17T15:43:15.201Z</time></trkpt><trkpt lat="43.394725" lon="13.30186667"><ele>117.0</ele><time>2022-03-17T15:43:16.194Z</time></trkpt><trkpt lat="43.39459833" lon="13.30190167"><ele>116.0</ele><time>2022-03-17T15:43:17.210Z</time></trkpt><trkpt lat="43.39459833" lon="13.30190167"><ele>116.0</ele><time>2022-03-17T15:43:18.191Z</time></trkpt><trkpt lat="43.394465" lon="13.30192167"><ele>116.0</ele><time>2022-03-17T15:43:19.184Z</time></trkpt><trkpt lat="43.394465" lon="13.30192167"><ele>116.0</ele><time>2022-03-17T15:43:20.209Z</time></trkpt><trkpt lat="43.39434" lon="13.30194833"><ele>115.0</ele><time>2022-03-17T15:43:21.188Z</time></trkpt><trkpt lat="43.39434" lon="13.30194833"><ele>115.0</ele><time>2022-03-17T15:43:22.205Z</time></trkpt><trkpt lat="43.39421833" lon="13.30196"><ele>115.0</ele><time>2022-03-17T15:43:23.221Z</time></trkpt><trkpt lat="43.39421833" lon="13.30196"><ele>115.0</ele><time>2022-03-17T15:43:24.204Z</time></trkpt><trkpt lat="43.39413167" lon="13.301905"><ele>114.0</ele><time>2022-03-17T15:43:25.218Z</time></trkpt><trkpt lat="43.39410167" lon="13.30186"><ele>114.0</ele><time>2022-03-17T15:43:26.193Z</time></trkpt><trkpt lat="43.39407833" lon="13.30181333"><ele>113.0</ele><time>2022-03-17T15:43:27.211Z</time></trkpt><trkpt lat="43.39407833" lon="13.30181333"><ele>113.0</ele><time>2022-03-17T15:43:28.193Z</time></trkpt><trkpt lat="43.39404833" lon="13.30171667"><ele>113.0</ele><time>2022-03-17T15:43:29.201Z</time></trkpt><trkpt lat="43.39404333" lon="13.30166833"><ele>113.0</ele><time>2022-03-17T15:43:30.216Z</time></trkpt><trkpt lat="43.39404333" lon="13.30166833"><ele>113.0</ele><time>2022-03-17T15:43:31.209Z</time></trkpt><trkpt lat="43.39404167" lon="13.30157"><ele>112.0</ele><time>2022-03-17T15:43:32.215Z</time></trkpt><trkpt lat="43.39404167" lon="13.30153"><ele>112.0</ele><time>2022-03-17T15:43:33.196Z</time></trkpt><trkpt lat="43.39404167" lon="13.30153"><ele>112.0</ele><time>2022-03-17T15:43:34.215Z</time></trkpt><trkpt lat="43.39405667" lon="13.30146"><ele>111.0</ele><time>2022-03-17T15:43:35.184Z</time></trkpt><trkpt lat="43.39407167" lon="13.30143"><ele>110.0</ele><time>2022-03-17T15:43:36.196Z</time></trkpt><trkpt lat="43.39407167" lon="13.30143"><ele>110.0</ele><time>2022-03-17T15:43:37.193Z</time></trkpt><trkpt lat="43.39409833" lon="13.30137667"><ele>110.0</ele><time>2022-03-17T15:43:38.207Z</time></trkpt><trkpt lat="43.394115" lon="13.30135167"><ele>110.0</ele><time>2022-03-17T15:43:39.186Z</time></trkpt><trkpt lat="43.394115" lon="13.30135167"><ele>110.0</ele><time>2022-03-17T15:43:40.206Z</time></trkpt><trkpt lat="43.39414" lon="13.301295"><ele>110.0</ele><time>2022-03-17T15:43:41.219Z</time></trkpt><trkpt lat="43.39414" lon="13.301295"><ele>110.0</ele><time>2022-03-17T15:43:42.195Z</time></trkpt><trkpt lat="43.39417667" lon="13.30124167"><ele>110.0</ele><time>2022-03-17T15:43:43.203Z</time></trkpt><trkpt lat="43.39419833" lon="13.30122333"><ele>110.0</ele><time>2022-03-17T15:43:44.199Z</time></trkpt><trkpt lat="43.39419833" lon="13.30122333"><ele>110.0</ele><time>2022-03-17T15:43:45.216Z</time></trkpt><trkpt lat="43.39423833" lon="13.30118667"><ele>110.0</ele><time>2022-03-17T15:43:46.190Z</time></trkpt><trkpt lat="43.39423833" lon="13.30118667"><ele>110.0</ele><time>2022-03-17T15:43:47.215Z</time></trkpt><trkpt lat="43.39427667" lon="13.30114667"><ele>109.0</ele><time>2022-03-17T15:43:48.194Z</time></trkpt><trkpt lat="43.39427667" lon="13.30114667"><ele>109.0</ele><time>2022-03-17T15:43:49.196Z</time></trkpt><trkpt lat="43.394325" lon="13.30110333"><ele>109.0</ele><time>2022-03-17T15:43:50.212Z</time></trkpt><trkpt lat="43.39435" lon="13.30108833"><ele>109.0</ele><time>2022-03-17T15:43:51.200Z</time></trkpt><trkpt lat="43.39435" lon="13.30108833"><ele>109.0</ele><time>2022-03-17T15:43:52.184Z</time></trkpt><trkpt lat="43.39439167" lon="13.30106"><ele>109.0</ele><time>2022-03-17T15:43:53.210Z</time></trkpt><trkpt lat="43.39440667" lon="13.30104833"><ele>108.0</ele><time>2022-03-17T15:43:54.214Z</time></trkpt><trkpt lat="43.394415" lon="13.30104167"><ele>109.0</ele><time>2022-03-17T15:43:55.192Z</time></trkpt><trkpt lat="43.394415" lon="13.30104167"><ele>109.0</ele><time>2022-03-17T15:43:56.211Z</time></trkpt><trkpt lat="43.39442333" lon="13.30102833"><ele>109.0</ele><time>2022-03-17T15:43:57.226Z</time></trkpt><trkpt lat="43.39442167" lon="13.30102833"><ele>109.0</ele><time>2022-03-17T15:43:58.212Z</time></trkpt><trkpt lat="43.39440667" lon="13.30097667"><ele>107.0</ele><time>2022-03-17T15:43:59.195Z</time></trkpt><trkpt lat="43.39440667" lon="13.30097667"><ele>107.0</ele><time>2022-03-17T15:44:00.182Z</time></trkpt><trkpt lat="43.39442" lon="13.300915"><ele>107.0</ele><time>2022-03-17T15:44:01.211Z</time></trkpt><trkpt lat="43.39442" lon="13.30088"><ele>107.0</ele><time>2022-03-17T15:44:02.220Z</time></trkpt><trkpt lat="43.39442" lon="13.30088"><ele>107.0</ele><time>2022-03-17T15:44:03.184Z</time></trkpt><trkpt lat="43.394415" lon="13.300805"><ele>108.0</ele><time>2022-03-17T15:44:04.195Z</time></trkpt><trkpt lat="43.39441167" lon="13.30076667"><ele>108.0</ele><time>2022-03-17T15:44:05.217Z</time></trkpt><trkpt lat="43.39441167" lon="13.30076667"><ele>108.0</ele><time>2022-03-17T15:44:06.189Z</time></trkpt><trkpt lat="43.39440167" lon="13.30067333"><ele>108.0</ele><time>2022-03-17T15:44:07.198Z</time></trkpt><trkpt lat="43.39440167" lon="13.30067333"><ele>108.0</ele><time>2022-03-17T15:44:08.197Z</time></trkpt><trkpt lat="43.39438167" lon="13.30057167"><ele>107.0</ele><time>2022-03-17T15:44:09.208Z</time></trkpt><trkpt lat="43.394375" lon="13.30052"><ele>108.0</ele><time>2022-03-17T15:44:10.216Z</time></trkpt><trkpt lat="43.394375" lon="13.30052"><ele>108.0</ele><time>2022-03-17T15:44:11.182Z</time></trkpt><trkpt lat="43.39435833" lon="13.300415"><ele>108.0</ele><time>2022-03-17T15:44:12.196Z</time></trkpt><trkpt lat="43.39435833" lon="13.300415"><ele>108.0</ele><time>2022-03-17T15:44:13.207Z</time></trkpt><trkpt lat="43.39434" lon="13.30031833"><ele>109.0</ele><time>2022-03-17T15:44:14.186Z</time></trkpt><trkpt lat="43.39433667" lon="13.30028667"><ele>110.0</ele><time>2022-03-17T15:44:15.216Z</time></trkpt><trkpt lat="43.39433667" lon="13.30028667"><ele>110.0</ele><time>2022-03-17T15:44:16.193Z</time></trkpt><trkpt lat="43.39433167" lon="13.30025833"><ele>110.0</ele><time>2022-03-17T15:44:17.204Z</time></trkpt><trkpt lat="43.39433" lon="13.30025333"><ele>111.0</ele><time>2022-03-17T15:44:18.205Z</time></trkpt><trkpt lat="43.39433" lon="13.30025333"><ele>111.0</ele><time>2022-03-17T15:44:19.182Z</time></trkpt><trkpt lat="43.39432167" lon="13.30027667"><ele>108.0</ele><time>2022-03-17T15:44:20.198Z</time></trkpt><trkpt lat="43.39432167" lon="13.30027667"><ele>108.0</ele><time>2022-03-17T15:44:21.218Z</time></trkpt><trkpt lat="43.39434667" lon="13.30033833"><ele>108.0</ele><time>2022-03-17T15:44:22.187Z</time></trkpt><trkpt lat="43.39434667" lon="13.30033833"><ele>108.0</ele><time>2022-03-17T15:44:23.220Z</time></trkpt><trkpt lat="43.394355" lon="13.30039167"><ele>107.0</ele><time>2022-03-17T15:44:24.221Z</time></trkpt><trkpt lat="43.394355" lon="13.30039167"><ele>107.0</ele><time>2022-03-17T15:44:25.191Z</time></trkpt><trkpt lat="43.394345" lon="13.30045"><ele>106.0</ele><time>2022-03-17T15:44:26.188Z</time></trkpt><trkpt lat="43.394345" lon="13.30045"><ele>106.0</ele><time>2022-03-17T15:44:27.194Z</time></trkpt><trkpt lat="43.39433833" lon="13.300505"><ele>106.0</ele><time>2022-03-17T15:44:28.212Z</time></trkpt><trkpt lat="43.39434" lon="13.30054167"><ele>106.0</ele><time>2022-03-17T15:44:29.193Z</time></trkpt><trkpt lat="43.39434" lon="13.30058167"><ele>106.0</ele><time>2022-03-17T15:44:30.214Z</time></trkpt><trkpt lat="43.39434" lon="13.30058167"><ele>106.0</ele><time>2022-03-17T15:44:31.221Z</time></trkpt><trkpt lat="43.39434333" lon="13.30066667"><ele>105.0</ele><time>2022-03-17T15:44:32.197Z</time></trkpt><trkpt lat="43.39434333" lon="13.30070833"><ele>105.0</ele><time>2022-03-17T15:44:33.192Z</time></trkpt><trkpt lat="43.39434333" lon="13.30070833"><ele>105.0</ele><time>2022-03-17T15:44:34.198Z</time></trkpt><trkpt lat="43.394345" lon="13.30078833"><ele>104.0</ele><time>2022-03-17T15:44:35.221Z</time></trkpt><trkpt lat="43.394345" lon="13.30078833"><ele>104.0</ele><time>2022-03-17T15:44:36.187Z</time></trkpt><trkpt lat="43.394355" lon="13.300865"><ele>104.0</ele><time>2022-03-17T15:44:37.209Z</time></trkpt><trkpt lat="43.39436167" lon="13.30090167"><ele>104.0</ele><time>2022-03-17T15:44:38.191Z</time></trkpt><trkpt lat="43.39436167" lon="13.30090167"><ele>104.0</ele><time>2022-03-17T15:44:39.197Z</time></trkpt><trkpt lat="43.39438667" lon="13.30096833"><ele>104.0</ele><time>2022-03-17T15:44:40.210Z</time></trkpt><trkpt lat="43.39438667" lon="13.30096833"><ele>104.0</ele><time>2022-03-17T15:44:41.215Z</time></trkpt><trkpt lat="43.39440833" lon="13.30102333"><ele>104.0</ele><time>2022-03-17T15:44:42.198Z</time></trkpt><trkpt lat="43.394415" lon="13.30103333"><ele>104.0</ele><time>2022-03-17T15:44:43.216Z</time></trkpt><trkpt lat="43.39441667" lon="13.30103667"><ele>103.0</ele><time>2022-03-17T15:44:44.199Z</time></trkpt><trkpt lat="43.39441667" lon="13.30103667"><ele>103.0</ele><time>2022-03-17T15:44:45.211Z</time></trkpt><trkpt lat="43.39441667" lon="13.30104"><ele>103.0</ele><time>2022-03-17T15:44:46.198Z</time></trkpt><trkpt lat="43.39436833" lon="13.30114333"><ele>102.0</ele><time>2022-03-17T15:44:47.202Z</time></trkpt><trkpt lat="43.39436833" lon="13.30114333"><ele>102.0</ele><time>2022-03-17T15:44:48.191Z</time></trkpt><trkpt lat="43.39431167" lon="13.30115833"><ele>102.0</ele><time>2022-03-17T15:44:49.195Z</time></trkpt><trkpt lat="43.39431167" lon="13.30115833"><ele>102.0</ele><time>2022-03-17T15:44:50.191Z</time></trkpt><trkpt lat="43.39426" lon="13.30117667"><ele>102.0</ele><time>2022-03-17T15:44:51.201Z</time></trkpt><trkpt lat="43.39426" lon="13.30117667"><ele>102.0</ele><time>2022-03-17T15:44:52.203Z</time></trkpt><trkpt lat="43.39419" lon="13.30124667"><ele>102.0</ele><time>2022-03-17T15:44:53.214Z</time></trkpt><trkpt lat="43.39415667" lon="13.30128833"><ele>102.0</ele><time>2022-03-17T15:44:54.200Z</time></trkpt><trkpt lat="43.39415667" lon="13.30128833"><ele>102.0</ele><time>2022-03-17T15:44:55.196Z</time></trkpt><trkpt lat="43.39409" lon="13.30137"><ele>102.0</ele><time>2022-03-17T15:44:56.212Z</time></trkpt><trkpt lat="43.39406833" lon="13.30142167"><ele>102.0</ele><time>2022-03-17T15:44:57.191Z</time></trkpt><trkpt lat="43.39406833" lon="13.30142167"><ele>102.0</ele><time>2022-03-17T15:44:58.214Z</time></trkpt><trkpt lat="43.39403167" lon="13.30153833"><ele>101.0</ele><time>2022-03-17T15:44:59.186Z</time></trkpt><trkpt lat="43.39401833" lon="13.3016"><ele>101.0</ele><time>2022-03-17T15:45:00.200Z</time></trkpt><trkpt lat="43.39401833" lon="13.3016"><ele>101.0</ele><time>2022-03-17T15:45:01.186Z</time></trkpt><trkpt lat="43.39402167" lon="13.30172167"><ele>102.0</ele><time>2022-03-17T15:45:02.195Z</time></trkpt><trkpt lat="43.39402167" lon="13.30172167"><ele>102.0</ele><time>2022-03-17T15:45:03.219Z</time></trkpt><trkpt lat="43.39404667" lon="13.30180167"><ele>102.0</ele><time>2022-03-17T15:45:04.184Z</time></trkpt><trkpt lat="43.394075" lon="13.30183667"><ele>102.0</ele><time>2022-03-17T15:45:05.221Z</time></trkpt><trkpt lat="43.394075" lon="13.30183667"><ele>102.0</ele><time>2022-03-17T15:45:06.212Z</time></trkpt><trkpt lat="43.39414167" lon="13.3019"><ele>102.0</ele><time>2022-03-17T15:45:07.190Z</time></trkpt><trkpt lat="43.39414167" lon="13.3019"><ele>102.0</ele><time>2022-03-17T15:45:08.204Z</time></trkpt><trkpt lat="43.39423167" lon="13.30192667"><ele>102.0</ele><time>2022-03-17T15:45:09.224Z</time></trkpt><trkpt lat="43.39423167" lon="13.30192667"><ele>102.0</ele><time>2022-03-17T15:45:10.191Z</time></trkpt><trkpt lat="43.39432333" lon="13.30191"><ele>103.0</ele><time>2022-03-17T15:45:11.203Z</time></trkpt><trkpt lat="43.39432333" lon="13.30191"><ele>103.0</ele><time>2022-03-17T15:45:12.192Z</time></trkpt><trkpt lat="43.394395" lon="13.301895"><ele>104.0</ele><time>2022-03-17T15:45:13.204Z</time></trkpt><trkpt lat="43.394395" lon="13.301895"><ele>104.0</ele><time>2022-03-17T15:45:14.194Z</time></trkpt><trkpt lat="43.394455" lon="13.30190333"><ele>105.0</ele><time>2022-03-17T15:45:15.205Z</time></trkpt><trkpt lat="43.394455" lon="13.30190333"><ele>105.0</ele><time>2022-03-17T15:45:16.184Z</time></trkpt><trkpt lat="43.39452" lon="13.30189333"><ele>105.0</ele><time>2022-03-17T15:45:17.201Z</time></trkpt><trkpt lat="43.39452" lon="13.30189333"><ele>105.0</ele><time>2022-03-17T15:45:18.194Z</time></trkpt><trkpt lat="43.39456333" lon="13.30188"><ele>105.0</ele><time>2022-03-17T15:45:19.191Z</time></trkpt><trkpt lat="43.39456333" lon="13.30188"><ele>105.0</ele><time>2022-03-17T15:45:20.208Z</time></trkpt><trkpt lat="43.39461" lon="13.301865"><ele>107.0</ele><time>2022-03-17T15:45:21.225Z</time></trkpt><trkpt lat="43.39461" lon="13.301865"><ele>107.0</ele><time>2022-03-17T15:45:22.212Z</time></trkpt><trkpt lat="43.394655" lon="13.30186"><ele>108.0</ele><time>2022-03-17T15:45:23.195Z</time></trkpt><trkpt lat="43.39467667" lon="13.30185667"><ele>108.0</ele><time>2022-03-17T15:45:24.196Z</time></trkpt><trkpt lat="43.39467667" lon="13.30185667"><ele>108.0</ele><time>2022-03-17T15:45:25.188Z</time></trkpt><trkpt lat="43.39471333" lon="13.30184667"><ele>109.0</ele><time>2022-03-17T15:45:26.205Z</time></trkpt><trkpt lat="43.39473333" lon="13.30183833"><ele>109.0</ele><time>2022-03-17T15:45:27.201Z</time></trkpt><trkpt lat="43.39473333" lon="13.30183833"><ele>109.0</ele><time>2022-03-17T15:45:28.221Z</time></trkpt><trkpt lat="43.39477167" lon="13.30182333"><ele>110.0</ele><time>2022-03-17T15:45:29.195Z</time></trkpt><trkpt lat="43.39477167" lon="13.30182333"><ele>110.0</ele><time>2022-03-17T15:45:30.186Z</time></trkpt><trkpt lat="43.39480667" lon="13.30181667"><ele>111.0</ele><time>2022-03-17T15:45:31.186Z</time></trkpt><trkpt lat="43.394825" lon="13.30180833"><ele>111.0</ele><time>2022-03-17T15:45:32.195Z</time></trkpt><trkpt lat="43.394825" lon="13.30180833"><ele>111.0</ele><time>2022-03-17T15:45:33.208Z</time></trkpt><trkpt lat="43.39487" lon="13.30179667"><ele>112.0</ele><time>2022-03-17T15:45:34.216Z</time></trkpt><trkpt lat="43.39487" lon="13.30179667"><ele>112.0</ele><time>2022-03-17T15:45:35.188Z</time></trkpt><trkpt lat="43.39491667" lon="13.301755"><ele>112.0</ele><time>2022-03-17T15:45:36.207Z</time></trkpt><trkpt lat="43.39491667" lon="13.301755"><ele>112.0</ele><time>2022-03-17T15:45:37.186Z</time></trkpt><trkpt lat="43.39496667" lon="13.30172167"><ele>112.0</ele><time>2022-03-17T15:45:38.207Z</time></trkpt><trkpt lat="43.39496667" lon="13.30172167"><ele>112.0</ele><time>2022-03-17T15:46:06.205Z</time></trkpt><trkpt lat="43.39500833" lon="13.301685"><ele>113.0</ele><time>2022-03-17T15:46:07.222Z</time></trkpt><trkpt lat="43.39500833" lon="13.301685"><ele>113.0</ele><time>2022-03-17T15:46:08.210Z</time></trkpt><trkpt lat="43.39504167" lon="13.30164167"><ele>113.0</ele><time>2022-03-17T15:46:09.221Z</time></trkpt><trkpt lat="43.39504167" lon="13.30164167"><ele>113.0</ele><time>2022-03-17T15:46:10.195Z</time></trkpt><trkpt lat="43.39506333" lon="13.30159833"><ele>114.0</ele><time>2022-03-17T15:46:11.221Z</time></trkpt><trkpt lat="43.39506333" lon="13.30159833"><ele>114.0</ele><time>2022-03-17T15:46:12.197Z</time></trkpt><trkpt lat="43.39509" lon="13.30154833"><ele>115.0</ele><time>2022-03-17T15:46:13.210Z</time></trkpt><trkpt lat="43.39509" lon="13.30154833"><ele>115.0</ele><time>2022-03-17T15:46:14.194Z</time></trkpt><trkpt lat="43.39512333" lon="13.30149167"><ele>115.0</ele><time>2022-03-17T15:46:15.215Z</time></trkpt><trkpt lat="43.39514" lon="13.30146833"><ele>116.0</ele><time>2022-03-17T15:46:16.198Z</time></trkpt><trkpt lat="43.39514" lon="13.30146833"><ele>116.0</ele><time>2022-03-17T15:46:17.195Z</time></trkpt><trkpt lat="43.39518167" lon="13.30142"><ele>116.0</ele><time>2022-03-17T15:46:18.204Z</time></trkpt><trkpt lat="43.39518167" lon="13.30142"><ele>116.0</ele><time>2022-03-17T15:46:19.215Z</time></trkpt><trkpt lat="43.395215" lon="13.30137833"><ele>116.0</ele><time>2022-03-17T15:46:20.186Z</time></trkpt><trkpt lat="43.39523167" lon="13.30136"><ele>116.0</ele><time>2022-03-17T15:46:21.203Z</time></trkpt><trkpt lat="43.39523167" lon="13.30136"><ele>116.0</ele><time>2022-03-17T15:46:22.214Z</time></trkpt><trkpt lat="43.395255" lon="13.30132167"><ele>116.0</ele><time>2022-03-17T15:46:23.192Z</time></trkpt><trkpt lat="43.39527" lon="13.30130167"><ele>117.0</ele><time>2022-03-17T15:46:24.219Z</time></trkpt><trkpt lat="43.39527" lon="13.30130167"><ele>117.0</ele><time>2022-03-17T15:46:25.193Z</time></trkpt><trkpt lat="43.39530333" lon="13.30126667"><ele>116.0</ele><time>2022-03-17T15:46:26.208Z</time></trkpt><trkpt lat="43.39530333" lon="13.30126667"><ele>116.0</ele><time>2022-03-17T15:46:27.221Z</time></trkpt><trkpt lat="43.39533167" lon="13.30122333"><ele>116.0</ele><time>2022-03-17T15:46:28.192Z</time></trkpt><trkpt lat="43.39533167" lon="13.30122333"><ele>116.0</ele><time>2022-03-17T15:46:29.216Z</time></trkpt><trkpt lat="43.39536" lon="13.30120833"><ele>116.0</ele><time>2022-03-17T15:46:30.191Z</time></trkpt><trkpt lat="43.39537" lon="13.30120333"><ele>116.0</ele><time>2022-03-17T15:46:31.186Z</time></trkpt><trkpt lat="43.39537" lon="13.30120333"><ele>116.0</ele><time>2022-03-17T15:46:32.198Z</time></trkpt><trkpt lat="43.39539667" lon="13.301185"><ele>116.0</ele><time>2022-03-17T15:46:33.219Z</time></trkpt><trkpt lat="43.39539667" lon="13.301185"><ele>116.0</ele><time>2022-03-17T15:46:34.199Z</time></trkpt><trkpt lat="43.395425" lon="13.30116"><ele>116.0</ele><time>2022-03-17T15:46:35.186Z</time></trkpt><trkpt lat="43.39544" lon="13.30115"><ele>116.0</ele><time>2022-03-17T15:46:36.192Z</time></trkpt><trkpt lat="43.39544" lon="13.30115"><ele>116.0</ele><time>2022-03-17T15:46:37.214Z</time></trkpt><trkpt lat="43.39545333" lon="13.30113667"><ele>116.0</ele><time>2022-03-17T15:46:38.190Z</time></trkpt><trkpt lat="43.39545333" lon="13.30113833"><ele>116.0</ele><time>2022-03-17T15:46:39.210Z</time></trkpt><trkpt lat="43.39545333" lon="13.30113833"><ele>116.0</ele><time>2022-03-17T15:46:40.191Z</time></trkpt><trkpt lat="43.39549167" lon="13.30108667"><ele>115.0</ele><time>2022-03-17T15:46:41.214Z</time></trkpt><trkpt lat="43.39549167" lon="13.30108667"><ele>115.0</ele><time>2022-03-17T15:46:42.184Z</time></trkpt><trkpt lat="43.39552167" lon="13.30104167"><ele>115.0</ele><time>2022-03-17T15:46:43.202Z</time></trkpt><trkpt lat="43.39552167" lon="13.30104167"><ele>115.0</ele><time>2022-03-17T15:46:44.208Z</time></trkpt><trkpt lat="43.39555833" lon="13.301"><ele>116.0</ele><time>2022-03-17T15:46:45.220Z</time></trkpt><trkpt lat="43.39555833" lon="13.301"><ele>116.0</ele><time>2022-03-17T15:46:46.215Z</time></trkpt><trkpt lat="43.39559667" lon="13.30096"><ele>116.0</ele><time>2022-03-17T15:46:47.184Z</time></trkpt><trkpt lat="43.39561" lon="13.30094667"><ele>116.0</ele><time>2022-03-17T15:46:48.200Z</time></trkpt><trkpt lat="43.39561" lon="13.30094667"><ele>116.0</ele><time>2022-03-17T15:46:49.217Z</time></trkpt><trkpt lat="43.39562833" lon="13.30094"><ele>116.0</ele><time>2022-03-17T15:46:50.188Z</time></trkpt><trkpt lat="43.39563667" lon="13.30093333"><ele>117.0</ele><time>2022-03-17T15:46:51.222Z</time></trkpt><trkpt lat="43.39563667" lon="13.30093333"><ele>117.0</ele><time>2022-03-17T15:46:52.205Z</time></trkpt><trkpt lat="43.39565167" lon="13.30091833"><ele>117.0</ele><time>2022-03-17T15:46:53.214Z</time></trkpt><trkpt lat="43.39565167" lon="13.30091833"><ele>117.0</ele><time>2022-03-17T15:46:54.198Z</time></trkpt><trkpt lat="43.39567167" lon="13.3009"><ele>118.0</ele><time>2022-03-17T15:46:55.209Z</time></trkpt><trkpt lat="43.39567167" lon="13.3009"><ele>118.0</ele><time>2022-03-17T15:46:56.190Z</time></trkpt><trkpt lat="43.39569333" lon="13.30087167"><ele>118.0</ele><time>2022-03-17T15:46:57.212Z</time></trkpt><trkpt lat="43.39569333" lon="13.30087167"><ele>118.0</ele><time>2022-03-17T15:46:58.191Z</time></trkpt><trkpt lat="43.39570833" lon="13.30084667"><ele>119.0</ele><time>2022-03-17T15:46:59.205Z</time></trkpt><trkpt lat="43.395715" lon="13.30083333"><ele>119.0</ele><time>2022-03-17T15:47:00.190Z</time></trkpt><trkpt lat="43.395715" lon="13.30083333"><ele>119.0</ele><time>2022-03-17T15:47:01.202Z</time></trkpt><trkpt lat="43.39573333" lon="13.30082"><ele>120.0</ele><time>2022-03-17T15:47:02.217Z</time></trkpt><trkpt lat="43.39574333" lon="13.300815"><ele>120.0</ele><time>2022-03-17T15:47:03.199Z</time></trkpt><trkpt lat="43.39575667" lon="13.30081167"><ele>120.0</ele><time>2022-03-17T15:47:04.189Z</time></trkpt><trkpt lat="43.39575667" lon="13.30081167"><ele>120.0</ele><time>2022-03-17T15:47:05.194Z</time></trkpt><trkpt lat="43.39578" lon="13.30078833"><ele>121.0</ele><time>2022-03-17T15:47:06.207Z</time></trkpt><trkpt lat="43.39578" lon="13.30078833"><ele>121.0</ele><time>2022-03-17T15:47:07.189Z</time></trkpt><trkpt lat="43.39582167" lon="13.30077333"><ele>122.0</ele><time>2022-03-17T15:47:08.220Z</time></trkpt><trkpt lat="43.39584167" lon="13.30077"><ele>122.0</ele><time>2022-03-17T15:47:09.199Z</time></trkpt><trkpt lat="43.39584167" lon="13.30077"><ele>122.0</ele><time>2022-03-17T15:47:10.204Z</time></trkpt><trkpt lat="43.39587667" lon="13.300785"><ele>122.0</ele><time>2022-03-17T15:47:11.186Z</time></trkpt><trkpt lat="43.39589" lon="13.30080333"><ele>123.0</ele><time>2022-03-17T15:47:12.208Z</time></trkpt><trkpt lat="43.39589" lon="13.30080333"><ele>123.0</ele><time>2022-03-17T15:47:13.221Z</time></trkpt><trkpt lat="43.39592333" lon="13.300835"><ele>123.0</ele><time>2022-03-17T15:47:14.196Z</time></trkpt><trkpt lat="43.39592333" lon="13.300835"><ele>123.0</ele><time>2022-03-17T15:47:15.214Z</time></trkpt><trkpt lat="43.39595333" lon="13.30080833"><ele>123.0</ele><time>2022-03-17T15:47:16.191Z</time></trkpt><trkpt lat="43.39595333" lon="13.30080833"><ele>123.0</ele><time>2022-03-17T15:47:17.216Z</time></trkpt><trkpt lat="43.39596333" lon="13.30078333"><ele>123.0</ele><time>2022-03-17T15:47:18.194Z</time></trkpt><trkpt lat="43.395965" lon="13.30078333"><ele>123.0</ele><time>2022-03-17T15:47:19.192Z</time></trkpt><trkpt lat="43.395965" lon="13.30078333"><ele>123.0</ele><time>2022-03-17T15:47:20.195Z</time></trkpt><trkpt lat="43.395965" lon="13.30078333"><ele>123.0</ele><time>2022-03-17T15:47:21.217Z</time></trkpt><trkpt lat="43.395965" lon="13.30078333"><ele>123.0</ele><time>2022-03-17T15:47:22.205Z</time></trkpt><trkpt lat="43.39601667" lon="13.30069667"><ele>123.0</ele><time>2022-03-17T15:47:23.197Z</time></trkpt><trkpt lat="43.39601667" lon="13.30069667"><ele>123.0</ele><time>2022-03-17T15:47:24.203Z</time></trkpt><trkpt lat="43.39606833" lon="13.30069333"><ele>123.0</ele><time>2022-03-17T15:47:25.221Z</time></trkpt><trkpt lat="43.39609" lon="13.30068667"><ele>123.0</ele><time>2022-03-17T15:47:26.213Z</time></trkpt><trkpt lat="43.39609" lon="13.30068667"><ele>123.0</ele><time>2022-03-17T15:47:27.219Z</time></trkpt><trkpt lat="43.39613667" lon="13.30068333"><ele>123.0</ele><time>2022-03-17T15:47:28.203Z</time></trkpt><trkpt lat="43.39615833" lon="13.300685"><ele>123.0</ele><time>2022-03-17T15:47:29.183Z</time></trkpt><trkpt lat="43.39615833" lon="13.300685"><ele>123.0</ele><time>2022-03-17T15:47:30.197Z</time></trkpt><trkpt lat="43.396205" lon="13.30068833"><ele>123.0</ele><time>2022-03-17T15:47:31.214Z</time></trkpt><trkpt lat="43.396205" lon="13.30068833"><ele>123.0</ele><time>2022-03-17T15:47:32.220Z</time></trkpt><trkpt lat="43.39626333" lon="13.30067167"><ele>123.0</ele><time>2022-03-17T15:48:36.201Z</time></trkpt><trkpt lat="43.39628167" lon="13.30066"><ele>123.0</ele><time>2022-03-17T15:48:37.216Z</time></trkpt><trkpt lat="43.39628167" lon="13.30066"><ele>123.0</ele><time>2022-03-17T15:48:38.223Z</time></trkpt><trkpt lat="43.39633333" lon="13.30066667"><ele>124.0</ele><time>2022-03-17T15:48:39.198Z</time></trkpt><trkpt lat="43.39633333" lon="13.30066667"><ele>124.0</ele><time>2022-03-17T15:48:40.204Z</time></trkpt><trkpt lat="43.39638667" lon="13.30068333"><ele>124.0</ele><time>2022-03-17T15:48:41.224Z</time></trkpt><trkpt lat="43.39638667" lon="13.30068333"><ele>124.0</ele><time>2022-03-17T15:48:42.190Z</time></trkpt><trkpt lat="43.39642667" lon="13.30067667"><ele>124.0</ele><time>2022-03-17T15:48:43.202Z</time></trkpt><trkpt lat="43.39642667" lon="13.30067667"><ele>124.0</ele><time>2022-03-17T15:48:44.257Z</time></trkpt><trkpt lat="43.39645667" lon="13.30068667"><ele>125.0</ele><time>2022-03-17T15:48:45.343Z</time></trkpt><trkpt lat="43.39645667" lon="13.30068667"><ele>125.0</ele><time>2022-03-17T15:48:46.194Z</time></trkpt><trkpt lat="43.396465" lon="13.30074333"><ele>126.0</ele><time>2022-03-17T15:48:47.222Z</time></trkpt><trkpt lat="43.396465" lon="13.30074333"><ele>126.0</ele><time>2022-03-17T15:48:48.229Z</time></trkpt><trkpt lat="43.39645667" lon="13.30081"><ele>127.0</ele><time>2022-03-17T15:48:49.220Z</time></trkpt><trkpt lat="43.39645167" lon="13.300845"><ele>127.0</ele><time>2022-03-17T15:48:50.199Z</time></trkpt><trkpt lat="43.39645167" lon="13.300845"><ele>127.0</ele><time>2022-03-17T15:48:51.206Z</time></trkpt><trkpt lat="43.39644" lon="13.30091667"><ele>127.0</ele><time>2022-03-17T15:48:52.230Z</time></trkpt><trkpt lat="43.39644" lon="13.30091667"><ele>127.0</ele><time>2022-03-17T15:48:53.201Z</time></trkpt><trkpt lat="43.396425" lon="13.301005"><ele>128.0</ele><time>2022-03-17T15:48:54.215Z</time></trkpt><trkpt lat="43.396425" lon="13.301005"><ele>128.0</ele><time>2022-03-17T15:48:55.222Z</time></trkpt><trkpt lat="43.39642" lon="13.3011"><ele>128.0</ele><time>2022-03-17T15:48:56.206Z</time></trkpt><trkpt lat="43.396415" lon="13.301145"><ele>128.0</ele><time>2022-03-17T15:48:57.219Z</time></trkpt><trkpt lat="43.396415" lon="13.301145"><ele>128.0</ele><time>2022-03-17T15:48:58.226Z</time></trkpt><trkpt lat="43.39640667" lon="13.301235"><ele>128.0</ele><time>2022-03-17T15:48:59.224Z</time></trkpt><trkpt lat="43.39640167" lon="13.301285"><ele>128.0</ele><time>2022-03-17T15:49:06.195Z</time></trkpt><trkpt lat="43.39640167" lon="13.301285"><ele>128.0</ele><time>2022-03-17T15:49:07.202Z</time></trkpt><trkpt lat="43.39638833" lon="13.30138167"><ele>128.0</ele><time>2022-03-17T15:49:08.181Z</time></trkpt><trkpt lat="43.39638833" lon="13.30138167"><ele>128.0</ele><time>2022-03-17T15:49:09.187Z</time></trkpt><trkpt lat="43.39637333" lon="13.30148"><ele>128.0</ele><time>2022-03-17T15:49:10.175Z</time></trkpt><trkpt lat="43.39637333" lon="13.30148"><ele>128.0</ele><time>2022-03-17T15:49:11.182Z</time></trkpt><trkpt lat="43.39636" lon="13.30158333"><ele>128.0</ele><time>2022-03-17T15:49:12.205Z</time></trkpt><trkpt lat="43.39636" lon="13.30158333"><ele>128.0</ele><time>2022-03-17T15:49:13.174Z</time></trkpt><trkpt lat="43.39634667" lon="13.30168833"><ele>128.0</ele><time>2022-03-17T15:49:14.176Z</time></trkpt><trkpt lat="43.39634667" lon="13.30168833"><ele>128.0</ele><time>2022-03-17T15:49:15.196Z</time></trkpt><trkpt lat="43.39634" lon="13.30179333"><ele>128.0</ele><time>2022-03-17T15:49:16.171Z</time></trkpt><trkpt lat="43.39634" lon="13.30179333"><ele>128.0</ele><time>2022-03-17T15:49:17.178Z</time></trkpt><trkpt lat="43.39633333" lon="13.30190333"><ele>128.0</ele><time>2022-03-17T15:49:18.206Z</time></trkpt><trkpt lat="43.39633333" lon="13.30190333"><ele>128.0</ele><time>2022-03-17T15:49:19.172Z</time></trkpt><trkpt lat="43.39632333" lon="13.30200833"><ele>128.0</ele><time>2022-03-17T15:49:20.187Z</time></trkpt><trkpt lat="43.39632333" lon="13.30200833"><ele>128.0</ele><time>2022-03-17T15:49:21.209Z</time></trkpt><trkpt lat="43.396315" lon="13.302115"><ele>128.0</ele><time>2022-03-17T15:49:22.195Z</time></trkpt><trkpt lat="43.396315" lon="13.302115"><ele>128.0</ele><time>2022-03-17T15:49:23.201Z</time></trkpt><trkpt lat="43.39630833" lon="13.30221833"><ele>128.0</ele><time>2022-03-17T15:49:24.182Z</time></trkpt><trkpt lat="43.39630833" lon="13.30221833"><ele>128.0</ele><time>2022-03-17T15:49:25.191Z</time></trkpt><trkpt lat="43.396295" lon="13.30232333"><ele>128.0</ele><time>2022-03-17T15:49:26.172Z</time></trkpt><trkpt lat="43.396295" lon="13.30232333"><ele>128.0</ele><time>2022-03-17T15:49:27.181Z</time></trkpt><trkpt lat="43.39627833" lon="13.30243167"><ele>129.0</ele><time>2022-03-17T15:49:28.207Z</time></trkpt><trkpt lat="43.39627833" lon="13.30243167"><ele>129.0</ele><time>2022-03-17T15:49:29.173Z</time></trkpt><trkpt lat="43.39626667" lon="13.302545"><ele>129.0</ele><time>2022-03-17T15:49:30.200Z</time></trkpt><trkpt lat="43.39626667" lon="13.302545"><ele>129.0</ele><time>2022-03-17T15:49:31.207Z</time></trkpt><trkpt lat="43.39626167" lon="13.30266333"><ele>129.0</ele><time>2022-03-17T15:49:32.191Z</time></trkpt><trkpt lat="43.39626167" lon="13.30266333"><ele>129.0</ele><time>2022-03-17T15:49:33.188Z</time></trkpt><trkpt lat="43.39626667" lon="13.302785"><ele>129.0</ele><time>2022-03-17T15:49:34.183Z</time></trkpt><trkpt lat="43.39628333" lon="13.30283333"><ele>130.0</ele><time>2022-03-17T15:49:35.209Z</time></trkpt><trkpt lat="43.39628333" lon="13.30283333"><ele>130.0</ele><time>2022-03-17T15:49:36.175Z</time></trkpt><trkpt lat="43.39635167" lon="13.30288"><ele>130.0</ele><time>2022-03-17T15:49:37.174Z</time></trkpt><trkpt lat="43.39635167" lon="13.30288"><ele>130.0</ele><time>2022-03-17T15:49:38.181Z</time></trkpt><trkpt lat="43.39643167" lon="13.30290833"><ele>131.0</ele><time>2022-03-17T15:49:39.191Z</time></trkpt><trkpt lat="43.39643167" lon="13.30290833"><ele>131.0</ele><time>2022-03-17T15:49:40.197Z</time></trkpt><trkpt lat="43.396535" lon="13.30294333"><ele>131.0</ele><time>2022-03-17T15:49:41.181Z</time></trkpt><trkpt lat="43.396535" lon="13.30294333"><ele>131.0</ele><time>2022-03-17T15:49:42.190Z</time></trkpt><trkpt lat="43.39662167" lon="13.30298"><ele>131.0</ele><time>2022-03-17T15:49:43.184Z</time></trkpt><trkpt lat="43.39662167" lon="13.30298"><ele>131.0</ele><time>2022-03-17T15:49:44.191Z</time></trkpt><trkpt lat="43.39670167" lon="13.30299667"><ele>132.0</ele><time>2022-03-17T15:49:45.178Z</time></trkpt><trkpt lat="43.39670167" lon="13.30299667"><ele>132.0</ele><time>2022-03-17T15:49:46.185Z</time></trkpt><trkpt lat="43.39678833" lon="13.30302167"><ele>132.0</ele><time>2022-03-17T15:49:47.177Z</time></trkpt><trkpt lat="43.39678833" lon="13.30302167"><ele>132.0</ele><time>2022-03-17T15:49:48.200Z</time></trkpt><trkpt lat="43.39686167" lon="13.30304833"><ele>132.0</ele><time>2022-03-17T15:49:49.201Z</time></trkpt><trkpt lat="43.39686167" lon="13.30304833"><ele>132.0</ele><time>2022-03-17T15:49:50.183Z</time></trkpt><trkpt lat="43.396925" lon="13.30307"><ele>132.0</ele><time>2022-03-17T15:49:51.176Z</time></trkpt><trkpt lat="43.396925" lon="13.30307"><ele>132.0</ele><time>2022-03-17T15:49:52.184Z</time></trkpt><trkpt lat="43.39699167" lon="13.30309"><ele>132.0</ele><time>2022-03-17T15:49:53.170Z</time></trkpt><trkpt lat="43.39702333" lon="13.3031"><ele>132.0</ele><time>2022-03-17T15:49:54.190Z</time></trkpt><trkpt lat="43.39702333" lon="13.3031"><ele>132.0</ele><time>2022-03-17T15:49:55.195Z</time></trkpt><trkpt lat="43.39708833" lon="13.30312833"><ele>132.0</ele><time>2022-03-17T15:49:56.170Z</time></trkpt><trkpt lat="43.39708833" lon="13.30312833"><ele>132.0</ele><time>2022-03-17T15:49:57.182Z</time></trkpt><trkpt lat="43.39716" lon="13.30315167"><ele>132.0</ele><time>2022-03-17T15:49:58.201Z</time></trkpt><trkpt lat="43.397195" lon="13.30316"><ele>132.0</ele><time>2022-03-17T15:49:59.180Z</time></trkpt><trkpt lat="43.397195" lon="13.30316"><ele>132.0</ele><time>2022-03-17T15:50:00.187Z</time></trkpt><trkpt lat="43.39726167" lon="13.30318333"><ele>132.0</ele><time>2022-03-17T15:50:01.192Z</time></trkpt><trkpt lat="43.39729333" lon="13.303195"><ele>133.0</ele><time>2022-03-17T15:50:02.193Z</time></trkpt><trkpt lat="43.39729333" lon="13.303195"><ele>133.0</ele><time>2022-03-17T15:50:03.201Z</time></trkpt><trkpt lat="43.39735833" lon="13.30321"><ele>133.0</ele><time>2022-03-17T15:50:04.196Z</time></trkpt><trkpt lat="43.39739" lon="13.30321333"><ele>133.0</ele><time>2022-03-17T15:50:05.181Z</time></trkpt><trkpt lat="43.39739" lon="13.30321333"><ele>133.0</ele><time>2022-03-17T15:50:06.188Z</time></trkpt><trkpt lat="43.39745" lon="13.30321833"><ele>133.0</ele><time>2022-03-17T15:50:07.172Z</time></trkpt><trkpt lat="43.397475" lon="13.30322167"><ele>133.0</ele><time>2022-03-17T15:50:08.201Z</time></trkpt><trkpt lat="43.397475" lon="13.30322167"><ele>133.0</ele><time>2022-03-17T15:50:09.209Z</time></trkpt><trkpt lat="43.39752833" lon="13.30321667"><ele>134.0</ele><time>2022-03-17T15:50:10.199Z</time></trkpt><trkpt lat="43.39755333" lon="13.30321167"><ele>134.0</ele><time>2022-03-17T15:50:11.184Z</time></trkpt><trkpt lat="43.39755333" lon="13.30321167"><ele>134.0</ele><time>2022-03-17T15:50:12.191Z</time></trkpt><trkpt lat="43.39760167" lon="13.303205"><ele>135.0</ele><time>2022-03-17T15:50:13.206Z</time></trkpt><trkpt lat="43.39760167" lon="13.303205"><ele>135.0</ele><time>2022-03-17T15:50:14.172Z</time></trkpt><trkpt lat="43.39764" lon="13.30319167"><ele>135.0</ele><time>2022-03-17T15:50:15.184Z</time></trkpt><trkpt lat="43.39764" lon="13.30319167"><ele>135.0</ele><time>2022-03-17T15:50:16.190Z</time></trkpt><trkpt lat="43.39768167" lon="13.303175"><ele>136.0</ele><time>2022-03-17T15:50:17.181Z</time></trkpt><trkpt lat="43.39768167" lon="13.303175"><ele>136.0</ele><time>2022-03-17T15:51:13.737Z</time></trkpt><trkpt lat="43.39772333" lon="13.303155"><ele>137.0</ele><time>2022-03-17T15:51:14.751Z</time></trkpt><trkpt lat="43.39772333" lon="13.303155"><ele>137.0</ele><time>2022-03-17T15:51:15.718Z</time></trkpt><trkpt lat="43.397765" lon="13.303135"><ele>138.0</ele><time>2022-03-17T15:51:16.751Z</time></trkpt><trkpt lat="43.397765" lon="13.303135"><ele>138.0</ele><time>2022-03-17T15:51:17.717Z</time></trkpt><trkpt lat="43.39781" lon="13.30312167"><ele>138.0</ele><time>2022-03-17T15:51:18.743Z</time></trkpt><trkpt lat="43.39781" lon="13.30312167"><ele>138.0</ele><time>2022-03-17T15:51:19.720Z</time></trkpt><trkpt lat="43.39785833" lon="13.30310667"><ele>139.0</ele><time>2022-03-17T15:51:20.751Z</time></trkpt><trkpt lat="43.39785833" lon="13.30310667"><ele>139.0</ele><time>2022-03-17T15:51:21.717Z</time></trkpt><trkpt lat="43.39790333" lon="13.30309333"><ele>139.0</ele><time>2022-03-17T15:51:22.738Z</time></trkpt><trkpt lat="43.39790333" lon="13.30309333"><ele>139.0</ele><time>2022-03-17T15:51:23.744Z</time></trkpt><trkpt lat="43.39794833" lon="13.30307833"><ele>139.0</ele><time>2022-03-17T15:51:24.734Z</time></trkpt><trkpt lat="43.39794833" lon="13.30307833"><ele>139.0</ele><time>2022-03-17T15:51:25.741Z</time></trkpt><trkpt lat="43.39799667" lon="13.30306667"><ele>139.0</ele><time>2022-03-17T15:51:26.724Z</time></trkpt><trkpt lat="43.39799667" lon="13.30306667"><ele>139.0</ele><time>2022-03-17T15:51:27.741Z</time></trkpt><trkpt lat="43.39804333" lon="13.30305333"><ele>140.0</ele><time>2022-03-17T15:51:28.715Z</time></trkpt><trkpt lat="43.39804333" lon="13.30305333"><ele>140.0</ele><time>2022-03-17T15:51:29.725Z</time></trkpt><trkpt lat="43.39809" lon="13.30303333"><ele>140.0</ele><time>2022-03-17T15:51:30.723Z</time></trkpt><trkpt lat="43.39809" lon="13.30303333"><ele>140.0</ele><time>2022-03-17T15:51:31.730Z</time></trkpt><trkpt lat="43.39813167" lon="13.30302667"><ele>140.0</ele><time>2022-03-17T15:51:32.753Z</time></trkpt><trkpt lat="43.39815333" lon="13.30302167"><ele>140.0</ele><time>2022-03-17T15:51:33.749Z</time></trkpt><trkpt lat="43.39815333" lon="13.30302167"><ele>140.0</ele><time>2022-03-17T15:51:34.716Z</time></trkpt><trkpt lat="43.39819833" lon="13.30301667"><ele>141.0</ele><time>2022-03-17T15:51:35.748Z</time></trkpt><trkpt lat="43.39821667" lon="13.303005"><ele>142.0</ele><time>2022-03-17T15:51:36.721Z</time></trkpt><trkpt lat="43.39821667" lon="13.303005"><ele>142.0</ele><time>2022-03-17T15:51:37.729Z</time></trkpt><trkpt lat="43.39826667" lon="13.303"><ele>142.0</ele><time>2022-03-17T15:51:38.744Z</time></trkpt><trkpt lat="43.39826667" lon="13.303"><ele>142.0</ele><time>2022-03-17T15:51:39.751Z</time></trkpt><trkpt lat="43.39831167" lon="13.30298667"><ele>141.0</ele><time>2022-03-17T15:51:40.731Z</time></trkpt><trkpt lat="43.39833333" lon="13.302985"><ele>142.0</ele><time>2022-03-17T15:51:41.746Z</time></trkpt><trkpt lat="43.39835833" lon="13.30298333"><ele>142.0</ele><time>2022-03-17T15:51:42.731Z</time></trkpt><trkpt lat="43.39835833" lon="13.30298333"><ele>142.0</ele><time>2022-03-17T15:51:43.738Z</time></trkpt><trkpt lat="43.398405" lon="13.30296833"><ele>142.0</ele><time>2022-03-17T15:51:44.722Z</time></trkpt><trkpt lat="43.398405" lon="13.30296833"><ele>142.0</ele><time>2022-03-17T15:51:45.793Z</time></trkpt><trkpt lat="43.39846333" lon="13.30296833"><ele>141.0</ele><time>2022-03-17T15:51:46.723Z</time></trkpt><trkpt lat="43.39846333" lon="13.30296833"><ele>141.0</ele><time>2022-03-17T15:51:47.729Z</time></trkpt><trkpt lat="43.39851667" lon="13.30296667"><ele>141.0</ele><time>2022-03-17T15:51:48.749Z</time></trkpt><trkpt lat="43.39851667" lon="13.30296667"><ele>141.0</ele><time>2022-03-17T15:51:49.715Z</time></trkpt><trkpt lat="43.39857167" lon="13.30296333"><ele>141.0</ele><time>2022-03-17T15:51:50.749Z</time></trkpt><trkpt lat="43.39859667" lon="13.30296"><ele>141.0</ele><time>2022-03-17T15:51:51.745Z</time></trkpt><trkpt lat="43.39859667" lon="13.30296"><ele>141.0</ele><time>2022-03-17T15:51:52.752Z</time></trkpt><trkpt lat="43.39864667" lon="13.30295333"><ele>141.0</ele><time>2022-03-17T15:51:53.739Z</time></trkpt><trkpt lat="43.39867" lon="13.30295"><ele>141.0</ele><time>2022-03-17T15:51:54.726Z</time></trkpt><trkpt lat="43.39867" lon="13.30295"><ele>141.0</ele><time>2022-03-17T15:51:55.733Z</time></trkpt><trkpt lat="43.39872" lon="13.30295167"><ele>141.0</ele><time>2022-03-17T15:51:56.718Z</time></trkpt><trkpt lat="43.39872" lon="13.30295167"><ele>141.0</ele><time>2022-03-17T15:51:57.726Z</time></trkpt><trkpt lat="43.398765" lon="13.30295"><ele>141.0</ele><time>2022-03-17T15:51:58.750Z</time></trkpt><trkpt lat="43.398765" lon="13.30295"><ele>141.0</ele><time>2022-03-17T15:51:59.717Z</time></trkpt><trkpt lat="43.39881167" lon="13.30295333"><ele>142.0</ele><time>2022-03-17T15:52:00.740Z</time></trkpt><trkpt lat="43.39881167" lon="13.30295333"><ele>142.0</ele><time>2022-03-17T15:52:01.746Z</time></trkpt><trkpt lat="43.39886" lon="13.30295667"><ele>142.0</ele><time>2022-03-17T15:52:02.721Z</time></trkpt><trkpt lat="43.39886" lon="13.30295667"><ele>142.0</ele><time>2022-03-17T15:52:03.728Z</time></trkpt><trkpt lat="43.39891" lon="13.30295833"><ele>143.0</ele><time>2022-03-17T15:52:04.714Z</time></trkpt><trkpt lat="43.39891" lon="13.30295833"><ele>143.0</ele><time>2022-03-17T15:52:05.727Z</time></trkpt><trkpt lat="43.39896" lon="13.30296667"><ele>143.0</ele><time>2022-03-17T15:52:06.720Z</time></trkpt><trkpt lat="43.39896" lon="13.30296667"><ele>143.0</ele><time>2022-03-17T15:52:07.727Z</time></trkpt><trkpt lat="43.39900833" lon="13.30296833"><ele>144.0</ele><time>2022-03-17T15:52:08.717Z</time></trkpt><trkpt lat="43.39900833" lon="13.30296833"><ele>144.0</ele><time>2022-03-17T15:52:09.724Z</time></trkpt><trkpt lat="43.39905833" lon="13.302975"><ele>144.0</ele><time>2022-03-17T15:52:10.728Z</time></trkpt><trkpt lat="43.39905833" lon="13.302975"><ele>144.0</ele><time>2022-03-17T15:52:11.734Z</time></trkpt><trkpt lat="43.39910667" lon="13.30298"><ele>145.0</ele><time>2022-03-17T15:52:12.731Z</time></trkpt><trkpt lat="43.39913" lon="13.30298167"><ele>145.0</ele><time>2022-03-17T15:52:13.737Z</time></trkpt><trkpt lat="43.39913" lon="13.30298167"><ele>145.0</ele><time>2022-03-17T15:52:14.744Z</time></trkpt><trkpt lat="43.39918" lon="13.30299167"><ele>146.0</ele><time>2022-03-17T15:52:15.725Z</time></trkpt><trkpt lat="43.39918" lon="13.30299167"><ele>146.0</ele><time>2022-03-17T15:52:16.732Z</time></trkpt><trkpt lat="43.39922833" lon="13.30301333"><ele>146.0</ele><time>2022-03-17T15:52:17.716Z</time></trkpt><trkpt lat="43.39925333" lon="13.30302"><ele>146.0</ele><time>2022-03-17T15:52:18.748Z</time></trkpt><trkpt lat="43.39925333" lon="13.30302"><ele>146.0</ele><time>2022-03-17T15:52:19.715Z</time></trkpt><trkpt lat="43.399305" lon="13.30303333"><ele>146.0</ele><time>2022-03-17T15:52:20.722Z</time></trkpt><trkpt lat="43.399305" lon="13.30303333"><ele>146.0</ele><time>2022-03-17T15:52:21.729Z</time></trkpt><trkpt lat="43.399355" lon="13.303045"><ele>147.0</ele><time>2022-03-17T15:52:22.717Z</time></trkpt><trkpt lat="43.39937833" lon="13.30304833"><ele>147.0</ele><time>2022-03-17T15:52:23.737Z</time></trkpt><trkpt lat="43.39940333" lon="13.30305667"><ele>147.0</ele><time>2022-03-17T15:52:24.732Z</time></trkpt><trkpt lat="43.39940333" lon="13.30305667"><ele>147.0</ele><time>2022-03-17T15:52:25.739Z</time></trkpt><trkpt lat="43.39945333" lon="13.303075"><ele>147.0</ele><time>2022-03-17T15:52:26.725Z</time></trkpt><trkpt lat="43.39948" lon="13.30308333"><ele>147.0</ele><time>2022-03-17T15:52:27.752Z</time></trkpt><trkpt lat="43.39948" lon="13.30308333"><ele>147.0</ele><time>2022-03-17T15:52:28.734Z</time></trkpt><trkpt lat="43.39952833" lon="13.30310167"><ele>148.0</ele><time>2022-03-17T15:52:29.718Z</time></trkpt><trkpt lat="43.39952833" lon="13.30310167"><ele>148.0</ele><time>2022-03-17T15:52:30.739Z</time></trkpt><trkpt lat="43.39957833" lon="13.30311833"><ele>148.0</ele><time>2022-03-17T15:52:31.732Z</time></trkpt><trkpt lat="43.39957833" lon="13.30311833"><ele>148.0</ele><time>2022-03-17T15:52:32.738Z</time></trkpt><trkpt lat="43.39963" lon="13.303135"><ele>149.0</ele><time>2022-03-17T15:52:33.716Z</time></trkpt><trkpt lat="43.39963" lon="13.303135"><ele>149.0</ele><time>2022-03-17T15:52:34.722Z</time></trkpt><trkpt lat="43.399685" lon="13.30315333"><ele>149.0</ele><time>2022-03-17T15:52:35.743Z</time></trkpt><trkpt lat="43.39971" lon="13.30316333"><ele>149.0</ele><time>2022-03-17T15:52:36.720Z</time></trkpt><trkpt lat="43.39971" lon="13.30316333"><ele>149.0</ele><time>2022-03-17T15:52:37.729Z</time></trkpt><trkpt lat="43.399765" lon="13.30318333"><ele>150.0</ele><time>2022-03-17T15:52:38.753Z</time></trkpt><trkpt lat="43.399765" lon="13.30318333"><ele>150.0</ele><time>2022-03-17T15:52:39.719Z</time></trkpt><trkpt lat="43.39982" lon="13.30320333"><ele>150.0</ele><time>2022-03-17T15:52:40.752Z</time></trkpt><trkpt lat="43.39982" lon="13.30320333"><ele>150.0</ele><time>2022-03-17T15:52:41.718Z</time></trkpt><trkpt lat="43.399875" lon="13.303225"><ele>150.0</ele><time>2022-03-17T15:52:42.739Z</time></trkpt><trkpt lat="43.399875" lon="13.303225"><ele>150.0</ele><time>2022-03-17T15:52:43.746Z</time></trkpt><trkpt lat="43.39992667" lon="13.30324333"><ele>150.0</ele><time>2022-03-17T15:52:44.724Z</time></trkpt><trkpt lat="43.39992667" lon="13.30324333"><ele>150.0</ele><time>2022-03-17T15:52:45.784Z</time></trkpt><trkpt lat="43.39998167" lon="13.30326167"><ele>150.0</ele><time>2022-03-17T15:52:46.745Z</time></trkpt><trkpt lat="43.39998167" lon="13.30326167"><ele>150.0</ele><time>2022-03-17T15:52:47.751Z</time></trkpt><trkpt lat="43.400035" lon="13.30327667"><ele>151.0</ele><time>2022-03-17T15:52:48.735Z</time></trkpt><trkpt lat="43.400035" lon="13.30327667"><ele>151.0</ele><time>2022-03-17T15:52:49.741Z</time></trkpt><trkpt lat="43.40008833" lon="13.30328667"><ele>151.0</ele><time>2022-03-17T15:52:50.739Z</time></trkpt><trkpt lat="43.400115" lon="13.30329"><ele>151.0</ele><time>2022-03-17T15:52:51.731Z</time></trkpt><trkpt lat="43.400115" lon="13.30329"><ele>151.0</ele><time>2022-03-17T15:52:52.737Z</time></trkpt><trkpt lat="43.40017" lon="13.30329667"><ele>151.0</ele><time>2022-03-17T15:52:53.718Z</time></trkpt><trkpt lat="43.40019667" lon="13.30329833"><ele>151.0</ele><time>2022-03-17T15:52:54.743Z</time></trkpt><trkpt lat="43.40019667" lon="13.30329833"><ele>151.0</ele><time>2022-03-17T15:52:55.749Z</time></trkpt><trkpt lat="43.40025333" lon="13.30330667"><ele>152.0</ele><time>2022-03-17T15:52:56.730Z</time></trkpt><trkpt lat="43.40028167" lon="13.30331167"><ele>152.0</ele><time>2022-03-17T15:52:57.730Z</time></trkpt><trkpt lat="43.40028167" lon="13.30331167"><ele>152.0</ele><time>2022-03-17T15:52:58.736Z</time></trkpt><trkpt lat="43.40033667" lon="13.30331667"><ele>152.0</ele><time>2022-03-17T15:52:59.726Z</time></trkpt><trkpt lat="43.40036333" lon="13.30332167"><ele>153.0</ele><time>2022-03-17T15:53:00.745Z</time></trkpt><trkpt lat="43.40036333" lon="13.30332167"><ele>153.0</ele><time>2022-03-17T15:53:01.751Z</time></trkpt><trkpt lat="43.400425" lon="13.30333167"><ele>153.0</ele><time>2022-03-17T15:53:02.739Z</time></trkpt><trkpt lat="43.400455" lon="13.303335"><ele>153.0</ele><time>2022-03-17T15:53:03.720Z</time></trkpt><trkpt lat="43.400455" lon="13.303335"><ele>153.0</ele><time>2022-03-17T15:53:04.729Z</time></trkpt><trkpt lat="43.40051667" lon="13.30334833"><ele>153.0</ele><time>2022-03-17T15:53:05.715Z</time></trkpt><trkpt lat="43.40051667" lon="13.30334833"><ele>153.0</ele><time>2022-03-17T15:53:06.722Z</time></trkpt><trkpt lat="43.40057333" lon="13.30335667"><ele>154.0</ele><time>2022-03-17T15:53:07.748Z</time></trkpt><trkpt lat="43.40057333" lon="13.30335667"><ele>154.0</ele><time>2022-03-17T15:53:08.715Z</time></trkpt><trkpt lat="43.40063667" lon="13.30337"><ele>153.0</ele><time>2022-03-17T15:53:09.736Z</time></trkpt><trkpt lat="43.40063667" lon="13.30337"><ele>153.0</ele><time>2022-03-17T15:53:10.741Z</time></trkpt><trkpt lat="43.400695" lon="13.303375"><ele>154.0</ele><time>2022-03-17T15:53:11.730Z</time></trkpt><trkpt lat="43.400695" lon="13.303375"><ele>154.0</ele><time>2022-03-17T15:53:12.737Z</time></trkpt><trkpt lat="43.400755" lon="13.303375"><ele>154.0</ele><time>2022-03-17T15:53:13.726Z</time></trkpt><trkpt lat="43.400755" lon="13.303375"><ele>154.0</ele><time>2022-03-17T15:53:14.732Z</time></trkpt><trkpt lat="43.40081167" lon="13.30336"><ele>155.0</ele><time>2022-03-17T15:53:15.718Z</time></trkpt><trkpt lat="43.40081167" lon="13.30336"><ele>155.0</ele><time>2022-03-17T15:53:16.728Z</time></trkpt><trkpt lat="43.40087667" lon="13.303345"><ele>155.0</ele><time>2022-03-17T15:53:17.752Z</time></trkpt><trkpt lat="43.40091167" lon="13.30333333"><ele>155.0</ele><time>2022-03-17T15:53:18.748Z</time></trkpt><trkpt lat="43.40091167" lon="13.30333333"><ele>155.0</ele><time>2022-03-17T15:53:19.715Z</time></trkpt><trkpt lat="43.40097833" lon="13.30330667"><ele>155.0</ele><time>2022-03-17T15:53:20.745Z</time></trkpt><trkpt lat="43.40097833" lon="13.30330667"><ele>155.0</ele><time>2022-03-17T15:53:21.715Z</time></trkpt><trkpt lat="43.40104" lon="13.303275"><ele>155.0</ele><time>2022-03-17T15:53:22.748Z</time></trkpt><trkpt lat="43.40104" lon="13.303275"><ele>155.0</ele><time>2022-03-17T15:53:23.736Z</time></trkpt><trkpt lat="43.40109833" lon="13.30324"><ele>156.0</ele><time>2022-03-17T15:53:24.751Z</time></trkpt><trkpt lat="43.40109833" lon="13.30324"><ele>156.0</ele><time>2022-03-17T15:53:25.717Z</time></trkpt><trkpt lat="43.40115667" lon="13.30320167"><ele>156.0</ele><time>2022-03-17T15:53:26.739Z</time></trkpt><trkpt lat="43.40118333" lon="13.30318167"><ele>156.0</ele><time>2022-03-17T15:53:27.726Z</time></trkpt><trkpt lat="43.40118333" lon="13.30318167"><ele>156.0</ele><time>2022-03-17T15:53:28.732Z</time></trkpt><trkpt lat="43.40124167" lon="13.30314167"><ele>156.0</ele><time>2022-03-17T15:53:29.725Z</time></trkpt><trkpt lat="43.40124167" lon="13.30314167"><ele>156.0</ele><time>2022-03-17T15:53:30.731Z</time></trkpt><trkpt lat="43.40130167" lon="13.30309667"><ele>156.0</ele><time>2022-03-17T15:53:31.753Z</time></trkpt><trkpt lat="43.40133333" lon="13.303075"><ele>156.0</ele><time>2022-03-17T15:53:32.739Z</time></trkpt><trkpt lat="43.40133333" lon="13.303075"><ele>156.0</ele><time>2022-03-17T15:53:33.747Z</time></trkpt><trkpt lat="43.401395" lon="13.30303167"><ele>157.0</ele><time>2022-03-17T15:53:34.735Z</time></trkpt><trkpt lat="43.401395" lon="13.30303167"><ele>157.0</ele><time>2022-03-17T15:53:35.742Z</time></trkpt><trkpt lat="43.40145667" lon="13.30298333"><ele>157.0</ele><time>2022-03-17T15:53:36.737Z</time></trkpt><trkpt lat="43.40145667" lon="13.30298333"><ele>157.0</ele><time>2022-03-17T15:53:37.745Z</time></trkpt><trkpt lat="43.40151833" lon="13.30294167"><ele>158.0</ele><time>2022-03-17T15:53:38.727Z</time></trkpt><trkpt lat="43.40151833" lon="13.30294167"><ele>158.0</ele><time>2022-03-17T15:53:39.737Z</time></trkpt><trkpt lat="43.40157833" lon="13.30289667"><ele>158.0</ele><time>2022-03-17T15:53:40.749Z</time></trkpt><trkpt lat="43.40157833" lon="13.30289667"><ele>158.0</ele><time>2022-03-17T15:53:41.715Z</time></trkpt><trkpt lat="43.40164" lon="13.30285667"><ele>158.0</ele><time>2022-03-17T15:53:42.752Z</time></trkpt><trkpt lat="43.40164" lon="13.30285667"><ele>158.0</ele><time>2022-03-17T15:53:43.719Z</time></trkpt><trkpt lat="43.40170167" lon="13.30281333"><ele>158.0</ele><time>2022-03-17T15:53:44.748Z</time></trkpt><trkpt lat="43.40170167" lon="13.30281333"><ele>158.0</ele><time>2022-03-17T15:53:45.794Z</time></trkpt><trkpt lat="43.401765" lon="13.302775"><ele>159.0</ele><time>2022-03-17T15:53:46.732Z</time></trkpt><trkpt lat="43.401765" lon="13.302775"><ele>159.0</ele><time>2022-03-17T15:53:47.738Z</time></trkpt><trkpt lat="43.40182833" lon="13.30272833"><ele>159.0</ele><time>2022-03-17T15:53:48.716Z</time></trkpt><trkpt lat="43.40182833" lon="13.30272833"><ele>159.0</ele><time>2022-03-17T15:53:49.725Z</time></trkpt><trkpt lat="43.40189333" lon="13.30268333"><ele>159.0</ele><time>2022-03-17T15:53:50.754Z</time></trkpt><trkpt lat="43.40189333" lon="13.30268333"><ele>159.0</ele><time>2022-03-17T15:53:51.726Z</time></trkpt><trkpt lat="43.40195667" lon="13.30263667"><ele>160.0</ele><time>2022-03-17T15:53:52.748Z</time></trkpt><trkpt lat="43.40199167" lon="13.302615"><ele>160.0</ele><time>2022-03-17T15:53:53.731Z</time></trkpt><trkpt lat="43.40199167" lon="13.302615"><ele>160.0</ele><time>2022-03-17T15:53:54.737Z</time></trkpt><trkpt lat="43.40206" lon="13.302575"><ele>159.0</ele><time>2022-03-17T15:53:55.728Z</time></trkpt><trkpt lat="43.40206" lon="13.302575"><ele>159.0</ele><time>2022-03-17T15:53:56.734Z</time></trkpt><trkpt lat="43.40213" lon="13.30253167"><ele>159.0</ele><time>2022-03-17T15:53:57.724Z</time></trkpt><trkpt lat="43.40213" lon="13.30253167"><ele>159.0</ele><time>2022-03-17T15:53:58.731Z</time></trkpt><trkpt lat="43.4022" lon="13.30248667"><ele>160.0</ele><time>2022-03-17T15:53:59.747Z</time></trkpt><trkpt lat="43.40223667" lon="13.30246333"><ele>160.0</ele><time>2022-03-17T15:54:00.728Z</time></trkpt><trkpt lat="43.40223667" lon="13.30246333"><ele>160.0</ele><time>2022-03-17T15:54:01.735Z</time></trkpt><trkpt lat="43.40230833" lon="13.30241667"><ele>160.0</ele><time>2022-03-17T15:54:02.725Z</time></trkpt><trkpt lat="43.40234667" lon="13.30239333"><ele>160.0</ele><time>2022-03-17T15:54:03.750Z</time></trkpt><trkpt lat="43.40234667" lon="13.30239333"><ele>160.0</ele><time>2022-03-17T15:54:04.717Z</time></trkpt><trkpt lat="43.40242167" lon="13.30234"><ele>160.0</ele><time>2022-03-17T15:54:05.746Z</time></trkpt><trkpt lat="43.40242167" lon="13.30234"><ele>160.0</ele><time>2022-03-17T15:54:06.752Z</time></trkpt><trkpt lat="43.402495" lon="13.30228667"><ele>160.0</ele><time>2022-03-17T15:54:07.739Z</time></trkpt><trkpt lat="43.402495" lon="13.30228667"><ele>160.0</ele><time>2022-03-17T15:54:08.745Z</time></trkpt><trkpt lat="43.40257167" lon="13.30224333"><ele>160.0</ele><time>2022-03-17T15:54:09.742Z</time></trkpt><trkpt lat="43.40257167" lon="13.30224333"><ele>160.0</ele><time>2022-03-17T15:54:10.748Z</time></trkpt><trkpt lat="43.40263833" lon="13.30218833"><ele>160.0</ele><time>2022-03-17T15:54:11.729Z</time></trkpt><trkpt lat="43.40267" lon="13.30216333"><ele>160.0</ele><time>2022-03-17T15:54:12.751Z</time></trkpt><trkpt lat="43.40267" lon="13.30216333"><ele>160.0</ele><time>2022-03-17T15:54:13.718Z</time></trkpt><trkpt lat="43.40273333" lon="13.30211167"><ele>161.0</ele><time>2022-03-17T15:54:14.753Z</time></trkpt><trkpt lat="43.40276333" lon="13.30208333"><ele>161.0</ele><time>2022-03-17T15:54:15.730Z</time></trkpt><trkpt lat="43.40276333" lon="13.30208333"><ele>161.0</ele><time>2022-03-17T15:54:16.737Z</time></trkpt><trkpt lat="43.40282333" lon="13.302035"><ele>161.0</ele><time>2022-03-17T15:54:17.720Z</time></trkpt><trkpt lat="43.40285667" lon="13.302015"><ele>161.0</ele><time>2022-03-17T15:54:18.750Z</time></trkpt><trkpt lat="43.40285667" lon="13.302015"><ele>161.0</ele><time>2022-03-17T15:54:19.716Z</time></trkpt><trkpt lat="43.402915" lon="13.30197167"><ele>161.0</ele><time>2022-03-17T15:54:20.714Z</time></trkpt><trkpt lat="43.402915" lon="13.30197167"><ele>161.0</ele><time>2022-03-17T15:54:21.724Z</time></trkpt><trkpt lat="43.402975" lon="13.30191833"><ele>162.0</ele><time>2022-03-17T15:54:22.748Z</time></trkpt><trkpt lat="43.402975" lon="13.30191833"><ele>162.0</ele><time>2022-03-17T15:54:23.714Z</time></trkpt><trkpt lat="43.40303667" lon="13.30188167"><ele>162.0</ele><time>2022-03-17T15:54:24.729Z</time></trkpt><trkpt lat="43.40303667" lon="13.30188167"><ele>162.0</ele><time>2022-03-17T15:54:25.736Z</time></trkpt><trkpt lat="43.40309667" lon="13.301845"><ele>163.0</ele><time>2022-03-17T15:54:26.747Z</time></trkpt><trkpt lat="43.40312833" lon="13.30182667"><ele>163.0</ele><time>2022-03-17T15:54:27.722Z</time></trkpt><trkpt lat="43.40312833" lon="13.30182667"><ele>163.0</ele><time>2022-03-17T15:54:28.728Z</time></trkpt><trkpt lat="43.40318833" lon="13.30179333"><ele>164.0</ele><time>2022-03-17T15:54:29.753Z</time></trkpt><trkpt lat="43.40321667" lon="13.30177333"><ele>164.0</ele><time>2022-03-17T15:54:30.728Z</time></trkpt><trkpt lat="43.40321667" lon="13.30177333"><ele>164.0</ele><time>2022-03-17T15:54:31.736Z</time></trkpt><trkpt lat="43.40327667" lon="13.30173833"><ele>165.0</ele><time>2022-03-17T15:54:32.723Z</time></trkpt><trkpt lat="43.40330833" lon="13.30172167"><ele>165.0</ele><time>2022-03-17T15:54:33.743Z</time></trkpt><trkpt lat="43.40330833" lon="13.30172167"><ele>165.0</ele><time>2022-03-17T15:54:34.749Z</time></trkpt><trkpt lat="43.40336833" lon="13.301685"><ele>166.0</ele><time>2022-03-17T15:54:35.735Z</time></trkpt><trkpt lat="43.40339667" lon="13.30166333"><ele>167.0</ele><time>2022-03-17T15:54:36.750Z</time></trkpt><trkpt lat="43.40339667" lon="13.30166333"><ele>167.0</ele><time>2022-03-17T15:54:37.717Z</time></trkpt><trkpt lat="43.40345833" lon="13.30162833"><ele>168.0</ele><time>2022-03-17T15:54:38.751Z</time></trkpt><trkpt lat="43.40345833" lon="13.30162833"><ele>168.0</ele><time>2022-03-17T15:54:39.718Z</time></trkpt><trkpt lat="43.40352167" lon="13.30159333"><ele>168.0</ele><time>2022-03-17T15:54:40.752Z</time></trkpt><trkpt lat="43.40352167" lon="13.30159333"><ele>168.0</ele><time>2022-03-17T15:54:41.718Z</time></trkpt><trkpt lat="43.40358" lon="13.30155333"><ele>169.0</ele><time>2022-03-17T15:54:42.748Z</time></trkpt><trkpt lat="43.40361167" lon="13.30154"><ele>170.0</ele><time>2022-03-17T15:54:43.721Z</time></trkpt><trkpt lat="43.40361167" lon="13.30154"><ele>170.0</ele><time>2022-03-17T15:54:44.728Z</time></trkpt><trkpt lat="43.40368" lon="13.30150833"><ele>171.0</ele><time>2022-03-17T15:54:45.790Z</time></trkpt><trkpt lat="43.40371333" lon="13.30148667"><ele>171.0</ele><time>2022-03-17T15:54:46.729Z</time></trkpt><trkpt lat="43.403745" lon="13.30146667"><ele>170.0</ele><time>2022-03-17T15:54:47.719Z</time></trkpt><trkpt lat="43.403745" lon="13.30146667"><ele>170.0</ele><time>2022-03-17T15:54:48.728Z</time></trkpt><trkpt lat="43.40381833" lon="13.30142333"><ele>171.0</ele><time>2022-03-17T15:54:49.753Z</time></trkpt><trkpt lat="43.40381833" lon="13.30142333"><ele>171.0</ele><time>2022-03-17T15:54:50.719Z</time></trkpt><trkpt lat="43.40388833" lon="13.30138333"><ele>171.0</ele><time>2022-03-17T15:54:51.748Z</time></trkpt><trkpt lat="43.40388833" lon="13.30138333"><ele>171.0</ele><time>2022-03-17T15:54:52.715Z</time></trkpt><trkpt lat="43.40396333" lon="13.30134667"><ele>172.0</ele><time>2022-03-17T15:54:53.717Z</time></trkpt><trkpt lat="43.40400333" lon="13.301325"><ele>172.0</ele><time>2022-03-17T15:54:54.737Z</time></trkpt><trkpt lat="43.40400333" lon="13.301325"><ele>172.0</ele><time>2022-03-17T15:54:55.743Z</time></trkpt><trkpt lat="43.404075" lon="13.30129333"><ele>172.0</ele><time>2022-03-17T15:54:56.720Z</time></trkpt><trkpt lat="43.40410833" lon="13.30127833"><ele>172.0</ele><time>2022-03-17T15:54:57.734Z</time></trkpt><trkpt lat="43.40410833" lon="13.30127833"><ele>172.0</ele><time>2022-03-17T15:54:58.740Z</time></trkpt><trkpt lat="43.40417333" lon="13.30124"><ele>173.0</ele><time>2022-03-17T15:54:59.723Z</time></trkpt><trkpt lat="43.40417333" lon="13.30124"><ele>173.0</ele><time>2022-03-17T15:55:00.736Z</time></trkpt><trkpt lat="43.40423333" lon="13.30120167"><ele>173.0</ele><time>2022-03-17T15:55:01.731Z</time></trkpt><trkpt lat="43.40423333" lon="13.30120167"><ele>173.0</ele><time>2022-03-17T15:55:02.736Z</time></trkpt><trkpt lat="43.404295" lon="13.30115667"><ele>174.0</ele><time>2022-03-17T15:55:03.730Z</time></trkpt><trkpt lat="43.404295" lon="13.30115667"><ele>174.0</ele><time>2022-03-17T15:55:04.737Z</time></trkpt><trkpt lat="43.40436" lon="13.30110667"><ele>174.0</ele><time>2022-03-17T15:55:05.721Z</time></trkpt><trkpt lat="43.40436" lon="13.30110667"><ele>174.0</ele><time>2022-03-17T15:55:06.727Z</time></trkpt><trkpt lat="43.40442167" lon="13.30105"><ele>174.0</ele><time>2022-03-17T15:55:07.747Z</time></trkpt><trkpt lat="43.40445167" lon="13.30101833"><ele>174.0</ele><time>2022-03-17T15:55:08.734Z</time></trkpt><trkpt lat="43.40445167" lon="13.30101833"><ele>174.0</ele><time>2022-03-17T15:55:09.740Z</time></trkpt><trkpt lat="43.40450833" lon="13.300945"><ele>174.0</ele><time>2022-03-17T15:55:10.730Z</time></trkpt><trkpt lat="43.40450833" lon="13.300945"><ele>174.0</ele><time>2022-03-17T15:55:11.736Z</time></trkpt><trkpt lat="43.40456" lon="13.300865"><ele>175.0</ele><time>2022-03-17T15:55:12.715Z</time></trkpt><trkpt lat="43.404585" lon="13.30082333"><ele>175.0</ele><time>2022-03-17T15:55:13.752Z</time></trkpt><trkpt lat="43.404585" lon="13.30082333"><ele>175.0</ele><time>2022-03-17T15:55:14.718Z</time></trkpt><trkpt lat="43.40462833" lon="13.30073667"><ele>175.0</ele><time>2022-03-17T15:55:15.747Z</time></trkpt><trkpt lat="43.40462833" lon="13.30073667"><ele>175.0</ele><time>2022-03-17T15:55:16.753Z</time></trkpt><trkpt lat="43.404675" lon="13.30065167"><ele>175.0</ele><time>2022-03-17T15:55:17.748Z</time></trkpt><trkpt lat="43.40469667" lon="13.300605"><ele>175.0</ele><time>2022-03-17T15:55:18.744Z</time></trkpt><trkpt lat="43.40469667" lon="13.300605"><ele>175.0</ele><time>2022-03-17T15:55:27.255Z</time></trkpt><trkpt lat="43.40474167" lon="13.300515"><ele>175.0</ele><time>2022-03-17T15:55:28.239Z</time></trkpt><trkpt lat="43.40474167" lon="13.300515"><ele>175.0</ele><time>2022-03-17T15:55:29.246Z</time></trkpt><trkpt lat="43.404785" lon="13.30042333"><ele>175.0</ele><time>2022-03-17T15:55:30.224Z</time></trkpt><trkpt lat="43.404805" lon="13.30037833"><ele>175.0</ele><time>2022-03-17T15:55:31.254Z</time></trkpt><trkpt lat="43.404825" lon="13.30033167"><ele>175.0</ele><time>2022-03-17T15:55:32.228Z</time></trkpt><trkpt lat="43.404825" lon="13.30033167"><ele>175.0</ele><time>2022-03-17T15:55:33.235Z</time></trkpt><trkpt lat="43.404865" lon="13.30024167"><ele>176.0</ele><time>2022-03-17T15:55:34.226Z</time></trkpt><trkpt lat="43.404865" lon="13.30024167"><ele>176.0</ele><time>2022-03-17T15:55:35.235Z</time></trkpt><trkpt lat="43.4049" lon="13.30015333"><ele>176.0</ele><time>2022-03-17T15:55:36.220Z</time></trkpt><trkpt lat="43.4049" lon="13.30015333"><ele>176.0</ele><time>2022-03-17T15:55:37.234Z</time></trkpt><trkpt lat="43.40493667" lon="13.300065"><ele>176.0</ele><time>2022-03-17T15:55:38.223Z</time></trkpt><trkpt lat="43.40493667" lon="13.300065"><ele>176.0</ele><time>2022-03-17T15:55:39.230Z</time></trkpt><trkpt lat="43.40498" lon="13.29998"><ele>177.0</ele><time>2022-03-17T15:55:40.246Z</time></trkpt><trkpt lat="43.40500167" lon="13.29994333"><ele>177.0</ele><time>2022-03-17T15:55:41.233Z</time></trkpt><trkpt lat="43.40500167" lon="13.29994333"><ele>177.0</ele><time>2022-03-17T15:55:42.240Z</time></trkpt><trkpt lat="43.40504667" lon="13.29986667"><ele>177.0</ele><time>2022-03-17T15:55:43.224Z</time></trkpt><trkpt lat="43.40504667" lon="13.29986667"><ele>177.0</ele><time>2022-03-17T15:55:44.234Z</time></trkpt><trkpt lat="43.405085" lon="13.299785"><ele>178.0</ele><time>2022-03-17T15:55:45.257Z</time></trkpt><trkpt lat="43.405085" lon="13.299785"><ele>178.0</ele><time>2022-03-17T15:55:46.223Z</time></trkpt><trkpt lat="43.40512167" lon="13.299705"><ele>178.0</ele><time>2022-03-17T15:56:06.757Z</time></trkpt><trkpt lat="43.40512167" lon="13.299705"><ele>178.0</ele><time>2022-03-17T15:56:07.762Z</time></trkpt><trkpt lat="43.405155" lon="13.29963"><ele>178.0</ele><time>2022-03-17T15:56:08.743Z</time></trkpt><trkpt lat="43.40517167" lon="13.299595"><ele>179.0</ele><time>2022-03-17T15:56:09.739Z</time></trkpt><trkpt lat="43.40517167" lon="13.299595"><ele>179.0</ele><time>2022-03-17T15:56:10.747Z</time></trkpt><trkpt lat="43.40520833" lon="13.29951667"><ele>179.0</ele><time>2022-03-17T15:56:11.773Z</time></trkpt><trkpt lat="43.40520833" lon="13.29951667"><ele>179.0</ele><time>2022-03-17T15:56:12.821Z</time></trkpt><trkpt lat="43.405245" lon="13.29943833"><ele>180.0</ele><time>2022-03-17T15:56:13.743Z</time></trkpt><trkpt lat="43.40526333" lon="13.299395"><ele>180.0</ele><time>2022-03-17T15:56:14.761Z</time></trkpt><trkpt lat="43.40528667" lon="13.29934833"><ele>181.0</ele><time>2022-03-17T15:56:15.741Z</time></trkpt><trkpt lat="43.40528667" lon="13.29934833"><ele>181.0</ele><time>2022-03-17T15:56:16.747Z</time></trkpt><trkpt lat="43.40533167" lon="13.29926333"><ele>181.0</ele><time>2022-03-17T15:56:17.736Z</time></trkpt><trkpt lat="43.40533167" lon="13.29926333"><ele>181.0</ele><time>2022-03-17T15:56:18.746Z</time></trkpt><trkpt lat="43.40538" lon="13.29918667"><ele>181.0</ele><time>2022-03-17T15:56:19.747Z</time></trkpt><trkpt lat="43.40538" lon="13.29918667"><ele>181.0</ele><time>2022-03-17T15:56:20.754Z</time></trkpt><trkpt lat="43.40542667" lon="13.29910833"><ele>181.0</ele><time>2022-03-17T15:56:21.737Z</time></trkpt><trkpt lat="43.40542667" lon="13.29910833"><ele>181.0</ele><time>2022-03-17T15:56:22.745Z</time></trkpt><trkpt lat="43.40548" lon="13.29903333"><ele>182.0</ele><time>2022-03-17T15:56:23.763Z</time></trkpt><trkpt lat="43.40550333" lon="13.29899167"><ele>182.0</ele><time>2022-03-17T15:56:24.749Z</time></trkpt><trkpt lat="43.40550333" lon="13.29899167"><ele>182.0</ele><time>2022-03-17T15:56:25.756Z</time></trkpt><trkpt lat="43.40555833" lon="13.29890833"><ele>182.0</ele><time>2022-03-17T15:56:26.772Z</time></trkpt><trkpt lat="43.40558333" lon="13.29886333"><ele>183.0</ele><time>2022-03-17T15:56:27.750Z</time></trkpt><trkpt lat="43.40558333" lon="13.29886333"><ele>183.0</ele><time>2022-03-17T15:56:28.756Z</time></trkpt><trkpt lat="43.40563167" lon="13.29877333"><ele>183.0</ele><time>2022-03-17T15:56:29.744Z</time></trkpt><trkpt lat="43.40563167" lon="13.29877333"><ele>183.0</ele><time>2022-03-17T15:56:39.742Z</time></trkpt><trkpt lat="43.40568" lon="13.29868833"><ele>183.0</ele><time>2022-03-17T15:56:40.738Z</time></trkpt><trkpt lat="43.40568" lon="13.29868833"><ele>183.0</ele><time>2022-03-17T15:56:41.744Z</time></trkpt><trkpt lat="43.40573" lon="13.298605"><ele>183.0</ele><time>2022-03-17T15:56:54.774Z</time></trkpt><trkpt lat="43.40573" lon="13.298605"><ele>183.0</ele><time>2022-03-17T15:56:55.740Z</time></trkpt><trkpt lat="43.40577667" lon="13.29852167"><ele>183.0</ele><time>2022-03-17T15:57:13.265Z</time></trkpt><trkpt lat="43.40577667" lon="13.29852167"><ele>183.0</ele><time>2022-03-17T15:57:26.286Z</time></trkpt><trkpt lat="43.40582833" lon="13.29844333"><ele>183.0</ele><time>2022-03-17T15:57:27.261Z</time></trkpt><trkpt lat="43.40582833" lon="13.29844333"><ele>183.0</ele><time>2022-03-17T15:57:32.786Z</time></trkpt><trkpt lat="43.40587833" lon="13.298365"><ele>184.0</ele><time>2022-03-17T15:57:33.772Z</time></trkpt><trkpt lat="43.40590167" lon="13.29832333"><ele>184.0</ele><time>2022-03-17T15:57:34.795Z</time></trkpt><trkpt lat="43.40590167" lon="13.29832333"><ele>184.0</ele><time>2022-03-17T15:57:35.802Z</time></trkpt><trkpt lat="43.40595" lon="13.29824333"><ele>184.0</ele><time>2022-03-17T15:57:36.790Z</time></trkpt><trkpt lat="43.40595" lon="13.29824333"><ele>184.0</ele><time>2022-03-17T15:57:37.797Z</time></trkpt><trkpt lat="43.40599833" lon="13.29816667"><ele>185.0</ele><time>2022-03-17T15:57:38.773Z</time></trkpt><trkpt lat="43.40602" lon="13.29812833"><ele>185.0</ele><time>2022-03-17T15:57:39.786Z</time></trkpt><trkpt lat="43.40602" lon="13.29812833"><ele>185.0</ele><time>2022-03-17T15:57:40.793Z</time></trkpt><trkpt lat="43.40606167" lon="13.29806"><ele>185.0</ele><time>2022-03-17T15:57:41.770Z</time></trkpt><trkpt lat="43.40608167" lon="13.298025"><ele>186.0</ele><time>2022-03-17T15:57:42.804Z</time></trkpt><trkpt lat="43.40608167" lon="13.298025"><ele>186.0</ele><time>2022-03-17T15:57:43.771Z</time></trkpt><trkpt lat="43.40612333" lon="13.29795"><ele>186.0</ele><time>2022-03-17T15:57:44.790Z</time></trkpt><trkpt lat="43.406145" lon="13.297915"><ele>186.0</ele><time>2022-03-17T15:57:45.773Z</time></trkpt><trkpt lat="43.406165" lon="13.29788167"><ele>186.0</ele><time>2022-03-17T15:57:46.796Z</time></trkpt><trkpt lat="43.406165" lon="13.29788167"><ele>186.0</ele><time>2022-03-17T15:57:47.803Z</time></trkpt><trkpt lat="43.40620167" lon="13.29781333"><ele>187.0</ele><time>2022-03-17T15:57:48.783Z</time></trkpt><trkpt lat="43.40622" lon="13.29778333"><ele>187.0</ele><time>2022-03-17T15:57:49.801Z</time></trkpt><trkpt lat="43.40622" lon="13.29778333"><ele>187.0</ele><time>2022-03-17T15:57:50.767Z</time></trkpt><trkpt lat="43.40626333" lon="13.29772333"><ele>188.0</ele><time>2022-03-17T15:57:51.804Z</time></trkpt><trkpt lat="43.40626333" lon="13.29772333"><ele>188.0</ele><time>2022-03-17T15:57:52.770Z</time></trkpt><trkpt lat="43.40631" lon="13.29765667"><ele>188.0</ele><time>2022-03-17T15:57:53.773Z</time></trkpt><trkpt lat="43.40633167" lon="13.297625"><ele>188.0</ele><time>2022-03-17T15:57:54.797Z</time></trkpt><trkpt lat="43.40633167" lon="13.297625"><ele>188.0</ele><time>2022-03-17T15:57:55.803Z</time></trkpt><trkpt lat="43.40638167" lon="13.29757"><ele>188.0</ele><time>2022-03-17T15:57:56.780Z</time></trkpt><trkpt lat="43.40640667" lon="13.29754"><ele>189.0</ele><time>2022-03-17T15:58:41.306Z</time></trkpt><trkpt lat="43.40640667" lon="13.29754"><ele>189.0</ele><time>2022-03-17T15:58:42.313Z</time></trkpt><trkpt lat="43.406445" lon="13.29748167"><ele>189.0</ele><time>2022-03-17T15:58:43.293Z</time></trkpt><trkpt lat="43.406445" lon="13.29748167"><ele>189.0</ele><time>2022-03-17T15:58:44.299Z</time></trkpt><trkpt lat="43.406495" lon="13.29742"><ele>189.0</ele><time>2022-03-17T15:58:45.299Z</time></trkpt><trkpt lat="43.406495" lon="13.29742"><ele>189.0</ele><time>2022-03-17T15:58:46.305Z</time></trkpt><trkpt lat="43.406545" lon="13.29735667"><ele>190.0</ele><time>2022-03-17T15:58:47.282Z</time></trkpt><trkpt lat="43.406575" lon="13.29732333"><ele>190.0</ele><time>2022-03-17T15:58:48.309Z</time></trkpt><trkpt lat="43.406575" lon="13.29732333"><ele>190.0</ele><time>2022-03-17T15:58:49.315Z</time></trkpt><trkpt lat="43.40664" lon="13.29725833"><ele>189.0</ele><time>2022-03-17T15:58:50.353Z</time></trkpt><trkpt lat="43.40664" lon="13.29725833"><ele>189.0</ele><time>2022-03-17T15:58:51.317Z</time></trkpt><trkpt lat="43.406715" lon="13.29718167"><ele>189.0</ele><time>2022-03-17T15:58:52.293Z</time></trkpt><trkpt lat="43.406715" lon="13.29718167"><ele>189.0</ele><time>2022-03-17T15:59:00.800Z</time></trkpt><trkpt lat="43.40679667" lon="13.29710167"><ele>188.0</ele><time>2022-03-17T15:59:01.783Z</time></trkpt><trkpt lat="43.40679667" lon="13.29710167"><ele>188.0</ele><time>2022-03-17T15:59:02.804Z</time></trkpt><trkpt lat="43.40688333" lon="13.29701167"><ele>188.0</ele><time>2022-03-17T15:59:03.789Z</time></trkpt><trkpt lat="43.40688333" lon="13.29701167"><ele>188.0</ele><time>2022-03-17T15:59:04.795Z</time></trkpt><trkpt lat="43.406975" lon="13.29692"><ele>188.0</ele><time>2022-03-17T15:59:05.783Z</time></trkpt><trkpt lat="43.406975" lon="13.29692"><ele>188.0</ele><time>2022-03-17T16:06:54.854Z</time></trkpt><trkpt lat="43.407065" lon="13.29683167"><ele>188.0</ele><time>2022-03-17T16:06:55.843Z</time></trkpt><trkpt lat="43.407065" lon="13.29683167"><ele>188.0</ele><time>2022-03-17T16:06:56.852Z</time></trkpt><trkpt lat="43.40715333" lon="13.29674667"><ele>188.0</ele><time>2022-03-17T16:06:57.878Z</time></trkpt><trkpt lat="43.407195" lon="13.29670667"><ele>188.0</ele><time>2022-03-17T16:06:58.861Z</time></trkpt><trkpt lat="43.407195" lon="13.29670667"><ele>188.0</ele><time>2022-03-17T16:06:59.868Z</time></trkpt><trkpt lat="43.407275" lon="13.29663167"><ele>188.0</ele><time>2022-03-17T16:07:00.851Z</time></trkpt><trkpt lat="43.407275" lon="13.29663167"><ele>188.0</ele><time>2022-03-17T16:07:01.857Z</time></trkpt><trkpt lat="43.40735" lon="13.29655833"><ele>188.0</ele><time>2022-03-17T16:07:02.844Z</time></trkpt><trkpt lat="43.40735" lon="13.29655833"><ele>188.0</ele><time>2022-03-17T16:07:03.877Z</time></trkpt><trkpt lat="43.40742" lon="13.29649167"><ele>188.0</ele><time>2022-03-17T16:07:04.865Z</time></trkpt><trkpt lat="43.407455" lon="13.29645833"><ele>188.0</ele><time>2022-03-17T16:07:05.844Z</time></trkpt><trkpt lat="43.407485" lon="13.296425"><ele>189.0</ele><time>2022-03-17T16:07:06.841Z</time></trkpt><trkpt lat="43.407485" lon="13.296425"><ele>189.0</ele><time>2022-03-17T16:07:07.849Z</time></trkpt><trkpt lat="43.40754167" lon="13.29636"><ele>189.0</ele><time>2022-03-17T16:07:08.868Z</time></trkpt><trkpt lat="43.40754167" lon="13.29636"><ele>189.0</ele><time>2022-03-17T16:07:09.875Z</time></trkpt><trkpt lat="43.40759667" lon="13.29629833"><ele>190.0</ele><time>2022-03-17T16:07:10.850Z</time></trkpt><trkpt lat="43.40759667" lon="13.29629833"><ele>190.0</ele><time>2022-03-17T16:07:11.860Z</time></trkpt><trkpt lat="43.40765" lon="13.29624667"><ele>190.0</ele><time>2022-03-17T16:07:12.842Z</time></trkpt><trkpt lat="43.40765" lon="13.29624667"><ele>190.0</ele><time>2022-03-17T16:07:13.853Z</time></trkpt><trkpt lat="43.4077" lon="13.296195"><ele>191.0</ele><time>2022-03-17T16:07:14.879Z</time></trkpt><trkpt lat="43.40772833" lon="13.29617333"><ele>191.0</ele><time>2022-03-17T16:07:15.868Z</time></trkpt><trkpt lat="43.40772833" lon="13.29617333"><ele>191.0</ele><time>2022-03-17T16:07:16.879Z</time></trkpt><trkpt lat="43.40777833" lon="13.29612667"><ele>192.0</ele><time>2022-03-17T16:07:17.858Z</time></trkpt><trkpt lat="43.4078" lon="13.2961"><ele>192.0</ele><time>2022-03-17T16:07:18.845Z</time></trkpt><trkpt lat="43.4078" lon="13.2961"><ele>192.0</ele><time>2022-03-17T16:07:19.856Z</time></trkpt><trkpt lat="43.407845" lon="13.29605333"><ele>193.0</ele><time>2022-03-17T16:07:20.848Z</time></trkpt><trkpt lat="43.407845" lon="13.29605333"><ele>193.0</ele><time>2022-03-17T16:07:21.856Z</time></trkpt><trkpt lat="43.40789333" lon="13.296015"><ele>194.0</ele><time>2022-03-17T16:07:22.844Z</time></trkpt><trkpt lat="43.40789333" lon="13.296015"><ele>194.0</ele><time>2022-03-17T16:07:23.870Z</time></trkpt><trkpt lat="43.40793833" lon="13.29597333"><ele>195.0</ele><time>2022-03-17T16:07:24.858Z</time></trkpt><trkpt lat="43.40793833" lon="13.29597333"><ele>195.0</ele><time>2022-03-17T16:07:25.864Z</time></trkpt><trkpt lat="43.40798833" lon="13.29593667"><ele>195.0</ele><time>2022-03-17T16:07:26.850Z</time></trkpt><trkpt lat="43.40801" lon="13.29591833"><ele>196.0</ele><time>2022-03-17T16:07:27.865Z</time></trkpt><trkpt lat="43.40801" lon="13.29591833"><ele>196.0</ele><time>2022-03-17T16:07:28.872Z</time></trkpt><trkpt lat="43.40806333" lon="13.295885"><ele>196.0</ele><time>2022-03-17T16:07:29.857Z</time></trkpt><trkpt lat="43.40806333" lon="13.295885"><ele>196.0</ele><time>2022-03-17T16:07:30.863Z</time></trkpt><trkpt lat="43.40811833" lon="13.295855"><ele>196.0</ele><time>2022-03-17T16:07:31.842Z</time></trkpt><trkpt lat="43.40811833" lon="13.295855"><ele>196.0</ele><time>2022-03-17T16:07:32.856Z</time></trkpt><trkpt lat="43.40817833" lon="13.29581667"><ele>196.0</ele><time>2022-03-17T16:07:33.841Z</time></trkpt><trkpt lat="43.40820667" lon="13.29580333"><ele>196.0</ele><time>2022-03-17T16:07:34.863Z</time></trkpt><trkpt lat="43.40820667" lon="13.29580333"><ele>196.0</ele><time>2022-03-17T16:07:35.869Z</time></trkpt><trkpt lat="43.40825833" lon="13.29577667"><ele>197.0</ele><time>2022-03-17T16:07:36.848Z</time></trkpt><trkpt lat="43.40825833" lon="13.29577667"><ele>197.0</ele><time>2022-03-17T16:07:37.855Z</time></trkpt><trkpt lat="43.40830833" lon="13.29578667"><ele>196.0</ele><time>2022-03-17T16:07:38.879Z</time></trkpt><trkpt lat="43.40833333" lon="13.29579167"><ele>196.0</ele><time>2022-03-17T16:07:39.850Z</time></trkpt><trkpt lat="43.40833333" lon="13.29579167"><ele>196.0</ele><time>2022-03-17T16:07:40.872Z</time></trkpt><trkpt lat="43.40836833" lon="13.29577833"><ele>196.0</ele><time>2022-03-17T16:07:41.847Z</time></trkpt><trkpt lat="43.408375" lon="13.29577167"><ele>196.0</ele><time>2022-03-17T16:07:42.879Z</time></trkpt><trkpt lat="43.408375" lon="13.29577167"><ele>196.0</ele><time>2022-03-17T16:07:43.845Z</time></trkpt><trkpt lat="43.40838167" lon="13.29577167"><ele>196.0</ele><time>2022-03-17T16:07:44.872Z</time></trkpt><trkpt lat="43.408385" lon="13.295765"><ele>195.0</ele><time>2022-03-17T16:07:45.860Z</time></trkpt><trkpt lat="43.408385" lon="13.295765"><ele>195.0</ele><time>2022-03-17T16:07:46.877Z</time></trkpt><trkpt lat="43.40840167" lon="13.29573833"><ele>195.0</ele><time>2022-03-17T16:07:47.850Z</time></trkpt><trkpt lat="43.40840167" lon="13.29573833"><ele>195.0</ele><time>2022-03-17T16:07:48.856Z</time></trkpt><trkpt lat="43.40844167" lon="13.29569667"><ele>195.0</ele><time>2022-03-17T16:07:49.847Z</time></trkpt><trkpt lat="43.40844167" lon="13.29569667"><ele>195.0</ele><time>2022-03-17T16:07:50.851Z</time></trkpt><trkpt lat="43.40851667" lon="13.29565333"><ele>194.0</ele><time>2022-03-17T16:07:51.873Z</time></trkpt><trkpt lat="43.40856167" lon="13.29562667"><ele>194.0</ele><time>2022-03-17T16:07:52.863Z</time></trkpt><trkpt lat="43.40856167" lon="13.29562667"><ele>194.0</ele><time>2022-03-17T16:07:53.877Z</time></trkpt><trkpt lat="43.40865667" lon="13.29557167"><ele>193.0</ele><time>2022-03-17T16:07:54.857Z</time></trkpt><trkpt lat="43.40865667" lon="13.29557167"><ele>193.0</ele><time>2022-03-17T16:07:55.867Z</time></trkpt><trkpt lat="43.40875833" lon="13.29552333"><ele>192.0</ele><time>2022-03-17T16:07:56.872Z</time></trkpt><trkpt lat="43.40875833" lon="13.29552333"><ele>192.0</ele><time>2022-03-17T16:07:57.854Z</time></trkpt><trkpt lat="43.40886667" lon="13.29546167"><ele>192.0</ele><time>2022-03-17T16:07:58.868Z</time></trkpt><trkpt lat="43.40886667" lon="13.29546167"><ele>192.0</ele><time>2022-03-17T16:07:59.852Z</time></trkpt><trkpt lat="43.408985" lon="13.2954"><ele>191.0</ele><time>2022-03-17T16:08:00.860Z</time></trkpt><trkpt lat="43.40904833" lon="13.29537"><ele>191.0</ele><time>2022-03-17T16:08:01.881Z</time></trkpt><trkpt lat="43.40904833" lon="13.29537"><ele>191.0</ele><time>2022-03-17T16:08:02.874Z</time></trkpt><trkpt lat="43.40917833" lon="13.29530333"><ele>190.0</ele><time>2022-03-17T16:08:03.851Z</time></trkpt><trkpt lat="43.40924333" lon="13.29526667"><ele>190.0</ele><time>2022-03-17T16:08:04.867Z</time></trkpt><trkpt lat="43.40924333" lon="13.29526667"><ele>190.0</ele><time>2022-03-17T16:08:05.850Z</time></trkpt><trkpt lat="43.40937667" lon="13.29519167"><ele>189.0</ele><time>2022-03-17T16:08:06.871Z</time></trkpt><trkpt lat="43.40944667" lon="13.29515833"><ele>189.0</ele><time>2022-03-17T16:08:07.860Z</time></trkpt><trkpt lat="43.40944667" lon="13.29515833"><ele>189.0</ele><time>2022-03-17T16:08:08.872Z</time></trkpt><trkpt lat="43.40958167" lon="13.29507833"><ele>188.0</ele><time>2022-03-17T16:08:17.388Z</time></trkpt><trkpt lat="43.40958167" lon="13.29507833"><ele>188.0</ele><time>2022-03-17T16:08:18.361Z</time></trkpt><trkpt lat="43.40971667" lon="13.29500167"><ele>188.0</ele><time>2022-03-17T16:08:19.376Z</time></trkpt><trkpt lat="43.40971667" lon="13.29500167"><ele>188.0</ele><time>2022-03-17T16:08:20.381Z</time></trkpt><trkpt lat="43.40985" lon="13.29493"><ele>189.0</ele><time>2022-03-17T16:08:21.351Z</time></trkpt><trkpt lat="43.40991167" lon="13.29489667"><ele>189.0</ele><time>2022-03-17T16:08:22.383Z</time></trkpt><trkpt lat="43.40991167" lon="13.29489667"><ele>189.0</ele><time>2022-03-17T16:08:23.359Z</time></trkpt><trkpt lat="43.410035" lon="13.29483833"><ele>189.0</ele><time>2022-03-17T16:08:24.383Z</time></trkpt><trkpt lat="43.410035" lon="13.29483833"><ele>189.0</ele><time>2022-03-17T16:08:25.350Z</time></trkpt><trkpt lat="43.41015167" lon="13.29478"><ele>189.0</ele><time>2022-03-17T16:08:26.387Z</time></trkpt><trkpt lat="43.41015167" lon="13.29478"><ele>189.0</ele><time>2022-03-17T16:08:27.361Z</time></trkpt><trkpt lat="43.41026333" lon="13.29472667"><ele>190.0</ele><time>2022-03-17T16:08:28.379Z</time></trkpt><trkpt lat="43.41026333" lon="13.29472667"><ele>190.0</ele><time>2022-03-17T16:08:29.365Z</time></trkpt><trkpt lat="43.41036833" lon="13.294675"><ele>190.0</ele><time>2022-03-17T16:08:30.379Z</time></trkpt><trkpt lat="43.41036833" lon="13.294675"><ele>190.0</ele><time>2022-03-17T16:08:31.370Z</time></trkpt><trkpt lat="43.41046" lon="13.294625"><ele>191.0</ele><time>2022-03-17T16:08:32.388Z</time></trkpt><trkpt lat="43.41050333" lon="13.294605"><ele>192.0</ele><time>2022-03-17T16:08:33.379Z</time></trkpt><trkpt lat="43.41054833" lon="13.29458833"><ele>192.0</ele><time>2022-03-17T16:08:34.356Z</time></trkpt><trkpt lat="43.41054833" lon="13.29458833"><ele>192.0</ele><time>2022-03-17T16:08:35.375Z</time></trkpt><trkpt lat="43.41064" lon="13.29456833"><ele>193.0</ele><time>2022-03-17T16:08:36.350Z</time></trkpt><trkpt lat="43.41064" lon="13.29456833"><ele>193.0</ele><time>2022-03-17T16:08:37.374Z</time></trkpt><trkpt lat="43.41072667" lon="13.29457167"><ele>194.0</ele><time>2022-03-17T16:08:38.355Z</time></trkpt><trkpt lat="43.41076667" lon="13.29459"><ele>194.0</ele><time>2022-03-17T16:08:39.368Z</time></trkpt><trkpt lat="43.41076667" lon="13.29459"><ele>194.0</ele><time>2022-03-17T16:08:40.383Z</time></trkpt><trkpt lat="43.41084" lon="13.29464167"><ele>195.0</ele><time>2022-03-17T16:08:53.362Z</time></trkpt><trkpt lat="43.41084" lon="13.29464167"><ele>195.0</ele><time>2022-03-17T16:08:54.388Z</time></trkpt><trkpt lat="43.41089" lon="13.29473167"><ele>196.0</ele><time>2022-03-17T16:08:55.361Z</time></trkpt><trkpt lat="43.41089" lon="13.29473167"><ele>196.0</ele><time>2022-03-17T16:08:56.376Z</time></trkpt><trkpt lat="43.41093833" lon="13.29483"><ele>197.0</ele><time>2022-03-17T16:08:57.350Z</time></trkpt><trkpt lat="43.41095833" lon="13.294875"><ele>197.0</ele><time>2022-03-17T16:08:58.363Z</time></trkpt><trkpt lat="43.41095833" lon="13.294875"><ele>197.0</ele><time>2022-03-17T16:08:59.386Z</time></trkpt><trkpt lat="43.41100333" lon="13.29495"><ele>197.0</ele><time>2022-03-17T16:09:00.360Z</time></trkpt><trkpt lat="43.41102667" lon="13.29499"><ele>198.0</ele><time>2022-03-17T16:09:01.394Z</time></trkpt><trkpt lat="43.41102667" lon="13.29499"><ele>198.0</ele><time>2022-03-17T16:09:02.386Z</time></trkpt><trkpt lat="43.41107333" lon="13.29508"><ele>198.0</ele><time>2022-03-17T16:09:03.364Z</time></trkpt><trkpt lat="43.41107333" lon="13.29508"><ele>198.0</ele><time>2022-03-17T16:09:04.376Z</time></trkpt><trkpt lat="43.41111667" lon="13.29516167"><ele>198.0</ele><time>2022-03-17T16:09:12.878Z</time></trkpt><trkpt lat="43.41114" lon="13.2952"><ele>199.0</ele><time>2022-03-17T16:09:13.852Z</time></trkpt><trkpt lat="43.41114" lon="13.2952"><ele>199.0</ele><time>2022-03-17T16:09:14.860Z</time></trkpt><trkpt lat="43.411185" lon="13.29528167"><ele>199.0</ele><time>2022-03-17T16:09:15.881Z</time></trkpt><trkpt lat="43.411185" lon="13.29528167"><ele>199.0</ele><time>2022-03-17T16:09:16.864Z</time></trkpt><trkpt lat="43.41123167" lon="13.295365"><ele>200.0</ele><time>2022-03-17T16:09:17.880Z</time></trkpt><trkpt lat="43.41123167" lon="13.295365"><ele>200.0</ele><time>2022-03-17T16:09:18.859Z</time></trkpt><trkpt lat="43.41128" lon="13.29545333"><ele>200.0</ele><time>2022-03-17T16:09:19.852Z</time></trkpt><trkpt lat="43.411305" lon="13.29549833"><ele>200.0</ele><time>2022-03-17T16:09:20.882Z</time></trkpt><trkpt lat="43.411305" lon="13.29549833"><ele>200.0</ele><time>2022-03-17T16:09:21.859Z</time></trkpt><trkpt lat="43.41135167" lon="13.29557833"><ele>200.0</ele><time>2022-03-17T16:09:22.872Z</time></trkpt><trkpt lat="43.41135167" lon="13.29557833"><ele>200.0</ele><time>2022-03-17T16:09:23.854Z</time></trkpt><trkpt lat="43.411405" lon="13.29566167"><ele>200.0</ele><time>2022-03-17T16:09:24.881Z</time></trkpt><trkpt lat="43.411405" lon="13.29566167"><ele>200.0</ele><time>2022-03-17T16:09:25.885Z</time></trkpt><trkpt lat="43.41144667" lon="13.29574333"><ele>199.0</ele><time>2022-03-17T16:09:26.855Z</time></trkpt><trkpt lat="43.41144667" lon="13.29574333"><ele>199.0</ele><time>2022-03-17T16:09:27.874Z</time></trkpt><trkpt lat="43.41149" lon="13.29583667"><ele>199.0</ele><time>2022-03-17T16:09:28.854Z</time></trkpt><trkpt lat="43.41149" lon="13.29583667"><ele>199.0</ele><time>2022-03-17T16:09:29.864Z</time></trkpt><trkpt lat="43.41154167" lon="13.29593"><ele>199.0</ele><time>2022-03-17T16:09:30.885Z</time></trkpt><trkpt lat="43.41154167" lon="13.29593"><ele>199.0</ele><time>2022-03-17T16:09:31.866Z</time></trkpt><trkpt lat="43.41159" lon="13.29602833"><ele>199.0</ele><time>2022-03-17T16:09:32.877Z</time></trkpt><trkpt lat="43.41161667" lon="13.29607833"><ele>199.0</ele><time>2022-03-17T16:09:33.885Z</time></trkpt><trkpt lat="43.411645" lon="13.29613"><ele>198.0</ele><time>2022-03-17T16:09:34.870Z</time></trkpt><trkpt lat="43.411645" lon="13.29613"><ele>198.0</ele><time>2022-03-17T16:09:35.847Z</time></trkpt><trkpt lat="43.4117" lon="13.29623167"><ele>198.0</ele><time>2022-03-17T16:09:36.863Z</time></trkpt><trkpt lat="43.4117" lon="13.29623167"><ele>198.0</ele><time>2022-03-17T16:09:37.873Z</time></trkpt><trkpt lat="43.411755" lon="13.29634"><ele>198.0</ele><time>2022-03-17T16:09:38.861Z</time></trkpt><trkpt lat="43.411755" lon="13.29634"><ele>198.0</ele><time>2022-03-17T16:09:39.873Z</time></trkpt><trkpt lat="43.411815" lon="13.29645333"><ele>198.0</ele><time>2022-03-17T16:09:40.849Z</time></trkpt><trkpt lat="43.411815" lon="13.29645333"><ele>198.0</ele><time>2022-03-17T16:09:41.874Z</time></trkpt><trkpt lat="43.41188333" lon="13.29656"><ele>197.0</ele><time>2022-03-17T16:09:42.883Z</time></trkpt><trkpt lat="43.41192167" lon="13.29660667"><ele>197.0</ele><time>2022-03-17T16:09:43.854Z</time></trkpt><trkpt lat="43.41192167" lon="13.29660667"><ele>197.0</ele><time>2022-03-17T16:09:44.850Z</time></trkpt><trkpt lat="43.41200167" lon="13.29667"><ele>196.0</ele><time>2022-03-17T16:09:45.865Z</time></trkpt><trkpt lat="43.41204333" lon="13.29668667"><ele>196.0</ele><time>2022-03-17T16:09:46.853Z</time></trkpt><trkpt lat="43.41204333" lon="13.29668667"><ele>196.0</ele><time>2022-03-17T16:09:47.871Z</time></trkpt><trkpt lat="43.41213333" lon="13.29669667"><ele>196.0</ele><time>2022-03-17T16:09:48.855Z</time></trkpt><trkpt lat="43.41213333" lon="13.29669667"><ele>196.0</ele><time>2022-03-17T16:09:49.861Z</time></trkpt><trkpt lat="43.412215" lon="13.29666667"><ele>196.0</ele><time>2022-03-17T16:09:50.855Z</time></trkpt><trkpt lat="43.412255" lon="13.29664833"><ele>196.0</ele><time>2022-03-17T16:09:51.880Z</time></trkpt><trkpt lat="43.412255" lon="13.29664833"><ele>196.0</ele><time>2022-03-17T16:09:52.861Z</time></trkpt><trkpt lat="43.41232167" lon="13.29659833"><ele>197.0</ele><time>2022-03-17T16:09:53.874Z</time></trkpt><trkpt lat="43.41232167" lon="13.29659833"><ele>197.0</ele><time>2022-03-17T16:09:54.885Z</time></trkpt><trkpt lat="43.41239" lon="13.29653833"><ele>197.0</ele><time>2022-03-17T16:09:55.854Z</time></trkpt><trkpt lat="43.41242167" lon="13.296505"><ele>197.0</ele><time>2022-03-17T16:09:56.853Z</time></trkpt><trkpt lat="43.41242167" lon="13.296505"><ele>197.0</ele><time>2022-03-17T16:09:57.873Z</time></trkpt><trkpt lat="43.41248333" lon="13.29643833"><ele>197.0</ele><time>2022-03-17T16:09:58.846Z</time></trkpt><trkpt lat="43.41248333" lon="13.29643833"><ele>197.0</ele><time>2022-03-17T16:09:59.859Z</time></trkpt><trkpt lat="43.41254333" lon="13.29635167"><ele>197.0</ele><time>2022-03-17T16:10:00.855Z</time></trkpt><trkpt lat="43.41254333" lon="13.29635167"><ele>197.0</ele><time>2022-03-17T16:10:01.850Z</time></trkpt><trkpt lat="43.41260333" lon="13.29625333"><ele>198.0</ele><time>2022-03-17T16:10:02.871Z</time></trkpt><trkpt lat="43.41260333" lon="13.29625333"><ele>198.0</ele><time>2022-03-17T16:10:03.884Z</time></trkpt><trkpt lat="43.41264833" lon="13.29615167"><ele>198.0</ele><time>2022-03-17T16:10:04.856Z</time></trkpt><trkpt lat="43.41266667" lon="13.29609667"><ele>199.0</ele><time>2022-03-17T16:10:05.877Z</time></trkpt><trkpt lat="43.41266667" lon="13.29609667"><ele>199.0</ele><time>2022-03-17T16:10:06.861Z</time></trkpt><trkpt lat="43.41269667" lon="13.29598167"><ele>199.0</ele><time>2022-03-17T16:10:07.881Z</time></trkpt><trkpt lat="43.41269667" lon="13.29598167"><ele>199.0</ele><time>2022-03-17T16:10:08.850Z</time></trkpt><trkpt lat="43.41272333" lon="13.29587"><ele>199.0</ele><time>2022-03-17T16:10:09.867Z</time></trkpt><trkpt lat="43.41272333" lon="13.29587"><ele>199.0</ele><time>2022-03-17T16:10:10.855Z</time></trkpt><trkpt lat="43.41274833" lon="13.29575833"><ele>200.0</ele><time>2022-03-17T16:10:11.874Z</time></trkpt><trkpt lat="43.41274833" lon="13.29575833"><ele>200.0</ele><time>2022-03-17T16:10:12.875Z</time></trkpt><trkpt lat="43.412775" lon="13.295645"><ele>200.0</ele><time>2022-03-17T16:10:13.849Z</time></trkpt><trkpt lat="43.412775" lon="13.295645"><ele>200.0</ele><time>2022-03-17T16:10:14.875Z</time></trkpt><trkpt lat="43.41280167" lon="13.29553333"><ele>200.0</ele><time>2022-03-17T16:10:15.882Z</time></trkpt><trkpt lat="43.41281333" lon="13.29547667"><ele>200.0</ele><time>2022-03-17T16:10:16.856Z</time></trkpt><trkpt lat="43.41281333" lon="13.29547667"><ele>200.0</ele><time>2022-03-17T16:10:17.871Z</time></trkpt><trkpt lat="43.41284" lon="13.29536333"><ele>200.0</ele><time>2022-03-17T16:10:18.870Z</time></trkpt><trkpt lat="43.41284" lon="13.29536333"><ele>200.0</ele><time>2022-03-17T16:10:19.859Z</time></trkpt><trkpt lat="43.41287" lon="13.29525333"><ele>200.0</ele><time>2022-03-17T16:10:20.872Z</time></trkpt><trkpt lat="43.41287" lon="13.29525333"><ele>200.0</ele><time>2022-03-17T16:10:21.884Z</time></trkpt><trkpt lat="43.41290333" lon="13.29515"><ele>201.0</ele><time>2022-03-17T16:10:22.860Z</time></trkpt><trkpt lat="43.41290333" lon="13.29515"><ele>201.0</ele><time>2022-03-17T16:10:23.875Z</time></trkpt><trkpt lat="43.412935" lon="13.29504"><ele>201.0</ele><time>2022-03-17T16:10:24.847Z</time></trkpt><trkpt lat="43.412935" lon="13.29504"><ele>201.0</ele><time>2022-03-17T16:10:25.850Z</time></trkpt><trkpt lat="43.412965" lon="13.29492833"><ele>201.0</ele><time>2022-03-17T16:10:26.854Z</time></trkpt><trkpt lat="43.412965" lon="13.29492833"><ele>201.0</ele><time>2022-03-17T16:10:27.859Z</time></trkpt><trkpt lat="43.41298833" lon="13.29482"><ele>202.0</ele><time>2022-03-17T16:10:28.878Z</time></trkpt><trkpt lat="43.41298833" lon="13.29482"><ele>202.0</ele><time>2022-03-17T16:10:29.873Z</time></trkpt><trkpt lat="43.41300833" lon="13.29471667"><ele>202.0</ele><time>2022-03-17T16:10:30.852Z</time></trkpt><trkpt lat="43.41300833" lon="13.29471667"><ele>202.0</ele><time>2022-03-17T16:10:31.867Z</time></trkpt><trkpt lat="43.41302167" lon="13.29462833"><ele>203.0</ele><time>2022-03-17T16:10:32.882Z</time></trkpt><trkpt lat="43.41302167" lon="13.29462833"><ele>203.0</ele><time>2022-03-17T16:10:33.859Z</time></trkpt><trkpt lat="43.41303167" lon="13.29454333"><ele>203.0</ele><time>2022-03-17T16:10:34.876Z</time></trkpt><trkpt lat="43.41303167" lon="13.29454333"><ele>203.0</ele><time>2022-03-17T16:10:35.848Z</time></trkpt><trkpt lat="43.41306333" lon="13.29446"><ele>204.0</ele><time>2022-03-17T16:10:36.868Z</time></trkpt><trkpt lat="43.41306333" lon="13.29446"><ele>204.0</ele><time>2022-03-17T16:10:37.879Z</time></trkpt><trkpt lat="43.413095" lon="13.29437333"><ele>205.0</ele><time>2022-03-17T16:10:38.859Z</time></trkpt><trkpt lat="43.413095" lon="13.29437333"><ele>205.0</ele><time>2022-03-17T16:10:39.867Z</time></trkpt><trkpt lat="43.41312167" lon="13.29428167"><ele>205.0</ele><time>2022-03-17T16:10:40.882Z</time></trkpt><trkpt lat="43.41312167" lon="13.29428167"><ele>205.0</ele><time>2022-03-17T16:10:41.850Z</time></trkpt><trkpt lat="43.41314333" lon="13.294195"><ele>205.0</ele><time>2022-03-17T16:10:42.862Z</time></trkpt><trkpt lat="43.41314333" lon="13.294195"><ele>205.0</ele><time>2022-03-17T16:10:43.863Z</time></trkpt><trkpt lat="43.41316167" lon="13.29411333"><ele>205.0</ele><time>2022-03-17T16:10:44.880Z</time></trkpt><trkpt lat="43.41316167" lon="13.29411333"><ele>205.0</ele><time>2022-03-17T16:10:45.872Z</time></trkpt><trkpt lat="43.41317667" lon="13.29403"><ele>204.0</ele><time>2022-03-17T16:10:46.850Z</time></trkpt><trkpt lat="43.41317667" lon="13.29403"><ele>204.0</ele><time>2022-03-17T16:10:47.875Z</time></trkpt><trkpt lat="43.41320167" lon="13.293935"><ele>203.0</ele><time>2022-03-17T16:10:48.850Z</time></trkpt><trkpt lat="43.41320167" lon="13.293935"><ele>203.0</ele><time>2022-03-17T16:10:49.846Z</time></trkpt><trkpt lat="43.41323167" lon="13.29382833"><ele>203.0</ele><time>2022-03-17T16:10:50.846Z</time></trkpt><trkpt lat="43.41323167" lon="13.29382833"><ele>203.0</ele><time>2022-03-17T16:10:51.864Z</time></trkpt><trkpt lat="43.41326833" lon="13.29370833"><ele>203.0</ele><time>2022-03-17T16:10:52.876Z</time></trkpt><trkpt lat="43.41328833" lon="13.29364667"><ele>202.0</ele><time>2022-03-17T16:10:53.877Z</time></trkpt><trkpt lat="43.41328833" lon="13.29364667"><ele>202.0</ele><time>2022-03-17T16:10:54.860Z</time></trkpt><trkpt lat="43.41333" lon="13.29351833"><ele>202.0</ele><time>2022-03-17T16:10:55.877Z</time></trkpt><trkpt lat="43.41333" lon="13.29351833"><ele>202.0</ele><time>2022-03-17T16:10:56.879Z</time></trkpt><trkpt lat="43.41336833" lon="13.29338"><ele>202.0</ele><time>2022-03-17T16:10:57.855Z</time></trkpt><trkpt lat="43.41338833" lon="13.29331"><ele>202.0</ele><time>2022-03-17T16:10:58.860Z</time></trkpt><trkpt lat="43.41338833" lon="13.29331"><ele>202.0</ele><time>2022-03-17T16:10:59.856Z</time></trkpt><trkpt lat="43.41343833" lon="13.293175"><ele>201.0</ele><time>2022-03-17T16:11:00.882Z</time></trkpt><trkpt lat="43.41343833" lon="13.293175"><ele>201.0</ele><time>2022-03-17T16:11:01.875Z</time></trkpt><trkpt lat="43.41348167" lon="13.29303667"><ele>201.0</ele><time>2022-03-17T16:11:02.883Z</time></trkpt><trkpt lat="43.413505" lon="13.29297"><ele>201.0</ele><time>2022-03-17T16:11:03.847Z</time></trkpt><trkpt lat="43.413505" lon="13.29297"><ele>201.0</ele><time>2022-03-17T16:11:04.861Z</time></trkpt><trkpt lat="43.41355" lon="13.29284833"><ele>201.0</ele><time>2022-03-17T16:11:05.855Z</time></trkpt><trkpt lat="43.41355" lon="13.29284833"><ele>201.0</ele><time>2022-03-17T16:11:06.875Z</time></trkpt><trkpt lat="43.41359167" lon="13.292735"><ele>201.0</ele><time>2022-03-17T16:11:07.999Z</time></trkpt><trkpt lat="43.41359167" lon="13.292735"><ele>201.0</ele><time>2022-03-17T16:11:08.857Z</time></trkpt><trkpt lat="43.41361833" lon="13.292625"><ele>201.0</ele><time>2022-03-17T16:11:09.879Z</time></trkpt><trkpt lat="43.413635" lon="13.29257167"><ele>201.0</ele><time>2022-03-17T16:11:10.874Z</time></trkpt><trkpt lat="43.413635" lon="13.29257167"><ele>201.0</ele><time>2022-03-17T16:11:11.860Z</time></trkpt><trkpt lat="43.41367" lon="13.29246333"><ele>201.0</ele><time>2022-03-17T16:11:12.852Z</time></trkpt><trkpt lat="43.41367" lon="13.29246333"><ele>201.0</ele><time>2022-03-17T16:11:13.870Z</time></trkpt><trkpt lat="43.4137" lon="13.29234833"><ele>201.0</ele><time>2022-03-17T16:11:14.848Z</time></trkpt><trkpt lat="43.4137" lon="13.29234833"><ele>201.0</ele><time>2022-03-17T16:11:15.860Z</time></trkpt><trkpt lat="43.41373" lon="13.29221833"><ele>200.0</ele><time>2022-03-17T16:11:16.872Z</time></trkpt><trkpt lat="43.41373" lon="13.29221833"><ele>200.0</ele><time>2022-03-17T16:11:17.857Z</time></trkpt><trkpt lat="43.41376167" lon="13.29205333"><ele>199.0</ele><time>2022-03-17T16:11:18.875Z</time></trkpt><trkpt lat="43.41376167" lon="13.29205333"><ele>199.0</ele><time>2022-03-17T16:11:19.857Z</time></trkpt><trkpt lat="43.41380833" lon="13.29185333"><ele>197.0</ele><time>2022-03-17T16:11:20.866Z</time></trkpt><trkpt lat="43.41380833" lon="13.29185333"><ele>197.0</ele><time>2022-03-17T16:11:21.876Z</time></trkpt><trkpt lat="43.41386333" lon="13.29163"><ele>196.0</ele><time>2022-03-17T16:11:22.855Z</time></trkpt><trkpt lat="43.41389" lon="13.29151"><ele>195.0</ele><time>2022-03-17T16:11:23.887Z</time></trkpt><trkpt lat="43.41392333" lon="13.29139"><ele>194.0</ele><time>2022-03-17T16:11:24.873Z</time></trkpt><trkpt lat="43.41392333" lon="13.29139"><ele>194.0</ele><time>2022-03-17T16:11:25.881Z</time></trkpt><trkpt lat="43.41400333" lon="13.29113667"><ele>193.0</ele><time>2022-03-17T16:11:26.850Z</time></trkpt><trkpt lat="43.41400333" lon="13.29113667"><ele>193.0</ele><time>2022-03-17T16:11:27.868Z</time></trkpt><trkpt lat="43.414085" lon="13.290875"><ele>192.0</ele><time>2022-03-17T16:11:28.852Z</time></trkpt><trkpt lat="43.414085" lon="13.290875"><ele>192.0</ele><time>2022-03-17T16:11:29.862Z</time></trkpt><trkpt lat="43.414165" lon="13.29061333"><ele>191.0</ele><time>2022-03-17T16:11:30.875Z</time></trkpt><trkpt lat="43.414165" lon="13.29061333"><ele>191.0</ele><time>2022-03-17T16:11:31.861Z</time></trkpt><trkpt lat="43.41424667" lon="13.29036167"><ele>190.0</ele><time>2022-03-17T16:11:32.876Z</time></trkpt><trkpt lat="43.41424667" lon="13.29036167"><ele>190.0</ele><time>2022-03-17T16:11:33.863Z</time></trkpt><trkpt lat="43.414325" lon="13.29011667"><ele>190.0</ele><time>2022-03-17T16:11:34.881Z</time></trkpt><trkpt lat="43.414365" lon="13.29000333"><ele>189.0</ele><time>2022-03-17T16:11:35.848Z</time></trkpt><trkpt lat="43.41440167" lon="13.28989"><ele>189.0</ele><time>2022-03-17T16:11:36.855Z</time></trkpt><trkpt lat="43.41440167" lon="13.28989"><ele>189.0</ele><time>2022-03-17T16:11:37.871Z</time></trkpt><trkpt lat="43.41446667" lon="13.28967667"><ele>189.0</ele><time>2022-03-17T16:11:38.848Z</time></trkpt><trkpt lat="43.41446667" lon="13.28967667"><ele>189.0</ele><time>2022-03-17T16:11:39.866Z</time></trkpt><trkpt lat="43.41452833" lon="13.28947833"><ele>190.0</ele><time>2022-03-17T16:11:40.876Z</time></trkpt><trkpt lat="43.41452833" lon="13.28947833"><ele>190.0</ele><time>2022-03-17T16:11:41.873Z</time></trkpt><trkpt lat="43.414585" lon="13.28930167"><ele>191.0</ele><time>2022-03-17T16:11:42.850Z</time></trkpt><trkpt lat="43.41461333" lon="13.28922167"><ele>191.0</ele><time>2022-03-17T16:11:43.865Z</time></trkpt><trkpt lat="43.41464333" lon="13.28914667"><ele>192.0</ele><time>2022-03-17T16:11:44.871Z</time></trkpt><trkpt lat="43.41464333" lon="13.28914667"><ele>192.0</ele><time>2022-03-17T16:11:45.848Z</time></trkpt><trkpt lat="43.414695" lon="13.28900167"><ele>193.0</ele><time>2022-03-17T16:11:46.866Z</time></trkpt><trkpt lat="43.414695" lon="13.28900167"><ele>193.0</ele><time>2022-03-17T16:11:47.846Z</time></trkpt><trkpt lat="43.41474667" lon="13.28885333"><ele>194.0</ele><time>2022-03-17T16:11:48.858Z</time></trkpt><trkpt lat="43.41474667" lon="13.28885333"><ele>194.0</ele><time>2022-03-17T16:11:49.875Z</time></trkpt><trkpt lat="43.414815" lon="13.28869833"><ele>194.0</ele><time>2022-03-17T16:11:50.854Z</time></trkpt><trkpt lat="43.41484833" lon="13.288615"><ele>194.0</ele><time>2022-03-17T16:11:51.883Z</time></trkpt><trkpt lat="43.41488167" lon="13.28852833"><ele>193.0</ele><time>2022-03-17T16:11:52.869Z</time></trkpt><trkpt lat="43.41488167" lon="13.28852833"><ele>193.0</ele><time>2022-03-17T16:11:53.850Z</time></trkpt><trkpt lat="43.41495167" lon="13.28833167"><ele>193.0</ele><time>2022-03-17T16:11:54.885Z</time></trkpt><trkpt lat="43.41495167" lon="13.28833167"><ele>193.0</ele><time>2022-03-17T16:11:55.869Z</time></trkpt><trkpt lat="43.41503" lon="13.28811667"><ele>192.0</ele><time>2022-03-17T16:11:56.883Z</time></trkpt><trkpt lat="43.41503" lon="13.28811667"><ele>192.0</ele><time>2022-03-17T16:11:57.877Z</time></trkpt><trkpt lat="43.41509833" lon="13.28788667"><ele>191.0</ele><time>2022-03-17T16:11:58.855Z</time></trkpt><trkpt lat="43.41509833" lon="13.28788667"><ele>191.0</ele><time>2022-03-17T16:11:59.863Z</time></trkpt><trkpt lat="43.415165" lon="13.28766333"><ele>190.0</ele><time>2022-03-17T16:12:00.882Z</time></trkpt><trkpt lat="43.415165" lon="13.28766333"><ele>190.0</ele><time>2022-03-17T16:12:01.849Z</time></trkpt><trkpt lat="43.415235" lon="13.28745"><ele>190.0</ele><time>2022-03-17T16:12:02.860Z</time></trkpt><trkpt lat="43.41527" lon="13.28734833"><ele>190.0</ele><time>2022-03-17T16:12:03.854Z</time></trkpt><trkpt lat="43.41530333" lon="13.287245"><ele>190.0</ele><time>2022-03-17T16:12:04.873Z</time></trkpt><trkpt lat="43.41530333" lon="13.287245"><ele>190.0</ele><time>2022-03-17T16:12:05.884Z</time></trkpt><trkpt lat="43.41538" lon="13.28705833"><ele>191.0</ele><time>2022-03-17T16:12:06.882Z</time></trkpt><trkpt lat="43.41538" lon="13.28705833"><ele>191.0</ele><time>2022-03-17T16:12:07.863Z</time></trkpt><trkpt lat="43.41546833" lon="13.28689333"><ele>191.0</ele><time>2022-03-17T16:12:08.885Z</time></trkpt><trkpt lat="43.41546833" lon="13.28689333"><ele>191.0</ele><time>2022-03-17T16:12:09.873Z</time></trkpt><trkpt lat="43.41557333" lon="13.28673833"><ele>191.0</ele><time>2022-03-17T16:12:10.888Z</time></trkpt><trkpt lat="43.41557333" lon="13.28673833"><ele>191.0</ele><time>2022-03-17T16:12:11.873Z</time></trkpt><trkpt lat="43.41567667" lon="13.286585"><ele>191.0</ele><time>2022-03-17T16:12:12.850Z</time></trkpt><trkpt lat="43.41567667" lon="13.286585"><ele>191.0</ele><time>2022-03-17T16:12:13.859Z</time></trkpt><trkpt lat="43.41577667" lon="13.28644"><ele>191.0</ele><time>2022-03-17T16:12:14.877Z</time></trkpt><trkpt lat="43.41577667" lon="13.28644"><ele>191.0</ele><time>2022-03-17T16:12:15.867Z</time></trkpt><trkpt lat="43.41587167" lon="13.28631"><ele>191.0</ele><time>2022-03-17T16:12:16.886Z</time></trkpt><trkpt lat="43.41587167" lon="13.28631"><ele>191.0</ele><time>2022-03-17T16:12:17.883Z</time></trkpt><trkpt lat="43.41596333" lon="13.28617167"><ele>191.0</ele><time>2022-03-17T16:12:18.856Z</time></trkpt><trkpt lat="43.41596333" lon="13.28617167"><ele>191.0</ele><time>2022-03-17T16:12:19.884Z</time></trkpt><trkpt lat="43.41606" lon="13.28602667"><ele>191.0</ele><time>2022-03-17T16:12:20.873Z</time></trkpt><trkpt lat="43.41611167" lon="13.285955"><ele>191.0</ele><time>2022-03-17T16:12:21.867Z</time></trkpt><trkpt lat="43.41611167" lon="13.285955"><ele>191.0</ele><time>2022-03-17T16:12:22.879Z</time></trkpt><trkpt lat="43.41621167" lon="13.28580833"><ele>191.0</ele><time>2022-03-17T16:12:23.849Z</time></trkpt><trkpt lat="43.41621167" lon="13.28580833"><ele>191.0</ele><time>2022-03-17T16:12:24.858Z</time></trkpt><trkpt lat="43.41630667" lon="13.285665"><ele>191.0</ele><time>2022-03-17T16:12:25.873Z</time></trkpt><trkpt lat="43.41630667" lon="13.285665"><ele>191.0</ele><time>2022-03-17T16:12:26.863Z</time></trkpt><trkpt lat="43.41639167" lon="13.28553167"><ele>192.0</ele><time>2022-03-17T16:12:27.877Z</time></trkpt><trkpt lat="43.41643333" lon="13.285465"><ele>192.0</ele><time>2022-03-17T16:12:28.848Z</time></trkpt><trkpt lat="43.41643333" lon="13.285465"><ele>192.0</ele><time>2022-03-17T16:12:29.865Z</time></trkpt><trkpt lat="43.41651167" lon="13.28533333"><ele>193.0</ele><time>2022-03-17T16:12:30.886Z</time></trkpt><trkpt lat="43.41651167" lon="13.28533333"><ele>193.0</ele><time>2022-03-17T16:12:31.859Z</time></trkpt><trkpt lat="43.41658" lon="13.28519833"><ele>193.0</ele><time>2022-03-17T16:12:32.875Z</time></trkpt><trkpt lat="43.41661333" lon="13.28513167"><ele>193.0</ele><time>2022-03-17T16:12:33.872Z</time></trkpt><trkpt lat="43.41664333" lon="13.285065"><ele>193.0</ele><time>2022-03-17T16:12:34.850Z</time></trkpt><trkpt lat="43.41664333" lon="13.285065"><ele>193.0</ele><time>2022-03-17T16:12:35.862Z</time></trkpt><trkpt lat="43.41670167" lon="13.28493833"><ele>194.0</ele><time>2022-03-17T16:12:36.888Z</time></trkpt><trkpt lat="43.41670167" lon="13.28493833"><ele>194.0</ele><time>2022-03-17T16:12:37.879Z</time></trkpt><trkpt lat="43.41675667" lon="13.28481667"><ele>194.0</ele><time>2022-03-17T16:12:38.861Z</time></trkpt><trkpt lat="43.41675667" lon="13.28481667"><ele>194.0</ele><time>2022-03-17T16:12:39.848Z</time></trkpt><trkpt lat="43.41680833" lon="13.28469833"><ele>195.0</ele><time>2022-03-17T16:12:40.863Z</time></trkpt><trkpt lat="43.41680833" lon="13.28469833"><ele>195.0</ele><time>2022-03-17T16:12:41.877Z</time></trkpt><trkpt lat="43.416865" lon="13.28458333"><ele>195.0</ele><time>2022-03-17T16:12:42.849Z</time></trkpt><trkpt lat="43.41689333" lon="13.28452667"><ele>196.0</ele><time>2022-03-17T16:12:43.876Z</time></trkpt><trkpt lat="43.41689333" lon="13.28452667"><ele>196.0</ele><time>2022-03-17T16:12:44.849Z</time></trkpt><trkpt lat="43.41695" lon="13.28441333"><ele>195.0</ele><time>2022-03-17T16:12:45.864Z</time></trkpt><trkpt lat="43.41695" lon="13.28441333"><ele>195.0</ele><time>2022-03-17T16:12:46.881Z</time></trkpt><trkpt lat="43.41700833" lon="13.28429333"><ele>195.0</ele><time>2022-03-17T16:12:47.859Z</time></trkpt><trkpt lat="43.41700833" lon="13.28429333"><ele>195.0</ele><time>2022-03-17T16:12:48.870Z</time></trkpt><trkpt lat="43.41706667" lon="13.28416833"><ele>195.0</ele><time>2022-03-17T16:12:49.875Z</time></trkpt><trkpt lat="43.41709667" lon="13.28410833"><ele>195.0</ele><time>2022-03-17T16:12:50.846Z</time></trkpt><trkpt lat="43.41712833" lon="13.28404667"><ele>195.0</ele><time>2022-03-17T16:12:51.860Z</time></trkpt><trkpt lat="43.41712833" lon="13.28404667"><ele>195.0</ele><time>2022-03-17T16:12:52.852Z</time></trkpt><trkpt lat="43.41719333" lon="13.28392667"><ele>195.0</ele><time>2022-03-17T16:12:53.871Z</time></trkpt><trkpt lat="43.41719333" lon="13.28392667"><ele>195.0</ele><time>2022-03-17T16:12:54.859Z</time></trkpt><trkpt lat="43.417265" lon="13.283805"><ele>195.0</ele><time>2022-03-17T16:12:55.872Z</time></trkpt><trkpt lat="43.41730333" lon="13.28374333"><ele>195.0</ele><time>2022-03-17T16:12:56.848Z</time></trkpt><trkpt lat="43.41730333" lon="13.28374333"><ele>195.0</ele><time>2022-03-17T16:12:57.867Z</time></trkpt><trkpt lat="43.41738833" lon="13.28361333"><ele>195.0</ele><time>2022-03-17T16:12:58.851Z</time></trkpt><trkpt lat="43.41738833" lon="13.28361333"><ele>195.0</ele><time>2022-03-17T16:12:59.879Z</time></trkpt><trkpt lat="43.41747167" lon="13.28347167"><ele>195.0</ele><time>2022-03-17T16:13:00.882Z</time></trkpt><trkpt lat="43.41747167" lon="13.28347167"><ele>195.0</ele><time>2022-03-17T16:13:01.884Z</time></trkpt><trkpt lat="43.41756333" lon="13.28333167"><ele>194.0</ele><time>2022-03-17T16:13:02.856Z</time></trkpt><trkpt lat="43.41760833" lon="13.28325667"><ele>194.0</ele><time>2022-03-17T16:13:03.875Z</time></trkpt><trkpt lat="43.41765667" lon="13.28317833"><ele>194.0</ele><time>2022-03-17T16:13:04.854Z</time></trkpt><trkpt lat="43.41765667" lon="13.28317833"><ele>194.0</ele><time>2022-03-17T16:13:05.869Z</time></trkpt><trkpt lat="43.41775833" lon="13.28302333"><ele>193.0</ele><time>2022-03-17T16:13:06.886Z</time></trkpt><trkpt lat="43.41775833" lon="13.28302333"><ele>193.0</ele><time>2022-03-17T16:13:07.857Z</time></trkpt><trkpt lat="43.41786167" lon="13.28286833"><ele>193.0</ele><time>2022-03-17T16:13:08.865Z</time></trkpt><trkpt lat="43.41786167" lon="13.28286833"><ele>193.0</ele><time>2022-03-17T16:13:09.884Z</time></trkpt><trkpt lat="43.41797167" lon="13.28272"><ele>192.0</ele><time>2022-03-17T16:13:10.852Z</time></trkpt><trkpt lat="43.41797167" lon="13.28272"><ele>192.0</ele><time>2022-03-17T16:13:11.885Z</time></trkpt><trkpt lat="43.41808833" lon="13.28260167"><ele>192.0</ele><time>2022-03-17T16:13:12.884Z</time></trkpt><trkpt lat="43.41815" lon="13.28256167"><ele>192.0</ele><time>2022-03-17T16:13:13.888Z</time></trkpt><trkpt lat="43.41815" lon="13.28256167"><ele>192.0</ele><time>2022-03-17T16:13:14.864Z</time></trkpt><trkpt lat="43.41827833" lon="13.282505"><ele>192.0</ele><time>2022-03-17T16:13:15.878Z</time></trkpt><trkpt lat="43.41833833" lon="13.282485"><ele>192.0</ele><time>2022-03-17T16:13:16.863Z</time></trkpt><trkpt lat="43.41833833" lon="13.282485"><ele>192.0</ele><time>2022-03-17T16:13:17.879Z</time></trkpt><trkpt lat="43.41844833" lon="13.28243833"><ele>192.0</ele><time>2022-03-17T16:13:18.891Z</time></trkpt><trkpt lat="43.41849833" lon="13.282405"><ele>192.0</ele><time>2022-03-17T16:13:19.863Z</time></trkpt><trkpt lat="43.41849833" lon="13.282405"><ele>192.0</ele><time>2022-03-17T16:13:20.871Z</time></trkpt><trkpt lat="43.41859" lon="13.282325"><ele>193.0</ele><time>2022-03-17T16:13:21.882Z</time></trkpt><trkpt lat="43.41863333" lon="13.28227667"><ele>194.0</ele><time>2022-03-17T16:13:22.860Z</time></trkpt><trkpt lat="43.41863333" lon="13.28227667"><ele>194.0</ele><time>2022-03-17T16:13:23.884Z</time></trkpt><trkpt lat="43.418695" lon="13.28215833"><ele>194.0</ele><time>2022-03-17T16:13:24.858Z</time></trkpt><trkpt lat="43.41871833" lon="13.28209667"><ele>194.0</ele><time>2022-03-17T16:13:25.849Z</time></trkpt><trkpt lat="43.41871833" lon="13.28209667"><ele>194.0</ele><time>2022-03-17T16:13:26.874Z</time></trkpt><trkpt lat="43.41875333" lon="13.281975"><ele>195.0</ele><time>2022-03-17T16:13:27.851Z</time></trkpt><trkpt lat="43.41877" lon="13.281915"><ele>195.0</ele><time>2022-03-17T16:13:28.854Z</time></trkpt><trkpt lat="43.41877" lon="13.281915"><ele>195.0</ele><time>2022-03-17T16:13:29.885Z</time></trkpt><trkpt lat="43.418795" lon="13.28179333"><ele>195.0</ele><time>2022-03-17T16:13:30.852Z</time></trkpt><trkpt lat="43.418795" lon="13.28179333"><ele>195.0</ele><time>2022-03-17T16:13:31.865Z</time></trkpt><trkpt lat="43.41882167" lon="13.28167167"><ele>196.0</ele><time>2022-03-17T16:13:32.907Z</time></trkpt><trkpt lat="43.41882167" lon="13.28167167"><ele>196.0</ele><time>2022-03-17T16:13:33.859Z</time></trkpt><trkpt lat="43.41884667" lon="13.28154833"><ele>196.0</ele><time>2022-03-17T16:13:34.871Z</time></trkpt><trkpt lat="43.41884667" lon="13.28154833"><ele>196.0</ele><time>2022-03-17T16:13:35.857Z</time></trkpt><trkpt lat="43.41887333" lon="13.28144"><ele>196.0</ele><time>2022-03-17T16:13:36.871Z</time></trkpt><trkpt lat="43.41888833" lon="13.28138833"><ele>197.0</ele><time>2022-03-17T16:13:37.854Z</time></trkpt><trkpt lat="43.41888833" lon="13.28138833"><ele>197.0</ele><time>2022-03-17T16:13:38.882Z</time></trkpt><trkpt lat="43.41891667" lon="13.28128167"><ele>197.0</ele><time>2022-03-17T16:13:39.857Z</time></trkpt><trkpt lat="43.41891667" lon="13.28128167"><ele>197.0</ele><time>2022-03-17T16:13:40.850Z</time></trkpt><trkpt lat="43.41894667" lon="13.28117667"><ele>197.0</ele><time>2022-03-17T16:13:41.867Z</time></trkpt><trkpt lat="43.41894667" lon="13.28117667"><ele>197.0</ele><time>2022-03-17T16:13:42.874Z</time></trkpt><trkpt lat="43.41897167" lon="13.28107"><ele>197.0</ele><time>2022-03-17T16:13:43.884Z</time></trkpt><trkpt lat="43.418985" lon="13.28101667"><ele>197.0</ele><time>2022-03-17T16:13:44.864Z</time></trkpt><trkpt lat="43.418985" lon="13.28101667"><ele>197.0</ele><time>2022-03-17T16:13:45.849Z</time></trkpt><trkpt lat="43.41901667" lon="13.28090833"><ele>197.0</ele><time>2022-03-17T16:13:46.864Z</time></trkpt><trkpt lat="43.41901667" lon="13.28090833"><ele>197.0</ele><time>2022-03-17T16:13:47.859Z</time></trkpt><trkpt lat="43.41905167" lon="13.28080167"><ele>197.0</ele><time>2022-03-17T16:13:48.882Z</time></trkpt><trkpt lat="43.41906667" lon="13.28074833"><ele>197.0</ele><time>2022-03-17T16:13:49.878Z</time></trkpt><trkpt lat="43.41906667" lon="13.28074833"><ele>197.0</ele><time>2022-03-17T16:13:50.858Z</time></trkpt><trkpt lat="43.41908833" lon="13.28063"><ele>198.0</ele><time>2022-03-17T16:13:51.871Z</time></trkpt><trkpt lat="43.41909833" lon="13.28057333"><ele>198.0</ele><time>2022-03-17T16:13:52.850Z</time></trkpt><trkpt lat="43.41909833" lon="13.28057333"><ele>198.0</ele><time>2022-03-17T16:13:53.866Z</time></trkpt><trkpt lat="43.41912167" lon="13.28046333"><ele>199.0</ele><time>2022-03-17T16:13:54.846Z</time></trkpt><trkpt lat="43.419135" lon="13.280405"><ele>199.0</ele><time>2022-03-17T16:13:55.879Z</time></trkpt><trkpt lat="43.419135" lon="13.280405"><ele>199.0</ele><time>2022-03-17T16:13:56.851Z</time></trkpt><trkpt lat="43.41915667" lon="13.28030333"><ele>199.0</ele><time>2022-03-17T16:13:57.869Z</time></trkpt><trkpt lat="43.419165" lon="13.28025333"><ele>199.0</ele><time>2022-03-17T16:13:58.852Z</time></trkpt><trkpt lat="43.419165" lon="13.28025333"><ele>199.0</ele><time>2022-03-17T16:13:59.871Z</time></trkpt><trkpt lat="43.419185" lon="13.28015833"><ele>200.0</ele><time>2022-03-17T16:14:00.853Z</time></trkpt><trkpt lat="43.419185" lon="13.28015833"><ele>200.0</ele><time>2022-03-17T16:14:01.861Z</time></trkpt><trkpt lat="43.4192" lon="13.28006667"><ele>201.0</ele><time>2022-03-17T16:14:02.879Z</time></trkpt><trkpt lat="43.4192" lon="13.28006667"><ele>201.0</ele><time>2022-03-17T16:14:03.858Z</time></trkpt><trkpt lat="43.41921833" lon="13.279965"><ele>201.0</ele><time>2022-03-17T16:14:04.876Z</time></trkpt><trkpt lat="43.41921833" lon="13.279965"><ele>201.0</ele><time>2022-03-17T16:14:05.849Z</time></trkpt><trkpt lat="43.41924167" lon="13.279865"><ele>201.0</ele><time>2022-03-17T16:14:06.882Z</time></trkpt><trkpt lat="43.41924167" lon="13.279865"><ele>201.0</ele><time>2022-03-17T16:14:07.871Z</time></trkpt><trkpt lat="43.41926667" lon="13.27976167"><ele>202.0</ele><time>2022-03-17T16:14:08.882Z</time></trkpt><trkpt lat="43.41927833" lon="13.27971"><ele>202.0</ele><time>2022-03-17T16:14:09.850Z</time></trkpt><trkpt lat="43.41927833" lon="13.27971"><ele>202.0</ele><time>2022-03-17T16:14:10.866Z</time></trkpt><trkpt lat="43.41930333" lon="13.279605"><ele>202.0</ele><time>2022-03-17T16:14:11.847Z</time></trkpt><trkpt lat="43.41930333" lon="13.279605"><ele>202.0</ele><time>2022-03-17T16:14:12.880Z</time></trkpt><trkpt lat="43.41933167" lon="13.27949667"><ele>202.0</ele><time>2022-03-17T16:14:13.852Z</time></trkpt><trkpt lat="43.419345" lon="13.27944"><ele>202.0</ele><time>2022-03-17T16:14:14.854Z</time></trkpt><trkpt lat="43.419345" lon="13.27944"><ele>202.0</ele><time>2022-03-17T16:14:15.875Z</time></trkpt><trkpt lat="43.41937" lon="13.27933"><ele>202.0</ele><time>2022-03-17T16:14:16.885Z</time></trkpt><trkpt lat="43.41938333" lon="13.27927333"><ele>202.0</ele><time>2022-03-17T16:14:17.862Z</time></trkpt><trkpt lat="43.41938333" lon="13.27927333"><ele>202.0</ele><time>2022-03-17T16:14:18.880Z</time></trkpt><trkpt lat="43.41941" lon="13.27916333"><ele>202.0</ele><time>2022-03-17T16:14:19.848Z</time></trkpt><trkpt lat="43.41941" lon="13.27916333"><ele>202.0</ele><time>2022-03-17T16:14:20.864Z</time></trkpt><trkpt lat="43.41942667" lon="13.27905"><ele>202.0</ele><time>2022-03-17T16:14:21.885Z</time></trkpt><trkpt lat="43.41943667" lon="13.27899333"><ele>203.0</ele><time>2022-03-17T16:14:22.875Z</time></trkpt><trkpt lat="43.41943667" lon="13.27899333"><ele>203.0</ele><time>2022-03-17T16:14:23.853Z</time></trkpt><trkpt lat="43.41946667" lon="13.27888"><ele>203.0</ele><time>2022-03-17T16:14:24.872Z</time></trkpt><trkpt lat="43.41947833" lon="13.27882167"><ele>203.0</ele><time>2022-03-17T16:14:25.856Z</time></trkpt><trkpt lat="43.41947833" lon="13.27882167"><ele>203.0</ele><time>2022-03-17T16:14:26.878Z</time></trkpt><trkpt lat="43.41951167" lon="13.27869667"><ele>204.0</ele><time>2022-03-17T16:14:27.862Z</time></trkpt><trkpt lat="43.41952833" lon="13.27863167"><ele>204.0</ele><time>2022-03-17T16:14:28.884Z</time></trkpt><trkpt lat="43.419545" lon="13.27856833"><ele>204.0</ele><time>2022-03-17T16:14:29.864Z</time></trkpt><trkpt lat="43.419545" lon="13.27856833"><ele>204.0</ele><time>2022-03-17T16:14:30.858Z</time></trkpt><trkpt lat="43.41957333" lon="13.27844"><ele>204.0</ele><time>2022-03-17T16:14:31.868Z</time></trkpt><trkpt lat="43.41957333" lon="13.27844"><ele>204.0</ele><time>2022-03-17T16:14:32.883Z</time></trkpt><trkpt lat="43.41959667" lon="13.27831167"><ele>205.0</ele><time>2022-03-17T16:14:33.860Z</time></trkpt><trkpt lat="43.41961" lon="13.27824833"><ele>205.0</ele><time>2022-03-17T16:14:34.868Z</time></trkpt><trkpt lat="43.41961" lon="13.27824833"><ele>205.0</ele><time>2022-03-17T16:14:35.855Z</time></trkpt><trkpt lat="43.41963667" lon="13.27812"><ele>206.0</ele><time>2022-03-17T16:14:36.879Z</time></trkpt><trkpt lat="43.41963667" lon="13.27812"><ele>206.0</ele><time>2022-03-17T16:14:37.866Z</time></trkpt><trkpt lat="43.41965667" lon="13.27800667"><ele>206.0</ele><time>2022-03-17T16:14:38.856Z</time></trkpt><trkpt lat="43.419665" lon="13.27796"><ele>206.0</ele><time>2022-03-17T16:14:39.846Z</time></trkpt><trkpt lat="43.419665" lon="13.27796"><ele>206.0</ele><time>2022-03-17T16:14:40.869Z</time></trkpt><trkpt lat="43.41967167" lon="13.277875"><ele>207.0</ele><time>2022-03-17T16:14:41.884Z</time></trkpt><trkpt lat="43.41967167" lon="13.277875"><ele>207.0</ele><time>2022-03-17T16:14:42.874Z</time></trkpt><trkpt lat="43.41967667" lon="13.27779833"><ele>206.0</ele><time>2022-03-17T16:14:43.856Z</time></trkpt><trkpt lat="43.41967667" lon="13.27779833"><ele>206.0</ele><time>2022-03-17T16:14:44.871Z</time></trkpt><trkpt lat="43.41967833" lon="13.27773667"><ele>206.0</ele><time>2022-03-17T16:14:45.860Z</time></trkpt><trkpt lat="43.41967833" lon="13.27773667"><ele>206.0</ele><time>2022-03-17T16:14:46.885Z</time></trkpt><trkpt lat="43.419685" lon="13.27769"><ele>206.0</ele><time>2022-03-17T16:14:47.865Z</time></trkpt><trkpt lat="43.419685" lon="13.27769"><ele>206.0</ele><time>2022-03-17T16:14:48.881Z</time></trkpt><trkpt lat="43.41969167" lon="13.27764833"><ele>206.0</ele><time>2022-03-17T16:14:49.860Z</time></trkpt><trkpt lat="43.41969167" lon="13.27764833"><ele>206.0</ele><time>2022-03-17T16:14:50.870Z</time></trkpt><trkpt lat="43.419695" lon="13.27761"><ele>206.0</ele><time>2022-03-17T16:14:51.878Z</time></trkpt><trkpt lat="43.419695" lon="13.27761"><ele>206.0</ele><time>2022-03-17T16:14:52.861Z</time></trkpt><trkpt lat="43.41968833" lon="13.277575"><ele>206.0</ele><time>2022-03-17T16:14:53.851Z</time></trkpt><trkpt lat="43.41968833" lon="13.277575"><ele>206.0</ele><time>2022-03-17T16:14:54.848Z</time></trkpt><trkpt lat="43.41968" lon="13.277555"><ele>206.0</ele><time>2022-03-17T16:14:55.862Z</time></trkpt><trkpt lat="43.41968" lon="13.277555"><ele>206.0</ele><time>2022-03-17T16:14:56.871Z</time></trkpt><trkpt lat="43.41968" lon="13.277555"><ele>207.0</ele><time>2022-03-17T16:14:57.855Z</time></trkpt><trkpt lat="43.4197" lon="13.277485"><ele>206.0</ele><time>2022-03-17T16:14:58.853Z</time></trkpt><trkpt lat="43.4197" lon="13.27744167"><ele>206.0</ele><time>2022-03-17T16:14:59.856Z</time></trkpt><trkpt lat="43.4197" lon="13.27744167"><ele>206.0</ele><time>2022-03-17T16:15:00.852Z</time></trkpt><trkpt lat="43.4197" lon="13.27734"><ele>206.0</ele><time>2022-03-17T16:15:01.863Z</time></trkpt><trkpt lat="43.4197" lon="13.27734"><ele>206.0</ele><time>2022-03-17T16:15:02.870Z</time></trkpt><trkpt lat="43.41969667" lon="13.27724833"><ele>206.0</ele><time>2022-03-17T16:15:03.858Z</time></trkpt><trkpt lat="43.41969667" lon="13.27724833"><ele>206.0</ele><time>2022-03-17T16:15:04.864Z</time></trkpt><trkpt lat="43.41969" lon="13.27717833"><ele>205.0</ele><time>2022-03-17T16:15:05.885Z</time></trkpt><trkpt lat="43.41969" lon="13.27717833"><ele>205.0</ele><time>2022-03-17T16:15:06.851Z</time></trkpt><trkpt lat="43.41967333" lon="13.27708"><ele>205.0</ele><time>2022-03-17T16:15:07.882Z</time></trkpt><trkpt lat="43.41967333" lon="13.27708"><ele>205.0</ele><time>2022-03-17T16:15:08.849Z</time></trkpt><trkpt lat="43.41964667" lon="13.27695167"><ele>204.0</ele><time>2022-03-17T16:15:09.869Z</time></trkpt><trkpt lat="43.41962667" lon="13.27687667"><ele>204.0</ele><time>2022-03-17T16:15:10.860Z</time></trkpt><trkpt lat="43.41962667" lon="13.27687667"><ele>204.0</ele><time>2022-03-17T16:15:11.866Z</time></trkpt><trkpt lat="43.419575" lon="13.27672333"><ele>204.0</ele><time>2022-03-17T16:15:12.908Z</time></trkpt><trkpt lat="43.419575" lon="13.27672333"><ele>204.0</ele><time>2022-03-17T16:15:13.874Z</time></trkpt><trkpt lat="43.41950833" lon="13.27655667"><ele>203.0</ele><time>2022-03-17T16:15:14.862Z</time></trkpt><trkpt lat="43.41950833" lon="13.27655667"><ele>203.0</ele><time>2022-03-17T16:15:15.869Z</time></trkpt><trkpt lat="43.41943667" lon="13.27637167"><ele>203.0</ele><time>2022-03-17T16:15:16.856Z</time></trkpt><trkpt lat="43.41943667" lon="13.27637167"><ele>203.0</ele><time>2022-03-17T16:15:17.862Z</time></trkpt><trkpt lat="43.41938167" lon="13.27618167"><ele>203.0</ele><time>2022-03-17T16:15:18.879Z</time></trkpt><trkpt lat="43.41938167" lon="13.27618167"><ele>203.0</ele><time>2022-03-17T16:15:19.885Z</time></trkpt><trkpt lat="43.41935" lon="13.27599"><ele>203.0</ele><time>2022-03-17T16:15:20.870Z</time></trkpt><trkpt lat="43.41935" lon="13.27599"><ele>203.0</ele><time>2022-03-17T16:15:21.879Z</time></trkpt><trkpt lat="43.41933667" lon="13.27580167"><ele>203.0</ele><time>2022-03-17T16:15:22.867Z</time></trkpt><trkpt lat="43.41933667" lon="13.27580167"><ele>203.0</ele><time>2022-03-17T16:15:23.875Z</time></trkpt><trkpt lat="43.419335" lon="13.27562167"><ele>203.0</ele><time>2022-03-17T16:15:24.866Z</time></trkpt><trkpt lat="43.419335" lon="13.27562167"><ele>203.0</ele><time>2022-03-17T16:15:25.881Z</time></trkpt><trkpt lat="43.419335" lon="13.27544333"><ele>203.0</ele><time>2022-03-17T16:15:26.861Z</time></trkpt><trkpt lat="43.41933667" lon="13.27535167"><ele>203.0</ele><time>2022-03-17T16:15:27.883Z</time></trkpt><trkpt lat="43.41933667" lon="13.27535167"><ele>203.0</ele><time>2022-03-17T16:15:28.849Z</time></trkpt><trkpt lat="43.41934" lon="13.27516833"><ele>202.0</ele><time>2022-03-17T16:15:29.873Z</time></trkpt><trkpt lat="43.41934" lon="13.27507667"><ele>202.0</ele><time>2022-03-17T16:15:30.851Z</time></trkpt><trkpt lat="43.41934" lon="13.27507667"><ele>202.0</ele><time>2022-03-17T16:15:31.857Z</time></trkpt><trkpt lat="43.419335" lon="13.27490167"><ele>202.0</ele><time>2022-03-17T16:15:32.876Z</time></trkpt><trkpt lat="43.419335" lon="13.27490167"><ele>202.0</ele><time>2022-03-17T16:15:33.883Z</time></trkpt><trkpt lat="43.419335" lon="13.27472333"><ele>202.0</ele><time>2022-03-17T16:15:34.857Z</time></trkpt><trkpt lat="43.419335" lon="13.274635"><ele>202.0</ele><time>2022-03-17T16:15:35.856Z</time></trkpt><trkpt lat="43.419335" lon="13.274635"><ele>202.0</ele><time>2022-03-17T16:15:36.862Z</time></trkpt><trkpt lat="43.41933333" lon="13.27447167"><ele>202.0</ele><time>2022-03-17T16:15:37.877Z</time></trkpt><trkpt lat="43.41933333" lon="13.27447167"><ele>202.0</ele><time>2022-03-17T16:15:38.853Z</time></trkpt><trkpt lat="43.419325" lon="13.27432333"><ele>202.0</ele><time>2022-03-17T16:15:39.878Z</time></trkpt><trkpt lat="43.419325" lon="13.27432333"><ele>202.0</ele><time>2022-03-17T16:15:40.884Z</time></trkpt><trkpt lat="43.419305" lon="13.27419667"><ele>203.0</ele><time>2022-03-17T16:15:41.868Z</time></trkpt><trkpt lat="43.41929167" lon="13.27413833"><ele>203.0</ele><time>2022-03-17T16:15:42.850Z</time></trkpt><trkpt lat="43.41929167" lon="13.27413833"><ele>203.0</ele><time>2022-03-17T16:15:43.857Z</time></trkpt><trkpt lat="43.419265" lon="13.27403167"><ele>204.0</ele><time>2022-03-17T16:15:44.861Z</time></trkpt><trkpt lat="43.419265" lon="13.27403167"><ele>204.0</ele><time>2022-03-17T16:15:45.868Z</time></trkpt><trkpt lat="43.41923" lon="13.27393167"><ele>205.0</ele><time>2022-03-17T16:15:46.853Z</time></trkpt><trkpt lat="43.41923" lon="13.27393167"><ele>205.0</ele><time>2022-03-17T16:15:47.859Z</time></trkpt><trkpt lat="43.41919333" lon="13.27383333"><ele>205.0</ele><time>2022-03-17T16:15:48.884Z</time></trkpt><trkpt lat="43.41919333" lon="13.27383333"><ele>205.0</ele><time>2022-03-17T16:15:49.850Z</time></trkpt><trkpt lat="43.41915833" lon="13.27373"><ele>205.0</ele><time>2022-03-17T16:15:50.873Z</time></trkpt><trkpt lat="43.41914" lon="13.273675"><ele>205.0</ele><time>2022-03-17T16:15:51.871Z</time></trkpt><trkpt lat="43.41914" lon="13.273675"><ele>205.0</ele><time>2022-03-17T16:15:52.877Z</time></trkpt><trkpt lat="43.41910167" lon="13.27356667"><ele>206.0</ele><time>2022-03-17T16:15:53.863Z</time></trkpt><trkpt lat="43.41910167" lon="13.27356667"><ele>206.0</ele><time>2022-03-17T16:15:54.870Z</time></trkpt><trkpt lat="43.41907" lon="13.27345833"><ele>206.0</ele><time>2022-03-17T16:15:55.853Z</time></trkpt><trkpt lat="43.41907" lon="13.27345833"><ele>206.0</ele><time>2022-03-17T16:15:56.859Z</time></trkpt><trkpt lat="43.41903833" lon="13.27335333"><ele>206.0</ele><time>2022-03-17T16:15:57.881Z</time></trkpt><trkpt lat="43.41903833" lon="13.27335333"><ele>206.0</ele><time>2022-03-17T16:15:58.848Z</time></trkpt><trkpt lat="43.419" lon="13.27325"><ele>206.0</ele><time>2022-03-17T16:15:59.879Z</time></trkpt><trkpt lat="43.41898167" lon="13.27319667"><ele>206.0</ele><time>2022-03-17T16:16:00.859Z</time></trkpt><trkpt lat="43.41898167" lon="13.27319667"><ele>206.0</ele><time>2022-03-17T16:16:01.866Z</time></trkpt><trkpt lat="43.41894667" lon="13.27308833"><ele>207.0</ele><time>2022-03-17T16:16:02.852Z</time></trkpt><trkpt lat="43.41894667" lon="13.27308833"><ele>207.0</ele><time>2022-03-17T16:16:03.859Z</time></trkpt><trkpt lat="43.41890833" lon="13.27297833"><ele>207.0</ele><time>2022-03-17T16:16:04.866Z</time></trkpt><trkpt lat="43.41890833" lon="13.27297833"><ele>207.0</ele><time>2022-03-17T16:16:05.873Z</time></trkpt><trkpt lat="43.41887167" lon="13.27286333"><ele>207.0</ele><time>2022-03-17T16:16:06.850Z</time></trkpt><trkpt lat="43.41887167" lon="13.27286333"><ele>207.0</ele><time>2022-03-17T16:16:07.857Z</time></trkpt><trkpt lat="43.41883833" lon="13.27275167"><ele>207.0</ele><time>2022-03-17T16:16:08.851Z</time></trkpt><trkpt lat="43.41883833" lon="13.27275167"><ele>207.0</ele><time>2022-03-17T16:16:09.858Z</time></trkpt><trkpt lat="43.41880167" lon="13.272645"><ele>207.0</ele><time>2022-03-17T16:16:10.874Z</time></trkpt><trkpt lat="43.41880167" lon="13.272645"><ele>207.0</ele><time>2022-03-17T16:16:11.882Z</time></trkpt><trkpt lat="43.41876833" lon="13.27253333"><ele>207.0</ele><time>2022-03-17T16:16:12.903Z</time></trkpt><trkpt lat="43.41876833" lon="13.27253333"><ele>207.0</ele><time>2022-03-17T16:16:13.865Z</time></trkpt><trkpt lat="43.41874167" lon="13.27242167"><ele>208.0</ele><time>2022-03-17T16:16:14.854Z</time></trkpt><trkpt lat="43.41874167" lon="13.27242167"><ele>208.0</ele><time>2022-03-17T16:16:15.860Z</time></trkpt><trkpt lat="43.41871333" lon="13.27231"><ele>208.0</ele><time>2022-03-17T16:16:16.880Z</time></trkpt><trkpt lat="43.41871333" lon="13.27231"><ele>208.0</ele><time>2022-03-17T16:16:17.846Z</time></trkpt><trkpt lat="43.41869167" lon="13.27220333"><ele>209.0</ele><time>2022-03-17T16:16:18.863Z</time></trkpt><trkpt lat="43.41869167" lon="13.27220333"><ele>209.0</ele><time>2022-03-17T16:16:19.870Z</time></trkpt><trkpt lat="43.41867667" lon="13.27210833"><ele>209.0</ele><time>2022-03-17T16:16:20.871Z</time></trkpt><trkpt lat="43.41867" lon="13.27206333"><ele>209.0</ele><time>2022-03-17T16:16:21.851Z</time></trkpt><trkpt lat="43.41867" lon="13.27206333"><ele>209.0</ele><time>2022-03-17T16:16:22.857Z</time></trkpt><trkpt lat="43.41866333" lon="13.271975"><ele>210.0</ele><time>2022-03-17T16:21:23.903Z</time></trkpt><trkpt lat="43.41866333" lon="13.271975"><ele>210.0</ele><time>2022-03-17T16:21:24.914Z</time></trkpt><trkpt lat="43.41865833" lon="13.27189167"><ele>210.0</ele><time>2022-03-17T16:21:25.890Z</time></trkpt><trkpt lat="43.41865833" lon="13.27189167"><ele>210.0</ele><time>2022-03-17T16:21:26.897Z</time></trkpt><trkpt lat="43.41864833" lon="13.27180833"><ele>211.0</ele><time>2022-03-17T16:21:27.884Z</time></trkpt><trkpt lat="43.418645" lon="13.271765"><ele>211.0</ele><time>2022-03-17T16:21:28.909Z</time></trkpt><trkpt lat="43.418645" lon="13.271765"><ele>211.0</ele><time>2022-03-17T16:21:29.915Z</time></trkpt><trkpt lat="43.41863833" lon="13.27167833"><ele>211.0</ele><time>2022-03-17T16:21:30.889Z</time></trkpt><trkpt lat="43.41863833" lon="13.27167833"><ele>211.0</ele><time>2022-03-17T16:21:31.895Z</time></trkpt><trkpt lat="43.41863167" lon="13.27158667"><ele>212.0</ele><time>2022-03-17T16:21:32.880Z</time></trkpt><trkpt lat="43.41863167" lon="13.27158667"><ele>212.0</ele><time>2022-03-17T16:21:33.886Z</time></trkpt><trkpt lat="43.41862333" lon="13.271495"><ele>212.0</ele><time>2022-03-17T16:21:34.905Z</time></trkpt><trkpt lat="43.41862" lon="13.27144667"><ele>211.0</ele><time>2022-03-17T16:21:35.888Z</time></trkpt><trkpt lat="43.418615" lon="13.271395"><ele>211.0</ele><time>2022-03-17T16:21:36.879Z</time></trkpt><trkpt lat="43.418615" lon="13.271395"><ele>211.0</ele><time>2022-03-17T16:21:37.885Z</time></trkpt><trkpt lat="43.418605" lon="13.27129"><ele>211.0</ele><time>2022-03-17T16:21:38.907Z</time></trkpt><trkpt lat="43.418605" lon="13.27129"><ele>211.0</ele><time>2022-03-17T16:21:39.884Z</time></trkpt><trkpt lat="43.41859833" lon="13.27117833"><ele>211.0</ele><time>2022-03-17T16:21:40.914Z</time></trkpt><trkpt lat="43.4186" lon="13.27112167"><ele>211.0</ele><time>2022-03-17T16:21:41.894Z</time></trkpt><trkpt lat="43.4186" lon="13.27112167"><ele>211.0</ele><time>2022-03-17T16:21:42.900Z</time></trkpt><trkpt lat="43.41861333" lon="13.27100667"><ele>211.0</ele><time>2022-03-17T16:21:43.879Z</time></trkpt><trkpt lat="43.41861333" lon="13.27100667"><ele>211.0</ele><time>2022-03-17T16:21:44.886Z</time></trkpt><trkpt lat="43.41862833" lon="13.27089"><ele>211.0</ele><time>2022-03-17T16:21:45.906Z</time></trkpt><trkpt lat="43.41863667" lon="13.27083167"><ele>211.0</ele><time>2022-03-17T16:21:46.879Z</time></trkpt><trkpt lat="43.41863667" lon="13.27083167"><ele>211.0</ele><time>2022-03-17T16:21:47.886Z</time></trkpt><trkpt lat="43.418655" lon="13.270715"><ele>211.0</ele><time>2022-03-17T16:21:48.906Z</time></trkpt><trkpt lat="43.418655" lon="13.270715"><ele>211.0</ele><time>2022-03-17T16:21:49.911Z</time></trkpt><trkpt lat="43.41866333" lon="13.2706"><ele>211.0</ele><time>2022-03-17T16:21:50.890Z</time></trkpt><trkpt lat="43.41867" lon="13.270545"><ele>211.0</ele><time>2022-03-17T16:21:51.912Z</time></trkpt><trkpt lat="43.41867" lon="13.270545"><ele>211.0</ele><time>2022-03-17T16:21:52.879Z</time></trkpt><trkpt lat="43.41868333" lon="13.27043"><ele>212.0</ele><time>2022-03-17T16:21:53.897Z</time></trkpt><trkpt lat="43.41869" lon="13.27037667"><ele>212.0</ele><time>2022-03-17T16:21:54.895Z</time></trkpt><trkpt lat="43.41869" lon="13.27037667"><ele>212.0</ele><time>2022-03-17T16:21:55.901Z</time></trkpt><trkpt lat="43.41869667" lon="13.27027"><ele>213.0</ele><time>2022-03-17T16:21:56.896Z</time></trkpt><trkpt lat="43.41869667" lon="13.27027"><ele>213.0</ele><time>2022-03-17T16:21:57.902Z</time></trkpt><trkpt lat="43.41869167" lon="13.27015833"><ele>212.0</ele><time>2022-03-17T16:21:58.888Z</time></trkpt><trkpt lat="43.41868833" lon="13.270105"><ele>212.0</ele><time>2022-03-17T16:21:59.913Z</time></trkpt><trkpt lat="43.41868833" lon="13.270105"><ele>212.0</ele><time>2022-03-17T16:22:00.880Z</time></trkpt><trkpt lat="43.418685" lon="13.26999833"><ele>212.0</ele><time>2022-03-17T16:22:01.895Z</time></trkpt><trkpt lat="43.418685" lon="13.26999833"><ele>212.0</ele><time>2022-03-17T16:22:02.901Z</time></trkpt><trkpt lat="43.41868667" lon="13.26989167"><ele>212.0</ele><time>2022-03-17T16:22:03.912Z</time></trkpt><trkpt lat="43.41868667" lon="13.26989167"><ele>212.0</ele><time>2022-03-17T16:22:04.878Z</time></trkpt><trkpt lat="43.41868167" lon="13.26979167"><ele>213.0</ele><time>2022-03-17T16:22:05.899Z</time></trkpt><trkpt lat="43.41868167" lon="13.26974333"><ele>213.0</ele><time>2022-03-17T16:22:06.879Z</time></trkpt><trkpt lat="43.41868167" lon="13.26974333"><ele>213.0</ele><time>2022-03-17T16:22:07.885Z</time></trkpt><trkpt lat="43.41867667" lon="13.26965"><ele>214.0</ele><time>2022-03-17T16:22:08.913Z</time></trkpt><trkpt lat="43.41867667" lon="13.26965"><ele>214.0</ele><time>2022-03-17T16:22:09.879Z</time></trkpt><trkpt lat="43.41867833" lon="13.26955"><ele>214.0</ele><time>2022-03-17T16:22:10.905Z</time></trkpt><trkpt lat="43.41867833" lon="13.26955"><ele>214.0</ele><time>2022-03-17T16:22:11.912Z</time></trkpt><trkpt lat="43.41868" lon="13.26946167"><ele>215.0</ele><time>2022-03-17T16:22:12.907Z</time></trkpt><trkpt lat="43.41867833" lon="13.26941833"><ele>215.0</ele><time>2022-03-17T16:22:13.899Z</time></trkpt><trkpt lat="43.41867833" lon="13.26941833"><ele>215.0</ele><time>2022-03-17T16:22:14.907Z</time></trkpt><trkpt lat="43.418675" lon="13.269335"><ele>216.0</ele><time>2022-03-17T16:22:15.895Z</time></trkpt><trkpt lat="43.418675" lon="13.269335"><ele>216.0</ele><time>2022-03-17T16:22:16.902Z</time></trkpt><trkpt lat="43.41867333" lon="13.26924167"><ele>216.0</ele><time>2022-03-17T16:22:17.893Z</time></trkpt><trkpt lat="43.41867333" lon="13.26924167"><ele>216.0</ele><time>2022-03-17T16:22:18.900Z</time></trkpt><trkpt lat="43.418675" lon="13.26916"><ele>217.0</ele><time>2022-03-17T16:22:19.899Z</time></trkpt><trkpt lat="43.418675" lon="13.26916"><ele>217.0</ele><time>2022-03-17T16:22:20.905Z</time></trkpt><trkpt lat="43.41866833" lon="13.26908167"><ele>218.0</ele><time>2022-03-17T16:22:21.910Z</time></trkpt><trkpt lat="43.41866333" lon="13.26904333"><ele>218.0</ele><time>2022-03-17T16:22:22.889Z</time></trkpt><trkpt lat="43.41866333" lon="13.26904333"><ele>218.0</ele><time>2022-03-17T16:22:23.895Z</time></trkpt><trkpt lat="43.41865333" lon="13.268955"><ele>218.0</ele><time>2022-03-17T16:22:24.913Z</time></trkpt><trkpt lat="43.41865333" lon="13.268955"><ele>218.0</ele><time>2022-03-17T16:22:25.879Z</time></trkpt><trkpt lat="43.41865" lon="13.26887667"><ele>219.0</ele><time>2022-03-17T16:22:26.905Z</time></trkpt><trkpt lat="43.41865167" lon="13.26884333"><ele>219.0</ele><time>2022-03-17T16:22:27.887Z</time></trkpt><trkpt lat="43.41865167" lon="13.26884333"><ele>219.0</ele><time>2022-03-17T16:22:28.901Z</time></trkpt><trkpt lat="43.41865167" lon="13.26877333"><ele>220.0</ele><time>2022-03-17T16:22:29.880Z</time></trkpt><trkpt lat="43.41865167" lon="13.26874167"><ele>221.0</ele><time>2022-03-17T16:22:30.910Z</time></trkpt><trkpt lat="43.41865167" lon="13.26874167"><ele>221.0</ele><time>2022-03-17T16:22:31.877Z</time></trkpt><trkpt lat="43.41864833" lon="13.268675"><ele>222.0</ele><time>2022-03-17T16:22:32.893Z</time></trkpt><trkpt lat="43.418645" lon="13.26864167"><ele>222.0</ele><time>2022-03-17T16:22:33.913Z</time></trkpt><trkpt lat="43.418645" lon="13.26864167"><ele>222.0</ele><time>2022-03-17T16:22:34.879Z</time></trkpt><trkpt lat="43.418635" lon="13.26857667"><ele>222.0</ele><time>2022-03-17T16:22:35.905Z</time></trkpt><trkpt lat="43.41863167" lon="13.26854333"><ele>223.0</ele><time>2022-03-17T16:22:36.894Z</time></trkpt><trkpt lat="43.41863167" lon="13.26854333"><ele>223.0</ele><time>2022-03-17T16:22:37.900Z</time></trkpt><trkpt lat="43.41862333" lon="13.26847667"><ele>223.0</ele><time>2022-03-17T16:22:38.915Z</time></trkpt><trkpt lat="43.41861667" lon="13.26844333"><ele>223.0</ele><time>2022-03-17T16:22:39.911Z</time></trkpt><trkpt lat="43.41861667" lon="13.26844333"><ele>223.0</ele><time>2022-03-17T16:22:40.878Z</time></trkpt><trkpt lat="43.41860667" lon="13.26837333"><ele>224.0</ele><time>2022-03-17T16:22:41.903Z</time></trkpt><trkpt lat="43.41859833" lon="13.26834167"><ele>224.0</ele><time>2022-03-17T16:22:42.886Z</time></trkpt><trkpt lat="43.41859833" lon="13.26834167"><ele>224.0</ele><time>2022-03-17T16:22:43.892Z</time></trkpt><trkpt lat="43.41858333" lon="13.26827667"><ele>225.0</ele><time>2022-03-17T16:22:44.878Z</time></trkpt><trkpt lat="43.41858333" lon="13.26827667"><ele>225.0</ele><time>2022-03-17T16:22:45.884Z</time></trkpt><trkpt lat="43.41857167" lon="13.26820833"><ele>225.0</ele><time>2022-03-17T16:22:46.878Z</time></trkpt><trkpt lat="43.41857167" lon="13.26820833"><ele>225.0</ele><time>2022-03-17T16:22:47.884Z</time></trkpt><trkpt lat="43.41855833" lon="13.26814333"><ele>226.0</ele><time>2022-03-17T16:22:48.913Z</time></trkpt><trkpt lat="43.41855833" lon="13.26814333"><ele>226.0</ele><time>2022-03-17T16:22:49.879Z</time></trkpt><trkpt lat="43.41853667" lon="13.268085"><ele>226.0</ele><time>2022-03-17T16:22:50.903Z</time></trkpt><trkpt lat="43.41853667" lon="13.268085"><ele>226.0</ele><time>2022-03-17T16:22:51.912Z</time></trkpt><trkpt lat="43.418525" lon="13.268025"><ele>227.0</ele><time>2022-03-17T16:22:52.904Z</time></trkpt><trkpt lat="43.418525" lon="13.268025"><ele>227.0</ele><time>2022-03-17T16:22:53.913Z</time></trkpt><trkpt lat="43.41851333" lon="13.26796167"><ele>227.0</ele><time>2022-03-17T16:22:54.883Z</time></trkpt><trkpt lat="43.41851333" lon="13.26796167"><ele>227.0</ele><time>2022-03-17T16:22:55.889Z</time></trkpt><trkpt lat="43.41850333" lon="13.267895"><ele>227.0</ele><time>2022-03-17T16:22:56.912Z</time></trkpt><trkpt lat="43.41849667" lon="13.26786667"><ele>228.0</ele><time>2022-03-17T16:22:57.903Z</time></trkpt><trkpt lat="43.41849667" lon="13.26786667"><ele>228.0</ele><time>2022-03-17T16:22:58.912Z</time></trkpt><trkpt lat="43.41848" lon="13.267805"><ele>228.0</ele><time>2022-03-17T16:22:59.898Z</time></trkpt><trkpt lat="43.41847333" lon="13.26777333"><ele>228.0</ele><time>2022-03-17T16:23:00.916Z</time></trkpt><trkpt lat="43.41847333" lon="13.26777333"><ele>228.0</ele><time>2022-03-17T16:23:01.883Z</time></trkpt><trkpt lat="43.41845667" lon="13.26771333"><ele>228.0</ele><time>2022-03-17T16:23:02.901Z</time></trkpt><trkpt lat="43.41845667" lon="13.26771333"><ele>228.0</ele><time>2022-03-17T16:23:03.912Z</time></trkpt><trkpt lat="43.41843833" lon="13.26765167"><ele>229.0</ele><time>2022-03-17T16:23:04.893Z</time></trkpt><trkpt lat="43.41843833" lon="13.26765167"><ele>229.0</ele><time>2022-03-17T16:23:05.900Z</time></trkpt><trkpt lat="43.41842333" lon="13.26758833"><ele>229.0</ele><time>2022-03-17T16:23:06.881Z</time></trkpt><trkpt lat="43.41842333" lon="13.26758833"><ele>229.0</ele><time>2022-03-17T16:23:07.888Z</time></trkpt><trkpt lat="43.41841167" lon="13.26752667"><ele>230.0</ele><time>2022-03-17T16:23:08.901Z</time></trkpt><trkpt lat="43.418405" lon="13.26749833"><ele>230.0</ele><time>2022-03-17T16:23:09.905Z</time></trkpt><trkpt lat="43.418405" lon="13.26749833"><ele>230.0</ele><time>2022-03-17T16:23:10.912Z</time></trkpt><trkpt lat="43.418395" lon="13.26743667"><ele>231.0</ele><time>2022-03-17T16:23:11.890Z</time></trkpt><trkpt lat="43.418395" lon="13.26743667"><ele>231.0</ele><time>2022-03-17T16:23:12.927Z</time></trkpt><trkpt lat="43.41838" lon="13.267375"><ele>231.0</ele><time>2022-03-17T16:23:13.877Z</time></trkpt><trkpt lat="43.41837333" lon="13.26734"><ele>231.0</ele><time>2022-03-17T16:23:14.915Z</time></trkpt><trkpt lat="43.418365" lon="13.267305"><ele>232.0</ele><time>2022-03-17T16:23:15.904Z</time></trkpt><trkpt lat="43.418365" lon="13.267305"><ele>232.0</ele><time>2022-03-17T16:23:16.913Z</time></trkpt><trkpt lat="43.41835" lon="13.26723667"><ele>232.0</ele><time>2022-03-17T16:23:17.893Z</time></trkpt><trkpt lat="43.41834333" lon="13.26720167"><ele>232.0</ele><time>2022-03-17T16:23:18.886Z</time></trkpt><trkpt lat="43.41834333" lon="13.26720167"><ele>232.0</ele><time>2022-03-17T16:23:19.892Z</time></trkpt><trkpt lat="43.41832667" lon="13.267135"><ele>233.0</ele><time>2022-03-17T16:23:20.913Z</time></trkpt><trkpt lat="43.41832" lon="13.2671"><ele>233.0</ele><time>2022-03-17T16:23:21.900Z</time></trkpt><trkpt lat="43.41832" lon="13.2671"><ele>233.0</ele><time>2022-03-17T16:23:22.914Z</time></trkpt><trkpt lat="43.41831" lon="13.26703333"><ele>234.0</ele><time>2022-03-17T16:23:23.898Z</time></trkpt><trkpt lat="43.41831" lon="13.26703333"><ele>234.0</ele><time>2022-03-17T16:23:24.905Z</time></trkpt><trkpt lat="43.418295" lon="13.26697"><ele>235.0</ele><time>2022-03-17T16:23:25.886Z</time></trkpt><trkpt lat="43.418295" lon="13.26697"><ele>235.0</ele><time>2022-03-17T16:23:26.892Z</time></trkpt><trkpt lat="43.418285" lon="13.26690833"><ele>235.0</ele><time>2022-03-17T16:23:27.906Z</time></trkpt><trkpt lat="43.418285" lon="13.26690833"><ele>235.0</ele><time>2022-03-17T16:23:28.914Z</time></trkpt><trkpt lat="43.41827333" lon="13.26684333"><ele>236.0</ele><time>2022-03-17T16:23:29.910Z</time></trkpt><trkpt lat="43.41827333" lon="13.26684333"><ele>236.0</ele><time>2022-03-17T16:23:30.916Z</time></trkpt><trkpt lat="43.41826167" lon="13.26678"><ele>237.0</ele><time>2022-03-17T16:23:31.906Z</time></trkpt><trkpt lat="43.41826167" lon="13.26678"><ele>237.0</ele><time>2022-03-17T16:23:32.913Z</time></trkpt><trkpt lat="43.41825667" lon="13.266715"><ele>237.0</ele><time>2022-03-17T16:23:33.893Z</time></trkpt><trkpt lat="43.41825167" lon="13.26668833"><ele>237.0</ele><time>2022-03-17T16:23:34.910Z</time></trkpt><trkpt lat="43.41825167" lon="13.26668833"><ele>237.0</ele><time>2022-03-17T16:23:35.916Z</time></trkpt><trkpt lat="43.41823667" lon="13.26663"><ele>237.0</ele><time>2022-03-17T16:23:36.898Z</time></trkpt><trkpt lat="43.41823667" lon="13.26663"><ele>237.0</ele><time>2022-03-17T16:23:37.887Z</time></trkpt><trkpt lat="43.41821667" lon="13.26657167"><ele>238.0</ele><time>2022-03-17T16:23:38.883Z</time></trkpt><trkpt lat="43.41820333" lon="13.26654333"><ele>238.0</ele><time>2022-03-17T16:23:39.881Z</time></trkpt><trkpt lat="43.41820333" lon="13.26654333"><ele>238.0</ele><time>2022-03-17T16:23:40.888Z</time></trkpt><trkpt lat="43.41816833" lon="13.266485"><ele>239.0</ele><time>2022-03-17T16:23:41.905Z</time></trkpt><trkpt lat="43.41816833" lon="13.266485"><ele>239.0</ele><time>2022-03-17T16:23:42.911Z</time></trkpt><trkpt lat="43.41813" lon="13.266435"><ele>239.0</ele><time>2022-03-17T16:23:43.894Z</time></trkpt><trkpt lat="43.41813" lon="13.266435"><ele>239.0</ele><time>2022-03-17T16:23:44.900Z</time></trkpt><trkpt lat="43.418085" lon="13.26639"><ele>240.0</ele><time>2022-03-17T16:23:45.877Z</time></trkpt><trkpt lat="43.41806167" lon="13.26637333"><ele>240.0</ele><time>2022-03-17T16:23:46.907Z</time></trkpt><trkpt lat="43.41806167" lon="13.26637333"><ele>240.0</ele><time>2022-03-17T16:23:47.913Z</time></trkpt><trkpt lat="43.418015" lon="13.26634333"><ele>241.0</ele><time>2022-03-17T16:23:48.897Z</time></trkpt><trkpt lat="43.418015" lon="13.26634333"><ele>241.0</ele><time>2022-03-17T16:23:49.903Z</time></trkpt><trkpt lat="43.41797" lon="13.26630833"><ele>241.0</ele><time>2022-03-17T16:23:50.890Z</time></trkpt><trkpt lat="43.41795" lon="13.26629333"><ele>241.0</ele><time>2022-03-17T16:23:51.880Z</time></trkpt><trkpt lat="43.41795" lon="13.26629333"><ele>241.0</ele><time>2022-03-17T16:23:52.886Z</time></trkpt><trkpt lat="43.41790667" lon="13.26626667"><ele>242.0</ele><time>2022-03-17T16:23:53.913Z</time></trkpt><trkpt lat="43.41790667" lon="13.26626667"><ele>242.0</ele><time>2022-03-17T16:23:54.879Z</time></trkpt><trkpt lat="43.41786333" lon="13.26623667"><ele>242.0</ele><time>2022-03-17T16:23:55.896Z</time></trkpt><trkpt lat="43.41786333" lon="13.26623667"><ele>242.0</ele><time>2022-03-17T16:23:56.902Z</time></trkpt><trkpt lat="43.41781833" lon="13.26620667"><ele>243.0</ele><time>2022-03-17T16:23:57.887Z</time></trkpt><trkpt lat="43.41779333" lon="13.26619"><ele>243.0</ele><time>2022-03-17T16:23:58.910Z</time></trkpt><trkpt lat="43.41779333" lon="13.26619"><ele>243.0</ele><time>2022-03-17T16:23:59.916Z</time></trkpt><trkpt lat="43.41774833" lon="13.26615667"><ele>244.0</ele><time>2022-03-17T16:24:00.900Z</time></trkpt><trkpt lat="43.41772833" lon="13.26613667"><ele>244.0</ele><time>2022-03-17T16:24:01.899Z</time></trkpt><trkpt lat="43.41772833" lon="13.26613667"><ele>244.0</ele><time>2022-03-17T16:24:02.911Z</time></trkpt><trkpt lat="43.41768833" lon="13.26608667"><ele>244.0</ele><time>2022-03-17T16:24:03.893Z</time></trkpt><trkpt lat="43.41768833" lon="13.26608667"><ele>244.0</ele><time>2022-03-17T16:24:04.900Z</time></trkpt><trkpt lat="43.41764833" lon="13.26603"><ele>244.0</ele><time>2022-03-17T16:24:05.894Z</time></trkpt><trkpt lat="43.41763167" lon="13.26600167"><ele>244.0</ele><time>2022-03-17T16:24:06.878Z</time></trkpt><trkpt lat="43.41763167" lon="13.26600167"><ele>244.0</ele><time>2022-03-17T16:24:07.884Z</time></trkpt><trkpt lat="43.41759333" lon="13.26593667"><ele>245.0</ele><time>2022-03-17T16:24:08.901Z</time></trkpt><trkpt lat="43.41757833" lon="13.26590167"><ele>245.0</ele><time>2022-03-17T16:24:09.890Z</time></trkpt><trkpt lat="43.41757833" lon="13.26590167"><ele>245.0</ele><time>2022-03-17T16:24:10.897Z</time></trkpt><trkpt lat="43.417555" lon="13.26582833"><ele>245.0</ele><time>2022-03-17T16:24:11.881Z</time></trkpt><trkpt lat="43.417555" lon="13.26582833"><ele>245.0</ele><time>2022-03-17T16:24:12.937Z</time></trkpt><trkpt lat="43.41753167" lon="13.26575333"><ele>245.0</ele><time>2022-03-17T16:24:13.901Z</time></trkpt><trkpt lat="43.41753167" lon="13.26575333"><ele>245.0</ele><time>2022-03-17T16:24:14.911Z</time></trkpt><trkpt lat="43.41751333" lon="13.26567833"><ele>245.0</ele><time>2022-03-17T16:24:15.893Z</time></trkpt><trkpt lat="43.41750667" lon="13.26563833"><ele>245.0</ele><time>2022-03-17T16:24:16.878Z</time></trkpt><trkpt lat="43.41750667" lon="13.26563833"><ele>245.0</ele><time>2022-03-17T16:24:17.886Z</time></trkpt><trkpt lat="43.41749833" lon="13.265565"><ele>245.0</ele><time>2022-03-17T16:24:18.901Z</time></trkpt><trkpt lat="43.41749833" lon="13.265565"><ele>245.0</ele><time>2022-03-17T16:24:19.911Z</time></trkpt><trkpt lat="43.41749167" lon="13.26548833"><ele>245.0</ele><time>2022-03-17T16:24:20.891Z</time></trkpt><trkpt lat="43.41749" lon="13.26545167"><ele>245.0</ele><time>2022-03-17T16:24:21.909Z</time></trkpt><trkpt lat="43.41749" lon="13.26545167"><ele>245.0</ele><time>2022-03-17T16:24:22.915Z</time></trkpt><trkpt lat="43.41748833" lon="13.26537833"><ele>246.0</ele><time>2022-03-17T16:24:23.889Z</time></trkpt><trkpt lat="43.41748667" lon="13.26533833"><ele>246.0</ele><time>2022-03-17T16:24:24.915Z</time></trkpt><trkpt lat="43.41748667" lon="13.26533833"><ele>246.0</ele><time>2022-03-17T16:24:25.881Z</time></trkpt><trkpt lat="43.41748167" lon="13.26525333"><ele>247.0</ele><time>2022-03-17T16:24:26.906Z</time></trkpt><trkpt lat="43.41748167" lon="13.265215"><ele>247.0</ele><time>2022-03-17T16:24:27.887Z</time></trkpt><trkpt lat="43.41748167" lon="13.265215"><ele>247.0</ele><time>2022-03-17T16:24:28.893Z</time></trkpt><trkpt lat="43.41748167" lon="13.26512167"><ele>246.0</ele><time>2022-03-17T16:24:29.882Z</time></trkpt><trkpt lat="43.41748167" lon="13.26506667"><ele>246.0</ele><time>2022-03-17T16:24:30.881Z</time></trkpt><trkpt lat="43.41748167" lon="13.26506667"><ele>246.0</ele><time>2022-03-17T16:24:31.887Z</time></trkpt><trkpt lat="43.41748" lon="13.26495"><ele>245.0</ele><time>2022-03-17T16:24:32.915Z</time></trkpt><trkpt lat="43.41748" lon="13.26489333"><ele>245.0</ele><time>2022-03-17T16:24:33.895Z</time></trkpt><trkpt lat="43.41747667" lon="13.26483667"><ele>245.0</ele><time>2022-03-17T16:24:34.913Z</time></trkpt><trkpt lat="43.41747667" lon="13.26483667"><ele>245.0</ele><time>2022-03-17T16:24:35.879Z</time></trkpt><trkpt lat="43.41747167" lon="13.26473333"><ele>245.0</ele><time>2022-03-17T16:24:36.904Z</time></trkpt><trkpt lat="43.41747167" lon="13.26473333"><ele>245.0</ele><time>2022-03-17T16:24:37.913Z</time></trkpt><trkpt lat="43.41746167" lon="13.26462667"><ele>246.0</ele><time>2022-03-17T16:24:38.892Z</time></trkpt><trkpt lat="43.41746167" lon="13.26462667"><ele>246.0</ele><time>2022-03-17T16:24:39.899Z</time></trkpt><trkpt lat="43.41745667" lon="13.26451833"><ele>246.0</ele><time>2022-03-17T16:24:40.884Z</time></trkpt><trkpt lat="43.41745167" lon="13.264465"><ele>246.0</ele><time>2022-03-17T16:24:41.899Z</time></trkpt><trkpt lat="43.41745167" lon="13.264465"><ele>246.0</ele><time>2022-03-17T16:24:42.907Z</time></trkpt><trkpt lat="43.41744333" lon="13.26436333"><ele>246.0</ele><time>2022-03-17T16:24:43.900Z</time></trkpt><trkpt lat="43.41744333" lon="13.26436333"><ele>246.0</ele><time>2022-03-17T16:24:44.911Z</time></trkpt><trkpt lat="43.41743167" lon="13.26425833"><ele>246.0</ele><time>2022-03-17T16:24:45.901Z</time></trkpt><trkpt lat="43.41742833" lon="13.26420667"><ele>246.0</ele><time>2022-03-17T16:24:46.877Z</time></trkpt><trkpt lat="43.41742833" lon="13.26420667"><ele>246.0</ele><time>2022-03-17T16:24:47.882Z</time></trkpt><trkpt lat="43.41741833" lon="13.26410667"><ele>247.0</ele><time>2022-03-17T16:24:48.913Z</time></trkpt><trkpt lat="43.417415" lon="13.26405667"><ele>247.0</ele><time>2022-03-17T16:24:49.906Z</time></trkpt><trkpt lat="43.417415" lon="13.26405667"><ele>247.0</ele><time>2022-03-17T16:24:50.912Z</time></trkpt><trkpt lat="43.4174" lon="13.26395667"><ele>248.0</ele><time>2022-03-17T16:24:51.909Z</time></trkpt><trkpt lat="43.41739333" lon="13.263905"><ele>248.0</ele><time>2022-03-17T16:24:52.897Z</time></trkpt><trkpt lat="43.41739333" lon="13.263905"><ele>248.0</ele><time>2022-03-17T16:24:53.903Z</time></trkpt><trkpt lat="43.41737833" lon="13.26379833"><ele>249.0</ele><time>2022-03-17T16:24:54.902Z</time></trkpt><trkpt lat="43.41737833" lon="13.26379833"><ele>249.0</ele><time>2022-03-17T16:24:55.910Z</time></trkpt><trkpt lat="43.41736667" lon="13.26369833"><ele>249.0</ele><time>2022-03-17T16:24:56.890Z</time></trkpt><trkpt lat="43.41736667" lon="13.26369833"><ele>249.0</ele><time>2022-03-17T16:24:57.897Z</time></trkpt><trkpt lat="43.417355" lon="13.2636"><ele>249.0</ele><time>2022-03-17T16:24:58.886Z</time></trkpt><trkpt lat="43.41734833" lon="13.26354833"><ele>250.0</ele><time>2022-03-17T16:24:59.881Z</time></trkpt><trkpt lat="43.41734833" lon="13.26354833"><ele>250.0</ele><time>2022-03-17T16:25:00.887Z</time></trkpt><trkpt lat="43.417335" lon="13.26345167"><ele>249.0</ele><time>2022-03-17T16:25:01.889Z</time></trkpt><trkpt lat="43.417335" lon="13.26345167"><ele>249.0</ele><time>2022-03-17T16:25:02.895Z</time></trkpt><trkpt lat="43.41732167" lon="13.263365"><ele>250.0</ele><time>2022-03-17T16:25:03.887Z</time></trkpt><trkpt lat="43.41732167" lon="13.263365"><ele>250.0</ele><time>2022-03-17T16:25:04.894Z</time></trkpt><trkpt lat="43.417315" lon="13.263275"><ele>250.0</ele><time>2022-03-17T16:25:05.912Z</time></trkpt><trkpt lat="43.41731" lon="13.26322833"><ele>250.0</ele><time>2022-03-17T16:25:06.893Z</time></trkpt><trkpt lat="43.417305" lon="13.26318167"><ele>250.0</ele><time>2022-03-17T16:25:07.910Z</time></trkpt><trkpt lat="43.417305" lon="13.26318167"><ele>250.0</ele><time>2022-03-17T16:25:08.916Z</time></trkpt><trkpt lat="43.41729167" lon="13.26309167"><ele>251.0</ele><time>2022-03-17T16:25:09.878Z</time></trkpt><trkpt lat="43.41729167" lon="13.26309167"><ele>251.0</ele><time>2022-03-17T16:25:10.884Z</time></trkpt><trkpt lat="43.41727333" lon="13.26299833"><ele>251.0</ele><time>2022-03-17T16:25:11.903Z</time></trkpt><trkpt lat="43.41726833" lon="13.26295"><ele>251.0</ele><time>2022-03-17T16:25:12.939Z</time></trkpt><trkpt lat="43.41726833" lon="13.26295"><ele>251.0</ele><time>2022-03-17T16:25:13.894Z</time></trkpt><trkpt lat="43.417265" lon="13.262855"><ele>251.0</ele><time>2022-03-17T16:25:14.877Z</time></trkpt><trkpt lat="43.41726" lon="13.26280833"><ele>251.0</ele><time>2022-03-17T16:25:15.889Z</time></trkpt><trkpt lat="43.41726" lon="13.26280833"><ele>251.0</ele><time>2022-03-17T16:25:16.895Z</time></trkpt><trkpt lat="43.41725333" lon="13.262715"><ele>251.0</ele><time>2022-03-17T16:25:17.916Z</time></trkpt><trkpt lat="43.41725333" lon="13.26266833"><ele>252.0</ele><time>2022-03-17T16:25:18.897Z</time></trkpt><trkpt lat="43.41725333" lon="13.26266833"><ele>252.0</ele><time>2022-03-17T16:25:19.903Z</time></trkpt><trkpt lat="43.41724333" lon="13.26257667"><ele>252.0</ele><time>2022-03-17T16:25:20.886Z</time></trkpt><trkpt lat="43.41724333" lon="13.26257667"><ele>252.0</ele><time>2022-03-17T16:25:21.892Z</time></trkpt><trkpt lat="43.41722667" lon="13.26248667"><ele>252.0</ele><time>2022-03-17T16:25:22.890Z</time></trkpt><trkpt lat="43.41722667" lon="13.26248667"><ele>252.0</ele><time>2022-03-17T16:25:23.896Z</time></trkpt><trkpt lat="43.41721833" lon="13.26240167"><ele>253.0</ele><time>2022-03-17T16:25:24.913Z</time></trkpt><trkpt lat="43.41721833" lon="13.26240167"><ele>253.0</ele><time>2022-03-17T16:25:25.879Z</time></trkpt><trkpt lat="43.41721333" lon="13.26231667"><ele>253.0</ele><time>2022-03-17T16:25:26.909Z</time></trkpt><trkpt lat="43.41721333" lon="13.26231667"><ele>253.0</ele><time>2022-03-17T16:25:27.916Z</time></trkpt><trkpt lat="43.41720833" lon="13.26223333"><ele>254.0</ele><time>2022-03-17T16:25:28.902Z</time></trkpt><trkpt lat="43.41720167" lon="13.26219333"><ele>254.0</ele><time>2022-03-17T16:25:29.889Z</time></trkpt><trkpt lat="43.41720167" lon="13.26219333"><ele>254.0</ele><time>2022-03-17T16:25:30.896Z</time></trkpt><trkpt lat="43.41719167" lon="13.26210333"><ele>255.0</ele><time>2022-03-17T16:25:31.882Z</time></trkpt><trkpt lat="43.41719167" lon="13.26210333"><ele>255.0</ele><time>2022-03-17T16:25:32.888Z</time></trkpt><trkpt lat="43.41718167" lon="13.26201333"><ele>255.0</ele><time>2022-03-17T16:25:33.910Z</time></trkpt><trkpt lat="43.41718167" lon="13.26201333"><ele>255.0</ele><time>2022-03-17T16:25:34.916Z</time></trkpt><trkpt lat="43.41717333" lon="13.26192333"><ele>256.0</ele><time>2022-03-17T16:25:35.893Z</time></trkpt><trkpt lat="43.41716833" lon="13.26188"><ele>256.0</ele><time>2022-03-17T16:25:36.907Z</time></trkpt><trkpt lat="43.41716833" lon="13.26188"><ele>256.0</ele><time>2022-03-17T16:25:37.914Z</time></trkpt><trkpt lat="43.417155" lon="13.26178833"><ele>256.0</ele><time>2022-03-17T16:25:38.903Z</time></trkpt><trkpt lat="43.41715" lon="13.26174333"><ele>256.0</ele><time>2022-03-17T16:25:39.886Z</time></trkpt><trkpt lat="43.41715" lon="13.26174333"><ele>256.0</ele><time>2022-03-17T16:25:40.893Z</time></trkpt><trkpt lat="43.41713667" lon="13.26164667"><ele>257.0</ele><time>2022-03-17T16:25:41.905Z</time></trkpt><trkpt lat="43.41713667" lon="13.26164667"><ele>257.0</ele><time>2022-03-17T16:25:42.912Z</time></trkpt><trkpt lat="43.41712833" lon="13.26154833"><ele>257.0</ele><time>2022-03-17T16:25:43.888Z</time></trkpt><trkpt lat="43.41712833" lon="13.26154833"><ele>257.0</ele><time>2022-03-17T16:25:44.894Z</time></trkpt><trkpt lat="43.41712167" lon="13.26143667"><ele>258.0</ele><time>2022-03-17T16:25:45.912Z</time></trkpt><trkpt lat="43.41712167" lon="13.26143667"><ele>258.0</ele><time>2022-03-17T16:25:46.879Z</time></trkpt><trkpt lat="43.41711333" lon="13.26132167"><ele>258.0</ele><time>2022-03-17T16:25:47.897Z</time></trkpt><trkpt lat="43.417105" lon="13.26126333"><ele>258.0</ele><time>2022-03-17T16:25:48.880Z</time></trkpt><trkpt lat="43.417105" lon="13.26126333"><ele>258.0</ele><time>2022-03-17T16:25:49.886Z</time></trkpt><trkpt lat="43.41709333" lon="13.26115167"><ele>259.0</ele><time>2022-03-17T16:25:50.904Z</time></trkpt><trkpt lat="43.41709333" lon="13.26115167"><ele>259.0</ele><time>2022-03-17T16:25:51.911Z</time></trkpt><trkpt lat="43.41708333" lon="13.26103"><ele>259.0</ele><time>2022-03-17T16:25:52.914Z</time></trkpt><trkpt lat="43.41708333" lon="13.26103"><ele>259.0</ele><time>2022-03-17T16:25:53.880Z</time></trkpt><trkpt lat="43.41706167" lon="13.26090167"><ele>259.0</ele><time>2022-03-17T16:25:54.898Z</time></trkpt><trkpt lat="43.41706167" lon="13.26090167"><ele>259.0</ele><time>2022-03-17T16:25:55.904Z</time></trkpt><trkpt lat="43.41704" lon="13.26077333"><ele>259.0</ele><time>2022-03-17T16:25:56.879Z</time></trkpt><trkpt lat="43.41704" lon="13.26077333"><ele>259.0</ele><time>2022-03-17T16:25:57.886Z</time></trkpt><trkpt lat="43.41703167" lon="13.26063"><ele>259.0</ele><time>2022-03-17T16:25:58.915Z</time></trkpt><trkpt lat="43.41703167" lon="13.26063"><ele>259.0</ele><time>2022-03-17T16:25:59.881Z</time></trkpt><trkpt lat="43.41702667" lon="13.26049"><ele>259.0</ele><time>2022-03-17T16:26:00.896Z</time></trkpt><trkpt lat="43.41702667" lon="13.26049"><ele>259.0</ele><time>2022-03-17T16:26:01.902Z</time></trkpt><trkpt lat="43.41702167" lon="13.26035"><ele>259.0</ele><time>2022-03-17T16:26:02.896Z</time></trkpt><trkpt lat="43.41702167" lon="13.26035"><ele>259.0</ele><time>2022-03-17T16:26:03.902Z</time></trkpt><trkpt lat="43.41702667" lon="13.26021333"><ele>260.0</ele><time>2022-03-17T16:26:04.887Z</time></trkpt><trkpt lat="43.41703" lon="13.26014833"><ele>260.0</ele><time>2022-03-17T16:26:05.912Z</time></trkpt><trkpt lat="43.41703" lon="13.26014833"><ele>260.0</ele><time>2022-03-17T16:26:06.881Z</time></trkpt><trkpt lat="43.41704667" lon="13.26002667"><ele>260.0</ele><time>2022-03-17T16:26:07.902Z</time></trkpt><trkpt lat="43.41704667" lon="13.26002667"><ele>260.0</ele><time>2022-03-17T16:26:08.912Z</time></trkpt><trkpt lat="43.417065" lon="13.25991"><ele>260.0</ele><time>2022-03-17T16:26:09.892Z</time></trkpt><trkpt lat="43.417065" lon="13.25991"><ele>260.0</ele><time>2022-03-17T16:26:10.898Z</time></trkpt><trkpt lat="43.417085" lon="13.25979333"><ele>260.0</ele><time>2022-03-17T16:26:11.912Z</time></trkpt><trkpt lat="43.417085" lon="13.25979333"><ele>260.0</ele><time>2022-03-17T16:26:12.929Z</time></trkpt><trkpt lat="43.41711667" lon="13.25968333"><ele>260.0</ele><time>2022-03-17T16:26:13.912Z</time></trkpt><trkpt lat="43.41713333" lon="13.25962667"><ele>260.0</ele><time>2022-03-17T16:26:14.891Z</time></trkpt><trkpt lat="43.41713333" lon="13.25962667"><ele>260.0</ele><time>2022-03-17T16:26:15.897Z</time></trkpt><trkpt lat="43.41717333" lon="13.25951667"><ele>260.0</ele><time>2022-03-17T16:26:16.877Z</time></trkpt><trkpt lat="43.41717333" lon="13.25951667"><ele>260.0</ele><time>2022-03-17T16:26:17.882Z</time></trkpt><trkpt lat="43.41722167" lon="13.259405"><ele>260.0</ele><time>2022-03-17T16:26:18.903Z</time></trkpt><trkpt lat="43.41722167" lon="13.259405"><ele>260.0</ele><time>2022-03-17T16:26:19.909Z</time></trkpt><trkpt lat="43.41727167" lon="13.25928833"><ele>260.0</ele><time>2022-03-17T16:26:20.886Z</time></trkpt><trkpt lat="43.41727167" lon="13.25928833"><ele>260.0</ele><time>2022-03-17T16:26:21.892Z</time></trkpt><trkpt lat="43.417325" lon="13.25917333"><ele>259.0</ele><time>2022-03-17T16:26:22.907Z</time></trkpt><trkpt lat="43.417325" lon="13.25917333"><ele>259.0</ele><time>2022-03-17T16:26:23.913Z</time></trkpt><trkpt lat="43.41738" lon="13.259055"><ele>259.0</ele><time>2022-03-17T16:26:24.896Z</time></trkpt><trkpt lat="43.41738" lon="13.259055"><ele>259.0</ele><time>2022-03-17T16:26:25.902Z</time></trkpt><trkpt lat="43.41743333" lon="13.25893667"><ele>259.0</ele><time>2022-03-17T16:26:26.883Z</time></trkpt><trkpt lat="43.41745833" lon="13.25887833"><ele>259.0</ele><time>2022-03-17T16:26:27.910Z</time></trkpt><trkpt lat="43.41745833" lon="13.25887833"><ele>259.0</ele><time>2022-03-17T16:26:28.878Z</time></trkpt><trkpt lat="43.4175" lon="13.25875833"><ele>259.0</ele><time>2022-03-17T16:26:29.903Z</time></trkpt><trkpt lat="43.41751833" lon="13.25869667"><ele>258.0</ele><time>2022-03-17T16:26:30.877Z</time></trkpt><trkpt lat="43.41751833" lon="13.25869667"><ele>258.0</ele><time>2022-03-17T16:26:31.882Z</time></trkpt><trkpt lat="43.41755333" lon="13.258575"><ele>258.0</ele><time>2022-03-17T16:26:32.910Z</time></trkpt><trkpt lat="43.41755333" lon="13.258575"><ele>258.0</ele><time>2022-03-17T16:26:33.877Z</time></trkpt><trkpt lat="43.417585" lon="13.25845167"><ele>258.0</ele><time>2022-03-17T16:26:34.899Z</time></trkpt><trkpt lat="43.417585" lon="13.25845167"><ele>258.0</ele><time>2022-03-17T16:26:35.904Z</time></trkpt><trkpt lat="43.41761833" lon="13.25833667"><ele>258.0</ele><time>2022-03-17T16:26:36.884Z</time></trkpt><trkpt lat="43.41761833" lon="13.25833667"><ele>258.0</ele><time>2022-03-17T16:26:37.890Z</time></trkpt><trkpt lat="43.417645" lon="13.25822167"><ele>259.0</ele><time>2022-03-17T16:26:38.911Z</time></trkpt><trkpt lat="43.417645" lon="13.25822167"><ele>259.0</ele><time>2022-03-17T16:26:39.877Z</time></trkpt><trkpt lat="43.41767167" lon="13.258115"><ele>259.0</ele><time>2022-03-17T16:26:40.893Z</time></trkpt><trkpt lat="43.41767167" lon="13.258115"><ele>259.0</ele><time>2022-03-17T16:26:41.900Z</time></trkpt><trkpt lat="43.41769" lon="13.25801333"><ele>259.0</ele><time>2022-03-17T16:26:42.912Z</time></trkpt><trkpt lat="43.41769" lon="13.25801333"><ele>259.0</ele><time>2022-03-17T16:26:43.879Z</time></trkpt><trkpt lat="43.417715" lon="13.25791667"><ele>259.0</ele><time>2022-03-17T16:26:44.896Z</time></trkpt><trkpt lat="43.417715" lon="13.25791667"><ele>259.0</ele><time>2022-03-17T16:26:45.902Z</time></trkpt><trkpt lat="43.417745" lon="13.25783167"><ele>259.0</ele><time>2022-03-17T16:26:46.880Z</time></trkpt><trkpt lat="43.41776167" lon="13.25779333"><ele>260.0</ele><time>2022-03-17T16:26:47.907Z</time></trkpt><trkpt lat="43.41776167" lon="13.25779333"><ele>260.0</ele><time>2022-03-17T16:26:48.914Z</time></trkpt><trkpt lat="43.41780167" lon="13.25771667"><ele>260.0</ele><time>2022-03-17T16:26:49.881Z</time></trkpt><trkpt lat="43.41780167" lon="13.25771667"><ele>260.0</ele><time>2022-03-17T16:26:50.887Z</time></trkpt><trkpt lat="43.41784167" lon="13.25764"><ele>261.0</ele><time>2022-03-17T16:26:51.887Z</time></trkpt><trkpt lat="43.41784167" lon="13.25764"><ele>261.0</ele><time>2022-03-17T16:26:52.895Z</time></trkpt><trkpt lat="43.417885" lon="13.25757167"><ele>261.0</ele><time>2022-03-17T16:26:53.878Z</time></trkpt><trkpt lat="43.417885" lon="13.25757167"><ele>261.0</ele><time>2022-03-17T16:26:54.884Z</time></trkpt><trkpt lat="43.41791833" lon="13.25750333"><ele>262.0</ele><time>2022-03-17T16:26:55.909Z</time></trkpt><trkpt lat="43.41791833" lon="13.25750333"><ele>262.0</ele><time>2022-03-17T16:26:56.915Z</time></trkpt><trkpt lat="43.41795833" lon="13.257435"><ele>263.0</ele><time>2022-03-17T16:26:57.892Z</time></trkpt><trkpt lat="43.41798167" lon="13.257405"><ele>264.0</ele><time>2022-03-17T16:26:58.891Z</time></trkpt><trkpt lat="43.41798167" lon="13.257405"><ele>264.0</ele><time>2022-03-17T16:26:59.897Z</time></trkpt><trkpt lat="43.41802667" lon="13.25734333"><ele>265.0</ele><time>2022-03-17T16:27:00.916Z</time></trkpt><trkpt lat="43.41802667" lon="13.25734333"><ele>265.0</ele><time>2022-03-17T16:27:01.882Z</time></trkpt><trkpt lat="43.41806833" lon="13.25726"><ele>266.0</ele><time>2022-03-17T16:27:02.906Z</time></trkpt><trkpt lat="43.41806833" lon="13.25726"><ele>266.0</ele><time>2022-03-17T16:27:03.912Z</time></trkpt><trkpt lat="43.4181" lon="13.25716667"><ele>266.0</ele><time>2022-03-17T16:27:04.880Z</time></trkpt><trkpt lat="43.41811333" lon="13.25711833"><ele>267.0</ele><time>2022-03-17T16:27:05.906Z</time></trkpt><trkpt lat="43.41812333" lon="13.25707167"><ele>267.0</ele><time>2022-03-17T16:27:06.885Z</time></trkpt><trkpt lat="43.41812333" lon="13.25707167"><ele>267.0</ele><time>2022-03-17T16:27:07.891Z</time></trkpt><trkpt lat="43.41813667" lon="13.25697667"><ele>268.0</ele><time>2022-03-17T16:27:08.916Z</time></trkpt><trkpt lat="43.41813667" lon="13.25693167"><ele>268.0</ele><time>2022-03-17T16:27:09.899Z</time></trkpt><trkpt lat="43.418135" lon="13.25688667"><ele>268.0</ele><time>2022-03-17T16:27:10.877Z</time></trkpt><trkpt lat="43.418135" lon="13.25688667"><ele>268.0</ele><time>2022-03-17T16:27:11.883Z</time></trkpt><trkpt lat="43.418125" lon="13.256795"><ele>269.0</ele><time>2022-03-17T16:27:12.932Z</time></trkpt><trkpt lat="43.418125" lon="13.256795"><ele>269.0</ele><time>2022-03-17T16:27:13.891Z</time></trkpt><trkpt lat="43.41810667" lon="13.25671"><ele>270.0</ele><time>2022-03-17T16:27:14.883Z</time></trkpt><trkpt lat="43.41809333" lon="13.25666833"><ele>270.0</ele><time>2022-03-17T16:27:15.906Z</time></trkpt><trkpt lat="43.41809333" lon="13.25666833"><ele>270.0</ele><time>2022-03-17T16:27:16.915Z</time></trkpt><trkpt lat="43.41806667" lon="13.25658833"><ele>270.0</ele><time>2022-03-17T16:27:17.901Z</time></trkpt><trkpt lat="43.41804833" lon="13.25654833"><ele>270.0</ele><time>2022-03-17T16:27:18.886Z</time></trkpt><trkpt lat="43.41804833" lon="13.25654833"><ele>270.0</ele><time>2022-03-17T16:27:19.894Z</time></trkpt><trkpt lat="43.41801167" lon="13.256465"><ele>271.0</ele><time>2022-03-17T16:27:20.886Z</time></trkpt><trkpt lat="43.417995" lon="13.25642167"><ele>271.0</ele><time>2022-03-17T16:27:21.883Z</time></trkpt><trkpt lat="43.417995" lon="13.25642167"><ele>271.0</ele><time>2022-03-17T16:27:22.894Z</time></trkpt><trkpt lat="43.41796333" lon="13.25633167"><ele>271.0</ele><time>2022-03-17T16:27:23.903Z</time></trkpt><trkpt lat="43.41796333" lon="13.25633167"><ele>271.0</ele><time>2022-03-17T16:27:24.916Z</time></trkpt><trkpt lat="43.41793167" lon="13.25624333"><ele>271.0</ele><time>2022-03-17T16:27:25.905Z</time></trkpt><trkpt lat="43.41793167" lon="13.25624333"><ele>271.0</ele><time>2022-03-17T16:27:26.878Z</time></trkpt><trkpt lat="43.4179" lon="13.256155"><ele>271.0</ele><time>2022-03-17T16:27:27.912Z</time></trkpt><trkpt lat="43.4179" lon="13.256155"><ele>271.0</ele><time>2022-03-17T16:27:28.883Z</time></trkpt><trkpt lat="43.41787333" lon="13.25606333"><ele>272.0</ele><time>2022-03-17T16:27:29.913Z</time></trkpt><trkpt lat="43.41786" lon="13.25601833"><ele>272.0</ele><time>2022-03-17T16:27:30.898Z</time></trkpt><trkpt lat="43.41784833" lon="13.25597167"><ele>272.0</ele><time>2022-03-17T16:27:31.883Z</time></trkpt><trkpt lat="43.41784833" lon="13.25597167"><ele>272.0</ele><time>2022-03-17T16:27:32.899Z</time></trkpt><trkpt lat="43.41783167" lon="13.25588167"><ele>273.0</ele><time>2022-03-17T16:27:33.884Z</time></trkpt><trkpt lat="43.41782167" lon="13.25583667"><ele>273.0</ele><time>2022-03-17T16:27:34.900Z</time></trkpt><trkpt lat="43.41782167" lon="13.25583667"><ele>273.0</ele><time>2022-03-17T16:27:35.914Z</time></trkpt><trkpt lat="43.41780333" lon="13.25574833"><ele>274.0</ele><time>2022-03-17T16:27:36.880Z</time></trkpt><trkpt lat="43.41780333" lon="13.25574833"><ele>274.0</ele><time>2022-03-17T16:27:37.893Z</time></trkpt><trkpt lat="43.41778833" lon="13.25565667"><ele>274.0</ele><time>2022-03-17T16:27:38.916Z</time></trkpt><trkpt lat="43.41778833" lon="13.25565667"><ele>274.0</ele><time>2022-03-17T16:27:39.886Z</time></trkpt><trkpt lat="43.41776667" lon="13.255565"><ele>274.0</ele><time>2022-03-17T16:27:40.905Z</time></trkpt><trkpt lat="43.41776667" lon="13.255565"><ele>274.0</ele><time>2022-03-17T16:27:41.912Z</time></trkpt><trkpt lat="43.41775333" lon="13.25547333"><ele>275.0</ele><time>2022-03-17T16:27:42.891Z</time></trkpt><trkpt lat="43.41775333" lon="13.25547333"><ele>275.0</ele><time>2022-03-17T16:27:43.899Z</time></trkpt><trkpt lat="43.41774" lon="13.25537"><ele>274.0</ele><time>2022-03-17T16:27:44.890Z</time></trkpt><trkpt lat="43.41774" lon="13.25537"><ele>274.0</ele><time>2022-03-17T16:27:45.898Z</time></trkpt><trkpt lat="43.41773833" lon="13.25526833"><ele>275.0</ele><time>2022-03-17T16:27:46.878Z</time></trkpt><trkpt lat="43.41773833" lon="13.25526833"><ele>275.0</ele><time>2022-03-17T16:27:47.886Z</time></trkpt><trkpt lat="43.41774167" lon="13.25517"><ele>275.0</ele><time>2022-03-17T16:27:48.887Z</time></trkpt><trkpt lat="43.41774167" lon="13.25517"><ele>275.0</ele><time>2022-03-17T16:27:49.894Z</time></trkpt><trkpt lat="43.41775333" lon="13.25507167"><ele>275.0</ele><time>2022-03-17T16:27:50.885Z</time></trkpt><trkpt lat="43.41776" lon="13.25502333"><ele>276.0</ele><time>2022-03-17T16:27:51.911Z</time></trkpt><trkpt lat="43.41776" lon="13.25502333"><ele>276.0</ele><time>2022-03-17T16:27:52.881Z</time></trkpt><trkpt lat="43.41778333" lon="13.25493"><ele>276.0</ele><time>2022-03-17T16:27:53.910Z</time></trkpt><trkpt lat="43.41779833" lon="13.254885"><ele>276.0</ele><time>2022-03-17T16:27:54.884Z</time></trkpt><trkpt lat="43.41779833" lon="13.254885"><ele>276.0</ele><time>2022-03-17T16:27:55.892Z</time></trkpt><trkpt lat="43.41783667" lon="13.25479167"><ele>275.0</ele><time>2022-03-17T16:27:56.906Z</time></trkpt><trkpt lat="43.41783667" lon="13.25479167"><ele>275.0</ele><time>2022-03-17T16:27:57.914Z</time></trkpt><trkpt lat="43.41788167" lon="13.25469833"><ele>274.0</ele><time>2022-03-17T16:27:58.894Z</time></trkpt><trkpt lat="43.41788167" lon="13.25469833"><ele>274.0</ele><time>2022-03-17T16:27:59.901Z</time></trkpt><trkpt lat="43.417935" lon="13.25459667"><ele>273.0</ele><time>2022-03-17T16:28:00.892Z</time></trkpt><trkpt lat="43.417935" lon="13.25459667"><ele>273.0</ele><time>2022-03-17T16:28:01.899Z</time></trkpt><trkpt lat="43.41799667" lon="13.25447333"><ele>272.0</ele><time>2022-03-17T16:28:02.878Z</time></trkpt><trkpt lat="43.41799667" lon="13.25447333"><ele>272.0</ele><time>2022-03-17T16:28:03.886Z</time></trkpt><trkpt lat="43.41806333" lon="13.25433167"><ele>271.0</ele><time>2022-03-17T16:28:04.881Z</time></trkpt><trkpt lat="43.41806333" lon="13.25433167"><ele>271.0</ele><time>2022-03-17T16:28:05.888Z</time></trkpt><trkpt lat="43.41814" lon="13.25417833"><ele>269.0</ele><time>2022-03-17T16:28:06.909Z</time></trkpt><trkpt lat="43.41814" lon="13.25417833"><ele>269.0</ele><time>2022-03-17T16:28:07.917Z</time></trkpt><trkpt lat="43.418225" lon="13.25401833"><ele>268.0</ele><time>2022-03-17T16:28:08.892Z</time></trkpt><trkpt lat="43.418225" lon="13.25401833"><ele>268.0</ele><time>2022-03-17T16:28:09.899Z</time></trkpt><trkpt lat="43.41831167" lon="13.25384333"><ele>266.0</ele><time>2022-03-17T16:28:10.878Z</time></trkpt><trkpt lat="43.41835667" lon="13.25375333"><ele>265.0</ele><time>2022-03-17T16:28:11.878Z</time></trkpt><trkpt lat="43.41835667" lon="13.25375333"><ele>265.0</ele><time>2022-03-17T16:28:12.930Z</time></trkpt><trkpt lat="43.41845" lon="13.25357333"><ele>263.0</ele><time>2022-03-17T16:28:13.915Z</time></trkpt><trkpt lat="43.418495" lon="13.25348667"><ele>262.0</ele><time>2022-03-17T16:28:14.901Z</time></trkpt><trkpt lat="43.418495" lon="13.25348667"><ele>262.0</ele><time>2022-03-17T16:28:15.913Z</time></trkpt><trkpt lat="43.41858167" lon="13.25331667"><ele>261.0</ele><time>2022-03-17T16:28:16.905Z</time></trkpt><trkpt lat="43.41863667" lon="13.25324"><ele>261.0</ele><time>2022-03-17T16:28:17.888Z</time></trkpt><trkpt lat="43.41870333" lon="13.25318167"><ele>260.0</ele><time>2022-03-17T16:28:18.908Z</time></trkpt><trkpt lat="43.41870333" lon="13.25318167"><ele>260.0</ele><time>2022-03-17T16:28:19.915Z</time></trkpt><trkpt lat="43.418845" lon="13.25313"><ele>260.0</ele><time>2022-03-17T16:28:20.890Z</time></trkpt><trkpt lat="43.418845" lon="13.25313"><ele>260.0</ele><time>2022-03-17T16:28:21.897Z</time></trkpt><trkpt lat="43.41898667" lon="13.253065"><ele>259.0</ele><time>2022-03-17T16:28:22.900Z</time></trkpt><trkpt lat="43.41898667" lon="13.253065"><ele>259.0</ele><time>2022-03-17T16:28:23.908Z</time></trkpt><trkpt lat="43.419105" lon="13.25295667"><ele>259.0</ele><time>2022-03-17T16:28:24.903Z</time></trkpt><trkpt lat="43.419105" lon="13.25295667"><ele>259.0</ele><time>2022-03-17T16:28:25.912Z</time></trkpt><trkpt lat="43.419195" lon="13.25282167"><ele>259.0</ele><time>2022-03-17T16:28:26.899Z</time></trkpt><trkpt lat="43.41923" lon="13.25275"><ele>260.0</ele><time>2022-03-17T16:28:27.916Z</time></trkpt><trkpt lat="43.41923" lon="13.25275"><ele>260.0</ele><time>2022-03-17T16:28:28.885Z</time></trkpt><trkpt lat="43.41929333" lon="13.25261"><ele>260.0</ele><time>2022-03-17T16:28:29.890Z</time></trkpt><trkpt lat="43.41929333" lon="13.25261"><ele>260.0</ele><time>2022-03-17T16:28:30.898Z</time></trkpt><trkpt lat="43.41935333" lon="13.25248333"><ele>261.0</ele><time>2022-03-17T16:28:31.883Z</time></trkpt><trkpt lat="43.41935333" lon="13.25248333"><ele>261.0</ele><time>2022-03-17T16:28:32.891Z</time></trkpt><trkpt lat="43.41940833" lon="13.25237167"><ele>262.0</ele><time>2022-03-17T16:28:33.893Z</time></trkpt><trkpt lat="43.41940833" lon="13.25237167"><ele>262.0</ele><time>2022-03-17T16:28:34.901Z</time></trkpt><trkpt lat="43.419455" lon="13.252255"><ele>262.0</ele><time>2022-03-17T16:28:35.886Z</time></trkpt><trkpt lat="43.41948" lon="13.252195"><ele>263.0</ele><time>2022-03-17T16:28:36.916Z</time></trkpt><trkpt lat="43.41948" lon="13.252195"><ele>263.0</ele><time>2022-03-17T16:28:37.883Z</time></trkpt><trkpt lat="43.41952833" lon="13.25206833"><ele>263.0</ele><time>2022-03-17T16:28:38.900Z</time></trkpt><trkpt lat="43.41952833" lon="13.25206833"><ele>263.0</ele><time>2022-03-17T16:28:39.914Z</time></trkpt><trkpt lat="43.41958333" lon="13.25194667"><ele>264.0</ele><time>2022-03-17T16:28:40.907Z</time></trkpt><trkpt lat="43.41958333" lon="13.25194667"><ele>264.0</ele><time>2022-03-17T16:28:41.878Z</time></trkpt><trkpt lat="43.41964" lon="13.25184"><ele>265.0</ele><time>2022-03-17T16:28:42.877Z</time></trkpt><trkpt lat="43.41964" lon="13.25184"><ele>265.0</ele><time>2022-03-17T16:28:43.886Z</time></trkpt><trkpt lat="43.419695" lon="13.25172833"><ele>265.0</ele><time>2022-03-17T16:28:44.877Z</time></trkpt><trkpt lat="43.419695" lon="13.25172833"><ele>265.0</ele><time>2022-03-17T16:28:45.886Z</time></trkpt><trkpt lat="43.41974333" lon="13.25161833"><ele>266.0</ele><time>2022-03-17T16:28:46.884Z</time></trkpt><trkpt lat="43.41974333" lon="13.25161833"><ele>266.0</ele><time>2022-03-17T16:28:47.892Z</time></trkpt><trkpt lat="43.41978833" lon="13.25150667"><ele>267.0</ele><time>2022-03-17T16:28:48.910Z</time></trkpt><trkpt lat="43.41978833" lon="13.25150667"><ele>267.0</ele><time>2022-03-17T16:28:49.877Z</time></trkpt><trkpt lat="43.41982833" lon="13.25138833"><ele>268.0</ele><time>2022-03-17T16:28:50.902Z</time></trkpt><trkpt lat="43.41982833" lon="13.25138833"><ele>268.0</ele><time>2022-03-17T16:28:51.884Z</time></trkpt><trkpt lat="43.41987833" lon="13.25127333"><ele>268.0</ele><time>2022-03-17T16:28:52.889Z</time></trkpt><trkpt lat="43.41989833" lon="13.25123167"><ele>269.0</ele><time>2022-03-17T16:28:53.913Z</time></trkpt><trkpt lat="43.41989833" lon="13.25123167"><ele>269.0</ele><time>2022-03-17T16:28:54.881Z</time></trkpt><trkpt lat="43.41994667" lon="13.25113167"><ele>269.0</ele><time>2022-03-17T16:28:55.907Z</time></trkpt><trkpt lat="43.41994667" lon="13.25113167"><ele>269.0</ele><time>2022-03-17T16:28:56.914Z</time></trkpt><trkpt lat="43.41999667" lon="13.25104"><ele>269.0</ele><time>2022-03-17T16:28:57.912Z</time></trkpt><trkpt lat="43.41999667" lon="13.25104"><ele>269.0</ele><time>2022-03-17T16:28:58.880Z</time></trkpt><trkpt lat="43.42005333" lon="13.25096"><ele>269.0</ele><time>2022-03-17T16:28:59.904Z</time></trkpt><trkpt lat="43.42008667" lon="13.250925"><ele>269.0</ele><time>2022-03-17T16:29:00.885Z</time></trkpt><trkpt lat="43.42008667" lon="13.250925"><ele>269.0</ele><time>2022-03-17T16:29:01.892Z</time></trkpt><trkpt lat="43.42015833" lon="13.25086667"><ele>270.0</ele><time>2022-03-17T16:29:02.878Z</time></trkpt><trkpt lat="43.42015833" lon="13.25086667"><ele>270.0</ele><time>2022-03-17T16:29:03.884Z</time></trkpt><trkpt lat="43.42024167" lon="13.25081667"><ele>270.0</ele><time>2022-03-17T16:29:04.882Z</time></trkpt><trkpt lat="43.42028667" lon="13.25078667"><ele>270.0</ele><time>2022-03-17T16:29:05.908Z</time></trkpt><trkpt lat="43.42028667" lon="13.25078667"><ele>270.0</ele><time>2022-03-17T16:29:06.916Z</time></trkpt><trkpt lat="43.42037667" lon="13.25072833"><ele>270.0</ele><time>2022-03-17T16:29:07.907Z</time></trkpt><trkpt lat="43.42037667" lon="13.25072833"><ele>270.0</ele><time>2022-03-17T16:29:08.914Z</time></trkpt><trkpt lat="43.420465" lon="13.250645"><ele>270.0</ele><time>2022-03-17T16:29:09.877Z</time></trkpt><trkpt lat="43.420465" lon="13.250645"><ele>270.0</ele><time>2022-03-17T16:29:10.884Z</time></trkpt><trkpt lat="43.42055667" lon="13.250545"><ele>269.0</ele><time>2022-03-17T16:29:11.906Z</time></trkpt><trkpt lat="43.42055667" lon="13.250545"><ele>269.0</ele><time>2022-03-17T16:29:12.939Z</time></trkpt><trkpt lat="43.42065167" lon="13.25041667"><ele>269.0</ele><time>2022-03-17T16:29:13.905Z</time></trkpt><trkpt lat="43.42065167" lon="13.25041667"><ele>269.0</ele><time>2022-03-17T16:29:14.912Z</time></trkpt><trkpt lat="43.42076" lon="13.25028"><ele>268.0</ele><time>2022-03-17T16:29:15.900Z</time></trkpt><trkpt lat="43.42076" lon="13.25028"><ele>268.0</ele><time>2022-03-17T16:29:16.913Z</time></trkpt><trkpt lat="43.42087167" lon="13.25013333"><ele>267.0</ele><time>2022-03-17T16:29:17.896Z</time></trkpt><trkpt lat="43.42087167" lon="13.25013333"><ele>267.0</ele><time>2022-03-17T16:29:18.903Z</time></trkpt><trkpt lat="43.42098667" lon="13.24998333"><ele>267.0</ele><time>2022-03-17T16:29:19.886Z</time></trkpt><trkpt lat="43.42098667" lon="13.24998333"><ele>267.0</ele><time>2022-03-17T16:29:20.892Z</time></trkpt><trkpt lat="43.42111" lon="13.24983667"><ele>266.0</ele><time>2022-03-17T16:29:21.916Z</time></trkpt><trkpt lat="43.42111" lon="13.24983667"><ele>266.0</ele><time>2022-03-17T16:29:22.883Z</time></trkpt><trkpt lat="43.42124333" lon="13.2497"><ele>265.0</ele><time>2022-03-17T16:29:23.897Z</time></trkpt><trkpt lat="43.42131833" lon="13.24963833"><ele>265.0</ele><time>2022-03-17T16:29:24.914Z</time></trkpt><trkpt lat="43.42131833" lon="13.24963833"><ele>265.0</ele><time>2022-03-17T16:29:25.880Z</time></trkpt><trkpt lat="43.42148333" lon="13.24955167"><ele>265.0</ele><time>2022-03-17T16:29:26.896Z</time></trkpt><trkpt lat="43.42148333" lon="13.24955167"><ele>265.0</ele><time>2022-03-17T16:29:27.903Z</time></trkpt><trkpt lat="43.42165667" lon="13.24949667"><ele>265.0</ele><time>2022-03-17T16:29:28.887Z</time></trkpt><trkpt lat="43.421745" lon="13.24947"><ele>264.0</ele><time>2022-03-17T16:29:29.915Z</time></trkpt><trkpt lat="43.42183833" lon="13.24944333"><ele>264.0</ele><time>2022-03-17T16:29:30.899Z</time></trkpt><trkpt lat="43.42183833" lon="13.24944333"><ele>264.0</ele><time>2022-03-17T16:29:31.906Z</time></trkpt><trkpt lat="43.422025" lon="13.24941"><ele>263.0</ele><time>2022-03-17T16:29:32.896Z</time></trkpt><trkpt lat="43.422025" lon="13.24941"><ele>263.0</ele><time>2022-03-17T16:29:33.903Z</time></trkpt><trkpt lat="43.42223333" lon="13.24941167"><ele>262.0</ele><time>2022-03-17T16:29:34.898Z</time></trkpt><trkpt lat="43.42223333" lon="13.24941167"><ele>262.0</ele><time>2022-03-17T16:29:35.905Z</time></trkpt><trkpt lat="43.42245667" lon="13.2494"><ele>261.0</ele><time>2022-03-17T16:29:36.883Z</time></trkpt><trkpt lat="43.42245667" lon="13.2494"><ele>261.0</ele><time>2022-03-17T16:29:37.890Z</time></trkpt><trkpt lat="43.42267833" lon="13.24935167"><ele>261.0</ele><time>2022-03-17T16:29:38.909Z</time></trkpt><trkpt lat="43.42279333" lon="13.249325"><ele>261.0</ele><time>2022-03-17T16:29:39.895Z</time></trkpt><trkpt lat="43.42279333" lon="13.249325"><ele>261.0</ele><time>2022-03-17T16:29:40.902Z</time></trkpt><trkpt lat="43.42301" lon="13.249275"><ele>260.0</ele><time>2022-03-17T16:29:41.886Z</time></trkpt><trkpt lat="43.42312" lon="13.24925167"><ele>260.0</ele><time>2022-03-17T16:29:42.883Z</time></trkpt><trkpt lat="43.42312" lon="13.24925167"><ele>260.0</ele><time>2022-03-17T16:29:43.891Z</time></trkpt><trkpt lat="43.42333333" lon="13.24917833"><ele>260.0</ele><time>2022-03-17T16:29:44.888Z</time></trkpt><trkpt lat="43.42333333" lon="13.24917833"><ele>260.0</ele><time>2022-03-17T16:29:45.895Z</time></trkpt><trkpt lat="43.423525" lon="13.24905"><ele>261.0</ele><time>2022-03-17T16:29:46.912Z</time></trkpt><trkpt lat="43.42361" lon="13.248975"><ele>262.0</ele><time>2022-03-17T16:29:47.892Z</time></trkpt><trkpt lat="43.42368833" lon="13.24889833"><ele>262.0</ele><time>2022-03-17T16:29:48.911Z</time></trkpt><trkpt lat="43.42376" lon="13.248825"><ele>262.0</ele><time>2022-03-17T16:29:49.888Z</time></trkpt><trkpt lat="43.42376" lon="13.248825"><ele>262.0</ele><time>2022-03-17T16:29:50.915Z</time></trkpt><trkpt lat="43.42388833" lon="13.248695"><ele>263.0</ele><time>2022-03-17T16:29:51.895Z</time></trkpt><trkpt lat="43.42388833" lon="13.248695"><ele>263.0</ele><time>2022-03-17T16:29:52.904Z</time></trkpt><trkpt lat="43.424015" lon="13.24859833"><ele>263.0</ele><time>2022-03-17T16:29:53.891Z</time></trkpt><trkpt lat="43.424015" lon="13.24859833"><ele>263.0</ele><time>2022-03-17T16:29:54.899Z</time></trkpt><trkpt lat="43.42414167" lon="13.248525"><ele>263.0</ele><time>2022-03-17T16:29:55.883Z</time></trkpt><trkpt lat="43.42420833" lon="13.24849"><ele>263.0</ele><time>2022-03-17T16:29:56.906Z</time></trkpt><trkpt lat="43.42420833" lon="13.24849"><ele>263.0</ele><time>2022-03-17T16:29:57.913Z</time></trkpt><trkpt lat="43.424345" lon="13.24844333"><ele>263.0</ele><time>2022-03-17T16:29:58.904Z</time></trkpt><trkpt lat="43.424345" lon="13.24844333"><ele>263.0</ele><time>2022-03-17T16:29:59.914Z</time></trkpt><trkpt lat="43.42449333" lon="13.248445"><ele>263.0</ele><time>2022-03-17T16:30:00.903Z</time></trkpt><trkpt lat="43.42449333" lon="13.248445"><ele>263.0</ele><time>2022-03-17T16:30:01.911Z</time></trkpt><trkpt lat="43.42465" lon="13.24848667"><ele>263.0</ele><time>2022-03-17T16:30:02.896Z</time></trkpt><trkpt lat="43.42465" lon="13.24848667"><ele>263.0</ele><time>2022-03-17T16:30:03.903Z</time></trkpt><trkpt lat="43.42480167" lon="13.24854167"><ele>263.0</ele><time>2022-03-17T16:30:04.888Z</time></trkpt><trkpt lat="43.42480167" lon="13.24854167"><ele>263.0</ele><time>2022-03-17T16:30:05.914Z</time></trkpt><trkpt lat="43.42494667" lon="13.2486"><ele>263.0</ele><time>2022-03-17T16:30:06.912Z</time></trkpt><trkpt lat="43.42501667" lon="13.24863167"><ele>263.0</ele><time>2022-03-17T16:30:07.900Z</time></trkpt><trkpt lat="43.42501667" lon="13.24863167"><ele>263.0</ele><time>2022-03-17T16:30:08.913Z</time></trkpt><trkpt lat="43.42515333" lon="13.248695"><ele>263.0</ele><time>2022-03-17T16:30:09.911Z</time></trkpt><trkpt lat="43.42515333" lon="13.248695"><ele>263.0</ele><time>2022-03-17T16:30:10.877Z</time></trkpt><trkpt lat="43.42528167" lon="13.24874333"><ele>263.0</ele><time>2022-03-17T16:30:11.907Z</time></trkpt><trkpt lat="43.42528167" lon="13.24874333"><ele>263.0</ele><time>2022-03-17T16:30:12.903Z</time></trkpt><trkpt lat="43.42538833" lon="13.248775"><ele>263.0</ele><time>2022-03-17T16:30:13.896Z</time></trkpt><trkpt lat="43.42544" lon="13.24879"><ele>263.0</ele><time>2022-03-17T16:30:14.878Z</time></trkpt><trkpt lat="43.42544" lon="13.24879"><ele>263.0</ele><time>2022-03-17T16:30:15.885Z</time></trkpt><trkpt lat="43.42554167" lon="13.24882"><ele>264.0</ele><time>2022-03-17T16:30:16.903Z</time></trkpt><trkpt lat="43.42554167" lon="13.24882"><ele>264.0</ele><time>2022-03-17T16:30:17.913Z</time></trkpt><trkpt lat="43.42564833" lon="13.24885333"><ele>264.0</ele><time>2022-03-17T16:30:18.888Z</time></trkpt><trkpt lat="43.42564833" lon="13.24885333"><ele>264.0</ele><time>2022-03-17T16:30:19.895Z</time></trkpt><trkpt lat="43.42575667" lon="13.24890167"><ele>264.0</ele><time>2022-03-17T16:30:20.884Z</time></trkpt><trkpt lat="43.42581" lon="13.248935"><ele>264.0</ele><time>2022-03-17T16:30:21.900Z</time></trkpt><trkpt lat="43.42581" lon="13.248935"><ele>264.0</ele><time>2022-03-17T16:30:22.912Z</time></trkpt><trkpt lat="43.42592" lon="13.24901167"><ele>264.0</ele><time>2022-03-17T16:30:23.892Z</time></trkpt><trkpt lat="43.42597" lon="13.24905167"><ele>264.0</ele><time>2022-03-17T16:30:24.912Z</time></trkpt><trkpt lat="43.42597" lon="13.24905167"><ele>264.0</ele><time>2022-03-17T16:30:25.878Z</time></trkpt><trkpt lat="43.42607667" lon="13.24913667"><ele>264.0</ele><time>2022-03-17T16:30:26.907Z</time></trkpt><trkpt lat="43.42612667" lon="13.24917333"><ele>264.0</ele><time>2022-03-17T16:30:27.891Z</time></trkpt><trkpt lat="43.42612667" lon="13.24917333"><ele>264.0</ele><time>2022-03-17T16:30:28.898Z</time></trkpt><trkpt lat="43.42623" lon="13.24925833"><ele>263.0</ele><time>2022-03-17T16:30:29.877Z</time></trkpt><trkpt lat="43.42628333" lon="13.2493"><ele>263.0</ele><time>2022-03-17T16:30:30.897Z</time></trkpt><trkpt lat="43.42628333" lon="13.2493"><ele>263.0</ele><time>2022-03-17T16:30:31.903Z</time></trkpt><trkpt lat="43.42639333" lon="13.24937833"><ele>263.0</ele><time>2022-03-17T16:30:32.890Z</time></trkpt><trkpt lat="43.42644833" lon="13.24941667"><ele>263.0</ele><time>2022-03-17T16:30:33.889Z</time></trkpt><trkpt lat="43.42650667" lon="13.249455"><ele>263.0</ele><time>2022-03-17T16:30:34.909Z</time></trkpt><trkpt lat="43.42650667" lon="13.249455"><ele>263.0</ele><time>2022-03-17T16:30:35.916Z</time></trkpt><trkpt lat="43.42663167" lon="13.24953167"><ele>263.0</ele><time>2022-03-17T16:30:36.904Z</time></trkpt><trkpt lat="43.42663167" lon="13.24953167"><ele>263.0</ele><time>2022-03-17T16:30:37.910Z</time></trkpt><trkpt lat="43.42676833" lon="13.24963667"><ele>262.0</ele><time>2022-03-17T16:30:38.899Z</time></trkpt><trkpt lat="43.42676833" lon="13.24963667"><ele>262.0</ele><time>2022-03-17T16:30:39.905Z</time></trkpt><trkpt lat="43.426905" lon="13.24974"><ele>261.0</ele><time>2022-03-17T16:30:40.883Z</time></trkpt><trkpt lat="43.426905" lon="13.24974"><ele>261.0</ele><time>2022-03-17T16:30:41.888Z</time></trkpt><trkpt lat="43.42704333" lon="13.24984333"><ele>261.0</ele><time>2022-03-17T16:30:42.913Z</time></trkpt><trkpt lat="43.42704333" lon="13.24984333"><ele>261.0</ele><time>2022-03-17T16:30:43.879Z</time></trkpt><trkpt lat="43.42716333" lon="13.24997167"><ele>259.0</ele><time>2022-03-17T16:30:44.898Z</time></trkpt><trkpt lat="43.42721667" lon="13.25003833"><ele>259.0</ele><time>2022-03-17T16:30:45.877Z</time></trkpt><trkpt lat="43.42721667" lon="13.25003833"><ele>259.0</ele><time>2022-03-17T16:30:46.884Z</time></trkpt><trkpt lat="43.42733333" lon="13.250175"><ele>258.0</ele><time>2022-03-17T16:30:47.910Z</time></trkpt><trkpt lat="43.42739333" lon="13.25025"><ele>257.0</ele><time>2022-03-17T16:30:48.895Z</time></trkpt><trkpt lat="43.42739333" lon="13.25025"><ele>257.0</ele><time>2022-03-17T16:30:49.900Z</time></trkpt><trkpt lat="43.42750333" lon="13.25042"><ele>255.0</ele><time>2022-03-17T16:30:50.884Z</time></trkpt><trkpt lat="43.42750333" lon="13.25042"><ele>255.0</ele><time>2022-03-17T16:30:51.889Z</time></trkpt><trkpt lat="43.42761667" lon="13.25060833"><ele>254.0</ele><time>2022-03-17T16:30:52.906Z</time></trkpt><trkpt lat="43.42761667" lon="13.25060833"><ele>254.0</ele><time>2022-03-17T16:30:53.914Z</time></trkpt><trkpt lat="43.42772833" lon="13.25080167"><ele>253.0</ele><time>2022-03-17T16:30:54.910Z</time></trkpt><trkpt lat="43.42772833" lon="13.25080167"><ele>253.0</ele><time>2022-03-17T16:30:55.877Z</time></trkpt><trkpt lat="43.42784333" lon="13.25100833"><ele>251.0</ele><time>2022-03-17T16:30:56.896Z</time></trkpt><trkpt lat="43.42784333" lon="13.25100833"><ele>251.0</ele><time>2022-03-17T16:30:57.903Z</time></trkpt><trkpt lat="43.42795833" lon="13.251225"><ele>250.0</ele><time>2022-03-17T16:30:58.885Z</time></trkpt><trkpt lat="43.42795833" lon="13.251225"><ele>250.0</ele><time>2022-03-17T16:30:59.892Z</time></trkpt><trkpt lat="43.42808333" lon="13.25143667"><ele>249.0</ele><time>2022-03-17T16:31:00.914Z</time></trkpt><trkpt lat="43.42808333" lon="13.25143667"><ele>249.0</ele><time>2022-03-17T16:31:01.881Z</time></trkpt><trkpt lat="43.42823833" lon="13.25160667"><ele>247.0</ele><time>2022-03-17T16:31:02.885Z</time></trkpt><trkpt lat="43.42823833" lon="13.25160667"><ele>247.0</ele><time>2022-03-17T16:31:03.891Z</time></trkpt><trkpt lat="43.42842" lon="13.251735"><ele>245.0</ele><time>2022-03-17T16:31:04.883Z</time></trkpt><trkpt lat="43.42842" lon="13.251735"><ele>245.0</ele><time>2022-03-17T16:31:05.890Z</time></trkpt><trkpt lat="43.428615" lon="13.25185667"><ele>243.0</ele><time>2022-03-17T16:31:06.886Z</time></trkpt><trkpt lat="43.428615" lon="13.25185667"><ele>243.0</ele><time>2022-03-17T16:31:07.891Z</time></trkpt><trkpt lat="43.42881833" lon="13.25198"><ele>242.0</ele><time>2022-03-17T16:31:08.907Z</time></trkpt><trkpt lat="43.42892333" lon="13.25204833"><ele>241.0</ele><time>2022-03-17T16:31:09.895Z</time></trkpt><trkpt lat="43.42892333" lon="13.25204833"><ele>241.0</ele><time>2022-03-17T16:31:10.901Z</time></trkpt><trkpt lat="43.42913167" lon="13.25219667"><ele>239.0</ele><time>2022-03-17T16:31:11.888Z</time></trkpt><trkpt lat="43.42913167" lon="13.25219667"><ele>239.0</ele><time>2022-03-17T16:31:12.929Z</time></trkpt><trkpt lat="43.42933333" lon="13.252365"><ele>238.0</ele><time>2022-03-17T16:31:13.911Z</time></trkpt><trkpt lat="43.42933333" lon="13.252365"><ele>238.0</ele><time>2022-03-17T16:31:14.877Z</time></trkpt><trkpt lat="43.429525" lon="13.25255"><ele>236.0</ele><time>2022-03-17T16:31:15.899Z</time></trkpt><trkpt lat="43.42962167" lon="13.25264667"><ele>235.0</ele><time>2022-03-17T16:31:16.883Z</time></trkpt><trkpt lat="43.42962167" lon="13.25264667"><ele>235.0</ele><time>2022-03-17T16:31:17.890Z</time></trkpt><trkpt lat="43.42981333" lon="13.25284"><ele>234.0</ele><time>2022-03-17T16:31:18.881Z</time></trkpt><trkpt lat="43.42981333" lon="13.25284"><ele>234.0</ele><time>2022-03-17T16:31:19.888Z</time></trkpt><trkpt lat="43.42999667" lon="13.25304"><ele>233.0</ele><time>2022-03-17T16:31:20.906Z</time></trkpt><trkpt lat="43.42999667" lon="13.25304"><ele>233.0</ele><time>2022-03-17T16:31:21.913Z</time></trkpt><trkpt lat="43.43016667" lon="13.253235"><ele>233.0</ele><time>2022-03-17T16:31:22.893Z</time></trkpt><trkpt lat="43.43016667" lon="13.253235"><ele>233.0</ele><time>2022-03-17T16:31:23.899Z</time></trkpt><trkpt lat="43.430315" lon="13.25343667"><ele>232.0</ele><time>2022-03-17T16:31:24.881Z</time></trkpt><trkpt lat="43.430315" lon="13.25343667"><ele>232.0</ele><time>2022-03-17T16:31:25.887Z</time></trkpt><trkpt lat="43.43043833" lon="13.25361667"><ele>232.0</ele><time>2022-03-17T16:31:26.914Z</time></trkpt><trkpt lat="43.43043833" lon="13.25361667"><ele>232.0</ele><time>2022-03-17T16:31:27.880Z</time></trkpt><trkpt lat="43.430545" lon="13.25379167"><ele>231.0</ele><time>2022-03-17T16:31:28.905Z</time></trkpt><trkpt lat="43.430545" lon="13.25379167"><ele>231.0</ele><time>2022-03-17T16:31:29.913Z</time></trkpt><trkpt lat="43.43063667" lon="13.25396167"><ele>231.0</ele><time>2022-03-17T16:31:30.912Z</time></trkpt><trkpt lat="43.43063667" lon="13.25396167"><ele>231.0</ele><time>2022-03-17T16:31:31.879Z</time></trkpt><trkpt lat="43.43071833" lon="13.25411667"><ele>231.0</ele><time>2022-03-17T16:31:32.900Z</time></trkpt><trkpt lat="43.43071833" lon="13.25411667"><ele>231.0</ele><time>2022-03-17T16:31:33.906Z</time></trkpt><trkpt lat="43.43079333" lon="13.25427167"><ele>232.0</ele><time>2022-03-17T16:31:34.886Z</time></trkpt><trkpt lat="43.43083" lon="13.25434167"><ele>232.0</ele><time>2022-03-17T16:31:35.877Z</time></trkpt><trkpt lat="43.43086167" lon="13.254405"><ele>232.0</ele><time>2022-03-17T16:31:36.877Z</time></trkpt><trkpt lat="43.43086167" lon="13.254405"><ele>232.0</ele><time>2022-03-17T16:31:37.884Z</time></trkpt><trkpt lat="43.430925" lon="13.25452"><ele>232.0</ele><time>2022-03-17T16:31:38.904Z</time></trkpt><trkpt lat="43.430925" lon="13.25452"><ele>232.0</ele><time>2022-03-17T16:31:39.915Z</time></trkpt><trkpt lat="43.43099" lon="13.25462833"><ele>233.0</ele><time>2022-03-17T16:31:40.908Z</time></trkpt><trkpt lat="43.43099" lon="13.25462833"><ele>233.0</ele><time>2022-03-17T16:31:41.915Z</time></trkpt><trkpt lat="43.43106833" lon="13.25471333"><ele>233.0</ele><time>2022-03-17T16:31:42.903Z</time></trkpt><trkpt lat="43.43106833" lon="13.25471333"><ele>233.0</ele><time>2022-03-17T16:31:43.914Z</time></trkpt><trkpt lat="43.43115667" lon="13.25479333"><ele>234.0</ele><time>2022-03-17T16:31:44.905Z</time></trkpt><trkpt lat="43.43120833" lon="13.25483167"><ele>233.0</ele><time>2022-03-17T16:31:45.895Z</time></trkpt><trkpt lat="43.43120833" lon="13.25483167"><ele>233.0</ele><time>2022-03-17T16:31:46.901Z</time></trkpt><trkpt lat="43.43132667" lon="13.25489167"><ele>232.0</ele><time>2022-03-17T16:31:47.904Z</time></trkpt><trkpt lat="43.43139167" lon="13.25491833"><ele>232.0</ele><time>2022-03-17T16:31:48.883Z</time></trkpt><trkpt lat="43.43139167" lon="13.25491833"><ele>232.0</ele><time>2022-03-17T16:31:49.890Z</time></trkpt><trkpt lat="43.431525" lon="13.25497333"><ele>232.0</ele><time>2022-03-17T16:31:50.877Z</time></trkpt><trkpt lat="43.431525" lon="13.25497333"><ele>232.0</ele><time>2022-03-17T16:31:51.884Z</time></trkpt><trkpt lat="43.43167667" lon="13.25505"><ele>231.0</ele><time>2022-03-17T16:31:52.910Z</time></trkpt><trkpt lat="43.43167667" lon="13.25505"><ele>231.0</ele><time>2022-03-17T16:31:53.916Z</time></trkpt><trkpt lat="43.43184667" lon="13.25513"><ele>231.0</ele><time>2022-03-17T16:31:54.914Z</time></trkpt><trkpt lat="43.43184667" lon="13.25513"><ele>231.0</ele><time>2022-03-17T16:31:55.881Z</time></trkpt><trkpt lat="43.432025" lon="13.255215"><ele>231.0</ele><time>2022-03-17T16:31:56.887Z</time></trkpt><trkpt lat="43.43210833" lon="13.25526"><ele>230.0</ele><time>2022-03-17T16:31:57.906Z</time></trkpt><trkpt lat="43.43210833" lon="13.25526"><ele>230.0</ele><time>2022-03-17T16:31:58.914Z</time></trkpt><trkpt lat="43.43227167" lon="13.25535667"><ele>229.0</ele><time>2022-03-17T16:31:59.913Z</time></trkpt><trkpt lat="43.43235" lon="13.25541167"><ele>228.0</ele><time>2022-03-17T16:32:00.899Z</time></trkpt><trkpt lat="43.43235" lon="13.25541167"><ele>228.0</ele><time>2022-03-17T16:32:01.906Z</time></trkpt><trkpt lat="43.43248333" lon="13.25550667"><ele>226.0</ele><time>2022-03-17T16:32:02.893Z</time></trkpt><trkpt lat="43.43248333" lon="13.25550667"><ele>226.0</ele><time>2022-03-17T16:32:03.899Z</time></trkpt><trkpt lat="43.43257333" lon="13.25545667"><ele>223.0</ele><time>2022-03-17T16:32:04.892Z</time></trkpt><trkpt lat="43.43257333" lon="13.25545667"><ele>223.0</ele><time>2022-03-17T16:32:05.897Z</time></trkpt><trkpt lat="43.43258" lon="13.25529333"><ele>222.0</ele><time>2022-03-17T16:32:06.890Z</time></trkpt><trkpt lat="43.43256167" lon="13.2552"><ele>221.0</ele><time>2022-03-17T16:32:07.905Z</time></trkpt><trkpt lat="43.43256167" lon="13.2552"><ele>221.0</ele><time>2022-03-17T16:32:08.912Z</time></trkpt><trkpt lat="43.43253833" lon="13.255005"><ele>219.0</ele><time>2022-03-17T16:32:09.915Z</time></trkpt><trkpt lat="43.43253833" lon="13.255005"><ele>219.0</ele><time>2022-03-17T16:32:10.881Z</time></trkpt><trkpt lat="43.43254167" lon="13.25480167"><ele>218.0</ele><time>2022-03-17T16:32:11.905Z</time></trkpt><trkpt lat="43.43254167" lon="13.25480167"><ele>218.0</ele><time>2022-03-17T16:32:12.940Z</time></trkpt><trkpt lat="43.43255667" lon="13.254605"><ele>218.0</ele><time>2022-03-17T16:32:13.891Z</time></trkpt><trkpt lat="43.43256" lon="13.25450833"><ele>218.0</ele><time>2022-03-17T16:32:14.903Z</time></trkpt><trkpt lat="43.43256" lon="13.25450833"><ele>218.0</ele><time>2022-03-17T16:32:15.909Z</time></trkpt><trkpt lat="43.43255167" lon="13.25431333"><ele>217.0</ele><time>2022-03-17T16:32:16.884Z</time></trkpt><trkpt lat="43.43254" lon="13.25421833"><ele>217.0</ele><time>2022-03-17T16:32:17.906Z</time></trkpt><trkpt lat="43.432525" lon="13.25412333"><ele>217.0</ele><time>2022-03-17T16:32:18.892Z</time></trkpt><trkpt lat="43.43251167" lon="13.25402833"><ele>217.0</ele><time>2022-03-17T16:32:19.906Z</time></trkpt><trkpt lat="43.43251167" lon="13.25402833"><ele>217.0</ele><time>2022-03-17T16:32:20.915Z</time></trkpt><trkpt lat="43.432505" lon="13.25383167"><ele>217.0</ele><time>2022-03-17T16:35:14.427Z</time></trkpt><trkpt lat="43.432505" lon="13.25383167"><ele>217.0</ele><time>2022-03-17T16:35:15.435Z</time></trkpt><trkpt lat="43.43251667" lon="13.25362833"><ele>216.0</ele><time>2022-03-17T16:35:16.427Z</time></trkpt><trkpt lat="43.43253" lon="13.25352667"><ele>216.0</ele><time>2022-03-17T16:35:17.401Z</time></trkpt><trkpt lat="43.43253" lon="13.25352667"><ele>216.0</ele><time>2022-03-17T16:35:18.409Z</time></trkpt><trkpt lat="43.43256667" lon="13.25332333"><ele>215.0</ele><time>2022-03-17T16:35:19.423Z</time></trkpt><trkpt lat="43.43259167" lon="13.25322333"><ele>215.0</ele><time>2022-03-17T16:35:20.428Z</time></trkpt><trkpt lat="43.43259167" lon="13.25322333"><ele>215.0</ele><time>2022-03-17T16:35:21.437Z</time></trkpt><trkpt lat="43.43265833" lon="13.25303"><ele>215.0</ele><time>2022-03-17T16:35:22.434Z</time></trkpt><trkpt lat="43.43269667" lon="13.252935"><ele>215.0</ele><time>2022-03-17T16:35:23.428Z</time></trkpt><trkpt lat="43.43269667" lon="13.252935"><ele>215.0</ele><time>2022-03-17T16:35:24.436Z</time></trkpt><trkpt lat="43.43277667" lon="13.25274833"><ele>214.0</ele><time>2022-03-17T16:35:25.429Z</time></trkpt><trkpt lat="43.432815" lon="13.252655"><ele>214.0</ele><time>2022-03-17T16:35:26.432Z</time></trkpt><trkpt lat="43.432815" lon="13.252655"><ele>214.0</ele><time>2022-03-17T16:35:27.399Z</time></trkpt><trkpt lat="43.432885" lon="13.25246333"><ele>214.0</ele><time>2022-03-17T16:35:28.420Z</time></trkpt><trkpt lat="43.432885" lon="13.25246333"><ele>214.0</ele><time>2022-03-17T16:35:29.427Z</time></trkpt><trkpt lat="43.43294167" lon="13.25226"><ele>213.0</ele><time>2022-03-17T16:35:30.410Z</time></trkpt><trkpt lat="43.43294167" lon="13.25226"><ele>213.0</ele><time>2022-03-17T16:35:31.417Z</time></trkpt><trkpt lat="43.43297667" lon="13.25204833"><ele>213.0</ele><time>2022-03-17T16:35:32.436Z</time></trkpt><trkpt lat="43.43297667" lon="13.25204833"><ele>213.0</ele><time>2022-03-17T16:35:33.415Z</time></trkpt><trkpt lat="43.432975" lon="13.25183833"><ele>212.0</ele><time>2022-03-17T16:35:34.406Z</time></trkpt><trkpt lat="43.432975" lon="13.25183833"><ele>212.0</ele><time>2022-03-17T16:35:35.416Z</time></trkpt><trkpt lat="43.43293667" lon="13.25163333"><ele>212.0</ele><time>2022-03-17T16:35:36.420Z</time></trkpt><trkpt lat="43.43293667" lon="13.25163333"><ele>212.0</ele><time>2022-03-17T16:35:37.427Z</time></trkpt><trkpt lat="43.43288" lon="13.25142667"><ele>211.0</ele><time>2022-03-17T16:35:38.407Z</time></trkpt><trkpt lat="43.43285667" lon="13.25131833"><ele>211.0</ele><time>2022-03-17T16:35:39.400Z</time></trkpt><trkpt lat="43.43285667" lon="13.25131833"><ele>211.0</ele><time>2022-03-17T16:35:40.407Z</time></trkpt><trkpt lat="43.43284667" lon="13.25108167"><ele>211.0</ele><time>2022-03-17T16:35:41.408Z</time></trkpt><trkpt lat="43.43284667" lon="13.25108167"><ele>211.0</ele><time>2022-03-17T16:35:42.415Z</time></trkpt><trkpt lat="43.43288667" lon="13.25082833"><ele>210.0</ele><time>2022-03-17T16:35:43.419Z</time></trkpt><trkpt lat="43.43294" lon="13.25070833"><ele>208.0</ele><time>2022-03-17T16:35:44.400Z</time></trkpt><trkpt lat="43.43301333" lon="13.25059667"><ele>208.0</ele><time>2022-03-17T16:35:45.424Z</time></trkpt><trkpt lat="43.43301333" lon="13.25059667"><ele>208.0</ele><time>2022-03-17T16:35:46.437Z</time></trkpt><trkpt lat="43.43317667" lon="13.25038"><ele>206.0</ele><time>2022-03-17T16:35:47.424Z</time></trkpt><trkpt lat="43.43317667" lon="13.25038"><ele>206.0</ele><time>2022-03-17T16:35:48.435Z</time></trkpt><trkpt lat="43.43334167" lon="13.25016"><ele>204.0</ele><time>2022-03-17T16:35:49.428Z</time></trkpt><trkpt lat="43.433425" lon="13.25005"><ele>203.0</ele><time>2022-03-17T16:35:50.418Z</time></trkpt><trkpt lat="43.433425" lon="13.25005"><ele>203.0</ele><time>2022-03-17T16:35:51.424Z</time></trkpt><trkpt lat="43.43359167" lon="13.24983"><ele>202.0</ele><time>2022-03-17T16:35:52.404Z</time></trkpt><trkpt lat="43.433675" lon="13.24972333"><ele>201.0</ele><time>2022-03-17T16:35:53.431Z</time></trkpt><trkpt lat="43.433675" lon="13.24972333"><ele>201.0</ele><time>2022-03-17T16:35:54.438Z</time></trkpt><trkpt lat="43.43384333" lon="13.24950667"><ele>199.0</ele><time>2022-03-17T16:35:55.422Z</time></trkpt><trkpt lat="43.43392833" lon="13.24939833"><ele>198.0</ele><time>2022-03-17T16:35:56.425Z</time></trkpt><trkpt lat="43.43392833" lon="13.24939833"><ele>198.0</ele><time>2022-03-17T16:35:57.437Z</time></trkpt><trkpt lat="43.43408833" lon="13.24918667"><ele>197.0</ele><time>2022-03-17T16:35:58.438Z</time></trkpt><trkpt lat="43.434165" lon="13.24908333"><ele>197.0</ele><time>2022-03-17T16:35:59.421Z</time></trkpt><trkpt lat="43.434165" lon="13.24908333"><ele>197.0</ele><time>2022-03-17T16:36:00.428Z</time></trkpt><trkpt lat="43.434295" lon="13.24885333"><ele>195.0</ele><time>2022-03-17T16:36:01.410Z</time></trkpt><trkpt lat="43.43434167" lon="13.24872167"><ele>194.0</ele><time>2022-03-17T16:36:02.410Z</time></trkpt><trkpt lat="43.43437667" lon="13.24858333"><ele>194.0</ele><time>2022-03-17T16:36:03.430Z</time></trkpt><trkpt lat="43.43437667" lon="13.24858333"><ele>194.0</ele><time>2022-03-17T16:36:04.438Z</time></trkpt><trkpt lat="43.43441" lon="13.24829667"><ele>193.0</ele><time>2022-03-17T16:36:05.418Z</time></trkpt><trkpt lat="43.43441" lon="13.24829667"><ele>193.0</ele><time>2022-03-17T16:36:06.437Z</time></trkpt><trkpt lat="43.43439833" lon="13.24801167"><ele>192.0</ele><time>2022-03-17T16:36:07.420Z</time></trkpt><trkpt lat="43.43438833" lon="13.24787333"><ele>191.0</ele><time>2022-03-17T16:36:08.425Z</time></trkpt><trkpt lat="43.43438833" lon="13.24787333"><ele>191.0</ele><time>2022-03-17T16:36:09.432Z</time></trkpt><trkpt lat="43.43439667" lon="13.247605"><ele>190.0</ele><time>2022-03-17T16:36:10.420Z</time></trkpt><trkpt lat="43.43442833" lon="13.24748167"><ele>190.0</ele><time>2022-03-17T16:36:11.401Z</time></trkpt><trkpt lat="43.43442833" lon="13.24748167"><ele>190.0</ele><time>2022-03-17T16:36:12.408Z</time></trkpt><trkpt lat="43.43456667" lon="13.24729833"><ele>190.0</ele><time>2022-03-17T16:36:13.436Z</time></trkpt><trkpt lat="43.43465333" lon="13.247245"><ele>190.0</ele><time>2022-03-17T16:36:14.421Z</time></trkpt><trkpt lat="43.43465333" lon="13.247245"><ele>190.0</ele><time>2022-03-17T16:36:15.428Z</time></trkpt><trkpt lat="43.43483667" lon="13.24720833"><ele>189.0</ele><time>2022-03-17T16:36:16.400Z</time></trkpt><trkpt lat="43.43483667" lon="13.24720833"><ele>189.0</ele><time>2022-03-17T16:36:17.406Z</time></trkpt><trkpt lat="43.43502167" lon="13.24718333"><ele>188.0</ele><time>2022-03-17T16:36:18.399Z</time></trkpt><trkpt lat="43.43510167" lon="13.24714333"><ele>188.0</ele><time>2022-03-17T16:36:19.422Z</time></trkpt><trkpt lat="43.43510167" lon="13.24714333"><ele>188.0</ele><time>2022-03-17T16:36:20.435Z</time></trkpt><trkpt lat="43.43519833" lon="13.24696167"><ele>187.0</ele><time>2022-03-17T16:36:21.419Z</time></trkpt><trkpt lat="43.43519833" lon="13.24696167"><ele>187.0</ele><time>2022-03-17T16:36:22.426Z</time></trkpt><trkpt lat="43.43523333" lon="13.246725"><ele>185.0</ele><time>2022-03-17T16:36:23.411Z</time></trkpt><trkpt lat="43.43523333" lon="13.246725"><ele>185.0</ele><time>2022-03-17T16:36:24.417Z</time></trkpt><trkpt lat="43.43522" lon="13.24648"><ele>183.0</ele><time>2022-03-17T16:36:25.438Z</time></trkpt><trkpt lat="43.43519667" lon="13.24636667"><ele>182.0</ele><time>2022-03-17T16:36:26.417Z</time></trkpt><trkpt lat="43.43516" lon="13.246255"><ele>182.0</ele><time>2022-03-17T16:36:27.399Z</time></trkpt><trkpt lat="43.43516" lon="13.246255"><ele>182.0</ele><time>2022-03-17T16:36:28.406Z</time></trkpt><trkpt lat="43.43506833" lon="13.246035"><ele>180.0</ele><time>2022-03-17T16:36:29.408Z</time></trkpt><trkpt lat="43.43502333" lon="13.24593667"><ele>179.0</ele><time>2022-03-17T16:36:30.424Z</time></trkpt><trkpt lat="43.43502333" lon="13.24593667"><ele>179.0</ele><time>2022-03-17T16:36:31.432Z</time></trkpt><trkpt lat="43.434955" lon="13.245775"><ele>178.0</ele><time>2022-03-17T16:36:32.416Z</time></trkpt><trkpt lat="43.434955" lon="13.245775"><ele>178.0</ele><time>2022-03-17T16:36:33.422Z</time></trkpt><trkpt lat="43.434915" lon="13.24563667"><ele>177.0</ele><time>2022-03-17T16:36:34.411Z</time></trkpt><trkpt lat="43.43490833" lon="13.24557167"><ele>176.0</ele><time>2022-03-17T16:36:35.429Z</time></trkpt><trkpt lat="43.43490833" lon="13.24557167"><ele>176.0</ele><time>2022-03-17T16:36:36.436Z</time></trkpt><trkpt lat="43.43495167" lon="13.24546167"><ele>174.0</ele><time>2022-03-17T16:36:37.404Z</time></trkpt><trkpt lat="43.43495167" lon="13.24546167"><ele>174.0</ele><time>2022-03-17T16:36:38.411Z</time></trkpt><trkpt lat="43.435" lon="13.24540333"><ele>173.0</ele><time>2022-03-17T16:36:39.435Z</time></trkpt><trkpt lat="43.435" lon="13.24540333"><ele>173.0</ele><time>2022-03-17T16:36:40.401Z</time></trkpt><trkpt lat="43.43503667" lon="13.24537667"><ele>172.0</ele><time>2022-03-17T16:36:41.422Z</time></trkpt><trkpt lat="43.43503667" lon="13.24537667"><ele>172.0</ele><time>2022-03-17T16:36:42.428Z</time></trkpt><trkpt lat="43.43505333" lon="13.24537167"><ele>171.0</ele><time>2022-03-17T16:36:43.417Z</time></trkpt><trkpt lat="43.43505333" lon="13.24537167"><ele>171.0</ele><time>2022-03-17T16:36:44.423Z</time></trkpt><trkpt lat="43.43506167" lon="13.24539667"><ele>170.0</ele><time>2022-03-17T16:36:45.416Z</time></trkpt><trkpt lat="43.43506167" lon="13.24539667"><ele>170.0</ele><time>2022-03-17T16:36:46.423Z</time></trkpt><trkpt lat="43.43505833" lon="13.24540167"><ele>170.0</ele><time>2022-03-17T16:36:47.431Z</time></trkpt><trkpt lat="43.43505833" lon="13.24540167"><ele>170.0</ele><time>2022-03-17T16:36:48.407Z</time></trkpt><trkpt lat="43.43505333" lon="13.24540333"><ele>170.0</ele><time>2022-03-17T16:36:49.415Z</time></trkpt><trkpt lat="43.43505333" lon="13.24540333"><ele>170.0</ele><time>2022-03-17T16:36:50.412Z</time></trkpt><trkpt lat="43.435115" lon="13.245385"><ele>173.0</ele><time>2022-03-17T16:36:51.415Z</time></trkpt><trkpt lat="43.435115" lon="13.245385"><ele>173.0</ele><time>2022-03-17T16:36:52.413Z</time></trkpt><trkpt lat="43.43517167" lon="13.24537333"><ele>173.0</ele><time>2022-03-17T16:36:53.405Z</time></trkpt><trkpt lat="43.43517167" lon="13.24537333"><ele>173.0</ele><time>2022-03-17T16:36:54.416Z</time></trkpt><trkpt lat="43.43524667" lon="13.24536"><ele>173.0</ele><time>2022-03-17T16:36:55.439Z</time></trkpt><trkpt lat="43.43527833" lon="13.24535333"><ele>174.0</ele><time>2022-03-17T16:36:56.403Z</time></trkpt><trkpt lat="43.43527833" lon="13.24535333"><ele>174.0</ele><time>2022-03-17T16:36:57.415Z</time></trkpt><trkpt lat="43.43530333" lon="13.245355"><ele>174.0</ele><time>2022-03-17T16:36:58.420Z</time></trkpt><trkpt lat="43.43530333" lon="13.245355"><ele>174.0</ele><time>2022-03-17T16:36:59.414Z</time></trkpt><trkpt lat="43.43529333" lon="13.24535"><ele>175.0</ele><time>2022-03-17T16:37:00.410Z</time></trkpt><trkpt lat="43.43529333" lon="13.24535"><ele>175.0</ele><time>2022-03-17T16:37:01.424Z</time></trkpt><trkpt lat="43.43528667" lon="13.24534667"><ele>175.0</ele><time>2022-03-17T16:37:02.404Z</time></trkpt><trkpt lat="43.43531833" lon="13.24541"><ele>177.0</ele><time>2022-03-17T16:37:03.420Z</time></trkpt><trkpt lat="43.43531833" lon="13.24541"><ele>177.0</ele><time>2022-03-17T16:37:04.417Z</time></trkpt><trkpt lat="43.43534667" lon="13.24543667"><ele>177.0</ele><time>2022-03-17T16:37:05.424Z</time></trkpt><trkpt lat="43.43534667" lon="13.24543667"><ele>177.0</ele><time>2022-03-17T16:37:06.407Z</time></trkpt><trkpt lat="43.43535833" lon="13.24544167"><ele>177.0</ele><time>2022-03-17T16:37:07.419Z</time></trkpt><trkpt lat="43.43535833" lon="13.24544167"><ele>177.0</ele><time>2022-03-17T16:37:08.405Z</time></trkpt><trkpt lat="43.43536167" lon="13.24544833"><ele>177.0</ele><time>2022-03-17T16:37:09.417Z</time></trkpt><trkpt lat="43.43536167" lon="13.24544833"><ele>177.0</ele><time>2022-03-17T16:37:10.407Z</time></trkpt><trkpt lat="43.43538333" lon="13.24540667"><ele>181.0</ele><time>2022-03-17T16:37:11.439Z</time></trkpt><trkpt lat="43.43538333" lon="13.24540667"><ele>181.0</ele><time>2022-03-17T16:37:12.405Z</time></trkpt><trkpt lat="43.43538833" lon="13.245365"><ele>181.0</ele><time>2022-03-17T16:37:13.413Z</time></trkpt><trkpt lat="43.43538833" lon="13.245365"><ele>181.0</ele><time>2022-03-17T16:37:14.421Z</time></trkpt><trkpt lat="43.43540667" lon="13.24534"><ele>182.0</ele><time>2022-03-17T16:37:15.426Z</time></trkpt><trkpt lat="43.43540667" lon="13.24534"><ele>182.0</ele><time>2022-03-17T16:37:16.433Z</time></trkpt><trkpt lat="43.43544333" lon="13.24531167"><ele>182.0</ele><time>2022-03-17T16:37:17.423Z</time></trkpt><trkpt lat="43.43544333" lon="13.24531167"><ele>182.0</ele><time>2022-03-17T16:37:18.429Z</time></trkpt><trkpt lat="43.43548667" lon="13.245285"><ele>182.0</ele><time>2022-03-17T16:37:19.414Z</time></trkpt><trkpt lat="43.43551" lon="13.24527667"><ele>182.0</ele><time>2022-03-17T16:37:20.405Z</time></trkpt><trkpt lat="43.43551" lon="13.24527667"><ele>182.0</ele><time>2022-03-17T16:37:21.411Z</time></trkpt><trkpt lat="43.43554667" lon="13.24526833"><ele>182.0</ele><time>2022-03-17T16:37:22.430Z</time></trkpt><trkpt lat="43.43556333" lon="13.24525333"><ele>182.0</ele><time>2022-03-17T16:37:23.421Z</time></trkpt><trkpt lat="43.43557833" lon="13.24523667"><ele>182.0</ele><time>2022-03-17T16:37:24.405Z</time></trkpt><trkpt lat="43.43557833" lon="13.24523667"><ele>182.0</ele><time>2022-03-17T16:37:25.413Z</time></trkpt><trkpt lat="43.43561167" lon="13.24521167"><ele>182.0</ele><time>2022-03-17T16:37:26.438Z</time></trkpt><trkpt lat="43.43561167" lon="13.24521167"><ele>182.0</ele><time>2022-03-17T16:37:27.403Z</time></trkpt><trkpt lat="43.43564" lon="13.24518833"><ele>182.0</ele><time>2022-03-17T16:37:28.405Z</time></trkpt><trkpt lat="43.43565667" lon="13.245175"><ele>182.0</ele><time>2022-03-17T16:37:29.431Z</time></trkpt><trkpt lat="43.43565667" lon="13.245175"><ele>182.0</ele><time>2022-03-17T16:37:30.438Z</time></trkpt><trkpt lat="43.43569" lon="13.24515"><ele>182.0</ele><time>2022-03-17T16:37:31.429Z</time></trkpt><trkpt lat="43.43569" lon="13.24515"><ele>182.0</ele><time>2022-03-17T16:37:32.435Z</time></trkpt><trkpt lat="43.43572167" lon="13.24512833"><ele>182.0</ele><time>2022-03-17T16:37:33.407Z</time></trkpt><trkpt lat="43.43573333" lon="13.24511667"><ele>182.0</ele><time>2022-03-17T16:37:34.420Z</time></trkpt><trkpt lat="43.43573333" lon="13.24511667"><ele>182.0</ele><time>2022-03-17T16:37:35.427Z</time></trkpt><trkpt lat="43.43575333" lon="13.24511167"><ele>182.0</ele><time>2022-03-17T16:37:36.406Z</time></trkpt><trkpt lat="43.43575333" lon="13.24511167"><ele>182.0</ele><time>2022-03-17T16:37:37.413Z</time></trkpt><trkpt lat="43.43577333" lon="13.24510667"><ele>182.0</ele><time>2022-03-17T16:37:38.430Z</time></trkpt><trkpt lat="43.43577333" lon="13.24510667"><ele>182.0</ele><time>2022-03-17T16:37:39.437Z</time></trkpt><trkpt lat="43.43578333" lon="13.245095"><ele>181.0</ele><time>2022-03-17T16:37:40.422Z</time></trkpt><trkpt lat="43.435785" lon="13.24509"><ele>181.0</ele><time>2022-03-17T16:37:41.416Z</time></trkpt><trkpt lat="43.435785" lon="13.24509"><ele>181.0</ele><time>2022-03-17T16:37:42.411Z</time></trkpt><trkpt lat="43.435845" lon="13.24501333"><ele>184.0</ele><time>2022-03-17T16:37:43.423Z</time></trkpt><trkpt lat="43.435845" lon="13.24501333"><ele>184.0</ele><time>2022-03-17T16:37:44.430Z</time></trkpt><trkpt lat="43.43586167" lon="13.24500667"><ele>184.0</ele><time>2022-03-17T16:37:45.403Z</time></trkpt><trkpt lat="43.43586167" lon="13.24500667"><ele>184.0</ele><time>2022-03-17T16:37:46.410Z</time></trkpt><trkpt lat="43.43588667" lon="13.24499333"><ele>184.0</ele><time>2022-03-17T16:37:47.413Z</time></trkpt><trkpt lat="43.43588667" lon="13.24499333"><ele>184.0</ele><time>2022-03-17T16:37:48.421Z</time></trkpt><trkpt lat="43.43592167" lon="13.24497333"><ele>184.0</ele><time>2022-03-17T16:37:49.426Z</time></trkpt><trkpt lat="43.43592167" lon="13.24497333"><ele>184.0</ele><time>2022-03-17T16:37:50.438Z</time></trkpt><trkpt lat="43.43596" lon="13.24494833"><ele>184.0</ele><time>2022-03-17T16:37:51.421Z</time></trkpt><trkpt lat="43.43597833" lon="13.24493167"><ele>184.0</ele><time>2022-03-17T16:37:52.436Z</time></trkpt><trkpt lat="43.43597833" lon="13.24493167"><ele>184.0</ele><time>2022-03-17T16:37:53.403Z</time></trkpt><trkpt lat="43.43601333" lon="13.244905"><ele>184.0</ele><time>2022-03-17T16:37:54.436Z</time></trkpt><trkpt lat="43.43601333" lon="13.244905"><ele>184.0</ele><time>2022-03-17T16:37:55.403Z</time></trkpt><trkpt lat="43.43604333" lon="13.24488167"><ele>184.0</ele><time>2022-03-17T16:37:56.400Z</time></trkpt><trkpt lat="43.43606" lon="13.24487333"><ele>184.0</ele><time>2022-03-17T16:37:57.418Z</time></trkpt><trkpt lat="43.43606" lon="13.24487333"><ele>184.0</ele><time>2022-03-17T16:37:58.424Z</time></trkpt><trkpt lat="43.43609" lon="13.244855"><ele>184.0</ele><time>2022-03-17T16:37:59.437Z</time></trkpt><trkpt lat="43.43609" lon="13.244855"><ele>184.0</ele><time>2022-03-17T16:38:00.403Z</time></trkpt><trkpt lat="43.43611833" lon="13.24483333"><ele>184.0</ele><time>2022-03-17T16:38:01.408Z</time></trkpt><trkpt lat="43.43613" lon="13.24482667"><ele>184.0</ele><time>2022-03-17T16:38:02.434Z</time></trkpt><trkpt lat="43.43613" lon="13.24482667"><ele>184.0</ele><time>2022-03-17T16:38:03.401Z</time></trkpt><trkpt lat="43.43615667" lon="13.24481333"><ele>184.0</ele><time>2022-03-17T16:38:04.420Z</time></trkpt><trkpt lat="43.43615667" lon="13.24481333"><ele>184.0</ele><time>2022-03-17T16:38:05.419Z</time></trkpt><trkpt lat="43.43617" lon="13.24480833"><ele>184.0</ele><time>2022-03-17T16:38:06.412Z</time></trkpt><trkpt lat="43.43617167" lon="13.24480833"><ele>183.0</ele><time>2022-03-17T16:38:07.407Z</time></trkpt><trkpt lat="43.43617167" lon="13.24480833"><ele>183.0</ele><time>2022-03-17T16:38:08.436Z</time></trkpt><trkpt lat="43.43622333" lon="13.244795"><ele>181.0</ele><time>2022-03-17T16:38:09.414Z</time></trkpt><trkpt lat="43.43622333" lon="13.244795"><ele>181.0</ele><time>2022-03-17T16:38:10.400Z</time></trkpt><trkpt lat="43.43625" lon="13.24477667"><ele>181.0</ele><time>2022-03-17T16:38:11.416Z</time></trkpt><trkpt lat="43.43625" lon="13.24477667"><ele>181.0</ele><time>2022-03-17T16:38:12.422Z</time></trkpt><trkpt lat="43.43629333" lon="13.24476333"><ele>181.0</ele><time>2022-03-17T16:38:13.413Z</time></trkpt><trkpt lat="43.43630333" lon="13.24475167"><ele>181.0</ele><time>2022-03-17T16:38:14.435Z</time></trkpt><trkpt lat="43.43630333" lon="13.24475167"><ele>181.0</ele><time>2022-03-17T16:38:15.401Z</time></trkpt><trkpt lat="43.436305" lon="13.24474"><ele>181.0</ele><time>2022-03-17T16:38:16.435Z</time></trkpt><trkpt lat="43.43630333" lon="13.24473833"><ele>181.0</ele><time>2022-03-17T16:38:17.416Z</time></trkpt><trkpt lat="43.43630333" lon="13.24473833"><ele>181.0</ele><time>2022-03-17T16:38:18.411Z</time></trkpt><trkpt lat="43.43630333" lon="13.24473833"><ele>181.0</ele><time>2022-03-17T16:38:19.400Z</time></trkpt><trkpt lat="43.43623667" lon="13.2448"><ele>178.0</ele><time>2022-03-17T16:38:20.412Z</time></trkpt><trkpt lat="43.43623667" lon="13.2448"><ele>178.0</ele><time>2022-03-17T16:38:21.419Z</time></trkpt><trkpt lat="43.43620167" lon="13.24482333"><ele>178.0</ele><time>2022-03-17T16:38:22.405Z</time></trkpt><trkpt lat="43.43620167" lon="13.24482333"><ele>178.0</ele><time>2022-03-17T16:38:23.416Z</time></trkpt><trkpt lat="43.43615167" lon="13.24484833"><ele>178.0</ele><time>2022-03-17T16:38:24.434Z</time></trkpt><trkpt lat="43.43612167" lon="13.24486667"><ele>178.0</ele><time>2022-03-17T16:38:25.415Z</time></trkpt><trkpt lat="43.43612167" lon="13.24486667"><ele>178.0</ele><time>2022-03-17T16:38:26.421Z</time></trkpt><trkpt lat="43.436065" lon="13.24488333"><ele>178.0</ele><time>2022-03-17T16:38:27.412Z</time></trkpt><trkpt lat="43.436065" lon="13.24488333"><ele>178.0</ele><time>2022-03-17T16:38:28.418Z</time></trkpt><trkpt lat="43.43603" lon="13.244905"><ele>178.0</ele><time>2022-03-17T16:38:29.399Z</time></trkpt><trkpt lat="43.43603" lon="13.244905"><ele>178.0</ele><time>2022-03-17T16:38:30.405Z</time></trkpt><trkpt lat="43.43599" lon="13.24494333"><ele>178.0</ele><time>2022-03-17T16:38:31.425Z</time></trkpt><trkpt lat="43.43599" lon="13.24494333"><ele>178.0</ele><time>2022-03-17T16:38:32.437Z</time></trkpt><trkpt lat="43.43594667" lon="13.24498167"><ele>178.0</ele><time>2022-03-17T16:38:33.413Z</time></trkpt><trkpt lat="43.43594667" lon="13.24498167"><ele>178.0</ele><time>2022-03-17T16:38:34.420Z</time></trkpt><trkpt lat="43.43591" lon="13.24501667"><ele>178.0</ele><time>2022-03-17T16:38:35.409Z</time></trkpt><trkpt lat="43.43589167" lon="13.24503833"><ele>178.0</ele><time>2022-03-17T16:38:36.429Z</time></trkpt><trkpt lat="43.43589167" lon="13.24503833"><ele>178.0</ele><time>2022-03-17T16:38:37.436Z</time></trkpt><trkpt lat="43.43584833" lon="13.24507167"><ele>178.0</ele><time>2022-03-17T16:38:38.416Z</time></trkpt><trkpt lat="43.43584833" lon="13.24507167"><ele>178.0</ele><time>2022-03-17T16:38:39.422Z</time></trkpt><trkpt lat="43.43581" lon="13.24510833"><ele>178.0</ele><time>2022-03-17T16:38:40.403Z</time></trkpt><trkpt lat="43.435795" lon="13.245125"><ele>178.0</ele><time>2022-03-17T16:38:41.425Z</time></trkpt><trkpt lat="43.435795" lon="13.245125"><ele>178.0</ele><time>2022-03-17T16:38:42.432Z</time></trkpt><trkpt lat="43.43575" lon="13.24515833"><ele>178.0</ele><time>2022-03-17T16:38:43.416Z</time></trkpt><trkpt lat="43.43573167" lon="13.24516833"><ele>179.0</ele><time>2022-03-17T16:38:44.438Z</time></trkpt><trkpt lat="43.43573167" lon="13.24516833"><ele>179.0</ele><time>2022-03-17T16:38:45.404Z</time></trkpt><trkpt lat="43.43568833" lon="13.24520667"><ele>179.0</ele><time>2022-03-17T16:38:46.424Z</time></trkpt><trkpt lat="43.43566333" lon="13.24522"><ele>179.0</ele><time>2022-03-17T16:38:47.427Z</time></trkpt><trkpt lat="43.43566333" lon="13.24522"><ele>179.0</ele><time>2022-03-17T16:38:48.435Z</time></trkpt><trkpt lat="43.43561" lon="13.24526167"><ele>180.0</ele><time>2022-03-17T16:38:49.415Z</time></trkpt><trkpt lat="43.43558" lon="13.24528833"><ele>180.0</ele><time>2022-03-17T16:38:50.438Z</time></trkpt><trkpt lat="43.43558" lon="13.24528833"><ele>180.0</ele><time>2022-03-17T16:38:51.405Z</time></trkpt><trkpt lat="43.43552" lon="13.24532833"><ele>181.0</ele><time>2022-03-17T16:38:52.401Z</time></trkpt><trkpt lat="43.43552" lon="13.24532833"><ele>181.0</ele><time>2022-03-17T16:38:53.408Z</time></trkpt><trkpt lat="43.43545333" lon="13.24535833"><ele>181.0</ele><time>2022-03-17T16:38:54.433Z</time></trkpt><trkpt lat="43.43542333" lon="13.24537333"><ele>181.0</ele><time>2022-03-17T16:38:55.409Z</time></trkpt><trkpt lat="43.43542333" lon="13.24537333"><ele>181.0</ele><time>2022-03-17T16:38:56.416Z</time></trkpt><trkpt lat="43.43537167" lon="13.24541167"><ele>182.0</ele><time>2022-03-17T16:38:57.433Z</time></trkpt><trkpt lat="43.43537167" lon="13.24541167"><ele>182.0</ele><time>2022-03-17T16:38:58.399Z</time></trkpt><trkpt lat="43.43533167" lon="13.24545833"><ele>182.0</ele><time>2022-03-17T16:38:59.429Z</time></trkpt><trkpt lat="43.43533167" lon="13.24545833"><ele>182.0</ele><time>2022-03-17T16:39:00.437Z</time></trkpt><trkpt lat="43.43529167" lon="13.24549667"><ele>183.0</ele><time>2022-03-17T16:39:01.421Z</time></trkpt><trkpt lat="43.43527667" lon="13.24551833"><ele>183.0</ele><time>2022-03-17T16:39:02.402Z</time></trkpt><trkpt lat="43.43527667" lon="13.24551833"><ele>183.0</ele><time>2022-03-17T16:39:03.409Z</time></trkpt><trkpt lat="43.435245" lon="13.24555667"><ele>184.0</ele><time>2022-03-17T16:39:04.399Z</time></trkpt><trkpt lat="43.435245" lon="13.24555667"><ele>184.0</ele><time>2022-03-17T16:39:05.399Z</time></trkpt><trkpt lat="43.43520833" lon="13.24559167"><ele>184.0</ele><time>2022-03-17T16:39:06.402Z</time></trkpt><trkpt lat="43.43518833" lon="13.24561167"><ele>184.0</ele><time>2022-03-17T16:39:07.402Z</time></trkpt><trkpt lat="43.43518833" lon="13.24561167"><ele>184.0</ele><time>2022-03-17T16:39:08.408Z</time></trkpt><trkpt lat="43.43515167" lon="13.24564333"><ele>184.0</ele><time>2022-03-17T16:39:09.427Z</time></trkpt><trkpt lat="43.43515167" lon="13.24564333"><ele>184.0</ele><time>2022-03-17T16:39:10.434Z</time></trkpt><trkpt lat="43.43512" lon="13.24567333"><ele>185.0</ele><time>2022-03-17T16:39:11.399Z</time></trkpt><trkpt lat="43.43512" lon="13.24567333"><ele>185.0</ele><time>2022-03-17T16:39:12.405Z</time></trkpt><trkpt lat="43.43506667" lon="13.24570167"><ele>185.0</ele><time>2022-03-17T16:39:13.426Z</time></trkpt><trkpt lat="43.43506667" lon="13.24570167"><ele>185.0</ele><time>2022-03-17T16:39:14.434Z</time></trkpt><trkpt lat="43.43502" lon="13.24573"><ele>185.0</ele><time>2022-03-17T16:39:15.421Z</time></trkpt><trkpt lat="43.43502" lon="13.24573"><ele>185.0</ele><time>2022-03-17T16:39:16.428Z</time></trkpt><trkpt lat="43.43498167" lon="13.24573667"><ele>185.0</ele><time>2022-03-17T16:39:17.409Z</time></trkpt><trkpt lat="43.43498167" lon="13.24573667"><ele>185.0</ele><time>2022-03-17T16:39:18.415Z</time></trkpt><trkpt lat="43.43497667" lon="13.24576167"><ele>185.0</ele><time>2022-03-17T16:39:19.403Z</time></trkpt><trkpt lat="43.43497833" lon="13.24578"><ele>185.0</ele><time>2022-03-17T16:39:20.434Z</time></trkpt><trkpt lat="43.43497833" lon="13.24578"><ele>185.0</ele><time>2022-03-17T16:39:21.400Z</time></trkpt><trkpt lat="43.434935" lon="13.24580833"><ele>185.0</ele><time>2022-03-17T16:39:22.425Z</time></trkpt><trkpt lat="43.434935" lon="13.24580833"><ele>185.0</ele><time>2022-03-17T16:39:23.431Z</time></trkpt><trkpt lat="43.43488333" lon="13.24584833"><ele>185.0</ele><time>2022-03-17T16:39:24.425Z</time></trkpt><trkpt lat="43.43488333" lon="13.24584833"><ele>185.0</ele><time>2022-03-17T16:39:25.431Z</time></trkpt><trkpt lat="43.43483667" lon="13.24588167"><ele>185.0</ele><time>2022-03-17T16:39:26.413Z</time></trkpt><trkpt lat="43.43483667" lon="13.24588167"><ele>185.0</ele><time>2022-03-17T16:39:27.401Z</time></trkpt><trkpt lat="43.43478333" lon="13.24591667"><ele>184.0</ele><time>2022-03-17T16:39:28.405Z</time></trkpt><trkpt lat="43.43478333" lon="13.24591667"><ele>184.0</ele><time>2022-03-17T16:39:29.411Z</time></trkpt><trkpt lat="43.43474" lon="13.24594833"><ele>184.0</ele><time>2022-03-17T16:39:30.437Z</time></trkpt><trkpt lat="43.434715" lon="13.245965"><ele>184.0</ele><time>2022-03-17T16:39:31.405Z</time></trkpt><trkpt lat="43.43469333" lon="13.245975"><ele>184.0</ele><time>2022-03-17T16:39:32.424Z</time></trkpt><trkpt lat="43.43469333" lon="13.245975"><ele>184.0</ele><time>2022-03-17T16:39:33.433Z</time></trkpt><trkpt lat="43.434655" lon="13.24599"><ele>184.0</ele><time>2022-03-17T16:39:34.414Z</time></trkpt><trkpt lat="43.434655" lon="13.24599"><ele>184.0</ele><time>2022-03-17T16:39:35.421Z</time></trkpt><trkpt lat="43.43462" lon="13.24601333"><ele>184.0</ele><time>2022-03-17T16:39:36.437Z</time></trkpt><trkpt lat="43.43462" lon="13.24601333"><ele>184.0</ele><time>2022-03-17T16:39:37.406Z</time></trkpt><trkpt lat="43.43458833" lon="13.24602667"><ele>184.0</ele><time>2022-03-17T16:39:38.403Z</time></trkpt><trkpt lat="43.43458833" lon="13.24602667"><ele>184.0</ele><time>2022-03-17T16:39:39.409Z</time></trkpt><trkpt lat="43.43456333" lon="13.24605167"><ele>184.0</ele><time>2022-03-17T16:39:40.420Z</time></trkpt><trkpt lat="43.43456333" lon="13.24605167"><ele>184.0</ele><time>2022-03-17T16:39:41.427Z</time></trkpt><trkpt lat="43.43453667" lon="13.246075"><ele>184.0</ele><time>2022-03-17T16:39:42.406Z</time></trkpt><trkpt lat="43.43453667" lon="13.246075"><ele>184.0</ele><time>2022-03-17T16:39:43.412Z</time></trkpt><trkpt lat="43.43449833" lon="13.24609667"><ele>184.0</ele><time>2022-03-17T16:39:44.433Z</time></trkpt><trkpt lat="43.43449833" lon="13.24609667"><ele>184.0</ele><time>2022-03-17T16:39:45.399Z</time></trkpt><trkpt lat="43.43445667" lon="13.24612"><ele>184.0</ele><time>2022-03-17T16:39:46.431Z</time></trkpt><trkpt lat="43.43443833" lon="13.24612667"><ele>184.0</ele><time>2022-03-17T16:39:47.430Z</time></trkpt><trkpt lat="43.43443833" lon="13.24612667"><ele>184.0</ele><time>2022-03-17T16:39:48.436Z</time></trkpt><trkpt lat="43.43440167" lon="13.24615167"><ele>184.0</ele><time>2022-03-17T16:39:49.421Z</time></trkpt><trkpt lat="43.43438" lon="13.24616667"><ele>184.0</ele><time>2022-03-17T16:39:50.439Z</time></trkpt><trkpt lat="43.43438" lon="13.24616667"><ele>184.0</ele><time>2022-03-17T16:39:51.405Z</time></trkpt><trkpt lat="43.43433833" lon="13.246195"><ele>184.0</ele><time>2022-03-17T16:39:52.400Z</time></trkpt><trkpt lat="43.43431667" lon="13.24621"><ele>184.0</ele><time>2022-03-17T16:39:53.410Z</time></trkpt><trkpt lat="43.43429833" lon="13.24621833"><ele>184.0</ele><time>2022-03-17T16:39:54.432Z</time></trkpt><trkpt lat="43.43429833" lon="13.24621833"><ele>184.0</ele><time>2022-03-17T16:39:55.438Z</time></trkpt><trkpt lat="43.43426833" lon="13.246235"><ele>184.0</ele><time>2022-03-17T16:39:56.411Z</time></trkpt><trkpt lat="43.43426833" lon="13.246235"><ele>184.0</ele><time>2022-03-17T16:39:57.401Z</time></trkpt><trkpt lat="43.43424" lon="13.24624667"><ele>184.0</ele><time>2022-03-17T16:39:58.412Z</time></trkpt><trkpt lat="43.43424" lon="13.24624667"><ele>184.0</ele><time>2022-03-17T16:39:59.420Z</time></trkpt><trkpt lat="43.43421167" lon="13.24627167"><ele>184.0</ele><time>2022-03-17T16:40:00.424Z</time></trkpt><trkpt lat="43.43421167" lon="13.24627167"><ele>184.0</ele><time>2022-03-17T16:40:01.437Z</time></trkpt><trkpt lat="43.43417833" lon="13.246295"><ele>184.0</ele><time>2022-03-17T16:40:02.433Z</time></trkpt><trkpt lat="43.43417833" lon="13.246295"><ele>184.0</ele><time>2022-03-17T16:40:03.400Z</time></trkpt><trkpt lat="43.43413833" lon="13.24631667"><ele>184.0</ele><time>2022-03-17T16:40:04.429Z</time></trkpt><trkpt lat="43.43413833" lon="13.24631667"><ele>184.0</ele><time>2022-03-17T16:40:05.412Z</time></trkpt><trkpt lat="43.434105" lon="13.24634167"><ele>184.0</ele><time>2022-03-17T16:40:06.401Z</time></trkpt><trkpt lat="43.43409167" lon="13.24636167"><ele>184.0</ele><time>2022-03-17T16:40:07.415Z</time></trkpt><trkpt lat="43.43407333" lon="13.24637167"><ele>184.0</ele><time>2022-03-17T16:40:08.438Z</time></trkpt><trkpt lat="43.43407333" lon="13.24637167"><ele>184.0</ele><time>2022-03-17T16:40:09.409Z</time></trkpt><trkpt lat="43.434025" lon="13.24638667"><ele>184.0</ele><time>2022-03-17T16:40:10.416Z</time></trkpt><trkpt lat="43.434025" lon="13.24638667"><ele>184.0</ele><time>2022-03-17T16:40:11.422Z</time></trkpt><trkpt lat="43.43398" lon="13.24639833"><ele>184.0</ele><time>2022-03-17T16:40:12.406Z</time></trkpt><trkpt lat="43.43395833" lon="13.246405"><ele>184.0</ele><time>2022-03-17T16:40:13.421Z</time></trkpt><trkpt lat="43.43393333" lon="13.24641167"><ele>184.0</ele><time>2022-03-17T16:40:14.414Z</time></trkpt><trkpt lat="43.43393333" lon="13.24641167"><ele>184.0</ele><time>2022-03-17T16:40:15.421Z</time></trkpt><trkpt lat="43.43388167" lon="13.24641833"><ele>184.0</ele><time>2022-03-17T16:40:16.401Z</time></trkpt><trkpt lat="43.43385333" lon="13.24642833"><ele>184.0</ele><time>2022-03-17T16:40:17.411Z</time></trkpt><trkpt lat="43.43385333" lon="13.24642833"><ele>184.0</ele><time>2022-03-17T16:40:18.417Z</time></trkpt><trkpt lat="43.43380333" lon="13.246445"><ele>183.0</ele><time>2022-03-17T16:40:19.435Z</time></trkpt><trkpt lat="43.43377667" lon="13.24645667"><ele>183.0</ele><time>2022-03-17T16:40:20.421Z</time></trkpt><trkpt lat="43.43377667" lon="13.24645667"><ele>183.0</ele><time>2022-03-17T16:40:21.428Z</time></trkpt><trkpt lat="43.43373" lon="13.24646667"><ele>183.0</ele><time>2022-03-17T16:40:22.418Z</time></trkpt><trkpt lat="43.43370667" lon="13.24646833"><ele>183.0</ele><time>2022-03-17T16:40:23.408Z</time></trkpt><trkpt lat="43.43370667" lon="13.24646833"><ele>183.0</ele><time>2022-03-17T16:40:24.416Z</time></trkpt><trkpt lat="43.43365167" lon="13.24646167"><ele>183.0</ele><time>2022-03-17T16:40:25.415Z</time></trkpt><trkpt lat="43.43362667" lon="13.24647167"><ele>183.0</ele><time>2022-03-17T16:40:26.400Z</time></trkpt><trkpt lat="43.43362667" lon="13.24647167"><ele>183.0</ele><time>2022-03-17T16:40:27.406Z</time></trkpt><trkpt lat="43.43358833" lon="13.24649667"><ele>183.0</ele><time>2022-03-17T16:40:28.425Z</time></trkpt><trkpt lat="43.43358833" lon="13.24649667"><ele>183.0</ele><time>2022-03-17T16:40:29.435Z</time></trkpt><trkpt lat="43.43354333" lon="13.24651167"><ele>182.0</ele><time>2022-03-17T16:40:30.402Z</time></trkpt><trkpt lat="43.43354333" lon="13.24651167"><ele>182.0</ele><time>2022-03-17T16:40:31.409Z</time></trkpt><trkpt lat="43.43349833" lon="13.24652667"><ele>182.0</ele><time>2022-03-17T16:40:32.434Z</time></trkpt><trkpt lat="43.43349833" lon="13.24652667"><ele>182.0</ele><time>2022-03-17T16:40:33.400Z</time></trkpt><trkpt lat="43.43345333" lon="13.24654"><ele>182.0</ele><time>2022-03-17T16:40:34.421Z</time></trkpt><trkpt lat="43.43343167" lon="13.24653667"><ele>182.0</ele><time>2022-03-17T16:40:35.401Z</time></trkpt><trkpt lat="43.43343167" lon="13.24653667"><ele>182.0</ele><time>2022-03-17T16:40:36.408Z</time></trkpt><trkpt lat="43.433385" lon="13.24654167"><ele>182.0</ele><time>2022-03-17T16:40:37.429Z</time></trkpt><trkpt lat="43.43336333" lon="13.24655"><ele>181.0</ele><time>2022-03-17T16:40:38.406Z</time></trkpt><trkpt lat="43.43336333" lon="13.24655"><ele>181.0</ele><time>2022-03-17T16:40:39.412Z</time></trkpt><trkpt lat="43.43332333" lon="13.24657"><ele>181.0</ele><time>2022-03-17T16:40:40.409Z</time></trkpt><trkpt lat="43.43330333" lon="13.24657167"><ele>181.0</ele><time>2022-03-17T16:40:41.433Z</time></trkpt><trkpt lat="43.43330333" lon="13.24657167"><ele>181.0</ele><time>2022-03-17T16:40:42.399Z</time></trkpt><trkpt lat="43.43326333" lon="13.24658667"><ele>181.0</ele><time>2022-03-17T16:40:43.424Z</time></trkpt><trkpt lat="43.43324833" lon="13.24660167"><ele>181.0</ele><time>2022-03-17T16:40:44.432Z</time></trkpt><trkpt lat="43.43324833" lon="13.24660167"><ele>181.0</ele><time>2022-03-17T16:40:45.399Z</time></trkpt><trkpt lat="43.43322333" lon="13.24663833"><ele>181.0</ele><time>2022-03-17T16:40:46.423Z</time></trkpt><trkpt lat="43.43322333" lon="13.24663833"><ele>181.0</ele><time>2022-03-17T16:40:47.429Z</time></trkpt><trkpt lat="43.43318167" lon="13.246665"><ele>181.0</ele><time>2022-03-17T16:40:48.414Z</time></trkpt><trkpt lat="43.43318167" lon="13.246665"><ele>181.0</ele><time>2022-03-17T16:40:49.421Z</time></trkpt><trkpt lat="43.433135" lon="13.24667833"><ele>181.0</ele><time>2022-03-17T16:40:50.407Z</time></trkpt><trkpt lat="43.433135" lon="13.24667833"><ele>181.0</ele><time>2022-03-17T16:40:51.413Z</time></trkpt><trkpt lat="43.43309833" lon="13.24670167"><ele>181.0</ele><time>2022-03-17T16:40:52.429Z</time></trkpt><trkpt lat="43.43307333" lon="13.24670333"><ele>180.0</ele><time>2022-03-17T16:40:53.399Z</time></trkpt><trkpt lat="43.43307333" lon="13.24670333"><ele>180.0</ele><time>2022-03-17T16:40:54.405Z</time></trkpt><trkpt lat="43.43302667" lon="13.246715"><ele>180.0</ele><time>2022-03-17T16:40:55.423Z</time></trkpt><trkpt lat="43.43302667" lon="13.246715"><ele>180.0</ele><time>2022-03-17T16:40:56.430Z</time></trkpt><trkpt lat="43.432985" lon="13.246735"><ele>180.0</ele><time>2022-03-17T16:40:57.413Z</time></trkpt><trkpt lat="43.432985" lon="13.246735"><ele>180.0</ele><time>2022-03-17T16:40:58.419Z</time></trkpt><trkpt lat="43.43294" lon="13.24674833"><ele>180.0</ele><time>2022-03-17T16:40:59.407Z</time></trkpt><trkpt lat="43.43291833" lon="13.24675333"><ele>180.0</ele><time>2022-03-17T16:41:00.437Z</time></trkpt><trkpt lat="43.43291833" lon="13.24675333"><ele>180.0</ele><time>2022-03-17T16:41:01.403Z</time></trkpt><trkpt lat="43.432885" lon="13.24675833"><ele>180.0</ele><time>2022-03-17T16:41:02.414Z</time></trkpt><trkpt lat="43.432885" lon="13.24675833"><ele>180.0</ele><time>2022-03-17T16:41:03.421Z</time></trkpt><trkpt lat="43.432845" lon="13.24675667"><ele>180.0</ele><time>2022-03-17T16:41:04.407Z</time></trkpt><trkpt lat="43.432845" lon="13.24675667"><ele>180.0</ele><time>2022-03-17T16:41:05.416Z</time></trkpt><trkpt lat="43.43280667" lon="13.24675167"><ele>180.0</ele><time>2022-03-17T16:41:06.400Z</time></trkpt><trkpt lat="43.43278667" lon="13.24674667"><ele>180.0</ele><time>2022-03-17T16:41:07.417Z</time></trkpt><trkpt lat="43.43276667" lon="13.24674"><ele>180.0</ele><time>2022-03-17T16:41:08.409Z</time></trkpt><trkpt lat="43.43276667" lon="13.24674"><ele>180.0</ele><time>2022-03-17T16:41:09.417Z</time></trkpt><trkpt lat="43.43272333" lon="13.24673167"><ele>180.0</ele><time>2022-03-17T16:41:10.402Z</time></trkpt><trkpt lat="43.43272333" lon="13.24673167"><ele>180.0</ele><time>2022-03-17T16:41:11.409Z</time></trkpt><trkpt lat="43.43268333" lon="13.246725"><ele>180.0</ele><time>2022-03-17T16:41:12.436Z</time></trkpt><trkpt lat="43.43268333" lon="13.246725"><ele>180.0</ele><time>2022-03-17T16:41:13.402Z</time></trkpt><trkpt lat="43.43264" lon="13.24672"><ele>180.0</ele><time>2022-03-17T16:41:14.416Z</time></trkpt><trkpt lat="43.43264" lon="13.24672"><ele>180.0</ele><time>2022-03-17T16:41:15.423Z</time></trkpt><trkpt lat="43.43260333" lon="13.246705"><ele>181.0</ele><time>2022-03-17T16:41:16.411Z</time></trkpt><trkpt lat="43.43260333" lon="13.246705"><ele>181.0</ele><time>2022-03-17T16:41:17.406Z</time></trkpt><trkpt lat="43.432565" lon="13.24668667"><ele>181.0</ele><time>2022-03-17T16:41:18.422Z</time></trkpt><trkpt lat="43.432565" lon="13.24668667"><ele>181.0</ele><time>2022-03-17T16:41:19.428Z</time></trkpt><trkpt lat="43.43252333" lon="13.24667167"><ele>181.0</ele><time>2022-03-17T16:41:20.433Z</time></trkpt><trkpt lat="43.43252333" lon="13.24667167"><ele>181.0</ele><time>2022-03-17T16:41:21.399Z</time></trkpt><trkpt lat="43.43247667" lon="13.24665167"><ele>181.0</ele><time>2022-03-17T16:41:22.420Z</time></trkpt><trkpt lat="43.432455" lon="13.24664667"><ele>181.0</ele><time>2022-03-17T16:41:23.433Z</time></trkpt><trkpt lat="43.432455" lon="13.24664667"><ele>181.0</ele><time>2022-03-17T16:41:24.399Z</time></trkpt><trkpt lat="43.43242167" lon="13.24662333"><ele>181.0</ele><time>2022-03-17T16:41:25.421Z</time></trkpt><trkpt lat="43.43241" lon="13.24661"><ele>181.0</ele><time>2022-03-17T16:41:26.404Z</time></trkpt><trkpt lat="43.43241" lon="13.24661"><ele>181.0</ele><time>2022-03-17T16:41:27.410Z</time></trkpt><trkpt lat="43.432385" lon="13.24657667"><ele>182.0</ele><time>2022-03-17T16:41:28.404Z</time></trkpt><trkpt lat="43.43237167" lon="13.24656"><ele>182.0</ele><time>2022-03-17T16:41:29.429Z</time></trkpt><trkpt lat="43.43237167" lon="13.24656"><ele>182.0</ele><time>2022-03-17T16:41:30.437Z</time></trkpt><trkpt lat="43.43233667" lon="13.24652667"><ele>182.0</ele><time>2022-03-17T16:41:31.406Z</time></trkpt><trkpt lat="43.432325" lon="13.24651"><ele>182.0</ele><time>2022-03-17T16:41:32.401Z</time></trkpt><trkpt lat="43.432325" lon="13.24651"><ele>182.0</ele><time>2022-03-17T16:41:33.407Z</time></trkpt><trkpt lat="43.43230667" lon="13.24649167"><ele>183.0</ele><time>2022-03-17T16:41:34.431Z</time></trkpt><trkpt lat="43.43229333" lon="13.24648167"><ele>183.0</ele><time>2022-03-17T16:41:35.413Z</time></trkpt><trkpt lat="43.43227667" lon="13.24647"><ele>183.0</ele><time>2022-03-17T16:41:36.430Z</time></trkpt><trkpt lat="43.43227667" lon="13.24647"><ele>183.0</ele><time>2022-03-17T16:41:37.438Z</time></trkpt><trkpt lat="43.432235" lon="13.24644"><ele>183.0</ele><time>2022-03-17T16:41:38.425Z</time></trkpt><trkpt lat="43.432235" lon="13.24644"><ele>183.0</ele><time>2022-03-17T16:41:39.434Z</time></trkpt><trkpt lat="43.43218667" lon="13.24641167"><ele>184.0</ele><time>2022-03-17T16:41:40.423Z</time></trkpt><trkpt lat="43.43216167" lon="13.24639667"><ele>184.0</ele><time>2022-03-17T16:42:24.904Z</time></trkpt><trkpt lat="43.43216167" lon="13.24639667"><ele>184.0</ele><time>2022-03-17T16:42:25.911Z</time></trkpt><trkpt lat="43.432115" lon="13.24636"><ele>184.0</ele><time>2022-03-17T16:42:26.940Z</time></trkpt><trkpt lat="43.43209667" lon="13.24634833"><ele>184.0</ele><time>2022-03-17T16:42:27.928Z</time></trkpt><trkpt lat="43.43209667" lon="13.24634833"><ele>184.0</ele><time>2022-03-17T16:42:28.935Z</time></trkpt><trkpt lat="43.43206167" lon="13.24632167"><ele>185.0</ele><time>2022-03-17T16:42:29.910Z</time></trkpt><trkpt lat="43.43204833" lon="13.24631333"><ele>185.0</ele><time>2022-03-17T16:42:30.933Z</time></trkpt><trkpt lat="43.43204833" lon="13.24631333"><ele>185.0</ele><time>2022-03-17T16:42:31.940Z</time></trkpt><trkpt lat="43.43201667" lon="13.24630167"><ele>185.0</ele><time>2022-03-17T16:42:32.914Z</time></trkpt><trkpt lat="43.432" lon="13.246285"><ele>185.0</ele><time>2022-03-17T16:42:33.918Z</time></trkpt><trkpt lat="43.432" lon="13.246285"><ele>185.0</ele><time>2022-03-17T16:42:34.924Z</time></trkpt><trkpt lat="43.43197" lon="13.24626833"><ele>186.0</ele><time>2022-03-17T16:42:35.906Z</time></trkpt><trkpt lat="43.43196667" lon="13.24626167"><ele>186.0</ele><time>2022-03-17T16:42:36.928Z</time></trkpt><trkpt lat="43.43196667" lon="13.24626167"><ele>186.0</ele><time>2022-03-17T16:42:37.939Z</time></trkpt><trkpt lat="43.43196" lon="13.24626333"><ele>187.0</ele><time>2022-03-17T16:42:38.931Z</time></trkpt><trkpt lat="43.431955" lon="13.24627167"><ele>187.0</ele><time>2022-03-17T16:42:39.919Z</time></trkpt><trkpt lat="43.431955" lon="13.24627167"><ele>187.0</ele><time>2022-03-17T16:42:40.939Z</time></trkpt><trkpt lat="43.43200333" lon="13.24628833"><ele>191.0</ele><time>2022-03-17T16:42:41.938Z</time></trkpt><trkpt lat="43.43200333" lon="13.24628833"><ele>191.0</ele><time>2022-03-17T16:42:42.928Z</time></trkpt><trkpt lat="43.43203667" lon="13.24629333"><ele>191.0</ele><time>2022-03-17T16:42:43.923Z</time></trkpt><trkpt lat="43.43203667" lon="13.24629333"><ele>191.0</ele><time>2022-03-17T16:42:44.920Z</time></trkpt><trkpt lat="43.43206667" lon="13.24631167"><ele>191.0</ele><time>2022-03-17T16:42:45.905Z</time></trkpt><trkpt lat="43.43206667" lon="13.24631167"><ele>191.0</ele><time>2022-03-17T16:42:46.911Z</time></trkpt><trkpt lat="43.43209833" lon="13.24634167"><ele>191.0</ele><time>2022-03-17T16:42:47.935Z</time></trkpt><trkpt lat="43.43209833" lon="13.24634167"><ele>191.0</ele><time>2022-03-17T16:42:48.940Z</time></trkpt><trkpt lat="43.432135" lon="13.24637333"><ele>191.0</ele><time>2022-03-17T16:42:49.935Z</time></trkpt><trkpt lat="43.43215333" lon="13.24638833"><ele>191.0</ele><time>2022-03-17T16:42:50.919Z</time></trkpt><trkpt lat="43.43217333" lon="13.24640333"><ele>191.0</ele><time>2022-03-17T16:42:51.941Z</time></trkpt><trkpt lat="43.43217333" lon="13.24640333"><ele>191.0</ele><time>2022-03-17T16:42:52.907Z</time></trkpt><trkpt lat="43.43220833" lon="13.24642833"><ele>191.0</ele><time>2022-03-17T16:42:53.913Z</time></trkpt><trkpt lat="43.43220833" lon="13.24642833"><ele>191.0</ele><time>2022-03-17T16:42:54.919Z</time></trkpt><trkpt lat="43.432245" lon="13.24644667"><ele>191.0</ele><time>2022-03-17T16:42:55.907Z</time></trkpt><trkpt lat="43.432245" lon="13.24644667"><ele>191.0</ele><time>2022-03-17T16:42:56.913Z</time></trkpt><trkpt lat="43.43228333" lon="13.246475"><ele>191.0</ele><time>2022-03-17T16:42:57.934Z</time></trkpt><trkpt lat="43.43228333" lon="13.246475"><ele>191.0</ele><time>2022-03-17T16:42:58.940Z</time></trkpt><trkpt lat="43.43232" lon="13.24650667"><ele>191.0</ele><time>2022-03-17T16:42:59.927Z</time></trkpt><trkpt lat="43.432335" lon="13.24652333"><ele>191.0</ele><time>2022-03-17T16:43:00.906Z</time></trkpt><trkpt lat="43.43235" lon="13.24655"><ele>191.0</ele><time>2022-03-17T16:43:01.929Z</time></trkpt><trkpt lat="43.43235" lon="13.24655"><ele>191.0</ele><time>2022-03-17T16:43:02.935Z</time></trkpt><trkpt lat="43.43238" lon="13.246585"><ele>190.0</ele><time>2022-03-17T16:43:03.914Z</time></trkpt><trkpt lat="43.43240667" lon="13.24660333"><ele>190.0</ele><time>2022-03-17T16:43:04.939Z</time></trkpt><trkpt lat="43.43240667" lon="13.24660333"><ele>190.0</ele><time>2022-03-17T16:43:05.905Z</time></trkpt><trkpt lat="43.43246" lon="13.246635"><ele>190.0</ele><time>2022-03-17T16:43:06.932Z</time></trkpt><trkpt lat="43.43249" lon="13.24664667"><ele>189.0</ele><time>2022-03-17T16:43:07.913Z</time></trkpt><trkpt lat="43.43249" lon="13.24664667"><ele>189.0</ele><time>2022-03-17T16:43:08.924Z</time></trkpt><trkpt lat="43.43255333" lon="13.24666167"><ele>189.0</ele><time>2022-03-17T16:43:09.906Z</time></trkpt><trkpt lat="43.432585" lon="13.24666667"><ele>189.0</ele><time>2022-03-17T16:43:10.927Z</time></trkpt><trkpt lat="43.432585" lon="13.24666667"><ele>189.0</ele><time>2022-03-17T16:43:11.934Z</time></trkpt><trkpt lat="43.43264333" lon="13.24667667"><ele>189.0</ele><time>2022-03-17T16:43:12.919Z</time></trkpt><trkpt lat="43.43264333" lon="13.24667667"><ele>189.0</ele><time>2022-03-17T16:43:13.912Z</time></trkpt><trkpt lat="43.43268667" lon="13.246705"><ele>189.0</ele><time>2022-03-17T16:43:14.929Z</time></trkpt><trkpt lat="43.43270667" lon="13.24671"><ele>189.0</ele><time>2022-03-17T16:43:15.917Z</time></trkpt><trkpt lat="43.43270667" lon="13.24671"><ele>189.0</ele><time>2022-03-17T16:43:16.925Z</time></trkpt><trkpt lat="43.43276167" lon="13.24672167"><ele>189.0</ele><time>2022-03-17T16:43:17.910Z</time></trkpt><trkpt lat="43.43279333" lon="13.24672333"><ele>189.0</ele><time>2022-03-17T16:43:18.930Z</time></trkpt><trkpt lat="43.43279333" lon="13.24672333"><ele>189.0</ele><time>2022-03-17T16:43:19.936Z</time></trkpt><trkpt lat="43.43285333" lon="13.24673"><ele>189.0</ele><time>2022-03-17T16:43:20.922Z</time></trkpt><trkpt lat="43.43285333" lon="13.24673"><ele>189.0</ele><time>2022-03-17T16:43:21.928Z</time></trkpt><trkpt lat="43.43290833" lon="13.24672833"><ele>189.0</ele><time>2022-03-17T16:43:22.908Z</time></trkpt><trkpt lat="43.43290833" lon="13.24672833"><ele>189.0</ele><time>2022-03-17T16:43:23.913Z</time></trkpt><trkpt lat="43.43296667" lon="13.24671667"><ele>190.0</ele><time>2022-03-17T16:43:24.938Z</time></trkpt><trkpt lat="43.43296667" lon="13.24671667"><ele>190.0</ele><time>2022-03-17T16:43:25.904Z</time></trkpt><trkpt lat="43.43302" lon="13.24670167"><ele>190.0</ele><time>2022-03-17T16:43:26.930Z</time></trkpt><trkpt lat="43.43304667" lon="13.2467"><ele>190.0</ele><time>2022-03-17T16:43:27.910Z</time></trkpt><trkpt lat="43.43307" lon="13.2467"><ele>190.0</ele><time>2022-03-17T16:43:28.927Z</time></trkpt><trkpt lat="43.43307" lon="13.2467"><ele>190.0</ele><time>2022-03-17T16:43:29.941Z</time></trkpt><trkpt lat="43.43311167" lon="13.246695"><ele>190.0</ele><time>2022-03-17T16:43:30.925Z</time></trkpt><trkpt lat="43.43311167" lon="13.246695"><ele>190.0</ele><time>2022-03-17T16:43:31.931Z</time></trkpt><trkpt lat="43.43314833" lon="13.24668333"><ele>189.0</ele><time>2022-03-17T16:43:32.918Z</time></trkpt><trkpt lat="43.43314833" lon="13.24668333"><ele>189.0</ele><time>2022-03-17T16:43:33.938Z</time></trkpt><trkpt lat="43.43319" lon="13.246665"><ele>189.0</ele><time>2022-03-17T16:43:34.910Z</time></trkpt><trkpt lat="43.43319" lon="13.246665"><ele>189.0</ele><time>2022-03-17T16:43:35.916Z</time></trkpt><trkpt lat="43.43323167" lon="13.24664333"><ele>190.0</ele><time>2022-03-17T16:43:36.939Z</time></trkpt><trkpt lat="43.43323167" lon="13.24664333"><ele>190.0</ele><time>2022-03-17T16:43:37.906Z</time></trkpt><trkpt lat="43.43327333" lon="13.24661"><ele>191.0</ele><time>2022-03-17T16:43:38.929Z</time></trkpt><trkpt lat="43.433295" lon="13.24659333"><ele>191.0</ele><time>2022-03-17T16:43:39.916Z</time></trkpt><trkpt lat="43.433295" lon="13.24659333"><ele>191.0</ele><time>2022-03-17T16:43:40.922Z</time></trkpt><trkpt lat="43.43334333" lon="13.24656333"><ele>192.0</ele><time>2022-03-17T16:43:41.926Z</time></trkpt><trkpt lat="43.43336833" lon="13.24655333"><ele>192.0</ele><time>2022-03-17T16:43:42.940Z</time></trkpt><trkpt lat="43.43336833" lon="13.24655333"><ele>192.0</ele><time>2022-03-17T16:43:43.907Z</time></trkpt><trkpt lat="43.43342333" lon="13.24653333"><ele>192.0</ele><time>2022-03-17T16:43:44.928Z</time></trkpt><trkpt lat="43.43342333" lon="13.24653333"><ele>192.0</ele><time>2022-03-17T16:43:45.935Z</time></trkpt><trkpt lat="43.433485" lon="13.24651667"><ele>192.0</ele><time>2022-03-17T16:43:46.914Z</time></trkpt><trkpt lat="43.433485" lon="13.24651667"><ele>192.0</ele><time>2022-03-17T16:43:47.926Z</time></trkpt><trkpt lat="43.43353333" lon="13.24649667"><ele>192.0</ele><time>2022-03-17T16:43:48.907Z</time></trkpt><trkpt lat="43.43353333" lon="13.24649667"><ele>192.0</ele><time>2022-03-17T16:43:49.922Z</time></trkpt><trkpt lat="43.433575" lon="13.24648333"><ele>193.0</ele><time>2022-03-17T16:43:50.941Z</time></trkpt><trkpt lat="43.433575" lon="13.24648333"><ele>193.0</ele><time>2022-03-17T16:43:51.907Z</time></trkpt><trkpt lat="43.43360667" lon="13.24647"><ele>193.0</ele><time>2022-03-17T16:43:52.933Z</time></trkpt><trkpt lat="43.43360667" lon="13.24647"><ele>193.0</ele><time>2022-03-17T16:43:53.903Z</time></trkpt><trkpt lat="43.43365333" lon="13.24647"><ele>193.0</ele><time>2022-03-17T16:43:54.923Z</time></trkpt><trkpt lat="43.43368" lon="13.246475"><ele>193.0</ele><time>2022-03-17T16:43:55.916Z</time></trkpt><trkpt lat="43.43368" lon="13.246475"><ele>193.0</ele><time>2022-03-17T16:43:56.927Z</time></trkpt><trkpt lat="43.433735" lon="13.24647167"><ele>194.0</ele><time>2022-03-17T16:43:57.912Z</time></trkpt><trkpt lat="43.433735" lon="13.24647167"><ele>194.0</ele><time>2022-03-17T16:43:58.920Z</time></trkpt><trkpt lat="43.43379167" lon="13.24644833"><ele>195.0</ele><time>2022-03-17T16:43:59.936Z</time></trkpt><trkpt lat="43.43379167" lon="13.24644833"><ele>195.0</ele><time>2022-03-17T16:44:00.903Z</time></trkpt><trkpt lat="43.43384333" lon="13.24642667"><ele>195.0</ele><time>2022-03-17T16:44:01.924Z</time></trkpt><trkpt lat="43.43384333" lon="13.24642667"><ele>195.0</ele><time>2022-03-17T16:44:02.931Z</time></trkpt><trkpt lat="43.433895" lon="13.24642"><ele>196.0</ele><time>2022-03-17T16:44:03.918Z</time></trkpt><trkpt lat="43.433895" lon="13.24642"><ele>196.0</ele><time>2022-03-17T16:44:04.904Z</time></trkpt><trkpt lat="43.43395" lon="13.24641667"><ele>197.0</ele><time>2022-03-17T16:44:05.920Z</time></trkpt><trkpt lat="43.43397667" lon="13.24641"><ele>197.0</ele><time>2022-03-17T16:44:06.909Z</time></trkpt><trkpt lat="43.43397667" lon="13.24641"><ele>197.0</ele><time>2022-03-17T16:44:07.915Z</time></trkpt><trkpt lat="43.43403167" lon="13.24638667"><ele>199.0</ele><time>2022-03-17T16:44:08.907Z</time></trkpt><trkpt lat="43.43406167" lon="13.24637"><ele>199.0</ele><time>2022-03-17T16:44:09.932Z</time></trkpt><trkpt lat="43.43406167" lon="13.24637"><ele>199.0</ele><time>2022-03-17T16:44:10.938Z</time></trkpt><trkpt lat="43.434115" lon="13.24634"><ele>200.0</ele><time>2022-03-17T16:44:11.922Z</time></trkpt><trkpt lat="43.43414167" lon="13.24632667"><ele>201.0</ele><time>2022-03-17T16:44:12.917Z</time></trkpt><trkpt lat="43.43414167" lon="13.24632667"><ele>201.0</ele><time>2022-03-17T16:44:13.924Z</time></trkpt><trkpt lat="43.43420333" lon="13.246295"><ele>200.0</ele><time>2022-03-17T16:44:14.906Z</time></trkpt><trkpt lat="43.43424333" lon="13.24627"><ele>200.0</ele><time>2022-03-17T16:44:15.922Z</time></trkpt><trkpt lat="43.43424333" lon="13.24627"><ele>200.0</ele><time>2022-03-17T16:44:16.928Z</time></trkpt><trkpt lat="43.434305" lon="13.24622167"><ele>200.0</ele><time>2022-03-17T16:44:17.910Z</time></trkpt><trkpt lat="43.43433167" lon="13.24619167"><ele>200.0</ele><time>2022-03-17T16:44:18.935Z</time></trkpt><trkpt lat="43.43433167" lon="13.24619167"><ele>200.0</ele><time>2022-03-17T16:44:19.941Z</time></trkpt><trkpt lat="43.43438667" lon="13.246155"><ele>200.0</ele><time>2022-03-17T16:44:20.922Z</time></trkpt><trkpt lat="43.43438667" lon="13.246155"><ele>200.0</ele><time>2022-03-17T16:44:21.929Z</time></trkpt><trkpt lat="43.43444833" lon="13.24612667"><ele>200.0</ele><time>2022-03-17T16:44:22.909Z</time></trkpt><trkpt lat="43.43447833" lon="13.24611"><ele>200.0</ele><time>2022-03-17T16:44:23.938Z</time></trkpt><trkpt lat="43.43447833" lon="13.24611"><ele>200.0</ele><time>2022-03-17T16:44:24.904Z</time></trkpt><trkpt lat="43.43453667" lon="13.246085"><ele>201.0</ele><time>2022-03-17T16:44:25.921Z</time></trkpt><trkpt lat="43.434565" lon="13.24607167"><ele>201.0</ele><time>2022-03-17T16:44:26.912Z</time></trkpt><trkpt lat="43.434565" lon="13.24607167"><ele>201.0</ele><time>2022-03-17T16:44:27.918Z</time></trkpt><trkpt lat="43.43462333" lon="13.24604333"><ele>201.0</ele><time>2022-03-17T16:44:28.910Z</time></trkpt><trkpt lat="43.43462333" lon="13.24604333"><ele>201.0</ele><time>2022-03-17T16:44:29.917Z</time></trkpt><trkpt lat="43.43468333" lon="13.246005"><ele>201.0</ele><time>2022-03-17T16:44:30.904Z</time></trkpt><trkpt lat="43.43468333" lon="13.246005"><ele>201.0</ele><time>2022-03-17T16:44:31.911Z</time></trkpt><trkpt lat="43.43474333" lon="13.24597333"><ele>202.0</ele><time>2022-03-17T16:44:32.929Z</time></trkpt><trkpt lat="43.43477167" lon="13.24595167"><ele>202.0</ele><time>2022-03-17T16:44:33.911Z</time></trkpt><trkpt lat="43.43477167" lon="13.24595167"><ele>202.0</ele><time>2022-03-17T16:44:34.918Z</time></trkpt><trkpt lat="43.434825" lon="13.24590833"><ele>202.0</ele><time>2022-03-17T16:44:35.936Z</time></trkpt><trkpt lat="43.434825" lon="13.24590833"><ele>202.0</ele><time>2022-03-17T16:44:36.942Z</time></trkpt><trkpt lat="43.43487667" lon="13.245865"><ele>203.0</ele><time>2022-03-17T16:44:37.924Z</time></trkpt><trkpt lat="43.43490333" lon="13.24584"><ele>203.0</ele><time>2022-03-17T16:44:38.930Z</time></trkpt><trkpt lat="43.43490333" lon="13.24584"><ele>203.0</ele><time>2022-03-17T16:44:39.936Z</time></trkpt><trkpt lat="43.43495833" lon="13.24580167"><ele>203.0</ele><time>2022-03-17T16:44:40.932Z</time></trkpt><trkpt lat="43.43495833" lon="13.24580167"><ele>203.0</ele><time>2022-03-17T16:44:41.938Z</time></trkpt><trkpt lat="43.435025" lon="13.245765"><ele>204.0</ele><time>2022-03-17T16:44:42.919Z</time></trkpt><trkpt lat="43.435025" lon="13.245765"><ele>204.0</ele><time>2022-03-17T16:44:43.927Z</time></trkpt><trkpt lat="43.435095" lon="13.24572167"><ele>204.0</ele><time>2022-03-17T16:44:44.905Z</time></trkpt><trkpt lat="43.43511667" lon="13.24570167"><ele>205.0</ele><time>2022-03-17T16:44:45.904Z</time></trkpt><trkpt lat="43.43511667" lon="13.24570167"><ele>205.0</ele><time>2022-03-17T16:44:46.910Z</time></trkpt><trkpt lat="43.43516167" lon="13.245655"><ele>205.0</ele><time>2022-03-17T16:44:47.906Z</time></trkpt><trkpt lat="43.43516167" lon="13.245655"><ele>205.0</ele><time>2022-03-17T16:44:48.919Z</time></trkpt><trkpt lat="43.43521167" lon="13.245605"><ele>206.0</ele><time>2022-03-17T16:44:49.911Z</time></trkpt><trkpt lat="43.43523333" lon="13.24558167"><ele>206.0</ele><time>2022-03-17T16:44:50.928Z</time></trkpt><trkpt lat="43.43526167" lon="13.245555"><ele>207.0</ele><time>2022-03-17T16:44:51.913Z</time></trkpt><trkpt lat="43.43526167" lon="13.245555"><ele>207.0</ele><time>2022-03-17T16:44:52.919Z</time></trkpt><trkpt lat="43.43531" lon="13.24551"><ele>207.0</ele><time>2022-03-17T16:44:53.915Z</time></trkpt><trkpt lat="43.43532" lon="13.24548167"><ele>207.0</ele><time>2022-03-17T16:44:54.935Z</time></trkpt><trkpt lat="43.43531833" lon="13.24546167"><ele>207.0</ele><time>2022-03-17T16:44:55.912Z</time></trkpt><trkpt lat="43.43531833" lon="13.24546167"><ele>207.0</ele><time>2022-03-17T16:44:56.919Z</time></trkpt><trkpt lat="43.435295" lon="13.24543333"><ele>207.0</ele><time>2022-03-17T16:44:57.904Z</time></trkpt><trkpt lat="43.435295" lon="13.24543333"><ele>207.0</ele><time>2022-03-17T16:44:58.910Z</time></trkpt><trkpt lat="43.43526" lon="13.245435"><ele>208.0</ele><time>2022-03-17T16:44:59.923Z</time></trkpt><trkpt lat="43.43524" lon="13.24544833"><ele>208.0</ele><time>2022-03-17T16:45:00.916Z</time></trkpt><trkpt lat="43.435225" lon="13.245455"><ele>208.0</ele><time>2022-03-17T16:45:01.937Z</time></trkpt><trkpt lat="43.435225" lon="13.245455"><ele>208.0</ele><time>2022-03-17T16:45:02.903Z</time></trkpt><trkpt lat="43.43519" lon="13.24546833"><ele>208.0</ele><time>2022-03-17T16:45:03.924Z</time></trkpt><trkpt lat="43.43519" lon="13.24546833"><ele>208.0</ele><time>2022-03-17T16:45:04.930Z</time></trkpt><trkpt lat="43.435165" lon="13.245465"><ele>207.0</ele><time>2022-03-17T16:45:05.919Z</time></trkpt><trkpt lat="43.435165" lon="13.245465"><ele>207.0</ele><time>2022-03-17T16:45:06.926Z</time></trkpt><trkpt lat="43.43513833" lon="13.245465"><ele>206.0</ele><time>2022-03-17T16:45:07.913Z</time></trkpt><trkpt lat="43.43513833" lon="13.245465"><ele>206.0</ele><time>2022-03-17T16:45:08.919Z</time></trkpt><trkpt lat="43.43512" lon="13.24545333"><ele>204.0</ele><time>2022-03-17T16:45:09.906Z</time></trkpt><trkpt lat="43.43511" lon="13.245445"><ele>204.0</ele><time>2022-03-17T16:45:10.939Z</time></trkpt><trkpt lat="43.43511" lon="13.245445"><ele>204.0</ele><time>2022-03-17T16:45:11.905Z</time></trkpt><trkpt lat="43.43511667" lon="13.24541167"><ele>203.0</ele><time>2022-03-17T16:45:12.926Z</time></trkpt><trkpt lat="43.43511667" lon="13.24541167"><ele>203.0</ele><time>2022-03-17T16:45:13.940Z</time></trkpt><trkpt lat="43.43514333" lon="13.24537833"><ele>202.0</ele><time>2022-03-17T16:45:14.928Z</time></trkpt><trkpt lat="43.43515667" lon="13.24535833"><ele>202.0</ele><time>2022-03-17T16:45:15.941Z</time></trkpt><trkpt lat="43.43515667" lon="13.24535833"><ele>202.0</ele><time>2022-03-17T16:45:16.907Z</time></trkpt><trkpt lat="43.43519667" lon="13.24531333"><ele>202.0</ele><time>2022-03-17T16:45:17.919Z</time></trkpt><trkpt lat="43.43519667" lon="13.24531333"><ele>202.0</ele><time>2022-03-17T16:45:18.928Z</time></trkpt><trkpt lat="43.43523833" lon="13.24527333"><ele>201.0</ele><time>2022-03-17T16:45:19.924Z</time></trkpt><trkpt lat="43.43523833" lon="13.24527333"><ele>201.0</ele><time>2022-03-17T16:45:20.930Z</time></trkpt><trkpt lat="43.43527833" lon="13.245235"><ele>201.0</ele><time>2022-03-17T16:45:21.923Z</time></trkpt><trkpt lat="43.43527833" lon="13.245235"><ele>201.0</ele><time>2022-03-17T16:45:22.929Z</time></trkpt><trkpt lat="43.43532333" lon="13.24519667"><ele>201.0</ele><time>2022-03-17T16:45:23.912Z</time></trkpt><trkpt lat="43.43534833" lon="13.24518"><ele>201.0</ele><time>2022-03-17T16:45:24.909Z</time></trkpt><trkpt lat="43.43534833" lon="13.24518"><ele>201.0</ele><time>2022-03-17T16:45:25.916Z</time></trkpt><trkpt lat="43.43539167" lon="13.24513667"><ele>201.0</ele><time>2022-03-17T16:45:26.935Z</time></trkpt><trkpt lat="43.43541333" lon="13.24511667"><ele>201.0</ele><time>2022-03-17T16:45:27.909Z</time></trkpt><trkpt lat="43.43541333" lon="13.24511667"><ele>201.0</ele><time>2022-03-17T16:45:28.915Z</time></trkpt><trkpt lat="43.43545667" lon="13.24508667"><ele>201.0</ele><time>2022-03-17T16:45:29.927Z</time></trkpt><trkpt lat="43.43545667" lon="13.24508667"><ele>201.0</ele><time>2022-03-17T16:45:30.934Z</time></trkpt><trkpt lat="43.43549667" lon="13.24505167"><ele>201.0</ele><time>2022-03-17T16:45:31.915Z</time></trkpt><trkpt lat="43.43551667" lon="13.24503667"><ele>201.0</ele><time>2022-03-17T16:45:32.934Z</time></trkpt><trkpt lat="43.43553833" lon="13.24502333"><ele>202.0</ele><time>2022-03-17T16:45:33.913Z</time></trkpt><trkpt lat="43.43553833" lon="13.24502333"><ele>202.0</ele><time>2022-03-17T16:45:34.922Z</time></trkpt><trkpt lat="43.43558" lon="13.24499833"><ele>202.0</ele><time>2022-03-17T16:45:35.936Z</time></trkpt><trkpt lat="43.43558" lon="13.24499833"><ele>202.0</ele><time>2022-03-17T16:45:36.942Z</time></trkpt><trkpt lat="43.43561833" lon="13.24495833"><ele>202.0</ele><time>2022-03-17T16:45:37.907Z</time></trkpt><trkpt lat="43.43561833" lon="13.24495833"><ele>202.0</ele><time>2022-03-17T16:45:38.913Z</time></trkpt><trkpt lat="43.43565833" lon="13.24491667"><ele>203.0</ele><time>2022-03-17T16:45:39.933Z</time></trkpt><trkpt lat="43.43565833" lon="13.24491667"><ele>203.0</ele><time>2022-03-17T16:45:40.939Z</time></trkpt><trkpt lat="43.43570333" lon="13.24487"><ele>203.0</ele><time>2022-03-17T16:45:41.928Z</time></trkpt><trkpt lat="43.43570333" lon="13.24487"><ele>203.0</ele><time>2022-03-17T16:45:42.935Z</time></trkpt><trkpt lat="43.43574667" lon="13.24481667"><ele>203.0</ele><time>2022-03-17T16:45:43.931Z</time></trkpt><trkpt lat="43.43576667" lon="13.24478333"><ele>204.0</ele><time>2022-03-17T16:45:44.904Z</time></trkpt><trkpt lat="43.43576667" lon="13.24478333"><ele>204.0</ele><time>2022-03-17T16:45:45.911Z</time></trkpt><trkpt lat="43.43581167" lon="13.24472167"><ele>204.0</ele><time>2022-03-17T16:45:46.925Z</time></trkpt><trkpt lat="43.43581167" lon="13.24472167"><ele>204.0</ele><time>2022-03-17T16:45:47.932Z</time></trkpt><trkpt lat="43.43585333" lon="13.24465667"><ele>204.0</ele><time>2022-03-17T16:45:48.917Z</time></trkpt><trkpt lat="43.43585333" lon="13.24465667"><ele>204.0</ele><time>2022-03-17T16:45:49.934Z</time></trkpt><trkpt lat="43.43589333" lon="13.24459"><ele>204.0</ele><time>2022-03-17T16:45:50.919Z</time></trkpt><trkpt lat="43.43589333" lon="13.24459"><ele>204.0</ele><time>2022-03-17T16:45:51.925Z</time></trkpt><trkpt lat="43.435925" lon="13.24452"><ele>203.0</ele><time>2022-03-17T16:45:52.905Z</time></trkpt><trkpt lat="43.435925" lon="13.24452"><ele>203.0</ele><time>2022-03-17T16:45:53.911Z</time></trkpt><trkpt lat="43.43595833" lon="13.24445167"><ele>203.0</ele><time>2022-03-17T16:45:54.932Z</time></trkpt><trkpt lat="43.43598167" lon="13.24442833"><ele>204.0</ele><time>2022-03-17T16:45:55.933Z</time></trkpt><trkpt lat="43.43598167" lon="13.24442833"><ele>204.0</ele><time>2022-03-17T16:45:56.939Z</time></trkpt><trkpt lat="43.436035" lon="13.24438667"><ele>204.0</ele><time>2022-03-17T16:45:57.917Z</time></trkpt><trkpt lat="43.436035" lon="13.24438667"><ele>204.0</ele><time>2022-03-17T16:45:58.924Z</time></trkpt><trkpt lat="43.43608167" lon="13.244345"><ele>204.0</ele><time>2022-03-17T16:45:59.911Z</time></trkpt><trkpt lat="43.43610667" lon="13.24432667"><ele>205.0</ele><time>2022-03-17T16:46:00.934Z</time></trkpt><trkpt lat="43.43612833" lon="13.24430667"><ele>205.0</ele><time>2022-03-17T16:46:01.918Z</time></trkpt><trkpt lat="43.43612833" lon="13.24430667"><ele>205.0</ele><time>2022-03-17T16:46:02.925Z</time></trkpt><trkpt lat="43.43617333" lon="13.244265"><ele>205.0</ele><time>2022-03-17T16:46:03.904Z</time></trkpt><trkpt lat="43.43617333" lon="13.244265"><ele>205.0</ele><time>2022-03-17T16:46:04.911Z</time></trkpt><trkpt lat="43.43621833" lon="13.24422"><ele>205.0</ele><time>2022-03-17T16:46:05.936Z</time></trkpt><trkpt lat="43.43621833" lon="13.24422"><ele>205.0</ele><time>2022-03-17T16:46:06.903Z</time></trkpt><trkpt lat="43.43626667" lon="13.24417333"><ele>206.0</ele><time>2022-03-17T16:46:07.932Z</time></trkpt><trkpt lat="43.43626667" lon="13.24417333"><ele>206.0</ele><time>2022-03-17T16:46:08.938Z</time></trkpt><trkpt lat="43.43631333" lon="13.24413"><ele>206.0</ele><time>2022-03-17T16:46:09.920Z</time></trkpt><trkpt lat="43.43631333" lon="13.24413"><ele>206.0</ele><time>2022-03-17T16:46:10.931Z</time></trkpt><trkpt lat="43.43636167" lon="13.24409333"><ele>207.0</ele><time>2022-03-17T16:46:11.912Z</time></trkpt><trkpt lat="43.43636167" lon="13.24409333"><ele>207.0</ele><time>2022-03-17T16:46:12.918Z</time></trkpt><trkpt lat="43.43640667" lon="13.24405667"><ele>207.0</ele><time>2022-03-17T16:46:13.907Z</time></trkpt><trkpt lat="43.43640667" lon="13.24405667"><ele>207.0</ele><time>2022-03-17T16:46:14.922Z</time></trkpt><trkpt lat="43.43644333" lon="13.244015"><ele>208.0</ele><time>2022-03-17T16:46:15.906Z</time></trkpt><trkpt lat="43.43644333" lon="13.244015"><ele>208.0</ele><time>2022-03-17T16:46:16.913Z</time></trkpt><trkpt lat="43.43648" lon="13.24397833"><ele>208.0</ele><time>2022-03-17T16:46:17.942Z</time></trkpt><trkpt lat="43.43649667" lon="13.24396167"><ele>208.0</ele><time>2022-03-17T16:46:18.934Z</time></trkpt><trkpt lat="43.43649667" lon="13.24396167"><ele>208.0</ele><time>2022-03-17T16:46:19.940Z</time></trkpt><trkpt lat="43.43653333" lon="13.24392667"><ele>209.0</ele><time>2022-03-17T16:46:20.917Z</time></trkpt><trkpt lat="43.43655333" lon="13.24390667"><ele>209.0</ele><time>2022-03-17T16:46:21.934Z</time></trkpt><trkpt lat="43.43655333" lon="13.24390667"><ele>209.0</ele><time>2022-03-17T16:46:22.940Z</time></trkpt><trkpt lat="43.43658833" lon="13.24386167"><ele>209.0</ele><time>2022-03-17T16:46:23.924Z</time></trkpt><trkpt lat="43.43660833" lon="13.24383833"><ele>209.0</ele><time>2022-03-17T16:46:24.909Z</time></trkpt><trkpt lat="43.43660833" lon="13.24383833"><ele>209.0</ele><time>2022-03-17T16:46:25.915Z</time></trkpt><trkpt lat="43.43665" lon="13.243795"><ele>209.0</ele><time>2022-03-17T16:46:26.906Z</time></trkpt><trkpt lat="43.436675" lon="13.24377333"><ele>209.0</ele><time>2022-03-17T16:46:27.919Z</time></trkpt><trkpt lat="43.436675" lon="13.24377333"><ele>209.0</ele><time>2022-03-17T16:46:28.926Z</time></trkpt><trkpt lat="43.43671333" lon="13.243735"><ele>209.0</ele><time>2022-03-17T16:46:29.906Z</time></trkpt><trkpt lat="43.43671333" lon="13.243735"><ele>209.0</ele><time>2022-03-17T16:46:30.912Z</time></trkpt><trkpt lat="43.43674167" lon="13.24368667"><ele>209.0</ele><time>2022-03-17T16:46:31.936Z</time></trkpt><trkpt lat="43.43674167" lon="13.24368667"><ele>209.0</ele><time>2022-03-17T16:46:32.903Z</time></trkpt><trkpt lat="43.43677" lon="13.24364167"><ele>209.0</ele><time>2022-03-17T16:46:33.921Z</time></trkpt><trkpt lat="43.43678667" lon="13.24361833"><ele>209.0</ele><time>2022-03-17T16:46:34.911Z</time></trkpt><trkpt lat="43.43678667" lon="13.24361833"><ele>209.0</ele><time>2022-03-17T16:46:35.917Z</time></trkpt><trkpt lat="43.43681667" lon="13.24358333"><ele>209.0</ele><time>2022-03-17T16:46:36.935Z</time></trkpt><trkpt lat="43.43681667" lon="13.24358333"><ele>209.0</ele><time>2022-03-17T16:46:37.941Z</time></trkpt><trkpt lat="43.43684667" lon="13.243535"><ele>209.0</ele><time>2022-03-17T16:46:38.919Z</time></trkpt><trkpt lat="43.43684667" lon="13.243535"><ele>209.0</ele><time>2022-03-17T16:46:39.928Z</time></trkpt><trkpt lat="43.43688167" lon="13.24348833"><ele>208.0</ele><time>2022-03-17T16:46:40.912Z</time></trkpt><trkpt lat="43.4369" lon="13.24346667"><ele>209.0</ele><time>2022-03-17T16:46:41.932Z</time></trkpt><trkpt lat="43.4369" lon="13.24346667"><ele>209.0</ele><time>2022-03-17T16:46:42.938Z</time></trkpt><trkpt lat="43.43692833" lon="13.24341667"><ele>209.0</ele><time>2022-03-17T16:46:43.926Z</time></trkpt><trkpt lat="43.43692833" lon="13.24341667"><ele>209.0</ele><time>2022-03-17T16:46:44.933Z</time></trkpt><trkpt lat="43.43696" lon="13.24337667"><ele>209.0</ele><time>2022-03-17T16:46:45.915Z</time></trkpt><trkpt lat="43.43696" lon="13.24337667"><ele>209.0</ele><time>2022-03-17T16:46:46.922Z</time></trkpt><trkpt lat="43.43699833" lon="13.24333833"><ele>209.0</ele><time>2022-03-17T16:46:47.913Z</time></trkpt><trkpt lat="43.43699833" lon="13.24333833"><ele>209.0</ele><time>2022-03-17T16:46:48.918Z</time></trkpt><trkpt lat="43.437035" lon="13.24331833"><ele>210.0</ele><time>2022-03-17T16:46:49.917Z</time></trkpt><trkpt lat="43.43705667" lon="13.24331167"><ele>210.0</ele><time>2022-03-17T16:46:50.903Z</time></trkpt><trkpt lat="43.43707667" lon="13.24330333"><ele>210.0</ele><time>2022-03-17T16:46:51.915Z</time></trkpt><trkpt lat="43.43707667" lon="13.24330333"><ele>210.0</ele><time>2022-03-17T16:46:52.926Z</time></trkpt><trkpt lat="43.43711333" lon="13.24328333"><ele>210.0</ele><time>2022-03-17T16:46:53.913Z</time></trkpt><trkpt lat="43.437135" lon="13.24328"><ele>211.0</ele><time>2022-03-17T16:46:54.939Z</time></trkpt><trkpt lat="43.437155" lon="13.24328"><ele>211.0</ele><time>2022-03-17T16:46:55.914Z</time></trkpt><trkpt lat="43.437155" lon="13.24328"><ele>211.0</ele><time>2022-03-17T16:46:56.920Z</time></trkpt><trkpt lat="43.437185" lon="13.24328"><ele>212.0</ele><time>2022-03-17T16:46:57.941Z</time></trkpt><trkpt lat="43.43721" lon="13.24328667"><ele>212.0</ele><time>2022-03-17T16:46:58.924Z</time></trkpt><trkpt lat="43.43721" lon="13.24328667"><ele>212.0</ele><time>2022-03-17T16:46:59.930Z</time></trkpt><trkpt lat="43.43724667" lon="13.24328833"><ele>213.0</ele><time>2022-03-17T16:47:00.910Z</time></trkpt><trkpt lat="43.43726667" lon="13.24329167"><ele>214.0</ele><time>2022-03-17T16:47:01.927Z</time></trkpt><trkpt lat="43.43726667" lon="13.24329167"><ele>214.0</ele><time>2022-03-17T16:47:02.934Z</time></trkpt><trkpt lat="43.4373" lon="13.24328333"><ele>215.0</ele><time>2022-03-17T16:47:03.910Z</time></trkpt><trkpt lat="43.4373" lon="13.24328333"><ele>215.0</ele><time>2022-03-17T16:47:04.916Z</time></trkpt><trkpt lat="43.43732667" lon="13.243275"><ele>215.0</ele><time>2022-03-17T16:47:05.904Z</time></trkpt><trkpt lat="43.43732667" lon="13.243275"><ele>215.0</ele><time>2022-03-17T16:47:06.910Z</time></trkpt><trkpt lat="43.43735333" lon="13.24327667"><ele>217.0</ele><time>2022-03-17T16:47:07.936Z</time></trkpt><trkpt lat="43.43736833" lon="13.24327833"><ele>218.0</ele><time>2022-03-17T16:47:08.925Z</time></trkpt><trkpt lat="43.43738667" lon="13.243285"><ele>218.0</ele><time>2022-03-17T16:47:09.907Z</time></trkpt><trkpt lat="43.43738667" lon="13.243285"><ele>218.0</ele><time>2022-03-17T16:47:10.914Z</time></trkpt><trkpt lat="43.43743333" lon="13.24328"><ele>220.0</ele><time>2022-03-17T16:47:11.932Z</time></trkpt><trkpt lat="43.43745667" lon="13.24328167"><ele>221.0</ele><time>2022-03-17T16:47:12.907Z</time></trkpt><trkpt lat="43.43747333" lon="13.24328333"><ele>222.0</ele><time>2022-03-17T16:47:13.936Z</time></trkpt><trkpt lat="43.43747333" lon="13.24328333"><ele>222.0</ele><time>2022-03-17T16:47:14.903Z</time></trkpt><trkpt lat="43.43750667" lon="13.243285"><ele>223.0</ele><time>2022-03-17T16:47:15.929Z</time></trkpt><trkpt lat="43.43750667" lon="13.243285"><ele>223.0</ele><time>2022-03-17T16:47:16.936Z</time></trkpt><trkpt lat="43.43754667" lon="13.24327667"><ele>225.0</ele><time>2022-03-17T16:47:17.919Z</time></trkpt><trkpt lat="43.43754667" lon="13.24327667"><ele>225.0</ele><time>2022-03-17T16:47:18.928Z</time></trkpt><trkpt lat="43.43758667" lon="13.24326667"><ele>227.0</ele><time>2022-03-17T16:47:19.910Z</time></trkpt><trkpt lat="43.43758667" lon="13.24326667"><ele>227.0</ele><time>2022-03-17T16:47:20.916Z</time></trkpt><trkpt lat="43.43761833" lon="13.24325833"><ele>230.0</ele><time>2022-03-17T16:47:21.935Z</time></trkpt><trkpt lat="43.43761833" lon="13.24325833"><ele>230.0</ele><time>2022-03-17T16:47:22.941Z</time></trkpt><trkpt lat="43.43766667" lon="13.24324333"><ele>232.0</ele><time>2022-03-17T16:47:23.924Z</time></trkpt><trkpt lat="43.43768333" lon="13.243235"><ele>233.0</ele><time>2022-03-17T16:47:24.905Z</time></trkpt><trkpt lat="43.43768333" lon="13.243235"><ele>233.0</ele><time>2022-03-17T16:47:25.911Z</time></trkpt><trkpt lat="43.437715" lon="13.24322"><ele>234.0</ele><time>2022-03-17T16:47:26.938Z</time></trkpt><trkpt lat="43.437715" lon="13.24322"><ele>234.0</ele><time>2022-03-17T16:47:27.904Z</time></trkpt><trkpt lat="43.43774333" lon="13.24320333"><ele>236.0</ele><time>2022-03-17T16:47:28.938Z</time></trkpt><trkpt lat="43.43776333" lon="13.24318333"><ele>236.0</ele><time>2022-03-17T16:47:29.942Z</time></trkpt><trkpt lat="43.43776333" lon="13.24318333"><ele>236.0</ele><time>2022-03-17T16:47:30.908Z</time></trkpt><trkpt lat="43.437795" lon="13.243155"><ele>237.0</ele><time>2022-03-17T16:47:31.939Z</time></trkpt><trkpt lat="43.437795" lon="13.243155"><ele>237.0</ele><time>2022-03-17T16:47:32.905Z</time></trkpt><trkpt lat="43.43783333" lon="13.243145"><ele>238.0</ele><time>2022-03-17T16:47:33.928Z</time></trkpt><trkpt lat="43.43784667" lon="13.24313167"><ele>239.0</ele><time>2022-03-17T16:47:34.913Z</time></trkpt><trkpt lat="43.43786333" lon="13.24312333"><ele>239.0</ele><time>2022-03-17T16:47:35.914Z</time></trkpt><trkpt lat="43.43786333" lon="13.24312333"><ele>239.0</ele><time>2022-03-17T16:47:36.920Z</time></trkpt><trkpt lat="43.43789167" lon="13.24311"><ele>240.0</ele><time>2022-03-17T16:47:37.903Z</time></trkpt><trkpt lat="43.43789167" lon="13.24311"><ele>240.0</ele><time>2022-03-17T16:47:38.910Z</time></trkpt><trkpt lat="43.43791667" lon="13.24311333"><ele>241.0</ele><time>2022-03-17T16:47:39.926Z</time></trkpt><trkpt lat="43.43793167" lon="13.243105"><ele>241.0</ele><time>2022-03-17T16:47:40.918Z</time></trkpt><trkpt lat="43.43793167" lon="13.243105"><ele>241.0</ele><time>2022-03-17T16:47:41.928Z</time></trkpt><trkpt lat="43.437965" lon="13.24308333"><ele>242.0</ele><time>2022-03-17T16:47:42.913Z</time></trkpt><trkpt lat="43.437965" lon="13.24308333"><ele>242.0</ele><time>2022-03-17T16:47:43.920Z</time></trkpt><trkpt lat="43.43800333" lon="13.24306667"><ele>242.0</ele><time>2022-03-17T16:47:44.908Z</time></trkpt><trkpt lat="43.43800333" lon="13.24306667"><ele>242.0</ele><time>2022-03-17T16:47:45.915Z</time></trkpt><trkpt lat="43.43804" lon="13.243055"><ele>242.0</ele><time>2022-03-17T16:47:46.932Z</time></trkpt><trkpt lat="43.43804" lon="13.243055"><ele>242.0</ele><time>2022-03-17T16:47:47.939Z</time></trkpt><trkpt lat="43.43808" lon="13.24306"><ele>242.0</ele><time>2022-03-17T16:47:48.905Z</time></trkpt><trkpt lat="43.43810167" lon="13.24307333"><ele>242.0</ele><time>2022-03-17T16:47:49.912Z</time></trkpt><trkpt lat="43.43810167" lon="13.24307333"><ele>242.0</ele><time>2022-03-17T16:47:50.919Z</time></trkpt><trkpt lat="43.43814667" lon="13.24310833"><ele>242.0</ele><time>2022-03-17T16:47:51.939Z</time></trkpt><trkpt lat="43.43814667" lon="13.24310833"><ele>242.0</ele><time>2022-03-17T16:47:52.906Z</time></trkpt><trkpt lat="43.43820167" lon="13.24313167"><ele>242.0</ele><time>2022-03-17T16:47:53.927Z</time></trkpt><trkpt lat="43.43823" lon="13.243125"><ele>242.0</ele><time>2022-03-17T16:47:54.907Z</time></trkpt><trkpt lat="43.43825833" lon="13.24311667"><ele>242.0</ele><time>2022-03-17T16:47:55.939Z</time></trkpt><trkpt lat="43.43825833" lon="13.24311667"><ele>242.0</ele><time>2022-03-17T16:47:56.905Z</time></trkpt><trkpt lat="43.438305" lon="13.24310667"><ele>242.0</ele><time>2022-03-17T16:47:57.921Z</time></trkpt><trkpt lat="43.438305" lon="13.24310667"><ele>242.0</ele><time>2022-03-17T16:47:58.927Z</time></trkpt><trkpt lat="43.43835667" lon="13.24309833"><ele>243.0</ele><time>2022-03-17T16:47:59.910Z</time></trkpt><trkpt lat="43.43835667" lon="13.24309833"><ele>243.0</ele><time>2022-03-17T16:48:00.916Z</time></trkpt><trkpt lat="43.43840167" lon="13.24306333"><ele>244.0</ele><time>2022-03-17T16:48:01.936Z</time></trkpt><trkpt lat="43.43840167" lon="13.24306333"><ele>244.0</ele><time>2022-03-17T16:48:02.903Z</time></trkpt><trkpt lat="43.43844" lon="13.24302667"><ele>245.0</ele><time>2022-03-17T16:48:03.925Z</time></trkpt><trkpt lat="43.43844" lon="13.24302667"><ele>245.0</ele><time>2022-03-17T16:48:04.934Z</time></trkpt><trkpt lat="43.438475" lon="13.24298833"><ele>246.0</ele><time>2022-03-17T16:48:05.927Z</time></trkpt><trkpt lat="43.438495" lon="13.24296833"><ele>246.0</ele><time>2022-03-17T16:48:06.940Z</time></trkpt><trkpt lat="43.438495" lon="13.24296833"><ele>246.0</ele><time>2022-03-17T16:48:07.906Z</time></trkpt><trkpt lat="43.43853" lon="13.24293"><ele>247.0</ele><time>2022-03-17T16:48:08.942Z</time></trkpt><trkpt lat="43.43854833" lon="13.24291667"><ele>247.0</ele><time>2022-03-17T16:48:09.925Z</time></trkpt><trkpt lat="43.43854833" lon="13.24291667"><ele>247.0</ele><time>2022-03-17T16:48:10.931Z</time></trkpt><trkpt lat="43.43858333" lon="13.24290667"><ele>247.0</ele><time>2022-03-17T16:48:11.910Z</time></trkpt><trkpt lat="43.43859833" lon="13.24292"><ele>247.0</ele><time>2022-03-17T16:48:12.941Z</time></trkpt><trkpt lat="43.43859833" lon="13.24292"><ele>247.0</ele><time>2022-03-17T16:48:13.907Z</time></trkpt><trkpt lat="43.43861333" lon="13.24294333"><ele>247.0</ele><time>2022-03-17T16:48:14.936Z</time></trkpt><trkpt lat="43.43862167" lon="13.24295"><ele>246.0</ele><time>2022-03-17T16:48:15.921Z</time></trkpt><trkpt lat="43.43862167" lon="13.24295"><ele>246.0</ele><time>2022-03-17T16:48:16.928Z</time></trkpt><trkpt lat="43.43863" lon="13.24295833"><ele>245.0</ele><time>2022-03-17T16:48:17.914Z</time></trkpt></trkseg></trk></gpx>